<?xml version='1.0' encoding='UTF-8'?><gpx version="1.1" creator="JPX - https://github.com/jenetics/jpx" xmlns="http://www.topografix.com/GPX/1/1"><trk><trkseg><trkpt lat="38.48048476040222" lon="15.980206690743547"><ele>52.0</ele><time>2026-05-03T07:53:54.014Z</time></trkpt><trkpt lat="38.48038459665931" lon="15.980192525327187"><ele>52.0</ele><time>2026-05-03T07:53:55.015Z</time></trkpt><trkpt lat="38.48028749231107" lon="15.980243571117501"><ele>52.0</ele><time>2026-05-03T07:53:57.014Z</time></trkpt><trkpt lat="38.48042130939537" lon="15.980198895573595"><ele>52.0</ele><time>2026-05-03T07:54:12Z</time></trkpt><trkpt lat="38.480486833224674" lon="15.980031103090022"><ele>48.5</ele><time>2026-05-03T07:54:13Z</time></trkpt><trkpt lat="38.48054230562103" lon="15.97994606625751"><ele>45.0</ele><time>2026-05-03T07:54:14Z</time></trkpt><trkpt lat="38.480596802530535" lon="15.979866156291633"><ele>41.5</ele><time>2026-05-03T07:54:16Z</time></trkpt><trkpt lat="38.48053349713088" lon="15.979927866853826"><ele>38.0</ele><time>2026-05-03T07:54:17.016Z</time></trkpt><trkpt lat="38.48020311672814" lon="15.980303756402133"><ele>37.0</ele><time>2026-05-03T07:54:24.016Z</time></trkpt><trkpt lat="38.48015245985098" lon="15.980069981902819"><ele>36.0</ele><time>2026-05-03T07:54:34Z</time></trkpt><trkpt lat="38.48016290074534" lon="15.97995740056745"><ele>35.0</ele><time>2026-05-03T07:54:41Z</time></trkpt><trkpt lat="38.48008976690676" lon="15.97996095009916"><ele>34.0</ele><time>2026-05-03T07:54:45Z</time></trkpt><trkpt lat="38.480119565637665" lon="15.980091871815752"><ele>34.0</ele><time>2026-05-03T07:56:17Z</time></trkpt><trkpt lat="38.48007515993161" lon="15.980200541112536"><ele>34.0</ele><time>2026-05-03T07:56:23Z</time></trkpt><trkpt lat="38.48000284955539" lon="15.980318187905421"><ele>34.0</ele><time>2026-05-03T07:56:25Z</time></trkpt><trkpt lat="38.479930535145954" lon="15.980386759170656"><ele>34.0</ele><time>2026-05-03T07:56:27Z</time></trkpt><trkpt lat="38.47980406116479" lon="15.980434023715045"><ele>34.0</ele><time>2026-05-03T07:56:29Z</time></trkpt><trkpt lat="38.47972827124586" lon="15.980484411173629"><ele>34.0</ele><time>2026-05-03T07:56:30Z</time></trkpt><trkpt lat="38.479659585385875" lon="15.980576074606706"><ele>34.0</ele><time>2026-05-03T07:56:31Z</time></trkpt><trkpt lat="38.47957519784399" lon="15.980644668863567"><ele>34.0</ele><time>2026-05-03T07:56:32Z</time></trkpt><trkpt lat="38.479503149851126" lon="15.98074584468632"><ele>34.0</ele><time>2026-05-03T07:56:33Z</time></trkpt><trkpt lat="38.47942288597668" lon="15.980865633224372"><ele>34.0</ele><time>2026-05-03T07:56:34Z</time></trkpt><trkpt lat="38.479352921415945" lon="15.981005386546006"><ele>34.0</ele><time>2026-05-03T07:56:35Z</time></trkpt><trkpt lat="38.47927512218784" lon="15.981149418678788"><ele>34.0</ele><time>2026-05-03T07:56:36Z</time></trkpt><trkpt lat="38.4792045748836" lon="15.981318652535807"><ele>34.0</ele><time>2026-05-03T07:56:37Z</time></trkpt><trkpt lat="38.47911369259193" lon="15.981457709057599"><ele>34.0</ele><time>2026-05-03T07:56:38Z</time></trkpt><trkpt lat="38.47905437687908" lon="15.981616792081358"><ele>35.25</ele><time>2026-05-03T07:56:39Z</time></trkpt><trkpt lat="38.478976104635386" lon="15.981763132221841"><ele>36.5</ele><time>2026-05-03T07:56:40Z</time></trkpt><trkpt lat="38.478883316681106" lon="15.981906807218763"><ele>37.75</ele><time>2026-05-03T07:56:41Z</time></trkpt><trkpt lat="38.478832649707115" lon="15.98208774957059"><ele>39.0</ele><time>2026-05-03T07:56:42Z</time></trkpt><trkpt lat="38.47877404711734" lon="15.98227849872385"><ele>36.333333333333336</ele><time>2026-05-03T07:56:43Z</time></trkpt><trkpt lat="38.478726254036026" lon="15.982468806522968"><ele>33.66666666666667</ele><time>2026-05-03T07:56:44Z</time></trkpt><trkpt lat="38.47866591388365" lon="15.982669299081346"><ele>31.0</ele><time>2026-05-03T07:56:45Z</time></trkpt><trkpt lat="38.478615558172585" lon="15.982877365569777"><ele>31.0</ele><time>2026-05-03T07:56:46Z</time></trkpt><trkpt lat="38.47855642837337" lon="15.98307399153964"><ele>31.0</ele><time>2026-05-03T07:56:47Z</time></trkpt><trkpt lat="38.47851512585264" lon="15.983260274436923"><ele>31.0</ele><time>2026-05-03T07:56:47.999Z</time></trkpt><trkpt lat="38.47850609451599" lon="15.98345571746621"><ele>31.25</ele><time>2026-05-03T07:56:48.999Z</time></trkpt><trkpt lat="38.47846888007552" lon="15.983630965172425"><ele>31.5</ele><time>2026-05-03T07:56:49.999Z</time></trkpt><trkpt lat="38.47842704284029" lon="15.983802860941898"><ele>31.75</ele><time>2026-05-03T07:56:50.999Z</time></trkpt><trkpt lat="38.47839010437103" lon="15.983980082296332"><ele>32.0</ele><time>2026-05-03T07:56:51.999Z</time></trkpt><trkpt lat="38.47835396924778" lon="15.984148319892315"><ele>32.5</ele><time>2026-05-03T07:56:52.999Z</time></trkpt><trkpt lat="38.4783247056118" lon="15.984293795999244"><ele>33.0</ele><time>2026-05-03T07:56:53.999Z</time></trkpt><trkpt lat="38.478291484565034" lon="15.984448097025426"><ele>33.5</ele><time>2026-05-03T07:56:54.999Z</time></trkpt><trkpt lat="38.47825886017536" lon="15.98462314983177"><ele>34.0</ele><time>2026-05-03T07:56:55.999Z</time></trkpt><trkpt lat="38.47820181921446" lon="15.984786403660346"><ele>34.0</ele><time>2026-05-03T07:56:56.999Z</time></trkpt><trkpt lat="38.478184778478266" lon="15.98497085290639"><ele>34.0</ele><time>2026-05-03T07:56:57.999Z</time></trkpt><trkpt lat="38.47817140601674" lon="15.985140445131881"><ele>34.0</ele><time>2026-05-03T07:56:58.999Z</time></trkpt><trkpt lat="38.47815410159358" lon="15.985319024767358"><ele>34.0</ele><time>2026-05-03T07:56:59.999Z</time></trkpt><trkpt lat="38.478137484541755" lon="15.985495924936087"><ele>34.4</ele><time>2026-05-03T07:57:00.999Z</time></trkpt><trkpt lat="38.47812365096252" lon="15.985666901849502"><ele>34.8</ele><time>2026-05-03T07:57:01.999Z</time></trkpt><trkpt lat="38.478112435376765" lon="15.985812095584498"><ele>35.2</ele><time>2026-05-03T07:57:02.999Z</time></trkpt><trkpt lat="38.478102510141504" lon="15.985941369407888"><ele>35.6</ele><time>2026-05-03T07:57:03.999Z</time></trkpt><trkpt lat="38.47809398507829" lon="15.986052408700642"><ele>36.0</ele><time>2026-05-03T07:57:04.999Z</time></trkpt><trkpt lat="38.47808766723537" lon="15.986160546427818"><ele>36.0</ele><time>2026-05-03T07:57:05.999Z</time></trkpt><trkpt lat="38.4780813407169" lon="15.98625862309613"><ele>36.0</ele><time>2026-05-03T07:57:06.999Z</time></trkpt><trkpt lat="38.47807642592656" lon="15.986340176163553"><ele>36.0</ele><time>2026-05-03T07:57:07.999Z</time></trkpt><trkpt lat="38.478071612377114" lon="15.986429502926502"><ele>36.0</ele><time>2026-05-03T07:57:08.999Z</time></trkpt><trkpt lat="38.478063280359684" lon="15.986584123405079"><ele>36.0</ele><time>2026-05-03T07:57:10.999Z</time></trkpt><trkpt lat="38.478057404963096" lon="15.986693155226833"><ele>36.0</ele><time>2026-05-03T07:57:11.999Z</time></trkpt><trkpt lat="38.478049751711865" lon="15.98683517969177"><ele>36.0</ele><time>2026-05-03T07:57:12.999Z</time></trkpt><trkpt lat="38.47804180240332" lon="15.986995906494984"><ele>36.0</ele><time>2026-05-03T07:57:13.999Z</time></trkpt><trkpt lat="38.47803465876132" lon="15.987144557201445"><ele>36.0</ele><time>2026-05-03T07:57:14.999Z</time></trkpt><trkpt lat="38.478031190617635" lon="15.987271073535213"><ele>36.0</ele><time>2026-05-03T07:57:15.999Z</time></trkpt><trkpt lat="38.47802963297977" lon="15.987422427596604"><ele>36.333333333333336</ele><time>2026-05-03T07:57:16.999Z</time></trkpt><trkpt lat="38.478032720900046" lon="15.987606072946615"><ele>36.66666666666667</ele><time>2026-05-03T07:57:17.999Z</time></trkpt><trkpt lat="38.47803606534516" lon="15.987802137189453"><ele>37.0</ele><time>2026-05-03T07:57:18.999Z</time></trkpt><trkpt lat="38.47804368271458" lon="15.988027322211524"><ele>37.0</ele><time>2026-05-03T07:57:19.999Z</time></trkpt><trkpt lat="38.47805222476321" lon="15.988279846930851"><ele>37.0</ele><time>2026-05-03T07:57:20.999Z</time></trkpt><trkpt lat="38.4780591831213" lon="15.988533680832147"><ele>37.0</ele><time>2026-05-03T07:57:21.999Z</time></trkpt><trkpt lat="38.47808392360391" lon="15.988779006217273"><ele>36.66666666666667</ele><time>2026-05-03T07:57:22.999Z</time></trkpt><trkpt lat="38.478091422855336" lon="15.989020253596816"><ele>36.333333333333336</ele><time>2026-05-03T07:57:23.999Z</time></trkpt><trkpt lat="38.47811025566611" lon="15.98926443379821"><ele>36.0</ele><time>2026-05-03T07:57:24.999Z</time></trkpt><trkpt lat="38.478141697996435" lon="15.989512500545695"><ele>35.0</ele><time>2026-05-03T07:57:25.999Z</time></trkpt><trkpt lat="38.47818231889105" lon="15.989760409227321"><ele>34.0</ele><time>2026-05-03T07:57:26.999Z</time></trkpt><trkpt lat="38.47820090198809" lon="15.990002217396995"><ele>33.0</ele><time>2026-05-03T07:57:27.999Z</time></trkpt><trkpt lat="38.47823368685025" lon="15.990236878060673"><ele>32.666666666666664</ele><time>2026-05-03T07:57:28.999Z</time></trkpt><trkpt lat="38.47828171846286" lon="15.990464815840681"><ele>32.33333333333333</ele><time>2026-05-03T07:57:29.999Z</time></trkpt><trkpt lat="38.478290693371676" lon="15.990694040879566"><ele>32.0</ele><time>2026-05-03T07:57:30.999Z</time></trkpt><trkpt lat="38.47830125363842" lon="15.990926868321235"><ele>32.0</ele><time>2026-05-03T07:57:31.999Z</time></trkpt><trkpt lat="38.47830022959207" lon="15.991178397026534"><ele>32.0</ele><time>2026-05-03T07:57:32.999Z</time></trkpt><trkpt lat="38.47829038457032" lon="15.99143597165434"><ele>32.0</ele><time>2026-05-03T07:57:33.999Z</time></trkpt><trkpt lat="38.478273441736945" lon="15.991679042249883"><ele>32.0</ele><time>2026-05-03T07:57:34.999Z</time></trkpt><trkpt lat="38.478252893596036" lon="15.991901881375236"><ele>32.0</ele><time>2026-05-03T07:57:35.999Z</time></trkpt><trkpt lat="38.47822746896512" lon="15.992138212275616"><ele>32.0</ele><time>2026-05-03T07:57:36.999Z</time></trkpt><trkpt lat="38.478201532428564" lon="15.992379304384322"><ele>32.33333333333333</ele><time>2026-05-03T07:57:37.999Z</time></trkpt><trkpt lat="38.478176611288724" lon="15.9926089445808"><ele>32.666666666666664</ele><time>2026-05-03T07:57:38.999Z</time></trkpt><trkpt lat="38.47818212201613" lon="15.99284771637976"><ele>33.0</ele><time>2026-05-03T07:57:39.999Z</time></trkpt><trkpt lat="38.4781531974137" lon="15.993080105910389"><ele>33.0</ele><time>2026-05-03T07:57:40.999Z</time></trkpt><trkpt lat="38.47812567136413" lon="15.993317763295249"><ele>33.0</ele><time>2026-05-03T07:57:41.999Z</time></trkpt><trkpt lat="38.47810435018977" lon="15.993542969874492"><ele>33.0</ele><time>2026-05-03T07:57:42.999Z</time></trkpt><trkpt lat="38.47804783518235" lon="15.993718903734612"><ele>33.199999999999996</ele><time>2026-05-03T07:57:43.999Z</time></trkpt><trkpt lat="38.4780304864243" lon="15.99387881998436"><ele>33.4</ele><time>2026-05-03T07:57:44.999Z</time></trkpt><trkpt lat="38.47801820868123" lon="15.994008352712742"><ele>33.599999999999994</ele><time>2026-05-03T07:57:45.999Z</time></trkpt><trkpt lat="38.478010704917914" lon="15.994092223651803"><ele>33.8</ele><time>2026-05-03T07:57:46.999Z</time></trkpt><trkpt lat="38.47799045178105" lon="15.994200267569244"><ele>34.0</ele><time>2026-05-03T07:57:48.999Z</time></trkpt><trkpt lat="38.47793587127963" lon="15.994256583699991"><ele>33.66666666666667</ele><time>2026-05-03T07:57:50.999Z</time></trkpt><trkpt lat="38.47791069186616" lon="15.994357867514463"><ele>33.333333333333336</ele><time>2026-05-03T07:57:52.999Z</time></trkpt><trkpt lat="38.477891769856626" lon="15.99444509983516"><ele>33.0</ele><time>2026-05-03T07:57:57.999Z</time></trkpt><trkpt lat="38.47789269637211" lon="15.994532416879947"><ele>32.666666666666664</ele><time>2026-05-03T08:01:05Z</time></trkpt><trkpt lat="38.477873320273545" lon="15.994675733492404"><ele>32.33333333333333</ele><time>2026-05-03T08:01:46.999Z</time></trkpt><trkpt lat="38.47782300043483" lon="15.994788435316215"><ele>32.0</ele><time>2026-05-03T08:01:52.999Z</time></trkpt><trkpt lat="38.4777892987382" lon="15.994857556673907"><ele>31.999999999999996</ele><time>2026-05-03T08:01:53.999Z</time></trkpt><trkpt lat="38.47774625464768" lon="15.994928317637584"><ele>32.0</ele><time>2026-05-03T08:01:54.999Z</time></trkpt><trkpt lat="38.47769231913329" lon="15.99500760316411"><ele>32.0</ele><time>2026-05-03T08:01:55.999Z</time></trkpt><trkpt lat="38.47762891263884" lon="15.995089010579619"><ele>32.0</ele><time>2026-05-03T08:01:56.999Z</time></trkpt><trkpt lat="38.47755883860128" lon="15.995160669814235"><ele>31.999999999999996</ele><time>2026-05-03T08:01:57.999Z</time></trkpt><trkpt lat="38.47748779598266" lon="15.995235691890455"><ele>32.0</ele><time>2026-05-03T08:01:58.999Z</time></trkpt><trkpt lat="38.47739801292365" lon="15.995316576957027"><ele>32.0</ele><time>2026-05-03T08:01:59.999Z</time></trkpt><trkpt lat="38.477303907346645" lon="15.99539269700663"><ele>32.0</ele><time>2026-05-03T08:02:00.999Z</time></trkpt><trkpt lat="38.47720993562943" lon="15.995467144570226"><ele>32.0</ele><time>2026-05-03T08:02:01.999Z</time></trkpt><trkpt lat="38.477109644079825" lon="15.995553121057883"><ele>32.0</ele><time>2026-05-03T08:02:02.999Z</time></trkpt><trkpt lat="38.47700951731074" lon="15.995620489122135"><ele>32.0</ele><time>2026-05-03T08:02:03.999Z</time></trkpt><trkpt lat="38.47690780241451" lon="15.995709874706268"><ele>32.0</ele><time>2026-05-03T08:02:04.999Z</time></trkpt><trkpt lat="38.476796860667676" lon="15.99579317388407"><ele>32.0</ele><time>2026-05-03T08:02:05.999Z</time></trkpt><trkpt lat="38.476700638259054" lon="15.995873507430696"><ele>32.0</ele><time>2026-05-03T08:02:06.999Z</time></trkpt><trkpt lat="38.47659488387207" lon="15.995976212219901"><ele>32.0</ele><time>2026-05-03T08:02:07.999Z</time></trkpt><trkpt lat="38.47648984033804" lon="15.996063869998775"><ele>32.0</ele><time>2026-05-03T08:02:08.999Z</time></trkpt><trkpt lat="38.47638234013033" lon="15.996160069970735"><ele>32.0</ele><time>2026-05-03T08:02:09.999Z</time></trkpt><trkpt lat="38.476284097482235" lon="15.996265238995269"><ele>32.0</ele><time>2026-05-03T08:02:10.999Z</time></trkpt><trkpt lat="38.47618196675981" lon="15.996381308311447"><ele>33.0</ele><time>2026-05-03T08:02:11.999Z</time></trkpt><trkpt lat="38.476090034886965" lon="15.99650446377259"><ele>34.0</ele><time>2026-05-03T08:02:12.999Z</time></trkpt><trkpt lat="38.47599675478812" lon="15.996635145733546"><ele>35.0</ele><time>2026-05-03T08:02:13.999Z</time></trkpt><trkpt lat="38.475905374630635" lon="15.996760773158256"><ele>36.0</ele><time>2026-05-03T08:02:14.999Z</time></trkpt><trkpt lat="38.47581496071841" lon="15.996886562148012"><ele>36.0</ele><time>2026-05-03T08:02:15.999Z</time></trkpt><trkpt lat="38.47572700704083" lon="15.997017553869581"><ele>36.0</ele><time>2026-05-03T08:02:16.999Z</time></trkpt><trkpt lat="38.4756352774608" lon="15.997151205394005"><ele>36.0</ele><time>2026-05-03T08:02:17.999Z</time></trkpt><trkpt lat="38.47554875228971" lon="15.997292985803377"><ele>36.0</ele><time>2026-05-03T08:02:18.999Z</time></trkpt><trkpt lat="38.47545752054034" lon="15.997420563293376"><ele>36.0</ele><time>2026-05-03T08:02:19.999Z</time></trkpt><trkpt lat="38.475366679491906" lon="15.997558064303428"><ele>36.0</ele><time>2026-05-03T08:02:21Z</time></trkpt><trkpt lat="38.475273960837" lon="15.997692380950605"><ele>36.0</ele><time>2026-05-03T08:02:22Z</time></trkpt><trkpt lat="38.47518113534656" lon="15.997832123235701"><ele>36.0</ele><time>2026-05-03T08:02:23Z</time></trkpt><trkpt lat="38.47508606352065" lon="15.99796315446828"><ele>36.0</ele><time>2026-05-03T08:02:24Z</time></trkpt><trkpt lat="38.47498978077453" lon="15.998109290641658"><ele>36.0</ele><time>2026-05-03T08:02:25Z</time></trkpt><trkpt lat="38.474889873210536" lon="15.998258202937704"><ele>36.0</ele><time>2026-05-03T08:02:26Z</time></trkpt><trkpt lat="38.474790836159336" lon="15.998412503075878"><ele>36.0</ele><time>2026-05-03T08:02:27Z</time></trkpt><trkpt lat="38.474685318836876" lon="15.998562934369065"><ele>36.0</ele><time>2026-05-03T08:02:28Z</time></trkpt><trkpt lat="38.474579357108276" lon="15.998713455987305"><ele>36.0</ele><time>2026-05-03T08:02:29Z</time></trkpt><trkpt lat="38.47447321477726" lon="15.998867467790202"><ele>36.0</ele><time>2026-05-03T08:02:30Z</time></trkpt><trkpt lat="38.4743656173684" lon="15.999034096688051"><ele>36.0</ele><time>2026-05-03T08:02:31Z</time></trkpt><trkpt lat="38.474252128939675" lon="15.999202783549213"><ele>36.0</ele><time>2026-05-03T08:02:32Z</time></trkpt><trkpt lat="38.47413873226184" lon="15.999373068204907"><ele>35.666666666666664</ele><time>2026-05-03T08:02:33Z</time></trkpt><trkpt lat="38.47401907905964" lon="15.99954510781921"><ele>35.33333333333333</ele><time>2026-05-03T08:02:34Z</time></trkpt><trkpt lat="38.47389645756226" lon="15.99971882831966"><ele>35.0</ele><time>2026-05-03T08:02:35Z</time></trkpt><trkpt lat="38.47377163921791" lon="15.999899343003003"><ele>36.0</ele><time>2026-05-03T08:02:36Z</time></trkpt><trkpt lat="38.47365449410278" lon="16.000079743996892"><ele>37.0</ele><time>2026-05-03T08:02:37Z</time></trkpt><trkpt lat="38.473538723568716" lon="16.000244943968518"><ele>38.0</ele><time>2026-05-03T08:02:38Z</time></trkpt><trkpt lat="38.47343217036719" lon="16.00040677324516"><ele>38.0</ele><time>2026-05-03T08:02:39Z</time></trkpt><trkpt lat="38.47332912067849" lon="16.000558842132925"><ele>38.0</ele><time>2026-05-03T08:02:40Z</time></trkpt><trkpt lat="38.47322009203395" lon="16.000715948587164"><ele>38.0</ele><time>2026-05-03T08:02:41Z</time></trkpt><trkpt lat="38.47310582452456" lon="16.000893556599085"><ele>38.0</ele><time>2026-05-03T08:02:42Z</time></trkpt><trkpt lat="38.47297498134974" lon="16.00105936446822"><ele>38.0</ele><time>2026-05-03T08:02:43Z</time></trkpt><trkpt lat="38.47286457180968" lon="16.001253609792528"><ele>38.0</ele><time>2026-05-03T08:02:44Z</time></trkpt><trkpt lat="38.47273780121813" lon="16.001435622823237"><ele>39.0</ele><time>2026-05-03T08:02:45Z</time></trkpt><trkpt lat="38.47261544108522" lon="16.00161896688549"><ele>40.0</ele><time>2026-05-03T08:02:46Z</time></trkpt><trkpt lat="38.472491241446924" lon="16.001792546239447"><ele>41.0</ele><time>2026-05-03T08:02:47Z</time></trkpt><trkpt lat="38.472375439698546" lon="16.00195594215882"><ele>41.0</ele><time>2026-05-03T08:02:48Z</time></trkpt><trkpt lat="38.472264322436345" lon="16.002112293104748"><ele>41.0</ele><time>2026-05-03T08:02:49Z</time></trkpt><trkpt lat="38.47215942485407" lon="16.002279486084724"><ele>41.0</ele><time>2026-05-03T08:02:50Z</time></trkpt><trkpt lat="38.47205233018394" lon="16.002441927963737"><ele>40.666666666666664</ele><time>2026-05-03T08:02:51Z</time></trkpt><trkpt lat="38.47194266019505" lon="16.002594130698967"><ele>40.333333333333336</ele><time>2026-05-03T08:02:52Z</time></trkpt><trkpt lat="38.471832893039995" lon="16.002746073929853"><ele>40.0</ele><time>2026-05-03T08:02:53Z</time></trkpt><trkpt lat="38.47172468506735" lon="16.0029035463689"><ele>40.0</ele><time>2026-05-03T08:02:54Z</time></trkpt><trkpt lat="38.471611746006744" lon="16.003052435267957"><ele>40.0</ele><time>2026-05-03T08:02:55Z</time></trkpt><trkpt lat="38.47149888254083" lon="16.003205299755642"><ele>40.0</ele><time>2026-05-03T08:02:56Z</time></trkpt><trkpt lat="38.471383165863706" lon="16.003358755200047"><ele>40.0</ele><time>2026-05-03T08:02:57Z</time></trkpt><trkpt lat="38.471270343259675" lon="16.00350389952164"><ele>40.0</ele><time>2026-05-03T08:02:58Z</time></trkpt><trkpt lat="38.47115602578157" lon="16.003657268976287"><ele>40.0</ele><time>2026-05-03T08:02:59Z</time></trkpt><trkpt lat="38.471046755762515" lon="16.003805752430523"><ele>40.0</ele><time>2026-05-03T08:03:00Z</time></trkpt><trkpt lat="38.470938742000044" lon="16.003953185179"><ele>40.0</ele><time>2026-05-03T08:03:01Z</time></trkpt><trkpt lat="38.47081798857302" lon="16.004090132795216"><ele>40.0</ele><time>2026-05-03T08:03:02Z</time></trkpt><trkpt lat="38.470719531662674" lon="16.004252356033714"><ele>40.333333333333336</ele><time>2026-05-03T08:03:03Z</time></trkpt><trkpt lat="38.47060858748023" lon="16.00440130729455"><ele>40.666666666666664</ele><time>2026-05-03T08:03:04Z</time></trkpt><trkpt lat="38.47050049323974" lon="16.00454876823353"><ele>41.0</ele><time>2026-05-03T08:03:05Z</time></trkpt><trkpt lat="38.47039030656002" lon="16.004693091337494"><ele>41.33333333333333</ele><time>2026-05-03T08:03:06Z</time></trkpt><trkpt lat="38.47027813531814" lon="16.00484020531113"><ele>41.666666666666664</ele><time>2026-05-03T08:03:07Z</time></trkpt><trkpt lat="38.470171915702124" lon="16.004987623971637"><ele>42.0</ele><time>2026-05-03T08:03:08Z</time></trkpt><trkpt lat="38.47006354374321" lon="16.00513940786423"><ele>42.0</ele><time>2026-05-03T08:03:09Z</time></trkpt><trkpt lat="38.469951012147206" lon="16.005292731372887"><ele>42.0</ele><time>2026-05-03T08:03:10Z</time></trkpt><trkpt lat="38.46983587414709" lon="16.005454576336664"><ele>42.0</ele><time>2026-05-03T08:03:11Z</time></trkpt><trkpt lat="38.469725373505426" lon="16.00559993350755"><ele>42.0</ele><time>2026-05-03T08:03:12Z</time></trkpt><trkpt lat="38.469608106414825" lon="16.00574983097055"><ele>42.0</ele><time>2026-05-03T08:03:13Z</time></trkpt><trkpt lat="38.4694897128143" lon="16.00591067080379"><ele>42.0</ele><time>2026-05-03T08:03:14Z</time></trkpt><trkpt lat="38.46937629172187" lon="16.00606576060865"><ele>42.333333333333336</ele><time>2026-05-03T08:03:15Z</time></trkpt><trkpt lat="38.46926044245626" lon="16.00621301167476"><ele>42.66666666666667</ele><time>2026-05-03T08:03:16Z</time></trkpt><trkpt lat="38.46914835911871" lon="16.006364429893225"><ele>43.0</ele><time>2026-05-03T08:03:17Z</time></trkpt><trkpt lat="38.46903677364969" lon="16.006527292960207"><ele>43.333333333333336</ele><time>2026-05-03T08:03:18Z</time></trkpt><trkpt lat="38.468921701112585" lon="16.006684853754656"><ele>43.666666666666664</ele><time>2026-05-03T08:03:19Z</time></trkpt><trkpt lat="38.46879421449141" lon="16.00682417772794"><ele>44.0</ele><time>2026-05-03T08:03:20Z</time></trkpt><trkpt lat="38.468681666944825" lon="16.00697591274781"><ele>45.0</ele><time>2026-05-03T08:03:21Z</time></trkpt><trkpt lat="38.46857251463442" lon="16.00712335920286"><ele>46.0</ele><time>2026-05-03T08:03:22Z</time></trkpt><trkpt lat="38.468482450304336" lon="16.00727606798025"><ele>47.0</ele><time>2026-05-03T08:03:23Z</time></trkpt><trkpt lat="38.46837125336441" lon="16.007396059751812"><ele>46.75</ele><time>2026-05-03T08:03:24Z</time></trkpt><trkpt lat="38.46828484395219" lon="16.007543360368125"><ele>46.5</ele><time>2026-05-03T08:03:25Z</time></trkpt><trkpt lat="38.468188059256306" lon="16.00767458879115"><ele>46.25</ele><time>2026-05-03T08:03:26Z</time></trkpt><trkpt lat="38.46808066296121" lon="16.007789318426454"><ele>46.0</ele><time>2026-05-03T08:03:27Z</time></trkpt><trkpt lat="38.468000016371384" lon="16.007928010494048"><ele>46.0</ele><time>2026-05-03T08:03:28Z</time></trkpt><trkpt lat="38.46790219827173" lon="16.008047165068632"><ele>46.0</ele><time>2026-05-03T08:03:29Z</time></trkpt><trkpt lat="38.467811014334494" lon="16.008167782284755"><ele>46.0</ele><time>2026-05-03T08:03:30Z</time></trkpt><trkpt lat="38.46772410499848" lon="16.008282985698735"><ele>46.0</ele><time>2026-05-03T08:03:31Z</time></trkpt><trkpt lat="38.467644103424895" lon="16.008390132462182"><ele>45.8</ele><time>2026-05-03T08:03:32Z</time></trkpt><trkpt lat="38.46757408666773" lon="16.008488655973295"><ele>45.599999999999994</ele><time>2026-05-03T08:03:33Z</time></trkpt><trkpt lat="38.46751096146724" lon="16.008579802282245"><ele>45.4</ele><time>2026-05-03T08:03:34Z</time></trkpt><trkpt lat="38.46744952658023" lon="16.008664918983257"><ele>45.2</ele><time>2026-05-03T08:03:35Z</time></trkpt><trkpt lat="38.467395384130825" lon="16.00874162656812"><ele>45.0</ele><time>2026-05-03T08:03:36Z</time></trkpt><trkpt lat="38.467339836972485" lon="16.008817167619245"><ele>45.0</ele><time>2026-05-03T08:03:36.999Z</time></trkpt><trkpt lat="38.46727993503797" lon="16.008894494492132"><ele>45.0</ele><time>2026-05-03T08:03:37.999Z</time></trkpt><trkpt lat="38.46721983276801" lon="16.0089758868127"><ele>45.0</ele><time>2026-05-03T08:03:38.999Z</time></trkpt><trkpt lat="38.46715808465487" lon="16.00905233896128"><ele>45.0</ele><time>2026-05-03T08:03:39.999Z</time></trkpt><trkpt lat="38.467098509436795" lon="16.0091384829117"><ele>45.0</ele><time>2026-05-03T08:03:40.999Z</time></trkpt><trkpt lat="38.46702388641872" lon="16.00923127853543"><ele>45.8</ele><time>2026-05-03T08:03:41.999Z</time></trkpt><trkpt lat="38.4669520947117" lon="16.009337772408795"><ele>46.6</ele><time>2026-05-03T08:03:42.999Z</time></trkpt><trkpt lat="38.466882056595054" lon="16.009442428379913"><ele>47.400000000000006</ele><time>2026-05-03T08:03:43.999Z</time></trkpt><trkpt lat="38.46679481307242" lon="16.00952535900694"><ele>48.2</ele><time>2026-05-03T08:03:44.999Z</time></trkpt><trkpt lat="38.46671788497657" lon="16.00962881104053"><ele>49.0</ele><time>2026-05-03T08:03:45.999Z</time></trkpt><trkpt lat="38.46664424547655" lon="16.009727840802412"><ele>49.0</ele><time>2026-05-03T08:03:46.999Z</time></trkpt><trkpt lat="38.46657988363682" lon="16.009815525516895"><ele>49.0</ele><time>2026-05-03T08:03:47.999Z</time></trkpt><trkpt lat="38.46649991442846" lon="16.00985106176503"><ele>49.0</ele><time>2026-05-03T08:03:48.999Z</time></trkpt><trkpt lat="38.46640540801783" lon="16.0098151809032"><ele>49.0</ele><time>2026-05-03T08:03:49.999Z</time></trkpt><trkpt lat="38.46631218353666" lon="16.00981950591302"><ele>49.0</ele><time>2026-05-03T08:03:50.999Z</time></trkpt><trkpt lat="38.466220811808896" lon="16.0098510803803"><ele>49.0</ele><time>2026-05-03T08:03:51.999Z</time></trkpt><trkpt lat="38.46615734422075" lon="16.009939691472773"><ele>49.0</ele><time>2026-05-03T08:03:52.999Z</time></trkpt><trkpt lat="38.466118170847864" lon="16.010068531618334"><ele>49.0</ele><time>2026-05-03T08:03:53.999Z</time></trkpt><trkpt lat="38.466102213265515" lon="16.010222664428365"><ele>49.0</ele><time>2026-05-03T08:03:54.999Z</time></trkpt><trkpt lat="38.46608706742796" lon="16.010384647792044"><ele>49.25</ele><time>2026-05-03T08:03:55.999Z</time></trkpt><trkpt lat="38.466043796793095" lon="16.01051743746772"><ele>49.5</ele><time>2026-05-03T08:03:56.999Z</time></trkpt><trkpt lat="38.46598134857173" lon="16.010627430536662"><ele>49.75</ele><time>2026-05-03T08:03:57.999Z</time></trkpt><trkpt lat="38.4659103310587" lon="16.010738777357904"><ele>50.0</ele><time>2026-05-03T08:03:58.999Z</time></trkpt><trkpt lat="38.465776513953614" lon="16.01090744857834"><ele>50.0</ele><time>2026-05-03T08:03:59.999Z</time></trkpt><trkpt lat="38.465640242737926" lon="16.01109410850782"><ele>50.0</ele><time>2026-05-03T08:04:00.999Z</time></trkpt><trkpt lat="38.46548496121122" lon="16.011305407868104"><ele>50.0</ele><time>2026-05-03T08:04:01.999Z</time></trkpt><trkpt lat="38.465347363353565" lon="16.011492749623258"><ele>50.0</ele><time>2026-05-03T08:04:02.999Z</time></trkpt><trkpt lat="38.46521640380632" lon="16.011678328988033"><ele>50.0</ele><time>2026-05-03T08:04:03.999Z</time></trkpt><trkpt lat="38.46508854132133" lon="16.01186184438578"><ele>50.0</ele><time>2026-05-03T08:04:04.999Z</time></trkpt><trkpt lat="38.46494366493363" lon="16.01203258015282"><ele>50.0</ele><time>2026-05-03T08:04:05.999Z</time></trkpt><trkpt lat="38.464804002733985" lon="16.012220676661006"><ele>50.0</ele><time>2026-05-03T08:04:06.999Z</time></trkpt><trkpt lat="38.464660450936" lon="16.012414010988017"><ele>50.0</ele><time>2026-05-03T08:04:07.999Z</time></trkpt><trkpt lat="38.464523013171096" lon="16.012622167613177"><ele>52.66666666666667</ele><time>2026-05-03T08:04:08.999Z</time></trkpt><trkpt lat="38.464367221147064" lon="16.0128107303283"><ele>55.33333333333333</ele><time>2026-05-03T08:04:09.999Z</time></trkpt><trkpt lat="38.46421171167663" lon="16.013007604522873"><ele>58.0</ele><time>2026-05-03T08:04:10.999Z</time></trkpt><trkpt lat="38.46406424652141" lon="16.013204212946906"><ele>57.0</ele><time>2026-05-03T08:04:11.999Z</time></trkpt><trkpt lat="38.46391837870193" lon="16.013409650906485"><ele>56.0</ele><time>2026-05-03T08:04:12.999Z</time></trkpt><trkpt lat="38.463770212119286" lon="16.013598511072257"><ele>55.0</ele><time>2026-05-03T08:04:13.999Z</time></trkpt><trkpt lat="38.46361925224337" lon="16.01378085089784"><ele>59.666666666666664</ele><time>2026-05-03T08:04:14.999Z</time></trkpt><trkpt lat="38.46348790772469" lon="16.013937843760026"><ele>64.33333333333333</ele><time>2026-05-03T08:04:15.999Z</time></trkpt><trkpt lat="38.46331642059624" lon="16.014131956322263"><ele>69.0</ele><time>2026-05-03T08:04:16.999Z</time></trkpt><trkpt lat="38.46316348015377" lon="16.014329967738888"><ele>69.0</ele><time>2026-05-03T08:04:17.999Z</time></trkpt><trkpt lat="38.463017943567095" lon="16.014490468393937"><ele>69.0</ele><time>2026-05-03T08:04:18.999Z</time></trkpt><trkpt lat="38.46287686722049" lon="16.01467724989218"><ele>69.0</ele><time>2026-05-03T08:04:19.999Z</time></trkpt><trkpt lat="38.46273873024033" lon="16.014850969788345"><ele>72.66666666666667</ele><time>2026-05-03T08:04:20.999Z</time></trkpt><trkpt lat="38.46259764835766" lon="16.015029562067095"><ele>76.33333333333334</ele><time>2026-05-03T08:04:21.999Z</time></trkpt><trkpt lat="38.46245873219845" lon="16.015196563417945"><ele>80.0</ele><time>2026-05-03T08:04:22.999Z</time></trkpt><trkpt lat="38.46232684514999" lon="16.015358497032217"><ele>80.0</ele><time>2026-05-03T08:04:23.999Z</time></trkpt><trkpt lat="38.462195218654344" lon="16.01552420055393"><ele>80.0</ele><time>2026-05-03T08:04:24.999Z</time></trkpt><trkpt lat="38.46206448329013" lon="16.015683134319566"><ele>80.0</ele><time>2026-05-03T08:04:25.999Z</time></trkpt><trkpt lat="38.4619212024116" lon="16.015857190959256"><ele>77.33333333333334</ele><time>2026-05-03T08:04:27Z</time></trkpt><trkpt lat="38.4617790346767" lon="16.01603308444877"><ele>74.66666666666667</ele><time>2026-05-03T08:04:28Z</time></trkpt><trkpt lat="38.46166261075003" lon="16.016193631744475"><ele>72.0</ele><time>2026-05-03T08:04:29Z</time></trkpt><trkpt lat="38.46153201604883" lon="16.01634528810938"><ele>72.0</ele><time>2026-05-03T08:04:30Z</time></trkpt><trkpt lat="38.46140341876368" lon="16.01651126420057"><ele>72.0</ele><time>2026-05-03T08:04:31Z</time></trkpt><trkpt lat="38.46127774135246" lon="16.01667694756802"><ele>72.0</ele><time>2026-05-03T08:04:32Z</time></trkpt><trkpt lat="38.46114755567408" lon="16.016861445613895"><ele>68.33333333333333</ele><time>2026-05-03T08:04:33Z</time></trkpt><trkpt lat="38.461028662024304" lon="16.017020363003297"><ele>64.66666666666666</ele><time>2026-05-03T08:04:34Z</time></trkpt><trkpt lat="38.46089576338625" lon="16.017180718444315"><ele>61.0</ele><time>2026-05-03T08:04:35Z</time></trkpt><trkpt lat="38.46078108888131" lon="16.017356606840213"><ele>61.0</ele><time>2026-05-03T08:04:36Z</time></trkpt><trkpt lat="38.460655818016356" lon="16.017532790376684"><ele>61.0</ele><time>2026-05-03T08:04:37Z</time></trkpt><trkpt lat="38.46052984357019" lon="16.017701184812164"><ele>61.0</ele><time>2026-05-03T08:04:38Z</time></trkpt><trkpt lat="38.46040642742901" lon="16.01787123889842"><ele>61.0</ele><time>2026-05-03T08:04:39Z</time></trkpt><trkpt lat="38.460286880497826" lon="16.01804045366576"><ele>61.0</ele><time>2026-05-03T08:04:40Z</time></trkpt><trkpt lat="38.46016521381017" lon="16.018211371845425"><ele>61.0</ele><time>2026-05-03T08:04:41Z</time></trkpt><trkpt lat="38.46003942785012" lon="16.018376844285168"><ele>61.0</ele><time>2026-05-03T08:04:42Z</time></trkpt><trkpt lat="38.45991349583388" lon="16.018542660328915"><ele>61.0</ele><time>2026-05-03T08:04:43Z</time></trkpt><trkpt lat="38.45978857489388" lon="16.01871194466885"><ele>61.0</ele><time>2026-05-03T08:04:44Z</time></trkpt><trkpt lat="38.45966408912301" lon="16.01888397576695"><ele>61.0</ele><time>2026-05-03T08:04:45Z</time></trkpt><trkpt lat="38.45953803428862" lon="16.01905993559481"><ele>61.0</ele><time>2026-05-03T08:04:46Z</time></trkpt><trkpt lat="38.45941508595464" lon="16.019227763940545"><ele>61.0</ele><time>2026-05-03T08:04:47Z</time></trkpt><trkpt lat="38.45929089571996" lon="16.019396888206934"><ele>61.33333333333333</ele><time>2026-05-03T08:04:48Z</time></trkpt><trkpt lat="38.45916876593935" lon="16.01956792361174"><ele>61.66666666666667</ele><time>2026-05-03T08:04:49Z</time></trkpt><trkpt lat="38.45904297783737" lon="16.01973555329768"><ele>62.0</ele><time>2026-05-03T08:04:50Z</time></trkpt><trkpt lat="38.45891781917107" lon="16.019910180397545"><ele>62.0</ele><time>2026-05-03T08:04:51Z</time></trkpt><trkpt lat="38.45878929402119" lon="16.020082865420044"><ele>62.0</ele><time>2026-05-03T08:04:52Z</time></trkpt><trkpt lat="38.45866310091502" lon="16.02025062303589"><ele>62.0</ele><time>2026-05-03T08:04:53Z</time></trkpt><trkpt lat="38.458536043956165" lon="16.020419789923846"><ele>62.0</ele><time>2026-05-03T08:04:54Z</time></trkpt><trkpt lat="38.458410023395324" lon="16.02059368296625"><ele>62.0</ele><time>2026-05-03T08:04:55Z</time></trkpt><trkpt lat="38.45828371310928" lon="16.02076378857681"><ele>62.0</ele><time>2026-05-03T08:04:56Z</time></trkpt><trkpt lat="38.458158304001984" lon="16.02093785169824"><ele>62.66666666666667</ele><time>2026-05-03T08:04:57Z</time></trkpt><trkpt lat="38.45803233857675" lon="16.02111131923154"><ele>63.33333333333333</ele><time>2026-05-03T08:04:58Z</time></trkpt><trkpt lat="38.45791072828124" lon="16.021285840834416"><ele>64.0</ele><time>2026-05-03T08:04:59Z</time></trkpt><trkpt lat="38.45778736575782" lon="16.021464161830078"><ele>64.66666666666666</ele><time>2026-05-03T08:05:00Z</time></trkpt><trkpt lat="38.45766526659102" lon="16.021639238459702"><ele>65.33333333333333</ele><time>2026-05-03T08:05:01Z</time></trkpt><trkpt lat="38.45754150377011" lon="16.021816365153427"><ele>66.0</ele><time>2026-05-03T08:05:02Z</time></trkpt><trkpt lat="38.457418837555394" lon="16.021993853707183"><ele>66.0</ele><time>2026-05-03T08:05:03Z</time></trkpt><trkpt lat="38.457297804727986" lon="16.022168057500075"><ele>66.0</ele><time>2026-05-03T08:05:04Z</time></trkpt><trkpt lat="38.4571737500361" lon="16.022342570577127"><ele>66.0</ele><time>2026-05-03T08:05:05Z</time></trkpt><trkpt lat="38.45704941925306" lon="16.022508568446593"><ele>66.66666666666667</ele><time>2026-05-03T08:05:06Z</time></trkpt><trkpt lat="38.456927882642525" lon="16.022683535655876"><ele>67.33333333333334</ele><time>2026-05-03T08:05:07Z</time></trkpt><trkpt lat="38.45680903948052" lon="16.022861006748034"><ele>68.0</ele><time>2026-05-03T08:05:08Z</time></trkpt><trkpt lat="38.456690869551785" lon="16.02302667083948"><ele>68.0</ele><time>2026-05-03T08:05:09Z</time></trkpt><trkpt lat="38.456572330519016" lon="16.023201303145246"><ele>68.0</ele><time>2026-05-03T08:05:10Z</time></trkpt><trkpt lat="38.45645467351233" lon="16.023370683473285"><ele>68.0</ele><time>2026-05-03T08:05:11Z</time></trkpt><trkpt lat="38.4563367053486" lon="16.023541625064887"><ele>68.0</ele><time>2026-05-03T08:05:12Z</time></trkpt><trkpt lat="38.45622472451269" lon="16.023705830389748"><ele>68.0</ele><time>2026-05-03T08:05:13Z</time></trkpt><trkpt lat="38.45610846858104" lon="16.02386914139093"><ele>68.0</ele><time>2026-05-03T08:05:14Z</time></trkpt><trkpt lat="38.45598786010107" lon="16.024034926356446"><ele>68.33333333333334</ele><time>2026-05-03T08:05:15Z</time></trkpt><trkpt lat="38.45587282720901" lon="16.0242050634612"><ele>68.66666666666667</ele><time>2026-05-03T08:05:16Z</time></trkpt><trkpt lat="38.455759677931" lon="16.024363678644235"><ele>69.0</ele><time>2026-05-03T08:05:17Z</time></trkpt><trkpt lat="38.45563927188728" lon="16.024534094025842"><ele>69.0</ele><time>2026-05-03T08:05:18Z</time></trkpt><trkpt lat="38.4555219702624" lon="16.024697521137146"><ele>69.0</ele><time>2026-05-03T08:05:19Z</time></trkpt><trkpt lat="38.45540745495185" lon="16.024853674036883"><ele>69.0</ele><time>2026-05-03T08:05:20Z</time></trkpt><trkpt lat="38.45529444189053" lon="16.02502154584063"><ele>69.33333333333333</ele><time>2026-05-03T08:05:21Z</time></trkpt><trkpt lat="38.45517923342548" lon="16.025194544807473"><ele>69.66666666666666</ele><time>2026-05-03T08:05:22Z</time></trkpt><trkpt lat="38.455060878105655" lon="16.0253693473397"><ele>70.0</ele><time>2026-05-03T08:05:23Z</time></trkpt><trkpt lat="38.45494379503731" lon="16.025537607012247"><ele>70.0</ele><time>2026-05-03T08:05:24Z</time></trkpt><trkpt lat="38.45480642316598" lon="16.025698802472352"><ele>70.0</ele><time>2026-05-03T08:05:25Z</time></trkpt><trkpt lat="38.45467353699177" lon="16.02588361725725"><ele>70.0</ele><time>2026-05-03T08:05:26Z</time></trkpt><trkpt lat="38.45454621403885" lon="16.026060694808947"><ele>71.33333333333333</ele><time>2026-05-03T08:05:27Z</time></trkpt><trkpt lat="38.45443140787543" lon="16.02624956036712"><ele>72.66666666666667</ele><time>2026-05-03T08:05:28Z</time></trkpt><trkpt lat="38.45429809931956" lon="16.02643110981602"><ele>74.0</ele><time>2026-05-03T08:05:29Z</time></trkpt><trkpt lat="38.454164852582174" lon="16.0266118000334"><ele>74.33333333333334</ele><time>2026-05-03T08:05:30Z</time></trkpt><trkpt lat="38.4540295994444" lon="16.026788778564498"><ele>74.66666666666667</ele><time>2026-05-03T08:05:31Z</time></trkpt><trkpt lat="38.453896354072704" lon="16.026977610940193"><ele>75.0</ele><time>2026-05-03T08:05:32Z</time></trkpt><trkpt lat="38.45376568355481" lon="16.02716047846233"><ele>75.0</ele><time>2026-05-03T08:05:33Z</time></trkpt><trkpt lat="38.45363766967569" lon="16.02734655248137"><ele>75.0</ele><time>2026-05-03T08:05:34Z</time></trkpt><trkpt lat="38.45351197074782" lon="16.027535533321917"><ele>75.0</ele><time>2026-05-03T08:05:35Z</time></trkpt><trkpt lat="38.45339094386649" lon="16.02771608029005"><ele>75.0</ele><time>2026-05-03T08:05:36Z</time></trkpt><trkpt lat="38.453281218344856" lon="16.02788388034674"><ele>75.0</ele><time>2026-05-03T08:05:37Z</time></trkpt><trkpt lat="38.453182219724106" lon="16.02804324700688"><ele>75.0</ele><time>2026-05-03T08:05:38Z</time></trkpt><trkpt lat="38.45309015688763" lon="16.028189326831775"><ele>75.0</ele><time>2026-05-03T08:05:39Z</time></trkpt><trkpt lat="38.453009796320906" lon="16.02830397563593"><ele>75.0</ele><time>2026-05-03T08:05:40Z</time></trkpt><trkpt lat="38.45294715688214" lon="16.028372174252603"><ele>75.0</ele><time>2026-05-03T08:05:41Z</time></trkpt><trkpt lat="38.45283674533391" lon="16.028438058248927"><ele>75.0</ele><time>2026-05-03T08:05:43Z</time></trkpt><trkpt lat="38.45276424148834" lon="16.028459844296385"><ele>75.0</ele><time>2026-05-03T08:05:44Z</time></trkpt><trkpt lat="38.452686408437145" lon="16.02849033019352"><ele>75.2</ele><time>2026-05-03T08:05:45Z</time></trkpt><trkpt lat="38.45260440948101" lon="16.028518385013378"><ele>75.4</ele><time>2026-05-03T08:05:46Z</time></trkpt><trkpt lat="38.45253943578012" lon="16.028612892859687"><ele>75.6</ele><time>2026-05-03T08:05:47Z</time></trkpt><trkpt lat="38.45250935235138" lon="16.028740386788247"><ele>75.8</ele><time>2026-05-03T08:05:48Z</time></trkpt><trkpt lat="38.45248936257425" lon="16.028873424264813"><ele>76.0</ele><time>2026-05-03T08:05:49Z</time></trkpt><trkpt lat="38.45247495835569" lon="16.029016601812334"><ele>76.25</ele><time>2026-05-03T08:05:50Z</time></trkpt><trkpt lat="38.45245338266848" lon="16.029151181373702"><ele>76.5</ele><time>2026-05-03T08:05:51Z</time></trkpt><trkpt lat="38.45241346795472" lon="16.029297299880803"><ele>76.75</ele><time>2026-05-03T08:05:52Z</time></trkpt><trkpt lat="38.45236187361573" lon="16.029441665112795"><ele>77.0</ele><time>2026-05-03T08:05:52.999Z</time></trkpt><trkpt lat="38.45229707126021" lon="16.02958105341349"><ele>77.0</ele><time>2026-05-03T08:05:53.999Z</time></trkpt><trkpt lat="38.45222111183146" lon="16.029723058982086"><ele>77.0</ele><time>2026-05-03T08:05:54.999Z</time></trkpt><trkpt lat="38.45215054219658" lon="16.02985908925633"><ele>77.0</ele><time>2026-05-03T08:05:55.999Z</time></trkpt><trkpt lat="38.45208729157155" lon="16.030011747076568"><ele>77.0</ele><time>2026-05-03T08:05:56.999Z</time></trkpt><trkpt lat="38.452028232332374" lon="16.030160511574348"><ele>77.0</ele><time>2026-05-03T08:05:57.999Z</time></trkpt><trkpt lat="38.45196842596909" lon="16.030315800456883"><ele>77.0</ele><time>2026-05-03T08:05:58.999Z</time></trkpt><trkpt lat="38.45190821366498" lon="16.030472840936262"><ele>77.0</ele><time>2026-05-03T08:05:59.999Z</time></trkpt><trkpt lat="38.45184865960621" lon="16.030636885742496"><ele>77.0</ele><time>2026-05-03T08:06:00.999Z</time></trkpt><trkpt lat="38.451786862358524" lon="16.030798583417887"><ele>77.25</ele><time>2026-05-03T08:06:01.999Z</time></trkpt><trkpt lat="38.45172125551105" lon="16.030955282323937"><ele>77.5</ele><time>2026-05-03T08:06:02.999Z</time></trkpt><trkpt lat="38.451676915319126" lon="16.03110478190657"><ele>77.75</ele><time>2026-05-03T08:06:03.999Z</time></trkpt><trkpt lat="38.451626201579074" lon="16.031261255603564"><ele>78.0</ele><time>2026-05-03T08:06:04.999Z</time></trkpt><trkpt lat="38.451576039426456" lon="16.031392478359685"><ele>78.0</ele><time>2026-05-03T08:06:05.999Z</time></trkpt><trkpt lat="38.4515273346848" lon="16.031509507710698"><ele>78.0</ele><time>2026-05-03T08:06:06.999Z</time></trkpt><trkpt lat="38.451476204724635" lon="16.031654275014965"><ele>78.0</ele><time>2026-05-03T08:06:07.999Z</time></trkpt><trkpt lat="38.4514327497153" lon="16.03177789258978"><ele>78.0</ele><time>2026-05-03T08:06:08.999Z</time></trkpt><trkpt lat="38.45139058832248" lon="16.031895086078695"><ele>78.0</ele><time>2026-05-03T08:06:09.999Z</time></trkpt><trkpt lat="38.45134451989165" lon="16.03199819627644"><ele>78.6</ele><time>2026-05-03T08:06:10.999Z</time></trkpt><trkpt lat="38.451286047672006" lon="16.032103109777733"><ele>79.19999999999999</ele><time>2026-05-03T08:06:11.999Z</time></trkpt><trkpt lat="38.451236903445526" lon="16.032215888268297"><ele>79.8</ele><time>2026-05-03T08:06:12.999Z</time></trkpt><trkpt lat="38.45118503663344" lon="16.03233265013408"><ele>80.39999999999999</ele><time>2026-05-03T08:06:13.999Z</time></trkpt><trkpt lat="38.45112459959157" lon="16.032449624083892"><ele>81.0</ele><time>2026-05-03T08:06:14.999Z</time></trkpt><trkpt lat="38.45106275418289" lon="16.03256946703362"><ele>81.0</ele><time>2026-05-03T08:06:15.999Z</time></trkpt><trkpt lat="38.45099814419653" lon="16.032682299731672"><ele>81.0</ele><time>2026-05-03T08:06:16.999Z</time></trkpt><trkpt lat="38.45092773065564" lon="16.032816545673914"><ele>81.0</ele><time>2026-05-03T08:06:17.999Z</time></trkpt><trkpt lat="38.4508521743022" lon="16.032943258797836"><ele>81.0</ele><time>2026-05-03T08:06:18.999Z</time></trkpt><trkpt lat="38.45076968313286" lon="16.03308238335959"><ele>81.0</ele><time>2026-05-03T08:06:19.999Z</time></trkpt><trkpt lat="38.4506851798583" lon="16.033220080814143"><ele>81.0</ele><time>2026-05-03T08:06:20.999Z</time></trkpt><trkpt lat="38.45059278877989" lon="16.03336512699765"><ele>81.0</ele><time>2026-05-03T08:06:21.999Z</time></trkpt><trkpt lat="38.45051358261162" lon="16.03351673508228"><ele>81.0</ele><time>2026-05-03T08:06:22.999Z</time></trkpt><trkpt lat="38.45041502120535" lon="16.0336607022183"><ele>82.0</ele><time>2026-05-03T08:06:23.999Z</time></trkpt><trkpt lat="38.45031897991749" lon="16.033809309715767"><ele>83.0</ele><time>2026-05-03T08:06:24.999Z</time></trkpt><trkpt lat="38.45022435364961" lon="16.03395785971162"><ele>84.0</ele><time>2026-05-03T08:06:25.999Z</time></trkpt><trkpt lat="38.45012865240094" lon="16.034117708275936"><ele>83.33333333333333</ele><time>2026-05-03T08:06:26.999Z</time></trkpt><trkpt lat="38.4500332420377" lon="16.03427736208869"><ele>82.66666666666666</ele><time>2026-05-03T08:06:27.999Z</time></trkpt><trkpt lat="38.44993061470323" lon="16.03442748585033"><ele>82.0</ele><time>2026-05-03T08:06:28.999Z</time></trkpt><trkpt lat="38.449835410501485" lon="16.034555702476638"><ele>82.0</ele><time>2026-05-03T08:06:29.999Z</time></trkpt><trkpt lat="38.449729076772805" lon="16.034715226023025"><ele>82.0</ele><time>2026-05-03T08:06:30.999Z</time></trkpt><trkpt lat="38.449618092560875" lon="16.03489120898156"><ele>82.0</ele><time>2026-05-03T08:06:31.999Z</time></trkpt><trkpt lat="38.449512725341016" lon="16.035039793556408"><ele>82.33333333333333</ele><time>2026-05-03T08:06:33Z</time></trkpt><trkpt lat="38.449399977913814" lon="16.035195818673877"><ele>82.66666666666667</ele><time>2026-05-03T08:06:34Z</time></trkpt><trkpt lat="38.44928926645939" lon="16.03535510894862"><ele>83.0</ele><time>2026-05-03T08:06:35Z</time></trkpt><trkpt lat="38.449170559085324" lon="16.035506428897598"><ele>83.0</ele><time>2026-05-03T08:06:36Z</time></trkpt><trkpt lat="38.449056782188705" lon="16.035654127369057"><ele>83.0</ele><time>2026-05-03T08:06:37Z</time></trkpt><trkpt lat="38.44894179796312" lon="16.03580781100489"><ele>83.0</ele><time>2026-05-03T08:06:38Z</time></trkpt><trkpt lat="38.44882555958625" lon="16.03596028219705"><ele>84.33333333333334</ele><time>2026-05-03T08:06:39Z</time></trkpt><trkpt lat="38.448707603373755" lon="16.03610701490841"><ele>85.66666666666667</ele><time>2026-05-03T08:06:40Z</time></trkpt><trkpt lat="38.44858898582597" lon="16.036255769459892"><ele>87.0</ele><time>2026-05-03T08:06:41Z</time></trkpt><trkpt lat="38.44846869436591" lon="16.036400992792096"><ele>87.0</ele><time>2026-05-03T08:06:42Z</time></trkpt><trkpt lat="38.448341321764765" lon="16.03653226020338"><ele>87.0</ele><time>2026-05-03T08:06:43Z</time></trkpt><trkpt lat="38.44821163438935" lon="16.036674454958987"><ele>87.0</ele><time>2026-05-03T08:06:44Z</time></trkpt><trkpt lat="38.44808342702633" lon="16.03680588766016"><ele>87.0</ele><time>2026-05-03T08:06:45Z</time></trkpt><trkpt lat="38.447947109854844" lon="16.036937119943236"><ele>87.0</ele><time>2026-05-03T08:06:46Z</time></trkpt><trkpt lat="38.44780788650671" lon="16.037065995123275"><ele>87.0</ele><time>2026-05-03T08:06:47Z</time></trkpt><trkpt lat="38.44766694070552" lon="16.03719076149233"><ele>87.0</ele><time>2026-05-03T08:06:48Z</time></trkpt><trkpt lat="38.447524938740024" lon="16.03732735533017"><ele>87.0</ele><time>2026-05-03T08:06:49Z</time></trkpt><trkpt lat="38.4473801417278" lon="16.03746244175471"><ele>87.0</ele><time>2026-05-03T08:06:50Z</time></trkpt><trkpt lat="38.447231329835475" lon="16.03758914459451"><ele>88.33333333333333</ele><time>2026-05-03T08:06:51Z</time></trkpt><trkpt lat="38.44708118703729" lon="16.037715608427465"><ele>89.66666666666666</ele><time>2026-05-03T08:06:52Z</time></trkpt><trkpt lat="38.446930516078574" lon="16.037843515415446"><ele>91.0</ele><time>2026-05-03T08:06:53Z</time></trkpt><trkpt lat="38.44677712829114" lon="16.037966802679197"><ele>91.0</ele><time>2026-05-03T08:06:54Z</time></trkpt><trkpt lat="38.44662277249145" lon="16.038089454429407"><ele>91.0</ele><time>2026-05-03T08:06:55Z</time></trkpt><trkpt lat="38.44646793468528" lon="16.038210935880354"><ele>91.0</ele><time>2026-05-03T08:06:56Z</time></trkpt><trkpt lat="38.44631185904699" lon="16.038331358379768"><ele>91.33333333333333</ele><time>2026-05-03T08:06:57Z</time></trkpt><trkpt lat="38.44615423958172" lon="16.03845095436232"><ele>91.66666666666667</ele><time>2026-05-03T08:06:58Z</time></trkpt><trkpt lat="38.445993155055916" lon="16.03857092526847"><ele>92.0</ele><time>2026-05-03T08:06:59Z</time></trkpt><trkpt lat="38.44583192261974" lon="16.03869301180217"><ele>92.0</ele><time>2026-05-03T08:07:00Z</time></trkpt><trkpt lat="38.44566941792062" lon="16.038818488594025"><ele>92.0</ele><time>2026-05-03T08:07:01Z</time></trkpt><trkpt lat="38.44550639819686" lon="16.03894070587056"><ele>92.0</ele><time>2026-05-03T08:07:02Z</time></trkpt><trkpt lat="38.4453410310372" lon="16.039063028864074"><ele>92.0</ele><time>2026-05-03T08:07:03Z</time></trkpt><trkpt lat="38.4451738349013" lon="16.039185157654632"><ele>92.0</ele><time>2026-05-03T08:07:04Z</time></trkpt><trkpt lat="38.44500631629161" lon="16.039309760412703"><ele>92.0</ele><time>2026-05-03T08:07:05Z</time></trkpt><trkpt lat="38.444838647541374" lon="16.039433978936113"><ele>92.0</ele><time>2026-05-03T08:07:06Z</time></trkpt><trkpt lat="38.44467054989324" lon="16.039561022118157"><ele>92.0</ele><time>2026-05-03T08:07:07Z</time></trkpt><trkpt lat="38.44450139276378" lon="16.039686437900745"><ele>92.0</ele><time>2026-05-03T08:07:08Z</time></trkpt><trkpt lat="38.44433600706229" lon="16.03981400324674"><ele>92.0</ele><time>2026-05-03T08:07:09Z</time></trkpt><trkpt lat="38.44416240540011" lon="16.039944034898156"><ele>92.0</ele><time>2026-05-03T08:07:10Z</time></trkpt><trkpt lat="38.44398976769098" lon="16.040077717591927"><ele>92.0</ele><time>2026-05-03T08:07:11Z</time></trkpt><trkpt lat="38.44380993740522" lon="16.04021241841872"><ele>93.33333333333334</ele><time>2026-05-03T08:07:12Z</time></trkpt><trkpt lat="38.44363329734819" lon="16.04034094841752"><ele>94.66666666666667</ele><time>2026-05-03T08:07:13Z</time></trkpt><trkpt lat="38.44346000895901" lon="16.040468376994"><ele>96.0</ele><time>2026-05-03T08:07:14Z</time></trkpt><trkpt lat="38.44329045407658" lon="16.04059771020018"><ele>96.0</ele><time>2026-05-03T08:07:15Z</time></trkpt><trkpt lat="38.443122736580605" lon="16.040723632891964"><ele>96.0</ele><time>2026-05-03T08:07:16Z</time></trkpt><trkpt lat="38.442953948924014" lon="16.040849286686353"><ele>96.0</ele><time>2026-05-03T08:07:17Z</time></trkpt><trkpt lat="38.44278670173345" lon="16.04097525357553"><ele>97.0</ele><time>2026-05-03T08:07:18Z</time></trkpt><trkpt lat="38.44262051641453" lon="16.041105536494022"><ele>98.0</ele><time>2026-05-03T08:07:19Z</time></trkpt><trkpt lat="38.44245461320171" lon="16.041242016539027"><ele>99.0</ele><time>2026-05-03T08:07:20Z</time></trkpt><trkpt lat="38.44228694885602" lon="16.041386276669588"><ele>99.33333333333334</ele><time>2026-05-03T08:07:21Z</time></trkpt><trkpt lat="38.442123887831116" lon="16.04153128235417"><ele>99.66666666666667</ele><time>2026-05-03T08:07:22Z</time></trkpt><trkpt lat="38.44196011148018" lon="16.04167839208419"><ele>100.0</ele><time>2026-05-03T08:07:23Z</time></trkpt><trkpt lat="38.441798913817756" lon="16.041829958022053"><ele>100.33333333333334</ele><time>2026-05-03T08:07:24Z</time></trkpt><trkpt lat="38.441635430784864" lon="16.041983089127704"><ele>100.66666666666666</ele><time>2026-05-03T08:07:25Z</time></trkpt><trkpt lat="38.441474386260374" lon="16.04213271862493"><ele>101.0</ele><time>2026-05-03T08:07:26Z</time></trkpt><trkpt lat="38.44131520673373" lon="16.042284992258292"><ele>101.0</ele><time>2026-05-03T08:07:27Z</time></trkpt><trkpt lat="38.441158980434686" lon="16.042440184692886"><ele>101.0</ele><time>2026-05-03T08:07:28Z</time></trkpt><trkpt lat="38.44100571840813" lon="16.042596102984035"><ele>101.0</ele><time>2026-05-03T08:07:29Z</time></trkpt><trkpt lat="38.440853776519155" lon="16.04275193408326"><ele>102.0</ele><time>2026-05-03T08:07:30Z</time></trkpt><trkpt lat="38.44070284882305" lon="16.042907528247934"><ele>103.0</ele><time>2026-05-03T08:07:31Z</time></trkpt><trkpt lat="38.440545111091836" lon="16.043060831476478"><ele>104.0</ele><time>2026-05-03T08:07:32Z</time></trkpt><trkpt lat="38.44038842827938" lon="16.043241097707185"><ele>105.66666666666666</ele><time>2026-05-03T08:07:33Z</time></trkpt><trkpt lat="38.44024273084407" lon="16.043403722795883"><ele>107.33333333333334</ele><time>2026-05-03T08:07:34Z</time></trkpt><trkpt lat="38.44009848187195" lon="16.043558939548056"><ele>109.0</ele><time>2026-05-03T08:07:35Z</time></trkpt><trkpt lat="38.43995170083457" lon="16.043721354931964"><ele>109.0</ele><time>2026-05-03T08:07:36Z</time></trkpt><trkpt lat="38.43980216006212" lon="16.043889424453525"><ele>109.0</ele><time>2026-05-03T08:07:37Z</time></trkpt><trkpt lat="38.439649028450404" lon="16.044055626276705"><ele>109.0</ele><time>2026-05-03T08:07:38Z</time></trkpt><trkpt lat="38.439494457939766" lon="16.044223627611835"><ele>112.0</ele><time>2026-05-03T08:07:39Z</time></trkpt><trkpt lat="38.43934208740759" lon="16.044389351562398"><ele>115.0</ele><time>2026-05-03T08:07:40Z</time></trkpt><trkpt lat="38.439193750816294" lon="16.044555563105302"><ele>118.0</ele><time>2026-05-03T08:07:41Z</time></trkpt><trkpt lat="38.43904755176709" lon="16.044716993694507"><ele>118.0</ele><time>2026-05-03T08:07:42Z</time></trkpt><trkpt lat="38.43890062002455" lon="16.044870394040466"><ele>118.0</ele><time>2026-05-03T08:07:43Z</time></trkpt><trkpt lat="38.438755722902265" lon="16.045022487185147"><ele>118.0</ele><time>2026-05-03T08:07:44Z</time></trkpt><trkpt lat="38.43861130800634" lon="16.045178053608087"><ele>121.66666666666667</ele><time>2026-05-03T08:07:45Z</time></trkpt><trkpt lat="38.43846378804924" lon="16.04533208004886"><ele>125.33333333333334</ele><time>2026-05-03T08:07:46Z</time></trkpt><trkpt lat="38.4383182015855" lon="16.04548718395546"><ele>129.0</ele><time>2026-05-03T08:07:47Z</time></trkpt><trkpt lat="38.438173277191346" lon="16.04564665967076"><ele>128.33333333333334</ele><time>2026-05-03T08:07:47.999Z</time></trkpt><trkpt lat="38.43802409197859" lon="16.04580239739721"><ele>127.66666666666667</ele><time>2026-05-03T08:07:48.999Z</time></trkpt><trkpt lat="38.43787259844073" lon="16.04596685721624"><ele>127.0</ele><time>2026-05-03T08:07:49.999Z</time></trkpt><trkpt lat="38.437721855818616" lon="16.046120680362133"><ele>127.0</ele><time>2026-05-03T08:07:50.999Z</time></trkpt><trkpt lat="38.43757004032428" lon="16.046278292061118"><ele>127.0</ele><time>2026-05-03T08:07:51.999Z</time></trkpt><trkpt lat="38.43741418307989" lon="16.046430834676265"><ele>127.0</ele><time>2026-05-03T08:07:52.999Z</time></trkpt><trkpt lat="38.437260239319045" lon="16.04658839085901"><ele>128.33333333333334</ele><time>2026-05-03T08:07:53.999Z</time></trkpt><trkpt lat="38.43711596395124" lon="16.04673738120334"><ele>129.66666666666666</ele><time>2026-05-03T08:07:54.999Z</time></trkpt><trkpt lat="38.4369634981695" lon="16.04689192618563"><ele>131.0</ele><time>2026-05-03T08:07:55.999Z</time></trkpt><trkpt lat="38.436813113253166" lon="16.04703680681069"><ele>131.0</ele><time>2026-05-03T08:07:56.999Z</time></trkpt><trkpt lat="38.43665860755091" lon="16.047185063639912"><ele>131.0</ele><time>2026-05-03T08:07:57.999Z</time></trkpt><trkpt lat="38.43650058893675" lon="16.04733487970352"><ele>131.0</ele><time>2026-05-03T08:07:58.999Z</time></trkpt><trkpt lat="38.43634835809836" lon="16.04747595515899"><ele>130.66666666666666</ele><time>2026-05-03T08:07:59.999Z</time></trkpt><trkpt lat="38.43619189136388" lon="16.047625068081953"><ele>130.33333333333334</ele><time>2026-05-03T08:08:00.999Z</time></trkpt><trkpt lat="38.436037322032576" lon="16.0477710926634"><ele>130.0</ele><time>2026-05-03T08:08:01.999Z</time></trkpt><trkpt lat="38.435879390363446" lon="16.047921713230156"><ele>130.0</ele><time>2026-05-03T08:08:02.999Z</time></trkpt><trkpt lat="38.43572247303455" lon="16.048072534376818"><ele>130.0</ele><time>2026-05-03T08:08:03.999Z</time></trkpt><trkpt lat="38.43556298630557" lon="16.048221132935456"><ele>130.0</ele><time>2026-05-03T08:08:04.999Z</time></trkpt><trkpt lat="38.43540309306938" lon="16.04836727760122"><ele>133.66666666666669</ele><time>2026-05-03T08:08:05.999Z</time></trkpt><trkpt lat="38.43524289397745" lon="16.048513982747295"><ele>137.33333333333334</ele><time>2026-05-03T08:08:06.999Z</time></trkpt><trkpt lat="38.435081052588004" lon="16.04866402526066"><ele>141.0</ele><time>2026-05-03T08:08:07.999Z</time></trkpt><trkpt lat="38.43491908274021" lon="16.048816957483485"><ele>141.0</ele><time>2026-05-03T08:08:08.999Z</time></trkpt><trkpt lat="38.43475418161025" lon="16.048973512547132"><ele>141.0</ele><time>2026-05-03T08:08:09.999Z</time></trkpt><trkpt lat="38.43459080080833" lon="16.049131057951023"><ele>141.0</ele><time>2026-05-03T08:08:10.999Z</time></trkpt><trkpt lat="38.43442578744967" lon="16.049292360062594"><ele>142.0</ele><time>2026-05-03T08:08:11.999Z</time></trkpt><trkpt lat="38.43425934235849" lon="16.049455302491562"><ele>143.0</ele><time>2026-05-03T08:08:12.999Z</time></trkpt><trkpt lat="38.434097502272394" lon="16.049619035436834"><ele>144.0</ele><time>2026-05-03T08:08:13.999Z</time></trkpt><trkpt lat="38.433935054393174" lon="16.049785952339672"><ele>143.66666666666666</ele><time>2026-05-03T08:08:14.999Z</time></trkpt><trkpt lat="38.43377434557864" lon="16.049955196978626"><ele>143.33333333333331</ele><time>2026-05-03T08:08:15.999Z</time></trkpt><trkpt lat="38.43361367415931" lon="16.0501277957706"><ele>143.0</ele><time>2026-05-03T08:08:16.999Z</time></trkpt><trkpt lat="38.43345341329074" lon="16.050301466686204"><ele>144.66666666666666</ele><time>2026-05-03T08:08:17.999Z</time></trkpt><trkpt lat="38.433295987261786" lon="16.05047490198807"><ele>146.33333333333334</ele><time>2026-05-03T08:08:18.999Z</time></trkpt><trkpt lat="38.43313937212746" lon="16.05064941399577"><ele>148.0</ele><time>2026-05-03T08:08:19.999Z</time></trkpt><trkpt lat="38.43298433834723" lon="16.050826735720978"><ele>148.66666666666669</ele><time>2026-05-03T08:08:20.999Z</time></trkpt><trkpt lat="38.43282891044493" lon="16.051004263477132"><ele>149.33333333333334</ele><time>2026-05-03T08:08:21.999Z</time></trkpt><trkpt lat="38.43267482635362" lon="16.05118169886723"><ele>150.0</ele><time>2026-05-03T08:08:22.999Z</time></trkpt><trkpt lat="38.43252024171346" lon="16.05135875832831"><ele>150.0</ele><time>2026-05-03T08:08:23.999Z</time></trkpt><trkpt lat="38.43236427144744" lon="16.051537650372875"><ele>150.0</ele><time>2026-05-03T08:08:24.999Z</time></trkpt><trkpt lat="38.432209162413535" lon="16.051716263224886"><ele>150.0</ele><time>2026-05-03T08:08:25.999Z</time></trkpt><trkpt lat="38.4320570208294" lon="16.051892138792688"><ele>150.33333333333334</ele><time>2026-05-03T08:08:26.999Z</time></trkpt><trkpt lat="38.43190524748976" lon="16.05206645394846"><ele>150.66666666666669</ele><time>2026-05-03T08:08:27.999Z</time></trkpt><trkpt lat="38.431755647612505" lon="16.052237365386798"><ele>151.0</ele><time>2026-05-03T08:08:28.999Z</time></trkpt><trkpt lat="38.43160431649025" lon="16.052398063700306"><ele>152.33333333333334</ele><time>2026-05-03T08:08:29.999Z</time></trkpt><trkpt lat="38.43146484409441" lon="16.052570015249092"><ele>153.66666666666666</ele><time>2026-05-03T08:08:30.999Z</time></trkpt><trkpt lat="38.43132150391061" lon="16.05274660743736"><ele>155.0</ele><time>2026-05-03T08:08:31.999Z</time></trkpt><trkpt lat="38.431182086814786" lon="16.052906845512357"><ele>156.0</ele><time>2026-05-03T08:08:32.999Z</time></trkpt><trkpt lat="38.43104157119811" lon="16.053070598657047"><ele>157.0</ele><time>2026-05-03T08:08:33.999Z</time></trkpt><trkpt lat="38.430902099067794" lon="16.05320930034326"><ele>158.0</ele><time>2026-05-03T08:08:34.999Z</time></trkpt><trkpt lat="38.43076831984313" lon="16.053365344041605"><ele>158.33333333333331</ele><time>2026-05-03T08:08:35.999Z</time></trkpt><trkpt lat="38.430632302802756" lon="16.05352968521045"><ele>158.66666666666666</ele><time>2026-05-03T08:08:36.999Z</time></trkpt><trkpt lat="38.43049535199553" lon="16.05368965599132"><ele>159.0</ele><time>2026-05-03T08:08:37.999Z</time></trkpt><trkpt lat="38.430354248091575" lon="16.05384712639774"><ele>159.33333333333334</ele><time>2026-05-03T08:08:39Z</time></trkpt><trkpt lat="38.43021625836268" lon="16.05400940284934"><ele>159.66666666666669</ele><time>2026-05-03T08:08:40Z</time></trkpt><trkpt lat="38.43007946459019" lon="16.054165971200252"><ele>160.0</ele><time>2026-05-03T08:08:41Z</time></trkpt><trkpt lat="38.429940109212254" lon="16.05432691286594"><ele>160.0</ele><time>2026-05-03T08:08:42Z</time></trkpt><trkpt lat="38.42980109629524" lon="16.054487164907663"><ele>160.0</ele><time>2026-05-03T08:08:43Z</time></trkpt><trkpt lat="38.42966137881746" lon="16.054650565996187"><ele>160.0</ele><time>2026-05-03T08:08:44Z</time></trkpt><trkpt lat="38.42952493545043" lon="16.054802803631503"><ele>160.33333333333334</ele><time>2026-05-03T08:08:45Z</time></trkpt><trkpt lat="38.42938977571131" lon="16.0549606051071"><ele>160.66666666666666</ele><time>2026-05-03T08:08:46Z</time></trkpt><trkpt lat="38.4292463967958" lon="16.055129083134155"><ele>161.0</ele><time>2026-05-03T08:08:47Z</time></trkpt><trkpt lat="38.42910253239105" lon="16.055296347384736"><ele>161.0</ele><time>2026-05-03T08:08:48Z</time></trkpt><trkpt lat="38.428955815504864" lon="16.055464803256246"><ele>161.0</ele><time>2026-05-03T08:08:49Z</time></trkpt><trkpt lat="38.428810018771586" lon="16.0556336641731"><ele>161.0</ele><time>2026-05-03T08:08:50Z</time></trkpt><trkpt lat="38.428670987385594" lon="16.055795232544956"><ele>162.66666666666666</ele><time>2026-05-03T08:08:51Z</time></trkpt><trkpt lat="38.42853027182412" lon="16.055961071041843"><ele>164.33333333333334</ele><time>2026-05-03T08:08:52Z</time></trkpt><trkpt lat="38.42838534112249" lon="16.05613364623299"><ele>166.0</ele><time>2026-05-03T08:08:53Z</time></trkpt><trkpt lat="38.42823929828003" lon="16.05630118816691"><ele>166.0</ele><time>2026-05-03T08:08:54Z</time></trkpt><trkpt lat="38.4281011664157" lon="16.056461626616876"><ele>166.0</ele><time>2026-05-03T08:08:55Z</time></trkpt><trkpt lat="38.42797145105064" lon="16.056626618310194"><ele>166.0</ele><time>2026-05-03T08:08:56Z</time></trkpt><trkpt lat="38.42784677142035" lon="16.056758790023988"><ele>167.0</ele><time>2026-05-03T08:08:57Z</time></trkpt><trkpt lat="38.42772766912847" lon="16.056902214280488"><ele>168.0</ele><time>2026-05-03T08:08:58Z</time></trkpt><trkpt lat="38.42761335557592" lon="16.0570287143401"><ele>169.0</ele><time>2026-05-03T08:08:59Z</time></trkpt><trkpt lat="38.42750946932665" lon="16.05715551745109"><ele>169.0</ele><time>2026-05-03T08:09:00Z</time></trkpt><trkpt lat="38.42738150728282" lon="16.05730458063859"><ele>169.0</ele><time>2026-05-03T08:09:01Z</time></trkpt><trkpt lat="38.427262712940994" lon="16.05743806775259"><ele>169.0</ele><time>2026-05-03T08:09:02Z</time></trkpt><trkpt lat="38.427137028063484" lon="16.05758606164354"><ele>171.33333333333334</ele><time>2026-05-03T08:09:03Z</time></trkpt><trkpt lat="38.42701372942072" lon="16.05772774650161"><ele>173.66666666666666</ele><time>2026-05-03T08:09:04Z</time></trkpt><trkpt lat="38.426888908438336" lon="16.057868186270955"><ele>176.0</ele><time>2026-05-03T08:09:05Z</time></trkpt><trkpt lat="38.42676126503947" lon="16.058021125384435"><ele>176.0</ele><time>2026-05-03T08:09:06Z</time></trkpt><trkpt lat="38.426637107456365" lon="16.058168543011043"><ele>176.0</ele><time>2026-05-03T08:09:07Z</time></trkpt><trkpt lat="38.42651013609707" lon="16.058322728341487"><ele>176.0</ele><time>2026-05-03T08:09:08Z</time></trkpt><trkpt lat="38.426379228395746" lon="16.058494336575166"><ele>177.66666666666666</ele><time>2026-05-03T08:09:09Z</time></trkpt><trkpt lat="38.42624916062922" lon="16.05863770753219"><ele>179.33333333333334</ele><time>2026-05-03T08:09:10Z</time></trkpt><trkpt lat="38.426122189174265" lon="16.058781147963394"><ele>181.0</ele><time>2026-05-03T08:09:11Z</time></trkpt><trkpt lat="38.42599180571796" lon="16.058932374651093"><ele>181.0</ele><time>2026-05-03T08:09:12Z</time></trkpt><trkpt lat="38.42586045377716" lon="16.05907726521711"><ele>181.0</ele><time>2026-05-03T08:09:13Z</time></trkpt><trkpt lat="38.425729368710705" lon="16.05922148187836"><ele>181.0</ele><time>2026-05-03T08:09:14Z</time></trkpt><trkpt lat="38.425597219072166" lon="16.059368145580088"><ele>181.33333333333334</ele><time>2026-05-03T08:09:15Z</time></trkpt><trkpt lat="38.42546769505821" lon="16.059512976978098"><ele>181.66666666666666</ele><time>2026-05-03T08:09:16Z</time></trkpt><trkpt lat="38.42533900228868" lon="16.05966678133126"><ele>182.0</ele><time>2026-05-03T08:09:17Z</time></trkpt><trkpt lat="38.42520636378952" lon="16.059823688412607"><ele>181.66666666666666</ele><time>2026-05-03T08:09:18Z</time></trkpt><trkpt lat="38.42507643343838" lon="16.05997489769031"><ele>181.33333333333334</ele><time>2026-05-03T08:09:19Z</time></trkpt><trkpt lat="38.424950964104035" lon="16.060120386838623"><ele>181.0</ele><time>2026-05-03T08:09:20Z</time></trkpt><trkpt lat="38.42482072782231" lon="16.060272512768208"><ele>181.0</ele><time>2026-05-03T08:09:21Z</time></trkpt><trkpt lat="38.42469127982661" lon="16.060420115558895"><ele>181.0</ele><time>2026-05-03T08:09:22Z</time></trkpt><trkpt lat="38.42456119412036" lon="16.060569815126165"><ele>181.0</ele><time>2026-05-03T08:09:23Z</time></trkpt><trkpt lat="38.424430916617695" lon="16.06071958586068"><ele>181.33333333333334</ele><time>2026-05-03T08:09:24Z</time></trkpt><trkpt lat="38.424301074064054" lon="16.06086783701705"><ele>181.66666666666666</ele><time>2026-05-03T08:09:25Z</time></trkpt><trkpt lat="38.424175099928036" lon="16.06101613455731"><ele>182.0</ele><time>2026-05-03T08:09:26Z</time></trkpt><trkpt lat="38.42404829179398" lon="16.061168471641004"><ele>182.0</ele><time>2026-05-03T08:09:27Z</time></trkpt><trkpt lat="38.42392439360443" lon="16.061317185240274"><ele>182.0</ele><time>2026-05-03T08:09:28Z</time></trkpt><trkpt lat="38.42379851438402" lon="16.061454680926257"><ele>182.0</ele><time>2026-05-03T08:09:29Z</time></trkpt><trkpt lat="38.423667726615086" lon="16.061607315953207"><ele>184.0</ele><time>2026-05-03T08:09:30Z</time></trkpt><trkpt lat="38.42353793824315" lon="16.061756249233934"><ele>186.0</ele><time>2026-05-03T08:09:31Z</time></trkpt><trkpt lat="38.4234142100652" lon="16.061896550014655"><ele>188.0</ele><time>2026-05-03T08:09:32Z</time></trkpt><trkpt lat="38.423285469133674" lon="16.062038894140393"><ele>188.0</ele><time>2026-05-03T08:09:33Z</time></trkpt><trkpt lat="38.423156206675316" lon="16.062183788534956"><ele>188.0</ele><time>2026-05-03T08:09:34Z</time></trkpt><trkpt lat="38.42302990172176" lon="16.06232625240709"><ele>188.0</ele><time>2026-05-03T08:09:35Z</time></trkpt><trkpt lat="38.422900749522896" lon="16.06247779324156"><ele>188.66666666666666</ele><time>2026-05-03T08:09:36Z</time></trkpt><trkpt lat="38.42277412495055" lon="16.062628861013764"><ele>189.33333333333334</ele><time>2026-05-03T08:09:37Z</time></trkpt><trkpt lat="38.42264853756174" lon="16.062773069626395"><ele>190.0</ele><time>2026-05-03T08:09:38Z</time></trkpt><trkpt lat="38.42251949847616" lon="16.062922856912046"><ele>190.0</ele><time>2026-05-03T08:09:39Z</time></trkpt><trkpt lat="38.422393365302234" lon="16.063072060955346"><ele>190.0</ele><time>2026-05-03T08:09:40Z</time></trkpt><trkpt lat="38.42226812196567" lon="16.063226047739416"><ele>190.0</ele><time>2026-05-03T08:09:41Z</time></trkpt><trkpt lat="38.4221412789685" lon="16.063384210627245"><ele>190.66666666666669</ele><time>2026-05-03T08:09:42Z</time></trkpt><trkpt lat="38.4220114324353" lon="16.063539216483885"><ele>191.33333333333334</ele><time>2026-05-03T08:09:43Z</time></trkpt><trkpt lat="38.42187942805611" lon="16.063702959126736"><ele>192.0</ele><time>2026-05-03T08:09:44Z</time></trkpt><trkpt lat="38.421749736892494" lon="16.06386283511829"><ele>192.0</ele><time>2026-05-03T08:09:45Z</time></trkpt><trkpt lat="38.42162160261229" lon="16.06402466897502"><ele>192.0</ele><time>2026-05-03T08:09:46Z</time></trkpt><trkpt lat="38.421495751283025" lon="16.064187430389467"><ele>192.0</ele><time>2026-05-03T08:09:47Z</time></trkpt><trkpt lat="38.421367737947484" lon="16.064347780618153"><ele>193.33333333333331</ele><time>2026-05-03T08:09:48Z</time></trkpt><trkpt lat="38.421239326752705" lon="16.064511644026638"><ele>194.66666666666666</ele><time>2026-05-03T08:09:49Z</time></trkpt><trkpt lat="38.42110940927158" lon="16.064685130200065"><ele>196.0</ele><time>2026-05-03T08:09:50Z</time></trkpt><trkpt lat="38.42098064029595" lon="16.064854002123027"><ele>195.66666666666666</ele><time>2026-05-03T08:09:51Z</time></trkpt><trkpt lat="38.420851173620434" lon="16.065029595920453"><ele>195.33333333333331</ele><time>2026-05-03T08:09:52Z</time></trkpt><trkpt lat="38.420728510120796" lon="16.065201871467178"><ele>195.0</ele><time>2026-05-03T08:09:53Z</time></trkpt><trkpt lat="38.42060520484508" lon="16.065378131276535"><ele>195.0</ele><time>2026-05-03T08:09:54Z</time></trkpt><trkpt lat="38.42047876649748" lon="16.065558304754713"><ele>195.0</ele><time>2026-05-03T08:09:54.999Z</time></trkpt><trkpt lat="38.42035597006658" lon="16.06573041809393"><ele>195.0</ele><time>2026-05-03T08:09:55.999Z</time></trkpt><trkpt lat="38.42023565317874" lon="16.06591084752859"><ele>195.66666666666669</ele><time>2026-05-03T08:09:56.999Z</time></trkpt><trkpt lat="38.4201126512861" lon="16.066096794389214"><ele>196.33333333333334</ele><time>2026-05-03T08:09:57.999Z</time></trkpt><trkpt lat="38.41999306766656" lon="16.066275668309085"><ele>197.0</ele><time>2026-05-03T08:09:58.999Z</time></trkpt><trkpt lat="38.41987787984113" lon="16.066463804634285"><ele>198.0</ele><time>2026-05-03T08:09:59.999Z</time></trkpt><trkpt lat="38.41976210898496" lon="16.066649139985234"><ele>199.0</ele><time>2026-05-03T08:10:00.999Z</time></trkpt><trkpt lat="38.41964837580098" lon="16.06683259478729"><ele>200.0</ele><time>2026-05-03T08:10:01.999Z</time></trkpt><trkpt lat="38.41953779802416" lon="16.06701534879327"><ele>200.33333333333334</ele><time>2026-05-03T08:10:02.999Z</time></trkpt><trkpt lat="38.419430194846925" lon="16.067202930790707"><ele>200.66666666666669</ele><time>2026-05-03T08:10:03.999Z</time></trkpt><trkpt lat="38.41932285519543" lon="16.067387547683577"><ele>201.0</ele><time>2026-05-03T08:10:04.999Z</time></trkpt><trkpt lat="38.419215916507" lon="16.067586918624247"><ele>201.0</ele><time>2026-05-03T08:10:05.999Z</time></trkpt><trkpt lat="38.41911368791177" lon="16.067776022555417"><ele>201.0</ele><time>2026-05-03T08:10:06.999Z</time></trkpt><trkpt lat="38.419014314136376" lon="16.06798032908571"><ele>201.0</ele><time>2026-05-03T08:10:07.999Z</time></trkpt><trkpt lat="38.4189198508058" lon="16.068172956106924"><ele>201.0</ele><time>2026-05-03T08:10:08.999Z</time></trkpt><trkpt lat="38.418824959978075" lon="16.068386077087336"><ele>201.0</ele><time>2026-05-03T08:10:09.999Z</time></trkpt><trkpt lat="38.41872765487879" lon="16.068589550427706"><ele>201.0</ele><time>2026-05-03T08:10:10.999Z</time></trkpt><trkpt lat="38.41863243589583" lon="16.06880670091344"><ele>201.0</ele><time>2026-05-03T08:10:11.999Z</time></trkpt><trkpt lat="38.41854471490017" lon="16.06902198452646"><ele>201.0</ele><time>2026-05-03T08:10:12.999Z</time></trkpt><trkpt lat="38.418459230782844" lon="16.069235157150615"><ele>201.0</ele><time>2026-05-03T08:10:13.999Z</time></trkpt><trkpt lat="38.41837505003555" lon="16.06946965740432"><ele>201.66666666666669</ele><time>2026-05-03T08:10:14.999Z</time></trkpt><trkpt lat="38.418298042947676" lon="16.069683318868282"><ele>202.33333333333334</ele><time>2026-05-03T08:10:15.999Z</time></trkpt><trkpt lat="38.41821635842909" lon="16.069913137520448"><ele>203.0</ele><time>2026-05-03T08:10:16.999Z</time></trkpt><trkpt lat="38.418138790462656" lon="16.070141259347874"><ele>203.33333333333334</ele><time>2026-05-03T08:10:17.999Z</time></trkpt><trkpt lat="38.418068217644375" lon="16.07037505216314"><ele>203.66666666666669</ele><time>2026-05-03T08:10:18.999Z</time></trkpt><trkpt lat="38.41799753426362" lon="16.070614683168838"><ele>204.0</ele><time>2026-05-03T08:10:19.999Z</time></trkpt><trkpt lat="38.41793105737953" lon="16.070848018977653"><ele>204.33333333333331</ele><time>2026-05-03T08:10:20.999Z</time></trkpt><trkpt lat="38.417865923526705" lon="16.071087801743754"><ele>204.66666666666666</ele><time>2026-05-03T08:10:21.999Z</time></trkpt><trkpt lat="38.41780742255467" lon="16.07133447718052"><ele>205.0</ele><time>2026-05-03T08:10:22.999Z</time></trkpt><trkpt lat="38.41775067903488" lon="16.0715701451267"><ele>206.66666666666666</ele><time>2026-05-03T08:10:23.999Z</time></trkpt><trkpt lat="38.41770173261995" lon="16.071814144248755"><ele>208.33333333333331</ele><time>2026-05-03T08:10:24.999Z</time></trkpt><trkpt lat="38.41765580445469" lon="16.072057534928696"><ele>210.0</ele><time>2026-05-03T08:10:25.999Z</time></trkpt><trkpt lat="38.41760943172334" lon="16.072304404838455"><ele>210.66666666666669</ele><time>2026-05-03T08:10:26.999Z</time></trkpt><trkpt lat="38.41756837712336" lon="16.072556130430243"><ele>211.33333333333334</ele><time>2026-05-03T08:10:27.999Z</time></trkpt><trkpt lat="38.41752856804399" lon="16.07281013164836"><ele>212.0</ele><time>2026-05-03T08:10:28.999Z</time></trkpt><trkpt lat="38.417492769653656" lon="16.0730656911329"><ele>212.33333333333334</ele><time>2026-05-03T08:10:29.999Z</time></trkpt><trkpt lat="38.41746843873022" lon="16.07332202736992"><ele>212.66666666666669</ele><time>2026-05-03T08:10:30.999Z</time></trkpt><trkpt lat="38.41744979892724" lon="16.073575883051788"><ele>213.0</ele><time>2026-05-03T08:10:31.999Z</time></trkpt><trkpt lat="38.41742841939885" lon="16.073833458139017"><ele>213.0</ele><time>2026-05-03T08:10:32.999Z</time></trkpt><trkpt lat="38.41741353965739" lon="16.07409386183888"><ele>213.0</ele><time>2026-05-03T08:10:33.999Z</time></trkpt><trkpt lat="38.41740294714433" lon="16.074355662870275"><ele>213.0</ele><time>2026-05-03T08:10:34.999Z</time></trkpt><trkpt lat="38.41739971747425" lon="16.074613633274538"><ele>213.0</ele><time>2026-05-03T08:10:35.999Z</time></trkpt><trkpt lat="38.41739869428607" lon="16.074874419685393"><ele>213.0</ele><time>2026-05-03T08:10:36.999Z</time></trkpt><trkpt lat="38.41739570427302" lon="16.075134654154716"><ele>213.0</ele><time>2026-05-03T08:10:37.999Z</time></trkpt><trkpt lat="38.4173951774147" lon="16.075391339860587"><ele>213.0</ele><time>2026-05-03T08:10:38.999Z</time></trkpt><trkpt lat="38.41740338721504" lon="16.075650461054703"><ele>213.0</ele><time>2026-05-03T08:10:39.999Z</time></trkpt><trkpt lat="38.41741582395605" lon="16.07590502718672"><ele>213.0</ele><time>2026-05-03T08:10:40.999Z</time></trkpt><trkpt lat="38.417432552117695" lon="16.076157876928328"><ele>214.33333333333331</ele><time>2026-05-03T08:10:41.999Z</time></trkpt><trkpt lat="38.41745720680551" lon="16.076409310701298"><ele>215.66666666666666</ele><time>2026-05-03T08:10:42.999Z</time></trkpt><trkpt lat="38.417483863695224" lon="16.07666032628663"><ele>217.0</ele><time>2026-05-03T08:10:43.999Z</time></trkpt><trkpt lat="38.41751239067971" lon="16.07691701524099"><ele>217.66666666666666</ele><time>2026-05-03T08:10:45Z</time></trkpt><trkpt lat="38.417539809402356" lon="16.07716739591748"><ele>218.33333333333331</ele><time>2026-05-03T08:10:46Z</time></trkpt><trkpt lat="38.417574252049405" lon="16.077426111885416"><ele>219.0</ele><time>2026-05-03T08:10:47Z</time></trkpt><trkpt lat="38.41760322096183" lon="16.077677939059534"><ele>219.66666666666669</ele><time>2026-05-03T08:10:48Z</time></trkpt><trkpt lat="38.41762919680574" lon="16.077925149096934"><ele>220.33333333333334</ele><time>2026-05-03T08:10:49Z</time></trkpt><trkpt lat="38.41766527723777" lon="16.078176488732577"><ele>221.0</ele><time>2026-05-03T08:10:50Z</time></trkpt><trkpt lat="38.41769378313011" lon="16.078426261006914"><ele>221.0</ele><time>2026-05-03T08:10:51Z</time></trkpt><trkpt lat="38.417719222206" lon="16.07867371481556"><ele>221.0</ele><time>2026-05-03T08:10:52Z</time></trkpt><trkpt lat="38.417743721397976" lon="16.078914830893787"><ele>221.0</ele><time>2026-05-03T08:10:53Z</time></trkpt><trkpt lat="38.41777535749247" lon="16.0791519848016"><ele>223.0</ele><time>2026-05-03T08:10:54Z</time></trkpt><trkpt lat="38.41780345156762" lon="16.07939079833688"><ele>225.0</ele><time>2026-05-03T08:10:55Z</time></trkpt><trkpt lat="38.41783443327824" lon="16.079625350989186"><ele>227.0</ele><time>2026-05-03T08:10:56Z</time></trkpt><trkpt lat="38.41786572004994" lon="16.079855974077837"><ele>228.0</ele><time>2026-05-03T08:10:57Z</time></trkpt><trkpt lat="38.41789739607831" lon="16.080082891037467"><ele>229.0</ele><time>2026-05-03T08:10:58Z</time></trkpt><trkpt lat="38.41792203057979" lon="16.080319843952214"><ele>230.0</ele><time>2026-05-03T08:10:59Z</time></trkpt><trkpt lat="38.41794383569474" lon="16.080550618444335"><ele>230.0</ele><time>2026-05-03T08:11:00Z</time></trkpt><trkpt lat="38.41797268551563" lon="16.08078666526799"><ele>230.0</ele><time>2026-05-03T08:11:01Z</time></trkpt><trkpt lat="38.41800337437636" lon="16.081019723719322"><ele>230.0</ele><time>2026-05-03T08:11:02Z</time></trkpt><trkpt lat="38.41802895435157" lon="16.0812605578568"><ele>230.0</ele><time>2026-05-03T08:11:03Z</time></trkpt><trkpt lat="38.41805852582874" lon="16.0815043374068"><ele>230.0</ele><time>2026-05-03T08:11:04Z</time></trkpt><trkpt lat="38.418089491988695" lon="16.08174852456362"><ele>230.0</ele><time>2026-05-03T08:11:05Z</time></trkpt><trkpt lat="38.418122125303974" lon="16.08199724751725"><ele>230.0</ele><time>2026-05-03T08:11:06Z</time></trkpt><trkpt lat="38.41815275250956" lon="16.082249077346866"><ele>230.0</ele><time>2026-05-03T08:11:07Z</time></trkpt><trkpt lat="38.41818638092064" lon="16.08250438184553"><ele>230.0</ele><time>2026-05-03T08:11:08Z</time></trkpt><trkpt lat="38.41821729246702" lon="16.08276327595393"><ele>230.0</ele><time>2026-05-03T08:11:09Z</time></trkpt><trkpt lat="38.418251052068186" lon="16.083019434279457"><ele>230.0</ele><time>2026-05-03T08:11:10Z</time></trkpt><trkpt lat="38.418286703347626" lon="16.08327504053023"><ele>230.0</ele><time>2026-05-03T08:11:11Z</time></trkpt><trkpt lat="38.41832283157619" lon="16.083534434194796"><ele>231.0</ele><time>2026-05-03T08:11:12Z</time></trkpt><trkpt lat="38.41836658393653" lon="16.083795108579665"><ele>232.0</ele><time>2026-05-03T08:11:13Z</time></trkpt><trkpt lat="38.41841653783026" lon="16.08405098292138"><ele>233.0</ele><time>2026-05-03T08:11:14Z</time></trkpt><trkpt lat="38.41846930167101" lon="16.08431272470648"><ele>233.0</ele><time>2026-05-03T08:11:15Z</time></trkpt><trkpt lat="38.418529210251" lon="16.08457716149315"><ele>233.0</ele><time>2026-05-03T08:11:16Z</time></trkpt><trkpt lat="38.41859192102859" lon="16.08483554754781"><ele>233.0</ele><time>2026-05-03T08:11:17Z</time></trkpt><trkpt lat="38.418663168556606" lon="16.085085623974027"><ele>232.66666666666669</ele><time>2026-05-03T08:11:18Z</time></trkpt><trkpt lat="38.41874126323449" lon="16.085348626450298"><ele>232.33333333333331</ele><time>2026-05-03T08:11:19Z</time></trkpt><trkpt lat="38.41881707534836" lon="16.08560562859193"><ele>232.0</ele><time>2026-05-03T08:11:20Z</time></trkpt><trkpt lat="38.41890766668953" lon="16.085854406214125"><ele>232.66666666666666</ele><time>2026-05-03T08:11:21Z</time></trkpt><trkpt lat="38.419001743938324" lon="16.086099803765205"><ele>233.33333333333331</ele><time>2026-05-03T08:11:22Z</time></trkpt><trkpt lat="38.419101733820206" lon="16.086342457174712"><ele>234.0</ele><time>2026-05-03T08:11:23Z</time></trkpt><trkpt lat="38.419213790811554" lon="16.0865843040659"><ele>235.0</ele><time>2026-05-03T08:11:24Z</time></trkpt><trkpt lat="38.41933002398309" lon="16.086819668184194"><ele>236.0</ele><time>2026-05-03T08:11:25Z</time></trkpt><trkpt lat="38.41944769707955" lon="16.08705247158733"><ele>237.0</ele><time>2026-05-03T08:11:26Z</time></trkpt><trkpt lat="38.41957025018568" lon="16.08727501528848"><ele>237.33333333333331</ele><time>2026-05-03T08:11:27Z</time></trkpt><trkpt lat="38.41969022588622" lon="16.08748482460704"><ele>237.66666666666666</ele><time>2026-05-03T08:11:28Z</time></trkpt><trkpt lat="38.419808557898456" lon="16.08768860687916"><ele>238.0</ele><time>2026-05-03T08:11:29Z</time></trkpt><trkpt lat="38.41992539855358" lon="16.087897145879396"><ele>238.0</ele><time>2026-05-03T08:11:30Z</time></trkpt><trkpt lat="38.420037643085955" lon="16.088103981431153"><ele>238.0</ele><time>2026-05-03T08:11:31Z</time></trkpt><trkpt lat="38.420154345145875" lon="16.088311358743333"><ele>238.0</ele><time>2026-05-03T08:11:32Z</time></trkpt><trkpt lat="38.420264734457255" lon="16.088523276851653"><ele>238.0</ele><time>2026-05-03T08:11:33Z</time></trkpt><trkpt lat="38.420371446097406" lon="16.08873698183866"><ele>238.0</ele><time>2026-05-03T08:11:34Z</time></trkpt><trkpt lat="38.42047938025792" lon="16.08895356121658"><ele>238.0</ele><time>2026-05-03T08:11:35Z</time></trkpt><trkpt lat="38.42058028785714" lon="16.089172118898773"><ele>236.66666666666666</ele><time>2026-05-03T08:11:36Z</time></trkpt><trkpt lat="38.42068271723578" lon="16.08940029600313"><ele>235.33333333333331</ele><time>2026-05-03T08:11:37Z</time></trkpt><trkpt lat="38.42078124943704" lon="16.089629347796578"><ele>234.0</ele><time>2026-05-03T08:11:38Z</time></trkpt><trkpt lat="38.42087482584894" lon="16.089862811980034"><ele>234.33333333333331</ele><time>2026-05-03T08:11:39Z</time></trkpt><trkpt lat="38.420954814882606" lon="16.090099621127454"><ele>234.66666666666666</ele><time>2026-05-03T08:11:40Z</time></trkpt><trkpt lat="38.42104024623051" lon="16.09033659259662"><ele>235.0</ele><time>2026-05-03T08:11:41Z</time></trkpt><trkpt lat="38.42110996628292" lon="16.090571567014027"><ele>237.0</ele><time>2026-05-03T08:11:42Z</time></trkpt><trkpt lat="38.42118331395778" lon="16.09081096337239"><ele>239.0</ele><time>2026-05-03T08:11:43Z</time></trkpt><trkpt lat="38.42125294895396" lon="16.091049876630006"><ele>241.0</ele><time>2026-05-03T08:11:44Z</time></trkpt><trkpt lat="38.42131415535964" lon="16.091289021118808"><ele>240.33333333333331</ele><time>2026-05-03T08:11:45Z</time></trkpt><trkpt lat="38.4213731329287" lon="16.09153512431686"><ele>239.66666666666669</ele><time>2026-05-03T08:11:46Z</time></trkpt><trkpt lat="38.42142211372436" lon="16.091785312519892"><ele>239.0</ele><time>2026-05-03T08:11:47Z</time></trkpt><trkpt lat="38.42147151469025" lon="16.092037431888173"><ele>239.0</ele><time>2026-05-03T08:11:48Z</time></trkpt><trkpt lat="38.421517111413394" lon="16.0922856838016"><ele>239.0</ele><time>2026-05-03T08:11:49Z</time></trkpt><trkpt lat="38.421557654064436" lon="16.092545391664732"><ele>239.0</ele><time>2026-05-03T08:11:50Z</time></trkpt><trkpt lat="38.42158542139882" lon="16.092812474863887"><ele>239.66666666666669</ele><time>2026-05-03T08:11:51Z</time></trkpt><trkpt lat="38.42161499385244" lon="16.093082264221444"><ele>240.33333333333331</ele><time>2026-05-03T08:11:52Z</time></trkpt><trkpt lat="38.42164127081203" lon="16.093354840744126"><ele>241.0</ele><time>2026-05-03T08:11:53Z</time></trkpt><trkpt lat="38.4216573553434" lon="16.093629442074175"><ele>239.66666666666666</ele><time>2026-05-03T08:11:54Z</time></trkpt><trkpt lat="38.42167095614494" lon="16.093902473781263"><ele>238.33333333333331</ele><time>2026-05-03T08:11:55Z</time></trkpt><trkpt lat="38.4216800824729" lon="16.094176453290345"><ele>237.0</ele><time>2026-05-03T08:11:55.999Z</time></trkpt><trkpt lat="38.421678378555626" lon="16.094452711239494"><ele>234.33333333333331</ele><time>2026-05-03T08:11:56.999Z</time></trkpt><trkpt lat="38.421671542901585" lon="16.094727216645182"><ele>231.66666666666666</ele><time>2026-05-03T08:11:57.999Z</time></trkpt><trkpt lat="38.42165935837952" lon="16.09500236587905"><ele>229.0</ele><time>2026-05-03T08:11:58.999Z</time></trkpt><trkpt lat="38.42164053272302" lon="16.095276345318275"><ele>228.66666666666666</ele><time>2026-05-03T08:11:59.999Z</time></trkpt><trkpt lat="38.42161519763878" lon="16.09555076172908"><ele>228.33333333333331</ele><time>2026-05-03T08:12:00.999Z</time></trkpt><trkpt lat="38.42158846691177" lon="16.09582250131525"><ele>228.0</ele><time>2026-05-03T08:12:01.999Z</time></trkpt><trkpt lat="38.42155552590509" lon="16.09609195908132"><ele>229.33333333333331</ele><time>2026-05-03T08:12:02.999Z</time></trkpt><trkpt lat="38.42151706787295" lon="16.096352591161413"><ele>230.66666666666666</ele><time>2026-05-03T08:12:03.999Z</time></trkpt><trkpt lat="38.42147381976645" lon="16.096615948834703"><ele>232.0</ele><time>2026-05-03T08:12:04.999Z</time></trkpt><trkpt lat="38.42142270410933" lon="16.096876652972412"><ele>232.33333333333331</ele><time>2026-05-03T08:12:05.999Z</time></trkpt><trkpt lat="38.42136608976852" lon="16.097134024199285"><ele>232.66666666666669</ele><time>2026-05-03T08:12:06.999Z</time></trkpt><trkpt lat="38.42130508561322" lon="16.09739256843386"><ele>233.0</ele><time>2026-05-03T08:12:07.999Z</time></trkpt><trkpt lat="38.421238056493294" lon="16.097644226222453"><ele>234.0</ele><time>2026-05-03T08:12:08.999Z</time></trkpt><trkpt lat="38.42116903066367" lon="16.09790042627994"><ele>235.0</ele><time>2026-05-03T08:12:09.999Z</time></trkpt><trkpt lat="38.421092986878485" lon="16.098149195217466"><ele>236.0</ele><time>2026-05-03T08:12:10.999Z</time></trkpt><trkpt lat="38.421010443095895" lon="16.098404824582893"><ele>237.0</ele><time>2026-05-03T08:12:11.999Z</time></trkpt><trkpt lat="38.42091877089668" lon="16.09865269908115"><ele>238.0</ele><time>2026-05-03T08:12:12.999Z</time></trkpt><trkpt lat="38.42083145129916" lon="16.09890062860186"><ele>239.0</ele><time>2026-05-03T08:12:13.999Z</time></trkpt><trkpt lat="38.42073634685933" lon="16.099151105739427"><ele>239.0</ele><time>2026-05-03T08:12:14.999Z</time></trkpt><trkpt lat="38.4206344842159" lon="16.099386139288306"><ele>239.0</ele><time>2026-05-03T08:12:15.999Z</time></trkpt><trkpt lat="38.42052030208573" lon="16.09962027770178"><ele>239.0</ele><time>2026-05-03T08:12:16.999Z</time></trkpt><trkpt lat="38.42040291017951" lon="16.099850839449104"><ele>239.66666666666669</ele><time>2026-05-03T08:12:17.999Z</time></trkpt><trkpt lat="38.420282075209876" lon="16.100089821478903"><ele>240.33333333333331</ele><time>2026-05-03T08:12:18.999Z</time></trkpt><trkpt lat="38.4201591019791" lon="16.100318606504974"><ele>241.0</ele><time>2026-05-03T08:12:19.999Z</time></trkpt><trkpt lat="38.42002954665916" lon="16.10054534574512"><ele>242.33333333333331</ele><time>2026-05-03T08:12:20.999Z</time></trkpt><trkpt lat="38.41989711193696" lon="16.10076595143792"><ele>243.66666666666669</ele><time>2026-05-03T08:12:21.999Z</time></trkpt><trkpt lat="38.41975755419315" lon="16.10097443248344"><ele>245.0</ele><time>2026-05-03T08:12:22.999Z</time></trkpt><trkpt lat="38.41961629095024" lon="16.10118884535118"><ele>245.33333333333334</ele><time>2026-05-03T08:12:23.999Z</time></trkpt><trkpt lat="38.41947234997504" lon="16.101394634721615"><ele>245.66666666666669</ele><time>2026-05-03T08:12:24.999Z</time></trkpt><trkpt lat="38.419327179991924" lon="16.101602193614355"><ele>246.0</ele><time>2026-05-03T08:12:25.999Z</time></trkpt><trkpt lat="38.419180636422574" lon="16.10180217149651"><ele>246.33333333333331</ele><time>2026-05-03T08:12:26.999Z</time></trkpt><trkpt lat="38.41903609975528" lon="16.10201495548873"><ele>246.66666666666666</ele><time>2026-05-03T08:12:27.999Z</time></trkpt><trkpt lat="38.418891630887714" lon="16.102219100660758"><ele>247.0</ele><time>2026-05-03T08:12:28.999Z</time></trkpt><trkpt lat="38.418752273745355" lon="16.102430176078045"><ele>249.0</ele><time>2026-05-03T08:12:29.999Z</time></trkpt><trkpt lat="38.4186166831957" lon="16.102633503486565"><ele>251.0</ele><time>2026-05-03T08:12:30.999Z</time></trkpt><trkpt lat="38.41848874865355" lon="16.102838333652084"><ele>253.0</ele><time>2026-05-03T08:12:31.999Z</time></trkpt><trkpt lat="38.418358944974244" lon="16.10305094045799"><ele>253.33333333333331</ele><time>2026-05-03T08:12:32.999Z</time></trkpt><trkpt lat="38.41823147807546" lon="16.103268107427585"><ele>253.66666666666669</ele><time>2026-05-03T08:12:33.999Z</time></trkpt><trkpt lat="38.418106574220545" lon="16.103487958949458"><ele>254.0</ele><time>2026-05-03T08:12:34.999Z</time></trkpt><trkpt lat="38.41799299314243" lon="16.103706111647025"><ele>257.6666666666667</ele><time>2026-05-03T08:12:35.999Z</time></trkpt><trkpt lat="38.417878021178886" lon="16.1039349897666"><ele>261.3333333333333</ele><time>2026-05-03T08:12:36.999Z</time></trkpt><trkpt lat="38.417771779108705" lon="16.10416078561557"><ele>265.0</ele><time>2026-05-03T08:12:37.999Z</time></trkpt><trkpt lat="38.417664524419116" lon="16.10439464763299"><ele>265.0</ele><time>2026-05-03T08:12:38.999Z</time></trkpt><trkpt lat="38.41756440659898" lon="16.10461542921584"><ele>265.0</ele><time>2026-05-03T08:12:39.999Z</time></trkpt><trkpt lat="38.417460991789824" lon="16.104867408220674"><ele>265.0</ele><time>2026-05-03T08:12:40.999Z</time></trkpt><trkpt lat="38.4173652289548" lon="16.10511262678179"><ele>264.66666666666663</ele><time>2026-05-03T08:12:41.999Z</time></trkpt><trkpt lat="38.41727898462279" lon="16.105362012740546"><ele>264.3333333333333</ele><time>2026-05-03T08:12:42.999Z</time></trkpt><trkpt lat="38.41719985763653" lon="16.105619120053674"><ele>264.0</ele><time>2026-05-03T08:12:43.999Z</time></trkpt><trkpt lat="38.417124216328915" lon="16.105873744093337"><ele>267.6666666666667</ele><time>2026-05-03T08:12:44.999Z</time></trkpt><trkpt lat="38.417048863714115" lon="16.106128455698006"><ele>271.33333333333337</ele><time>2026-05-03T08:12:45.999Z</time></trkpt><trkpt lat="38.416982344565774" lon="16.106383457959627"><ele>275.0</ele><time>2026-05-03T08:12:46.999Z</time></trkpt><trkpt lat="38.416920295573235" lon="16.10663953634764"><ele>275.0</ele><time>2026-05-03T08:12:47.999Z</time></trkpt><trkpt lat="38.41686361804916" lon="16.10689606726899"><ele>275.0</ele><time>2026-05-03T08:12:48.999Z</time></trkpt><trkpt lat="38.41681442822636" lon="16.10715120964153"><ele>275.0</ele><time>2026-05-03T08:12:49.999Z</time></trkpt><trkpt lat="38.416768467543875" lon="16.107402424538368"><ele>277.6666666666667</ele><time>2026-05-03T08:12:51Z</time></trkpt><trkpt lat="38.416727446403335" lon="16.107654412198784"><ele>280.3333333333333</ele><time>2026-05-03T08:12:52Z</time></trkpt><trkpt lat="38.4166911163631" lon="16.107906156349774"><ele>283.0</ele><time>2026-05-03T08:12:53Z</time></trkpt><trkpt lat="38.416660774682775" lon="16.108160748480444"><ele>282.66666666666663</ele><time>2026-05-03T08:12:54Z</time></trkpt><trkpt lat="38.41663727774339" lon="16.108414782265104"><ele>282.3333333333333</ele><time>2026-05-03T08:12:55Z</time></trkpt><trkpt lat="38.41661438834282" lon="16.108669882156754"><ele>282.0</ele><time>2026-05-03T08:12:56Z</time></trkpt><trkpt lat="38.416598819536084" lon="16.108928249018888"><ele>281.3333333333333</ele><time>2026-05-03T08:12:57Z</time></trkpt><trkpt lat="38.416588264925515" lon="16.109188382251908"><ele>280.66666666666663</ele><time>2026-05-03T08:12:58Z</time></trkpt><trkpt lat="38.41658025815912" lon="16.109443867094917"><ele>280.0</ele><time>2026-05-03T08:12:59Z</time></trkpt><trkpt lat="38.416577129091344" lon="16.109701557281703"><ele>282.3333333333333</ele><time>2026-05-03T08:13:00Z</time></trkpt><trkpt lat="38.416579701000444" lon="16.109956905962008"><ele>284.6666666666667</ele><time>2026-05-03T08:13:01Z</time></trkpt><trkpt lat="38.416564915553415" lon="16.110211850887218"><ele>287.0</ele><time>2026-05-03T08:13:02Z</time></trkpt><trkpt lat="38.41657803393422" lon="16.11047476045075"><ele>287.0</ele><time>2026-05-03T08:13:03Z</time></trkpt><trkpt lat="38.416612321861884" lon="16.110728500467676"><ele>287.0</ele><time>2026-05-03T08:13:04Z</time></trkpt><trkpt lat="38.416637596957905" lon="16.110989912025417"><ele>287.0</ele><time>2026-05-03T08:13:05Z</time></trkpt><trkpt lat="38.4166685991163" lon="16.111248343402146"><ele>288.0</ele><time>2026-05-03T08:13:06Z</time></trkpt><trkpt lat="38.416710071421626" lon="16.11150157107912"><ele>289.0</ele><time>2026-05-03T08:13:07Z</time></trkpt><trkpt lat="38.41675425687611" lon="16.11175062875643"><ele>290.0</ele><time>2026-05-03T08:13:08Z</time></trkpt><trkpt lat="38.41680191136453" lon="16.111997780735212"><ele>291.33333333333337</ele><time>2026-05-03T08:13:09Z</time></trkpt><trkpt lat="38.416851454436134" lon="16.11224693744318"><ele>292.6666666666667</ele><time>2026-05-03T08:13:10Z</time></trkpt><trkpt lat="38.41690013993193" lon="16.112484585024976"><ele>294.0</ele><time>2026-05-03T08:13:11Z</time></trkpt><trkpt lat="38.41694935047416" lon="16.112729103824265"><ele>295.0</ele><time>2026-05-03T08:13:12Z</time></trkpt><trkpt lat="38.41701185412368" lon="16.112971856117056"><ele>296.0</ele><time>2026-05-03T08:13:13Z</time></trkpt><trkpt lat="38.41709416629762" lon="16.113250186828534"><ele>297.0</ele><time>2026-05-03T08:13:14Z</time></trkpt><trkpt lat="38.417155258022575" lon="16.113487481368168"><ele>296.0</ele><time>2026-05-03T08:13:15Z</time></trkpt><trkpt lat="38.41721143637987" lon="16.113735427768262"><ele>295.0</ele><time>2026-05-03T08:13:16Z</time></trkpt><trkpt lat="38.41727260707618" lon="16.113982231916843"><ele>294.0</ele><time>2026-05-03T08:13:17Z</time></trkpt><trkpt lat="38.417330704698244" lon="16.114238941036913"><ele>294.0</ele><time>2026-05-03T08:13:18Z</time></trkpt><trkpt lat="38.417383195744605" lon="16.11449824371511"><ele>294.0</ele><time>2026-05-03T08:13:19Z</time></trkpt><trkpt lat="38.417438255020855" lon="16.114760129844903"><ele>294.0</ele><time>2026-05-03T08:13:20Z</time></trkpt><trkpt lat="38.41748932095405" lon="16.11502441646803"><ele>297.3333333333333</ele><time>2026-05-03T08:13:21Z</time></trkpt><trkpt lat="38.417534176798796" lon="16.115298558704342"><ele>300.66666666666663</ele><time>2026-05-03T08:13:22Z</time></trkpt><trkpt lat="38.41757901648921" lon="16.115569521084712"><ele>304.0</ele><time>2026-05-03T08:13:23Z</time></trkpt><trkpt lat="38.41761991592273" lon="16.11584108278755"><ele>308.0</ele><time>2026-05-03T08:13:24Z</time></trkpt><trkpt lat="38.417654558595956" lon="16.116113632025126"><ele>312.0</ele><time>2026-05-03T08:13:25Z</time></trkpt><trkpt lat="38.4176832468492" lon="16.116382368515218"><ele>316.0</ele><time>2026-05-03T08:13:26Z</time></trkpt><trkpt lat="38.41770617921341" lon="16.116652954367567"><ele>318.66666666666663</ele><time>2026-05-03T08:13:27Z</time></trkpt><trkpt lat="38.417726283402914" lon="16.116921460404768"><ele>321.3333333333333</ele><time>2026-05-03T08:13:28Z</time></trkpt><trkpt lat="38.41774084163258" lon="16.117187953048358"><ele>324.0</ele><time>2026-05-03T08:13:29Z</time></trkpt><trkpt lat="38.41776519086857" lon="16.117449205670486"><ele>324.0</ele><time>2026-05-03T08:13:30Z</time></trkpt><trkpt lat="38.41775862467917" lon="16.117714479220723"><ele>324.0</ele><time>2026-05-03T08:13:31Z</time></trkpt><trkpt lat="38.417760150310684" lon="16.117977846490863"><ele>324.0</ele><time>2026-05-03T08:13:32Z</time></trkpt><trkpt lat="38.41775834310249" lon="16.118241845955477"><ele>319.6666666666667</ele><time>2026-05-03T08:13:33Z</time></trkpt><trkpt lat="38.417753235387806" lon="16.118503295295557"><ele>315.33333333333337</ele><time>2026-05-03T08:13:34Z</time></trkpt><trkpt lat="38.41774449769266" lon="16.118765503918986"><ele>311.0</ele><time>2026-05-03T08:13:35Z</time></trkpt><trkpt lat="38.417728777391254" lon="16.119029404876393"><ele>311.0</ele><time>2026-05-03T08:13:36Z</time></trkpt><trkpt lat="38.417709827729645" lon="16.119291513001222"><ele>311.0</ele><time>2026-05-03T08:13:37Z</time></trkpt><trkpt lat="38.41768609042811" lon="16.1195593247989"><ele>311.0</ele><time>2026-05-03T08:13:38Z</time></trkpt><trkpt lat="38.417660839377845" lon="16.119824606828363"><ele>311.33333333333337</ele><time>2026-05-03T08:13:39Z</time></trkpt><trkpt lat="38.417631935201676" lon="16.12009123573371"><ele>311.6666666666667</ele><time>2026-05-03T08:13:40Z</time></trkpt><trkpt lat="38.41760067232864" lon="16.120360717382436"><ele>312.0</ele><time>2026-05-03T08:13:41Z</time></trkpt><trkpt lat="38.417568695391466" lon="16.12062899253954"><ele>313.6666666666667</ele><time>2026-05-03T08:13:42Z</time></trkpt><trkpt lat="38.41753630808132" lon="16.120894347659263"><ele>315.33333333333337</ele><time>2026-05-03T08:13:43Z</time></trkpt><trkpt lat="38.41750373893334" lon="16.121161192633927"><ele>317.0</ele><time>2026-05-03T08:13:44Z</time></trkpt><trkpt lat="38.417469745293985" lon="16.121422945117633"><ele>318.6666666666667</ele><time>2026-05-03T08:13:45Z</time></trkpt><trkpt lat="38.417435375264795" lon="16.121686195866097"><ele>320.3333333333333</ele><time>2026-05-03T08:13:46Z</time></trkpt><trkpt lat="38.41739941648976" lon="16.121951643861085"><ele>322.0</ele><time>2026-05-03T08:13:47Z</time></trkpt><trkpt lat="38.41736091274298" lon="16.12222551442878"><ele>324.66666666666663</ele><time>2026-05-03T08:13:48Z</time></trkpt><trkpt lat="38.41732382476028" lon="16.122478910308185"><ele>327.3333333333333</ele><time>2026-05-03T08:13:49Z</time></trkpt><trkpt lat="38.41728352801381" lon="16.122746192694436"><ele>330.0</ele><time>2026-05-03T08:13:50Z</time></trkpt><trkpt lat="38.41724089353334" lon="16.12300942670255"><ele>328.3333333333333</ele><time>2026-05-03T08:13:51Z</time></trkpt><trkpt lat="38.417193734557536" lon="16.123270705827988"><ele>326.66666666666663</ele><time>2026-05-03T08:13:52Z</time></trkpt><trkpt lat="38.4171442751455" lon="16.12352411675027"><ele>325.0</ele><time>2026-05-03T08:13:53Z</time></trkpt><trkpt lat="38.417090121116566" lon="16.123781461954362"><ele>325.0</ele><time>2026-05-03T08:13:54Z</time></trkpt><trkpt lat="38.417030277329665" lon="16.124041258390214"><ele>325.0</ele><time>2026-05-03T08:13:55Z</time></trkpt><trkpt lat="38.41696410458674" lon="16.124304571756777"><ele>325.0</ele><time>2026-05-03T08:13:56Z</time></trkpt><trkpt lat="38.4168953579864" lon="16.12456385534698"><ele>326.3333333333333</ele><time>2026-05-03T08:13:57Z</time></trkpt><trkpt lat="38.41681922970623" lon="16.12482345166726"><ele>327.6666666666667</ele><time>2026-05-03T08:13:58Z</time></trkpt><trkpt lat="38.41673804382022" lon="16.12507658202764"><ele>329.0</ele><time>2026-05-03T08:13:59Z</time></trkpt><trkpt lat="38.416650205440426" lon="16.12533209996212"><ele>329.6666666666667</ele><time>2026-05-03T08:14:00Z</time></trkpt><trkpt lat="38.416558799635034" lon="16.125583525412836"><ele>330.3333333333333</ele><time>2026-05-03T08:14:01Z</time></trkpt><trkpt lat="38.4164648331198" lon="16.125832973854436"><ele>331.0</ele><time>2026-05-03T08:14:02Z</time></trkpt><trkpt lat="38.416367931883514" lon="16.126083480336156"><ele>340.3333333333333</ele><time>2026-05-03T08:14:03Z</time></trkpt><trkpt lat="38.416279723584054" lon="16.126342092063386"><ele>349.6666666666667</ele><time>2026-05-03T08:14:04Z</time></trkpt><trkpt lat="38.41617328511728" lon="16.12658672172294"><ele>359.0</ele><time>2026-05-03T08:14:05Z</time></trkpt><trkpt lat="38.41606940302319" lon="16.126839369633945"><ele>359.0</ele><time>2026-05-03T08:14:06Z</time></trkpt><trkpt lat="38.41594794043064" lon="16.127085724663132"><ele>359.0</ele><time>2026-05-03T08:14:07Z</time></trkpt><trkpt lat="38.415838465736584" lon="16.127338284360242"><ele>354.33333333333337</ele><time>2026-05-03T08:14:08Z</time></trkpt><trkpt lat="38.41573454741089" lon="16.12758043051305"><ele>349.6666666666667</ele><time>2026-05-03T08:14:09Z</time></trkpt><trkpt lat="38.41563293770654" lon="16.127817621451147"><ele>345.0</ele><time>2026-05-03T08:14:10Z</time></trkpt><trkpt lat="38.415532401309314" lon="16.12805230716915"><ele>350.0</ele><time>2026-05-03T08:14:10.999Z</time></trkpt><trkpt lat="38.41543473933122" lon="16.128280283211023"><ele>355.0</ele><time>2026-05-03T08:14:11.999Z</time></trkpt><trkpt lat="38.415333776805966" lon="16.12851596385158"><ele>360.0</ele><time>2026-05-03T08:14:12.999Z</time></trkpt><trkpt lat="38.41523806529225" lon="16.128741910500686"><ele>360.0</ele><time>2026-05-03T08:14:13.999Z</time></trkpt><trkpt lat="38.41515414013575" lon="16.12897933435387"><ele>360.0</ele><time>2026-05-03T08:14:14.999Z</time></trkpt><trkpt lat="38.41505071082225" lon="16.12921322188858"><ele>360.0</ele><time>2026-05-03T08:14:15.999Z</time></trkpt><trkpt lat="38.41494820144959" lon="16.1294492410977"><ele>360.0</ele><time>2026-05-03T08:14:16.999Z</time></trkpt><trkpt lat="38.414843570761924" lon="16.129688559524812"><ele>360.0</ele><time>2026-05-03T08:14:17.999Z</time></trkpt><trkpt lat="38.41474182871526" lon="16.129925889572945"><ele>360.0</ele><time>2026-05-03T08:14:18.999Z</time></trkpt><trkpt lat="38.414639658448074" lon="16.13016495389573"><ele>360.0</ele><time>2026-05-03T08:14:19.999Z</time></trkpt><trkpt lat="38.41453776062197" lon="16.13040463635468"><ele>360.0</ele><time>2026-05-03T08:14:20.999Z</time></trkpt><trkpt lat="38.4144370733803" lon="16.13064953359487"><ele>360.0</ele><time>2026-05-03T08:14:21.999Z</time></trkpt><trkpt lat="38.41433900000607" lon="16.130900010856827"><ele>359.0</ele><time>2026-05-03T08:14:22.999Z</time></trkpt><trkpt lat="38.414244043102414" lon="16.131156783337033"><ele>358.0</ele><time>2026-05-03T08:14:23.999Z</time></trkpt><trkpt lat="38.41415540754621" lon="16.131416646100885"><ele>357.0</ele><time>2026-05-03T08:14:24.999Z</time></trkpt><trkpt lat="38.41407190631848" lon="16.13168132187915"><ele>360.5</ele><time>2026-05-03T08:14:25.999Z</time></trkpt><trkpt lat="38.41399735748053" lon="16.13195402818711"><ele>364.0</ele><time>2026-05-03T08:14:26.999Z</time></trkpt><trkpt lat="38.413929118343354" lon="16.13223256621896"><ele>366.5</ele><time>2026-05-03T08:14:27.999Z</time></trkpt><trkpt lat="38.41387121375037" lon="16.132514530151436"><ele>369.0</ele><time>2026-05-03T08:14:28.999Z</time></trkpt><trkpt lat="38.41381682348513" lon="16.13280100668256"><ele>369.0</ele><time>2026-05-03T08:14:29.999Z</time></trkpt><trkpt lat="38.413773180643716" lon="16.13310306428168"><ele>369.0</ele><time>2026-05-03T08:14:30.999Z</time></trkpt><trkpt lat="38.413737365284014" lon="16.133393879929017"><ele>372.0</ele><time>2026-05-03T08:14:31.999Z</time></trkpt><trkpt lat="38.41370626968808" lon="16.133689465673953"><ele>375.0</ele><time>2026-05-03T08:14:32.999Z</time></trkpt><trkpt lat="38.41367951245514" lon="16.13397903568216"><ele>376.0</ele><time>2026-05-03T08:14:33.999Z</time></trkpt><trkpt lat="38.41365633650099" lon="16.134267046150526"><ele>377.0</ele><time>2026-05-03T08:14:34.999Z</time></trkpt><trkpt lat="38.413640691697694" lon="16.13454745298056"><ele>378.0</ele><time>2026-05-03T08:14:35.999Z</time></trkpt><trkpt lat="38.41362092711188" lon="16.134813417634483"><ele>381.66666666666663</ele><time>2026-05-03T08:14:36.999Z</time></trkpt><trkpt lat="38.413600685714876" lon="16.135091066506778"><ele>385.3333333333333</ele><time>2026-05-03T08:14:37.999Z</time></trkpt><trkpt lat="38.41357280826775" lon="16.135363614046437"><ele>389.0</ele><time>2026-05-03T08:14:38.999Z</time></trkpt><trkpt lat="38.41354739067512" lon="16.135634322983076"><ele>392.3333333333333</ele><time>2026-05-03T08:14:39.999Z</time></trkpt><trkpt lat="38.41351786033631" lon="16.135903454897285"><ele>395.66666666666663</ele><time>2026-05-03T08:14:40.999Z</time></trkpt><trkpt lat="38.41348038969672" lon="16.136173438115414"><ele>399.0</ele><time>2026-05-03T08:14:41.999Z</time></trkpt><trkpt lat="38.41343144986528" lon="16.13644664122207"><ele>400.33333333333337</ele><time>2026-05-03T08:14:42.999Z</time></trkpt><trkpt lat="38.41337687055234" lon="16.13671872317077"><ele>401.6666666666667</ele><time>2026-05-03T08:14:43.999Z</time></trkpt><trkpt lat="38.41331509790496" lon="16.136988028220824"><ele>403.0</ele><time>2026-05-03T08:14:44.999Z</time></trkpt><trkpt lat="38.413244986229074" lon="16.13725622682221"><ele>398.0</ele><time>2026-05-03T08:14:45.999Z</time></trkpt><trkpt lat="38.4131672755016" lon="16.13752369478971"><ele>393.0</ele><time>2026-05-03T08:14:46.999Z</time></trkpt><trkpt lat="38.413082718464146" lon="16.137795030368782"><ele>393.0</ele><time>2026-05-03T08:14:47.999Z</time></trkpt><trkpt lat="38.41299111241674" lon="16.138054123226425"><ele>393.0</ele><time>2026-05-03T08:14:48.999Z</time></trkpt><trkpt lat="38.41289166727213" lon="16.13830779285551"><ele>393.0</ele><time>2026-05-03T08:14:49.999Z</time></trkpt><trkpt lat="38.41278528548187" lon="16.138558152695456"><ele>398.0</ele><time>2026-05-03T08:14:50.999Z</time></trkpt><trkpt lat="38.412672194061365" lon="16.13880033139238"><ele>403.0</ele><time>2026-05-03T08:14:51.999Z</time></trkpt><trkpt lat="38.412553184643755" lon="16.13903981644743"><ele>408.0</ele><time>2026-05-03T08:14:52.999Z</time></trkpt><trkpt lat="38.41242814434105" lon="16.139271209851756"><ele>408.0</ele><time>2026-05-03T08:14:53.999Z</time></trkpt><trkpt lat="38.41230206436231" lon="16.139502199749924"><ele>408.0</ele><time>2026-05-03T08:14:54.999Z</time></trkpt><trkpt lat="38.41217465235095" lon="16.139734102496092"><ele>408.0</ele><time>2026-05-03T08:14:55.999Z</time></trkpt><trkpt lat="38.4120439643872" lon="16.139967461463367"><ele>416.0</ele><time>2026-05-03T08:14:57Z</time></trkpt><trkpt lat="38.41191434111043" lon="16.140199363136247"><ele>424.0</ele><time>2026-05-03T08:14:58Z</time></trkpt><trkpt lat="38.41178150916702" lon="16.14043654882096"><ele>424.0</ele><time>2026-05-03T08:14:59Z</time></trkpt><trkpt lat="38.4116465284439" lon="16.140676208403743"><ele>424.0</ele><time>2026-05-03T08:15:00Z</time></trkpt><trkpt lat="38.41151358994496" lon="16.140912632499454"><ele>422.33333333333337</ele><time>2026-05-03T08:15:01Z</time></trkpt><trkpt lat="38.41138814628889" lon="16.141138688415086"><ele>420.66666666666663</ele><time>2026-05-03T08:15:02Z</time></trkpt><trkpt lat="38.41126455991071" lon="16.141358493793454"><ele>419.0</ele><time>2026-05-03T08:15:03Z</time></trkpt><trkpt lat="38.41113993756966" lon="16.141575184622326"><ele>419.0</ele><time>2026-05-03T08:15:04Z</time></trkpt><trkpt lat="38.41101720102453" lon="16.14179177220005"><ele>419.0</ele><time>2026-05-03T08:15:05Z</time></trkpt><trkpt lat="38.41089746123992" lon="16.142009338838946"><ele>419.0</ele><time>2026-05-03T08:15:06Z</time></trkpt><trkpt lat="38.410775833722695" lon="16.142232017444574"><ele>419.3333333333333</ele><time>2026-05-03T08:15:07Z</time></trkpt><trkpt lat="38.410654928874486" lon="16.14245146261072"><ele>419.66666666666663</ele><time>2026-05-03T08:15:08Z</time></trkpt><trkpt lat="38.41053339141855" lon="16.14266963011375"><ele>420.0</ele><time>2026-05-03T08:15:09Z</time></trkpt><trkpt lat="38.41041269706976" lon="16.14289380725641"><ele>420.66666666666663</ele><time>2026-05-03T08:15:10Z</time></trkpt><trkpt lat="38.41029312342444" lon="16.143120230851792"><ele>421.3333333333333</ele><time>2026-05-03T08:15:11Z</time></trkpt><trkpt lat="38.41017252931134" lon="16.143348169604803"><ele>422.0</ele><time>2026-05-03T08:15:12Z</time></trkpt><trkpt lat="38.41005126995606" lon="16.14357669673747"><ele>423.66666666666663</ele><time>2026-05-03T08:15:13Z</time></trkpt><trkpt lat="38.409927726166345" lon="16.14380670672938"><ele>425.33333333333337</ele><time>2026-05-03T08:15:14Z</time></trkpt><trkpt lat="38.40980239538199" lon="16.144035844285177"><ele>427.0</ele><time>2026-05-03T08:15:15Z</time></trkpt><trkpt lat="38.4096787003723" lon="16.144266768168613"><ele>441.6666666666667</ele><time>2026-05-03T08:15:16Z</time></trkpt><trkpt lat="38.40955790360882" lon="16.144504421271144"><ele>456.33333333333337</ele><time>2026-05-03T08:15:17Z</time></trkpt><trkpt lat="38.40943732456096" lon="16.1447452565508"><ele>471.0</ele><time>2026-05-03T08:15:18Z</time></trkpt><trkpt lat="38.40931448524151" lon="16.144983775264578"><ele>478.0</ele><time>2026-05-03T08:15:19Z</time></trkpt><trkpt lat="38.40917234350881" lon="16.145209515439415"><ele>485.0</ele><time>2026-05-03T08:15:20Z</time></trkpt><trkpt lat="38.409041991214" lon="16.145455527561424"><ele>485.0</ele><time>2026-05-03T08:15:21.02Z</time></trkpt><trkpt lat="38.40892319057838" lon="16.145710671786787"><ele>485.0</ele><time>2026-05-03T08:15:22.022Z</time></trkpt><trkpt lat="38.40879175024093" lon="16.145955905071208"><ele>491.5</ele><time>2026-05-03T08:15:23.018Z</time></trkpt><trkpt lat="38.40865799636666" lon="16.146204522791646"><ele>498.0</ele><time>2026-05-03T08:15:24.021Z</time></trkpt><trkpt lat="38.40841904286147" lon="16.146597443163532"><ele>477.0</ele><time>2026-05-03T08:15:26Z</time></trkpt><trkpt lat="38.40828890424665" lon="16.146832282353298"><ele>456.0</ele><time>2026-05-03T08:15:27Z</time></trkpt><trkpt lat="38.40813315189947" lon="16.147124181782463"><ele>456.0</ele><time>2026-05-03T08:15:28Z</time></trkpt><trkpt lat="38.40799506052224" lon="16.147352602630583"><ele>456.0</ele><time>2026-05-03T08:15:29Z</time></trkpt><trkpt lat="38.40786945726998" lon="16.147599769990496"><ele>459.0</ele><time>2026-05-03T08:15:30Z</time></trkpt><trkpt lat="38.40772507345073" lon="16.147840171966738"><ele>462.0</ele><time>2026-05-03T08:15:31Z</time></trkpt><trkpt lat="38.40761390010344" lon="16.14814308832035"><ele>463.5</ele><time>2026-05-03T08:15:32Z</time></trkpt><trkpt lat="38.407479737386446" lon="16.148396071495384"><ele>465.0</ele><time>2026-05-03T08:15:33Z</time></trkpt><trkpt lat="38.40734262307728" lon="16.148654216414954"><ele>465.0</ele><time>2026-05-03T08:15:34Z</time></trkpt><trkpt lat="38.4072073891298" lon="16.148910200724796"><ele>465.0</ele><time>2026-05-03T08:15:35Z</time></trkpt><trkpt lat="38.40707275737463" lon="16.149173132124893"><ele>464.5</ele><time>2026-05-03T08:15:36Z</time></trkpt><trkpt lat="38.40693185875456" lon="16.149431202527584"><ele>464.0</ele><time>2026-05-03T08:15:37Z</time></trkpt><trkpt lat="38.40679072159811" lon="16.14969142342388"><ele>469.0</ele><time>2026-05-03T08:15:38Z</time></trkpt><trkpt lat="38.40664600097157" lon="16.14995688992166"><ele>474.0</ele><time>2026-05-03T08:15:39Z</time></trkpt><trkpt lat="38.40650197144812" lon="16.150229112165107"><ele>474.0</ele><time>2026-05-03T08:15:40Z</time></trkpt><trkpt lat="38.40636145479017" lon="16.150500087662298"><ele>474.0</ele><time>2026-05-03T08:15:41Z</time></trkpt><trkpt lat="38.40622301108711" lon="16.150779475765646"><ele>474.5</ele><time>2026-05-03T08:15:42Z</time></trkpt><trkpt lat="38.40608757392524" lon="16.151053689681838"><ele>475.0</ele><time>2026-05-03T08:15:43Z</time></trkpt><trkpt lat="38.40595439368809" lon="16.151329376634216"><ele>476.0</ele><time>2026-05-03T08:15:44Z</time></trkpt><trkpt lat="38.40581857323739" lon="16.151607851208006"><ele>477.0</ele><time>2026-05-03T08:15:45Z</time></trkpt><trkpt lat="38.405688436217105" lon="16.15188955031351"><ele>477.0</ele><time>2026-05-03T08:15:46Z</time></trkpt><trkpt lat="38.40556900370779" lon="16.152167929417796"><ele>477.0</ele><time>2026-05-03T08:15:47Z</time></trkpt><trkpt lat="38.405444760434406" lon="16.15245240308031"><ele>479.0</ele><time>2026-05-03T08:15:48Z</time></trkpt><trkpt lat="38.405327337847446" lon="16.152742085072237"><ele>481.0</ele><time>2026-05-03T08:15:49Z</time></trkpt><trkpt lat="38.40521279648599" lon="16.153036066940196"><ele>484.0</ele><time>2026-05-03T08:15:50Z</time></trkpt><trkpt lat="38.40510062492518" lon="16.15332524622858"><ele>487.0</ele><time>2026-05-03T08:15:51Z</time></trkpt><trkpt lat="38.40498905235732" lon="16.15363011954877"><ele>487.0</ele><time>2026-05-03T08:15:52Z</time></trkpt><trkpt lat="38.404880011122174" lon="16.153940193187925"><ele>487.0</ele><time>2026-05-03T08:15:53Z</time></trkpt><trkpt lat="38.40477963517594" lon="16.154258942808664"><ele>486.5</ele><time>2026-05-03T08:15:54Z</time></trkpt><trkpt lat="38.404686778057325" lon="16.15457625555214"><ele>486.0</ele><time>2026-05-03T08:15:55Z</time></trkpt><trkpt lat="38.40459019450646" lon="16.154902354015725"><ele>493.5</ele><time>2026-05-03T08:15:56Z</time></trkpt><trkpt lat="38.40447474614307" lon="16.155225673492957"><ele>501.0</ele><time>2026-05-03T08:15:57Z</time></trkpt><trkpt lat="38.40438018633551" lon="16.155533658985625"><ele>502.0</ele><time>2026-05-03T08:15:58Z</time></trkpt><trkpt lat="38.404287398917816" lon="16.155840963860218"><ele>503.0</ele><time>2026-05-03T08:15:59Z</time></trkpt><trkpt lat="38.40422273640223" lon="16.156187699413888"><ele>503.5</ele><time>2026-05-03T08:16:00Z</time></trkpt><trkpt lat="38.40412819767043" lon="16.15653887621324"><ele>504.0</ele><time>2026-05-03T08:16:01Z</time></trkpt><trkpt lat="38.404027962106575" lon="16.156892700206686"><ele>504.0</ele><time>2026-05-03T08:16:02Z</time></trkpt><trkpt lat="38.403926298261275" lon="16.15724521205655"><ele>504.0</ele><time>2026-05-03T08:16:03Z</time></trkpt><trkpt lat="38.40381959305497" lon="16.157610654875427"><ele>512.5</ele><time>2026-05-03T08:16:04Z</time></trkpt><trkpt lat="38.403711765351865" lon="16.157999403845647"><ele>521.0</ele><time>2026-05-03T08:16:05Z</time></trkpt><trkpt lat="38.40359978600804" lon="16.158373021214317"><ele>521.0</ele><time>2026-05-03T08:16:06Z</time></trkpt><trkpt lat="38.40349399936104" lon="16.158727901403715"><ele>521.0</ele><time>2026-05-03T08:16:07Z</time></trkpt><trkpt lat="38.40339090994865" lon="16.15906233055224"><ele>523.5</ele><time>2026-05-03T08:16:08Z</time></trkpt><trkpt lat="38.403290433522315" lon="16.15938036808789"><ele>526.0</ele><time>2026-05-03T08:16:09Z</time></trkpt><trkpt lat="38.40319388000171" lon="16.159673673300162"><ele>529.5</ele><time>2026-05-03T08:16:10Z</time></trkpt><trkpt lat="38.40309419915345" lon="16.159963076084548"><ele>533.0</ele><time>2026-05-03T08:16:11Z</time></trkpt><trkpt lat="38.402994533483934" lon="16.160246152472"><ele>533.0</ele><time>2026-05-03T08:16:12Z</time></trkpt><trkpt lat="38.4028813732706" lon="16.16051017934446"><ele>533.0</ele><time>2026-05-03T08:16:13Z</time></trkpt><trkpt lat="38.40276004377037" lon="16.160789897140983"><ele>533.0</ele><time>2026-05-03T08:16:14Z</time></trkpt><trkpt lat="38.40263084676972" lon="16.1610660346217"><ele>533.0</ele><time>2026-05-03T08:16:15Z</time></trkpt><trkpt lat="38.402493443557994" lon="16.16133944994265"><ele>533.0</ele><time>2026-05-03T08:16:16Z</time></trkpt><trkpt lat="38.40235148726622" lon="16.161618123757734"><ele>533.0</ele><time>2026-05-03T08:16:17Z</time></trkpt><trkpt lat="38.40220233456399" lon="16.16189184478402"><ele>539.5</ele><time>2026-05-03T08:16:18Z</time></trkpt><trkpt lat="38.40204105347826" lon="16.162161378464805"><ele>546.0</ele><time>2026-05-03T08:16:19Z</time></trkpt><trkpt lat="38.401876405645694" lon="16.162422858678635"><ele>546.5</ele><time>2026-05-03T08:16:20Z</time></trkpt><trkpt lat="38.40169961754441" lon="16.16267855329741"><ele>547.0</ele><time>2026-05-03T08:16:21Z</time></trkpt><trkpt lat="38.40151532194048" lon="16.16293182874814"><ele>562.0</ele><time>2026-05-03T08:16:22Z</time></trkpt><trkpt lat="38.40133156411971" lon="16.16317721887355"><ele>577.0</ele><time>2026-05-03T08:16:22.999Z</time></trkpt><trkpt lat="38.40114107528788" lon="16.163411339552063"><ele>577.0</ele><time>2026-05-03T08:16:23.999Z</time></trkpt><trkpt lat="38.400946566170646" lon="16.163640042260887"><ele>577.0</ele><time>2026-05-03T08:16:24.999Z</time></trkpt><trkpt lat="38.400734215646494" lon="16.16382824735688"><ele>578.5</ele><time>2026-05-03T08:16:25.999Z</time></trkpt><trkpt lat="38.40052760780661" lon="16.16403439463581"><ele>580.0</ele><time>2026-05-03T08:16:26.999Z</time></trkpt><trkpt lat="38.40030992674425" lon="16.164239478206856"><ele>605.0</ele><time>2026-05-03T08:16:28.022Z</time></trkpt><trkpt lat="38.400095085225395" lon="16.1644273300845"><ele>630.0</ele><time>2026-05-03T08:16:29.024Z</time></trkpt><trkpt lat="38.399877759907135" lon="16.16460391532745"><ele>648.0</ele><time>2026-05-03T08:16:30.021Z</time></trkpt><trkpt lat="38.399655575920434" lon="16.16476973001004"><ele>666.0</ele><time>2026-05-03T08:16:31.016Z</time></trkpt><trkpt lat="38.397632366496325" lon="16.16592895343273"><ele>737.0</ele><time>2026-05-03T08:16:35.131Z</time></trkpt><trkpt lat="38.39712855193176" lon="16.166177911722567"><ele>737.0</ele><time>2026-05-03T08:16:36.131Z</time></trkpt><trkpt lat="38.39662574657229" lon="16.166427442837165"><ele>735.0</ele><time>2026-05-03T08:16:37.13Z</time></trkpt><trkpt lat="38.39612207878108" lon="16.166679237798434"><ele>735.0</ele><time>2026-05-03T08:16:38.131Z</time></trkpt><trkpt lat="38.395618265430194" lon="16.16692946524456"><ele>737.0</ele><time>2026-05-03T08:16:39.132Z</time></trkpt><trkpt lat="38.39511600995539" lon="16.167181867405382"><ele>736.0</ele><time>2026-05-03T08:16:40.131Z</time></trkpt><trkpt lat="38.394613477030376" lon="16.167434776712756"><ele>736.0</ele><time>2026-05-03T08:16:41.131Z</time></trkpt><trkpt lat="38.394110940091565" lon="16.16768768804015"><ele>736.0</ele><time>2026-05-03T08:16:42.131Z</time></trkpt><trkpt lat="38.39360775436753" lon="16.16793844744706"><ele>736.0</ele><time>2026-05-03T08:16:43.131Z</time></trkpt><trkpt lat="38.3933389" lon="16.1680712"><ele>736.0</ele><time>2026-05-03T08:16:44.132Z</time></trkpt><trkpt lat="38.374249460211374" lon="16.177779044971036"><ele>668.0</ele><time>2026-05-03T08:18:09.999Z</time></trkpt><trkpt lat="38.37406367023785" lon="16.177850334890184"><ele>600.0</ele><time>2026-05-03T08:18:10.999Z</time></trkpt><trkpt lat="38.3738592349101" lon="16.17804380717104"><ele>532.0</ele><time>2026-05-03T08:18:11.999Z</time></trkpt><trkpt lat="38.37365152589831" lon="16.178253208461363"><ele>528.0</ele><time>2026-05-03T08:18:12.999Z</time></trkpt><trkpt lat="38.373444659030255" lon="16.17845420324282"><ele>524.0</ele><time>2026-05-03T08:18:13.999Z</time></trkpt><trkpt lat="38.37324013933758" lon="16.178689333713212"><ele>524.0</ele><time>2026-05-03T08:18:14.999Z</time></trkpt><trkpt lat="38.37304036646373" lon="16.17891106441984"><ele>524.0</ele><time>2026-05-03T08:18:16Z</time></trkpt><trkpt lat="38.37284501610995" lon="16.179168095993504"><ele>521.5</ele><time>2026-05-03T08:18:17Z</time></trkpt><trkpt lat="38.37265487013714" lon="16.17944989867083"><ele>519.0</ele><time>2026-05-03T08:18:18Z</time></trkpt><trkpt lat="38.372465284889955" lon="16.1797385902275"><ele>510.5</ele><time>2026-05-03T08:18:19Z</time></trkpt><trkpt lat="38.37227967138792" lon="16.18001011248797"><ele>502.0</ele><time>2026-05-03T08:18:20Z</time></trkpt><trkpt lat="38.37209495232979" lon="16.180288961078713"><ele>499.0</ele><time>2026-05-03T08:18:21Z</time></trkpt><trkpt lat="38.371907507433384" lon="16.180561544639712"><ele>496.0</ele><time>2026-05-03T08:18:22Z</time></trkpt><trkpt lat="38.37170915841582" lon="16.18082396708847"><ele>499.5</ele><time>2026-05-03T08:18:23Z</time></trkpt><trkpt lat="38.37150641398048" lon="16.181076767435062"><ele>503.0</ele><time>2026-05-03T08:18:24Z</time></trkpt><trkpt lat="38.371293463795475" lon="16.181320281434495"><ele>496.0</ele><time>2026-05-03T08:18:25Z</time></trkpt><trkpt lat="38.37107247971587" lon="16.181543611486997"><ele>489.0</ele><time>2026-05-03T08:18:26Z</time></trkpt><trkpt lat="38.370843802678635" lon="16.181756343994774"><ele>489.0</ele><time>2026-05-03T08:18:27Z</time></trkpt><trkpt lat="38.37062075908774" lon="16.181947556904024"><ele>489.0</ele><time>2026-05-03T08:18:28Z</time></trkpt><trkpt lat="38.3703879664264" lon="16.18211845895068"><ele>483.5</ele><time>2026-05-03T08:18:29Z</time></trkpt><trkpt lat="38.370156286351104" lon="16.182273864847552"><ele>478.0</ele><time>2026-05-03T08:18:30Z</time></trkpt><trkpt lat="38.369921353777535" lon="16.182414528844376"><ele>473.0</ele><time>2026-05-03T08:18:31Z</time></trkpt><trkpt lat="38.369687155168315" lon="16.182576742212014"><ele>468.0</ele><time>2026-05-03T08:18:32Z</time></trkpt><trkpt lat="38.36947149426683" lon="16.182731541133723"><ele>468.0</ele><time>2026-05-03T08:18:33Z</time></trkpt><trkpt lat="38.369238868290736" lon="16.18288306862802"><ele>468.0</ele><time>2026-05-03T08:18:34Z</time></trkpt><trkpt lat="38.3690097109342" lon="16.18303948076395"><ele>460.0</ele><time>2026-05-03T08:18:35Z</time></trkpt><trkpt lat="38.36878273709598" lon="16.183191508683162"><ele>452.0</ele><time>2026-05-03T08:18:36Z</time></trkpt><trkpt lat="38.36856266200385" lon="16.18334413009821"><ele>452.0</ele><time>2026-05-03T08:18:37Z</time></trkpt><trkpt lat="38.3683351180893" lon="16.183501643600135"><ele>452.0</ele><time>2026-05-03T08:18:38Z</time></trkpt><trkpt lat="38.368112601510724" lon="16.183653919197166"><ele>449.5</ele><time>2026-05-03T08:18:39Z</time></trkpt><trkpt lat="38.367888895499526" lon="16.18383139341297"><ele>447.0</ele><time>2026-05-03T08:18:40Z</time></trkpt><trkpt lat="38.367671386167544" lon="16.18402252731539"><ele>447.0</ele><time>2026-05-03T08:18:41Z</time></trkpt><trkpt lat="38.36745747679685" lon="16.184215930833908"><ele>447.0</ele><time>2026-05-03T08:18:42Z</time></trkpt><trkpt lat="38.36724058709426" lon="16.18441471235249"><ele>457.5</ele><time>2026-05-03T08:18:43Z</time></trkpt><trkpt lat="38.367025495197225" lon="16.18461883987118"><ele>468.0</ele><time>2026-05-03T08:18:44Z</time></trkpt><trkpt lat="38.366813014038556" lon="16.184820766016543"><ele>452.0</ele><time>2026-05-03T08:18:45Z</time></trkpt><trkpt lat="38.36660433673691" lon="16.18501417748159"><ele>436.0</ele><time>2026-05-03T08:18:46Z</time></trkpt><trkpt lat="38.3664009695286" lon="16.1852069627532"><ele>452.0</ele><time>2026-05-03T08:18:47Z</time></trkpt><trkpt lat="38.36619757543997" lon="16.185404522919463"><ele>468.0</ele><time>2026-05-03T08:18:48Z</time></trkpt><trkpt lat="38.36599951265698" lon="16.185587239872646"><ele>456.5</ele><time>2026-05-03T08:18:49Z</time></trkpt><trkpt lat="38.3658002232204" lon="16.185767731492998"><ele>445.0</ele><time>2026-05-03T08:18:50Z</time></trkpt><trkpt lat="38.36560140100377" lon="16.185956420964615"><ele>477.0</ele><time>2026-05-03T08:18:51Z</time></trkpt><trkpt lat="38.36541171675047" lon="16.186143931342226"><ele>509.0</ele><time>2026-05-03T08:18:52Z</time></trkpt><trkpt lat="38.36521383478505" lon="16.186333591388646"><ele>498.5</ele><time>2026-05-03T08:18:53Z</time></trkpt><trkpt lat="38.36501175310649" lon="16.186527966040902"><ele>488.0</ele><time>2026-05-03T08:18:54.016Z</time></trkpt><trkpt lat="38.36481303991283" lon="16.186720018559033"><ele>516.0</ele><time>2026-05-03T08:18:55.014Z</time></trkpt><trkpt lat="38.364619559528755" lon="16.186916607918967"><ele>544.0</ele><time>2026-05-03T08:18:56.016Z</time></trkpt><trkpt lat="38.36443830294443" lon="16.187121013376316"><ele>544.0</ele><time>2026-05-03T08:18:57.022Z</time></trkpt><trkpt lat="38.36421624190496" lon="16.18731222588223"><ele>544.0</ele><time>2026-05-03T08:18:58.023Z</time></trkpt><trkpt lat="38.36329297166165" lon="16.188938291758475"><ele>478.5</ele><time>2026-05-03T08:19:03Z</time></trkpt><trkpt lat="38.36313142155556" lon="16.189233461018702"><ele>413.0</ele><time>2026-05-03T08:19:04Z</time></trkpt><trkpt lat="38.36294527667678" lon="16.18955827711384"><ele>396.0</ele><time>2026-05-03T08:19:05Z</time></trkpt><trkpt lat="38.362802187962224" lon="16.18985789775076"><ele>379.0</ele><time>2026-05-03T08:19:06Z</time></trkpt><trkpt lat="38.36269541274052" lon="16.190182485351205"><ele>379.0</ele><time>2026-05-03T08:19:07Z</time></trkpt><trkpt lat="38.36259445774229" lon="16.190514957360527"><ele>379.0</ele><time>2026-05-03T08:19:08Z</time></trkpt><trkpt lat="38.36254579115382" lon="16.19079075915171"><ele>376.5</ele><time>2026-05-03T08:19:09Z</time></trkpt><trkpt lat="38.36247337238379" lon="16.19112800704302"><ele>374.0</ele><time>2026-05-03T08:19:10Z</time></trkpt><trkpt lat="38.362405261305035" lon="16.191492900780844"><ele>374.0</ele><time>2026-05-03T08:19:11Z</time></trkpt><trkpt lat="38.362352047131346" lon="16.1918643877976"><ele>374.0</ele><time>2026-05-03T08:19:12Z</time></trkpt><trkpt lat="38.36230891594666" lon="16.19223351150249"><ele>377.0</ele><time>2026-05-03T08:19:13Z</time></trkpt><trkpt lat="38.36227722977804" lon="16.192600207021"><ele>380.0</ele><time>2026-05-03T08:19:14Z</time></trkpt><trkpt lat="38.36224788146997" lon="16.192973747169887"><ele>377.0</ele><time>2026-05-03T08:19:15Z</time></trkpt><trkpt lat="38.3622227441875" lon="16.193350154833603"><ele>374.0</ele><time>2026-05-03T08:19:16Z</time></trkpt><trkpt lat="38.36220310523801" lon="16.19373329268622"><ele>395.5</ele><time>2026-05-03T08:19:17Z</time></trkpt><trkpt lat="38.36218911533393" lon="16.194116159414897"><ele>417.0</ele><time>2026-05-03T08:19:18Z</time></trkpt><trkpt lat="38.362174256097546" lon="16.194492332393324"><ele>413.5</ele><time>2026-05-03T08:19:19Z</time></trkpt><trkpt lat="38.3621575286784" lon="16.194859706714634"><ele>410.0</ele><time>2026-05-03T08:19:20Z</time></trkpt><trkpt lat="38.36213933074005" lon="16.195229051331072"><ele>410.0</ele><time>2026-05-03T08:19:21Z</time></trkpt><trkpt lat="38.36212745670218" lon="16.195597700330158"><ele>410.0</ele><time>2026-05-03T08:19:22Z</time></trkpt><trkpt lat="38.362101296915405" lon="16.195958359507877"><ele>402.5</ele><time>2026-05-03T08:19:23Z</time></trkpt><trkpt lat="38.36206995546717" lon="16.196320768261774"><ele>395.0</ele><time>2026-05-03T08:19:24Z</time></trkpt><trkpt lat="38.36202824391737" lon="16.196679977169506"><ele>382.0</ele><time>2026-05-03T08:19:25Z</time></trkpt><trkpt lat="38.361980664955496" lon="16.19704243249991"><ele>369.0</ele><time>2026-05-03T08:19:26Z</time></trkpt><trkpt lat="38.36192820704475" lon="16.197407198281102"><ele>355.5</ele><time>2026-05-03T08:19:27Z</time></trkpt><trkpt lat="38.36187135897103" lon="16.197769403245804"><ele>342.0</ele><time>2026-05-03T08:19:28Z</time></trkpt><trkpt lat="38.36180726010458" lon="16.198131253364302"><ele>336.0</ele><time>2026-05-03T08:19:29Z</time></trkpt><trkpt lat="38.36173678438584" lon="16.19848034547356"><ele>330.0</ele><time>2026-05-03T08:19:30Z</time></trkpt><trkpt lat="38.36166113702341" lon="16.19882602048021"><ele>328.5</ele><time>2026-05-03T08:19:31Z</time></trkpt><trkpt lat="38.361584152895745" lon="16.199169223178473"><ele>327.0</ele><time>2026-05-03T08:19:32Z</time></trkpt><trkpt lat="38.36150419741431" lon="16.19950968955024"><ele>329.5</ele><time>2026-05-03T08:19:33Z</time></trkpt><trkpt lat="38.36142080554212" lon="16.19984724198043"><ele>332.0</ele><time>2026-05-03T08:19:34Z</time></trkpt><trkpt lat="38.36133576516149" lon="16.200180600178"><ele>327.0</ele><time>2026-05-03T08:19:35Z</time></trkpt><trkpt lat="38.36124778679848" lon="16.20051519958042"><ele>322.0</ele><time>2026-05-03T08:19:36Z</time></trkpt><trkpt lat="38.36115801111224" lon="16.200848851847933"><ele>322.0</ele><time>2026-05-03T08:19:37Z</time></trkpt><trkpt lat="38.361070465955436" lon="16.201184152254637"><ele>322.0</ele><time>2026-05-03T08:19:38Z</time></trkpt><trkpt lat="38.36098232870303" lon="16.20151898913114"><ele>321.0</ele><time>2026-05-03T08:19:39Z</time></trkpt><trkpt lat="38.36089347375794" lon="16.201854777006584"><ele>320.0</ele><time>2026-05-03T08:19:39.999Z</time></trkpt><trkpt lat="38.3608060222114" lon="16.202196250706816"><ele>317.5</ele><time>2026-05-03T08:19:40.999Z</time></trkpt><trkpt lat="38.36071984216929" lon="16.202538646353403"><ele>315.0</ele><time>2026-05-03T08:19:41.999Z</time></trkpt><trkpt lat="38.36063464218598" lon="16.20288303123918"><ele>312.5</ele><time>2026-05-03T08:19:42.999Z</time></trkpt><trkpt lat="38.360549234328566" lon="16.203229024891254"><ele>310.0</ele><time>2026-05-03T08:19:43.999Z</time></trkpt><trkpt lat="38.36046510664985" lon="16.20357628332992"><ele>307.0</ele><time>2026-05-03T08:19:44.999Z</time></trkpt><trkpt lat="38.36038391065242" lon="16.20393219622865"><ele>304.0</ele><time>2026-05-03T08:19:45.999Z</time></trkpt><trkpt lat="38.36030229299772" lon="16.204287106050774"><ele>302.5</ele><time>2026-05-03T08:19:46.999Z</time></trkpt><trkpt lat="38.36022427203913" lon="16.204645229965564"><ele>301.0</ele><time>2026-05-03T08:19:47.999Z</time></trkpt><trkpt lat="38.36015173978656" lon="16.20500465088701"><ele>300.0</ele><time>2026-05-03T08:19:48.999Z</time></trkpt><trkpt lat="38.360080839161924" lon="16.205364738011323"><ele>299.0</ele><time>2026-05-03T08:19:49.999Z</time></trkpt><trkpt lat="38.360012354621745" lon="16.205720725374608"><ele>296.5</ele><time>2026-05-03T08:19:50.999Z</time></trkpt><trkpt lat="38.35994344610878" lon="16.206082065714426"><ele>294.0</ele><time>2026-05-03T08:19:51.999Z</time></trkpt><trkpt lat="38.35987674791316" lon="16.20644358437661"><ele>292.0</ele><time>2026-05-03T08:19:52.999Z</time></trkpt><trkpt lat="38.35981218191025" lon="16.206807427425442"><ele>290.0</ele><time>2026-05-03T08:19:53.999Z</time></trkpt><trkpt lat="38.359749666719566" lon="16.20717307412969"><ele>292.0</ele><time>2026-05-03T08:19:54.999Z</time></trkpt><trkpt lat="38.359691268614064" lon="16.207541670381705"><ele>294.0</ele><time>2026-05-03T08:19:55.999Z</time></trkpt><trkpt lat="38.35963444388846" lon="16.207909943437294"><ele>292.5</ele><time>2026-05-03T08:19:56.999Z</time></trkpt><trkpt lat="38.359582743888296" lon="16.20828025691056"><ele>291.0</ele><time>2026-05-03T08:19:57.999Z</time></trkpt><trkpt lat="38.35953357189212" lon="16.208654497265524"><ele>290.5</ele><time>2026-05-03T08:19:58.999Z</time></trkpt><trkpt lat="38.35948381752237" lon="16.209028398138795"><ele>290.0</ele><time>2026-05-03T08:19:59.999Z</time></trkpt><trkpt lat="38.35943668326458" lon="16.20940270637466"><ele>290.0</ele><time>2026-05-03T08:20:00.999Z</time></trkpt><trkpt lat="38.35939056982431" lon="16.209780794833346"><ele>290.0</ele><time>2026-05-03T08:20:01.999Z</time></trkpt><trkpt lat="38.3593476841424" lon="16.21015830302304"><ele>289.0</ele><time>2026-05-03T08:20:02.999Z</time></trkpt><trkpt lat="38.359306029750606" lon="16.210538355444104"><ele>288.0</ele><time>2026-05-03T08:20:03.999Z</time></trkpt><trkpt lat="38.359266179015236" lon="16.210918494434456"><ele>286.5</ele><time>2026-05-03T08:20:04.999Z</time></trkpt><trkpt lat="38.3592301473404" lon="16.21129884432143"><ele>285.0</ele><time>2026-05-03T08:20:05.999Z</time></trkpt><trkpt lat="38.35919522397291" lon="16.21168298891683"><ele>285.0</ele><time>2026-05-03T08:20:06.999Z</time></trkpt><trkpt lat="38.35916574072635" lon="16.212065959121663"><ele>285.0</ele><time>2026-05-03T08:20:07.999Z</time></trkpt><trkpt lat="38.35913740100336" lon="16.212448443216022"><ele>281.5</ele><time>2026-05-03T08:20:08.999Z</time></trkpt><trkpt lat="38.35910731496675" lon="16.21283061295402"><ele>278.0</ele><time>2026-05-03T08:20:09.999Z</time></trkpt><trkpt lat="38.35907877947558" lon="16.213215998768128"><ele>274.5</ele><time>2026-05-03T08:20:10.999Z</time></trkpt><trkpt lat="38.35905238028323" lon="16.21360608846771"><ele>271.0</ele><time>2026-05-03T08:20:11.999Z</time></trkpt><trkpt lat="38.35903034859062" lon="16.213995044695995"><ele>269.0</ele><time>2026-05-03T08:20:12.999Z</time></trkpt><trkpt lat="38.35901077917458" lon="16.21438395516731"><ele>267.0</ele><time>2026-05-03T08:20:13.999Z</time></trkpt><trkpt lat="38.35899286778732" lon="16.21476399156656"><ele>264.5</ele><time>2026-05-03T08:20:14.999Z</time></trkpt><trkpt lat="38.35897664238819" lon="16.215130393052714"><ele>262.0</ele><time>2026-05-03T08:20:15.999Z</time></trkpt><trkpt lat="38.35896014285627" lon="16.215494106919746"><ele>259.5</ele><time>2026-05-03T08:20:16.999Z</time></trkpt><trkpt lat="38.358946222212325" lon="16.21585055358158"><ele>257.0</ele><time>2026-05-03T08:20:17.999Z</time></trkpt><trkpt lat="38.35893217461496" lon="16.21620368780954"><ele>255.5</ele><time>2026-05-03T08:20:18.999Z</time></trkpt><trkpt lat="38.35892193890771" lon="16.21655825964986"><ele>254.0</ele><time>2026-05-03T08:20:19.999Z</time></trkpt><trkpt lat="38.35891370527458" lon="16.21691263745093"><ele>254.0</ele><time>2026-05-03T08:20:20.999Z</time></trkpt><trkpt lat="38.35890415196442" lon="16.21726530481667"><ele>254.0</ele><time>2026-05-03T08:20:22Z</time></trkpt><trkpt lat="38.3588950611909" lon="16.21762390458527"><ele>252.0</ele><time>2026-05-03T08:20:23Z</time></trkpt><trkpt lat="38.358889513675294" lon="16.217982316617288"><ele>250.0</ele><time>2026-05-03T08:20:24Z</time></trkpt><trkpt lat="38.35888217776097" lon="16.218343211242786"><ele>250.0</ele><time>2026-05-03T08:20:25Z</time></trkpt><trkpt lat="38.35887124508909" lon="16.218702054047395"><ele>250.0</ele><time>2026-05-03T08:20:26Z</time></trkpt><trkpt lat="38.358860940153164" lon="16.21906529212612"><ele>250.0</ele><time>2026-05-03T08:20:27Z</time></trkpt><trkpt lat="38.35884921310555" lon="16.219431318490862"><ele>250.0</ele><time>2026-05-03T08:20:28Z</time></trkpt><trkpt lat="38.358840874427" lon="16.219799636235237"><ele>247.0</ele><time>2026-05-03T08:20:29Z</time></trkpt><trkpt lat="38.35883146666898" lon="16.2201674971166"><ele>244.0</ele><time>2026-05-03T08:20:30Z</time></trkpt><trkpt lat="38.358821427903926" lon="16.220539194302226"><ele>242.0</ele><time>2026-05-03T08:20:31Z</time></trkpt><trkpt lat="38.35881139294068" lon="16.220906434724345"><ele>240.0</ele><time>2026-05-03T08:20:32Z</time></trkpt><trkpt lat="38.35880172419706" lon="16.2212590768399"><ele>239.5</ele><time>2026-05-03T08:20:33Z</time></trkpt><trkpt lat="38.358791585454085" lon="16.221593568107902"><ele>239.0</ele><time>2026-05-03T08:20:34Z</time></trkpt><trkpt lat="38.3587818103541" lon="16.22192705622903"><ele>239.0</ele><time>2026-05-03T08:20:35Z</time></trkpt><trkpt lat="38.35877040730384" lon="16.22226396716913"><ele>239.0</ele><time>2026-05-03T08:20:36Z</time></trkpt><trkpt lat="38.35875751181874" lon="16.22260439280892"><ele>237.0</ele><time>2026-05-03T08:20:37Z</time></trkpt><trkpt lat="38.35874659852272" lon="16.222947264825873"><ele>235.0</ele><time>2026-05-03T08:20:38Z</time></trkpt><trkpt lat="38.35873419217491" lon="16.2232971235862"><ele>233.0</ele><time>2026-05-03T08:20:39Z</time></trkpt><trkpt lat="38.35872297958233" lon="16.22365238416944"><ele>231.0</ele><time>2026-05-03T08:20:40Z</time></trkpt><trkpt lat="38.35870914108831" lon="16.22400685401899"><ele>229.5</ele><time>2026-05-03T08:20:41Z</time></trkpt><trkpt lat="38.35869464017604" lon="16.224358377295125"><ele>228.0</ele><time>2026-05-03T08:20:42Z</time></trkpt><trkpt lat="38.35867883489775" lon="16.224706540180833"><ele>228.5</ele><time>2026-05-03T08:20:43Z</time></trkpt><trkpt lat="38.35866140859762" lon="16.225054080624396"><ele>229.0</ele><time>2026-05-03T08:20:44Z</time></trkpt><trkpt lat="38.35864503861378" lon="16.22540247293463"><ele>228.5</ele><time>2026-05-03T08:20:45Z</time></trkpt><trkpt lat="38.35862577498885" lon="16.22575183981128"><ele>228.0</ele><time>2026-05-03T08:20:46Z</time></trkpt><trkpt lat="38.35860149568304" lon="16.226103547154274"><ele>228.0</ele><time>2026-05-03T08:20:47Z</time></trkpt><trkpt lat="38.358578534577234" lon="16.226454857288562"><ele>228.0</ele><time>2026-05-03T08:20:48Z</time></trkpt><trkpt lat="38.35855479624067" lon="16.226802761244365"><ele>227.5</ele><time>2026-05-03T08:20:49Z</time></trkpt><trkpt lat="38.35853197384224" lon="16.227148693066532"><ele>227.0</ele><time>2026-05-03T08:20:50Z</time></trkpt><trkpt lat="38.35850220093323" lon="16.227491624932878"><ele>226.5</ele><time>2026-05-03T08:20:51Z</time></trkpt><trkpt lat="38.35847015275628" lon="16.227832544047946"><ele>226.0</ele><time>2026-05-03T08:20:52Z</time></trkpt><trkpt lat="38.35843764937958" lon="16.228169082752537"><ele>222.5</ele><time>2026-05-03T08:20:53Z</time></trkpt><trkpt lat="38.35840401228207" lon="16.228503789667318"><ele>219.0</ele><time>2026-05-03T08:20:54Z</time></trkpt><trkpt lat="38.35837138308311" lon="16.228832431234437"><ele>217.5</ele><time>2026-05-03T08:20:55Z</time></trkpt><trkpt lat="38.358336756476305" lon="16.22914473967913"><ele>216.0</ele><time>2026-05-03T08:20:56Z</time></trkpt><trkpt lat="38.358302110239855" lon="16.229443900223885"><ele>216.0</ele><time>2026-05-03T08:20:57Z</time></trkpt><trkpt lat="38.358269181262834" lon="16.229732631910295"><ele>216.0</ele><time>2026-05-03T08:20:58Z</time></trkpt><trkpt lat="38.35823650385155" lon="16.23001086976178"><ele>216.0</ele><time>2026-05-03T08:20:59Z</time></trkpt><trkpt lat="38.35819855639172" lon="16.230288678466437"><ele>217.0</ele><time>2026-05-03T08:21:00Z</time></trkpt><trkpt lat="38.35815710452677" lon="16.2305718273684"><ele>218.0</ele><time>2026-05-03T08:21:01Z</time></trkpt><trkpt lat="38.35811627077204" lon="16.23085879296577"><ele>218.5</ele><time>2026-05-03T08:21:02Z</time></trkpt><trkpt lat="38.358075592293694" lon="16.23114700982667"><ele>219.0</ele><time>2026-05-03T08:21:03Z</time></trkpt><trkpt lat="38.35803183804458" lon="16.23144294471383"><ele>213.0</ele><time>2026-05-03T08:21:04Z</time></trkpt><trkpt lat="38.3579848949495" lon="16.23174770570738"><ele>207.0</ele><time>2026-05-03T08:21:05Z</time></trkpt><trkpt lat="38.35793186163946" lon="16.232055925961742"><ele>207.0</ele><time>2026-05-03T08:21:06Z</time></trkpt><trkpt lat="38.35787657341393" lon="16.232363897850398"><ele>207.0</ele><time>2026-05-03T08:21:07Z</time></trkpt><trkpt lat="38.35782147454219" lon="16.23266737166129"><ele>207.0</ele><time>2026-05-03T08:21:08Z</time></trkpt><trkpt lat="38.35776597191658" lon="16.23297309033899"><ele>207.0</ele><time>2026-05-03T08:21:09Z</time></trkpt><trkpt lat="38.35771063692527" lon="16.233286542849605"><ele>204.5</ele><time>2026-05-03T08:21:10Z</time></trkpt><trkpt lat="38.35765206752272" lon="16.233597171123105"><ele>202.0</ele><time>2026-05-03T08:21:11Z</time></trkpt><trkpt lat="38.35759428506338" lon="16.233910285008633"><ele>203.0</ele><time>2026-05-03T08:21:12Z</time></trkpt><trkpt lat="38.357531694803725" lon="16.234224695281963"><ele>204.0</ele><time>2026-05-03T08:21:13Z</time></trkpt><trkpt lat="38.35746925953818" lon="16.234538631731283"><ele>205.0</ele><time>2026-05-03T08:21:14Z</time></trkpt><trkpt lat="38.35740402137127" lon="16.234844098071214"><ele>206.0</ele><time>2026-05-03T08:21:15Z</time></trkpt><trkpt lat="38.35733624722689" lon="16.23514907040986"><ele>206.0</ele><time>2026-05-03T08:21:16Z</time></trkpt><trkpt lat="38.35725529654401" lon="16.235440012472644"><ele>206.0</ele><time>2026-05-03T08:21:17Z</time></trkpt><trkpt lat="38.35718957265527" lon="16.23573193530363"><ele>201.5</ele><time>2026-05-03T08:21:18Z</time></trkpt><trkpt lat="38.35712294963881" lon="16.236019574830543"><ele>197.0</ele><time>2026-05-03T08:21:19Z</time></trkpt><trkpt lat="38.35706879330778" lon="16.236302367324132"><ele>196.0</ele><time>2026-05-03T08:21:20Z</time></trkpt><trkpt lat="38.357001566850336" lon="16.23656030373986"><ele>195.0</ele><time>2026-05-03T08:21:21Z</time></trkpt><trkpt lat="38.35693892209986" lon="16.23680655313162"><ele>194.0</ele><time>2026-05-03T08:21:22Z</time></trkpt><trkpt lat="38.35687411719856" lon="16.237055022645556"><ele>194.0</ele><time>2026-05-03T08:21:23Z</time></trkpt><trkpt lat="38.356813362830984" lon="16.237289170742475"><ele>194.0</ele><time>2026-05-03T08:21:24Z</time></trkpt><trkpt lat="38.35673908396483" lon="16.23751613825699"><ele>194.0</ele><time>2026-05-03T08:21:25Z</time></trkpt><trkpt lat="38.35668284687754" lon="16.23771954080699"><ele>193.5</ele><time>2026-05-03T08:21:26Z</time></trkpt><trkpt lat="38.356637664937836" lon="16.237882959516323"><ele>193.0</ele><time>2026-05-03T08:21:27Z</time></trkpt><trkpt lat="38.35660036563472" lon="16.238040403645773"><ele>192.5</ele><time>2026-05-03T08:21:28Z</time></trkpt><trkpt lat="38.35655285114866" lon="16.238188125172528"><ele>192.0</ele><time>2026-05-03T08:21:29Z</time></trkpt><trkpt lat="38.35651010098219" lon="16.23833314757076"><ele>191.25</ele><time>2026-05-03T08:21:30Z</time></trkpt><trkpt lat="38.356462781105584" lon="16.238480160650102"><ele>190.5</ele><time>2026-05-03T08:21:31Z</time></trkpt><trkpt lat="38.35641773360234" lon="16.238640202110556"><ele>189.75</ele><time>2026-05-03T08:21:32Z</time></trkpt><trkpt lat="38.35637373472303" lon="16.238808879347676"><ele>189.0</ele><time>2026-05-03T08:21:33Z</time></trkpt><trkpt lat="38.35631738274741" lon="16.23898001384946"><ele>188.0</ele><time>2026-05-03T08:21:34Z</time></trkpt><trkpt lat="38.35626368259583" lon="16.239153456194273"><ele>187.0</ele><time>2026-05-03T08:21:35Z</time></trkpt><trkpt lat="38.35620650925003" lon="16.23932606333931"><ele>186.0</ele><time>2026-05-03T08:21:36Z</time></trkpt><trkpt lat="38.35614809580312" lon="16.239497590911732"><ele>185.0</ele><time>2026-05-03T08:21:37Z</time></trkpt><trkpt lat="38.35609198035307" lon="16.239653261621445"><ele>185.5</ele><time>2026-05-03T08:21:38Z</time></trkpt><trkpt lat="38.35603245684661" lon="16.23981907468023"><ele>186.0</ele><time>2026-05-03T08:21:39Z</time></trkpt><trkpt lat="38.35596790653367" lon="16.23999352732767"><ele>186.5</ele><time>2026-05-03T08:21:39.999Z</time></trkpt><trkpt lat="38.35590398339735" lon="16.240171384550983"><ele>187.0</ele><time>2026-05-03T08:21:40.999Z</time></trkpt><trkpt lat="38.35583273709738" lon="16.240357545843384"><ele>187.0</ele><time>2026-05-03T08:21:41.999Z</time></trkpt><trkpt lat="38.355755262171954" lon="16.240553778225976"><ele>187.0</ele><time>2026-05-03T08:21:42.999Z</time></trkpt><trkpt lat="38.35566931836308" lon="16.24074825072415"><ele>187.0</ele><time>2026-05-03T08:21:43.999Z</time></trkpt><trkpt lat="38.355583186855476" lon="16.240950744616505"><ele>186.66666666666669</ele><time>2026-05-03T08:21:44.999Z</time></trkpt><trkpt lat="38.35549278899764" lon="16.2411551981687"><ele>186.33333333333334</ele><time>2026-05-03T08:21:45.999Z</time></trkpt><trkpt lat="38.35539801308117" lon="16.241362235256744"><ele>186.0</ele><time>2026-05-03T08:21:46.999Z</time></trkpt><trkpt lat="38.35529756685907" lon="16.241566990335595"><ele>186.0</ele><time>2026-05-03T08:21:47.999Z</time></trkpt><trkpt lat="38.35519297770001" lon="16.24176410713217"><ele>186.0</ele><time>2026-05-03T08:21:48.999Z</time></trkpt><trkpt lat="38.355087722893344" lon="16.241985133223515"><ele>186.0</ele><time>2026-05-03T08:21:49.999Z</time></trkpt><trkpt lat="38.35498496456761" lon="16.242192257199214"><ele>188.66666666666669</ele><time>2026-05-03T08:21:50.999Z</time></trkpt><trkpt lat="38.354875337444454" lon="16.242398576898943"><ele>191.33333333333334</ele><time>2026-05-03T08:21:51.999Z</time></trkpt><trkpt lat="38.35475698243735" lon="16.24261534001082"><ele>194.0</ele><time>2026-05-03T08:21:52.999Z</time></trkpt><trkpt lat="38.354645995701226" lon="16.242819163765866"><ele>188.66666666666669</ele><time>2026-05-03T08:21:53.999Z</time></trkpt><trkpt lat="38.35453249713779" lon="16.24302928249983"><ele>183.33333333333334</ele><time>2026-05-03T08:21:54.999Z</time></trkpt><trkpt lat="38.354417130771914" lon="16.243243479908003"><ele>178.0</ele><time>2026-05-03T08:21:55.999Z</time></trkpt><trkpt lat="38.35430175870022" lon="16.243461558371987"><ele>178.0</ele><time>2026-05-03T08:21:56.999Z</time></trkpt><trkpt lat="38.35418741850724" lon="16.243675041438824"><ele>178.0</ele><time>2026-05-03T08:21:57.999Z</time></trkpt><trkpt lat="38.354057001274626" lon="16.24388371356234"><ele>178.0</ele><time>2026-05-03T08:21:58.999Z</time></trkpt><trkpt lat="38.35393247166445" lon="16.244095171160023"><ele>177.0</ele><time>2026-05-03T08:21:59.999Z</time></trkpt><trkpt lat="38.353801789234" lon="16.244329055297037"><ele>176.0</ele><time>2026-05-03T08:22:00.999Z</time></trkpt><trkpt lat="38.35367180489753" lon="16.244562821340562"><ele>176.0</ele><time>2026-05-03T08:22:01.999Z</time></trkpt><trkpt lat="38.353538472232394" lon="16.244810109564416"><ele>176.0</ele><time>2026-05-03T08:22:02.999Z</time></trkpt><trkpt lat="38.353410402583016" lon="16.245041261184074"><ele>176.0</ele><time>2026-05-03T08:22:03.999Z</time></trkpt><trkpt lat="38.35328153425606" lon="16.245281263146214"><ele>176.0</ele><time>2026-05-03T08:22:04.999Z</time></trkpt><trkpt lat="38.35314072652361" lon="16.245524649295806"><ele>172.0</ele><time>2026-05-03T08:22:05.999Z</time></trkpt><trkpt lat="38.35300293079823" lon="16.245767809644757"><ele>168.0</ele><time>2026-05-03T08:22:06.999Z</time></trkpt><trkpt lat="38.352862953629355" lon="16.24601864529326"><ele>168.0</ele><time>2026-05-03T08:22:07.999Z</time></trkpt><trkpt lat="38.352722490572205" lon="16.2462695028905"><ele>168.0</ele><time>2026-05-03T08:22:08.999Z</time></trkpt><trkpt lat="38.35257747237312" lon="16.24651504453119"><ele>169.0</ele><time>2026-05-03T08:22:09.999Z</time></trkpt><trkpt lat="38.35243469703709" lon="16.246769111956517"><ele>170.0</ele><time>2026-05-03T08:22:10.999Z</time></trkpt><trkpt lat="38.35228523901204" lon="16.24701442716323"><ele>167.5</ele><time>2026-05-03T08:22:11.999Z</time></trkpt><trkpt lat="38.35214436813939" lon="16.247267188119736"><ele>165.0</ele><time>2026-05-03T08:22:12.999Z</time></trkpt><trkpt lat="38.35201470988428" lon="16.24752394116975"><ele>164.0</ele><time>2026-05-03T08:22:13.999Z</time></trkpt><trkpt lat="38.35188146187124" lon="16.247782030053457"><ele>163.0</ele><time>2026-05-03T08:22:14.999Z</time></trkpt><trkpt lat="38.351750414599266" lon="16.24804119367163"><ele>163.5</ele><time>2026-05-03T08:22:15.999Z</time></trkpt><trkpt lat="38.351623007718146" lon="16.248307346564676"><ele>164.0</ele><time>2026-05-03T08:22:16.999Z</time></trkpt><trkpt lat="38.35149381330185" lon="16.24857329195087"><ele>164.0</ele><time>2026-05-03T08:22:17.999Z</time></trkpt><trkpt lat="38.351375830401324" lon="16.248853024134153"><ele>164.0</ele><time>2026-05-03T08:22:18.999Z</time></trkpt><trkpt lat="38.35126427204505" lon="16.249134229138303"><ele>162.5</ele><time>2026-05-03T08:22:19.999Z</time></trkpt><trkpt lat="38.35115060740591" lon="16.249415358684143"><ele>161.0</ele><time>2026-05-03T08:22:20.999Z</time></trkpt><trkpt lat="38.351045802426185" lon="16.249734559610832"><ele>161.5</ele><time>2026-05-03T08:22:21.999Z</time></trkpt><trkpt lat="38.350945480154095" lon="16.250045624125576"><ele>162.0</ele><time>2026-05-03T08:22:22.999Z</time></trkpt><trkpt lat="38.35085700112711" lon="16.250357108484188"><ele>167.0</ele><time>2026-05-03T08:22:23.999Z</time></trkpt><trkpt lat="38.350775912241744" lon="16.25067100956827"><ele>172.0</ele><time>2026-05-03T08:22:24.999Z</time></trkpt><trkpt lat="38.35070409578179" lon="16.250981971786327"><ele>172.0</ele><time>2026-05-03T08:22:25.999Z</time></trkpt><trkpt lat="38.35062809590183" lon="16.251298789955825"><ele>172.0</ele><time>2026-05-03T08:22:26.999Z</time></trkpt><trkpt lat="38.35055192096296" lon="16.251608902867186"><ele>163.5</ele><time>2026-05-03T08:22:28Z</time></trkpt><trkpt lat="38.35047468121341" lon="16.25191084201168"><ele>155.0</ele><time>2026-05-03T08:22:29Z</time></trkpt><trkpt lat="38.35038827121636" lon="16.25221882474465"><ele>155.0</ele><time>2026-05-03T08:22:30Z</time></trkpt><trkpt lat="38.35029020191614" lon="16.252519215743238"><ele>155.0</ele><time>2026-05-03T08:22:31Z</time></trkpt><trkpt lat="38.350183894859924" lon="16.252812498201987"><ele>155.0</ele><time>2026-05-03T08:22:32Z</time></trkpt><trkpt lat="38.350077631349485" lon="16.253075424155455"><ele>155.0</ele><time>2026-05-03T08:22:33Z</time></trkpt><trkpt lat="38.3499680029045" lon="16.253332502380292"><ele>157.0</ele><time>2026-05-03T08:22:34Z</time></trkpt><trkpt lat="38.34985096698645" lon="16.25359057286132"><ele>159.0</ele><time>2026-05-03T08:22:35Z</time></trkpt><trkpt lat="38.34973106426116" lon="16.253831195676806"><ele>154.5</ele><time>2026-05-03T08:22:36Z</time></trkpt><trkpt lat="38.34960013350485" lon="16.25408243499935"><ele>150.0</ele><time>2026-05-03T08:22:37Z</time></trkpt><trkpt lat="38.34946290538339" lon="16.254316687069533"><ele>150.0</ele><time>2026-05-03T08:22:38Z</time></trkpt><trkpt lat="38.349318009426625" lon="16.254547970425737"><ele>150.0</ele><time>2026-05-03T08:22:39Z</time></trkpt><trkpt lat="38.3491732319482" lon="16.2547624940351"><ele>150.66666666666666</ele><time>2026-05-03T08:22:40Z</time></trkpt><trkpt lat="38.34903224452195" lon="16.254962490131533"><ele>151.33333333333331</ele><time>2026-05-03T08:22:41Z</time></trkpt><trkpt lat="38.34889118305179" lon="16.255147737973456"><ele>152.0</ele><time>2026-05-03T08:22:42Z</time></trkpt><trkpt lat="38.34875158296134" lon="16.255328031253175"><ele>152.0</ele><time>2026-05-03T08:22:43Z</time></trkpt><trkpt lat="38.348599067857755" lon="16.25550814299099"><ele>152.0</ele><time>2026-05-03T08:22:44Z</time></trkpt><trkpt lat="38.34843768936412" lon="16.25566359735332"><ele>152.0</ele><time>2026-05-03T08:22:45Z</time></trkpt><trkpt lat="38.34826483600174" lon="16.255840917359418"><ele>152.0</ele><time>2026-05-03T08:22:46Z</time></trkpt><trkpt lat="38.348099207204264" lon="16.256017968242986"><ele>152.0</ele><time>2026-05-03T08:22:47Z</time></trkpt><trkpt lat="38.34792870639629" lon="16.25617698386967"><ele>152.0</ele><time>2026-05-03T08:22:48Z</time></trkpt><trkpt lat="38.34774248084971" lon="16.256321563295597"><ele>150.0</ele><time>2026-05-03T08:22:49Z</time></trkpt><trkpt lat="38.347549456684554" lon="16.25646610908677"><ele>148.0</ele><time>2026-05-03T08:22:50Z</time></trkpt><trkpt lat="38.34735934283667" lon="16.25661115423965"><ele>146.0</ele><time>2026-05-03T08:22:51Z</time></trkpt><trkpt lat="38.347170884327696" lon="16.256744163182272"><ele>144.33333333333331</ele><time>2026-05-03T08:22:52Z</time></trkpt><trkpt lat="38.34699840243226" lon="16.256864824551982"><ele>142.66666666666666</ele><time>2026-05-03T08:22:53Z</time></trkpt><trkpt lat="38.34684682067713" lon="16.256989047808535"><ele>141.0</ele><time>2026-05-03T08:22:54Z</time></trkpt><trkpt lat="38.34670281420885" lon="16.257104073916263"><ele>141.0</ele><time>2026-05-03T08:22:55Z</time></trkpt><trkpt lat="38.34657470805681" lon="16.25720641375333"><ele>141.0</ele><time>2026-05-03T08:22:56Z</time></trkpt><trkpt lat="38.34644941697405" lon="16.25732521683093"><ele>141.0</ele><time>2026-05-03T08:22:57Z</time></trkpt><trkpt lat="38.34632697557492" lon="16.257437514378136"><ele>140.75</ele><time>2026-05-03T08:22:58Z</time></trkpt><trkpt lat="38.346216924976474" lon="16.257543966894104"><ele>140.5</ele><time>2026-05-03T08:22:59Z</time></trkpt><trkpt lat="38.346101007329075" lon="16.25765225761543"><ele>140.25</ele><time>2026-05-03T08:23:00Z</time></trkpt><trkpt lat="38.34597342578011" lon="16.25778129227917"><ele>140.0</ele><time>2026-05-03T08:23:01Z</time></trkpt><trkpt lat="38.34584758687253" lon="16.257920104337245"><ele>140.0</ele><time>2026-05-03T08:23:02Z</time></trkpt><trkpt lat="38.345717644631875" lon="16.258069009389807"><ele>140.0</ele><time>2026-05-03T08:23:03Z</time></trkpt><trkpt lat="38.34558526162175" lon="16.258228002093947"><ele>140.0</ele><time>2026-05-03T08:23:04Z</time></trkpt><trkpt lat="38.345456605834286" lon="16.258399837855624"><ele>138.0</ele><time>2026-05-03T08:23:05Z</time></trkpt><trkpt lat="38.34532819193575" lon="16.258577048481865"><ele>136.0</ele><time>2026-05-03T08:23:06Z</time></trkpt><trkpt lat="38.34520442057511" lon="16.258759951745784"><ele>134.0</ele><time>2026-05-03T08:23:07Z</time></trkpt><trkpt lat="38.34508646736443" lon="16.258946184143877"><ele>134.33333333333331</ele><time>2026-05-03T08:23:08Z</time></trkpt><trkpt lat="38.34496153581553" lon="16.259143316140836"><ele>134.66666666666666</ele><time>2026-05-03T08:23:09Z</time></trkpt><trkpt lat="38.344849398383644" lon="16.259355517262794"><ele>135.0</ele><time>2026-05-03T08:23:10Z</time></trkpt><trkpt lat="38.34472393082131" lon="16.25956895485348"><ele>133.66666666666666</ele><time>2026-05-03T08:23:11Z</time></trkpt><trkpt lat="38.344617662609686" lon="16.259795129654897"><ele>132.33333333333331</ele><time>2026-05-03T08:23:12Z</time></trkpt><trkpt lat="38.34451860553947" lon="16.260022950676184"><ele>131.0</ele><time>2026-05-03T08:23:13Z</time></trkpt><trkpt lat="38.34442135402221" lon="16.26026115420419"><ele>131.0</ele><time>2026-05-03T08:23:14Z</time></trkpt><trkpt lat="38.34432740576464" lon="16.260502560695862"><ele>131.0</ele><time>2026-05-03T08:23:15Z</time></trkpt><trkpt lat="38.34424362170241" lon="16.26074618751733"><ele>131.0</ele><time>2026-05-03T08:23:16Z</time></trkpt><trkpt lat="38.34416297398551" lon="16.2610005106667"><ele>131.33333333333331</ele><time>2026-05-03T08:23:17Z</time></trkpt><trkpt lat="38.34409122311934" lon="16.26125541909177"><ele>131.66666666666666</ele><time>2026-05-03T08:23:18Z</time></trkpt><trkpt lat="38.344025167694774" lon="16.26150977025918"><ele>132.0</ele><time>2026-05-03T08:23:19Z</time></trkpt><trkpt lat="38.34396247303449" lon="16.261773615808455"><ele>132.0</ele><time>2026-05-03T08:23:20Z</time></trkpt><trkpt lat="38.34391195564854" lon="16.262047061108444"><ele>132.0</ele><time>2026-05-03T08:23:21Z</time></trkpt><trkpt lat="38.343865998746814" lon="16.26232587787078"><ele>132.0</ele><time>2026-05-03T08:23:22Z</time></trkpt><trkpt lat="38.34382970000366" lon="16.262597574037834"><ele>130.0</ele><time>2026-05-03T08:23:23Z</time></trkpt><trkpt lat="38.34379989711996" lon="16.26286951464597"><ele>128.0</ele><time>2026-05-03T08:23:24Z</time></trkpt><trkpt lat="38.343776512472864" lon="16.263142712834284"><ele>126.0</ele><time>2026-05-03T08:23:25Z</time></trkpt><trkpt lat="38.34376077220244" lon="16.263412453202296"><ele>125.33333333333334</ele><time>2026-05-03T08:23:26Z</time></trkpt><trkpt lat="38.34375214920326" lon="16.263684771643682"><ele>124.66666666666667</ele><time>2026-05-03T08:23:27Z</time></trkpt><trkpt lat="38.343746939205296" lon="16.263951436721612"><ele>124.0</ele><time>2026-05-03T08:23:28Z</time></trkpt><trkpt lat="38.34374613579187" lon="16.264212174149815"><ele>123.33333333333334</ele><time>2026-05-03T08:23:29Z</time></trkpt><trkpt lat="38.343743046112735" lon="16.264469025314042"><ele>122.66666666666666</ele><time>2026-05-03T08:23:30Z</time></trkpt><trkpt lat="38.34374222553183" lon="16.264720978987906"><ele>122.0</ele><time>2026-05-03T08:23:31Z</time></trkpt><trkpt lat="38.34374144318461" lon="16.26497614233227"><ele>121.33333333333333</ele><time>2026-05-03T08:23:32Z</time></trkpt><trkpt lat="38.3437375201523" lon="16.26523045231063"><ele>120.66666666666666</ele><time>2026-05-03T08:23:33Z</time></trkpt><trkpt lat="38.34372541402068" lon="16.265485567596254"><ele>120.0</ele><time>2026-05-03T08:23:34Z</time></trkpt><trkpt lat="38.34370742465392" lon="16.265740304987933"><ele>119.66666666666666</ele><time>2026-05-03T08:23:34.999Z</time></trkpt><trkpt lat="38.34368007191445" lon="16.26599199303448"><ele>119.33333333333333</ele><time>2026-05-03T08:23:35.999Z</time></trkpt><trkpt lat="38.34364798743188" lon="16.266245803722587"><ele>119.0</ele><time>2026-05-03T08:23:36.999Z</time></trkpt><trkpt lat="38.34361494887978" lon="16.266504743943997"><ele>119.0</ele><time>2026-05-03T08:23:37.999Z</time></trkpt><trkpt lat="38.343574334505156" lon="16.266762309599034"><ele>119.0</ele><time>2026-05-03T08:23:38.999Z</time></trkpt><trkpt lat="38.34353223089478" lon="16.26701909639027"><ele>119.0</ele><time>2026-05-03T08:23:39.999Z</time></trkpt><trkpt lat="38.34348110272393" lon="16.267278433327736"><ele>118.66666666666666</ele><time>2026-05-03T08:23:40.999Z</time></trkpt><trkpt lat="38.34342353358294" lon="16.26754096492693"><ele>118.33333333333334</ele><time>2026-05-03T08:23:41.999Z</time></trkpt><trkpt lat="38.343369359572" lon="16.26780469949012"><ele>118.0</ele><time>2026-05-03T08:23:42.999Z</time></trkpt><trkpt lat="38.343310068053384" lon="16.268068723092735"><ele>116.66666666666667</ele><time>2026-05-03T08:23:43.999Z</time></trkpt><trkpt lat="38.343249891678965" lon="16.268339680147445"><ele>115.33333333333334</ele><time>2026-05-03T08:23:44.999Z</time></trkpt><trkpt lat="38.34318657188307" lon="16.26861228122053"><ele>114.0</ele><time>2026-05-03T08:23:45.999Z</time></trkpt><trkpt lat="38.34312128944418" lon="16.26888825715649"><ele>113.5</ele><time>2026-05-03T08:23:46.999Z</time></trkpt><trkpt lat="38.34306085697775" lon="16.26916664581968"><ele>113.0</ele><time>2026-05-03T08:23:47.999Z</time></trkpt><trkpt lat="38.342999263342435" lon="16.269449491119442"><ele>113.0</ele><time>2026-05-03T08:23:48.999Z</time></trkpt><trkpt lat="38.342934562497476" lon="16.269729004264523"><ele>113.0</ele><time>2026-05-03T08:23:49.999Z</time></trkpt><trkpt lat="38.34286924942642" lon="16.270008694085128"><ele>112.5</ele><time>2026-05-03T08:23:50.999Z</time></trkpt><trkpt lat="38.34280503032372" lon="16.27028380547862"><ele>112.0</ele><time>2026-05-03T08:23:51.999Z</time></trkpt><trkpt lat="38.34274134244069" lon="16.270560538967313"><ele>112.0</ele><time>2026-05-03T08:23:52.999Z</time></trkpt><trkpt lat="38.342675348058286" lon="16.27083493707911"><ele>112.0</ele><time>2026-05-03T08:23:53.999Z</time></trkpt><trkpt lat="38.34260985174249" lon="16.271112195083727"><ele>112.0</ele><time>2026-05-03T08:23:54.999Z</time></trkpt><trkpt lat="38.34253897715651" lon="16.27138958029711"><ele>112.0</ele><time>2026-05-03T08:23:55.999Z</time></trkpt><trkpt lat="38.34246710693098" lon="16.27166234304844"><ele>113.33333333333334</ele><time>2026-05-03T08:23:56.999Z</time></trkpt><trkpt lat="38.342389890027036" lon="16.27193109429178"><ele>114.66666666666666</ele><time>2026-05-03T08:23:57.999Z</time></trkpt><trkpt lat="38.342309074439825" lon="16.27219768877553"><ele>116.0</ele><time>2026-05-03T08:23:58.999Z</time></trkpt><trkpt lat="38.342225801929125" lon="16.272461619227464"><ele>114.0</ele><time>2026-05-03T08:23:59.999Z</time></trkpt><trkpt lat="38.34214171592205" lon="16.272723586338326"><ele>112.0</ele><time>2026-05-03T08:24:00.999Z</time></trkpt><trkpt lat="38.34205561532718" lon="16.272986244490134"><ele>110.0</ele><time>2026-05-03T08:24:01.999Z</time></trkpt><trkpt lat="38.341967406870324" lon="16.273249396519955"><ele>110.0</ele><time>2026-05-03T08:24:02.999Z</time></trkpt><trkpt lat="38.34186885485063" lon="16.273510469800264"><ele>110.0</ele><time>2026-05-03T08:24:03.999Z</time></trkpt><trkpt lat="38.341772526053155" lon="16.273776259452355"><ele>110.5</ele><time>2026-05-03T08:24:04.999Z</time></trkpt><trkpt lat="38.34166607121602" lon="16.274038043666543"><ele>111.0</ele><time>2026-05-03T08:24:05.999Z</time></trkpt><trkpt lat="38.34155706006642" lon="16.274299939485893"><ele>111.0</ele><time>2026-05-03T08:24:06.999Z</time></trkpt><trkpt lat="38.34144642614567" lon="16.274561417572283"><ele>111.0</ele><time>2026-05-03T08:24:07.999Z</time></trkpt><trkpt lat="38.341331150977716" lon="16.27481449676567"><ele>109.5</ele><time>2026-05-03T08:24:08.999Z</time></trkpt><trkpt lat="38.34121493725385" lon="16.275062628933767"><ele>108.0</ele><time>2026-05-03T08:24:09.999Z</time></trkpt><trkpt lat="38.34109605667201" lon="16.275307862529512"><ele>108.0</ele><time>2026-05-03T08:24:10.999Z</time></trkpt><trkpt lat="38.34097570598703" lon="16.275559067728384"><ele>108.0</ele><time>2026-05-03T08:24:11.999Z</time></trkpt><trkpt lat="38.34085115516562" lon="16.275808063705917"><ele>109.5</ele><time>2026-05-03T08:24:12.999Z</time></trkpt><trkpt lat="38.34072106650099" lon="16.276055159665358"><ele>111.0</ele><time>2026-05-03T08:24:13.999Z</time></trkpt><trkpt lat="38.340586146348905" lon="16.276298678165855"><ele>108.0</ele><time>2026-05-03T08:24:14.999Z</time></trkpt><trkpt lat="38.34044651620646" lon="16.27653824670582"><ele>105.0</ele><time>2026-05-03T08:24:15.999Z</time></trkpt><trkpt lat="38.34030938079327" lon="16.27677760369686"><ele>105.0</ele><time>2026-05-03T08:24:16.999Z</time></trkpt><trkpt lat="38.340171973285344" lon="16.27701177202305"><ele>105.0</ele><time>2026-05-03T08:24:17.999Z</time></trkpt><trkpt lat="38.34003604844721" lon="16.277241795128283"><ele>106.5</ele><time>2026-05-03T08:24:18.999Z</time></trkpt><trkpt lat="38.33989995446822" lon="16.277472346398184"><ele>108.0</ele><time>2026-05-03T08:24:19.999Z</time></trkpt><trkpt lat="38.33976111841449" lon="16.277703210491868"><ele>107.0</ele><time>2026-05-03T08:24:20.999Z</time></trkpt><trkpt lat="38.3396239517375" lon="16.27793331592364"><ele>106.0</ele><time>2026-05-03T08:24:21.999Z</time></trkpt><trkpt lat="38.33948727135227" lon="16.278155928714103"><ele>105.0</ele><time>2026-05-03T08:24:22.999Z</time></trkpt><trkpt lat="38.339354338958735" lon="16.278380633708508"><ele>105.0</ele><time>2026-05-03T08:24:23.999Z</time></trkpt><trkpt lat="38.33922181856601" lon="16.278606023790797"><ele>105.0</ele><time>2026-05-03T08:24:24.999Z</time></trkpt><trkpt lat="38.33909230889606" lon="16.278830313329962"><ele>105.0</ele><time>2026-05-03T08:24:25.999Z</time></trkpt><trkpt lat="38.33896605354506" lon="16.27905234888695"><ele>102.66666666666666</ele><time>2026-05-03T08:24:26.999Z</time></trkpt><trkpt lat="38.33883753852528" lon="16.279278304825066"><ele>100.33333333333333</ele><time>2026-05-03T08:24:27.999Z</time></trkpt><trkpt lat="38.33871079754721" lon="16.27950835275735"><ele>98.0</ele><time>2026-05-03T08:24:28.999Z</time></trkpt><trkpt lat="38.33858789830373" lon="16.27973898924716"><ele>100.33333333333333</ele><time>2026-05-03T08:24:29.999Z</time></trkpt><trkpt lat="38.338464280138815" lon="16.279968372838862"><ele>102.66666666666666</ele><time>2026-05-03T08:24:30.999Z</time></trkpt><trkpt lat="38.33834312628049" lon="16.28020056749023"><ele>105.0</ele><time>2026-05-03T08:24:31.999Z</time></trkpt><trkpt lat="38.338223103761514" lon="16.280436253826256"><ele>107.0</ele><time>2026-05-03T08:24:32.999Z</time></trkpt><trkpt lat="38.3381055933045" lon="16.280670670515878"><ele>109.0</ele><time>2026-05-03T08:24:34Z</time></trkpt><trkpt lat="38.33799330592451" lon="16.280899700226023"><ele>111.0</ele><time>2026-05-03T08:24:35Z</time></trkpt><trkpt lat="38.33788675345685" lon="16.281123137075877"><ele>108.66666666666666</ele><time>2026-05-03T08:24:36Z</time></trkpt><trkpt lat="38.337784143279364" lon="16.281340510297845"><ele>106.33333333333333</ele><time>2026-05-03T08:24:37Z</time></trkpt><trkpt lat="38.337687358556984" lon="16.281549250411146"><ele>104.0</ele><time>2026-05-03T08:24:38Z</time></trkpt><trkpt lat="38.33759823610686" lon="16.281750703128807"><ele>104.0</ele><time>2026-05-03T08:24:39Z</time></trkpt><trkpt lat="38.337509731988405" lon="16.281953981047465"><ele>104.0</ele><time>2026-05-03T08:24:40Z</time></trkpt><trkpt lat="38.33741926880345" lon="16.28215423980826"><ele>104.0</ele><time>2026-05-03T08:24:41Z</time></trkpt><trkpt lat="38.33733193171348" lon="16.282357576327662"><ele>103.66666666666666</ele><time>2026-05-03T08:24:42Z</time></trkpt><trkpt lat="38.33724517883994" lon="16.282566609441325"><ele>103.33333333333334</ele><time>2026-05-03T08:24:43Z</time></trkpt><trkpt lat="38.33715331533397" lon="16.28277679795319"><ele>103.0</ele><time>2026-05-03T08:24:44Z</time></trkpt><trkpt lat="38.337057442011165" lon="16.282990522842553"><ele>102.0</ele><time>2026-05-03T08:24:45Z</time></trkpt><trkpt lat="38.336962438463914" lon="16.283200972126785"><ele>101.0</ele><time>2026-05-03T08:24:46Z</time></trkpt><trkpt lat="38.33686802156172" lon="16.28341024188388"><ele>100.0</ele><time>2026-05-03T08:24:47Z</time></trkpt><trkpt lat="38.33677402493157" lon="16.28361667237717"><ele>100.0</ele><time>2026-05-03T08:24:48Z</time></trkpt><trkpt lat="38.33668009344402" lon="16.28382807947277"><ele>100.0</ele><time>2026-05-03T08:24:49Z</time></trkpt><trkpt lat="38.33658235586224" lon="16.284034335365558"><ele>100.0</ele><time>2026-05-03T08:24:50Z</time></trkpt><trkpt lat="38.33647897786765" lon="16.284241215727626"><ele>100.0</ele><time>2026-05-03T08:24:51Z</time></trkpt><trkpt lat="38.33637479156452" lon="16.28444490573108"><ele>100.0</ele><time>2026-05-03T08:24:52Z</time></trkpt><trkpt lat="38.33626563510963" lon="16.2846503833634"><ele>100.0</ele><time>2026-05-03T08:24:53Z</time></trkpt><trkpt lat="38.33614892485461" lon="16.284868560134615"><ele>100.0</ele><time>2026-05-03T08:24:54Z</time></trkpt><trkpt lat="38.33603132869368" lon="16.285079644242813"><ele>100.0</ele><time>2026-05-03T08:24:55Z</time></trkpt><trkpt lat="38.335906495302076" lon="16.28528181564672"><ele>100.0</ele><time>2026-05-03T08:24:56Z</time></trkpt><trkpt lat="38.33577645241645" lon="16.28548692341247"><ele>99.33333333333334</ele><time>2026-05-03T08:24:57Z</time></trkpt><trkpt lat="38.33563289599124" lon="16.285690618347516"><ele>98.66666666666666</ele><time>2026-05-03T08:24:58Z</time></trkpt><trkpt lat="38.33548364824425" lon="16.285889862837276"><ele>98.0</ele><time>2026-05-03T08:24:59Z</time></trkpt><trkpt lat="38.33532844924911" lon="16.286096330699817"><ele>98.0</ele><time>2026-05-03T08:25:00Z</time></trkpt><trkpt lat="38.335167004692444" lon="16.28630587022016"><ele>98.0</ele><time>2026-05-03T08:25:01Z</time></trkpt><trkpt lat="38.33499903770693" lon="16.2865280692514"><ele>99.0</ele><time>2026-05-03T08:25:02Z</time></trkpt><trkpt lat="38.33480531894302" lon="16.286727053531386"><ele>100.0</ele><time>2026-05-03T08:25:03Z</time></trkpt><trkpt lat="38.33463384393041" lon="16.28695395385165"><ele>100.0</ele><time>2026-05-03T08:25:04Z</time></trkpt><trkpt lat="38.33446468935773" lon="16.287178197980406"><ele>100.0</ele><time>2026-05-03T08:25:05Z</time></trkpt><trkpt lat="38.33429684341826" lon="16.287400707400447"><ele>114.5</ele><time>2026-05-03T08:25:06Z</time></trkpt><trkpt lat="38.33412232992791" lon="16.287632055786826"><ele>129.0</ele><time>2026-05-03T08:25:07.024Z</time></trkpt><trkpt lat="38.33396069750875" lon="16.287870133124184"><ele>126.0</ele><time>2026-05-03T08:25:08.021Z</time></trkpt><trkpt lat="38.333786747588235" lon="16.28809291811178"><ele>123.0</ele><time>2026-05-03T08:25:09.017Z</time></trkpt><trkpt lat="38.33361100769839" lon="16.288320378622657"><ele>116.5</ele><time>2026-05-03T08:25:10.023Z</time></trkpt><trkpt lat="38.333434225412574" lon="16.2885468172261"><ele>110.0</ele><time>2026-05-03T08:25:11.023Z</time></trkpt><trkpt lat="38.33308664619767" lon="16.28897429445413"><ele>102.0</ele><time>2026-05-03T08:25:13Z</time></trkpt><trkpt lat="38.332885656219574" lon="16.2891737925568"><ele>94.0</ele><time>2026-05-03T08:25:14Z</time></trkpt><trkpt lat="38.332677163769354" lon="16.28936788904614"><ele>94.0</ele><time>2026-05-03T08:25:15Z</time></trkpt><trkpt lat="38.332486271233975" lon="16.289570233291343"><ele>94.0</ele><time>2026-05-03T08:25:16Z</time></trkpt><trkpt lat="38.332278802250364" lon="16.289748200637277"><ele>90.0</ele><time>2026-05-03T08:25:17Z</time></trkpt><trkpt lat="38.33209260218825" lon="16.289911043519393"><ele>86.0</ele><time>2026-05-03T08:25:18Z</time></trkpt><trkpt lat="38.331830125114045" lon="16.290110217581603"><ele>86.0</ele><time>2026-05-03T08:25:19Z</time></trkpt><trkpt lat="38.33160421062083" lon="16.290269820440553"><ele>86.0</ele><time>2026-05-03T08:25:20Z</time></trkpt><trkpt lat="38.3313723700906" lon="16.29041847927816"><ele>84.0</ele><time>2026-05-03T08:25:21Z</time></trkpt><trkpt lat="38.33112568771994" lon="16.290558001623836"><ele>82.0</ele><time>2026-05-03T08:25:22Z</time></trkpt><trkpt lat="38.33088340067929" lon="16.290694262323782"><ele>82.0</ele><time>2026-05-03T08:25:23Z</time></trkpt><trkpt lat="38.33063157494109" lon="16.290790998282432"><ele>82.0</ele><time>2026-05-03T08:25:24Z</time></trkpt><trkpt lat="38.33038232508213" lon="16.290894630815345"><ele>80.0</ele><time>2026-05-03T08:25:25Z</time></trkpt><trkpt lat="38.33012695483107" lon="16.2909933461091"><ele>78.0</ele><time>2026-05-03T08:25:26Z</time></trkpt><trkpt lat="38.32987334657697" lon="16.29108829658802"><ele>76.5</ele><time>2026-05-03T08:25:27Z</time></trkpt><trkpt lat="38.32961961555521" lon="16.2911814838767"><ele>75.0</ele><time>2026-05-03T08:25:28Z</time></trkpt><trkpt lat="38.329371716614666" lon="16.29129295393185"><ele>75.0</ele><time>2026-05-03T08:25:29Z</time></trkpt><trkpt lat="38.32912431657551" lon="16.291386553531556"><ele>75.0</ele><time>2026-05-03T08:25:30Z</time></trkpt><trkpt lat="38.328871403145" lon="16.291464722546863"><ele>76.0</ele><time>2026-05-03T08:25:31Z</time></trkpt><trkpt lat="38.32862485640939" lon="16.291571182532245"><ele>77.0</ele><time>2026-05-03T08:25:32Z</time></trkpt><trkpt lat="38.32838635403811" lon="16.29170654830553"><ele>77.0</ele><time>2026-05-03T08:25:33Z</time></trkpt><trkpt lat="38.32814628853784" lon="16.29183365716956"><ele>77.0</ele><time>2026-05-03T08:25:34Z</time></trkpt><trkpt lat="38.32790800399989" lon="16.291971422780097"><ele>76.0</ele><time>2026-05-03T08:25:35Z</time></trkpt><trkpt lat="38.32767328326125" lon="16.292119983886707"><ele>75.0</ele><time>2026-05-03T08:25:36Z</time></trkpt><trkpt lat="38.32743836744974" lon="16.292279147412316"><ele>75.0</ele><time>2026-05-03T08:25:37Z</time></trkpt><trkpt lat="38.32721157061178" lon="16.29245368572718"><ele>75.0</ele><time>2026-05-03T08:25:38Z</time></trkpt><trkpt lat="38.326989047694674" lon="16.29263680793468"><ele>75.0</ele><time>2026-05-03T08:25:39Z</time></trkpt><trkpt lat="38.32676988847314" lon="16.29283521009955"><ele>75.0</ele><time>2026-05-03T08:25:40Z</time></trkpt><trkpt lat="38.326556162165296" lon="16.29303039128439"><ele>72.5</ele><time>2026-05-03T08:25:40.999Z</time></trkpt><trkpt lat="38.326350967298566" lon="16.293218998959404"><ele>70.0</ele><time>2026-05-03T08:25:41.999Z</time></trkpt><trkpt lat="38.32614576127902" lon="16.293410800670138"><ele>70.0</ele><time>2026-05-03T08:25:42.999Z</time></trkpt><trkpt lat="38.325943215441704" lon="16.293603251978674"><ele>70.0</ele><time>2026-05-03T08:25:43.999Z</time></trkpt><trkpt lat="38.32574320531811" lon="16.29379211535941"><ele>70.5</ele><time>2026-05-03T08:25:44.999Z</time></trkpt><trkpt lat="38.325529897845925" lon="16.29396364999062"><ele>71.0</ele><time>2026-05-03T08:25:45.999Z</time></trkpt><trkpt lat="38.32532658400312" lon="16.29414941693472"><ele>71.0</ele><time>2026-05-03T08:25:46.999Z</time></trkpt><trkpt lat="38.325124049949494" lon="16.29433444568276"><ele>71.0</ele><time>2026-05-03T08:25:47.999Z</time></trkpt><trkpt lat="38.324929464829964" lon="16.29453667768148"><ele>70.0</ele><time>2026-05-03T08:25:48.999Z</time></trkpt><trkpt lat="38.32472671315152" lon="16.29471560179871"><ele>69.0</ele><time>2026-05-03T08:25:49.999Z</time></trkpt><trkpt lat="38.32452538873573" lon="16.2948862460497"><ele>69.0</ele><time>2026-05-03T08:25:50.999Z</time></trkpt><trkpt lat="38.324326402893334" lon="16.29506163800689"><ele>69.0</ele><time>2026-05-03T08:25:51.999Z</time></trkpt><trkpt lat="38.32412687784697" lon="16.29523649760086"><ele>69.0</ele><time>2026-05-03T08:25:52.999Z</time></trkpt><trkpt lat="38.323933760150766" lon="16.295404940545744"><ele>69.0</ele><time>2026-05-03T08:25:53.999Z</time></trkpt><trkpt lat="38.32374530199061" lon="16.295561682789923"><ele>66.5</ele><time>2026-05-03T08:25:54.999Z</time></trkpt><trkpt lat="38.32355465258415" lon="16.29571464722139"><ele>64.0</ele><time>2026-05-03T08:25:55.999Z</time></trkpt><trkpt lat="38.32336109505165" lon="16.295874876628893"><ele>64.0</ele><time>2026-05-03T08:25:56.999Z</time></trkpt><trkpt lat="38.323170682477084" lon="16.29602665674754"><ele>64.0</ele><time>2026-05-03T08:25:57.999Z</time></trkpt><trkpt lat="38.32297752612922" lon="16.29618569792633"><ele>64.0</ele><time>2026-05-03T08:25:58.999Z</time></trkpt><trkpt lat="38.322775742707876" lon="16.296354674572097"><ele>64.0</ele><time>2026-05-03T08:25:59.999Z</time></trkpt><trkpt lat="38.32258056762594" lon="16.29651479985764"><ele>63.5</ele><time>2026-05-03T08:26:00.999Z</time></trkpt><trkpt lat="38.32238680966783" lon="16.29666402625869"><ele>63.0</ele><time>2026-05-03T08:26:01.999Z</time></trkpt><trkpt lat="38.322188555074405" lon="16.296818951153462"><ele>63.0</ele><time>2026-05-03T08:26:02.999Z</time></trkpt><trkpt lat="38.32199055764316" lon="16.29696830251119"><ele>63.0</ele><time>2026-05-03T08:26:03.999Z</time></trkpt><trkpt lat="38.32179062831234" lon="16.297120241965207"><ele>63.0</ele><time>2026-05-03T08:26:04.999Z</time></trkpt><trkpt lat="38.321590070138036" lon="16.297269532486734"><ele>63.0</ele><time>2026-05-03T08:26:05.999Z</time></trkpt><trkpt lat="38.321383431622195" lon="16.297431774348116"><ele>62.5</ele><time>2026-05-03T08:26:06.999Z</time></trkpt><trkpt lat="38.321183986176706" lon="16.29757644822684"><ele>62.0</ele><time>2026-05-03T08:26:07.999Z</time></trkpt><trkpt lat="38.320978794736185" lon="16.297729088817732"><ele>62.0</ele><time>2026-05-03T08:26:08.999Z</time></trkpt><trkpt lat="38.32076934758823" lon="16.29788409501725"><ele>62.0</ele><time>2026-05-03T08:26:09.999Z</time></trkpt><trkpt lat="38.32055480502829" lon="16.29804003020285"><ele>61.5</ele><time>2026-05-03T08:26:10.999Z</time></trkpt><trkpt lat="38.32033880934916" lon="16.298198773173425"><ele>61.0</ele><time>2026-05-03T08:26:11.999Z</time></trkpt><trkpt lat="38.320123668621356" lon="16.298360614009606"><ele>61.0</ele><time>2026-05-03T08:26:12.999Z</time></trkpt><trkpt lat="38.31990516532547" lon="16.298515133526003"><ele>61.0</ele><time>2026-05-03T08:26:13.999Z</time></trkpt><trkpt lat="38.31968282342326" lon="16.29867278794571"><ele>59.5</ele><time>2026-05-03T08:26:14.999Z</time></trkpt><trkpt lat="38.319458913549255" lon="16.298827006097124"><ele>58.0</ele><time>2026-05-03T08:26:15.999Z</time></trkpt><trkpt lat="38.31923273105396" lon="16.298975582683415"><ele>58.0</ele><time>2026-05-03T08:26:16.999Z</time></trkpt><trkpt lat="38.319009156109196" lon="16.29913162669563"><ele>58.0</ele><time>2026-05-03T08:26:17.999Z</time></trkpt><trkpt lat="38.31878671756331" lon="16.29928624783526"><ele>58.0</ele><time>2026-05-03T08:26:18.999Z</time></trkpt><trkpt lat="38.31855963742736" lon="16.299444479726834"><ele>58.0</ele><time>2026-05-03T08:26:19.999Z</time></trkpt><trkpt lat="38.31833750492116" lon="16.299592335259632"><ele>58.0</ele><time>2026-05-03T08:26:20.999Z</time></trkpt><trkpt lat="38.318109526687664" lon="16.299738023460936"><ele>58.0</ele><time>2026-05-03T08:26:21.999Z</time></trkpt><trkpt lat="38.31787804318714" lon="16.299880426830814"><ele>55.5</ele><time>2026-05-03T08:26:22.999Z</time></trkpt><trkpt lat="38.31764885597068" lon="16.3000225087877"><ele>53.0</ele><time>2026-05-03T08:26:23.999Z</time></trkpt><trkpt lat="38.31741872715518" lon="16.300170475862657"><ele>52.5</ele><time>2026-05-03T08:26:24.999Z</time></trkpt><trkpt lat="38.31719178940082" lon="16.300320504092983"><ele>52.0</ele><time>2026-05-03T08:26:25.999Z</time></trkpt><trkpt lat="38.316960045022284" lon="16.30047413557449"><ele>52.0</ele><time>2026-05-03T08:26:26.999Z</time></trkpt><trkpt lat="38.316730667941776" lon="16.30061862369492"><ele>52.0</ele><time>2026-05-03T08:26:27.999Z</time></trkpt><trkpt lat="38.316503385480324" lon="16.30076344883346"><ele>51.5</ele><time>2026-05-03T08:26:28.999Z</time></trkpt><trkpt lat="38.31627381444831" lon="16.300905873684147"><ele>51.0</ele><time>2026-05-03T08:26:29.999Z</time></trkpt><trkpt lat="38.31604011745247" lon="16.301049162755703"><ele>51.0</ele><time>2026-05-03T08:26:30.999Z</time></trkpt><trkpt lat="38.315810175269874" lon="16.301184328698312"><ele>51.0</ele><time>2026-05-03T08:26:31.999Z</time></trkpt><trkpt lat="38.315576913318296" lon="16.30132865045558"><ele>50.0</ele><time>2026-05-03T08:26:32.999Z</time></trkpt><trkpt lat="38.31535160460301" lon="16.301465270887476"><ele>49.0</ele><time>2026-05-03T08:26:33.999Z</time></trkpt><trkpt lat="38.31512686513492" lon="16.301597533271313"><ele>49.0</ele><time>2026-05-03T08:26:34.999Z</time></trkpt><trkpt lat="38.31490644613457" lon="16.30173319897716"><ele>49.0</ele><time>2026-05-03T08:26:35.999Z</time></trkpt><trkpt lat="38.31469990976008" lon="16.301866399069368"><ele>48.0</ele><time>2026-05-03T08:26:36.999Z</time></trkpt><trkpt lat="38.314488021312165" lon="16.301986942866236"><ele>47.0</ele><time>2026-05-03T08:26:37.999Z</time></trkpt><trkpt lat="38.3142856438022" lon="16.30210626464942"><ele>47.0</ele><time>2026-05-03T08:26:38.999Z</time></trkpt><trkpt lat="38.31408495508063" lon="16.30221077635285"><ele>47.0</ele><time>2026-05-03T08:26:40Z</time></trkpt><trkpt lat="38.313886397188504" lon="16.302326690694613"><ele>47.0</ele><time>2026-05-03T08:26:41Z</time></trkpt><trkpt lat="38.31368788972375" lon="16.302433621851016"><ele>47.0</ele><time>2026-05-03T08:26:42Z</time></trkpt><trkpt lat="38.3135032283541" lon="16.302534919658658"><ele>47.0</ele><time>2026-05-03T08:26:43Z</time></trkpt><trkpt lat="38.31333533870859" lon="16.30262899376423"><ele>47.0</ele><time>2026-05-03T08:26:44Z</time></trkpt><trkpt lat="38.31317840347081" lon="16.30271292147759"><ele>46.75</ele><time>2026-05-03T08:26:45Z</time></trkpt><trkpt lat="38.31303615827478" lon="16.302790891324904"><ele>46.5</ele><time>2026-05-03T08:26:46Z</time></trkpt><trkpt lat="38.31290623520451" lon="16.302852939158473"><ele>46.25</ele><time>2026-05-03T08:26:47Z</time></trkpt><trkpt lat="38.31279444546328" lon="16.302909315799752"><ele>46.0</ele><time>2026-05-03T08:26:48Z</time></trkpt><trkpt lat="38.312687134563284" lon="16.302967783620865"><ele>46.0</ele><time>2026-05-03T08:26:49Z</time></trkpt><trkpt lat="38.312585628090986" lon="16.303019645691975"><ele>46.0</ele><time>2026-05-03T08:26:50Z</time></trkpt><trkpt lat="38.312483615195426" lon="16.30307052230333"><ele>46.0</ele><time>2026-05-03T08:26:51Z</time></trkpt><trkpt lat="38.31237381281347" lon="16.303117252820535"><ele>46.0</ele><time>2026-05-03T08:26:52Z</time></trkpt><trkpt lat="38.312260172843835" lon="16.30316687408178"><ele>46.5</ele><time>2026-05-03T08:26:53Z</time></trkpt><trkpt lat="38.31214096693819" lon="16.30319068415259"><ele>47.0</ele><time>2026-05-03T08:26:54Z</time></trkpt><trkpt lat="38.31202070094821" lon="16.303184394175975"><ele>47.5</ele><time>2026-05-03T08:26:55Z</time></trkpt><trkpt lat="38.31189871733623" lon="16.303149626022226"><ele>48.0</ele><time>2026-05-03T08:26:56Z</time></trkpt><trkpt lat="38.31178743732839" lon="16.303085143605426"><ele>47.0</ele><time>2026-05-03T08:26:57Z</time></trkpt><trkpt lat="38.311678677505874" lon="16.303004357040297"><ele>46.0</ele><time>2026-05-03T08:26:58Z</time></trkpt><trkpt lat="38.31156877011235" lon="16.302905158806194"><ele>45.0</ele><time>2026-05-03T08:26:59Z</time></trkpt><trkpt lat="38.311447162329934" lon="16.30284956508698"><ele>44.0</ele><time>2026-05-03T08:27:00Z</time></trkpt><trkpt lat="38.3113521735327" lon="16.302740495597888"><ele>43.75</ele><time>2026-05-03T08:27:01Z</time></trkpt><trkpt lat="38.311229688235834" lon="16.302695009662617"><ele>43.5</ele><time>2026-05-03T08:27:02Z</time></trkpt><trkpt lat="38.311100630702875" lon="16.302686340131164"><ele>43.25</ele><time>2026-05-03T08:27:03Z</time></trkpt><trkpt lat="38.310979213773045" lon="16.30272296487741"><ele>43.0</ele><time>2026-05-03T08:27:04Z</time></trkpt><trkpt lat="38.31088222459426" lon="16.302822216186104"><ele>43.0</ele><time>2026-05-03T08:27:05Z</time></trkpt><trkpt lat="38.310808703107476" lon="16.302964649484252"><ele>43.0</ele><time>2026-05-03T08:27:06Z</time></trkpt><trkpt lat="38.310765017291956" lon="16.303111498648573"><ele>43.0</ele><time>2026-05-03T08:27:07Z</time></trkpt><trkpt lat="38.310772166405975" lon="16.303300955827332"><ele>43.0</ele><time>2026-05-03T08:27:08Z</time></trkpt><trkpt lat="38.310836089470854" lon="16.303519305714687"><ele>43.25</ele><time>2026-05-03T08:27:09Z</time></trkpt><trkpt lat="38.31090985918229" lon="16.30371587791368"><ele>43.5</ele><time>2026-05-03T08:27:10Z</time></trkpt><trkpt lat="38.31096775154104" lon="16.303894033586506"><ele>43.75</ele><time>2026-05-03T08:27:11Z</time></trkpt><trkpt lat="38.31102599658789" lon="16.304032912792717"><ele>44.0</ele><time>2026-05-03T08:27:12Z</time></trkpt><trkpt lat="38.31107303212232" lon="16.304179577791235"><ele>44.0</ele><time>2026-05-03T08:27:13Z</time></trkpt><trkpt lat="38.311085609782424" lon="16.304326534326"><ele>44.0</ele><time>2026-05-03T08:27:14Z</time></trkpt><trkpt lat="38.311088239503476" lon="16.304452574887247"><ele>44.0</ele><time>2026-05-03T08:27:15Z</time></trkpt><trkpt lat="38.31107823360375" lon="16.30457304209341"><ele>44.0</ele><time>2026-05-03T08:27:16Z</time></trkpt><trkpt lat="38.311038740304475" lon="16.30469641952282"><ele>44.0</ele><time>2026-05-03T08:27:17Z</time></trkpt><trkpt lat="38.310962528529174" lon="16.3048045253332"><ele>43.400000000000006</ele><time>2026-05-03T08:27:18Z</time></trkpt><trkpt lat="38.31089226870143" lon="16.304912953818704"><ele>42.8</ele><time>2026-05-03T08:27:19Z</time></trkpt><trkpt lat="38.31080228003749" lon="16.304988577313758"><ele>42.2</ele><time>2026-05-03T08:27:20Z</time></trkpt><trkpt lat="38.31069515638258" lon="16.305035339572175"><ele>41.599999999999994</ele><time>2026-05-03T08:27:21Z</time></trkpt><trkpt lat="38.3105872388508" lon="16.305057951259144"><ele>41.0</ele><time>2026-05-03T08:27:22Z</time></trkpt><trkpt lat="38.310493170504756" lon="16.305035115165428"><ele>41.0</ele><time>2026-05-03T08:27:23Z</time></trkpt><trkpt lat="38.31040114886574" lon="16.305008955359423"><ele>41.0</ele><time>2026-05-03T08:27:24Z</time></trkpt><trkpt lat="38.31031607431367" lon="16.304991308646347"><ele>41.0</ele><time>2026-05-03T08:27:25Z</time></trkpt><trkpt lat="38.310229009946625" lon="16.30503122674937"><ele>41.0</ele><time>2026-05-03T08:27:26Z</time></trkpt><trkpt lat="38.310152281641415" lon="16.30489268850455"><ele>41.0</ele><time>2026-05-03T08:27:27Z</time></trkpt><trkpt lat="38.31007639626632" lon="16.304823790763976"><ele>41.0</ele><time>2026-05-03T08:27:28Z</time></trkpt><trkpt lat="38.30999896614112" lon="16.30477710680162"><ele>41.0</ele><time>2026-05-03T08:27:29Z</time></trkpt><trkpt lat="38.30991144564021" lon="16.304777890645404"><ele>41.0</ele><time>2026-05-03T08:27:30Z</time></trkpt><trkpt lat="38.309820831943554" lon="16.304789272346614"><ele>41.0</ele><time>2026-05-03T08:27:31Z</time></trkpt><trkpt lat="38.30972640613522" lon="16.304817231037607"><ele>41.0</ele><time>2026-05-03T08:27:32Z</time></trkpt><trkpt lat="38.30963349908036" lon="16.304853118633392"><ele>41.0</ele><time>2026-05-03T08:27:33Z</time></trkpt><trkpt lat="38.309538239426765" lon="16.304905274838276"><ele>41.0</ele><time>2026-05-03T08:27:34Z</time></trkpt><trkpt lat="38.30944078670589" lon="16.30495791408443"><ele>41.0</ele><time>2026-05-03T08:27:35Z</time></trkpt><trkpt lat="38.30933735463558" lon="16.30500735892537"><ele>41.0</ele><time>2026-05-03T08:27:36Z</time></trkpt><trkpt lat="38.309236906518606" lon="16.305051412157347"><ele>41.0</ele><time>2026-05-03T08:27:37Z</time></trkpt><trkpt lat="38.309136948760475" lon="16.305094523289917"><ele>41.0</ele><time>2026-05-03T08:27:38Z</time></trkpt><trkpt lat="38.30903718044131" lon="16.305144507018504"><ele>41.0</ele><time>2026-05-03T08:27:39Z</time></trkpt><trkpt lat="38.308939169800496" lon="16.3051705195512"><ele>41.0</ele><time>2026-05-03T08:27:40Z</time></trkpt><trkpt lat="38.30879604246032" lon="16.305254302764997"><ele>41.0</ele><time>2026-05-03T08:27:41Z</time></trkpt><trkpt lat="38.30868541228048" lon="16.3053145622048"><ele>40.5</ele><time>2026-05-03T08:27:42Z</time></trkpt><trkpt lat="38.30859111372964" lon="16.305422147161735"><ele>40.0</ele><time>2026-05-03T08:27:43Z</time></trkpt><trkpt lat="38.30853538907184" lon="16.305563604286803"><ele>39.5</ele><time>2026-05-03T08:27:44Z</time></trkpt><trkpt lat="38.30851117133071" lon="16.30571695275594"><ele>39.0</ele><time>2026-05-03T08:27:45Z</time></trkpt><trkpt lat="38.308519781141605" lon="16.305892905576194"><ele>38.6</ele><time>2026-05-03T08:27:46Z</time></trkpt><trkpt lat="38.308559753357265" lon="16.306039911059436"><ele>38.2</ele><time>2026-05-03T08:27:47Z</time></trkpt><trkpt lat="38.30863400900247" lon="16.306164656903622"><ele>37.800000000000004</ele><time>2026-05-03T08:27:48Z</time></trkpt><trkpt lat="38.30872473127109" lon="16.306257555906736"><ele>37.4</ele><time>2026-05-03T08:27:49Z</time></trkpt><trkpt lat="38.30879530677901" lon="16.306312224068495"><ele>37.0</ele><time>2026-05-03T08:27:49.999Z</time></trkpt><trkpt lat="38.30888825478003" lon="16.30632716294487"><ele>37.2</ele><time>2026-05-03T08:27:50.999Z</time></trkpt><trkpt lat="38.30898960824251" lon="16.306337861457056"><ele>37.400000000000006</ele><time>2026-05-03T08:27:51.999Z</time></trkpt><trkpt lat="38.309082114648064" lon="16.30628582831944"><ele>37.599999999999994</ele><time>2026-05-03T08:27:52.999Z</time></trkpt><trkpt lat="38.30917924666845" lon="16.306253411354398"><ele>37.8</ele><time>2026-05-03T08:27:53.999Z</time></trkpt><trkpt lat="38.309273914612966" lon="16.306235963175155"><ele>38.0</ele><time>2026-05-03T08:27:54.999Z</time></trkpt><trkpt lat="38.309365598396106" lon="16.306183740996733"><ele>38.0</ele><time>2026-05-03T08:27:55.999Z</time></trkpt><trkpt lat="38.309463153302204" lon="16.306173621530537"><ele>38.0</ele><time>2026-05-03T08:27:56.999Z</time></trkpt><trkpt lat="38.30956072913959" lon="16.306193541781266"><ele>38.0</ele><time>2026-05-03T08:27:57.999Z</time></trkpt><trkpt lat="38.30965426300593" lon="16.306247061731508"><ele>38.0</ele><time>2026-05-03T08:27:58.999Z</time></trkpt><trkpt lat="38.30975426098057" lon="16.306338359092816"><ele>38.0</ele><time>2026-05-03T08:27:59.999Z</time></trkpt><trkpt lat="38.309852113250265" lon="16.306425788111653"><ele>37.5</ele><time>2026-05-03T08:28:00.999Z</time></trkpt><trkpt lat="38.30993011012231" lon="16.306589015342688"><ele>37.0</ele><time>2026-05-03T08:28:01.999Z</time></trkpt><trkpt lat="38.31000533486241" lon="16.30671985480736"><ele>36.5</ele><time>2026-05-03T08:28:02.999Z</time></trkpt><trkpt lat="38.31007568723614" lon="16.30685448137239"><ele>36.0</ele><time>2026-05-03T08:28:03.999Z</time></trkpt><trkpt lat="38.31015630732168" lon="16.30699589260636"><ele>36.0</ele><time>2026-05-03T08:28:04.999Z</time></trkpt><trkpt lat="38.31023735036631" lon="16.307143638155207"><ele>36.0</ele><time>2026-05-03T08:28:05.999Z</time></trkpt><trkpt lat="38.31032765064658" lon="16.307296344080136"><ele>36.0</ele><time>2026-05-03T08:28:06.999Z</time></trkpt><trkpt lat="38.31041266278091" lon="16.30745024818257"><ele>36.0</ele><time>2026-05-03T08:28:07.999Z</time></trkpt><trkpt lat="38.310498599513295" lon="16.30759861574939"><ele>36.25</ele><time>2026-05-03T08:28:08.999Z</time></trkpt><trkpt lat="38.31057613546728" lon="16.307734958454365"><ele>36.5</ele><time>2026-05-03T08:28:09.999Z</time></trkpt><trkpt lat="38.31066633228138" lon="16.307881113890385"><ele>36.75</ele><time>2026-05-03T08:28:10.999Z</time></trkpt><trkpt lat="38.310751636694484" lon="16.30803212577734"><ele>37.0</ele><time>2026-05-03T08:28:11.999Z</time></trkpt><trkpt lat="38.31084360530924" lon="16.308189047198272"><ele>37.0</ele><time>2026-05-03T08:28:12.999Z</time></trkpt><trkpt lat="38.310928181432324" lon="16.308343853191584"><ele>37.0</ele><time>2026-05-03T08:28:13.999Z</time></trkpt><trkpt lat="38.3110215724636" lon="16.308503181568973"><ele>37.0</ele><time>2026-05-03T08:28:14.999Z</time></trkpt><trkpt lat="38.3111058938199" lon="16.308650634537976"><ele>37.0</ele><time>2026-05-03T08:28:15.999Z</time></trkpt><trkpt lat="38.31119960275719" lon="16.308806146718677"><ele>36.66666666666667</ele><time>2026-05-03T08:28:16.999Z</time></trkpt><trkpt lat="38.311292552504014" lon="16.308966102539404"><ele>36.333333333333336</ele><time>2026-05-03T08:28:17.999Z</time></trkpt><trkpt lat="38.31138535046908" lon="16.30912775499268"><ele>36.0</ele><time>2026-05-03T08:28:18.999Z</time></trkpt><trkpt lat="38.31147633463299" lon="16.30929092186668"><ele>36.666666666666664</ele><time>2026-05-03T08:28:19.999Z</time></trkpt><trkpt lat="38.31157520648233" lon="16.30945782193107"><ele>37.33333333333333</ele><time>2026-05-03T08:28:20.999Z</time></trkpt><trkpt lat="38.31167127307041" lon="16.309616377825787"><ele>38.0</ele><time>2026-05-03T08:28:21.999Z</time></trkpt><trkpt lat="38.31177241999179" lon="16.309777678267952"><ele>38.0</ele><time>2026-05-03T08:28:22.999Z</time></trkpt><trkpt lat="38.31187066320872" lon="16.309948441855962"><ele>38.0</ele><time>2026-05-03T08:28:23.999Z</time></trkpt><trkpt lat="38.31198061455295" lon="16.310128864576594"><ele>38.0</ele><time>2026-05-03T08:28:24.999Z</time></trkpt><trkpt lat="38.312103971488774" lon="16.310314824724784"><ele>38.0</ele><time>2026-05-03T08:28:25.999Z</time></trkpt><trkpt lat="38.31221126110679" lon="16.31050577833488"><ele>38.0</ele><time>2026-05-03T08:28:26.999Z</time></trkpt><trkpt lat="38.312325477940306" lon="16.31069828387427"><ele>38.0</ele><time>2026-05-03T08:28:27.999Z</time></trkpt><trkpt lat="38.312427984326646" lon="16.31089694226933"><ele>38.0</ele><time>2026-05-03T08:28:28.999Z</time></trkpt><trkpt lat="38.31254318970837" lon="16.31108233541793"><ele>38.0</ele><time>2026-05-03T08:28:29.999Z</time></trkpt><trkpt lat="38.31266325803242" lon="16.311276545994872"><ele>38.0</ele><time>2026-05-03T08:28:30.999Z</time></trkpt><trkpt lat="38.3127778819545" lon="16.311465982014496"><ele>38.0</ele><time>2026-05-03T08:28:31.999Z</time></trkpt><trkpt lat="38.312898442247615" lon="16.311651880464733"><ele>38.0</ele><time>2026-05-03T08:28:32.999Z</time></trkpt><trkpt lat="38.313011241751695" lon="16.311841435866903"><ele>38.0</ele><time>2026-05-03T08:28:33.999Z</time></trkpt><trkpt lat="38.3131219069533" lon="16.312031291238277"><ele>38.0</ele><time>2026-05-03T08:28:34.999Z</time></trkpt><trkpt lat="38.31324104621212" lon="16.312227456355004"><ele>38.0</ele><time>2026-05-03T08:28:35.999Z</time></trkpt><trkpt lat="38.31335460573382" lon="16.312425625813322"><ele>38.0</ele><time>2026-05-03T08:28:36.999Z</time></trkpt><trkpt lat="38.313467820959" lon="16.31262572632095"><ele>38.0</ele><time>2026-05-03T08:28:37.999Z</time></trkpt><trkpt lat="38.3135817420722" lon="16.31283077901759"><ele>38.0</ele><time>2026-05-03T08:28:38.999Z</time></trkpt><trkpt lat="38.31368287958974" lon="16.313043611516296"><ele>38.0</ele><time>2026-05-03T08:28:39.999Z</time></trkpt><trkpt lat="38.31378689499428" lon="16.313258637053064"><ele>38.0</ele><time>2026-05-03T08:28:40.999Z</time></trkpt><trkpt lat="38.313889719994776" lon="16.313477188238796"><ele>38.0</ele><time>2026-05-03T08:28:41.999Z</time></trkpt><trkpt lat="38.313984991533665" lon="16.313706225110746"><ele>38.0</ele><time>2026-05-03T08:28:42.999Z</time></trkpt><trkpt lat="38.31407646087273" lon="16.31393757382382"><ele>40.33333333333333</ele><time>2026-05-03T08:28:43.999Z</time></trkpt><trkpt lat="38.3141606771576" lon="16.314173954183115"><ele>42.666666666666664</ele><time>2026-05-03T08:28:44.999Z</time></trkpt><trkpt lat="38.3142445855992" lon="16.31441630641683"><ele>45.0</ele><time>2026-05-03T08:28:46Z</time></trkpt><trkpt lat="38.31431332554594" lon="16.31466431400028"><ele>49.0</ele><time>2026-05-03T08:28:47Z</time></trkpt><trkpt lat="38.31437385606245" lon="16.314916283909778"><ele>53.0</ele><time>2026-05-03T08:28:48Z</time></trkpt><trkpt lat="38.31442847642893" lon="16.31517603634606"><ele>57.0</ele><time>2026-05-03T08:28:49Z</time></trkpt><trkpt lat="38.31448060729336" lon="16.315440293111507"><ele>63.0</ele><time>2026-05-03T08:28:50Z</time></trkpt><trkpt lat="38.31452403208133" lon="16.315713096126363"><ele>69.0</ele><time>2026-05-03T08:28:51Z</time></trkpt><trkpt lat="38.314556486940255" lon="16.315990898656434"><ele>75.0</ele><time>2026-05-03T08:28:52.02Z</time></trkpt><trkpt lat="38.31458258851411" lon="16.316272720744408"><ele>76.5</ele><time>2026-05-03T08:28:53.013Z</time></trkpt><trkpt lat="38.31460498344399" lon="16.31656158294726"><ele>78.0</ele><time>2026-05-03T08:28:54.014Z</time></trkpt><trkpt lat="38.31461838369936" lon="16.316860751780062"><ele>78.0</ele><time>2026-05-03T08:28:55.023Z</time></trkpt><trkpt lat="38.31462822450011" lon="16.317154506717923"><ele>78.0</ele><time>2026-05-03T08:28:56.015Z</time></trkpt><trkpt lat="38.3142554015278" lon="16.32054867224425"><ele>63.5</ele><time>2026-05-03T08:29:07Z</time></trkpt><trkpt lat="38.3142103543277" lon="16.32086658566026"><ele>49.0</ele><time>2026-05-03T08:29:08Z</time></trkpt><trkpt lat="38.31414547255075" lon="16.321167594940185"><ele>48.0</ele><time>2026-05-03T08:29:09Z</time></trkpt><trkpt lat="38.31410438723744" lon="16.321495774176636"><ele>47.0</ele><time>2026-05-03T08:29:10Z</time></trkpt><trkpt lat="38.31405763402363" lon="16.321820451741463"><ele>47.0</ele><time>2026-05-03T08:29:11Z</time></trkpt><trkpt lat="38.3140132855981" lon="16.322146349633435"><ele>47.0</ele><time>2026-05-03T08:29:12Z</time></trkpt><trkpt lat="38.31396960726281" lon="16.322474474373124"><ele>49.5</ele><time>2026-05-03T08:29:13Z</time></trkpt><trkpt lat="38.31391985023291" lon="16.322801149491884"><ele>52.0</ele><time>2026-05-03T08:29:14Z</time></trkpt><trkpt lat="38.31387609044458" lon="16.32312747674211"><ele>55.0</ele><time>2026-05-03T08:29:15Z</time></trkpt><trkpt lat="38.31382961711968" lon="16.32345640918976"><ele>58.0</ele><time>2026-05-03T08:29:16Z</time></trkpt><trkpt lat="38.31378225135193" lon="16.32378813525952"><ele>60.0</ele><time>2026-05-03T08:29:17Z</time></trkpt><trkpt lat="38.31372937572492" lon="16.324129718042695"><ele>62.0</ele><time>2026-05-03T08:29:18.024Z</time></trkpt><trkpt lat="38.31367893328696" lon="16.32446345730381"><ele>55.5</ele><time>2026-05-03T08:29:19.021Z</time></trkpt><trkpt lat="38.31363059525612" lon="16.324801726452858"><ele>49.0</ele><time>2026-05-03T08:29:20.021Z</time></trkpt><trkpt lat="38.31358558035547" lon="16.325132425926043"><ele>49.0</ele><time>2026-05-03T08:29:21Z</time></trkpt><trkpt lat="38.31353480096249" lon="16.3254778102971"><ele>49.0</ele><time>2026-05-03T08:29:22Z</time></trkpt><trkpt lat="38.31348309110787" lon="16.325809909497952"><ele>50.0</ele><time>2026-05-03T08:29:23Z</time></trkpt><trkpt lat="38.31343996046615" lon="16.326114641494208"><ele>51.0</ele><time>2026-05-03T08:29:24Z</time></trkpt><trkpt lat="38.31339664598529" lon="16.32643014399599"><ele>56.5</ele><time>2026-05-03T08:29:25Z</time></trkpt><trkpt lat="38.31335009856655" lon="16.3267495405975"><ele>62.0</ele><time>2026-05-03T08:29:26Z</time></trkpt><trkpt lat="38.313302697189535" lon="16.327081916460138"><ele>67.5</ele><time>2026-05-03T08:29:27.016Z</time></trkpt><trkpt lat="38.313257084388724" lon="16.327405081511127"><ele>73.0</ele><time>2026-05-03T08:29:28.021Z</time></trkpt><trkpt lat="38.31321365775599" lon="16.327722179532472"><ele>73.0</ele><time>2026-05-03T08:29:29.019Z</time></trkpt><trkpt lat="38.31317059496233" lon="16.328044368932712"><ele>73.0</ele><time>2026-05-03T08:29:30.018Z</time></trkpt><trkpt lat="38.31312785428667" lon="16.328369907120123"><ele>70.0</ele><time>2026-05-03T08:29:31.022Z</time></trkpt><trkpt lat="38.313085142645505" lon="16.328695369393905"><ele>67.0</ele><time>2026-05-03T08:29:32.021Z</time></trkpt><trkpt lat="38.313038495880804" lon="16.329025811782596"><ele>33.0</ele><time>2026-05-03T08:29:33.022Z</time></trkpt><trkpt lat="38.312671599014024" lon="16.331618651762913"><ele>33.0</ele><time>2026-05-03T08:29:41Z</time></trkpt><trkpt lat="38.31263044605305" lon="16.331931033446125"><ele>33.0</ele><time>2026-05-03T08:29:42Z</time></trkpt><trkpt lat="38.31257504386642" lon="16.332198227816207"><ele>31.5</ele><time>2026-05-03T08:29:43Z</time></trkpt><trkpt lat="38.312548351194174" lon="16.33251620485971"><ele>30.0</ele><time>2026-05-03T08:29:44Z</time></trkpt><trkpt lat="38.312495478419" lon="16.33284500342915"><ele>28.5</ele><time>2026-05-03T08:29:45Z</time></trkpt><trkpt lat="38.312533582673716" lon="16.333197338142018"><ele>27.0</ele><time>2026-05-03T08:29:46Z</time></trkpt><trkpt lat="38.31250467094361" lon="16.333510115178985"><ele>27.0</ele><time>2026-05-03T08:29:46.999Z</time></trkpt><trkpt lat="38.31250924291379" lon="16.333864326903623"><ele>27.0</ele><time>2026-05-03T08:29:47.999Z</time></trkpt><trkpt lat="38.31249515342685" lon="16.334176416330276"><ele>26.5</ele><time>2026-05-03T08:29:48.999Z</time></trkpt><trkpt lat="38.31248030615443" lon="16.334508391271587"><ele>26.0</ele><time>2026-05-03T08:29:49.999Z</time></trkpt><trkpt lat="38.31246436192675" lon="16.33482243300454"><ele>25.5</ele><time>2026-05-03T08:29:50.999Z</time></trkpt><trkpt lat="38.31245121867413" lon="16.335146010595007"><ele>25.0</ele><time>2026-05-03T08:29:51.999Z</time></trkpt><trkpt lat="38.31243967769204" lon="16.335463599716352"><ele>23.5</ele><time>2026-05-03T08:29:52.999Z</time></trkpt><trkpt lat="38.31242271696558" lon="16.33579820458537"><ele>22.0</ele><time>2026-05-03T08:29:53.999Z</time></trkpt><trkpt lat="38.31241371226601" lon="16.336133613881405"><ele>22.0</ele><time>2026-05-03T08:29:54.999Z</time></trkpt><trkpt lat="38.31239905087051" lon="16.33645505634525"><ele>22.0</ele><time>2026-05-03T08:29:55.999Z</time></trkpt><trkpt lat="38.312385286321714" lon="16.33678047123629"><ele>22.0</ele><time>2026-05-03T08:29:56.999Z</time></trkpt><trkpt lat="38.31237049661477" lon="16.337098121295814"><ele>22.0</ele><time>2026-05-03T08:29:57.999Z</time></trkpt><trkpt lat="38.312356539515164" lon="16.337430690528024"><ele>22.0</ele><time>2026-05-03T08:29:58.999Z</time></trkpt><trkpt lat="38.3123406408462" lon="16.33775979624628"><ele>22.0</ele><time>2026-05-03T08:29:59.999Z</time></trkpt><trkpt lat="38.312323231262994" lon="16.338099232097328"><ele>22.0</ele><time>2026-05-03T08:30:00.999Z</time></trkpt><trkpt lat="38.31230596310511" lon="16.33842723152821"><ele>22.0</ele><time>2026-05-03T08:30:01.999Z</time></trkpt><trkpt lat="38.312289519956124" lon="16.338769086419656"><ele>22.0</ele><time>2026-05-03T08:30:02.999Z</time></trkpt><trkpt lat="38.31227570020075" lon="16.339117499858077"><ele>22.0</ele><time>2026-05-03T08:30:03.999Z</time></trkpt><trkpt lat="38.31226165833351" lon="16.33946866989631"><ele>21.0</ele><time>2026-05-03T08:30:04.999Z</time></trkpt><trkpt lat="38.312245944139775" lon="16.339813088191942"><ele>20.0</ele><time>2026-05-03T08:30:05.999Z</time></trkpt><trkpt lat="38.312225963344105" lon="16.34015095054447"><ele>20.0</ele><time>2026-05-03T08:30:06.999Z</time></trkpt><trkpt lat="38.31220112232831" lon="16.340500196959024"><ele>20.0</ele><time>2026-05-03T08:30:07.999Z</time></trkpt><trkpt lat="38.31217077126401" lon="16.34085443524393"><ele>20.0</ele><time>2026-05-03T08:30:08.999Z</time></trkpt><trkpt lat="38.312130821481254" lon="16.341212233171117"><ele>20.0</ele><time>2026-05-03T08:30:09.999Z</time></trkpt><trkpt lat="38.31207650777051" lon="16.341571413716576"><ele>20.5</ele><time>2026-05-03T08:30:10.999Z</time></trkpt><trkpt lat="38.31201184054619" lon="16.341937810343868"><ele>21.0</ele><time>2026-05-03T08:30:11.999Z</time></trkpt><trkpt lat="38.311939116995035" lon="16.342294497640253"><ele>22.5</ele><time>2026-05-03T08:30:12.999Z</time></trkpt><trkpt lat="38.31185600877454" lon="16.342645815040118"><ele>24.0</ele><time>2026-05-03T08:30:13.999Z</time></trkpt><trkpt lat="38.31177666821839" lon="16.342976860691234"><ele>26.0</ele><time>2026-05-03T08:30:14.999Z</time></trkpt><trkpt lat="38.31168512469122" lon="16.343307622556427"><ele>28.0</ele><time>2026-05-03T08:30:15.999Z</time></trkpt><trkpt lat="38.31159071401294" lon="16.34364217017212"><ele>34.0</ele><time>2026-05-03T08:30:16.999Z</time></trkpt><trkpt lat="38.31149728401407" lon="16.343982415360895"><ele>40.0</ele><time>2026-05-03T08:30:17.999Z</time></trkpt><trkpt lat="38.31141076918692" lon="16.344301552447774"><ele>37.5</ele><time>2026-05-03T08:30:18.999Z</time></trkpt><trkpt lat="38.31132390227041" lon="16.344623860762976"><ele>35.0</ele><time>2026-05-03T08:30:20.017Z</time></trkpt><trkpt lat="38.31124039981863" lon="16.344937051876723"><ele>35.0</ele><time>2026-05-03T08:30:21.023Z</time></trkpt><trkpt lat="38.311161396952734" lon="16.34522974532453"><ele>35.0</ele><time>2026-05-03T08:30:22.014Z</time></trkpt><trkpt lat="38.31108154289054" lon="16.34551403134614"><ele>32.0</ele><time>2026-05-03T08:30:23.023Z</time></trkpt><trkpt lat="38.310994952657026" lon="16.345824632376576"><ele>29.0</ele><time>2026-05-03T08:30:24.022Z</time></trkpt><trkpt lat="38.31090615502523" lon="16.34612606048543"><ele>26.5</ele><time>2026-05-03T08:30:24.999Z</time></trkpt><trkpt lat="38.31082087382765" lon="16.34649987957101"><ele>24.0</ele><time>2026-05-03T08:30:25.999Z</time></trkpt><trkpt lat="38.3107360231657" lon="16.346814786711732"><ele>24.0</ele><time>2026-05-03T08:30:26.999Z</time></trkpt><trkpt lat="38.310645445440734" lon="16.3471325089035"><ele>24.0</ele><time>2026-05-03T08:30:27.999Z</time></trkpt><trkpt lat="38.31055750967288" lon="16.347449086317827"><ele>23.0</ele><time>2026-05-03T08:30:28.999Z</time></trkpt><trkpt lat="38.31048131008469" lon="16.347755977165946"><ele>22.0</ele><time>2026-05-03T08:30:29.999Z</time></trkpt><trkpt lat="38.31040765058587" lon="16.348074114504985"><ele>22.0</ele><time>2026-05-03T08:30:30.999Z</time></trkpt><trkpt lat="38.31034568230401" lon="16.348410279884526"><ele>22.0</ele><time>2026-05-03T08:30:31.999Z</time></trkpt><trkpt lat="38.310287640967836" lon="16.348751073550506"><ele>21.5</ele><time>2026-05-03T08:30:32.999Z</time></trkpt><trkpt lat="38.31023779921402" lon="16.349090216383498"><ele>21.0</ele><time>2026-05-03T08:30:33.999Z</time></trkpt><trkpt lat="38.31019956808848" lon="16.349428575767092"><ele>20.0</ele><time>2026-05-03T08:30:34.999Z</time></trkpt><trkpt lat="38.310173424924" lon="16.349773280130243"><ele>19.0</ele><time>2026-05-03T08:30:35.999Z</time></trkpt><trkpt lat="38.310163027006276" lon="16.350110149370053"><ele>19.0</ele><time>2026-05-03T08:30:36.999Z</time></trkpt><trkpt lat="38.3101561159987" lon="16.350475956157414"><ele>19.0</ele><time>2026-05-03T08:30:37.999Z</time></trkpt><trkpt lat="38.31016250419941" lon="16.350824877139093"><ele>18.0</ele><time>2026-05-03T08:30:38.999Z</time></trkpt><trkpt lat="38.31017459592402" lon="16.351187332293133"><ele>17.0</ele><time>2026-05-03T08:30:39.999Z</time></trkpt><trkpt lat="38.31019248535969" lon="16.351553655385892"><ele>17.0</ele><time>2026-05-03T08:30:40.999Z</time></trkpt><trkpt lat="38.310216748382594" lon="16.351902162260384"><ele>17.0</ele><time>2026-05-03T08:30:41.999Z</time></trkpt><trkpt lat="38.310242327422046" lon="16.35226245464483"><ele>17.0</ele><time>2026-05-03T08:30:42.999Z</time></trkpt><trkpt lat="38.310272066768476" lon="16.35261346818535"><ele>17.0</ele><time>2026-05-03T08:30:43.999Z</time></trkpt><trkpt lat="38.3103013865648" lon="16.352937476856486"><ele>16.5</ele><time>2026-05-03T08:30:44.999Z</time></trkpt><trkpt lat="38.31032822548342" lon="16.353267586419005"><ele>16.0</ele><time>2026-05-03T08:30:45.999Z</time></trkpt><trkpt lat="38.310353258196784" lon="16.353610595550215"><ele>15.0</ele><time>2026-05-03T08:30:46.999Z</time></trkpt><trkpt lat="38.310382946329305" lon="16.353956596842675"><ele>14.0</ele><time>2026-05-03T08:30:47.999Z</time></trkpt><trkpt lat="38.31041045793582" lon="16.35429991071835"><ele>14.0</ele><time>2026-05-03T08:30:48.999Z</time></trkpt><trkpt lat="38.31043638272196" lon="16.35464814686006"><ele>14.0</ele><time>2026-05-03T08:30:49.999Z</time></trkpt><trkpt lat="38.31046679104894" lon="16.35499268217282"><ele>15.0</ele><time>2026-05-03T08:30:50.999Z</time></trkpt><trkpt lat="38.31049329483427" lon="16.355346766168058"><ele>16.0</ele><time>2026-05-03T08:30:52Z</time></trkpt><trkpt lat="38.31052316404008" lon="16.355703747250633"><ele>16.0</ele><time>2026-05-03T08:30:53Z</time></trkpt><trkpt lat="38.31055407511237" lon="16.356048202939704"><ele>16.0</ele><time>2026-05-03T08:30:54Z</time></trkpt><trkpt lat="38.31058028428706" lon="16.356399967100977"><ele>16.5</ele><time>2026-05-03T08:30:55Z</time></trkpt><trkpt lat="38.310608518631454" lon="16.356745000334275"><ele>17.0</ele><time>2026-05-03T08:30:56Z</time></trkpt><trkpt lat="38.31064225893352" lon="16.357094839812437"><ele>18.0</ele><time>2026-05-03T08:30:57Z</time></trkpt><trkpt lat="38.31067325118327" lon="16.357451727352306"><ele>19.0</ele><time>2026-05-03T08:30:58Z</time></trkpt><trkpt lat="38.31070173865406" lon="16.357812595324415"><ele>19.5</ele><time>2026-05-03T08:30:59Z</time></trkpt><trkpt lat="38.31073128268163" lon="16.358173916286102"><ele>20.0</ele><time>2026-05-03T08:31:00Z</time></trkpt><trkpt lat="38.310763072927024" lon="16.35853757075591"><ele>20.0</ele><time>2026-05-03T08:31:01Z</time></trkpt><trkpt lat="38.31079646761106" lon="16.358901251413503"><ele>20.0</ele><time>2026-05-03T08:31:02Z</time></trkpt><trkpt lat="38.31082505595652" lon="16.35926675461297"><ele>20.0</ele><time>2026-05-03T08:31:03Z</time></trkpt><trkpt lat="38.31085548613602" lon="16.35965041898627"><ele>20.0</ele><time>2026-05-03T08:31:04Z</time></trkpt><trkpt lat="38.31088406386679" lon="16.36001989277494"><ele>20.0</ele><time>2026-05-03T08:31:05Z</time></trkpt><trkpt lat="38.31091447026787" lon="16.360376063851742"><ele>20.0</ele><time>2026-05-03T08:31:06Z</time></trkpt><trkpt lat="38.310950863856974" lon="16.36073403530624"><ele>19.5</ele><time>2026-05-03T08:31:07Z</time></trkpt><trkpt lat="38.31099842252679" lon="16.361091141703163"><ele>19.0</ele><time>2026-05-03T08:31:08Z</time></trkpt><trkpt lat="38.311066903548586" lon="16.36144455947539"><ele>17.5</ele><time>2026-05-03T08:31:09Z</time></trkpt><trkpt lat="38.31115752113721" lon="16.361796999977248"><ele>16.0</ele><time>2026-05-03T08:31:10Z</time></trkpt><trkpt lat="38.31127218323112" lon="16.36214265920919"><ele>15.0</ele><time>2026-05-03T08:31:11Z</time></trkpt><trkpt lat="38.31140010963604" lon="16.362485556368902"><ele>14.0</ele><time>2026-05-03T08:31:12Z</time></trkpt><trkpt lat="38.311542610476835" lon="16.362818956643483"><ele>15.5</ele><time>2026-05-03T08:31:13Z</time></trkpt><trkpt lat="38.31169517765345" lon="16.363137446267512"><ele>17.0</ele><time>2026-05-03T08:31:14Z</time></trkpt><trkpt lat="38.31185024015873" lon="16.36344393881396"><ele>17.0</ele><time>2026-05-03T08:31:15Z</time></trkpt><trkpt lat="38.31200815204651" lon="16.363745282081315"><ele>17.0</ele><time>2026-05-03T08:31:16Z</time></trkpt><trkpt lat="38.31215840347767" lon="16.364049504953556"><ele>16.5</ele><time>2026-05-03T08:31:17Z</time></trkpt><trkpt lat="38.312306745270625" lon="16.364346867769264"><ele>16.0</ele><time>2026-05-03T08:31:18Z</time></trkpt><trkpt lat="38.312455574001675" lon="16.364639004906945"><ele>15.5</ele><time>2026-05-03T08:31:19Z</time></trkpt><trkpt lat="38.31260141113649" lon="16.3649300908649"><ele>15.0</ele><time>2026-05-03T08:31:20Z</time></trkpt><trkpt lat="38.31274232811123" lon="16.36521779608622"><ele>15.0</ele><time>2026-05-03T08:31:21Z</time></trkpt><trkpt lat="38.312883791794604" lon="16.36550376552328"><ele>15.0</ele><time>2026-05-03T08:31:22Z</time></trkpt><trkpt lat="38.313028991555285" lon="16.365790525722236"><ele>15.0</ele><time>2026-05-03T08:31:23Z</time></trkpt><trkpt lat="38.31317282956608" lon="16.366077311103712"><ele>15.0</ele><time>2026-05-03T08:31:24Z</time></trkpt><trkpt lat="38.313313228080936" lon="16.36636688499287"><ele>14.5</ele><time>2026-05-03T08:31:25Z</time></trkpt><trkpt lat="38.3134523921908" lon="16.366657501793934"><ele>14.0</ele><time>2026-05-03T08:31:26Z</time></trkpt><trkpt lat="38.31359609592497" lon="16.366949106979785"><ele>12.0</ele><time>2026-05-03T08:31:27Z</time></trkpt><trkpt lat="38.31373874961788" lon="16.36723990750174"><ele>10.0</ele><time>2026-05-03T08:31:28Z</time></trkpt><trkpt lat="38.3138825296529" lon="16.367533608742427"><ele>10.0</ele><time>2026-05-03T08:31:29Z</time></trkpt><trkpt lat="38.314026772721704" lon="16.3678267155414"><ele>10.0</ele><time>2026-05-03T08:31:30Z</time></trkpt><trkpt lat="38.31417558039671" lon="16.368115050553158"><ele>10.0</ele><time>2026-05-03T08:31:31Z</time></trkpt><trkpt lat="38.31432705636661" lon="16.36842314328947"><ele>10.0</ele><time>2026-05-03T08:31:32Z</time></trkpt><trkpt lat="38.314481461596756" lon="16.368727828968446"><ele>11.0</ele><time>2026-05-03T08:31:33Z</time></trkpt><trkpt lat="38.31463150867702" lon="16.369029622143724"><ele>12.0</ele><time>2026-05-03T08:31:34Z</time></trkpt><trkpt lat="38.31478352632171" lon="16.369334069167483"><ele>13.5</ele><time>2026-05-03T08:31:35Z</time></trkpt><trkpt lat="38.31493609081816" lon="16.36963336257666"><ele>15.0</ele><time>2026-05-03T08:31:36Z</time></trkpt><trkpt lat="38.315082173220155" lon="16.36994015581441"><ele>15.0</ele><time>2026-05-03T08:31:37Z</time></trkpt><trkpt lat="38.31523120056578" lon="16.370245480243195"><ele>15.0</ele><time>2026-05-03T08:31:38Z</time></trkpt><trkpt lat="38.31538671564904" lon="16.370555399235435"><ele>15.0</ele><time>2026-05-03T08:31:39Z</time></trkpt><trkpt lat="38.315539912747724" lon="16.370868444648206"><ele>15.0</ele><time>2026-05-03T08:31:40Z</time></trkpt><trkpt lat="38.3156938165129" lon="16.371182902233635"><ele>16.0</ele><time>2026-05-03T08:31:41Z</time></trkpt><trkpt lat="38.31584774394968" lon="16.37149603412025"><ele>17.0</ele><time>2026-05-03T08:31:42Z</time></trkpt><trkpt lat="38.31599919183267" lon="16.371809947576835"><ele>17.0</ele><time>2026-05-03T08:31:43Z</time></trkpt><trkpt lat="38.31615504328543" lon="16.37212076914621"><ele>17.0</ele><time>2026-05-03T08:31:44Z</time></trkpt><trkpt lat="38.31630593451435" lon="16.372424691475583"><ele>19.5</ele><time>2026-05-03T08:31:45Z</time></trkpt><trkpt lat="38.316461258171124" lon="16.37274616934574"><ele>22.0</ele><time>2026-05-03T08:31:46Z</time></trkpt><trkpt lat="38.3166150471411" lon="16.37305879310123"><ele>22.0</ele><time>2026-05-03T08:31:47Z</time></trkpt><trkpt lat="38.316763351605566" lon="16.373371349871977"><ele>22.0</ele><time>2026-05-03T08:31:48Z</time></trkpt><trkpt lat="38.31691361761903" lon="16.37368171552852"><ele>21.5</ele><time>2026-05-03T08:31:49Z</time></trkpt><trkpt lat="38.31706512412695" lon="16.373990045961627"><ele>21.0</ele><time>2026-05-03T08:31:50Z</time></trkpt><trkpt lat="38.317217739388056" lon="16.374296110067927"><ele>23.5</ele><time>2026-05-03T08:31:51Z</time></trkpt><trkpt lat="38.31737106999157" lon="16.374603094011466"><ele>26.0</ele><time>2026-05-03T08:31:52Z</time></trkpt><trkpt lat="38.31752520006178" lon="16.374910866330968"><ele>26.0</ele><time>2026-05-03T08:31:53Z</time></trkpt><trkpt lat="38.31767742886516" lon="16.375217520878923"><ele>26.0</ele><time>2026-05-03T08:31:54Z</time></trkpt><trkpt lat="38.317829840797835" lon="16.375522090059466"><ele>26.5</ele><time>2026-05-03T08:31:55Z</time></trkpt><trkpt lat="38.31798046418096" lon="16.37582257697739"><ele>27.0</ele><time>2026-05-03T08:31:56Z</time></trkpt><trkpt lat="38.3181305173813" lon="16.376125334073382"><ele>26.0</ele><time>2026-05-03T08:31:57Z</time></trkpt><trkpt lat="38.318282132573806" lon="16.376426399172676"><ele>25.0</ele><time>2026-05-03T08:31:58Z</time></trkpt><trkpt lat="38.31843113821018" lon="16.37673118910227"><ele>25.0</ele><time>2026-05-03T08:31:59Z</time></trkpt><trkpt lat="38.318579223888015" lon="16.377031501640033"><ele>25.0</ele><time>2026-05-03T08:32:00Z</time></trkpt><trkpt lat="38.318724129214715" lon="16.37733502953008"><ele>25.0</ele><time>2026-05-03T08:32:01Z</time></trkpt><trkpt lat="38.31887019366984" lon="16.37763886773752"><ele>25.0</ele><time>2026-05-03T08:32:02Z</time></trkpt><trkpt lat="38.319019003541065" lon="16.3779413604785"><ele>27.5</ele><time>2026-05-03T08:32:03Z</time></trkpt><trkpt lat="38.319168894329934" lon="16.37824528342739"><ele>30.0</ele><time>2026-05-03T08:32:04Z</time></trkpt><trkpt lat="38.31931592797003" lon="16.378546916957703"><ele>30.0</ele><time>2026-05-03T08:32:05Z</time></trkpt><trkpt lat="38.319465622904914" lon="16.378848761122605"><ele>30.0</ele><time>2026-05-03T08:32:06Z</time></trkpt><trkpt lat="38.319613723548066" lon="16.379148465172566"><ele>32.0</ele><time>2026-05-03T08:32:06.999Z</time></trkpt><trkpt lat="38.31976093422679" lon="16.379447675811825"><ele>34.0</ele><time>2026-05-03T08:32:07.999Z</time></trkpt><trkpt lat="38.31990157816555" lon="16.379743962691727"><ele>34.0</ele><time>2026-05-03T08:32:08.999Z</time></trkpt><trkpt lat="38.32004652287227" lon="16.38004247033921"><ele>34.0</ele><time>2026-05-03T08:32:09.999Z</time></trkpt><trkpt lat="38.32018887170414" lon="16.38033587707491"><ele>34.0</ele><time>2026-05-03T08:32:10.999Z</time></trkpt><trkpt lat="38.32032974653029" lon="16.38062599263524"><ele>34.0</ele><time>2026-05-03T08:32:11.999Z</time></trkpt><trkpt lat="38.32047447156943" lon="16.3809122410164"><ele>33.5</ele><time>2026-05-03T08:32:12.999Z</time></trkpt><trkpt lat="38.32061850355409" lon="16.381196919389065"><ele>33.0</ele><time>2026-05-03T08:32:13.999Z</time></trkpt><trkpt lat="38.32075970132951" lon="16.38147937918714"><ele>33.0</ele><time>2026-05-03T08:32:14.999Z</time></trkpt><trkpt lat="38.320901224738456" lon="16.38176671677222"><ele>33.0</ele><time>2026-05-03T08:32:15.999Z</time></trkpt><trkpt lat="38.321040043443865" lon="16.3820531107413"><ele>32.5</ele><time>2026-05-03T08:32:16.999Z</time></trkpt><trkpt lat="38.321172802410366" lon="16.38233942662114"><ele>32.0</ele><time>2026-05-03T08:32:17.999Z</time></trkpt><trkpt lat="38.32131051721044" lon="16.382629505046317"><ele>34.5</ele><time>2026-05-03T08:32:18.999Z</time></trkpt><trkpt lat="38.32144128072072" lon="16.382924704043162"><ele>37.0</ele><time>2026-05-03T08:32:19.999Z</time></trkpt><trkpt lat="38.32156772800985" lon="16.383226002152817"><ele>37.0</ele><time>2026-05-03T08:32:20.999Z</time></trkpt><trkpt lat="38.32169422646474" lon="16.383520698930834"><ele>37.0</ele><time>2026-05-03T08:32:21.999Z</time></trkpt><trkpt lat="38.32182123936637" lon="16.383811430308846"><ele>35.5</ele><time>2026-05-03T08:32:22.999Z</time></trkpt><trkpt lat="38.321950353360066" lon="16.384100875389237"><ele>34.0</ele><time>2026-05-03T08:32:23.999Z</time></trkpt><trkpt lat="38.32208073681992" lon="16.384388690337595"><ele>34.0</ele><time>2026-05-03T08:32:24.999Z</time></trkpt><trkpt lat="38.32221030770372" lon="16.38467391971357"><ele>34.0</ele><time>2026-05-03T08:32:25.999Z</time></trkpt><trkpt lat="38.322342878297775" lon="16.384949530522967"><ele>32.5</ele><time>2026-05-03T08:32:26.999Z</time></trkpt><trkpt lat="38.32248004622402" lon="16.385229113978863"><ele>31.0</ele><time>2026-05-03T08:32:27.999Z</time></trkpt><trkpt lat="38.32262109610613" lon="16.38551069258801"><ele>26.5</ele><time>2026-05-03T08:32:28.999Z</time></trkpt><trkpt lat="38.322759962024364" lon="16.385793069811086"><ele>22.0</ele><time>2026-05-03T08:32:29.999Z</time></trkpt><trkpt lat="38.32289857891878" lon="16.386070657016834"><ele>22.0</ele><time>2026-05-03T08:32:30.999Z</time></trkpt><trkpt lat="38.323037272328136" lon="16.38634431626185"><ele>22.0</ele><time>2026-05-03T08:32:31.999Z</time></trkpt><trkpt lat="38.323178124671195" lon="16.3866152303106"><ele>32.5</ele><time>2026-05-03T08:32:32.999Z</time></trkpt><trkpt lat="38.3233155475231" lon="16.38689291942335"><ele>43.0</ele><time>2026-05-03T08:32:33.999Z</time></trkpt><trkpt lat="38.32344976325675" lon="16.387158926907617"><ele>43.0</ele><time>2026-05-03T08:32:34.999Z</time></trkpt><trkpt lat="38.32358767994914" lon="16.387431280797298"><ele>43.0</ele><time>2026-05-03T08:32:35.999Z</time></trkpt><trkpt lat="38.32372834096081" lon="16.38771233465237"><ele>43.0</ele><time>2026-05-03T08:32:37.016Z</time></trkpt><trkpt lat="38.32386815411848" lon="16.387987812522088"><ele>43.0</ele><time>2026-05-03T08:32:38.02Z</time></trkpt><trkpt lat="38.32401015229381" lon="16.38826519974743"><ele>43.5</ele><time>2026-05-03T08:32:39.018Z</time></trkpt><trkpt lat="38.324152054117306" lon="16.38854461297707"><ele>44.0</ele><time>2026-05-03T08:32:40.014Z</time></trkpt><trkpt lat="38.325181589497554" lon="16.390768401340015"><ele>44.0</ele><time>2026-05-03T08:32:47.999Z</time></trkpt><trkpt lat="38.32531231244322" lon="16.391041448292036"><ele>44.0</ele><time>2026-05-03T08:32:48.999Z</time></trkpt><trkpt lat="38.32548483409849" lon="16.391309070090646"><ele>42.0</ele><time>2026-05-03T08:32:49.999Z</time></trkpt><trkpt lat="38.3256239650466" lon="16.39157168620117"><ele>40.0</ele><time>2026-05-03T08:32:50.999Z</time></trkpt><trkpt lat="38.32577445396049" lon="16.39183159972473"><ele>40.0</ele><time>2026-05-03T08:32:51.999Z</time></trkpt><trkpt lat="38.325920680592766" lon="16.392100104608005"><ele>40.0</ele><time>2026-05-03T08:32:52.999Z</time></trkpt><trkpt lat="38.32606995741815" lon="16.392365237410317"><ele>38.5</ele><time>2026-05-03T08:32:53.999Z</time></trkpt><trkpt lat="38.32621929861836" lon="16.392635876641023"><ele>37.0</ele><time>2026-05-03T08:32:54.999Z</time></trkpt><trkpt lat="38.326363869221645" lon="16.392899499140825"><ele>41.0</ele><time>2026-05-03T08:32:55.999Z</time></trkpt><trkpt lat="38.32651046910373" lon="16.393173601468536"><ele>45.0</ele><time>2026-05-03T08:32:56.999Z</time></trkpt><trkpt lat="38.32665510662623" lon="16.3934455154068"><ele>45.0</ele><time>2026-05-03T08:32:58Z</time></trkpt><trkpt lat="38.32679965760247" lon="16.39371931109336"><ele>45.0</ele><time>2026-05-03T08:32:59Z</time></trkpt><trkpt lat="38.32693778636478" lon="16.39399735293982"><ele>47.5</ele><time>2026-05-03T08:33:00Z</time></trkpt><trkpt lat="38.327075353338465" lon="16.394279478780387"><ele>50.0</ele><time>2026-05-03T08:33:01Z</time></trkpt><trkpt lat="38.32721383979365" lon="16.394563758034973"><ele>54.0</ele><time>2026-05-03T08:33:02Z</time></trkpt><trkpt lat="38.32735229054437" lon="16.39484146290902"><ele>58.0</ele><time>2026-05-03T08:33:03Z</time></trkpt><trkpt lat="38.327494354686344" lon="16.39511971176403"><ele>58.0</ele><time>2026-05-03T08:33:04Z</time></trkpt><trkpt lat="38.327638061513234" lon="16.39538985352012"><ele>58.0</ele><time>2026-05-03T08:33:05Z</time></trkpt><trkpt lat="38.32778159488531" lon="16.395654794309966"><ele>55.5</ele><time>2026-05-03T08:33:06Z</time></trkpt><trkpt lat="38.327921434075414" lon="16.395914280665693"><ele>53.0</ele><time>2026-05-03T08:33:07Z</time></trkpt><trkpt lat="38.3280571220972" lon="16.396174312850068"><ele>56.5</ele><time>2026-05-03T08:33:08Z</time></trkpt><trkpt lat="38.3281879593882" lon="16.396436642650936"><ele>60.0</ele><time>2026-05-03T08:33:09Z</time></trkpt><trkpt lat="38.32831537062392" lon="16.396703731349483"><ele>60.0</ele><time>2026-05-03T08:33:10Z</time></trkpt><trkpt lat="38.32843129706191" lon="16.396984873106458"><ele>60.0</ele><time>2026-05-03T08:33:11Z</time></trkpt><trkpt lat="38.328537064463134" lon="16.39727202203338"><ele>60.0</ele><time>2026-05-03T08:33:12Z</time></trkpt><trkpt lat="38.32862710165209" lon="16.397569803608476"><ele>60.0</ele><time>2026-05-03T08:33:13Z</time></trkpt><trkpt lat="38.328705480589896" lon="16.397873770658563"><ele>59.0</ele><time>2026-05-03T08:33:14Z</time></trkpt><trkpt lat="38.32877057276572" lon="16.398189869995267"><ele>58.0</ele><time>2026-05-03T08:33:15Z</time></trkpt><trkpt lat="38.32882233522472" lon="16.39850847766869"><ele>58.0</ele><time>2026-05-03T08:33:16Z</time></trkpt><trkpt lat="38.32886883211481" lon="16.398826844436897"><ele>58.0</ele><time>2026-05-03T08:33:17Z</time></trkpt><trkpt lat="38.32890474903103" lon="16.39914648425132"><ele>63.5</ele><time>2026-05-03T08:33:18Z</time></trkpt><trkpt lat="38.3289312621716" lon="16.399464764916154"><ele>69.0</ele><time>2026-05-03T08:33:19Z</time></trkpt><trkpt lat="38.3289483075736" lon="16.39977816244604"><ele>69.0</ele><time>2026-05-03T08:33:20Z</time></trkpt><trkpt lat="38.32895750544991" lon="16.400093296819637"><ele>69.0</ele><time>2026-05-03T08:33:21Z</time></trkpt><trkpt lat="38.328970118171235" lon="16.400409455909216"><ele>69.0</ele><time>2026-05-03T08:33:22Z</time></trkpt><trkpt lat="38.32899287150267" lon="16.40072080691086"><ele>69.0</ele><time>2026-05-03T08:33:23Z</time></trkpt><trkpt lat="38.329024716719594" lon="16.401027659180397"><ele>78.5</ele><time>2026-05-03T08:33:24Z</time></trkpt><trkpt lat="38.32905562522633" lon="16.401333375603752"><ele>88.0</ele><time>2026-05-03T08:33:25Z</time></trkpt><trkpt lat="38.329088929905616" lon="16.40163497778161"><ele>88.0</ele><time>2026-05-03T08:33:26Z</time></trkpt><trkpt lat="38.329127017835475" lon="16.401942651653304"><ele>88.0</ele><time>2026-05-03T08:33:27Z</time></trkpt><trkpt lat="38.32916683637782" lon="16.40225610072515"><ele>97.5</ele><time>2026-05-03T08:33:28.025Z</time></trkpt><trkpt lat="38.32920443140154" lon="16.402568205262465"><ele>107.0</ele><time>2026-05-03T08:33:29.025Z</time></trkpt><trkpt lat="38.329240484784414" lon="16.402881993173928"><ele>108.5</ele><time>2026-05-03T08:33:30.023Z</time></trkpt><trkpt lat="38.32927595823107" lon="16.403195444724904"><ele>110.0</ele><time>2026-05-03T08:33:31.024Z</time></trkpt><trkpt lat="38.32973644140952" lon="16.40651690775194"><ele>97.0</ele><time>2026-05-03T08:33:41Z</time></trkpt><trkpt lat="38.32977427206876" lon="16.406840678447285"><ele>84.0</ele><time>2026-05-03T08:33:42Z</time></trkpt><trkpt lat="38.32978038382629" lon="16.40704804575083"><ele>71.0</ele><time>2026-05-03T08:33:43Z</time></trkpt><trkpt lat="38.3298087516912" lon="16.407383881349798"><ele>64.5</ele><time>2026-05-03T08:33:44Z</time></trkpt><trkpt lat="38.329847218940365" lon="16.407731299162823"><ele>58.0</ele><time>2026-05-03T08:33:45Z</time></trkpt><trkpt lat="38.32988398174105" lon="16.40804601709586"><ele>54.0</ele><time>2026-05-03T08:33:46Z</time></trkpt><trkpt lat="38.329901113733214" lon="16.408375690638152"><ele>50.0</ele><time>2026-05-03T08:33:47Z</time></trkpt><trkpt lat="38.32988951429242" lon="16.4087137000016"><ele>52.0</ele><time>2026-05-03T08:33:48Z</time></trkpt><trkpt lat="38.32987196292436" lon="16.409055698655834"><ele>54.0</ele><time>2026-05-03T08:33:49Z</time></trkpt><trkpt lat="38.329832721536256" lon="16.409397235405248"><ele>69.5</ele><time>2026-05-03T08:33:50Z</time></trkpt><trkpt lat="38.329783206809715" lon="16.409743031208652"><ele>85.0</ele><time>2026-05-03T08:33:51Z</time></trkpt><trkpt lat="38.32972069998997" lon="16.410071190249752"><ele>85.5</ele><time>2026-05-03T08:33:52Z</time></trkpt><trkpt lat="38.329639986738535" lon="16.41039873958603"><ele>86.0</ele><time>2026-05-03T08:33:53Z</time></trkpt><trkpt lat="38.32954539485529" lon="16.410734738206553"><ele>87.0</ele><time>2026-05-03T08:33:54.019Z</time></trkpt><trkpt lat="38.329454031156295" lon="16.41106932787671"><ele>88.0</ele><time>2026-05-03T08:33:55.021Z</time></trkpt><trkpt lat="38.3293649027796" lon="16.41140192567279"><ele>88.0</ele><time>2026-05-03T08:33:56.018Z</time></trkpt><trkpt lat="38.329274972405464" lon="16.41174104445872"><ele>88.0</ele><time>2026-05-03T08:33:57.021Z</time></trkpt><trkpt lat="38.32918536111943" lon="16.41207885896223"><ele>51.0</ele><time>2026-05-03T08:33:58.024Z</time></trkpt><trkpt lat="38.32868442874246" lon="16.4141226466898"><ele>51.0</ele><time>2026-05-03T08:34:04Z</time></trkpt><trkpt lat="38.3286101603912" lon="16.414455382102236"><ele>51.0</ele><time>2026-05-03T08:34:05Z</time></trkpt><trkpt lat="38.32854888925838" lon="16.414767223063077"><ele>50.5</ele><time>2026-05-03T08:34:06Z</time></trkpt><trkpt lat="38.32850575794695" lon="16.41508828625221"><ele>50.0</ele><time>2026-05-03T08:34:07Z</time></trkpt><trkpt lat="38.32842378613805" lon="16.415364134983715"><ele>53.0</ele><time>2026-05-03T08:34:08Z</time></trkpt><trkpt lat="38.32836012947319" lon="16.41564564878877"><ele>56.0</ele><time>2026-05-03T08:34:09Z</time></trkpt><trkpt lat="38.32829333721554" lon="16.415914077084615"><ele>56.0</ele><time>2026-05-03T08:34:10Z</time></trkpt><trkpt lat="38.32823863861188" lon="16.416205852151723"><ele>56.0</ele><time>2026-05-03T08:34:11Z</time></trkpt><trkpt lat="38.32819961743199" lon="16.41650505107222"><ele>57.5</ele><time>2026-05-03T08:34:12Z</time></trkpt><trkpt lat="38.32818058314433" lon="16.416810751590614"><ele>59.0</ele><time>2026-05-03T08:34:13Z</time></trkpt><trkpt lat="38.32818115661914" lon="16.417117127979168"><ele>55.0</ele><time>2026-05-03T08:34:14Z</time></trkpt><trkpt lat="38.32819182888746" lon="16.417428261605124"><ele>51.0</ele><time>2026-05-03T08:34:15Z</time></trkpt><trkpt lat="38.328222100554406" lon="16.417727983987003"><ele>43.5</ele><time>2026-05-03T08:34:16Z</time></trkpt><trkpt lat="38.32826152429836" lon="16.418029901004957"><ele>36.0</ele><time>2026-05-03T08:34:17Z</time></trkpt><trkpt lat="38.32832850575475" lon="16.418327143624783"><ele>36.0</ele><time>2026-05-03T08:34:18Z</time></trkpt><trkpt lat="38.32840212907575" lon="16.41862405916972"><ele>36.0</ele><time>2026-05-03T08:34:18.999Z</time></trkpt><trkpt lat="38.32849184946611" lon="16.418917758220218"><ele>36.0</ele><time>2026-05-03T08:34:19.999Z</time></trkpt><trkpt lat="38.32859793738848" lon="16.419205222067607"><ele>36.0</ele><time>2026-05-03T08:34:20.999Z</time></trkpt><trkpt lat="38.32870938127497" lon="16.41949815623594"><ele>36.5</ele><time>2026-05-03T08:34:21.999Z</time></trkpt><trkpt lat="38.328816341490565" lon="16.419784858376538"><ele>37.0</ele><time>2026-05-03T08:34:22.999Z</time></trkpt><trkpt lat="38.328930989065334" lon="16.42008876722153"><ele>34.0</ele><time>2026-05-03T08:34:23.999Z</time></trkpt><trkpt lat="38.329038361367694" lon="16.420396904236103"><ele>31.0</ele><time>2026-05-03T08:34:24.999Z</time></trkpt><trkpt lat="38.329150388781095" lon="16.42069698120243"><ele>31.0</ele><time>2026-05-03T08:34:25.999Z</time></trkpt><trkpt lat="38.3292585999612" lon="16.420994432735657"><ele>31.0</ele><time>2026-05-03T08:34:26.999Z</time></trkpt><trkpt lat="38.32937678434961" lon="16.421290124221375"><ele>25.5</ele><time>2026-05-03T08:34:27.999Z</time></trkpt><trkpt lat="38.329491821962" lon="16.42158782943936"><ele>20.0</ele><time>2026-05-03T08:34:28.999Z</time></trkpt><trkpt lat="38.32960971243524" lon="16.421885819901632"><ele>25.5</ele><time>2026-05-03T08:34:29.999Z</time></trkpt><trkpt lat="38.32972605181487" lon="16.422187766405777"><ele>31.0</ele><time>2026-05-03T08:34:30.999Z</time></trkpt><trkpt lat="38.3298409491044" lon="16.422493439453945"><ele>31.0</ele><time>2026-05-03T08:34:31.999Z</time></trkpt><trkpt lat="38.329956831078334" lon="16.422799340951947"><ele>31.0</ele><time>2026-05-03T08:34:32.999Z</time></trkpt><trkpt lat="38.3300723606765" lon="16.423109643426663"><ele>29.5</ele><time>2026-05-03T08:34:33.999Z</time></trkpt><trkpt lat="38.330190989767516" lon="16.423419966361415"><ele>28.0</ele><time>2026-05-03T08:34:34.999Z</time></trkpt><trkpt lat="38.330311874476465" lon="16.423734370122943"><ele>27.0</ele><time>2026-05-03T08:34:35.999Z</time></trkpt><trkpt lat="38.3304304585733" lon="16.424048713595322"><ele>26.0</ele><time>2026-05-03T08:34:36.999Z</time></trkpt><trkpt lat="38.33055119084927" lon="16.424367254875307"><ele>29.5</ele><time>2026-05-03T08:34:37.999Z</time></trkpt><trkpt lat="38.330671053659216" lon="16.424685512980453"><ele>33.0</ele><time>2026-05-03T08:34:38.999Z</time></trkpt><trkpt lat="38.330799752185484" lon="16.42500255791127"><ele>33.0</ele><time>2026-05-03T08:34:39.999Z</time></trkpt><trkpt lat="38.33092331967356" lon="16.42532303909968"><ele>33.0</ele><time>2026-05-03T08:34:40.999Z</time></trkpt><trkpt lat="38.33104605223313" lon="16.42564634101684"><ele>28.0</ele><time>2026-05-03T08:34:41.999Z</time></trkpt><trkpt lat="38.33116679976203" lon="16.425971302131927"><ele>23.0</ele><time>2026-05-03T08:34:42.999Z</time></trkpt><trkpt lat="38.331282346792655" lon="16.426299021063116"><ele>22.5</ele><time>2026-05-03T08:34:43.999Z</time></trkpt><trkpt lat="38.331406409938154" lon="16.426627135265793"><ele>22.0</ele><time>2026-05-03T08:34:44.999Z</time></trkpt><trkpt lat="38.33153062064602" lon="16.42695253956998"><ele>19.0</ele><time>2026-05-03T08:34:45.999Z</time></trkpt><trkpt lat="38.33165046906215" lon="16.42727498550089"><ele>16.0</ele><time>2026-05-03T08:34:46.999Z</time></trkpt><trkpt lat="38.33177318052924" lon="16.427585570278037"><ele>16.0</ele><time>2026-05-03T08:34:47.999Z</time></trkpt><trkpt lat="38.33188945348228" lon="16.427893624636237"><ele>16.0</ele><time>2026-05-03T08:34:48.999Z</time></trkpt><trkpt lat="38.33200582894582" lon="16.42820177873289"><ele>14.5</ele><time>2026-05-03T08:34:49.999Z</time></trkpt><trkpt lat="38.33212168115931" lon="16.428508610332624"><ele>13.0</ele><time>2026-05-03T08:34:50.999Z</time></trkpt><trkpt lat="38.332233280383974" lon="16.428811603479193"><ele>17.5</ele><time>2026-05-03T08:34:51.999Z</time></trkpt><trkpt lat="38.332344939747394" lon="16.42911385169487"><ele>22.0</ele><time>2026-05-03T08:34:52.999Z</time></trkpt><trkpt lat="38.33245665469421" lon="16.429412347336342"><ele>21.5</ele><time>2026-05-03T08:34:53.999Z</time></trkpt><trkpt lat="38.33257174501357" lon="16.429710634263632"><ele>21.0</ele><time>2026-05-03T08:34:54.999Z</time></trkpt><trkpt lat="38.332691462546265" lon="16.430011504966"><ele>21.0</ele><time>2026-05-03T08:34:55.999Z</time></trkpt><trkpt lat="38.332809505543544" lon="16.430316871415005"><ele>21.0</ele><time>2026-05-03T08:34:56.999Z</time></trkpt><trkpt lat="38.33292286515283" lon="16.430622295562312"><ele>21.0</ele><time>2026-05-03T08:34:57.999Z</time></trkpt><trkpt lat="38.33303516295846" lon="16.430925721734145"><ele>21.0</ele><time>2026-05-03T08:34:58.999Z</time></trkpt><trkpt lat="38.33314830225291" lon="16.43122636836916"><ele>21.5</ele><time>2026-05-03T08:34:59.999Z</time></trkpt><trkpt lat="38.33326381108724" lon="16.4315236757793"><ele>22.0</ele><time>2026-05-03T08:35:00.999Z</time></trkpt><trkpt lat="38.33337814731991" lon="16.4318187820751"><ele>22.0</ele><time>2026-05-03T08:35:01.999Z</time></trkpt><trkpt lat="38.333491626264866" lon="16.432111484540076"><ele>22.0</ele><time>2026-05-03T08:35:02.999Z</time></trkpt><trkpt lat="38.33359879943438" lon="16.432404881167855"><ele>22.0</ele><time>2026-05-03T08:35:04Z</time></trkpt><trkpt lat="38.333709186869484" lon="16.432693199763456"><ele>22.0</ele><time>2026-05-03T08:35:05Z</time></trkpt><trkpt lat="38.3338184392604" lon="16.43298110882737"><ele>26.0</ele><time>2026-05-03T08:35:06Z</time></trkpt><trkpt lat="38.33392371345808" lon="16.433262630186494"><ele>30.0</ele><time>2026-05-03T08:35:07Z</time></trkpt><trkpt lat="38.33402813589181" lon="16.433536476633908"><ele>26.5</ele><time>2026-05-03T08:35:08Z</time></trkpt><trkpt lat="38.334131373448756" lon="16.433806656238886"><ele>23.0</ele><time>2026-05-03T08:35:09Z</time></trkpt><trkpt lat="38.33423418594968" lon="16.434073983887313"><ele>23.0</ele><time>2026-05-03T08:35:10Z</time></trkpt><trkpt lat="38.33433572691459" lon="16.43433699908599"><ele>23.0</ele><time>2026-05-03T08:35:11Z</time></trkpt><trkpt lat="38.33442880476323" lon="16.434586192912136"><ele>23.0</ele><time>2026-05-03T08:35:12Z</time></trkpt><trkpt lat="38.33451975312034" lon="16.434828836329725"><ele>22.666666666666668</ele><time>2026-05-03T08:35:13Z</time></trkpt><trkpt lat="38.33460366874502" lon="16.435056646599616"><ele>22.333333333333332</ele><time>2026-05-03T08:35:14Z</time></trkpt><trkpt lat="38.33469137035612" lon="16.435271434017057"><ele>22.0</ele><time>2026-05-03T08:35:15Z</time></trkpt><trkpt lat="38.33476982608515" lon="16.43547340562777"><ele>22.0</ele><time>2026-05-03T08:35:16Z</time></trkpt><trkpt lat="38.33484592768051" lon="16.43566120470373"><ele>22.0</ele><time>2026-05-03T08:35:17Z</time></trkpt><trkpt lat="38.334913118622474" lon="16.435842216513702"><ele>22.0</ele><time>2026-05-03T08:35:18Z</time></trkpt><trkpt lat="38.33497482698113" lon="16.436014829011597"><ele>22.0</ele><time>2026-05-03T08:35:19Z</time></trkpt><trkpt lat="38.33503250502392" lon="16.43618642319193"><ele>22.0</ele><time>2026-05-03T08:35:20Z</time></trkpt><trkpt lat="38.33507865673451" lon="16.436358264982385"><ele>22.0</ele><time>2026-05-03T08:35:21Z</time></trkpt><trkpt lat="38.335105957760476" lon="16.436544850726435"><ele>22.0</ele><time>2026-05-03T08:35:22Z</time></trkpt><trkpt lat="38.33510350277893" lon="16.43673799327537"><ele>21.0</ele><time>2026-05-03T08:35:23Z</time></trkpt><trkpt lat="38.335066808845255" lon="16.436929377329538"><ele>20.0</ele><time>2026-05-03T08:35:24Z</time></trkpt><trkpt lat="38.33499459256666" lon="16.437092317234907"><ele>19.0</ele><time>2026-05-03T08:35:25Z</time></trkpt><trkpt lat="38.33490136138258" lon="16.437237147134145"><ele>18.0</ele><time>2026-05-03T08:35:26Z</time></trkpt><trkpt lat="38.334782382583285" lon="16.437367824954055"><ele>14.666666666666666</ele><time>2026-05-03T08:35:27Z</time></trkpt><trkpt lat="38.33464206414019" lon="16.43747716942083"><ele>11.333333333333332</ele><time>2026-05-03T08:35:28Z</time></trkpt><trkpt lat="38.334492581863266" lon="16.43756387731452"><ele>8.0</ele><time>2026-05-03T08:35:29Z</time></trkpt><trkpt lat="38.334345148169604" lon="16.43764437797913"><ele>8.0</ele><time>2026-05-03T08:35:30Z</time></trkpt><trkpt lat="38.33421100361542" lon="16.43771946820066"><ele>8.0</ele><time>2026-05-03T08:35:31Z</time></trkpt><trkpt lat="38.33408753806546" lon="16.43779580615759"><ele>8.0</ele><time>2026-05-03T08:35:32Z</time></trkpt><trkpt lat="38.33396843832202" lon="16.43787289834749"><ele>8.0</ele><time>2026-05-03T08:35:33Z</time></trkpt><trkpt lat="38.33385447131878" lon="16.43794562206442"><ele>7.6000000000000005</ele><time>2026-05-03T08:35:34Z</time></trkpt><trkpt lat="38.33374427389391" lon="16.43801780487491"><ele>7.200000000000001</ele><time>2026-05-03T08:35:35Z</time></trkpt><trkpt lat="38.33363964261935" lon="16.43808054533097"><ele>6.8</ele><time>2026-05-03T08:35:36Z</time></trkpt><trkpt lat="38.333547258343636" lon="16.438131026887497"><ele>6.4</ele><time>2026-05-03T08:35:37Z</time></trkpt><trkpt lat="38.33347358288961" lon="16.438166420213637"><ele>6.0</ele><time>2026-05-03T08:35:38Z</time></trkpt><trkpt lat="38.33338378683486" lon="16.43819463741303"><ele>6.0</ele><time>2026-05-03T08:35:40Z</time></trkpt><trkpt lat="38.33331878589774" lon="16.438197658705466"><ele>6.0</ele><time>2026-05-03T08:35:41Z</time></trkpt><trkpt lat="38.33325463187657" lon="16.43818417716466"><ele>6.0</ele><time>2026-05-03T08:35:42Z</time></trkpt><trkpt lat="38.33314135411977" lon="16.438229124080593"><ele>6.0</ele><time>2026-05-03T08:35:44Z</time></trkpt><trkpt lat="38.33311455670556" lon="16.438379620079353"><ele>6.0</ele><time>2026-05-03T08:35:46Z</time></trkpt><trkpt lat="38.33313199822776" lon="16.438480093988503"><ele>6.0</ele><time>2026-05-03T08:35:47Z</time></trkpt><trkpt lat="38.333194944636084" lon="16.4385961371683"><ele>6.0</ele><time>2026-05-03T08:35:48Z</time></trkpt><trkpt lat="38.333245527826364" lon="16.438670600873287"><ele>6.0</ele><time>2026-05-03T08:35:49Z</time></trkpt><trkpt lat="38.333266583787086" lon="16.43878915797061"><ele>6.0</ele><time>2026-05-03T08:35:50Z</time></trkpt><trkpt lat="38.33328951124766" lon="16.438921354043543"><ele>6.0</ele><time>2026-05-03T08:35:51Z</time></trkpt><trkpt lat="38.33331667778275" lon="16.439063935742897"><ele>6.0</ele><time>2026-05-03T08:35:52Z</time></trkpt><trkpt lat="38.33334855739591" lon="16.439196605016367"><ele>6.0</ele><time>2026-05-03T08:35:53Z</time></trkpt><trkpt lat="38.33337995783187" lon="16.439322293584155"><ele>6.0</ele><time>2026-05-03T08:35:54Z</time></trkpt><trkpt lat="38.333414191402824" lon="16.43944737626368"><ele>6.0</ele><time>2026-05-03T08:35:55Z</time></trkpt><trkpt lat="38.33345541868645" lon="16.439582277701945"><ele>6.0</ele><time>2026-05-03T08:35:56Z</time></trkpt><trkpt lat="38.33350294446145" lon="16.439720901621524"><ele>5.75</ele><time>2026-05-03T08:35:57Z</time></trkpt><trkpt lat="38.33355921072635" lon="16.43985932214667"><ele>5.5</ele><time>2026-05-03T08:35:58Z</time></trkpt><trkpt lat="38.33361741975155" lon="16.44000948890466"><ele>5.25</ele><time>2026-05-03T08:35:59Z</time></trkpt><trkpt lat="38.3336797057303" lon="16.440168783476686"><ele>5.0</ele><time>2026-05-03T08:36:00Z</time></trkpt><trkpt lat="38.33373838793882" lon="16.44034014188629"><ele>5.0</ele><time>2026-05-03T08:36:01Z</time></trkpt><trkpt lat="38.333798882472266" lon="16.440515571493663"><ele>5.0</ele><time>2026-05-03T08:36:02Z</time></trkpt><trkpt lat="38.33385815162791" lon="16.440698413763442"><ele>5.0</ele><time>2026-05-03T08:36:03Z</time></trkpt><trkpt lat="38.3339230833031" lon="16.44087528557695"><ele>5.0</ele><time>2026-05-03T08:36:04Z</time></trkpt><trkpt lat="38.33398828867527" lon="16.44105138563683"><ele>5.0</ele><time>2026-05-03T08:36:05Z</time></trkpt><trkpt lat="38.334051870629686" lon="16.441226379208498"><ele>5.0</ele><time>2026-05-03T08:36:06Z</time></trkpt><trkpt lat="38.33411538542803" lon="16.441404314381487"><ele>5.0</ele><time>2026-05-03T08:36:07Z</time></trkpt><trkpt lat="38.334178653485054" lon="16.441568960229883"><ele>5.0</ele><time>2026-05-03T08:36:08Z</time></trkpt><trkpt lat="38.33423481149767" lon="16.441729384298174"><ele>5.0</ele><time>2026-05-03T08:36:09Z</time></trkpt><trkpt lat="38.33429152618136" lon="16.44188371372171"><ele>5.0</ele><time>2026-05-03T08:36:10Z</time></trkpt><trkpt lat="38.33434327094366" lon="16.44203525495048"><ele>4.6</ele><time>2026-05-03T08:36:11Z</time></trkpt><trkpt lat="38.3343892824289" lon="16.442175246007302"><ele>4.2</ele><time>2026-05-03T08:36:12Z</time></trkpt><trkpt lat="38.33443460773251" lon="16.44230713328328"><ele>3.8</ele><time>2026-05-03T08:36:13Z</time></trkpt><trkpt lat="38.33446963013053" lon="16.44242353845987"><ele>3.4</ele><time>2026-05-03T08:36:14Z</time></trkpt><trkpt lat="38.33450417247755" lon="16.442534873993445"><ele>3.0</ele><time>2026-05-03T08:36:15Z</time></trkpt><trkpt lat="38.334529962371334" lon="16.442628323199813"><ele>3.0</ele><time>2026-05-03T08:36:16Z</time></trkpt><trkpt lat="38.33456435396266" lon="16.44274503390847"><ele>3.0</ele><time>2026-05-03T08:36:18Z</time></trkpt><trkpt lat="38.33459229256016" lon="16.442832618593744"><ele>3.0</ele><time>2026-05-03T08:36:22Z</time></trkpt><trkpt lat="38.334676923451205" lon="16.443032338398815"><ele>3.0</ele><time>2026-05-03T08:38:43.999Z</time></trkpt><trkpt lat="38.334714856454454" lon="16.443124971964117"><ele>3.0</ele><time>2026-05-03T08:38:44.999Z</time></trkpt><trkpt lat="38.33474557798882" lon="16.44321710334272"><ele>3.2</ele><time>2026-05-03T08:38:45.999Z</time></trkpt><trkpt lat="38.33478068233319" lon="16.443316480470262"><ele>3.4</ele><time>2026-05-03T08:38:46.999Z</time></trkpt><trkpt lat="38.334822694696186" lon="16.443429319205464"><ele>3.6000000000000005</ele><time>2026-05-03T08:38:47.999Z</time></trkpt><trkpt lat="38.33487305271889" lon="16.443558562679613"><ele>3.8000000000000003</ele><time>2026-05-03T08:38:48.999Z</time></trkpt><trkpt lat="38.334920609141726" lon="16.443695953261884"><ele>4.0</ele><time>2026-05-03T08:38:49.999Z</time></trkpt><trkpt lat="38.33497191735215" lon="16.443840384296816"><ele>4.0</ele><time>2026-05-03T08:38:50.999Z</time></trkpt><trkpt lat="38.33502593892807" lon="16.443990086117502"><ele>4.0</ele><time>2026-05-03T08:38:51.999Z</time></trkpt><trkpt lat="38.33508302721145" lon="16.444145326635606"><ele>4.0</ele><time>2026-05-03T08:38:52.999Z</time></trkpt><trkpt lat="38.33513815592421" lon="16.444295307091853"><ele>4.0</ele><time>2026-05-03T08:38:53.999Z</time></trkpt><trkpt lat="38.3351961508057" lon="16.444452904498633"><ele>4.0</ele><time>2026-05-03T08:38:54.999Z</time></trkpt><trkpt lat="38.33525582583876" lon="16.444620135877983"><ele>4.0</ele><time>2026-05-03T08:38:55.999Z</time></trkpt><trkpt lat="38.335323474887396" lon="16.444793335971543"><ele>4.0</ele><time>2026-05-03T08:38:56.999Z</time></trkpt><trkpt lat="38.335390882500505" lon="16.44496937941182"><ele>4.0</ele><time>2026-05-03T08:38:57.999Z</time></trkpt><trkpt lat="38.335453038397105" lon="16.445151243587404"><ele>4.0</ele><time>2026-05-03T08:38:58.999Z</time></trkpt><trkpt lat="38.33553104761556" lon="16.445352776446832"><ele>4.0</ele><time>2026-05-03T08:38:59.999Z</time></trkpt><trkpt lat="38.33562219059382" lon="16.445571569014678"><ele>6.0</ele><time>2026-05-03T08:39:00.999Z</time></trkpt><trkpt lat="38.33571170310505" lon="16.445813611724542"><ele>8.0</ele><time>2026-05-03T08:39:01.999Z</time></trkpt><trkpt lat="38.33580881599518" lon="16.4461205747943"><ele>7.5</ele><time>2026-05-03T08:39:02.999Z</time></trkpt><trkpt lat="38.33593717188018" lon="16.446478263749665"><ele>7.0</ele><time>2026-05-03T08:39:03.999Z</time></trkpt><trkpt lat="38.33608702555607" lon="16.446897183496166"><ele>7.0</ele><time>2026-05-03T08:39:04.999Z</time></trkpt><trkpt lat="38.33625647159942" lon="16.44733187564613"><ele>7.0</ele><time>2026-05-03T08:39:05.999Z</time></trkpt><trkpt lat="38.33639043688509" lon="16.44773508085033"><ele>6.5</ele><time>2026-05-03T08:39:06.999Z</time></trkpt><trkpt lat="38.33651441422707" lon="16.448084458521166"><ele>6.0</ele><time>2026-05-03T08:39:07.999Z</time></trkpt><trkpt lat="38.33663731980803" lon="16.44842292822307"><ele>6.0</ele><time>2026-05-03T08:39:08.999Z</time></trkpt><trkpt lat="38.33675842208966" lon="16.44875113377582"><ele>6.0</ele><time>2026-05-03T08:39:09.999Z</time></trkpt><trkpt lat="38.33687367832324" lon="16.44906514664622"><ele>6.5</ele><time>2026-05-03T08:39:10.999Z</time></trkpt><trkpt lat="38.336980966059656" lon="16.449351829960822"><ele>7.0</ele><time>2026-05-03T08:39:11.999Z</time></trkpt><trkpt lat="38.337079985443495" lon="16.44963666319624"><ele>7.0</ele><time>2026-05-03T08:39:12.999Z</time></trkpt><trkpt lat="38.337173155378686" lon="16.44991350160668"><ele>7.0</ele><time>2026-05-03T08:39:13.999Z</time></trkpt><trkpt lat="38.33727553799938" lon="16.450190407738116"><ele>6.5</ele><time>2026-05-03T08:39:14.999Z</time></trkpt><trkpt lat="38.337375169011366" lon="16.45046508662613"><ele>6.0</ele><time>2026-05-03T08:39:16Z</time></trkpt><trkpt lat="38.33747334617072" lon="16.450740097103548"><ele>6.0</ele><time>2026-05-03T08:39:17Z</time></trkpt><trkpt lat="38.3375682773225" lon="16.451009986013688"><ele>6.0</ele><time>2026-05-03T08:39:18Z</time></trkpt><trkpt lat="38.33766387157899" lon="16.45128360708438"><ele>5.0</ele><time>2026-05-03T08:39:19Z</time></trkpt><trkpt lat="38.33775880874427" lon="16.45155452175404"><ele>4.0</ele><time>2026-05-03T08:39:20Z</time></trkpt><trkpt lat="38.33785908792668" lon="16.45182794072355"><ele>4.0</ele><time>2026-05-03T08:39:21Z</time></trkpt><trkpt lat="38.33795608117256" lon="16.45209467087282"><ele>4.0</ele><time>2026-05-03T08:39:22Z</time></trkpt><trkpt lat="38.33806186418688" lon="16.452368095668078"><ele>5.5</ele><time>2026-05-03T08:39:23Z</time></trkpt><trkpt lat="38.33816115279012" lon="16.452642577062253"><ele>7.0</ele><time>2026-05-03T08:39:24Z</time></trkpt><trkpt lat="38.338259483098916" lon="16.452926725023122"><ele>6.5</ele><time>2026-05-03T08:39:25Z</time></trkpt><trkpt lat="38.3383676395337" lon="16.453217814897922"><ele>6.0</ele><time>2026-05-03T08:39:26Z</time></trkpt><trkpt lat="38.3384709220819" lon="16.453513243831665"><ele>6.0</ele><time>2026-05-03T08:39:27Z</time></trkpt><trkpt lat="38.33858189065953" lon="16.4538088948369"><ele>6.0</ele><time>2026-05-03T08:39:28Z</time></trkpt><trkpt lat="38.338691056146665" lon="16.454100778367188"><ele>6.0</ele><time>2026-05-03T08:39:29Z</time></trkpt><trkpt lat="38.338813119028366" lon="16.454398351445207"><ele>6.0</ele><time>2026-05-03T08:39:30Z</time></trkpt><trkpt lat="38.33892440516861" lon="16.4546914647888"><ele>7.0</ele><time>2026-05-03T08:39:31Z</time></trkpt><trkpt lat="38.33904895679262" lon="16.454992899870145"><ele>8.0</ele><time>2026-05-03T08:39:32Z</time></trkpt><trkpt lat="38.339163545938455" lon="16.455282489258188"><ele>7.5</ele><time>2026-05-03T08:39:33Z</time></trkpt><trkpt lat="38.33927442859625" lon="16.455568583895896"><ele>7.0</ele><time>2026-05-03T08:39:34Z</time></trkpt><trkpt lat="38.33938543838274" lon="16.45585512890038"><ele>7.0</ele><time>2026-05-03T08:39:35Z</time></trkpt><trkpt lat="38.339505957355975" lon="16.456145092738893"><ele>7.0</ele><time>2026-05-03T08:39:36Z</time></trkpt><trkpt lat="38.339615197272614" lon="16.456436702317596"><ele>7.0</ele><time>2026-05-03T08:39:37Z</time></trkpt><trkpt lat="38.33972187108016" lon="16.45672371235026"><ele>7.0</ele><time>2026-05-03T08:39:38Z</time></trkpt><trkpt lat="38.339830853899755" lon="16.457004636403095"><ele>7.0</ele><time>2026-05-03T08:39:39Z</time></trkpt><trkpt lat="38.339935196187895" lon="16.457287199294825"><ele>7.0</ele><time>2026-05-03T08:39:40Z</time></trkpt><trkpt lat="38.34003838370287" lon="16.457562807468147"><ele>7.0</ele><time>2026-05-03T08:39:41Z</time></trkpt><trkpt lat="38.340145384951" lon="16.457835920664646"><ele>7.0</ele><time>2026-05-03T08:39:42Z</time></trkpt><trkpt lat="38.340258995483154" lon="16.45810625558621"><ele>6.5</ele><time>2026-05-03T08:39:43Z</time></trkpt><trkpt lat="38.34035909773383" lon="16.458372748795885"><ele>6.0</ele><time>2026-05-03T08:39:44Z</time></trkpt><trkpt lat="38.34046841440287" lon="16.458639107081108"><ele>7.0</ele><time>2026-05-03T08:39:45Z</time></trkpt><trkpt lat="38.34057215564328" lon="16.45890575866156"><ele>8.0</ele><time>2026-05-03T08:39:46Z</time></trkpt><trkpt lat="38.34067684376292" lon="16.459166708622337"><ele>8.0</ele><time>2026-05-03T08:39:47Z</time></trkpt><trkpt lat="38.3407731996411" lon="16.459425149311304"><ele>8.0</ele><time>2026-05-03T08:39:48Z</time></trkpt><trkpt lat="38.34088287160626" lon="16.45968229378471"><ele>8.333333333333332</ele><time>2026-05-03T08:39:49Z</time></trkpt><trkpt lat="38.34098225025307" lon="16.45992496760794"><ele>8.666666666666666</ele><time>2026-05-03T08:39:50Z</time></trkpt><trkpt lat="38.341064307012616" lon="16.460158564780333"><ele>9.0</ele><time>2026-05-03T08:39:51Z</time></trkpt><trkpt lat="38.34115016333911" lon="16.460383184556573"><ele>8.333333333333334</ele><time>2026-05-03T08:39:52Z</time></trkpt><trkpt lat="38.34122981888631" lon="16.46059122173532"><ele>7.666666666666667</ele><time>2026-05-03T08:39:53Z</time></trkpt><trkpt lat="38.34131080976499" lon="16.460802198783764"><ele>7.0</ele><time>2026-05-03T08:39:54Z</time></trkpt><trkpt lat="38.34139707276942" lon="16.461005946648473"><ele>7.333333333333334</ele><time>2026-05-03T08:39:55Z</time></trkpt><trkpt lat="38.34147985190378" lon="16.461212580610685"><ele>7.666666666666666</ele><time>2026-05-03T08:39:56Z</time></trkpt><trkpt lat="38.34155771012009" lon="16.461418964436472"><ele>8.0</ele><time>2026-05-03T08:39:57Z</time></trkpt><trkpt lat="38.341639008069855" lon="16.46161682544933"><ele>8.0</ele><time>2026-05-03T08:39:58Z</time></trkpt><trkpt lat="38.34171396360743" lon="16.46181053316669"><ele>8.0</ele><time>2026-05-03T08:39:59Z</time></trkpt><trkpt lat="38.34179312283881" lon="16.46200994035459"><ele>8.0</ele><time>2026-05-03T08:40:00Z</time></trkpt><trkpt lat="38.341868877864776" lon="16.462214444612034"><ele>8.0</ele><time>2026-05-03T08:40:01Z</time></trkpt><trkpt lat="38.34194547455253" lon="16.46241956651618"><ele>8.0</ele><time>2026-05-03T08:40:02Z</time></trkpt><trkpt lat="38.342028935781194" lon="16.462624929531998"><ele>8.0</ele><time>2026-05-03T08:40:03Z</time></trkpt><trkpt lat="38.34211475705805" lon="16.462834623456345"><ele>7.666666666666666</ele><time>2026-05-03T08:40:04Z</time></trkpt><trkpt lat="38.342199435677436" lon="16.463046280886992"><ele>7.333333333333334</ele><time>2026-05-03T08:40:05Z</time></trkpt><trkpt lat="38.342285084346194" lon="16.463255089441017"><ele>7.0</ele><time>2026-05-03T08:40:06Z</time></trkpt><trkpt lat="38.34236386369352" lon="16.46345306899588"><ele>7.0</ele><time>2026-05-03T08:40:07Z</time></trkpt><trkpt lat="38.342423971542175" lon="16.4636191268805"><ele>7.0</ele><time>2026-05-03T08:40:08Z</time></trkpt><trkpt lat="38.342490141011616" lon="16.463766971040272"><ele>7.0</ele><time>2026-05-03T08:40:09Z</time></trkpt><trkpt lat="38.34254372366091" lon="16.463884158061326"><ele>7.0</ele><time>2026-05-03T08:40:10Z</time></trkpt><trkpt lat="38.34260130802638" lon="16.463984393444562"><ele>7.000000000000001</ele><time>2026-05-03T08:40:11Z</time></trkpt><trkpt lat="38.342638632473445" lon="16.464081510451237"><ele>7.0</ele><time>2026-05-03T08:40:12Z</time></trkpt><trkpt lat="38.342669950364375" lon="16.464176542687788"><ele>7.0</ele><time>2026-05-03T08:40:13Z</time></trkpt><trkpt lat="38.34270708081936" lon="16.464278841558812"><ele>7.0</ele><time>2026-05-03T08:40:14Z</time></trkpt><trkpt lat="38.342742873947955" lon="16.46438605613532"><ele>7.000000000000001</ele><time>2026-05-03T08:40:15Z</time></trkpt><trkpt lat="38.34278569019243" lon="16.46449661385513"><ele>7.0</ele><time>2026-05-03T08:40:16Z</time></trkpt><trkpt lat="38.34283065218931" lon="16.46461129234996"><ele>7.0</ele><time>2026-05-03T08:40:17Z</time></trkpt><trkpt lat="38.34287763386327" lon="16.464727957527604"><ele>6.999999999999999</ele><time>2026-05-03T08:40:18Z</time></trkpt><trkpt lat="38.34292647848303" lon="16.464840234068657"><ele>6.999999999999999</ele><time>2026-05-03T08:40:19Z</time></trkpt><trkpt lat="38.34297798913283" lon="16.464961463238488"><ele>7.0</ele><time>2026-05-03T08:40:20Z</time></trkpt><trkpt lat="38.3430257412415" lon="16.465075730666587"><ele>7.0</ele><time>2026-05-03T08:40:21Z</time></trkpt><trkpt lat="38.343069043891965" lon="16.465190651013813"><ele>7.0</ele><time>2026-05-03T08:40:21.999Z</time></trkpt><trkpt lat="38.343110356912455" lon="16.465309984420735"><ele>6.999999999999999</ele><time>2026-05-03T08:40:22.999Z</time></trkpt><trkpt lat="38.34314438734635" lon="16.465421974337985"><ele>6.999999999999999</ele><time>2026-05-03T08:40:23.999Z</time></trkpt><trkpt lat="38.34320784755886" lon="16.465544189925254"><ele>7.0</ele><time>2026-05-03T08:40:24.999Z</time></trkpt><trkpt lat="38.34325607852372" lon="16.465666538912007"><ele>7.0</ele><time>2026-05-03T08:40:25.999Z</time></trkpt><trkpt lat="38.34331348727713" lon="16.465777321491714"><ele>7.166666666666667</ele><time>2026-05-03T08:40:26.999Z</time></trkpt><trkpt lat="38.34336648415689" lon="16.465872590846182"><ele>7.333333333333334</ele><time>2026-05-03T08:40:27.999Z</time></trkpt><trkpt lat="38.343420703116756" lon="16.465955322417376"><ele>7.5</ele><time>2026-05-03T08:40:28.999Z</time></trkpt><trkpt lat="38.343469587563305" lon="16.466031104196205"><ele>7.666666666666666</ele><time>2026-05-03T08:40:29.999Z</time></trkpt><trkpt lat="38.343517162808624" lon="16.46609917801888"><ele>7.833333333333333</ele><time>2026-05-03T08:40:30.999Z</time></trkpt><trkpt lat="38.34357169847272" lon="16.466179340005368"><ele>8.0</ele><time>2026-05-03T08:40:31.999Z</time></trkpt><trkpt lat="38.3436166913277" lon="16.46625143484253"><ele>8.166666666666666</ele><time>2026-05-03T08:40:32.999Z</time></trkpt><trkpt lat="38.343673887483455" lon="16.46631543624145"><ele>8.333333333333332</ele><time>2026-05-03T08:40:33.999Z</time></trkpt><trkpt lat="38.34372851923726" lon="16.46637871118569"><ele>8.5</ele><time>2026-05-03T08:40:34.999Z</time></trkpt><trkpt lat="38.34378057475082" lon="16.466438683325883"><ele>8.666666666666666</ele><time>2026-05-03T08:40:35.999Z</time></trkpt><trkpt lat="38.3438274524191" lon="16.46649617021353"><ele>8.833333333333334</ele><time>2026-05-03T08:40:36.999Z</time></trkpt><trkpt lat="38.343917336749804" lon="16.466593355833282"><ele>9.0</ele><time>2026-05-03T08:40:38.999Z</time></trkpt><trkpt lat="38.343999144028565" lon="16.466687011971004"><ele>9.166666666666666</ele><time>2026-05-03T08:40:40.999Z</time></trkpt><trkpt lat="38.344080519290024" lon="16.466770640468937"><ele>9.333333333333334</ele><time>2026-05-03T08:40:42.999Z</time></trkpt><trkpt lat="38.344139027212115" lon="16.46684098109737"><ele>9.5</ele><time>2026-05-03T08:40:44.999Z</time></trkpt><trkpt lat="38.344194354309074" lon="16.46691446164758"><ele>9.666666666666668</ele><time>2026-05-03T08:40:46.999Z</time></trkpt><trkpt lat="38.34423247636628" lon="16.46700730781116"><ele>9.833333333333334</ele><time>2026-05-03T08:40:48.999Z</time></trkpt><trkpt lat="38.34426002681626" lon="16.46709517767649"><ele>10.0</ele><time>2026-05-03T08:40:51.999Z</time></trkpt><trkpt lat="38.34428522587895" lon="16.467170117474765"><ele>8.0</ele><time>2026-05-03T08:40:54.999Z</time></trkpt></trkseg><trkseg><trkpt lat="38.344314578414156" lon="16.467185624866502"><ele>8.0</ele><time>2026-05-03T09:10:50Z</time></trkpt><trkpt lat="38.3444489427201" lon="16.467320693702714"><ele>8.0</ele><time>2026-05-03T09:13:57.999Z</time></trkpt><trkpt lat="38.34447947293905" lon="16.467391060910426"><ele>8.0</ele><time>2026-05-03T09:13:58.999Z</time></trkpt><trkpt lat="38.344546045396555" lon="16.467518106168807"><ele>8.0</ele><time>2026-05-03T09:14:00.999Z</time></trkpt><trkpt lat="38.344578850995504" lon="16.46763941364895"><ele>7.999999999999999</ele><time>2026-05-03T09:14:02.999Z</time></trkpt><trkpt lat="38.34458660075501" lon="16.467801263007303"><ele>8.0</ele><time>2026-05-03T09:14:04.999Z</time></trkpt><trkpt lat="38.34460034943937" lon="16.467883951427496"><ele>8.0</ele><time>2026-05-03T09:14:05.999Z</time></trkpt><trkpt lat="38.34464812723871" lon="16.467954064590053"><ele>8.0</ele><time>2026-05-03T09:14:06.999Z</time></trkpt><trkpt lat="38.34471154346959" lon="16.467999950408817"><ele>7.999999999999999</ele><time>2026-05-03T09:14:07.999Z</time></trkpt><trkpt lat="38.344772258890494" lon="16.468047492329806"><ele>8.0</ele><time>2026-05-03T09:14:08.999Z</time></trkpt><trkpt lat="38.34482006007096" lon="16.468112020656758"><ele>8.333333333333332</ele><time>2026-05-03T09:14:09.999Z</time></trkpt><trkpt lat="38.344867651801216" lon="16.468201592469903"><ele>8.666666666666666</ele><time>2026-05-03T09:14:10.999Z</time></trkpt><trkpt lat="38.34490530911237" lon="16.46829784066154"><ele>9.0</ele><time>2026-05-03T09:14:11.999Z</time></trkpt><trkpt lat="38.344943988300955" lon="16.46839539591481"><ele>9.333333333333334</ele><time>2026-05-03T09:14:12.999Z</time></trkpt><trkpt lat="38.34498985649298" lon="16.46848852719174"><ele>9.666666666666668</ele><time>2026-05-03T09:14:13.999Z</time></trkpt><trkpt lat="38.345036011427354" lon="16.468580238331793"><ele>10.0</ele><time>2026-05-03T09:14:14.999Z</time></trkpt><trkpt lat="38.34508561277961" lon="16.4686700556459"><ele>10.0</ele><time>2026-05-03T09:14:15.999Z</time></trkpt><trkpt lat="38.34514001291016" lon="16.468767820598856"><ele>10.0</ele><time>2026-05-03T09:14:16.999Z</time></trkpt><trkpt lat="38.345189690059634" lon="16.468880560841"><ele>10.0</ele><time>2026-05-03T09:14:17.999Z</time></trkpt><trkpt lat="38.34525294599168" lon="16.4689778050083"><ele>10.0</ele><time>2026-05-03T09:14:18.999Z</time></trkpt><trkpt lat="38.34532294021738" lon="16.46904920223683"><ele>10.0</ele><time>2026-05-03T09:14:19.999Z</time></trkpt><trkpt lat="38.34538011131187" lon="16.469133659386586"><ele>9.833333333333334</ele><time>2026-05-03T09:14:20.999Z</time></trkpt><trkpt lat="38.34543713761195" lon="16.469208479110097"><ele>9.666666666666668</ele><time>2026-05-03T09:14:21.999Z</time></trkpt><trkpt lat="38.345492431923425" lon="16.469286953496102"><ele>9.5</ele><time>2026-05-03T09:14:22.999Z</time></trkpt><trkpt lat="38.34554918854423" lon="16.469347889887047"><ele>9.333333333333334</ele><time>2026-05-03T09:14:23.999Z</time></trkpt><trkpt lat="38.34560137545999" lon="16.469434760961974"><ele>9.166666666666666</ele><time>2026-05-03T09:14:24.999Z</time></trkpt><trkpt lat="38.3456530942896" lon="16.469514476985548"><ele>9.0</ele><time>2026-05-03T09:14:25.999Z</time></trkpt><trkpt lat="38.34570729209868" lon="16.469586613516384"><ele>9.166666666666666</ele><time>2026-05-03T09:14:26.999Z</time></trkpt><trkpt lat="38.34576738607899" lon="16.469666951449472"><ele>9.333333333333334</ele><time>2026-05-03T09:14:27.999Z</time></trkpt><trkpt lat="38.3458231687651" lon="16.469744104649585"><ele>9.5</ele><time>2026-05-03T09:14:28.999Z</time></trkpt><trkpt lat="38.34586973843897" lon="16.469810813588172"><ele>9.666666666666668</ele><time>2026-05-03T09:14:29.999Z</time></trkpt><trkpt lat="38.34595697961524" lon="16.46988161512223"><ele>9.833333333333334</ele><time>2026-05-03T09:14:31.999Z</time></trkpt><trkpt lat="38.34604339416262" lon="16.46990679203852"><ele>10.0</ele><time>2026-05-03T09:14:33.999Z</time></trkpt><trkpt lat="38.34611241375266" lon="16.46989084221985"><ele>10.0</ele><time>2026-05-03T09:14:35.999Z</time></trkpt><trkpt lat="38.346159474598515" lon="16.47000643015521"><ele>10.0</ele><time>2026-05-03T09:14:38.999Z</time></trkpt><trkpt lat="38.34622858436696" lon="16.47005691251761"><ele>10.0</ele><time>2026-05-03T09:14:40.999Z</time></trkpt><trkpt lat="38.346297455021784" lon="16.47006418026524"><ele>10.0</ele><time>2026-05-03T09:14:42.999Z</time></trkpt><trkpt lat="38.346414935094316" lon="16.470081890501532"><ele>10.0</ele><time>2026-05-03T09:14:44.999Z</time></trkpt><trkpt lat="38.34645779327877" lon="16.470010840160786"><ele>10.0</ele><time>2026-05-03T09:14:47.999Z</time></trkpt><trkpt lat="38.34644633012856" lon="16.469906768128453"><ele>10.0</ele><time>2026-05-03T09:15:08Z</time></trkpt><trkpt lat="38.34652441815876" lon="16.469934503073485"><ele>10.0</ele><time>2026-05-03T09:15:11Z</time></trkpt><trkpt lat="38.34659282990015" lon="16.469910608303444"><ele>10.0</ele><time>2026-05-03T09:15:14Z</time></trkpt><trkpt lat="38.34655667860151" lon="16.469830551771757"><ele>10.0</ele><time>2026-05-03T09:15:17Z</time></trkpt><trkpt lat="38.34648673329644" lon="16.46977112844703"><ele>10.0</ele><time>2026-05-03T09:22:34Z</time></trkpt><trkpt lat="38.34641770187221" lon="16.46976484594328"><ele>10.0</ele><time>2026-05-03T09:22:37Z</time></trkpt><trkpt lat="38.34635038204821" lon="16.469761112161954"><ele>10.0</ele><time>2026-05-03T09:24:29Z</time></trkpt><trkpt lat="38.34628664742822" lon="16.469804139436093"><ele>10.0</ele><time>2026-05-03T09:24:37Z</time></trkpt><trkpt lat="38.346221120326284" lon="16.46979035840719"><ele>10.0</ele><time>2026-05-03T09:24:40Z</time></trkpt><trkpt lat="38.346144105314224" lon="16.469813538473304"><ele>10.0</ele><time>2026-05-03T09:24:44Z</time></trkpt><trkpt lat="38.34607882202912" lon="16.469832930227525"><ele>10.0</ele><time>2026-05-03T09:24:47Z</time></trkpt><trkpt lat="38.34601557012049" lon="16.4698860361072"><ele>10.0</ele><time>2026-05-03T09:25:09Z</time></trkpt><trkpt lat="38.346019035783804" lon="16.47002076115128"><ele>10.0</ele><time>2026-05-03T09:25:12Z</time></trkpt><trkpt lat="38.34608295148239" lon="16.470143666685168"><ele>10.0</ele><time>2026-05-03T09:25:14Z</time></trkpt><trkpt lat="38.346128555586446" lon="16.47021424274555"><ele>10.0</ele><time>2026-05-03T09:25:15Z</time></trkpt><trkpt lat="38.346179080915554" lon="16.470287643904648"><ele>10.0</ele><time>2026-05-03T09:25:16Z</time></trkpt><trkpt lat="38.346230003955135" lon="16.47036692686095"><ele>10.0</ele><time>2026-05-03T09:25:17Z</time></trkpt><trkpt lat="38.34628332689448" lon="16.470447844406568"><ele>10.0</ele><time>2026-05-03T09:25:18Z</time></trkpt><trkpt lat="38.34634092703226" lon="16.470532719595525"><ele>10.0</ele><time>2026-05-03T09:25:19Z</time></trkpt><trkpt lat="38.34640183293257" lon="16.470622223589103"><ele>10.2</ele><time>2026-05-03T09:25:20Z</time></trkpt><trkpt lat="38.34645938831289" lon="16.470711692764063"><ele>10.4</ele><time>2026-05-03T09:25:21Z</time></trkpt><trkpt lat="38.34651572066165" lon="16.470797637958714"><ele>10.600000000000001</ele><time>2026-05-03T09:25:22Z</time></trkpt><trkpt lat="38.346585583049816" lon="16.47090032247676"><ele>10.8</ele><time>2026-05-03T09:25:22.999Z</time></trkpt><trkpt lat="38.346662087360194" lon="16.471006312990472"><ele>11.0</ele><time>2026-05-03T09:25:23.999Z</time></trkpt><trkpt lat="38.34674862023469" lon="16.47112698230587"><ele>11.0</ele><time>2026-05-03T09:25:24.999Z</time></trkpt><trkpt lat="38.346829122360916" lon="16.471251103356284"><ele>11.0</ele><time>2026-05-03T09:25:25.999Z</time></trkpt><trkpt lat="38.34691462226045" lon="16.471376245085573"><ele>11.0</ele><time>2026-05-03T09:25:26.999Z</time></trkpt><trkpt lat="38.347004639281494" lon="16.471510621547573"><ele>11.0</ele><time>2026-05-03T09:25:27.999Z</time></trkpt><trkpt lat="38.34710530991619" lon="16.47165754289181"><ele>10.0</ele><time>2026-05-03T09:25:28.999Z</time></trkpt><trkpt lat="38.34720631688035" lon="16.471808187384656"><ele>9.0</ele><time>2026-05-03T09:25:29.999Z</time></trkpt><trkpt lat="38.34730421098375" lon="16.471952641239636"><ele>8.0</ele><time>2026-05-03T09:25:30.999Z</time></trkpt><trkpt lat="38.34740241423326" lon="16.472097582470674"><ele>7.75</ele><time>2026-05-03T09:25:31.999Z</time></trkpt><trkpt lat="38.347503351375856" lon="16.472236999978353"><ele>7.5</ele><time>2026-05-03T09:25:32.999Z</time></trkpt><trkpt lat="38.34760273025163" lon="16.472380500652154"><ele>7.25</ele><time>2026-05-03T09:25:33.999Z</time></trkpt><trkpt lat="38.34769937538915" lon="16.472519171639263"><ele>7.0</ele><time>2026-05-03T09:25:34.999Z</time></trkpt><trkpt lat="38.347791992942895" lon="16.472657672802903"><ele>7.0</ele><time>2026-05-03T09:25:35.999Z</time></trkpt><trkpt lat="38.3479100208651" lon="16.472810047159157"><ele>7.0</ele><time>2026-05-03T09:25:37Z</time></trkpt><trkpt lat="38.347992716382095" lon="16.47294118658785"><ele>7.0</ele><time>2026-05-03T09:25:38Z</time></trkpt><trkpt lat="38.34808905283956" lon="16.473078120543864"><ele>7.0</ele><time>2026-05-03T09:25:39Z</time></trkpt><trkpt lat="38.34818886097611" lon="16.47321750804496"><ele>7.666666666666667</ele><time>2026-05-03T09:25:40Z</time></trkpt><trkpt lat="38.34828891906008" lon="16.473360478077193"><ele>8.333333333333334</ele><time>2026-05-03T09:25:41Z</time></trkpt><trkpt lat="38.34839253252493" lon="16.473508246066384"><ele>9.0</ele><time>2026-05-03T09:25:42Z</time></trkpt><trkpt lat="38.34848969995587" lon="16.47365256977149"><ele>8.333333333333334</ele><time>2026-05-03T09:25:43Z</time></trkpt><trkpt lat="38.3485926252973" lon="16.473801012333396"><ele>7.666666666666667</ele><time>2026-05-03T09:25:44Z</time></trkpt><trkpt lat="38.348699406026206" lon="16.473957595694987"><ele>7.0</ele><time>2026-05-03T09:25:45Z</time></trkpt><trkpt lat="38.348809771857276" lon="16.474114960402524"><ele>8.333333333333334</ele><time>2026-05-03T09:25:46Z</time></trkpt><trkpt lat="38.34891960539025" lon="16.474272915029044"><ele>9.666666666666666</ele><time>2026-05-03T09:25:47Z</time></trkpt><trkpt lat="38.34903163342873" lon="16.474434603402315"><ele>11.0</ele><time>2026-05-03T09:25:48Z</time></trkpt><trkpt lat="38.34913968644686" lon="16.474587398984713"><ele>10.333333333333332</ele><time>2026-05-03T09:25:49Z</time></trkpt><trkpt lat="38.349250982890396" lon="16.474748604742132"><ele>9.666666666666666</ele><time>2026-05-03T09:25:50Z</time></trkpt><trkpt lat="38.349366514428915" lon="16.474913498287975"><ele>9.0</ele><time>2026-05-03T09:25:51Z</time></trkpt><trkpt lat="38.34948370886193" lon="16.47507891461075"><ele>9.0</ele><time>2026-05-03T09:25:52Z</time></trkpt><trkpt lat="38.34959694347583" lon="16.475245093699673"><ele>9.0</ele><time>2026-05-03T09:25:53Z</time></trkpt><trkpt lat="38.34970411413056" lon="16.475404754758678"><ele>9.0</ele><time>2026-05-03T09:25:54Z</time></trkpt><trkpt lat="38.349812564930154" lon="16.47556617768945"><ele>8.333333333333334</ele><time>2026-05-03T09:25:55Z</time></trkpt><trkpt lat="38.34991816347211" lon="16.475721611695334"><ele>7.666666666666667</ele><time>2026-05-03T09:25:56Z</time></trkpt><trkpt lat="38.35003078425273" lon="16.475880256951843"><ele>7.0</ele><time>2026-05-03T09:25:57Z</time></trkpt><trkpt lat="38.35014350790912" lon="16.47604043907486"><ele>7.0</ele><time>2026-05-03T09:25:58Z</time></trkpt><trkpt lat="38.35025920804198" lon="16.476206661469973"><ele>7.0</ele><time>2026-05-03T09:25:59Z</time></trkpt><trkpt lat="38.35037672437807" lon="16.476376106492722"><ele>7.0</ele><time>2026-05-03T09:26:00Z</time></trkpt><trkpt lat="38.35049223234818" lon="16.476542485299838"><ele>8.0</ele><time>2026-05-03T09:26:01Z</time></trkpt><trkpt lat="38.35059864436534" lon="16.476690276482014"><ele>9.0</ele><time>2026-05-03T09:26:02Z</time></trkpt><trkpt lat="38.350727286461435" lon="16.47688688052431"><ele>10.0</ele><time>2026-05-03T09:26:03Z</time></trkpt><trkpt lat="38.350846986842846" lon="16.47705426848926"><ele>9.333333333333334</ele><time>2026-05-03T09:26:04Z</time></trkpt><trkpt lat="38.35097888747424" lon="16.477255355584862"><ele>8.666666666666666</ele><time>2026-05-03T09:26:05Z</time></trkpt><trkpt lat="38.3510912887353" lon="16.477414931316076"><ele>8.0</ele><time>2026-05-03T09:26:06Z</time></trkpt><trkpt lat="38.3512037525082" lon="16.47757616326694"><ele>8.0</ele><time>2026-05-03T09:26:07Z</time></trkpt><trkpt lat="38.35131928067973" lon="16.47774416056013"><ele>8.0</ele><time>2026-05-03T09:26:08Z</time></trkpt><trkpt lat="38.351438571094945" lon="16.477912697668888"><ele>8.0</ele><time>2026-05-03T09:26:09Z</time></trkpt><trkpt lat="38.35155079303568" lon="16.47806887748062"><ele>8.0</ele><time>2026-05-03T09:26:10Z</time></trkpt><trkpt lat="38.35164914725221" lon="16.478213383111225"><ele>8.0</ele><time>2026-05-03T09:26:11Z</time></trkpt><trkpt lat="38.35174720315636" lon="16.478353321046008"><ele>8.0</ele><time>2026-05-03T09:26:12Z</time></trkpt><trkpt lat="38.35183820098823" lon="16.47849018792689"><ele>8.0</ele><time>2026-05-03T09:26:13Z</time></trkpt><trkpt lat="38.35194114671776" lon="16.478632333019423"><ele>8.0</ele><time>2026-05-03T09:26:14Z</time></trkpt><trkpt lat="38.3520410730297" lon="16.478771571914205"><ele>8.0</ele><time>2026-05-03T09:26:15Z</time></trkpt><trkpt lat="38.35214750213057" lon="16.47892248247115"><ele>8.0</ele><time>2026-05-03T09:26:16Z</time></trkpt><trkpt lat="38.35225020007046" lon="16.47907234211118"><ele>8.0</ele><time>2026-05-03T09:26:17Z</time></trkpt><trkpt lat="38.35235055087409" lon="16.47922268108751"><ele>8.0</ele><time>2026-05-03T09:26:18Z</time></trkpt><trkpt lat="38.35245493506104" lon="16.479377279319007"><ele>8.0</ele><time>2026-05-03T09:26:19Z</time></trkpt><trkpt lat="38.35256245771117" lon="16.479526899555335"><ele>8.333333333333332</ele><time>2026-05-03T09:26:20Z</time></trkpt><trkpt lat="38.35266576737003" lon="16.4796817103935"><ele>8.666666666666666</ele><time>2026-05-03T09:26:21Z</time></trkpt><trkpt lat="38.352773649159296" lon="16.479840570002406"><ele>9.0</ele><time>2026-05-03T09:26:22Z</time></trkpt><trkpt lat="38.35288409710525" lon="16.479998104130743"><ele>9.0</ele><time>2026-05-03T09:26:23Z</time></trkpt><trkpt lat="38.35299343469324" lon="16.480162032527232"><ele>9.0</ele><time>2026-05-03T09:26:24Z</time></trkpt><trkpt lat="38.35309971688309" lon="16.48032525782166"><ele>9.0</ele><time>2026-05-03T09:26:25Z</time></trkpt><trkpt lat="38.3532154437792" lon="16.480492654350122"><ele>8.666666666666666</ele><time>2026-05-03T09:26:26Z</time></trkpt><trkpt lat="38.35333073970061" lon="16.480657064783315"><ele>8.333333333333332</ele><time>2026-05-03T09:26:27Z</time></trkpt><trkpt lat="38.35345235192448" lon="16.480821811739077"><ele>8.0</ele><time>2026-05-03T09:26:28Z</time></trkpt><trkpt lat="38.35357194512771" lon="16.480991880070796"><ele>8.0</ele><time>2026-05-03T09:26:29Z</time></trkpt><trkpt lat="38.35369122126831" lon="16.481170340780018"><ele>8.0</ele><time>2026-05-03T09:26:30Z</time></trkpt><trkpt lat="38.35381359790906" lon="16.48135008502396"><ele>8.0</ele><time>2026-05-03T09:26:31Z</time></trkpt><trkpt lat="38.35394037123368" lon="16.481534619408322"><ele>8.666666666666666</ele><time>2026-05-03T09:26:32Z</time></trkpt><trkpt lat="38.354069694283474" lon="16.481721405986722"><ele>9.333333333333334</ele><time>2026-05-03T09:26:33Z</time></trkpt><trkpt lat="38.35420177643172" lon="16.481909296160634"><ele>10.0</ele><time>2026-05-03T09:26:34Z</time></trkpt><trkpt lat="38.35433671140836" lon="16.482098087684097"><ele>10.333333333333334</ele><time>2026-05-03T09:26:35Z</time></trkpt><trkpt lat="38.35447247145443" lon="16.482283313032585"><ele>10.666666666666666</ele><time>2026-05-03T09:26:36Z</time></trkpt><trkpt lat="38.35461552892316" lon="16.482469995717366"><ele>11.0</ele><time>2026-05-03T09:26:37Z</time></trkpt><trkpt lat="38.35476230730759" lon="16.482658065998343"><ele>11.0</ele><time>2026-05-03T09:26:38Z</time></trkpt><trkpt lat="38.35490939721513" lon="16.482839849871063"><ele>11.0</ele><time>2026-05-03T09:26:39Z</time></trkpt><trkpt lat="38.35505202898109" lon="16.483017710013247"><ele>11.0</ele><time>2026-05-03T09:26:40Z</time></trkpt><trkpt lat="38.3551833953976" lon="16.483187818895523"><ele>10.666666666666666</ele><time>2026-05-03T09:26:41Z</time></trkpt><trkpt lat="38.355315133922055" lon="16.483363025175194"><ele>10.333333333333334</ele><time>2026-05-03T09:26:42Z</time></trkpt><trkpt lat="38.35544088222398" lon="16.48354093734614"><ele>10.0</ele><time>2026-05-03T09:26:43Z</time></trkpt><trkpt lat="38.35556604355391" lon="16.483723400001146"><ele>9.333333333333334</ele><time>2026-05-03T09:26:44Z</time></trkpt><trkpt lat="38.355693477846074" lon="16.48390685244915"><ele>8.666666666666666</ele><time>2026-05-03T09:26:45Z</time></trkpt><trkpt lat="38.35582022277721" lon="16.48409164668197"><ele>8.0</ele><time>2026-05-03T09:26:46Z</time></trkpt><trkpt lat="38.35594445156963" lon="16.484269120695597"><ele>8.0</ele><time>2026-05-03T09:26:47Z</time></trkpt><trkpt lat="38.35606863588545" lon="16.484448790043402"><ele>8.0</ele><time>2026-05-03T09:26:48Z</time></trkpt><trkpt lat="38.35618921150307" lon="16.48462862052358"><ele>8.0</ele><time>2026-05-03T09:26:49Z</time></trkpt><trkpt lat="38.356315680847885" lon="16.48480913482451"><ele>9.0</ele><time>2026-05-03T09:26:50Z</time></trkpt><trkpt lat="38.356435126566815" lon="16.484989226765784"><ele>10.0</ele><time>2026-05-03T09:26:51Z</time></trkpt><trkpt lat="38.35655477514954" lon="16.485164718124366"><ele>11.0</ele><time>2026-05-03T09:26:52Z</time></trkpt><trkpt lat="38.35667144736304" lon="16.48533332818479"><ele>10.666666666666666</ele><time>2026-05-03T09:26:53Z</time></trkpt><trkpt lat="38.356777530359395" lon="16.485487394377945"><ele>10.333333333333334</ele><time>2026-05-03T09:26:54Z</time></trkpt><trkpt lat="38.356878309049726" lon="16.48563133237277"><ele>10.0</ele><time>2026-05-03T09:26:55Z</time></trkpt><trkpt lat="38.35697988099183" lon="16.485780630969934"><ele>10.0</ele><time>2026-05-03T09:26:56Z</time></trkpt><trkpt lat="38.35708505679892" lon="16.485930983203936"><ele>10.0</ele><time>2026-05-03T09:26:57Z</time></trkpt><trkpt lat="38.35718998849549" lon="16.486088824266357"><ele>10.0</ele><time>2026-05-03T09:26:58Z</time></trkpt><trkpt lat="38.35730052439335" lon="16.486248290763896"><ele>9.333333333333334</ele><time>2026-05-03T09:26:59Z</time></trkpt><trkpt lat="38.35741461242153" lon="16.486410973858984"><ele>8.666666666666666</ele><time>2026-05-03T09:27:00Z</time></trkpt><trkpt lat="38.357521789684114" lon="16.486569032569104"><ele>8.0</ele><time>2026-05-03T09:27:01Z</time></trkpt><trkpt lat="38.35763309310371" lon="16.48673137064365"><ele>8.0</ele><time>2026-05-03T09:27:02Z</time></trkpt><trkpt lat="38.35774547933543" lon="16.486896253220397"><ele>8.0</ele><time>2026-05-03T09:27:03Z</time></trkpt><trkpt lat="38.35786342820554" lon="16.487061657004595"><ele>8.0</ele><time>2026-05-03T09:27:04Z</time></trkpt><trkpt lat="38.35798147045481" lon="16.487230726836607"><ele>8.333333333333332</ele><time>2026-05-03T09:27:05Z</time></trkpt><trkpt lat="38.35810101660466" lon="16.487398551819922"><ele>8.666666666666666</ele><time>2026-05-03T09:27:06Z</time></trkpt><trkpt lat="38.35821627330007" lon="16.487563871653993"><ele>9.0</ele><time>2026-05-03T09:27:07Z</time></trkpt><trkpt lat="38.358331791471656" lon="16.487731966881704"><ele>9.0</ele><time>2026-05-03T09:27:08Z</time></trkpt><trkpt lat="38.35845049057117" lon="16.487899136657298"><ele>9.0</ele><time>2026-05-03T09:27:09Z</time></trkpt><trkpt lat="38.35856315259833" lon="16.488069126420708"><ele>9.0</ele><time>2026-05-03T09:27:10Z</time></trkpt><trkpt lat="38.358676204730436" lon="16.488247278389313"><ele>8.666666666666666</ele><time>2026-05-03T09:27:11Z</time></trkpt><trkpt lat="38.35878959134839" lon="16.48843119957516"><ele>8.333333333333332</ele><time>2026-05-03T09:27:12Z</time></trkpt><trkpt lat="38.35889511708308" lon="16.488630669259276"><ele>8.0</ele><time>2026-05-03T09:27:13Z</time></trkpt><trkpt lat="38.358995599905214" lon="16.48883193405939"><ele>7.666666666666666</ele><time>2026-05-03T09:27:14Z</time></trkpt><trkpt lat="38.359098391078845" lon="16.489038330419987"><ele>7.333333333333334</ele><time>2026-05-03T09:27:15Z</time></trkpt><trkpt lat="38.35919779322468" lon="16.489245952100948"><ele>7.0</ele><time>2026-05-03T09:27:16Z</time></trkpt><trkpt lat="38.35929581824653" lon="16.489460443290923"><ele>7.333333333333334</ele><time>2026-05-03T09:27:17Z</time></trkpt><trkpt lat="38.35939169102164" lon="16.489673317233102"><ele>7.666666666666666</ele><time>2026-05-03T09:27:18Z</time></trkpt><trkpt lat="38.3594942863952" lon="16.489894827853103"><ele>8.0</ele><time>2026-05-03T09:27:19Z</time></trkpt><trkpt lat="38.35959594218733" lon="16.490116771999787"><ele>8.0</ele><time>2026-05-03T09:27:20Z</time></trkpt><trkpt lat="38.35969921816824" lon="16.490341364727964"><ele>8.0</ele><time>2026-05-03T09:27:21Z</time></trkpt><trkpt lat="38.359809828707846" lon="16.490573119019032"><ele>8.0</ele><time>2026-05-03T09:27:22Z</time></trkpt><trkpt lat="38.3599280029069" lon="16.490818979731127"><ele>7.666666666666666</ele><time>2026-05-03T09:27:23Z</time></trkpt><trkpt lat="38.36003835234088" lon="16.491037208544736"><ele>7.333333333333334</ele><time>2026-05-03T09:27:24Z</time></trkpt><trkpt lat="38.360150123084615" lon="16.49127171191633"><ele>7.0</ele><time>2026-05-03T09:27:25Z</time></trkpt><trkpt lat="38.360263837468196" lon="16.491513699216107"><ele>7.0</ele><time>2026-05-03T09:27:26Z</time></trkpt><trkpt lat="38.3603787250936" lon="16.491761895656612"><ele>7.0</ele><time>2026-05-03T09:27:27Z</time></trkpt><trkpt lat="38.3604955383951" lon="16.492013655806957"><ele>9.5</ele><time>2026-05-03T09:27:28Z</time></trkpt><trkpt lat="38.36061548172409" lon="16.492269026584335"><ele>12.0</ele><time>2026-05-03T09:27:28.999Z</time></trkpt><trkpt lat="38.36074407227654" lon="16.49253428653099"><ele>12.0</ele><time>2026-05-03T09:27:29.999Z</time></trkpt><trkpt lat="38.36088308696363" lon="16.49281476426038"><ele>12.0</ele><time>2026-05-03T09:27:30.999Z</time></trkpt><trkpt lat="38.361025621072415" lon="16.493101846497453"><ele>9.0</ele><time>2026-05-03T09:27:31.999Z</time></trkpt><trkpt lat="38.3611696597675" lon="16.493377525433072"><ele>6.0</ele><time>2026-05-03T09:27:32.999Z</time></trkpt><trkpt lat="38.361314581866495" lon="16.493627681090306"><ele>6.5</ele><time>2026-05-03T09:27:34Z</time></trkpt><trkpt lat="38.36147295403683" lon="16.493871313891077"><ele>7.0</ele><time>2026-05-03T09:27:35Z</time></trkpt><trkpt lat="38.36163157999093" lon="16.494103574023054"><ele>7.0</ele><time>2026-05-03T09:27:36Z</time></trkpt><trkpt lat="38.36179745204368" lon="16.494333832668204"><ele>7.0</ele><time>2026-05-03T09:27:37Z</time></trkpt><trkpt lat="38.3619632374439" lon="16.49455678724503"><ele>6.5</ele><time>2026-05-03T09:27:38Z</time></trkpt><trkpt lat="38.36212968480923" lon="16.49477452685858"><ele>6.0</ele><time>2026-05-03T09:27:39Z</time></trkpt><trkpt lat="38.3622934881553" lon="16.494988983970934"><ele>7.0</ele><time>2026-05-03T09:27:40Z</time></trkpt><trkpt lat="38.3624532584115" lon="16.495202950547025"><ele>8.0</ele><time>2026-05-03T09:27:41Z</time></trkpt><trkpt lat="38.3626109797604" lon="16.495412307494508"><ele>7.5</ele><time>2026-05-03T09:27:42Z</time></trkpt><trkpt lat="38.36276952628674" lon="16.495621302902627"><ele>7.0</ele><time>2026-05-03T09:27:43Z</time></trkpt><trkpt lat="38.36293043581585" lon="16.49583426016293"><ele>7.5</ele><time>2026-05-03T09:27:44Z</time></trkpt><trkpt lat="38.363095329933444" lon="16.496052391041577"><ele>8.0</ele><time>2026-05-03T09:27:45Z</time></trkpt><trkpt lat="38.3632670905286" lon="16.49627222385002"><ele>8.0</ele><time>2026-05-03T09:27:46Z</time></trkpt><trkpt lat="38.363440174298184" lon="16.496485722871604"><ele>8.0</ele><time>2026-05-03T09:27:47Z</time></trkpt><trkpt lat="38.3636165697245" lon="16.49669621499676"><ele>8.0</ele><time>2026-05-03T09:27:48Z</time></trkpt><trkpt lat="38.363792798139684" lon="16.496902563006905"><ele>8.0</ele><time>2026-05-03T09:27:49Z</time></trkpt><trkpt lat="38.36396912406738" lon="16.497110728303383"><ele>8.0</ele><time>2026-05-03T09:27:50Z</time></trkpt><trkpt lat="38.36414577870469" lon="16.49732072037795"><ele>8.0</ele><time>2026-05-03T09:27:51Z</time></trkpt><trkpt lat="38.36432339624907" lon="16.49752889691435"><ele>8.0</ele><time>2026-05-03T09:27:52Z</time></trkpt><trkpt lat="38.36449635788019" lon="16.497739795713212"><ele>8.0</ele><time>2026-05-03T09:27:53Z</time></trkpt><trkpt lat="38.364675003224676" lon="16.49795347113375"><ele>9.5</ele><time>2026-05-03T09:27:54Z</time></trkpt><trkpt lat="38.36484667192906" lon="16.49815927450071"><ele>11.0</ele><time>2026-05-03T09:27:55Z</time></trkpt><trkpt lat="38.3650223991185" lon="16.49836584677063"><ele>11.0</ele><time>2026-05-03T09:27:56Z</time></trkpt><trkpt lat="38.365198120076016" lon="16.498573027519615"><ele>11.0</ele><time>2026-05-03T09:27:57Z</time></trkpt><trkpt lat="38.365367954149" lon="16.49877529638115"><ele>10.5</ele><time>2026-05-03T09:27:58Z</time></trkpt><trkpt lat="38.36554121255033" lon="16.498980486839887"><ele>10.0</ele><time>2026-05-03T09:27:59Z</time></trkpt><trkpt lat="38.365709912921865" lon="16.499186834759417"><ele>10.0</ele><time>2026-05-03T09:28:00Z</time></trkpt><trkpt lat="38.36588228990097" lon="16.499395749667183"><ele>10.0</ele><time>2026-05-03T09:28:01Z</time></trkpt><trkpt lat="38.36605281714809" lon="16.499606555787466"><ele>9.5</ele><time>2026-05-03T09:28:02Z</time></trkpt><trkpt lat="38.36622709156835" lon="16.4998113912223"><ele>9.0</ele><time>2026-05-03T09:28:03Z</time></trkpt><trkpt lat="38.3664050776321" lon="16.50000987683087"><ele>8.0</ele><time>2026-05-03T09:28:04Z</time></trkpt><trkpt lat="38.36657465859231" lon="16.500213620139768"><ele>7.0</ele><time>2026-05-03T09:28:05Z</time></trkpt><trkpt lat="38.36674787760806" lon="16.500419197364003"><ele>7.0</ele><time>2026-05-03T09:28:06Z</time></trkpt><trkpt lat="38.36691855126613" lon="16.5006223802156"><ele>7.0</ele><time>2026-05-03T09:28:07Z</time></trkpt><trkpt lat="38.36708942934463" lon="16.5008316840939"><ele>8.0</ele><time>2026-05-03T09:28:08Z</time></trkpt><trkpt lat="38.367267877594166" lon="16.501047179351808"><ele>9.0</ele><time>2026-05-03T09:28:09Z</time></trkpt><trkpt lat="38.36745588935167" lon="16.501264075044634"><ele>9.0</ele><time>2026-05-03T09:28:10Z</time></trkpt><trkpt lat="38.367645488799454" lon="16.50146678979375"><ele>9.0</ele><time>2026-05-03T09:28:11Z</time></trkpt><trkpt lat="38.36784571241034" lon="16.501679036416206"><ele>10.5</ele><time>2026-05-03T09:28:12Z</time></trkpt><trkpt lat="38.368069855236655" lon="16.501876016428042"><ele>12.0</ele><time>2026-05-03T09:28:13Z</time></trkpt><trkpt lat="38.36830608936943" lon="16.50205947957182"><ele>10.0</ele><time>2026-05-03T09:28:14Z</time></trkpt><trkpt lat="38.368550795988234" lon="16.502217775687804"><ele>8.0</ele><time>2026-05-03T09:28:15Z</time></trkpt><trkpt lat="38.368807842698075" lon="16.5023487291172"><ele>11.5</ele><time>2026-05-03T09:28:16Z</time></trkpt><trkpt lat="38.36909599916097" lon="16.502465418810534"><ele>15.0</ele><time>2026-05-03T09:28:17Z</time></trkpt><trkpt lat="38.3693774796756" lon="16.502576369306944"><ele>15.0</ele><time>2026-05-03T09:28:18Z</time></trkpt><trkpt lat="38.36965432943819" lon="16.5027232019318"><ele>15.0</ele><time>2026-05-03T09:28:19Z</time></trkpt><trkpt lat="38.36990477131925" lon="16.502881578191385"><ele>14.5</ele><time>2026-05-03T09:28:20Z</time></trkpt><trkpt lat="38.37012503919675" lon="16.503075459156122"><ele>14.0</ele><time>2026-05-03T09:28:21Z</time></trkpt><trkpt lat="38.370328820271794" lon="16.503321869745246"><ele>14.0</ele><time>2026-05-03T09:28:22Z</time></trkpt><trkpt lat="38.370490591108876" lon="16.503602266713543"><ele>14.0</ele><time>2026-05-03T09:28:23Z</time></trkpt><trkpt lat="38.370610827109786" lon="16.50389454048578"><ele>15.5</ele><time>2026-05-03T09:28:24Z</time></trkpt><trkpt lat="38.37070152458411" lon="16.50420767377016"><ele>17.0</ele><time>2026-05-03T09:28:25Z</time></trkpt><trkpt lat="38.37076631077464" lon="16.504517883060227"><ele>14.0</ele><time>2026-05-03T09:28:26Z</time></trkpt><trkpt lat="38.37080786440562" lon="16.50484056581535"><ele>11.0</ele><time>2026-05-03T09:28:27Z</time></trkpt><trkpt lat="38.37076400775437" lon="16.50520196614902"><ele>10.0</ele><time>2026-05-03T09:28:28Z</time></trkpt><trkpt lat="38.370735026385496" lon="16.50551623824507"><ele>9.0</ele><time>2026-05-03T09:28:29Z</time></trkpt><trkpt lat="38.37071006356458" lon="16.50584094537355"><ele>9.0</ele><time>2026-05-03T09:28:30Z</time></trkpt><trkpt lat="38.37070700292414" lon="16.506158878948483"><ele>9.0</ele><time>2026-05-03T09:28:31Z</time></trkpt><trkpt lat="38.37073939977553" lon="16.5064779314947"><ele>8.5</ele><time>2026-05-03T09:28:32Z</time></trkpt><trkpt lat="38.37080493381462" lon="16.506783808153898"><ele>8.0</ele><time>2026-05-03T09:28:33Z</time></trkpt><trkpt lat="38.37090289657462" lon="16.50708381162447"><ele>6.5</ele><time>2026-05-03T09:28:34Z</time></trkpt><trkpt lat="38.3710366343378" lon="16.50737007013367"><ele>5.0</ele><time>2026-05-03T09:28:35Z</time></trkpt><trkpt lat="38.37121544263166" lon="16.507624945671477"><ele>5.0</ele><time>2026-05-03T09:28:36Z</time></trkpt><trkpt lat="38.37141058661745" lon="16.507863008982437"><ele>5.0</ele><time>2026-05-03T09:28:37Z</time></trkpt><trkpt lat="38.3716398243177" lon="16.508078155087137"><ele>5.0</ele><time>2026-05-03T09:28:38Z</time></trkpt><trkpt lat="38.371879445390476" lon="16.508285809154682"><ele>5.0</ele><time>2026-05-03T09:28:39Z</time></trkpt><trkpt lat="38.372113182162174" lon="16.508493654518027"><ele>6.0</ele><time>2026-05-03T09:28:40Z</time></trkpt><trkpt lat="38.37233564366327" lon="16.5087002756756"><ele>7.0</ele><time>2026-05-03T09:28:41Z</time></trkpt><trkpt lat="38.37255786617365" lon="16.508913155869983"><ele>7.5</ele><time>2026-05-03T09:28:42Z</time></trkpt><trkpt lat="38.372775242357804" lon="16.509114918971566"><ele>8.0</ele><time>2026-05-03T09:28:43Z</time></trkpt><trkpt lat="38.372995192159756" lon="16.50931905704009"><ele>8.0</ele><time>2026-05-03T09:28:44Z</time></trkpt><trkpt lat="38.37321531935989" lon="16.509524155219964"><ele>8.0</ele><time>2026-05-03T09:28:45Z</time></trkpt><trkpt lat="38.37343225563494" lon="16.509721204251747"><ele>8.0</ele><time>2026-05-03T09:28:46Z</time></trkpt><trkpt lat="38.37364753615204" lon="16.509921326950685"><ele>8.0</ele><time>2026-05-03T09:28:47Z</time></trkpt><trkpt lat="38.37386015661488" lon="16.510123652955713"><ele>8.5</ele><time>2026-05-03T09:28:48Z</time></trkpt><trkpt lat="38.37406970334185" lon="16.510322824384264"><ele>9.0</ele><time>2026-05-03T09:28:49Z</time></trkpt><trkpt lat="38.37427752361522" lon="16.510523987484525"><ele>9.0</ele><time>2026-05-03T09:28:50Z</time></trkpt><trkpt lat="38.37448782455405" lon="16.510725771961166"><ele>9.0</ele><time>2026-05-03T09:28:51Z</time></trkpt><trkpt lat="38.37468982022291" lon="16.510930168580682"><ele>9.0</ele><time>2026-05-03T09:28:52Z</time></trkpt><trkpt lat="38.37490102968068" lon="16.511127807159678"><ele>9.0</ele><time>2026-05-03T09:28:53Z</time></trkpt><trkpt lat="38.37511028744915" lon="16.511326127263068"><ele>9.5</ele><time>2026-05-03T09:28:54Z</time></trkpt><trkpt lat="38.37532087969271" lon="16.511522610088747"><ele>10.0</ele><time>2026-05-03T09:28:55Z</time></trkpt><trkpt lat="38.375534585990614" lon="16.51171438440844"><ele>9.0</ele><time>2026-05-03T09:28:56Z</time></trkpt><trkpt lat="38.375750517110475" lon="16.511926080037515"><ele>8.0</ele><time>2026-05-03T09:28:57Z</time></trkpt><trkpt lat="38.375933680179145" lon="16.512138853604014"><ele>7.5</ele><time>2026-05-03T09:28:58Z</time></trkpt><trkpt lat="38.37612632700401" lon="16.512359522829755"><ele>7.0</ele><time>2026-05-03T09:28:59Z</time></trkpt><trkpt lat="38.37631639080991" lon="16.51259307508263"><ele>7.5</ele><time>2026-05-03T09:29:00Z</time></trkpt><trkpt lat="38.37650423424601" lon="16.51283156860154"><ele>8.0</ele><time>2026-05-03T09:29:01Z</time></trkpt><trkpt lat="38.37668987656841" lon="16.513068358643153"><ele>7.0</ele><time>2026-05-03T09:29:02Z</time></trkpt><trkpt lat="38.37687421229034" lon="16.513310369994528"><ele>6.0</ele><time>2026-05-03T09:29:03Z</time></trkpt><trkpt lat="38.37706073017366" lon="16.51355341127929"><ele>6.5</ele><time>2026-05-03T09:29:04Z</time></trkpt><trkpt lat="38.3772423755225" lon="16.513795499640363"><ele>7.0</ele><time>2026-05-03T09:29:05Z</time></trkpt><trkpt lat="38.37742366088079" lon="16.5140455563003"><ele>7.0</ele><time>2026-05-03T09:29:06Z</time></trkpt><trkpt lat="38.377613093938294" lon="16.51429923371089"><ele>7.0</ele><time>2026-05-03T09:29:07Z</time></trkpt><trkpt lat="38.37779860430378" lon="16.514551685102877"><ele>7.0</ele><time>2026-05-03T09:29:08Z</time></trkpt><trkpt lat="38.37799048149859" lon="16.51480911343782"><ele>7.0</ele><time>2026-05-03T09:29:09Z</time></trkpt><trkpt lat="38.37817946655383" lon="16.51506273950394"><ele>7.0</ele><time>2026-05-03T09:29:10Z</time></trkpt><trkpt lat="38.378375399641044" lon="16.51531898255793"><ele>7.0</ele><time>2026-05-03T09:29:11Z</time></trkpt><trkpt lat="38.37857708072813" lon="16.51558887191651"><ele>7.0</ele><time>2026-05-03T09:29:12Z</time></trkpt><trkpt lat="38.37877036376309" lon="16.51585051227644"><ele>7.0</ele><time>2026-05-03T09:29:13Z</time></trkpt><trkpt lat="38.37896174453067" lon="16.516101565772036"><ele>6.5</ele><time>2026-05-03T09:29:14Z</time></trkpt><trkpt lat="38.3791537241608" lon="16.516354425313654"><ele>6.0</ele><time>2026-05-03T09:29:15Z</time></trkpt><trkpt lat="38.37934704099956" lon="16.51660722739765"><ele>6.0</ele><time>2026-05-03T09:29:16Z</time></trkpt><trkpt lat="38.37953755358753" lon="16.516869094241702"><ele>6.0</ele><time>2026-05-03T09:29:17Z</time></trkpt><trkpt lat="38.37972115772963" lon="16.51712167464075"><ele>6.5</ele><time>2026-05-03T09:29:18Z</time></trkpt><trkpt lat="38.37990127778499" lon="16.51737658648303"><ele>7.0</ele><time>2026-05-03T09:29:19Z</time></trkpt><trkpt lat="38.38009089157764" lon="16.517621495918014"><ele>7.0</ele><time>2026-05-03T09:29:20Z</time></trkpt><trkpt lat="38.38026430190101" lon="16.51786023543473"><ele>7.0</ele><time>2026-05-03T09:29:21Z</time></trkpt><trkpt lat="38.38044336376929" lon="16.51808640395429"><ele>7.5</ele><time>2026-05-03T09:29:22Z</time></trkpt><trkpt lat="38.38062165295617" lon="16.51831819457487"><ele>8.0</ele><time>2026-05-03T09:29:23Z</time></trkpt><trkpt lat="38.3807959680457" lon="16.51854875127528"><ele>7.0</ele><time>2026-05-03T09:29:24Z</time></trkpt><trkpt lat="38.380961707305765" lon="16.51877559311647"><ele>6.0</ele><time>2026-05-03T09:29:25Z</time></trkpt><trkpt lat="38.38112986829784" lon="16.51899926392042"><ele>6.0</ele><time>2026-05-03T09:29:26Z</time></trkpt><trkpt lat="38.3812887552203" lon="16.519210165509833"><ele>6.0</ele><time>2026-05-03T09:29:27Z</time></trkpt><trkpt lat="38.38144529952175" lon="16.51941369259983"><ele>6.0</ele><time>2026-05-03T09:29:28Z</time></trkpt><trkpt lat="38.38159656001311" lon="16.519621992676537"><ele>6.0</ele><time>2026-05-03T09:29:29Z</time></trkpt><trkpt lat="38.38175414531034" lon="16.519828213622002"><ele>6.0</ele><time>2026-05-03T09:29:30Z</time></trkpt><trkpt lat="38.38190510903458" lon="16.520028969431582"><ele>6.0</ele><time>2026-05-03T09:29:31Z</time></trkpt><trkpt lat="38.38205308802483" lon="16.520222498339162"><ele>6.0</ele><time>2026-05-03T09:29:32Z</time></trkpt><trkpt lat="38.38220168265996" lon="16.520428532479656"><ele>6.0</ele><time>2026-05-03T09:29:33Z</time></trkpt><trkpt lat="38.382342882225075" lon="16.52063071520756"><ele>6.333333333333334</ele><time>2026-05-03T09:29:34Z</time></trkpt><trkpt lat="38.382476166490605" lon="16.52083160772809"><ele>6.666666666666667</ele><time>2026-05-03T09:29:35Z</time></trkpt><trkpt lat="38.3826206809703" lon="16.521027853889247"><ele>7.0</ele><time>2026-05-03T09:29:36Z</time></trkpt><trkpt lat="38.38275919683132" lon="16.52122179243411"><ele>7.333333333333334</ele><time>2026-05-03T09:29:37Z</time></trkpt><trkpt lat="38.382895049665" lon="16.521435991179068"><ele>7.666666666666666</ele><time>2026-05-03T09:29:38Z</time></trkpt><trkpt lat="38.38303955749309" lon="16.521626790271647"><ele>8.0</ele><time>2026-05-03T09:29:39Z</time></trkpt><trkpt lat="38.38319214145799" lon="16.521824105083596"><ele>8.0</ele><time>2026-05-03T09:29:40Z</time></trkpt><trkpt lat="38.38334990479367" lon="16.522029663833514"><ele>8.0</ele><time>2026-05-03T09:29:41Z</time></trkpt><trkpt lat="38.38349697114956" lon="16.522240141029325"><ele>8.0</ele><time>2026-05-03T09:29:42Z</time></trkpt><trkpt lat="38.38365417136832" lon="16.522456216211708"><ele>5.5</ele><time>2026-05-03T09:29:43Z</time></trkpt><trkpt lat="38.38381035086356" lon="16.522672281525036"><ele>3.0</ele><time>2026-05-03T09:29:44Z</time></trkpt><trkpt lat="38.38396871911802" lon="16.522897932209688"><ele>3.0</ele><time>2026-05-03T09:29:45Z</time></trkpt><trkpt lat="38.38412770258736" lon="16.52311821682264"><ele>3.0</ele><time>2026-05-03T09:29:46Z</time></trkpt><trkpt lat="38.38429263452543" lon="16.523343711959704"><ele>3.0</ele><time>2026-05-03T09:29:47Z</time></trkpt><trkpt lat="38.384456195212934" lon="16.523570943748222"><ele>3.0</ele><time>2026-05-03T09:29:48Z</time></trkpt><trkpt lat="38.38462400195311" lon="16.523807513228213"><ele>4.0</ele><time>2026-05-03T09:29:49Z</time></trkpt><trkpt lat="38.38479299190281" lon="16.52403950914287"><ele>5.0</ele><time>2026-05-03T09:29:50Z</time></trkpt><trkpt lat="38.38495916101865" lon="16.524274079433"><ele>5.0</ele><time>2026-05-03T09:29:51Z</time></trkpt><trkpt lat="38.38512501220033" lon="16.52450575170215"><ele>5.0</ele><time>2026-05-03T09:29:52Z</time></trkpt><trkpt lat="38.38529044993425" lon="16.524739859311453"><ele>5.0</ele><time>2026-05-03T09:29:53Z</time></trkpt><trkpt lat="38.38545906138849" lon="16.524970432156294"><ele>5.0</ele><time>2026-05-03T09:29:54Z</time></trkpt><trkpt lat="38.385629819679046" lon="16.525198802582228"><ele>4.0</ele><time>2026-05-03T09:29:55Z</time></trkpt><trkpt lat="38.38580066697118" lon="16.52542722039721"><ele>3.0</ele><time>2026-05-03T09:29:56Z</time></trkpt><trkpt lat="38.385972838710515" lon="16.52565828339139"><ele>3.0</ele><time>2026-05-03T09:29:57Z</time></trkpt><trkpt lat="38.38615565968159" lon="16.525896313927497"><ele>3.0</ele><time>2026-05-03T09:29:58Z</time></trkpt><trkpt lat="38.38634929650739" lon="16.526120650036816"><ele>4.5</ele><time>2026-05-03T09:29:59Z</time></trkpt><trkpt lat="38.386556823684636" lon="16.526324001648163"><ele>6.0</ele><time>2026-05-03T09:30:00Z</time></trkpt><trkpt lat="38.38675041761462" lon="16.526493075348732"><ele>6.0</ele><time>2026-05-03T09:30:01Z</time></trkpt><trkpt lat="38.386934380291024" lon="16.5266288115004"><ele>6.0</ele><time>2026-05-03T09:30:02Z</time></trkpt><trkpt lat="38.38711980249254" lon="16.526751976730804"><ele>6.0</ele><time>2026-05-03T09:30:03Z</time></trkpt><trkpt lat="38.38730306171162" lon="16.52686707356679"><ele>6.333333333333334</ele><time>2026-05-03T09:30:04Z</time></trkpt><trkpt lat="38.38749287134508" lon="16.52698956826278"><ele>6.666666666666667</ele><time>2026-05-03T09:30:05Z</time></trkpt><trkpt lat="38.38768083761649" lon="16.527121954339965"><ele>7.0</ele><time>2026-05-03T09:30:06Z</time></trkpt><trkpt lat="38.3878653511393" lon="16.52725281608665"><ele>7.666666666666667</ele><time>2026-05-03T09:30:07Z</time></trkpt><trkpt lat="38.38803477158975" lon="16.527379925905155"><ele>8.333333333333334</ele><time>2026-05-03T09:30:08Z</time></trkpt><trkpt lat="38.388188951644274" lon="16.527503183129323"><ele>9.0</ele><time>2026-05-03T09:30:09Z</time></trkpt><trkpt lat="38.388330151171154" lon="16.527620099054005"><ele>9.0</ele><time>2026-05-03T09:30:10Z</time></trkpt><trkpt lat="38.38846362761973" lon="16.527736526195426"><ele>9.0</ele><time>2026-05-03T09:30:11Z</time></trkpt><trkpt lat="38.388595270392145" lon="16.527860077601584"><ele>9.0</ele><time>2026-05-03T09:30:12Z</time></trkpt><trkpt lat="38.38870901619809" lon="16.52799733232648"><ele>8.333333333333334</ele><time>2026-05-03T09:30:13Z</time></trkpt><trkpt lat="38.38881516900832" lon="16.52813065798224"><ele>7.666666666666667</ele><time>2026-05-03T09:30:14Z</time></trkpt><trkpt lat="38.38892610658786" lon="16.528275351036935"><ele>7.0</ele><time>2026-05-03T09:30:15Z</time></trkpt><trkpt lat="38.38903329744886" lon="16.528419532141335"><ele>8.0</ele><time>2026-05-03T09:30:16Z</time></trkpt><trkpt lat="38.38914689451018" lon="16.528568027078375"><ele>9.0</ele><time>2026-05-03T09:30:17Z</time></trkpt><trkpt lat="38.38926333875198" lon="16.528717751809328"><ele>10.0</ele><time>2026-05-03T09:30:18Z</time></trkpt><trkpt lat="38.389379651454114" lon="16.52887541069359"><ele>10.0</ele><time>2026-05-03T09:30:19Z</time></trkpt><trkpt lat="38.389496637053924" lon="16.5290291472861"><ele>10.0</ele><time>2026-05-03T09:30:20Z</time></trkpt><trkpt lat="38.389617003597955" lon="16.52918312021918"><ele>10.0</ele><time>2026-05-03T09:30:21Z</time></trkpt><trkpt lat="38.38974900904529" lon="16.529337937056336"><ele>10.333333333333334</ele><time>2026-05-03T09:30:22Z</time></trkpt><trkpt lat="38.38987251721928" lon="16.52949967007599"><ele>10.666666666666666</ele><time>2026-05-03T09:30:23Z</time></trkpt><trkpt lat="38.39000070160418" lon="16.529661287321947"><ele>11.0</ele><time>2026-05-03T09:30:24Z</time></trkpt><trkpt lat="38.3901376456013" lon="16.529829502948868"><ele>11.0</ele><time>2026-05-03T09:30:25Z</time></trkpt><trkpt lat="38.390272870789644" lon="16.529997935175246"><ele>11.0</ele><time>2026-05-03T09:30:26Z</time></trkpt><trkpt lat="38.39040972831347" lon="16.530165105406944"><ele>11.0</ele><time>2026-05-03T09:30:27Z</time></trkpt><trkpt lat="38.39054783302337" lon="16.530330402190497"><ele>10.0</ele><time>2026-05-03T09:30:28Z</time></trkpt><trkpt lat="38.39067946896907" lon="16.530494613429173"><ele>9.0</ele><time>2026-05-03T09:30:29Z</time></trkpt><trkpt lat="38.39081499379101" lon="16.530662516163076"><ele>8.0</ele><time>2026-05-03T09:30:30Z</time></trkpt><trkpt lat="38.390951039827144" lon="16.530830980664593"><ele>8.0</ele><time>2026-05-03T09:30:31Z</time></trkpt><trkpt lat="38.391089347254216" lon="16.531000141106848"><ele>8.0</ele><time>2026-05-03T09:30:32Z</time></trkpt><trkpt lat="38.3912197086687" lon="16.53116755797623"><ele>8.0</ele><time>2026-05-03T09:30:33Z</time></trkpt><trkpt lat="38.39134955487792" lon="16.53133568667936"><ele>8.333333333333332</ele><time>2026-05-03T09:30:34Z</time></trkpt><trkpt lat="38.391485154220355" lon="16.531502523215266"><ele>8.666666666666666</ele><time>2026-05-03T09:30:35Z</time></trkpt><trkpt lat="38.391619136380555" lon="16.53166795709417"><ele>9.0</ele><time>2026-05-03T09:30:36Z</time></trkpt><trkpt lat="38.39174813980589" lon="16.53182478578615"><ele>9.0</ele><time>2026-05-03T09:30:37Z</time></trkpt><trkpt lat="38.39186768732965" lon="16.53196829681594"><ele>9.0</ele><time>2026-05-03T09:30:38Z</time></trkpt><trkpt lat="38.39198319682291" lon="16.532106587817154"><ele>9.0</ele><time>2026-05-03T09:30:39Z</time></trkpt><trkpt lat="38.39210359657353" lon="16.53225425311916"><ele>8.666666666666666</ele><time>2026-05-03T09:30:40Z</time></trkpt><trkpt lat="38.392242396023704" lon="16.53241509575416"><ele>8.333333333333332</ele><time>2026-05-03T09:30:41Z</time></trkpt><trkpt lat="38.392377816901785" lon="16.532565351498803"><ele>8.0</ele><time>2026-05-03T09:30:42Z</time></trkpt><trkpt lat="38.39251850038481" lon="16.53272339488059"><ele>8.0</ele><time>2026-05-03T09:30:43Z</time></trkpt><trkpt lat="38.39265279578991" lon="16.5328692248168"><ele>8.0</ele><time>2026-05-03T09:30:44Z</time></trkpt><trkpt lat="38.39279602915462" lon="16.533036935240098"><ele>8.0</ele><time>2026-05-03T09:30:45Z</time></trkpt><trkpt lat="38.39295395080339" lon="16.533191503803526"><ele>7.333333333333333</ele><time>2026-05-03T09:30:46Z</time></trkpt><trkpt lat="38.39310547362261" lon="16.533378610622368"><ele>6.666666666666666</ele><time>2026-05-03T09:30:47Z</time></trkpt><trkpt lat="38.39328033568483" lon="16.533548563314245"><ele>6.0</ele><time>2026-05-03T09:30:48Z</time></trkpt><trkpt lat="38.39343991320787" lon="16.533733425826057"><ele>6.0</ele><time>2026-05-03T09:30:49Z</time></trkpt><trkpt lat="38.39360060122767" lon="16.533919803931447"><ele>6.0</ele><time>2026-05-03T09:30:50Z</time></trkpt><trkpt lat="38.39376289557835" lon="16.53410390373682"><ele>6.0</ele><time>2026-05-03T09:30:51Z</time></trkpt><trkpt lat="38.39392626922448" lon="16.534288735718206"><ele>6.333333333333334</ele><time>2026-05-03T09:30:52Z</time></trkpt><trkpt lat="38.39409272003587" lon="16.534475837444838"><ele>6.666666666666667</ele><time>2026-05-03T09:30:53Z</time></trkpt><trkpt lat="38.39425590321875" lon="16.534664760755867"><ele>7.0</ele><time>2026-05-03T09:30:54Z</time></trkpt><trkpt lat="38.394415039515316" lon="16.53485334423822"><ele>7.0</ele><time>2026-05-03T09:30:55Z</time></trkpt><trkpt lat="38.394584055344396" lon="16.53504582235438"><ele>7.0</ele><time>2026-05-03T09:30:56Z</time></trkpt><trkpt lat="38.394728192284845" lon="16.53522264571011"><ele>7.0</ele><time>2026-05-03T09:30:57Z</time></trkpt><trkpt lat="38.39488364945832" lon="16.535403278895732"><ele>7.0</ele><time>2026-05-03T09:30:58Z</time></trkpt><trkpt lat="38.39504852051918" lon="16.535577836827414"><ele>7.0</ele><time>2026-05-03T09:30:59Z</time></trkpt><trkpt lat="38.39519482251296" lon="16.535756481421075"><ele>7.0</ele><time>2026-05-03T09:31:00Z</time></trkpt><trkpt lat="38.39533710409261" lon="16.535923553116913"><ele>7.0</ele><time>2026-05-03T09:31:01Z</time></trkpt><trkpt lat="38.39546693653062" lon="16.536083809245156"><ele>7.0</ele><time>2026-05-03T09:31:02.001Z</time></trkpt><trkpt lat="38.395597040472666" lon="16.536239363300165"><ele>7.0</ele><time>2026-05-03T09:31:03.001Z</time></trkpt><trkpt lat="38.3957226926929" lon="16.53639497691006"><ele>7.333333333333334</ele><time>2026-05-03T09:31:04.001Z</time></trkpt><trkpt lat="38.39585603583811" lon="16.536545835927388"><ele>7.666666666666666</ele><time>2026-05-03T09:31:05.001Z</time></trkpt><trkpt lat="38.395990384786224" lon="16.53670268555912"><ele>8.0</ele><time>2026-05-03T09:31:06.001Z</time></trkpt><trkpt lat="38.396129690454" lon="16.536866774745523"><ele>8.0</ele><time>2026-05-03T09:31:07.001Z</time></trkpt><trkpt lat="38.39626914669846" lon="16.537034693519537"><ele>8.0</ele><time>2026-05-03T09:31:08.001Z</time></trkpt><trkpt lat="38.396411954453896" lon="16.537204449550142"><ele>8.0</ele><time>2026-05-03T09:31:09.001Z</time></trkpt><trkpt lat="38.39655427076161" lon="16.53737414149286"><ele>8.333333333333332</ele><time>2026-05-03T09:31:10.001Z</time></trkpt><trkpt lat="38.39670242821288" lon="16.537546772076077"><ele>8.666666666666666</ele><time>2026-05-03T09:31:11.001Z</time></trkpt><trkpt lat="38.39684898310641" lon="16.537722847507318"><ele>9.0</ele><time>2026-05-03T09:31:12.001Z</time></trkpt><trkpt lat="38.39700586530519" lon="16.537911077579814"><ele>8.666666666666666</ele><time>2026-05-03T09:31:13.001Z</time></trkpt><trkpt lat="38.39713710575215" lon="16.538080885455145"><ele>8.333333333333332</ele><time>2026-05-03T09:31:14.001Z</time></trkpt><trkpt lat="38.39731031310582" lon="16.53827641496391"><ele>8.0</ele><time>2026-05-03T09:31:15.001Z</time></trkpt><trkpt lat="38.397465769646516" lon="16.53846922945205"><ele>8.0</ele><time>2026-05-03T09:31:16.001Z</time></trkpt><trkpt lat="38.397620634194034" lon="16.538664665412497"><ele>8.0</ele><time>2026-05-03T09:31:17.001Z</time></trkpt><trkpt lat="38.39777450795978" lon="16.538864538196663"><ele>8.0</ele><time>2026-05-03T09:31:18.001Z</time></trkpt><trkpt lat="38.397931608891554" lon="16.539068943075417"><ele>8.333333333333332</ele><time>2026-05-03T09:31:19.001Z</time></trkpt><trkpt lat="38.39808567452868" lon="16.539273305422892"><ele>8.666666666666666</ele><time>2026-05-03T09:31:20.001Z</time></trkpt><trkpt lat="38.39824569453605" lon="16.539476757498782"><ele>9.0</ele><time>2026-05-03T09:31:21.001Z</time></trkpt><trkpt lat="38.398405310310146" lon="16.539679057377533"><ele>9.0</ele><time>2026-05-03T09:31:22.001Z</time></trkpt><trkpt lat="38.39854171268042" lon="16.539884226804624"><ele>9.0</ele><time>2026-05-03T09:31:23.001Z</time></trkpt><trkpt lat="38.398672055245285" lon="16.54008923360412"><ele>9.0</ele><time>2026-05-03T09:31:24.001Z</time></trkpt><trkpt lat="38.398855400221606" lon="16.540281057541325"><ele>8.666666666666666</ele><time>2026-05-03T09:31:25.001Z</time></trkpt><trkpt lat="38.3990086518502" lon="16.540484451713322"><ele>8.333333333333332</ele><time>2026-05-03T09:31:26.001Z</time></trkpt><trkpt lat="38.39915895433035" lon="16.540686170498226"><ele>8.0</ele><time>2026-05-03T09:31:27.001Z</time></trkpt><trkpt lat="38.39931401555261" lon="16.540880150034727"><ele>8.0</ele><time>2026-05-03T09:31:28.001Z</time></trkpt><trkpt lat="38.399463677095376" lon="16.541076489908523"><ele>8.0</ele><time>2026-05-03T09:31:29.001Z</time></trkpt><trkpt lat="38.3996105774268" lon="16.54127440006337"><ele>8.0</ele><time>2026-05-03T09:31:30.001Z</time></trkpt><trkpt lat="38.39976145399027" lon="16.541469867238806"><ele>8.333333333333332</ele><time>2026-05-03T09:31:31.001Z</time></trkpt><trkpt lat="38.39991475389708" lon="16.541667788053054"><ele>8.666666666666666</ele><time>2026-05-03T09:31:32.001Z</time></trkpt><trkpt lat="38.40006944149434" lon="16.541862312093382"><ele>9.0</ele><time>2026-05-03T09:31:33.001Z</time></trkpt><trkpt lat="38.40023278117707" lon="16.542053362520505"><ele>8.5</ele><time>2026-05-03T09:31:34.001Z</time></trkpt><trkpt lat="38.400407339886684" lon="16.542241302201052"><ele>8.0</ele><time>2026-05-03T09:31:35.001Z</time></trkpt><trkpt lat="38.400586552321876" lon="16.542428125178613"><ele>8.0</ele><time>2026-05-03T09:31:36.001Z</time></trkpt><trkpt lat="38.40074294307102" lon="16.542636187674532"><ele>8.0</ele><time>2026-05-03T09:31:37.001Z</time></trkpt><trkpt lat="38.40093512765543" lon="16.54281034818435"><ele>6.5</ele><time>2026-05-03T09:31:38.001Z</time></trkpt><trkpt lat="38.4011130719613" lon="16.542999611883282"><ele>5.0</ele><time>2026-05-03T09:31:39.001Z</time></trkpt><trkpt lat="38.4012940405507" lon="16.543182568444095"><ele>7.0</ele><time>2026-05-03T09:31:40.001Z</time></trkpt><trkpt lat="38.40147379958795" lon="16.54336297381671"><ele>9.0</ele><time>2026-05-03T09:31:41Z</time></trkpt><trkpt lat="38.4016531667403" lon="16.543540628113945"><ele>8.5</ele><time>2026-05-03T09:31:42Z</time></trkpt><trkpt lat="38.40182919158022" lon="16.543715851131484"><ele>8.0</ele><time>2026-05-03T09:31:43Z</time></trkpt><trkpt lat="38.402008642877895" lon="16.543895428015936"><ele>8.0</ele><time>2026-05-03T09:31:44Z</time></trkpt><trkpt lat="38.40218075497858" lon="16.54407326558863"><ele>8.0</ele><time>2026-05-03T09:31:45Z</time></trkpt><trkpt lat="38.40235939069204" lon="16.54425545878357"><ele>8.0</ele><time>2026-05-03T09:31:46Z</time></trkpt><trkpt lat="38.402535032438905" lon="16.544431398824468"><ele>8.0</ele><time>2026-05-03T09:31:47Z</time></trkpt><trkpt lat="38.402706640172696" lon="16.5446078048313"><ele>8.0</ele><time>2026-05-03T09:31:48Z</time></trkpt><trkpt lat="38.402878015108584" lon="16.54478574347898"><ele>8.0</ele><time>2026-05-03T09:31:49Z</time></trkpt><trkpt lat="38.40304685086678" lon="16.544959642651207"><ele>8.0</ele><time>2026-05-03T09:31:50Z</time></trkpt><trkpt lat="38.403218347186204" lon="16.54513323921582"><ele>8.0</ele><time>2026-05-03T09:31:51Z</time></trkpt><trkpt lat="38.40338828622913" lon="16.545305777933983"><ele>8.0</ele><time>2026-05-03T09:31:52Z</time></trkpt><trkpt lat="38.40355449431884" lon="16.54547290385351"><ele>8.0</ele><time>2026-05-03T09:31:53Z</time></trkpt><trkpt lat="38.403719390734864" lon="16.545648096593435"><ele>8.0</ele><time>2026-05-03T09:31:54Z</time></trkpt><trkpt lat="38.4038858467345" lon="16.545829057039064"><ele>8.333333333333332</ele><time>2026-05-03T09:31:55Z</time></trkpt><trkpt lat="38.40404970309664" lon="16.54600911102764"><ele>8.666666666666666</ele><time>2026-05-03T09:31:56Z</time></trkpt><trkpt lat="38.40420934749436" lon="16.546194328284276"><ele>9.0</ele><time>2026-05-03T09:31:57Z</time></trkpt><trkpt lat="38.40436948741661" lon="16.54638125553869"><ele>9.0</ele><time>2026-05-03T09:31:58Z</time></trkpt><trkpt lat="38.4045308177426" lon="16.546570575498578"><ele>9.0</ele><time>2026-05-03T09:31:59Z</time></trkpt><trkpt lat="38.404693481711185" lon="16.546761622527853"><ele>9.0</ele><time>2026-05-03T09:32:00Z</time></trkpt><trkpt lat="38.40486212630037" lon="16.546956945046993"><ele>8.5</ele><time>2026-05-03T09:32:01Z</time></trkpt><trkpt lat="38.40502960981832" lon="16.547151151750647"><ele>8.0</ele><time>2026-05-03T09:32:02Z</time></trkpt><trkpt lat="38.40520773379884" lon="16.547347836728576"><ele>8.0</ele><time>2026-05-03T09:32:03Z</time></trkpt><trkpt lat="38.40537040840371" lon="16.54754539661153"><ele>8.0</ele><time>2026-05-03T09:32:04Z</time></trkpt><trkpt lat="38.405549564033976" lon="16.54775225567189"><ele>7.5</ele><time>2026-05-03T09:32:05Z</time></trkpt><trkpt lat="38.40573773151009" lon="16.54796809107613"><ele>7.0</ele><time>2026-05-03T09:32:06Z</time></trkpt><trkpt lat="38.4059306494844" lon="16.548186665821998"><ele>7.0</ele><time>2026-05-03T09:32:07Z</time></trkpt><trkpt lat="38.406048557223194" lon="16.548340152220185"><ele>7.0</ele><time>2026-05-03T09:32:08Z</time></trkpt><trkpt lat="38.406218383567605" lon="16.54853051607602"><ele>7.0</ele><time>2026-05-03T09:32:09Z</time></trkpt><trkpt lat="38.40638796667639" lon="16.548725676967322"><ele>6.5</ele><time>2026-05-03T09:32:10Z</time></trkpt><trkpt lat="38.40655661679063" lon="16.548931145241927"><ele>6.0</ele><time>2026-05-03T09:32:11Z</time></trkpt><trkpt lat="38.40673187987539" lon="16.549129185881462"><ele>6.0</ele><time>2026-05-03T09:32:12Z</time></trkpt><trkpt lat="38.40690474251485" lon="16.549331549362606"><ele>6.0</ele><time>2026-05-03T09:32:13Z</time></trkpt><trkpt lat="38.407077333207944" lon="16.549529603599062"><ele>6.5</ele><time>2026-05-03T09:32:14Z</time></trkpt><trkpt lat="38.407249137007874" lon="16.549734709098047"><ele>7.0</ele><time>2026-05-03T09:32:15Z</time></trkpt><trkpt lat="38.407424706319" lon="16.549940612160018"><ele>7.0</ele><time>2026-05-03T09:32:16Z</time></trkpt><trkpt lat="38.40760408611274" lon="16.550144177967617"><ele>7.0</ele><time>2026-05-03T09:32:17Z</time></trkpt><trkpt lat="38.40778084824589" lon="16.55034437107411"><ele>6.5</ele><time>2026-05-03T09:32:18Z</time></trkpt><trkpt lat="38.40795797587457" lon="16.550545759620604"><ele>6.0</ele><time>2026-05-03T09:32:19Z</time></trkpt><trkpt lat="38.40813571571812" lon="16.550753631969332"><ele>7.0</ele><time>2026-05-03T09:32:20Z</time></trkpt><trkpt lat="38.40832037419191" lon="16.55096722381278"><ele>8.0</ele><time>2026-05-03T09:32:21Z</time></trkpt><trkpt lat="38.40850128373877" lon="16.55118464003132"><ele>8.0</ele><time>2026-05-03T09:32:22Z</time></trkpt><trkpt lat="38.40868976050236" lon="16.551400599313506"><ele>8.0</ele><time>2026-05-03T09:32:23Z</time></trkpt><trkpt lat="38.40887959297843" lon="16.551614869586288"><ele>8.0</ele><time>2026-05-03T09:32:24Z</time></trkpt><trkpt lat="38.40906497233744" lon="16.5518255277264"><ele>8.0</ele><time>2026-05-03T09:32:25Z</time></trkpt><trkpt lat="38.40925586491843" lon="16.552032482535882"><ele>6.5</ele><time>2026-05-03T09:32:26Z</time></trkpt><trkpt lat="38.40943779694145" lon="16.552263855110684"><ele>5.0</ele><time>2026-05-03T09:32:27Z</time></trkpt><trkpt lat="38.40961773876447" lon="16.552473024259694"><ele>5.0</ele><time>2026-05-03T09:32:28Z</time></trkpt><trkpt lat="38.409793681814" lon="16.552677332314698"><ele>5.0</ele><time>2026-05-03T09:32:29Z</time></trkpt><trkpt lat="38.40996447021022" lon="16.552875654672164"><ele>5.0</ele><time>2026-05-03T09:32:30Z</time></trkpt><trkpt lat="38.41013842009809" lon="16.553051400462277"><ele>5.0</ele><time>2026-05-03T09:32:31Z</time></trkpt><trkpt lat="38.4102966963671" lon="16.553235781457474"><ele>5.0</ele><time>2026-05-03T09:32:32Z</time></trkpt><trkpt lat="38.410450434132684" lon="16.5534249628009"><ele>5.0</ele><time>2026-05-03T09:32:33Z</time></trkpt><trkpt lat="38.41059867839954" lon="16.553604317313802"><ele>5.0</ele><time>2026-05-03T09:32:34Z</time></trkpt><trkpt lat="38.41074633501711" lon="16.55379209289074"><ele>5.0</ele><time>2026-05-03T09:32:35Z</time></trkpt><trkpt lat="38.41089753982383" lon="16.553971680073317"><ele>5.0</ele><time>2026-05-03T09:32:36Z</time></trkpt><trkpt lat="38.41105083289967" lon="16.554150926069983"><ele>5.0</ele><time>2026-05-03T09:32:37Z</time></trkpt><trkpt lat="38.4112118384108" lon="16.55432427095889"><ele>5.0</ele><time>2026-05-03T09:32:38Z</time></trkpt><trkpt lat="38.41137052356673" lon="16.554506805157907"><ele>5.666666666666667</ele><time>2026-05-03T09:32:39Z</time></trkpt><trkpt lat="38.41153346866989" lon="16.554689914555723"><ele>6.333333333333334</ele><time>2026-05-03T09:32:40Z</time></trkpt><trkpt lat="38.411695243354366" lon="16.5548712117018"><ele>7.0</ele><time>2026-05-03T09:32:41Z</time></trkpt><trkpt lat="38.411865586654685" lon="16.555052690421444"><ele>7.0</ele><time>2026-05-03T09:32:42Z</time></trkpt><trkpt lat="38.412035309967415" lon="16.555237667121883"><ele>7.0</ele><time>2026-05-03T09:32:43Z</time></trkpt><trkpt lat="38.412208369850084" lon="16.555423219440314"><ele>7.0</ele><time>2026-05-03T09:32:44Z</time></trkpt><trkpt lat="38.41238913105535" lon="16.555611968061893"><ele>7.333333333333334</ele><time>2026-05-03T09:32:45Z</time></trkpt><trkpt lat="38.41256734571717" lon="16.555800829043644"><ele>7.666666666666666</ele><time>2026-05-03T09:32:46Z</time></trkpt><trkpt lat="38.41271171814427" lon="16.55597548141904"><ele>8.0</ele><time>2026-05-03T09:32:47Z</time></trkpt><trkpt lat="38.41293154702571" lon="16.556188399248832"><ele>8.0</ele><time>2026-05-03T09:32:48Z</time></trkpt><trkpt lat="38.41314203042961" lon="16.556402081090297"><ele>8.0</ele><time>2026-05-03T09:32:49Z</time></trkpt><trkpt lat="38.4133458463209" lon="16.556614619832942"><ele>8.0</ele><time>2026-05-03T09:32:50Z</time></trkpt><trkpt lat="38.41355100884829" lon="16.556831046544733"><ele>8.0</ele><time>2026-05-03T09:32:51Z</time></trkpt><trkpt lat="38.41375600971233" lon="16.55705606674733"><ele>7.5</ele><time>2026-05-03T09:32:52Z</time></trkpt><trkpt lat="38.413949406131565" lon="16.557287182741792"><ele>7.0</ele><time>2026-05-03T09:32:53Z</time></trkpt><trkpt lat="38.414136625134944" lon="16.557486585178342"><ele>7.0</ele><time>2026-05-03T09:32:54Z</time></trkpt><trkpt lat="38.41433235370729" lon="16.557690732130627"><ele>7.0</ele><time>2026-05-03T09:32:55Z</time></trkpt><trkpt lat="38.4145085536143" lon="16.557872452778835"><ele>7.5</ele><time>2026-05-03T09:32:56Z</time></trkpt><trkpt lat="38.41469570166894" lon="16.55806346006377"><ele>8.0</ele><time>2026-05-03T09:32:57Z</time></trkpt><trkpt lat="38.414882777048106" lon="16.558252960119834"><ele>8.0</ele><time>2026-05-03T09:32:58Z</time></trkpt><trkpt lat="38.41507298115372" lon="16.558442609169546"><ele>8.0</ele><time>2026-05-03T09:32:59Z</time></trkpt><trkpt lat="38.41525998678636" lon="16.558629069048013"><ele>8.0</ele><time>2026-05-03T09:33:00Z</time></trkpt><trkpt lat="38.415439458747315" lon="16.558808017428866"><ele>8.0</ele><time>2026-05-03T09:33:01Z</time></trkpt><trkpt lat="38.415604234657145" lon="16.55897231234743"><ele>8.0</ele><time>2026-05-03T09:33:02.001Z</time></trkpt><trkpt lat="38.41575919612774" lon="16.5591275087366"><ele>8.0</ele><time>2026-05-03T09:33:03.001Z</time></trkpt><trkpt lat="38.41589851094287" lon="16.559267271283172"><ele>8.0</ele><time>2026-05-03T09:33:04.001Z</time></trkpt><trkpt lat="38.41604840734318" lon="16.559417649665978"><ele>8.0</ele><time>2026-05-03T09:33:05.001Z</time></trkpt><trkpt lat="38.41619190735161" lon="16.559561413776052"><ele>8.666666666666666</ele><time>2026-05-03T09:33:06.001Z</time></trkpt><trkpt lat="38.41633413702485" lon="16.55970374209453"><ele>9.333333333333334</ele><time>2026-05-03T09:33:07.001Z</time></trkpt><trkpt lat="38.41647116251793" lon="16.559840862543158"><ele>10.0</ele><time>2026-05-03T09:33:08.001Z</time></trkpt><trkpt lat="38.416599359334896" lon="16.559967730676004"><ele>10.0</ele><time>2026-05-03T09:33:09.001Z</time></trkpt><trkpt lat="38.41672969278278" lon="16.560094634304683"><ele>10.0</ele><time>2026-05-03T09:33:10.001Z</time></trkpt><trkpt lat="38.41686899222747" lon="16.560230268026306"><ele>10.0</ele><time>2026-05-03T09:33:11.001Z</time></trkpt><trkpt lat="38.41701886858254" lon="16.56037661574055"><ele>9.666666666666668</ele><time>2026-05-03T09:33:12.001Z</time></trkpt><trkpt lat="38.41718602429664" lon="16.560519003977387"><ele>9.333333333333334</ele><time>2026-05-03T09:33:13.001Z</time></trkpt><trkpt lat="38.41734553183062" lon="16.560683867371047"><ele>9.0</ele><time>2026-05-03T09:33:14.001Z</time></trkpt><trkpt lat="38.41751288312951" lon="16.56085732662606"><ele>9.0</ele><time>2026-05-03T09:33:15.001Z</time></trkpt><trkpt lat="38.41768914261884" lon="16.56103480228189"><ele>9.0</ele><time>2026-05-03T09:33:16.001Z</time></trkpt><trkpt lat="38.41787647961039" lon="16.561219836914308"><ele>9.0</ele><time>2026-05-03T09:33:17.001Z</time></trkpt><trkpt lat="38.41806442274833" lon="16.561409140987422"><ele>9.0</ele><time>2026-05-03T09:33:18.001Z</time></trkpt><trkpt lat="38.41825576675204" lon="16.561608751144078"><ele>9.0</ele><time>2026-05-03T09:33:19.001Z</time></trkpt><trkpt lat="38.41844975477948" lon="16.56181404415276"><ele>9.0</ele><time>2026-05-03T09:33:20.001Z</time></trkpt><trkpt lat="38.41864801615212" lon="16.56202198474505"><ele>8.0</ele><time>2026-05-03T09:33:21.001Z</time></trkpt><trkpt lat="38.41884875682067" lon="16.562227904991357"><ele>7.0</ele><time>2026-05-03T09:33:22.001Z</time></trkpt><trkpt lat="38.419052303797606" lon="16.56243120068075"><ele>7.0</ele><time>2026-05-03T09:33:23.001Z</time></trkpt><trkpt lat="38.41926185360764" lon="16.56263324718976"><ele>7.0</ele><time>2026-05-03T09:33:24.001Z</time></trkpt><trkpt lat="38.419470504381295" lon="16.56283542885972"><ele>6.0</ele><time>2026-05-03T09:33:25.001Z</time></trkpt><trkpt lat="38.41968103670254" lon="16.563041986241526"><ele>5.0</ele><time>2026-05-03T09:33:26.001Z</time></trkpt><trkpt lat="38.41989022308886" lon="16.56324869959521"><ele>5.0</ele><time>2026-05-03T09:33:27.001Z</time></trkpt><trkpt lat="38.42008195567144" lon="16.563454615440104"><ele>5.0</ele><time>2026-05-03T09:33:28.001Z</time></trkpt><trkpt lat="38.4202818430758" lon="16.56365737724603"><ele>3.5</ele><time>2026-05-03T09:33:29.001Z</time></trkpt><trkpt lat="38.42048203578193" lon="16.56385584648866"><ele>2.0</ele><time>2026-05-03T09:33:30.001Z</time></trkpt><trkpt lat="38.42068053188215" lon="16.564054146318988"><ele>5.5</ele><time>2026-05-03T09:33:31.001Z</time></trkpt><trkpt lat="38.420884251159514" lon="16.564262213176427"><ele>9.0</ele><time>2026-05-03T09:33:32.001Z</time></trkpt><trkpt lat="38.42109166567529" lon="16.56446914952592"><ele>8.5</ele><time>2026-05-03T09:33:33.001Z</time></trkpt><trkpt lat="38.42129398951458" lon="16.564677397288715"><ele>8.0</ele><time>2026-05-03T09:33:34.001Z</time></trkpt><trkpt lat="38.42150065143385" lon="16.5648874403287"><ele>8.0</ele><time>2026-05-03T09:33:35.001Z</time></trkpt><trkpt lat="38.421706825121824" lon="16.565094787056534"><ele>8.0</ele><time>2026-05-03T09:33:36.001Z</time></trkpt><trkpt lat="38.421916242815506" lon="16.565300854843446"><ele>8.5</ele><time>2026-05-03T09:33:37.001Z</time></trkpt><trkpt lat="38.422130213957175" lon="16.565507211986507"><ele>9.0</ele><time>2026-05-03T09:33:38.001Z</time></trkpt><trkpt lat="38.422345903190525" lon="16.56571189236351"><ele>9.0</ele><time>2026-05-03T09:33:39.001Z</time></trkpt><trkpt lat="38.42255893448885" lon="16.56592791168762"><ele>9.0</ele><time>2026-05-03T09:33:40.001Z</time></trkpt><trkpt lat="38.42277711383813" lon="16.56614364753322"><ele>7.5</ele><time>2026-05-03T09:33:41.001Z</time></trkpt><trkpt lat="38.422994123676624" lon="16.56635986320793"><ele>6.0</ele><time>2026-05-03T09:33:42.001Z</time></trkpt><trkpt lat="38.42321645930819" lon="16.566579415696566"><ele>6.0</ele><time>2026-05-03T09:33:43.001Z</time></trkpt><trkpt lat="38.42343709309933" lon="16.566809358357755"><ele>6.0</ele><time>2026-05-03T09:33:44.001Z</time></trkpt><trkpt lat="38.42366754050786" lon="16.567041263221366"><ele>6.0</ele><time>2026-05-03T09:33:45.001Z</time></trkpt><trkpt lat="38.42390052225872" lon="16.567276846056533"><ele>6.0</ele><time>2026-05-03T09:33:46.001Z</time></trkpt><trkpt lat="38.42413255199277" lon="16.56751383845747"><ele>6.0</ele><time>2026-05-03T09:33:47Z</time></trkpt><trkpt lat="38.42436508814059" lon="16.567747472192707"><ele>6.0</ele><time>2026-05-03T09:33:48Z</time></trkpt><trkpt lat="38.42459786618473" lon="16.56797558593513"><ele>6.0</ele><time>2026-05-03T09:33:49Z</time></trkpt><trkpt lat="38.424832864653716" lon="16.568196417634976"><ele>6.0</ele><time>2026-05-03T09:33:50Z</time></trkpt><trkpt lat="38.42506974348246" lon="16.568420509302275"><ele>6.0</ele><time>2026-05-03T09:33:51Z</time></trkpt><trkpt lat="38.425302066221995" lon="16.568644628150253"><ele>6.0</ele><time>2026-05-03T09:33:52Z</time></trkpt><trkpt lat="38.42554238604046" lon="16.568845484835958"><ele>6.5</ele><time>2026-05-03T09:33:53Z</time></trkpt><trkpt lat="38.42578852715793" lon="16.569037371457828"><ele>7.0</ele><time>2026-05-03T09:33:54Z</time></trkpt><trkpt lat="38.42603139059062" lon="16.569223832495034"><ele>7.0</ele><time>2026-05-03T09:33:55Z</time></trkpt><trkpt lat="38.426260815629384" lon="16.56938924205798"><ele>7.0</ele><time>2026-05-03T09:33:56Z</time></trkpt><trkpt lat="38.42647148165648" lon="16.569539453096027"><ele>6.5</ele><time>2026-05-03T09:33:57Z</time></trkpt><trkpt lat="38.42667717572222" lon="16.569684577533735"><ele>6.0</ele><time>2026-05-03T09:33:58Z</time></trkpt><trkpt lat="38.42687401340017" lon="16.569828982920853"><ele>6.0</ele><time>2026-05-03T09:33:59Z</time></trkpt><trkpt lat="38.42705954899908" lon="16.569963970348446"><ele>6.0</ele><time>2026-05-03T09:34:00Z</time></trkpt><trkpt lat="38.427236212228" lon="16.57009477929471"><ele>6.0</ele><time>2026-05-03T09:34:01Z</time></trkpt><trkpt lat="38.42740413793648" lon="16.570218476814592"><ele>6.666666666666666</ele><time>2026-05-03T09:34:02Z</time></trkpt><trkpt lat="38.427553451658234" lon="16.570334096818424"><ele>7.333333333333333</ele><time>2026-05-03T09:34:03Z</time></trkpt><trkpt lat="38.4276838670236" lon="16.570434030278356"><ele>8.0</ele><time>2026-05-03T09:34:04Z</time></trkpt><trkpt lat="38.42779464366324" lon="16.570511875841536"><ele>7.999999999999999</ele><time>2026-05-03T09:34:05Z</time></trkpt><trkpt lat="38.42788950186752" lon="16.570572793981675"><ele>8.0</ele><time>2026-05-03T09:34:06Z</time></trkpt><trkpt lat="38.427966465693785" lon="16.570633247704524"><ele>8.0</ele><time>2026-05-03T09:34:07Z</time></trkpt><trkpt lat="38.42804628512489" lon="16.57067296599647"><ele>8.0</ele><time>2026-05-03T09:34:08Z</time></trkpt><trkpt lat="38.42811650961738" lon="16.570720145891485"><ele>7.999999999999999</ele><time>2026-05-03T09:34:09Z</time></trkpt><trkpt lat="38.42816255951376" lon="16.57077621728521"><ele>8.0</ele><time>2026-05-03T09:34:10Z</time></trkpt><trkpt lat="38.42821860946846" lon="16.570817140034315"><ele>8.4</ele><time>2026-05-03T09:34:12Z</time></trkpt><trkpt lat="38.42829404078949" lon="16.570870344869306"><ele>8.8</ele><time>2026-05-03T09:34:15Z</time></trkpt><trkpt lat="38.42835143299989" lon="16.570910826623056"><ele>9.2</ele><time>2026-05-03T09:34:17Z</time></trkpt><trkpt lat="38.42845213050384" lon="16.570741854676417"><ele>9.6</ele><time>2026-05-03T09:34:19Z</time></trkpt><trkpt lat="38.42846769676282" lon="16.570588556331895"><ele>10.0</ele><time>2026-05-03T09:34:21Z</time></trkpt><trkpt lat="38.42845791823042" lon="16.570497498472324"><ele>10.0</ele><time>2026-05-03T09:34:22Z</time></trkpt><trkpt lat="38.4284426962438" lon="16.570407257678013"><ele>10.0</ele><time>2026-05-03T09:34:23Z</time></trkpt><trkpt lat="38.42841229279812" lon="16.570325247769432"><ele>10.0</ele><time>2026-05-03T09:34:24Z</time></trkpt><trkpt lat="38.42836013687281" lon="16.5702503419312"><ele>10.0</ele><time>2026-05-03T09:34:25Z</time></trkpt><trkpt lat="38.42827616031103" lon="16.570207587513117"><ele>10.0</ele><time>2026-05-03T09:34:26Z</time></trkpt><trkpt lat="38.42820295419874" lon="16.570178119543783"><ele>10.0</ele><time>2026-05-03T09:34:27Z</time></trkpt><trkpt lat="38.428144999416816" lon="16.570143673341303"><ele>10.0</ele><time>2026-05-03T09:34:28Z</time></trkpt><trkpt lat="38.428080090984885" lon="16.570104714347956"><ele>10.0</ele><time>2026-05-03T09:34:29Z</time></trkpt><trkpt lat="38.42801243281587" lon="16.57006681435735"><ele>10.0</ele><time>2026-05-03T09:34:30Z</time></trkpt><trkpt lat="38.42794055707728" lon="16.570028915020863"><ele>10.0</ele><time>2026-05-03T09:34:31Z</time></trkpt><trkpt lat="38.427864555103575" lon="16.569984503055906"><ele>10.0</ele><time>2026-05-03T09:34:32Z</time></trkpt><trkpt lat="38.427792141380536" lon="16.569943539609138"><ele>10.0</ele><time>2026-05-03T09:34:33Z</time></trkpt><trkpt lat="38.42771392645793" lon="16.569895596752293"><ele>9.6</ele><time>2026-05-03T09:34:34Z</time></trkpt><trkpt lat="38.42763677044397" lon="16.569822177956475"><ele>9.2</ele><time>2026-05-03T09:34:35Z</time></trkpt><trkpt lat="38.427575213928066" lon="16.569726504211076"><ele>8.8</ele><time>2026-05-03T09:34:36Z</time></trkpt><trkpt lat="38.42755625000626" lon="16.569606688360768"><ele>8.4</ele><time>2026-05-03T09:34:37Z</time></trkpt><trkpt lat="38.427558352911916" lon="16.569469759353296"><ele>8.0</ele><time>2026-05-03T09:34:38Z</time></trkpt><trkpt lat="38.427594315190795" lon="16.569359951210185"><ele>7.833333333333333</ele><time>2026-05-03T09:34:39Z</time></trkpt><trkpt lat="38.42764981087068" lon="16.56928281247843"><ele>7.666666666666666</ele><time>2026-05-03T09:34:40Z</time></trkpt><trkpt lat="38.427715412371704" lon="16.569210696451396"><ele>7.5</ele><time>2026-05-03T09:34:41Z</time></trkpt><trkpt lat="38.427796642659246" lon="16.569170593025255"><ele>7.333333333333334</ele><time>2026-05-03T09:34:42Z</time></trkpt><trkpt lat="38.42789241426202" lon="16.569192761224222"><ele>7.166666666666667</ele><time>2026-05-03T09:34:43Z</time></trkpt><trkpt lat="38.42797573258067" lon="16.56923464200876"><ele>7.0</ele><time>2026-05-03T09:34:44Z</time></trkpt><trkpt lat="38.428062513312305" lon="16.56931439013401"><ele>7.0</ele><time>2026-05-03T09:34:45Z</time></trkpt><trkpt lat="38.428149244267864" lon="16.569421961732385"><ele>7.0</ele><time>2026-05-03T09:34:46Z</time></trkpt><trkpt lat="38.42824878493051" lon="16.569532882147005"><ele>7.0</ele><time>2026-05-03T09:34:47Z</time></trkpt><trkpt lat="38.428349733380266" lon="16.56965972970319"><ele>7.0</ele><time>2026-05-03T09:34:48Z</time></trkpt><trkpt lat="38.428454663363944" lon="16.569798120297953"><ele>7.666666666666667</ele><time>2026-05-03T09:34:49Z</time></trkpt><trkpt lat="38.428583082826385" lon="16.56992202175375"><ele>8.333333333333334</ele><time>2026-05-03T09:34:50Z</time></trkpt><trkpt lat="38.42872152574642" lon="16.57004131330247"><ele>9.0</ele><time>2026-05-03T09:34:51Z</time></trkpt><trkpt lat="38.42887085696923" lon="16.57015612312983"><ele>9.0</ele><time>2026-05-03T09:34:52Z</time></trkpt><trkpt lat="38.42903095001647" lon="16.57026564092137"><ele>9.0</ele><time>2026-05-03T09:34:53Z</time></trkpt><trkpt lat="38.42919390748998" lon="16.57036779456665"><ele>9.0</ele><time>2026-05-03T09:34:54Z</time></trkpt><trkpt lat="38.42936399043704" lon="16.570472141760654"><ele>8.666666666666666</ele><time>2026-05-03T09:34:55Z</time></trkpt><trkpt lat="38.42953114827678" lon="16.57057096191005"><ele>8.333333333333332</ele><time>2026-05-03T09:34:56Z</time></trkpt><trkpt lat="38.429698521300374" lon="16.57064886181144"><ele>8.0</ele><time>2026-05-03T09:34:57Z</time></trkpt><trkpt lat="38.42987305812831" lon="16.570760552201957"><ele>7.333333333333333</ele><time>2026-05-03T09:34:58Z</time></trkpt><trkpt lat="38.430041582505964" lon="16.57085380845521"><ele>6.666666666666666</ele><time>2026-05-03T09:34:59Z</time></trkpt><trkpt lat="38.43021189584987" lon="16.57094321799894"><ele>6.0</ele><time>2026-05-03T09:35:00Z</time></trkpt><trkpt lat="38.43038072358931" lon="16.571029303613912"><ele>6.0</ele><time>2026-05-03T09:35:01Z</time></trkpt><trkpt lat="38.43054765441137" lon="16.571113278998908"><ele>6.0</ele><time>2026-05-03T09:35:02Z</time></trkpt><trkpt lat="38.43071708999417" lon="16.57119238520687"><ele>6.0</ele><time>2026-05-03T09:35:03Z</time></trkpt><trkpt lat="38.4308859269935" lon="16.571266492914614"><ele>6.0</ele><time>2026-05-03T09:35:04Z</time></trkpt><trkpt lat="38.43105671260283" lon="16.57134919538453"><ele>6.0</ele><time>2026-05-03T09:35:05Z</time></trkpt><trkpt lat="38.431227551123335" lon="16.57142898051337"><ele>6.0</ele><time>2026-05-03T09:35:06Z</time></trkpt><trkpt lat="38.43139638744328" lon="16.571509183055948"><ele>6.0</ele><time>2026-05-03T09:35:07.001Z</time></trkpt><trkpt lat="38.43156836799669" lon="16.571587206101718"><ele>6.0</ele><time>2026-05-03T09:35:08.001Z</time></trkpt><trkpt lat="38.4317402775909" lon="16.571666800471622"><ele>6.0</ele><time>2026-05-03T09:35:09.001Z</time></trkpt><trkpt lat="38.43192169371187" lon="16.571746210236945"><ele>6.0</ele><time>2026-05-03T09:35:10.001Z</time></trkpt><trkpt lat="38.43209962517963" lon="16.571811221215217"><ele>6.0</ele><time>2026-05-03T09:35:11.001Z</time></trkpt><trkpt lat="38.432289695913724" lon="16.571912953248358"><ele>6.0</ele><time>2026-05-03T09:35:12.001Z</time></trkpt><trkpt lat="38.43245243089492" lon="16.57199713060277"><ele>6.333333333333334</ele><time>2026-05-03T09:35:13.001Z</time></trkpt><trkpt lat="38.4326130286375" lon="16.572066113591934"><ele>6.666666666666667</ele><time>2026-05-03T09:35:14.001Z</time></trkpt><trkpt lat="38.43275600487316" lon="16.57213318591138"><ele>7.0</ele><time>2026-05-03T09:35:15.001Z</time></trkpt><trkpt lat="38.432894774399244" lon="16.57220150805796"><ele>7.75</ele><time>2026-05-03T09:35:16.001Z</time></trkpt><trkpt lat="38.43302780429404" lon="16.572262861297027"><ele>8.5</ele><time>2026-05-03T09:35:17.001Z</time></trkpt><trkpt lat="38.433146007690645" lon="16.572319430196625"><ele>9.25</ele><time>2026-05-03T09:35:18.001Z</time></trkpt><trkpt lat="38.433253395609015" lon="16.572369868011084"><ele>10.0</ele><time>2026-05-03T09:35:19.001Z</time></trkpt><trkpt lat="38.43334516451695" lon="16.572411828084917"><ele>10.0</ele><time>2026-05-03T09:35:20.001Z</time></trkpt><trkpt lat="38.43342594668681" lon="16.572454039020645"><ele>10.0</ele><time>2026-05-03T09:35:21.001Z</time></trkpt><trkpt lat="38.43349822272182" lon="16.572487778057788"><ele>10.0</ele><time>2026-05-03T09:35:22.001Z</time></trkpt><trkpt lat="38.43355861906981" lon="16.572513491668968"><ele>10.0</ele><time>2026-05-03T09:35:23.001Z</time></trkpt><trkpt lat="38.43362741266929" lon="16.57255201249952"><ele>10.0</ele><time>2026-05-03T09:35:25.001Z</time></trkpt><trkpt lat="38.433693585614336" lon="16.57231703626841"><ele>10.0</ele><time>2026-05-03T09:35:33.001Z</time></trkpt><trkpt lat="38.43375319379783" lon="16.572148650265312"><ele>10.0</ele><time>2026-05-03T09:35:35.001Z</time></trkpt><trkpt lat="38.43377954010873" lon="16.572015303906337"><ele>10.0</ele><time>2026-05-03T09:35:36.001Z</time></trkpt><trkpt lat="38.4338092929041" lon="16.571918986344812"><ele>10.0</ele><time>2026-05-03T09:35:37.001Z</time></trkpt><trkpt lat="38.43385388663689" lon="16.571741940396755"><ele>11.333333333333334</ele><time>2026-05-03T09:35:38.001Z</time></trkpt><trkpt lat="38.43390359449062" lon="16.571549862446226"><ele>12.666666666666668</ele><time>2026-05-03T09:35:39.001Z</time></trkpt><trkpt lat="38.433959113610264" lon="16.571340894898086"><ele>14.0</ele><time>2026-05-03T09:35:40.001Z</time></trkpt><trkpt lat="38.43403849753678" lon="16.571131383200832"><ele>14.0</ele><time>2026-05-03T09:35:41.001Z</time></trkpt><trkpt lat="38.434092544031664" lon="16.570937355713575"><ele>14.0</ele><time>2026-05-03T09:35:43.001Z</time></trkpt><trkpt lat="38.43415528525785" lon="16.570760059188153"><ele>14.0</ele><time>2026-05-03T09:35:44.001Z</time></trkpt><trkpt lat="38.43420648972476" lon="16.57056737081714"><ele>13.666666666666668</ele><time>2026-05-03T09:35:45.001Z</time></trkpt><trkpt lat="38.43427164177088" lon="16.570348745707328"><ele>13.333333333333332</ele><time>2026-05-03T09:35:46.001Z</time></trkpt><trkpt lat="38.434345985128964" lon="16.570108392980462"><ele>13.0</ele><time>2026-05-03T09:35:47.001Z</time></trkpt><trkpt lat="38.43442546512576" lon="16.569866334978624"><ele>13.0</ele><time>2026-05-03T09:35:48.001Z</time></trkpt><trkpt lat="38.43449882913138" lon="16.56963487372509"><ele>13.0</ele><time>2026-05-03T09:35:49.001Z</time></trkpt><trkpt lat="38.434563894571355" lon="16.569411063185385"><ele>13.0</ele><time>2026-05-03T09:35:50.001Z</time></trkpt><trkpt lat="38.43462450614449" lon="16.56917276103116"><ele>15.0</ele><time>2026-05-03T09:35:51.001Z</time></trkpt><trkpt lat="38.434685234234706" lon="16.56895693608504"><ele>17.0</ele><time>2026-05-03T09:35:52.001Z</time></trkpt><trkpt lat="38.43477970577017" lon="16.56863964665567"><ele>19.0</ele><time>2026-05-03T09:35:53Z</time></trkpt><trkpt lat="38.43487190796305" lon="16.56832634878999"><ele>19.0</ele><time>2026-05-03T09:35:54Z</time></trkpt><trkpt lat="38.43495171696969" lon="16.568050149277333"><ele>19.0</ele><time>2026-05-03T09:35:55Z</time></trkpt><trkpt lat="38.43501969601" lon="16.567811404312096"><ele>19.0</ele><time>2026-05-03T09:35:56Z</time></trkpt><trkpt lat="38.43505871520662" lon="16.56760920703344"><ele>18.0</ele><time>2026-05-03T09:35:57Z</time></trkpt><trkpt lat="38.43510877727359" lon="16.567387972663038"><ele>17.0</ele><time>2026-05-03T09:35:58Z</time></trkpt><trkpt lat="38.435156071695424" lon="16.567136669740105"><ele>16.0</ele><time>2026-05-03T09:35:59Z</time></trkpt><trkpt lat="38.435193972473854" lon="16.56683357477828"><ele>16.0</ele><time>2026-05-03T09:36:00Z</time></trkpt><trkpt lat="38.435236094271126" lon="16.566493267948697"><ele>16.0</ele><time>2026-05-03T09:36:01Z</time></trkpt><trkpt lat="38.43528121878571" lon="16.566122135581736"><ele>16.5</ele><time>2026-05-03T09:36:02Z</time></trkpt><trkpt lat="38.43533246754512" lon="16.565759022838307"><ele>17.0</ele><time>2026-05-03T09:36:03Z</time></trkpt><trkpt lat="38.435376490463405" lon="16.565334655762374"><ele>17.0</ele><time>2026-05-03T09:36:04Z</time></trkpt><trkpt lat="38.43542306213576" lon="16.564904405257547"><ele>17.0</ele><time>2026-05-03T09:36:05Z</time></trkpt><trkpt lat="38.43547229741412" lon="16.564479040307493"><ele>19.5</ele><time>2026-05-03T09:36:06Z</time></trkpt><trkpt lat="38.435517682801894" lon="16.564086678780626"><ele>22.0</ele><time>2026-05-03T09:36:07Z</time></trkpt><trkpt lat="38.43556637047822" lon="16.563714467621992"><ele>21.5</ele><time>2026-05-03T09:36:08Z</time></trkpt><trkpt lat="38.435600355736426" lon="16.563378690454098"><ele>21.0</ele><time>2026-05-03T09:36:09Z</time></trkpt><trkpt lat="38.43563600385512" lon="16.56305657093105"><ele>21.0</ele><time>2026-05-03T09:36:10Z</time></trkpt><trkpt lat="38.435676282984595" lon="16.56273982162939"><ele>21.0</ele><time>2026-05-03T09:36:11Z</time></trkpt><trkpt lat="38.435720131703455" lon="16.56241426455306"><ele>21.0</ele><time>2026-05-03T09:36:12Z</time></trkpt><trkpt lat="38.43576623142392" lon="16.56210342176827"><ele>21.0</ele><time>2026-05-03T09:36:13Z</time></trkpt><trkpt lat="38.43582212824365" lon="16.56178410327076"><ele>21.0</ele><time>2026-05-03T09:36:14Z</time></trkpt><trkpt lat="38.43588686568171" lon="16.561454323758"><ele>21.0</ele><time>2026-05-03T09:36:15Z</time></trkpt><trkpt lat="38.43596278941892" lon="16.561099019444427"><ele>21.0</ele><time>2026-05-03T09:36:16Z</time></trkpt><trkpt lat="38.43605927384626" lon="16.560748737647533"><ele>21.0</ele><time>2026-05-03T09:36:17Z</time></trkpt><trkpt lat="38.43615318914473" lon="16.560375481455797"><ele>20.5</ele><time>2026-05-03T09:36:18Z</time></trkpt><trkpt lat="38.43623917080348" lon="16.56004611608724"><ele>20.0</ele><time>2026-05-03T09:36:19Z</time></trkpt><trkpt lat="38.43636005627628" lon="16.559663727228937"><ele>21.5</ele><time>2026-05-03T09:36:20Z</time></trkpt><trkpt lat="38.43645459493621" lon="16.55931443610251"><ele>23.0</ele><time>2026-05-03T09:36:21Z</time></trkpt><trkpt lat="38.436545868155996" lon="16.558965078332964"><ele>22.5</ele><time>2026-05-03T09:36:22Z</time></trkpt><trkpt lat="38.436639807075416" lon="16.55861134366948"><ele>22.0</ele><time>2026-05-03T09:36:23Z</time></trkpt><trkpt lat="38.436730864157425" lon="16.558264088011395"><ele>22.0</ele><time>2026-05-03T09:36:24Z</time></trkpt><trkpt lat="38.43681284883453" lon="16.557942641674302"><ele>22.0</ele><time>2026-05-03T09:36:25Z</time></trkpt><trkpt lat="38.43689796873896" lon="16.557627805434574"><ele>23.5</ele><time>2026-05-03T09:36:26Z</time></trkpt><trkpt lat="38.43698331920685" lon="16.557313129544557"><ele>25.0</ele><time>2026-05-03T09:36:27Z</time></trkpt><trkpt lat="38.4370670880149" lon="16.55699543508333"><ele>26.0</ele><time>2026-05-03T09:36:28Z</time></trkpt><trkpt lat="38.43714488895099" lon="16.556694852751203"><ele>27.0</ele><time>2026-05-03T09:36:29Z</time></trkpt><trkpt lat="38.437218601105954" lon="16.55640920632227"><ele>27.0</ele><time>2026-05-03T09:36:30Z</time></trkpt><trkpt lat="38.43729661178014" lon="16.55611327567926"><ele>27.0</ele><time>2026-05-03T09:36:31Z</time></trkpt><trkpt lat="38.43737107886996" lon="16.555822741411575"><ele>27.0</ele><time>2026-05-03T09:36:32Z</time></trkpt><trkpt lat="38.4374405719583" lon="16.555543588076088"><ele>27.0</ele><time>2026-05-03T09:36:33Z</time></trkpt><trkpt lat="38.437510395903026" lon="16.555266170340545"><ele>27.5</ele><time>2026-05-03T09:36:34Z</time></trkpt><trkpt lat="38.43758660504421" lon="16.554984666051407"><ele>28.0</ele><time>2026-05-03T09:36:35Z</time></trkpt><trkpt lat="38.43766101014437" lon="16.554704432913894"><ele>29.0</ele><time>2026-05-03T09:36:36Z</time></trkpt><trkpt lat="38.43773597704086" lon="16.554426073580228"><ele>30.0</ele><time>2026-05-03T09:36:37Z</time></trkpt><trkpt lat="38.43781091217219" lon="16.55415224191408"><ele>30.0</ele><time>2026-05-03T09:36:38Z</time></trkpt><trkpt lat="38.43788845222646" lon="16.553863335153743"><ele>30.0</ele><time>2026-05-03T09:36:39Z</time></trkpt><trkpt lat="38.437966569599844" lon="16.55355280238486"><ele>30.5</ele><time>2026-05-03T09:36:40Z</time></trkpt><trkpt lat="38.438049246511994" lon="16.553230148909176"><ele>31.0</ele><time>2026-05-03T09:36:41Z</time></trkpt><trkpt lat="38.43812922918652" lon="16.55290530128088"><ele>31.5</ele><time>2026-05-03T09:36:42Z</time></trkpt><trkpt lat="38.4382010391533" lon="16.552557580883892"><ele>32.0</ele><time>2026-05-03T09:36:43Z</time></trkpt><trkpt lat="38.43826309338263" lon="16.552212401881295"><ele>32.0</ele><time>2026-05-03T09:36:44Z</time></trkpt><trkpt lat="38.438387604079175" lon="16.551819988967804"><ele>32.0</ele><time>2026-05-03T09:36:45Z</time></trkpt><trkpt lat="38.438497038493836" lon="16.55143953098098"><ele>32.5</ele><time>2026-05-03T09:36:46Z</time></trkpt><trkpt lat="38.438600139089196" lon="16.55105241822206"><ele>33.0</ele><time>2026-05-03T09:36:47Z</time></trkpt><trkpt lat="38.4386954618331" lon="16.550661456317492"><ele>33.0</ele><time>2026-05-03T09:36:48Z</time></trkpt><trkpt lat="38.438787304669184" lon="16.550331013673944"><ele>33.0</ele><time>2026-05-03T09:36:49Z</time></trkpt><trkpt lat="38.43890155163634" lon="16.549930640741735"><ele>34.5</ele><time>2026-05-03T09:36:50Z</time></trkpt><trkpt lat="38.43899775678594" lon="16.549577965910327"><ele>36.0</ele><time>2026-05-03T09:36:51Z</time></trkpt><trkpt lat="38.43908322493705" lon="16.549268755865626"><ele>36.5</ele><time>2026-05-03T09:36:52Z</time></trkpt><trkpt lat="38.43916686846725" lon="16.5489562398396"><ele>37.0</ele><time>2026-05-03T09:36:53Z</time></trkpt><trkpt lat="38.439239152731105" lon="16.548649094355632"><ele>37.5</ele><time>2026-05-03T09:36:54Z</time></trkpt><trkpt lat="38.43926660900977" lon="16.548340087398596"><ele>38.0</ele><time>2026-05-03T09:36:55Z</time></trkpt><trkpt lat="38.43926332558466" lon="16.548051641358057"><ele>38.0</ele><time>2026-05-03T09:36:56Z</time></trkpt><trkpt lat="38.439243211625495" lon="16.547790117983624"><ele>38.0</ele><time>2026-05-03T09:36:57Z</time></trkpt><trkpt lat="38.43929229733792" lon="16.547536701404013"><ele>38.0</ele><time>2026-05-03T09:36:58Z</time></trkpt><trkpt lat="38.439395635265114" lon="16.547268771578672"><ele>37.5</ele><time>2026-05-03T09:36:59Z</time></trkpt><trkpt lat="38.43951298749433" lon="16.546970285411692"><ele>37.0</ele><time>2026-05-03T09:37:00Z</time></trkpt><trkpt lat="38.43961635350366" lon="16.546679108542552"><ele>41.5</ele><time>2026-05-03T09:37:01Z</time></trkpt><trkpt lat="38.43971930515321" lon="16.546392941953496"><ele>46.0</ele><time>2026-05-03T09:37:02Z</time></trkpt><trkpt lat="38.439827472429215" lon="16.546108631467447"><ele>46.0</ele><time>2026-05-03T09:37:03Z</time></trkpt><trkpt lat="38.43994767919627" lon="16.54582154571735"><ele>46.0</ele><time>2026-05-03T09:37:04Z</time></trkpt><trkpt lat="38.44007408804981" lon="16.54553487285907"><ele>45.333333333333336</ele><time>2026-05-03T09:37:05Z</time></trkpt><trkpt lat="38.44018064448378" lon="16.54528334567582"><ele>44.666666666666664</ele><time>2026-05-03T09:37:06Z</time></trkpt><trkpt lat="38.440286044389325" lon="16.54504784909796"><ele>44.0</ele><time>2026-05-03T09:37:07Z</time></trkpt><trkpt lat="38.44035704131535" lon="16.54483655143547"><ele>44.0</ele><time>2026-05-03T09:37:08Z</time></trkpt><trkpt lat="38.440463338639134" lon="16.54463081272028"><ele>44.0</ele><time>2026-05-03T09:37:09Z</time></trkpt><trkpt lat="38.440552858610374" lon="16.544429890307892"><ele>44.0</ele><time>2026-05-03T09:37:10Z</time></trkpt><trkpt lat="38.44064389131082" lon="16.54422950127403"><ele>45.0</ele><time>2026-05-03T09:37:11Z</time></trkpt><trkpt lat="38.440733036359454" lon="16.544023896989405"><ele>46.0</ele><time>2026-05-03T09:37:12Z</time></trkpt><trkpt lat="38.44083985616749" lon="16.543829470848166"><ele>47.0</ele><time>2026-05-03T09:37:13Z</time></trkpt><trkpt lat="38.44098354226063" lon="16.543687873822712"><ele>47.0</ele><time>2026-05-03T09:37:14Z</time></trkpt><trkpt lat="38.44113183387324" lon="16.54353847576948"><ele>47.0</ele><time>2026-05-03T09:37:15Z</time></trkpt><trkpt lat="38.44129301696346" lon="16.543380770646447"><ele>47.0</ele><time>2026-05-03T09:37:16Z</time></trkpt><trkpt lat="38.44145286988877" lon="16.54321058727045"><ele>48.33333333333333</ele><time>2026-05-03T09:37:17Z</time></trkpt><trkpt lat="38.441604102415646" lon="16.54305762924959"><ele>49.666666666666664</ele><time>2026-05-03T09:37:18Z</time></trkpt><trkpt lat="38.44174630969434" lon="16.542915893497955"><ele>51.0</ele><time>2026-05-03T09:37:19Z</time></trkpt><trkpt lat="38.44187814828753" lon="16.542779989504744"><ele>51.0</ele><time>2026-05-03T09:37:20Z</time></trkpt><trkpt lat="38.442006849774124" lon="16.54263315417614"><ele>51.0</ele><time>2026-05-03T09:37:21Z</time></trkpt><trkpt lat="38.44212859330821" lon="16.542477142057155"><ele>51.0</ele><time>2026-05-03T09:37:22Z</time></trkpt><trkpt lat="38.442242226537005" lon="16.542292175179888"><ele>51.5</ele><time>2026-05-03T09:37:23Z</time></trkpt><trkpt lat="38.44235475800619" lon="16.542071480260308"><ele>52.0</ele><time>2026-05-03T09:37:24Z</time></trkpt><trkpt lat="38.4424995716564" lon="16.541813145259837"><ele>52.0</ele><time>2026-05-03T09:37:25Z</time></trkpt><trkpt lat="38.442633180333104" lon="16.541545800351926"><ele>52.0</ele><time>2026-05-03T09:37:26Z</time></trkpt><trkpt lat="38.44279363423181" lon="16.541245156879214"><ele>56.0</ele><time>2026-05-03T09:37:27Z</time></trkpt><trkpt lat="38.4429698725274" lon="16.540920482205603"><ele>60.0</ele><time>2026-05-03T09:37:28Z</time></trkpt><trkpt lat="38.44316670420306" lon="16.540519393826976"><ele>58.5</ele><time>2026-05-03T09:37:29Z</time></trkpt><trkpt lat="38.44336094220718" lon="16.540137184089648"><ele>57.0</ele><time>2026-05-03T09:37:30Z</time></trkpt><trkpt lat="38.44356696455049" lon="16.53974566444758"><ele>58.0</ele><time>2026-05-03T09:37:31Z</time></trkpt><trkpt lat="38.443757155375664" lon="16.539372894586965"><ele>59.0</ele><time>2026-05-03T09:37:32Z</time></trkpt><trkpt lat="38.44393583952049" lon="16.53903853619953"><ele>59.0</ele><time>2026-05-03T09:37:33Z</time></trkpt><trkpt lat="38.444103130935574" lon="16.538715917171775"><ele>59.0</ele><time>2026-05-03T09:37:34Z</time></trkpt><trkpt lat="38.444274151632804" lon="16.538385251320754"><ele>59.0</ele><time>2026-05-03T09:37:35Z</time></trkpt><trkpt lat="38.44444565316762" lon="16.538050095383657"><ele>59.0</ele><time>2026-05-03T09:37:36Z</time></trkpt><trkpt lat="38.444616882586864" lon="16.537699783564786"><ele>59.0</ele><time>2026-05-03T09:37:37Z</time></trkpt><trkpt lat="38.44477986332801" lon="16.537328932961866"><ele>59.0</ele><time>2026-05-03T09:37:38Z</time></trkpt><trkpt lat="38.44497162104672" lon="16.53701828151136"><ele>59.0</ele><time>2026-05-03T09:37:39Z</time></trkpt><trkpt lat="38.44513194791949" lon="16.536708465627964"><ele>59.0</ele><time>2026-05-03T09:37:40Z</time></trkpt><trkpt lat="38.445299784096434" lon="16.536395165373726"><ele>59.0</ele><time>2026-05-03T09:37:41Z</time></trkpt><trkpt lat="38.44544686236408" lon="16.53610598597021"><ele>59.0</ele><time>2026-05-03T09:37:42Z</time></trkpt><trkpt lat="38.445583236740966" lon="16.535840817193144"><ele>60.333333333333336</ele><time>2026-05-03T09:37:43Z</time></trkpt><trkpt lat="38.445710133228964" lon="16.535591717822243"><ele>61.66666666666667</ele><time>2026-05-03T09:37:44Z</time></trkpt><trkpt lat="38.44583339232075" lon="16.53536789153186"><ele>63.0</ele><time>2026-05-03T09:37:45.001Z</time></trkpt><trkpt lat="38.445968394018315" lon="16.53516470235543"><ele>63.0</ele><time>2026-05-03T09:37:46.001Z</time></trkpt><trkpt lat="38.44613723540984" lon="16.535019117177328"><ele>63.0</ele><time>2026-05-03T09:37:47.001Z</time></trkpt><trkpt lat="38.446303963396616" lon="16.534890951605828"><ele>63.0</ele><time>2026-05-03T09:37:48.001Z</time></trkpt><trkpt lat="38.44648554540319" lon="16.534749447393107"><ele>63.0</ele><time>2026-05-03T09:37:49.001Z</time></trkpt><trkpt lat="38.44668106060631" lon="16.53462006537536"><ele>63.0</ele><time>2026-05-03T09:37:50.001Z</time></trkpt><trkpt lat="38.4468861497467" lon="16.534480088034712"><ele>63.0</ele><time>2026-05-03T09:37:51.001Z</time></trkpt><trkpt lat="38.44708587786966" lon="16.53433848761963"><ele>63.0</ele><time>2026-05-03T09:37:52.001Z</time></trkpt><trkpt lat="38.44728565870937" lon="16.534197187088672"><ele>65.5</ele><time>2026-05-03T09:37:53.001Z</time></trkpt><trkpt lat="38.44748614717139" lon="16.534051556994545"><ele>68.0</ele><time>2026-05-03T09:37:54.001Z</time></trkpt><trkpt lat="38.44768602423162" lon="16.533905832623134"><ele>68.0</ele><time>2026-05-03T09:37:55.001Z</time></trkpt><trkpt lat="38.447881941829415" lon="16.533750324364306"><ele>68.0</ele><time>2026-05-03T09:37:56.001Z</time></trkpt><trkpt lat="38.44806680367906" lon="16.53356288536217"><ele>67.5</ele><time>2026-05-03T09:37:57.001Z</time></trkpt><trkpt lat="38.44823843412175" lon="16.53335050077503"><ele>67.0</ele><time>2026-05-03T09:37:58.001Z</time></trkpt><trkpt lat="38.4484097498803" lon="16.533133513565307"><ele>67.0</ele><time>2026-05-03T09:37:59Z</time></trkpt><trkpt lat="38.448579218112535" lon="16.53292486474539"><ele>67.0</ele><time>2026-05-03T09:38:00Z</time></trkpt><trkpt lat="38.448751365093386" lon="16.532715158133847"><ele>69.0</ele><time>2026-05-03T09:38:01Z</time></trkpt><trkpt lat="38.44891874662277" lon="16.532513312396595"><ele>71.0</ele><time>2026-05-03T09:38:02Z</time></trkpt><trkpt lat="38.44908441841338" lon="16.53231679003339"><ele>71.0</ele><time>2026-05-03T09:38:03Z</time></trkpt><trkpt lat="38.44924849547514" lon="16.532118333166803"><ele>71.0</ele><time>2026-05-03T09:38:04Z</time></trkpt><trkpt lat="38.449416544998684" lon="16.53191398647631"><ele>70.0</ele><time>2026-05-03T09:38:05Z</time></trkpt><trkpt lat="38.449592103548994" lon="16.531716817753367"><ele>69.0</ele><time>2026-05-03T09:38:06Z</time></trkpt><trkpt lat="38.44978159085555" lon="16.531547012944"><ele>73.0</ele><time>2026-05-03T09:38:07Z</time></trkpt><trkpt lat="38.449987833683664" lon="16.531407989304057"><ele>77.0</ele><time>2026-05-03T09:38:08Z</time></trkpt><trkpt lat="38.45018082057816" lon="16.531251781205228"><ele>78.0</ele><time>2026-05-03T09:38:09Z</time></trkpt><trkpt lat="38.4503581317489" lon="16.531071447246845"><ele>79.0</ele><time>2026-05-03T09:38:10Z</time></trkpt><trkpt lat="38.45052892598037" lon="16.53088344687945"><ele>79.0</ele><time>2026-05-03T09:38:11Z</time></trkpt><trkpt lat="38.450699811304965" lon="16.53070294172704"><ele>79.0</ele><time>2026-05-03T09:38:12Z</time></trkpt><trkpt lat="38.45087155295295" lon="16.53053545012453"><ele>79.0</ele><time>2026-05-03T09:38:13Z</time></trkpt><trkpt lat="38.451040556100196" lon="16.530385809378227"><ele>78.66666666666666</ele><time>2026-05-03T09:38:14Z</time></trkpt><trkpt lat="38.451220737065235" lon="16.53025115078847"><ele>78.33333333333333</ele><time>2026-05-03T09:38:15Z</time></trkpt><trkpt lat="38.45141079322498" lon="16.530138147125886"><ele>78.0</ele><time>2026-05-03T09:38:16Z</time></trkpt><trkpt lat="38.45157424391031" lon="16.530044134933913"><ele>78.0</ele><time>2026-05-03T09:38:17Z</time></trkpt><trkpt lat="38.45172965473974" lon="16.529959150177827"><ele>78.0</ele><time>2026-05-03T09:38:18Z</time></trkpt><trkpt lat="38.451880878385126" lon="16.52987494085796"><ele>78.0</ele><time>2026-05-03T09:38:19Z</time></trkpt><trkpt lat="38.452034387637966" lon="16.52978666357954"><ele>78.66666666666667</ele><time>2026-05-03T09:38:20Z</time></trkpt><trkpt lat="38.452193159824056" lon="16.52968934935017"><ele>79.33333333333334</ele><time>2026-05-03T09:38:21Z</time></trkpt><trkpt lat="38.45235311249263" lon="16.529571706544473"><ele>80.0</ele><time>2026-05-03T09:38:22Z</time></trkpt><trkpt lat="38.452509077227084" lon="16.529430363581643"><ele>80.0</ele><time>2026-05-03T09:38:23Z</time></trkpt><trkpt lat="38.45265160560247" lon="16.52926812021232"><ele>80.0</ele><time>2026-05-03T09:38:24Z</time></trkpt><trkpt lat="38.452792167774696" lon="16.52912025426482"><ele>80.0</ele><time>2026-05-03T09:38:25Z</time></trkpt><trkpt lat="38.45291284932647" lon="16.528991960520933"><ele>81.0</ele><time>2026-05-03T09:38:26Z</time></trkpt><trkpt lat="38.45302485597209" lon="16.528870587567834"><ele>82.0</ele><time>2026-05-03T09:38:27Z</time></trkpt><trkpt lat="38.45313416065758" lon="16.5287244490732"><ele>83.0</ele><time>2026-05-03T09:38:28Z</time></trkpt><trkpt lat="38.453238309383536" lon="16.528545655241192"><ele>83.0</ele><time>2026-05-03T09:38:29Z</time></trkpt><trkpt lat="38.45337183633591" lon="16.5283059643893"><ele>83.0</ele><time>2026-05-03T09:38:30Z</time></trkpt><trkpt lat="38.453503298975875" lon="16.52808039734368"><ele>84.33333333333334</ele><time>2026-05-03T09:38:31Z</time></trkpt><trkpt lat="38.45363652849951" lon="16.52786132077213"><ele>85.66666666666667</ele><time>2026-05-03T09:38:32Z</time></trkpt><trkpt lat="38.45377261101001" lon="16.527679857183152"><ele>87.0</ele><time>2026-05-03T09:38:33Z</time></trkpt><trkpt lat="38.45392618069111" lon="16.527524926569022"><ele>87.0</ele><time>2026-05-03T09:38:34Z</time></trkpt><trkpt lat="38.454090350849725" lon="16.527460199916778"><ele>87.0</ele><time>2026-05-03T09:38:35Z</time></trkpt><trkpt lat="38.45422543851296" lon="16.527413114838982"><ele>87.0</ele><time>2026-05-03T09:38:36Z</time></trkpt><trkpt lat="38.45438446100857" lon="16.527470838209616"><ele>87.0</ele><time>2026-05-03T09:38:37Z</time></trkpt><trkpt lat="38.45456464830791" lon="16.527492791248207"><ele>87.0</ele><time>2026-05-03T09:38:38Z</time></trkpt><trkpt lat="38.454748763424114" lon="16.52751983873598"><ele>87.0</ele><time>2026-05-03T09:38:39Z</time></trkpt><trkpt lat="38.45494413346855" lon="16.52747969831368"><ele>87.66666666666667</ele><time>2026-05-03T09:38:40Z</time></trkpt><trkpt lat="38.45513228781322" lon="16.52736326648883"><ele>88.33333333333334</ele><time>2026-05-03T09:38:41Z</time></trkpt><trkpt lat="38.455294081979986" lon="16.52715936879677"><ele>89.0</ele><time>2026-05-03T09:38:42Z</time></trkpt><trkpt lat="38.45545012022624" lon="16.526994662472426"><ele>90.0</ele><time>2026-05-03T09:38:43Z</time></trkpt><trkpt lat="38.45558983137856" lon="16.526842879262137"><ele>91.0</ele><time>2026-05-03T09:38:44Z</time></trkpt><trkpt lat="38.455744218095845" lon="16.526696997456092"><ele>92.0</ele><time>2026-05-03T09:38:45Z</time></trkpt><trkpt lat="38.45590758725414" lon="16.52656102121502"><ele>92.0</ele><time>2026-05-03T09:38:46Z</time></trkpt><trkpt lat="38.45608823981459" lon="16.526434622021064"><ele>92.0</ele><time>2026-05-03T09:38:47Z</time></trkpt><trkpt lat="38.45626735815265" lon="16.526304603678824"><ele>92.0</ele><time>2026-05-03T09:38:48Z</time></trkpt><trkpt lat="38.45643664396092" lon="16.526128007466696"><ele>91.66666666666667</ele><time>2026-05-03T09:38:49Z</time></trkpt><trkpt lat="38.456608528131724" lon="16.525945574881607"><ele>91.33333333333333</ele><time>2026-05-03T09:38:50Z</time></trkpt><trkpt lat="38.4567676665659" lon="16.52578676846469"><ele>91.0</ele><time>2026-05-03T09:38:51Z</time></trkpt><trkpt lat="38.456908539486356" lon="16.52563732890699"><ele>91.0</ele><time>2026-05-03T09:38:52Z</time></trkpt><trkpt lat="38.457037982679445" lon="16.52549892809423"><ele>91.0</ele><time>2026-05-03T09:38:53Z</time></trkpt><trkpt lat="38.45715898212356" lon="16.525370181760685"><ele>91.0</ele><time>2026-05-03T09:38:54Z</time></trkpt><trkpt lat="38.45726933234743" lon="16.525230955931583"><ele>94.0</ele><time>2026-05-03T09:38:55Z</time></trkpt><trkpt lat="38.45733621136028" lon="16.525047971840145"><ele>97.0</ele><time>2026-05-03T09:38:56Z</time></trkpt><trkpt lat="38.45735527953333" lon="16.52482590753142"><ele>100.0</ele><time>2026-05-03T09:38:57Z</time></trkpt><trkpt lat="38.45733803862781" lon="16.524600403566307"><ele>98.66666666666667</ele><time>2026-05-03T09:38:58Z</time></trkpt><trkpt lat="38.45734777548439" lon="16.524415695524286"><ele>97.33333333333334</ele><time>2026-05-03T09:38:59Z</time></trkpt><trkpt lat="38.45739370563393" lon="16.52423190340161"><ele>96.0</ele><time>2026-05-03T09:39:00Z</time></trkpt><trkpt lat="38.45748255763673" lon="16.52406614632986"><ele>96.0</ele><time>2026-05-03T09:39:01Z</time></trkpt><trkpt lat="38.45760689504299" lon="16.52388328435105"><ele>96.0</ele><time>2026-05-03T09:39:02Z</time></trkpt><trkpt lat="38.45773691317543" lon="16.523702450305343"><ele>96.0</ele><time>2026-05-03T09:39:03Z</time></trkpt><trkpt lat="38.457846808858314" lon="16.523539056032458"><ele>96.75</ele><time>2026-05-03T09:39:04Z</time></trkpt><trkpt lat="38.45794630170545" lon="16.523394909795023"><ele>97.5</ele><time>2026-05-03T09:39:05Z</time></trkpt><trkpt lat="38.458051400057855" lon="16.52325920484385"><ele>98.25</ele><time>2026-05-03T09:39:06Z</time></trkpt><trkpt lat="38.45817029039714" lon="16.523151754114988"><ele>99.0</ele><time>2026-05-03T09:39:07Z</time></trkpt><trkpt lat="38.45830025558015" lon="16.523115122957762"><ele>99.0</ele><time>2026-05-03T09:39:08Z</time></trkpt><trkpt lat="38.45840871099605" lon="16.523177377192837"><ele>99.0</ele><time>2026-05-03T09:39:09Z</time></trkpt><trkpt lat="38.45849626273948" lon="16.5232817420277"><ele>99.0</ele><time>2026-05-03T09:39:10Z</time></trkpt><trkpt lat="38.45860429136326" lon="16.52338749920318"><ele>99.0</ele><time>2026-05-03T09:39:11Z</time></trkpt><trkpt lat="38.458743793243194" lon="16.523488942072863"><ele>100.25</ele><time>2026-05-03T09:39:12Z</time></trkpt><trkpt lat="38.45891970911535" lon="16.523427494875342"><ele>101.5</ele><time>2026-05-03T09:39:13Z</time></trkpt><trkpt lat="38.45900927812022" lon="16.52334393666639"><ele>102.75</ele><time>2026-05-03T09:39:14Z</time></trkpt><trkpt lat="38.459051508537435" lon="16.5232079567084"><ele>104.0</ele><time>2026-05-03T09:39:15Z</time></trkpt><trkpt lat="38.45900850891961" lon="16.52302944287647"><ele>103.5</ele><time>2026-05-03T09:39:17Z</time></trkpt><trkpt lat="38.45896273210388" lon="16.5228214657549"><ele>103.0</ele><time>2026-05-03T09:39:18Z</time></trkpt><trkpt lat="38.45894974590882" lon="16.522659194439175"><ele>102.5</ele><time>2026-05-03T09:39:19Z</time></trkpt><trkpt lat="38.458992768138636" lon="16.522495223775937"><ele>102.0</ele><time>2026-05-03T09:39:20Z</time></trkpt><trkpt lat="38.45910133765999" lon="16.52239062361396"><ele>102.0</ele><time>2026-05-03T09:39:21Z</time></trkpt><trkpt lat="38.45923342149126" lon="16.52226474858161"><ele>102.0</ele><time>2026-05-03T09:39:22Z</time></trkpt><trkpt lat="38.4593808289491" lon="16.52211610967391"><ele>102.0</ele><time>2026-05-03T09:39:23Z</time></trkpt><trkpt lat="38.45954373848693" lon="16.521973514440226"><ele>105.0</ele><time>2026-05-03T09:39:24Z</time></trkpt><trkpt lat="38.45970691587242" lon="16.521794865148056"><ele>108.0</ele><time>2026-05-03T09:39:25Z</time></trkpt><trkpt lat="38.459865964826484" lon="16.52158637097384"><ele>111.0</ele><time>2026-05-03T09:39:26Z</time></trkpt><trkpt lat="38.46002806981102" lon="16.52138110467748"><ele>111.66666666666666</ele><time>2026-05-03T09:39:27Z</time></trkpt><trkpt lat="38.46018972240142" lon="16.521186054277265"><ele>112.33333333333333</ele><time>2026-05-03T09:39:28Z</time></trkpt><trkpt lat="38.460328047353244" lon="16.521005848281572"><ele>113.0</ele><time>2026-05-03T09:39:29Z</time></trkpt><trkpt lat="38.46045433374474" lon="16.52084589017798"><ele>113.0</ele><time>2026-05-03T09:39:30Z</time></trkpt><trkpt lat="38.46057089340424" lon="16.520700130854276"><ele>113.0</ele><time>2026-05-03T09:39:31Z</time></trkpt><trkpt lat="38.46070773579224" lon="16.520608765267045"><ele>113.0</ele><time>2026-05-03T09:39:32Z</time></trkpt><trkpt lat="38.46087303673636" lon="16.52052875906438"><ele>113.0</ele><time>2026-05-03T09:39:33Z</time></trkpt><trkpt lat="38.461025715468026" lon="16.520418590908573"><ele>113.0</ele><time>2026-05-03T09:39:34Z</time></trkpt><trkpt lat="38.46118249681694" lon="16.520340036929955"><ele>113.0</ele><time>2026-05-03T09:39:35Z</time></trkpt><trkpt lat="38.46130638331035" lon="16.52019061590838"><ele>111.66666666666666</ele><time>2026-05-03T09:39:36Z</time></trkpt><trkpt lat="38.461406849412924" lon="16.51996482400783"><ele>110.33333333333334</ele><time>2026-05-03T09:39:37Z</time></trkpt><trkpt lat="38.46149447529906" lon="16.519741904386912"><ele>109.0</ele><time>2026-05-03T09:39:38Z</time></trkpt><trkpt lat="38.46154814546541" lon="16.519547292701795"><ele>106.66666666666667</ele><time>2026-05-03T09:39:39Z</time></trkpt><trkpt lat="38.46170890100176" lon="16.519370918651724"><ele>104.33333333333334</ele><time>2026-05-03T09:39:40Z</time></trkpt><trkpt lat="38.46186547148286" lon="16.51919942352566"><ele>102.0</ele><time>2026-05-03T09:39:41Z</time></trkpt><trkpt lat="38.46202001109894" lon="16.51902149696521"><ele>108.66666666666666</ele><time>2026-05-03T09:39:42Z</time></trkpt><trkpt lat="38.46212721168806" lon="16.518785624983387"><ele>115.33333333333333</ele><time>2026-05-03T09:39:43Z</time></trkpt><trkpt lat="38.46218309962578" lon="16.518503479301057"><ele>122.0</ele><time>2026-05-03T09:39:44Z</time></trkpt><trkpt lat="38.46224847053214" lon="16.51821360868058"><ele>122.0</ele><time>2026-05-03T09:39:45Z</time></trkpt><trkpt lat="38.462324197734524" lon="16.517934608164968"><ele>122.0</ele><time>2026-05-03T09:39:46Z</time></trkpt><trkpt lat="38.46240996162353" lon="16.51765313040368"><ele>115.5</ele><time>2026-05-03T09:39:47Z</time></trkpt><trkpt lat="38.46249667266713" lon="16.517370075395085"><ele>109.0</ele><time>2026-05-03T09:39:48Z</time></trkpt><trkpt lat="38.46258826836109" lon="16.517091825133537"><ele>105.66666666666667</ele><time>2026-05-03T09:39:49Z</time></trkpt><trkpt lat="38.46267506031504" lon="16.51683958483332"><ele>102.33333333333334</ele><time>2026-05-03T09:39:50Z</time></trkpt><trkpt lat="38.46276199360008" lon="16.51659783774583"><ele>99.0</ele><time>2026-05-03T09:39:51Z</time></trkpt><trkpt lat="38.462856595606354" lon="16.516352044190736"><ele>103.66666666666666</ele><time>2026-05-03T09:39:52Z</time></trkpt><trkpt lat="38.46295442685831" lon="16.516116516194515"><ele>108.33333333333333</ele><time>2026-05-03T09:39:53Z</time></trkpt><trkpt lat="38.46306995674902" lon="16.515892451051794"><ele>113.0</ele><time>2026-05-03T09:39:54Z</time></trkpt><trkpt lat="38.4632304979436" lon="16.515703759081422"><ele>113.0</ele><time>2026-05-03T09:39:55Z</time></trkpt><trkpt lat="38.46338835813568" lon="16.51550276004532"><ele>113.0</ele><time>2026-05-03T09:39:56Z</time></trkpt><trkpt lat="38.4635219594381" lon="16.51530987675175"><ele>113.0</ele><time>2026-05-03T09:39:57Z</time></trkpt><trkpt lat="38.46361859762087" lon="16.515060716432107"><ele>113.0</ele><time>2026-05-03T09:39:58Z</time></trkpt><trkpt lat="38.46369322417345" lon="16.51479090500495"><ele>113.0</ele><time>2026-05-03T09:39:59Z</time></trkpt><trkpt lat="38.46378778814711" lon="16.51454037820159"><ele>113.0</ele><time>2026-05-03T09:40:00Z</time></trkpt><trkpt lat="38.46390959355665" lon="16.514313242969408"><ele>113.0</ele><time>2026-05-03T09:40:01Z</time></trkpt><trkpt lat="38.46405195105221" lon="16.51408420424697"><ele>113.0</ele><time>2026-05-03T09:40:02Z</time></trkpt><trkpt lat="38.464184654308674" lon="16.513864557762318"><ele>113.0</ele><time>2026-05-03T09:40:03Z</time></trkpt><trkpt lat="38.46430305047806" lon="16.513657896052806"><ele>110.66666666666666</ele><time>2026-05-03T09:40:04Z</time></trkpt><trkpt lat="38.464409485689465" lon="16.51347370051909"><ele>108.33333333333334</ele><time>2026-05-03T09:40:05Z</time></trkpt><trkpt lat="38.464506313084435" lon="16.513301700255262"><ele>106.0</ele><time>2026-05-03T09:40:06Z</time></trkpt><trkpt lat="38.46456517564572" lon="16.513120965515583"><ele>106.0</ele><time>2026-05-03T09:40:07Z</time></trkpt><trkpt lat="38.46456864222356" lon="16.51289531270082"><ele>106.0</ele><time>2026-05-03T09:40:08Z</time></trkpt><trkpt lat="38.46455608199277" lon="16.512659013239393"><ele>106.0</ele><time>2026-05-03T09:40:09Z</time></trkpt><trkpt lat="38.464575013846584" lon="16.51245307052535"><ele>109.66666666666667</ele><time>2026-05-03T09:40:10Z</time></trkpt><trkpt lat="38.46463417565462" lon="16.512262699760146"><ele>113.33333333333334</ele><time>2026-05-03T09:40:11Z</time></trkpt><trkpt lat="38.46472056969141" lon="16.51206348529223"><ele>117.0</ele><time>2026-05-03T09:40:12Z</time></trkpt><trkpt lat="38.4648278903716" lon="16.511872229509603"><ele>117.0</ele><time>2026-05-03T09:40:13Z</time></trkpt><trkpt lat="38.464910779650765" lon="16.511644003016976"><ele>117.0</ele><time>2026-05-03T09:40:14Z</time></trkpt><trkpt lat="38.46495513342782" lon="16.511376734778985"><ele>117.0</ele><time>2026-05-03T09:40:15Z</time></trkpt><trkpt lat="38.46498657237141" lon="16.511137633101807"><ele>116.0</ele><time>2026-05-03T09:40:16Z</time></trkpt><trkpt lat="38.46503197136776" lon="16.510936409273942"><ele>115.0</ele><time>2026-05-03T09:40:17Z</time></trkpt><trkpt lat="38.465114227878516" lon="16.510749066776764"><ele>114.0</ele><time>2026-05-03T09:40:18Z</time></trkpt><trkpt lat="38.46523587025495" lon="16.51055686325894"><ele>113.0</ele><time>2026-05-03T09:40:19Z</time></trkpt><trkpt lat="38.465370903125084" lon="16.510337921095566"><ele>112.0</ele><time>2026-05-03T09:40:20Z</time></trkpt><trkpt lat="38.46550975327813" lon="16.510101801532272"><ele>111.0</ele><time>2026-05-03T09:40:21Z</time></trkpt><trkpt lat="38.465651067557005" lon="16.509858639734897"><ele>113.33333333333334</ele><time>2026-05-03T09:40:22Z</time></trkpt><trkpt lat="38.46578163054318" lon="16.509627429021748"><ele>115.66666666666667</ele><time>2026-05-03T09:40:23Z</time></trkpt><trkpt lat="38.46590337240751" lon="16.509414893030513"><ele>118.0</ele><time>2026-05-03T09:40:24Z</time></trkpt><trkpt lat="38.46601190522978" lon="16.50920924822711"><ele>118.0</ele><time>2026-05-03T09:40:25Z</time></trkpt><trkpt lat="38.466121593063306" lon="16.509005710524253"><ele>118.0</ele><time>2026-05-03T09:40:26Z</time></trkpt><trkpt lat="38.46619870107664" lon="16.508783335548696"><ele>118.0</ele><time>2026-05-03T09:40:27Z</time></trkpt><trkpt lat="38.46622139990203" lon="16.508545155833446"><ele>117.33333333333334</ele><time>2026-05-03T09:40:28Z</time></trkpt><trkpt lat="38.466197028788365" lon="16.50829105950539"><ele>116.66666666666666</ele><time>2026-05-03T09:40:29Z</time></trkpt><trkpt lat="38.46613916134069" lon="16.508015020676893"><ele>116.0</ele><time>2026-05-03T09:40:30Z</time></trkpt><trkpt lat="38.466088758771264" lon="16.50775041887405"><ele>116.0</ele><time>2026-05-03T09:40:31Z</time></trkpt><trkpt lat="38.46605931004296" lon="16.5075118476952"><ele>116.0</ele><time>2026-05-03T09:40:32Z</time></trkpt><trkpt lat="38.46605214579204" lon="16.507296233518115"><ele>116.0</ele><time>2026-05-03T09:40:33Z</time></trkpt><trkpt lat="38.4661042600368" lon="16.5070849952751"><ele>115.66666666666666</ele><time>2026-05-03T09:40:34Z</time></trkpt><trkpt lat="38.466150572495295" lon="16.506845856778707"><ele>115.33333333333334</ele><time>2026-05-03T09:40:35Z</time></trkpt><trkpt lat="38.46620919434763" lon="16.50661348648392"><ele>115.0</ele><time>2026-05-03T09:40:36Z</time></trkpt><trkpt lat="38.466201188585174" lon="16.506362253928977"><ele>115.66666666666667</ele><time>2026-05-03T09:40:37Z</time></trkpt><trkpt lat="38.46617075669179" lon="16.50609658468716"><ele>116.33333333333334</ele><time>2026-05-03T09:40:38Z</time></trkpt><trkpt lat="38.466136016022624" lon="16.50586267748675"><ele>117.0</ele><time>2026-05-03T09:40:39Z</time></trkpt><trkpt lat="38.46614608038237" lon="16.505664916422553"><ele>117.0</ele><time>2026-05-03T09:40:40Z</time></trkpt><trkpt lat="38.466190229492355" lon="16.505485643595705"><ele>117.0</ele><time>2026-05-03T09:40:41Z</time></trkpt><trkpt lat="38.466279512501906" lon="16.505329612195727"><ele>117.0</ele><time>2026-05-03T09:40:42Z</time></trkpt><trkpt lat="38.46639774498452" lon="16.505171075764643"><ele>121.33333333333334</ele><time>2026-05-03T09:40:43Z</time></trkpt><trkpt lat="38.466516438007076" lon="16.505024929014922"><ele>125.66666666666667</ele><time>2026-05-03T09:40:44Z</time></trkpt><trkpt lat="38.46663817441997" lon="16.504859797674236"><ele>130.0</ele><time>2026-05-03T09:40:45Z</time></trkpt><trkpt lat="38.4667331705646" lon="16.50469039303327"><ele>129.0</ele><time>2026-05-03T09:40:46Z</time></trkpt><trkpt lat="38.466820141882756" lon="16.50450083903031"><ele>128.0</ele><time>2026-05-03T09:40:47Z</time></trkpt><trkpt lat="38.46687690071992" lon="16.50429753145149"><ele>127.0</ele><time>2026-05-03T09:40:48Z</time></trkpt><trkpt lat="38.46694517870009" lon="16.50407677434261"><ele>127.0</ele><time>2026-05-03T09:40:49Z</time></trkpt><trkpt lat="38.4669606867447" lon="16.503878337622698"><ele>127.0</ele><time>2026-05-03T09:40:50Z</time></trkpt><trkpt lat="38.46696235722035" lon="16.503658495962814"><ele>127.0</ele><time>2026-05-03T09:40:51Z</time></trkpt><trkpt lat="38.46694110238742" lon="16.50343718814538"><ele>127.33333333333334</ele><time>2026-05-03T09:40:52Z</time></trkpt><trkpt lat="38.4668992936312" lon="16.503220297837913"><ele>127.66666666666666</ele><time>2026-05-03T09:40:53Z</time></trkpt><trkpt lat="38.46685570391445" lon="16.503037123163303"><ele>128.0</ele><time>2026-05-03T09:40:54Z</time></trkpt><trkpt lat="38.46678346592605" lon="16.502836428865145"><ele>128.66666666666666</ele><time>2026-05-03T09:40:55Z</time></trkpt><trkpt lat="38.46669413455784" lon="16.502658354764467"><ele>129.33333333333334</ele><time>2026-05-03T09:40:56Z</time></trkpt><trkpt lat="38.46657556689428" lon="16.502503395142277"><ele>130.0</ele><time>2026-05-03T09:40:57Z</time></trkpt><trkpt lat="38.466429892519834" lon="16.502388804895006"><ele>127.66666666666667</ele><time>2026-05-03T09:40:58Z</time></trkpt><trkpt lat="38.466249938493725" lon="16.50231271468846"><ele>125.33333333333334</ele><time>2026-05-03T09:40:59Z</time></trkpt><trkpt lat="38.466056886896205" lon="16.502266722702394"><ele>123.0</ele><time>2026-05-03T09:41:00Z</time></trkpt><trkpt lat="38.46585627523046" lon="16.502209189683423"><ele>123.0</ele><time>2026-05-03T09:41:01Z</time></trkpt><trkpt lat="38.46565698118152" lon="16.5021459794738"><ele>123.0</ele><time>2026-05-03T09:41:02Z</time></trkpt><trkpt lat="38.46545575220071" lon="16.502083554284614"><ele>123.0</ele><time>2026-05-03T09:41:03Z</time></trkpt><trkpt lat="38.4652678401901" lon="16.502028776167556"><ele>124.66666666666666</ele><time>2026-05-03T09:41:04Z</time></trkpt><trkpt lat="38.465098229490934" lon="16.501981173862205"><ele>126.33333333333333</ele><time>2026-05-03T09:41:05Z</time></trkpt><trkpt lat="38.46494161647332" lon="16.501916661208366"><ele>128.0</ele><time>2026-05-03T09:41:06Z</time></trkpt><trkpt lat="38.46480017540883" lon="16.501865425500654"><ele>128.0</ele><time>2026-05-03T09:41:07Z</time></trkpt><trkpt lat="38.464675996260006" lon="16.50179222774999"><ele>128.0</ele><time>2026-05-03T09:41:08Z</time></trkpt><trkpt lat="38.464575767914226" lon="16.501679638621248"><ele>128.0</ele><time>2026-05-03T09:41:09Z</time></trkpt><trkpt lat="38.46450503073271" lon="16.501515902266885"><ele>128.0</ele><time>2026-05-03T09:41:10Z</time></trkpt><trkpt lat="38.464475332869256" lon="16.501367292093743"><ele>127.0</ele><time>2026-05-03T09:41:11Z</time></trkpt><trkpt lat="38.46444963552269" lon="16.501136299964998"><ele>126.0</ele><time>2026-05-03T09:41:12Z</time></trkpt><trkpt lat="38.46445897446252" lon="16.500889735624277"><ele>125.0</ele><time>2026-05-03T09:41:13Z</time></trkpt><trkpt lat="38.46446186090398" lon="16.500633583831473"><ele>125.66666666666666</ele><time>2026-05-03T09:41:14Z</time></trkpt><trkpt lat="38.46445691473378" lon="16.500396109231446"><ele>126.33333333333334</ele><time>2026-05-03T09:41:15Z</time></trkpt><trkpt lat="38.46447135711484" lon="16.5001976551388"><ele>127.0</ele><time>2026-05-03T09:41:16Z</time></trkpt><trkpt lat="38.464434158097426" lon="16.499877673326107"><ele>127.0</ele><time>2026-05-03T09:41:17Z</time></trkpt><trkpt lat="38.46442921416198" lon="16.49960192241829"><ele>127.0</ele><time>2026-05-03T09:41:18Z</time></trkpt><trkpt lat="38.464439436805115" lon="16.49932468999277"><ele>127.0</ele><time>2026-05-03T09:41:19Z</time></trkpt><trkpt lat="38.46447029211298" lon="16.49904247396327"><ele>125.5</ele><time>2026-05-03T09:41:20Z</time></trkpt><trkpt lat="38.46451852315588" lon="16.498757707471636"><ele>124.0</ele><time>2026-05-03T09:41:21Z</time></trkpt><trkpt lat="38.464592173347064" lon="16.4984675180883"><ele>126.0</ele><time>2026-05-03T09:41:22Z</time></trkpt><trkpt lat="38.46468811045386" lon="16.498176368974374"><ele>128.0</ele><time>2026-05-03T09:41:23Z</time></trkpt><trkpt lat="38.46479535398485" lon="16.497870551862423"><ele>128.0</ele><time>2026-05-03T09:41:24Z</time></trkpt><trkpt lat="38.46491120853408" lon="16.497551026816488"><ele>128.0</ele><time>2026-05-03T09:41:25Z</time></trkpt><trkpt lat="38.4650351576391" lon="16.497197972731055"><ele>128.0</ele><time>2026-05-03T09:41:26Z</time></trkpt><trkpt lat="38.465176885049715" lon="16.49681330926154"><ele>128.0</ele><time>2026-05-03T09:41:27Z</time></trkpt><trkpt lat="38.46531034160309" lon="16.496445228764735"><ele>128.5</ele><time>2026-05-03T09:41:28Z</time></trkpt><trkpt lat="38.46543050387215" lon="16.4961231323573"><ele>129.0</ele><time>2026-05-03T09:41:29Z</time></trkpt><trkpt lat="38.4655358074925" lon="16.49582927121744"><ele>131.5</ele><time>2026-05-03T09:41:30Z</time></trkpt><trkpt lat="38.4656349123698" lon="16.495538797219275"><ele>134.0</ele><time>2026-05-03T09:41:31Z</time></trkpt><trkpt lat="38.46573413601488" lon="16.495239217629145"><ele>134.0</ele><time>2026-05-03T09:41:32Z</time></trkpt><trkpt lat="38.46582301250463" lon="16.49492457716425"><ele>134.0</ele><time>2026-05-03T09:41:33Z</time></trkpt><trkpt lat="38.46589110104553" lon="16.49459663053423"><ele>134.0</ele><time>2026-05-03T09:41:34Z</time></trkpt><trkpt lat="38.465934082832725" lon="16.49426292196899"><ele>134.0</ele><time>2026-05-03T09:41:35Z</time></trkpt><trkpt lat="38.46594961195297" lon="16.493914148116627"><ele>133.5</ele><time>2026-05-03T09:41:36Z</time></trkpt><trkpt lat="38.465937906431996" lon="16.49357197793425"><ele>133.0</ele><time>2026-05-03T09:41:37Z</time></trkpt><trkpt lat="38.46589963406541" lon="16.49320909259818"><ele>132.5</ele><time>2026-05-03T09:41:38Z</time></trkpt><trkpt lat="38.46585467459458" lon="16.492834876422517"><ele>132.0</ele><time>2026-05-03T09:41:39Z</time></trkpt><trkpt lat="38.46580935804486" lon="16.492465707231833"><ele>132.0</ele><time>2026-05-03T09:41:40Z</time></trkpt><trkpt lat="38.46575998098098" lon="16.492105116053313"><ele>132.0</ele><time>2026-05-03T09:41:41Z</time></trkpt><trkpt lat="38.46571669600113" lon="16.491727859110654"><ele>132.5</ele><time>2026-05-03T09:41:42Z</time></trkpt><trkpt lat="38.46567529503175" lon="16.491358683949997"><ele>133.0</ele><time>2026-05-03T09:41:43Z</time></trkpt><trkpt lat="38.465633516361606" lon="16.49099980956619"><ele>133.5</ele><time>2026-05-03T09:41:44Z</time></trkpt><trkpt lat="38.46558918905255" lon="16.49066044567106"><ele>134.0</ele><time>2026-05-03T09:41:45Z</time></trkpt><trkpt lat="38.46555309554683" lon="16.490350393664148"><ele>135.5</ele><time>2026-05-03T09:41:46Z</time></trkpt><trkpt lat="38.4655177257328" lon="16.49005397254471"><ele>137.0</ele><time>2026-05-03T09:41:47Z</time></trkpt><trkpt lat="38.46548170097474" lon="16.489761478708033"><ele>139.0</ele><time>2026-05-03T09:41:48Z</time></trkpt><trkpt lat="38.46544259403501" lon="16.489474850797635"><ele>141.0</ele><time>2026-05-03T09:41:49Z</time></trkpt><trkpt lat="38.46540868806775" lon="16.489214359844205"><ele>143.0</ele><time>2026-05-03T09:41:50Z</time></trkpt><trkpt lat="38.46540524522234" lon="16.488905260167584"><ele>145.0</ele><time>2026-05-03T09:41:51Z</time></trkpt><trkpt lat="38.46542099373984" lon="16.488598705375523"><ele>147.0</ele><time>2026-05-03T09:41:52Z</time></trkpt><trkpt lat="38.465468702350925" lon="16.4882855751071"><ele>144.5</ele><time>2026-05-03T09:41:53Z</time></trkpt><trkpt lat="38.46553257901254" lon="16.48797869464098"><ele>142.0</ele><time>2026-05-03T09:41:54Z</time></trkpt><trkpt lat="38.465636295188276" lon="16.487673587386404"><ele>142.0</ele><time>2026-05-03T09:41:55Z</time></trkpt><trkpt lat="38.46577245060702" lon="16.48737905815092"><ele>142.0</ele><time>2026-05-03T09:41:56Z</time></trkpt><trkpt lat="38.465922299685374" lon="16.487114414442864"><ele>147.0</ele><time>2026-05-03T09:41:57Z</time></trkpt><trkpt lat="38.466061988496364" lon="16.486872241577878"><ele>152.0</ele><time>2026-05-03T09:41:58Z</time></trkpt><trkpt lat="38.46618940010267" lon="16.48663968865551"><ele>148.66666666666666</ele><time>2026-05-03T09:41:59Z</time></trkpt><trkpt lat="38.46631233481312" lon="16.486408631765855"><ele>145.33333333333334</ele><time>2026-05-03T09:42:00Z</time></trkpt><trkpt lat="38.46643577090591" lon="16.48618140023754"><ele>142.0</ele><time>2026-05-03T09:42:01Z</time></trkpt><trkpt lat="38.46655801869548" lon="16.485961019981442"><ele>142.0</ele><time>2026-05-03T09:42:02Z</time></trkpt><trkpt lat="38.46667724908988" lon="16.485763695776544"><ele>142.0</ele><time>2026-05-03T09:42:03Z</time></trkpt><trkpt lat="38.46680359897429" lon="16.485589858248282"><ele>142.0</ele><time>2026-05-03T09:42:04Z</time></trkpt><trkpt lat="38.46696513906269" lon="16.48543817188117"><ele>142.66666666666669</ele><time>2026-05-03T09:42:05Z</time></trkpt><trkpt lat="38.46712239665935" lon="16.485316928452498"><ele>143.33333333333334</ele><time>2026-05-03T09:42:06Z</time></trkpt><trkpt lat="38.467270625545815" lon="16.48522730009206"><ele>144.0</ele><time>2026-05-03T09:42:07Z</time></trkpt><trkpt lat="38.46743369081729" lon="16.48518319664317"><ele>144.0</ele><time>2026-05-03T09:42:08Z</time></trkpt><trkpt lat="38.467619259292505" lon="16.485184238115234"><ele>144.0</ele><time>2026-05-03T09:42:09Z</time></trkpt><trkpt lat="38.46782393552013" lon="16.48520144861898"><ele>144.0</ele><time>2026-05-03T09:42:10Z</time></trkpt><trkpt lat="38.46804767982991" lon="16.48521249838565"><ele>148.0</ele><time>2026-05-03T09:42:11Z</time></trkpt><trkpt lat="38.46826401044204" lon="16.485216671509807"><ele>152.0</ele><time>2026-05-03T09:42:12Z</time></trkpt><trkpt lat="38.468483588543705" lon="16.485185712321115"><ele>156.0</ele><time>2026-05-03T09:42:13Z</time></trkpt><trkpt lat="38.46869885358889" lon="16.485132769184343"><ele>156.0</ele><time>2026-05-03T09:42:14Z</time></trkpt><trkpt lat="38.46890029204006" lon="16.485079466889605"><ele>156.0</ele><time>2026-05-03T09:42:15Z</time></trkpt><trkpt lat="38.46909000991938" lon="16.48503805879675"><ele>156.0</ele><time>2026-05-03T09:42:16Z</time></trkpt><trkpt lat="38.46927706187979" lon="16.485036536951505"><ele>156.0</ele><time>2026-05-03T09:42:17Z</time></trkpt><trkpt lat="38.46946889407858" lon="16.4850553461742"><ele>156.0</ele><time>2026-05-03T09:42:18Z</time></trkpt><trkpt lat="38.46966517652479" lon="16.48508538015456"><ele>156.0</ele><time>2026-05-03T09:42:19Z</time></trkpt><trkpt lat="38.46985395554312" lon="16.48511174575173"><ele>156.25</ele><time>2026-05-03T09:42:20Z</time></trkpt><trkpt lat="38.47002463850684" lon="16.48512101254699"><ele>156.5</ele><time>2026-05-03T09:42:21Z</time></trkpt><trkpt lat="38.47016614623869" lon="16.48509256580362"><ele>156.75</ele><time>2026-05-03T09:42:22Z</time></trkpt><trkpt lat="38.47028284604117" lon="16.485012336528154"><ele>157.0</ele><time>2026-05-03T09:42:23Z</time></trkpt><trkpt lat="38.470336003623586" lon="16.484849891846913"><ele>157.0</ele><time>2026-05-03T09:42:24Z</time></trkpt><trkpt lat="38.47034898753332" lon="16.484653477898515"><ele>157.0</ele><time>2026-05-03T09:42:25Z</time></trkpt><trkpt lat="38.47034296030835" lon="16.48447370800881"><ele>157.0</ele><time>2026-05-03T09:42:26Z</time></trkpt><trkpt lat="38.47034284184061" lon="16.484269754890132"><ele>159.33333333333334</ele><time>2026-05-03T09:42:27Z</time></trkpt><trkpt lat="38.47038375851608" lon="16.484086490811563"><ele>161.66666666666666</ele><time>2026-05-03T09:42:28Z</time></trkpt><trkpt lat="38.47041735962344" lon="16.483882333083102"><ele>164.0</ele><time>2026-05-03T09:42:29Z</time></trkpt><trkpt lat="38.470448780557184" lon="16.483688613636804"><ele>164.0</ele><time>2026-05-03T09:42:30Z</time></trkpt><trkpt lat="38.4704796481394" lon="16.4835200661365"><ele>164.0</ele><time>2026-05-03T09:42:31Z</time></trkpt><trkpt lat="38.47052989246528" lon="16.483342003006104"><ele>164.0</ele><time>2026-05-03T09:42:32Z</time></trkpt><trkpt lat="38.470596021829905" lon="16.483164701007578"><ele>164.0</ele><time>2026-05-03T09:42:33Z</time></trkpt><trkpt lat="38.470675271937495" lon="16.482994474184707"><ele>164.0</ele><time>2026-05-03T09:42:34Z</time></trkpt><trkpt lat="38.47071926400346" lon="16.48283886953894"><ele>164.0</ele><time>2026-05-03T09:42:35Z</time></trkpt><trkpt lat="38.47071117841262" lon="16.482677015943977"><ele>164.0</ele><time>2026-05-03T09:42:36Z</time></trkpt><trkpt lat="38.47066525915033" lon="16.48250012087151"><ele>164.0</ele><time>2026-05-03T09:42:37Z</time></trkpt><trkpt lat="38.470605633395294" lon="16.482326183167313"><ele>164.0</ele><time>2026-05-03T09:42:38Z</time></trkpt><trkpt lat="38.47056586202406" lon="16.48219883592588"><ele>164.0</ele><time>2026-05-03T09:42:39Z</time></trkpt><trkpt lat="38.47053974738571" lon="16.482124819128494"><ele>164.0</ele><time>2026-05-03T09:42:40Z</time></trkpt><trkpt lat="38.47049157621334" lon="16.481859291431793"><ele>164.0</ele><time>2026-05-03T09:42:41Z</time></trkpt><trkpt lat="38.47044434885504" lon="16.481701746444966"><ele>163.79999999999998</ele><time>2026-05-03T09:42:42Z</time></trkpt><trkpt lat="38.470413981707935" lon="16.481555841520382"><ele>163.6</ele><time>2026-05-03T09:42:43Z</time></trkpt><trkpt lat="38.47041188839482" lon="16.48142987770931"><ele>163.4</ele><time>2026-05-03T09:42:44Z</time></trkpt><trkpt lat="38.47046562128312" lon="16.481311744789082"><ele>163.2</ele><time>2026-05-03T09:42:45Z</time></trkpt><trkpt lat="38.470565263167316" lon="16.481218981196083"><ele>163.0</ele><time>2026-05-03T09:42:46Z</time></trkpt><trkpt lat="38.470693186394556" lon="16.48114627455763"><ele>164.83333333333334</ele><time>2026-05-03T09:42:47Z</time></trkpt><trkpt lat="38.47079168484987" lon="16.481087676662206"><ele>166.66666666666669</ele><time>2026-05-03T09:42:48Z</time></trkpt><trkpt lat="38.47087505594263" lon="16.48103827854293"><ele>168.5</ele><time>2026-05-03T09:42:49Z</time></trkpt><trkpt lat="38.47095042219378" lon="16.48100386038066"><ele>170.33333333333334</ele><time>2026-05-03T09:42:50Z</time></trkpt><trkpt lat="38.471014961031976" lon="16.480995631952762"><ele>172.16666666666666</ele><time>2026-05-03T09:42:51Z</time></trkpt><trkpt lat="38.471103751777996" lon="16.481012011297036"><ele>174.0</ele><time>2026-05-03T09:42:53Z</time></trkpt><trkpt lat="38.47117468286164" lon="16.48103098840937"><ele>174.0</ele><time>2026-05-03T09:42:56Z</time></trkpt><trkpt lat="38.47123320151616" lon="16.48098149833635"><ele>174.0</ele><time>2026-05-03T09:43:00Z</time></trkpt><trkpt lat="38.47126596511567" lon="16.48090673073185"><ele>174.0</ele><time>2026-05-03T09:44:03Z</time></trkpt><trkpt lat="38.471396578008346" lon="16.480729560361233"><ele>174.0</ele><time>2026-05-03T09:44:04Z</time></trkpt><trkpt lat="38.47148257963766" lon="16.480625646640867"><ele>174.0</ele><time>2026-05-03T09:44:05Z</time></trkpt><trkpt lat="38.47156346993242" lon="16.480538261523822"><ele>174.5</ele><time>2026-05-03T09:44:06Z</time></trkpt><trkpt lat="38.47165587907918" lon="16.480446748170213"><ele>175.0</ele><time>2026-05-03T09:44:07Z</time></trkpt><trkpt lat="38.47176413542756" lon="16.480373263336677"><ele>175.5</ele><time>2026-05-03T09:44:08Z</time></trkpt><trkpt lat="38.471877664108696" lon="16.480294120497337"><ele>176.0</ele><time>2026-05-03T09:44:09Z</time></trkpt><trkpt lat="38.471976287533025" lon="16.4802315016828"><ele>176.0</ele><time>2026-05-03T09:44:10Z</time></trkpt><trkpt lat="38.47206238555728" lon="16.48018418722874"><ele>176.0</ele><time>2026-05-03T09:44:11Z</time></trkpt><trkpt lat="38.47215703009858" lon="16.480156193201072"><ele>176.0</ele><time>2026-05-03T09:44:12Z</time></trkpt><trkpt lat="38.47227126389211" lon="16.480155432764295"><ele>176.0</ele><time>2026-05-03T09:44:13Z</time></trkpt><trkpt lat="38.47238778009253" lon="16.48021454335025"><ele>176.0</ele><time>2026-05-03T09:44:14Z</time></trkpt><trkpt lat="38.472514499378256" lon="16.480288150982776"><ele>176.0</ele><time>2026-05-03T09:44:15Z</time></trkpt><trkpt lat="38.472631945996504" lon="16.48037029382511"><ele>176.0</ele><time>2026-05-03T09:44:16Z</time></trkpt><trkpt lat="38.472753039357514" lon="16.480453085624188"><ele>176.0</ele><time>2026-05-03T09:44:17Z</time></trkpt><trkpt lat="38.472871795617536" lon="16.480534279537203"><ele>176.0</ele><time>2026-05-03T09:44:18Z</time></trkpt><trkpt lat="38.47300369191434" lon="16.4806244573247"><ele>176.0</ele><time>2026-05-03T09:44:19Z</time></trkpt><trkpt lat="38.47314996321074" lon="16.48070298273463"><ele>176.0</ele><time>2026-05-03T09:44:20Z</time></trkpt><trkpt lat="38.47327184918819" lon="16.48079559527911"><ele>176.0</ele><time>2026-05-03T09:44:21Z</time></trkpt><trkpt lat="38.473389343648876" lon="16.480861617586232"><ele>176.0</ele><time>2026-05-03T09:44:22Z</time></trkpt><trkpt lat="38.47350778475715" lon="16.480860184455384"><ele>176.0</ele><time>2026-05-03T09:44:23Z</time></trkpt><trkpt lat="38.473629903200084" lon="16.48080295325839"><ele>176.0</ele><time>2026-05-03T09:44:24Z</time></trkpt><trkpt lat="38.47373333496899" lon="16.480690861304954"><ele>176.0</ele><time>2026-05-03T09:44:25Z</time></trkpt><trkpt lat="38.47382086069857" lon="16.48055891302094"><ele>176.0</ele><time>2026-05-03T09:44:26Z</time></trkpt><trkpt lat="38.4739119546584" lon="16.480407134037655"><ele>176.5</ele><time>2026-05-03T09:44:27Z</time></trkpt><trkpt lat="38.47402091317293" lon="16.48029630095603"><ele>177.0</ele><time>2026-05-03T09:44:28Z</time></trkpt><trkpt lat="38.474139055932255" lon="16.48018490397748"><ele>177.5</ele><time>2026-05-03T09:44:29Z</time></trkpt><trkpt lat="38.47424713681294" lon="16.48006621292986"><ele>178.0</ele><time>2026-05-03T09:44:30Z</time></trkpt><trkpt lat="38.47432982056755" lon="16.479918253769974"><ele>178.0</ele><time>2026-05-03T09:44:31Z</time></trkpt><trkpt lat="38.47439113585283" lon="16.479763237368868"><ele>178.0</ele><time>2026-05-03T09:44:32Z</time></trkpt><trkpt lat="38.47447100609276" lon="16.479642041432584"><ele>178.0</ele><time>2026-05-03T09:44:33Z</time></trkpt><trkpt lat="38.474578650731004" lon="16.479558237800386"><ele>178.0</ele><time>2026-05-03T09:44:34Z</time></trkpt><trkpt lat="38.47470883359847" lon="16.479487912814157"><ele>179.66666666666669</ele><time>2026-05-03T09:44:35Z</time></trkpt><trkpt lat="38.47485391099925" lon="16.479440428638075"><ele>181.33333333333334</ele><time>2026-05-03T09:44:36Z</time></trkpt><trkpt lat="38.475014658094466" lon="16.479410775214767"><ele>183.0</ele><time>2026-05-03T09:44:37Z</time></trkpt><trkpt lat="38.47517983483864" lon="16.47939861029177"><ele>183.0</ele><time>2026-05-03T09:44:38Z</time></trkpt><trkpt lat="38.47534599282597" lon="16.47939103067592"><ele>183.0</ele><time>2026-05-03T09:44:39Z</time></trkpt><trkpt lat="38.47551406431413" lon="16.479372306485207"><ele>183.0</ele><time>2026-05-03T09:44:40Z</time></trkpt><trkpt lat="38.47568379613331" lon="16.47933581780577"><ele>182.33333333333334</ele><time>2026-05-03T09:44:41Z</time></trkpt><trkpt lat="38.47585786001781" lon="16.479287593692835"><ele>181.66666666666669</ele><time>2026-05-03T09:44:42Z</time></trkpt><trkpt lat="38.47603646757949" lon="16.479234014678738"><ele>181.0</ele><time>2026-05-03T09:44:43Z</time></trkpt><trkpt lat="38.47621764983109" lon="16.479179141970697"><ele>179.0</ele><time>2026-05-03T09:44:44Z</time></trkpt><trkpt lat="38.476404940323185" lon="16.47912876909236"><ele>177.0</ele><time>2026-05-03T09:44:45Z</time></trkpt><trkpt lat="38.476584648515434" lon="16.479080055757596"><ele>175.0</ele><time>2026-05-03T09:44:46Z</time></trkpt><trkpt lat="38.47675631880671" lon="16.47904234954357"><ele>175.0</ele><time>2026-05-03T09:44:47Z</time></trkpt><trkpt lat="38.47691824350392" lon="16.479013255989404"><ele>175.0</ele><time>2026-05-03T09:44:48Z</time></trkpt><trkpt lat="38.477072483881905" lon="16.478980939647606"><ele>175.0</ele><time>2026-05-03T09:44:49Z</time></trkpt><trkpt lat="38.47721524993224" lon="16.478904521875876"><ele>175.25</ele><time>2026-05-03T09:44:50Z</time></trkpt><trkpt lat="38.47733958763322" lon="16.47878896036864"><ele>175.5</ele><time>2026-05-03T09:44:51Z</time></trkpt><trkpt lat="38.47745311865381" lon="16.478722336391797"><ele>175.75</ele><time>2026-05-03T09:44:52Z</time></trkpt><trkpt lat="38.47757237122671" lon="16.47870708433702"><ele>176.0</ele><time>2026-05-03T09:44:53Z</time></trkpt><trkpt lat="38.47769722216212" lon="16.478755356816084"><ele>176.0</ele><time>2026-05-03T09:44:54Z</time></trkpt><trkpt lat="38.477800837352824" lon="16.47886796957681"><ele>176.0</ele><time>2026-05-03T09:44:55Z</time></trkpt><trkpt lat="38.47792199622122" lon="16.47896671745858"><ele>176.0</ele><time>2026-05-03T09:44:56Z</time></trkpt><trkpt lat="38.478051365700644" lon="16.47903826303605"><ele>176.0</ele><time>2026-05-03T09:44:57Z</time></trkpt><trkpt lat="38.47822094757142" lon="16.479054389767175"><ele>177.33333333333331</ele><time>2026-05-03T09:44:58Z</time></trkpt><trkpt lat="38.47838179497477" lon="16.479090776131688"><ele>178.66666666666666</ele><time>2026-05-03T09:44:59Z</time></trkpt><trkpt lat="38.4785353841687" lon="16.47915823393277"><ele>180.0</ele><time>2026-05-03T09:45:00Z</time></trkpt><trkpt lat="38.478704041253174" lon="16.479176829379213"><ele>179.33333333333334</ele><time>2026-05-03T09:45:01Z</time></trkpt><trkpt lat="38.47887908690127" lon="16.479145150690268"><ele>178.66666666666669</ele><time>2026-05-03T09:45:02Z</time></trkpt><trkpt lat="38.47902514548597" lon="16.479061702855244"><ele>178.0</ele><time>2026-05-03T09:45:03Z</time></trkpt><trkpt lat="38.47915868907576" lon="16.478925983978506"><ele>183.0</ele><time>2026-05-03T09:45:04Z</time></trkpt><trkpt lat="38.47929083839409" lon="16.478741185446918"><ele>188.0</ele><time>2026-05-03T09:45:05Z</time></trkpt><trkpt lat="38.4794519286213" lon="16.47863479873422"><ele>193.0</ele><time>2026-05-03T09:45:06Z</time></trkpt><trkpt lat="38.47963369316642" lon="16.47858873430528"><ele>193.0</ele><time>2026-05-03T09:45:07Z</time></trkpt><trkpt lat="38.479850327213455" lon="16.478526956041193"><ele>193.0</ele><time>2026-05-03T09:45:08Z</time></trkpt><trkpt lat="38.48003322939108" lon="16.478418079994633"><ele>193.0</ele><time>2026-05-03T09:45:09Z</time></trkpt><trkpt lat="38.480201544982386" lon="16.478369773458496"><ele>193.0</ele><time>2026-05-03T09:45:10Z</time></trkpt><trkpt lat="38.48037644072038" lon="16.47837064082388"><ele>193.0</ele><time>2026-05-03T09:45:11Z</time></trkpt><trkpt lat="38.48055253040871" lon="16.478366165243795"><ele>193.0</ele><time>2026-05-03T09:45:12Z</time></trkpt><trkpt lat="38.48069223060337" lon="16.478336031251217"><ele>193.66666666666666</ele><time>2026-05-03T09:45:13Z</time></trkpt><trkpt lat="38.4808067562144" lon="16.478212410193347"><ele>194.33333333333331</ele><time>2026-05-03T09:45:14Z</time></trkpt><trkpt lat="38.48092174031567" lon="16.47801966776082"><ele>195.0</ele><time>2026-05-03T09:45:15Z</time></trkpt><trkpt lat="38.481036585021506" lon="16.477836325445693"><ele>195.0</ele><time>2026-05-03T09:45:16Z</time></trkpt><trkpt lat="38.48119615142959" lon="16.477719982504436"><ele>195.0</ele><time>2026-05-03T09:45:17Z</time></trkpt><trkpt lat="38.4813790866128" lon="16.47759315656544"><ele>195.0</ele><time>2026-05-03T09:45:18Z</time></trkpt><trkpt lat="38.48154119650029" lon="16.477465892618728"><ele>191.66666666666666</ele><time>2026-05-03T09:45:19Z</time></trkpt><trkpt lat="38.481680658469436" lon="16.47733787270105"><ele>188.33333333333331</ele><time>2026-05-03T09:45:20Z</time></trkpt><trkpt lat="38.48180220823539" lon="16.47714914162528"><ele>185.0</ele><time>2026-05-03T09:45:21Z</time></trkpt><trkpt lat="38.48192052780988" lon="16.476904112312287"><ele>184.5</ele><time>2026-05-03T09:45:22Z</time></trkpt><trkpt lat="38.48206003031563" lon="16.47658479669015"><ele>184.0</ele><time>2026-05-03T09:45:23Z</time></trkpt><trkpt lat="38.48224128633677" lon="16.476278095917564"><ele>187.0</ele><time>2026-05-03T09:45:24Z</time></trkpt><trkpt lat="38.48240024377422" lon="16.475983160651886"><ele>190.0</ele><time>2026-05-03T09:45:25Z</time></trkpt><trkpt lat="38.48252054690156" lon="16.475724981661205"><ele>190.0</ele><time>2026-05-03T09:45:26Z</time></trkpt><trkpt lat="38.48264472550338" lon="16.475503132557275"><ele>190.0</ele><time>2026-05-03T09:45:27Z</time></trkpt><trkpt lat="38.48280124321028" lon="16.47530880171465"><ele>190.0</ele><time>2026-05-03T09:45:28Z</time></trkpt><trkpt lat="38.48297885794437" lon="16.4751110119716"><ele>188.5</ele><time>2026-05-03T09:45:29Z</time></trkpt><trkpt lat="38.483179405936355" lon="16.474928301014724"><ele>187.0</ele><time>2026-05-03T09:45:30Z</time></trkpt><trkpt lat="38.48339747310811" lon="16.474723730498194"><ele>192.5</ele><time>2026-05-03T09:45:31Z</time></trkpt><trkpt lat="38.483637269403545" lon="16.47452290137845"><ele>198.0</ele><time>2026-05-03T09:45:32Z</time></trkpt><trkpt lat="38.483867828849846" lon="16.474329556588216"><ele>198.33333333333331</ele><time>2026-05-03T09:45:33Z</time></trkpt><trkpt lat="38.48406064188285" lon="16.47416532632134"><ele>198.66666666666666</ele><time>2026-05-03T09:45:34Z</time></trkpt><trkpt lat="38.484229979818736" lon="16.474026708522686"><ele>199.0</ele><time>2026-05-03T09:45:35Z</time></trkpt><trkpt lat="38.48438061263015" lon="16.473848105236435"><ele>198.66666666666666</ele><time>2026-05-03T09:45:36Z</time></trkpt><trkpt lat="38.48452071062849" lon="16.473607377465385"><ele>198.33333333333331</ele><time>2026-05-03T09:45:37Z</time></trkpt><trkpt lat="38.48464015796221" lon="16.473381152825414"><ele>198.0</ele><time>2026-05-03T09:45:38Z</time></trkpt><trkpt lat="38.48473446779793" lon="16.473200681698135"><ele>198.0</ele><time>2026-05-03T09:45:39Z</time></trkpt><trkpt lat="38.484812293820134" lon="16.473014007637577"><ele>198.0</ele><time>2026-05-03T09:45:40Z</time></trkpt><trkpt lat="38.484857144085275" lon="16.472776169829555"><ele>198.0</ele><time>2026-05-03T09:45:41Z</time></trkpt><trkpt lat="38.48487673059158" lon="16.472489556737504"><ele>198.33333333333331</ele><time>2026-05-03T09:45:42Z</time></trkpt><trkpt lat="38.48489968128074" lon="16.472199006617416"><ele>198.66666666666666</ele><time>2026-05-03T09:45:43Z</time></trkpt><trkpt lat="38.484919452664194" lon="16.471966570519605"><ele>199.0</ele><time>2026-05-03T09:45:44Z</time></trkpt><trkpt lat="38.48494891253858" lon="16.4717574711458"><ele>201.0</ele><time>2026-05-03T09:45:45Z</time></trkpt><trkpt lat="38.48501514488746" lon="16.471540928541263"><ele>203.0</ele><time>2026-05-03T09:45:46Z</time></trkpt><trkpt lat="38.48510909993146" lon="16.47129925812183"><ele>205.0</ele><time>2026-05-03T09:45:47Z</time></trkpt><trkpt lat="38.48521538702324" lon="16.47101776815416"><ele>205.33333333333331</ele><time>2026-05-03T09:45:48Z</time></trkpt><trkpt lat="38.485305674575265" lon="16.470766237518912"><ele>205.66666666666669</ele><time>2026-05-03T09:45:49Z</time></trkpt><trkpt lat="38.485376084117156" lon="16.47057234125516"><ele>206.0</ele><time>2026-05-03T09:45:50Z</time></trkpt><trkpt lat="38.48544958658257" lon="16.47041792434289"><ele>206.0</ele><time>2026-05-03T09:45:51Z</time></trkpt><trkpt lat="38.485568297011284" lon="16.47029397858962"><ele>206.0</ele><time>2026-05-03T09:45:52Z</time></trkpt><trkpt lat="38.48571917319698" lon="16.47014980220635"><ele>206.0</ele><time>2026-05-03T09:45:53Z</time></trkpt><trkpt lat="38.48589617936651" lon="16.46997448248108"><ele>206.0</ele><time>2026-05-03T09:45:54Z</time></trkpt><trkpt lat="38.48608094019689" lon="16.46980762501806"><ele>206.0</ele><time>2026-05-03T09:45:55Z</time></trkpt><trkpt lat="38.4862811787734" lon="16.469619883188734"><ele>205.33333333333334</ele><time>2026-05-03T09:45:56Z</time></trkpt><trkpt lat="38.48647898769207" lon="16.469442113503828"><ele>204.66666666666669</ele><time>2026-05-03T09:45:57Z</time></trkpt><trkpt lat="38.48664789759614" lon="16.469289421230602"><ele>204.0</ele><time>2026-05-03T09:45:58Z</time></trkpt><trkpt lat="38.48679646340028" lon="16.469124167472742"><ele>204.0</ele><time>2026-05-03T09:45:59Z</time></trkpt><trkpt lat="38.48693154496787" lon="16.46892062288003"><ele>204.0</ele><time>2026-05-03T09:46:00Z</time></trkpt><trkpt lat="38.4870421122188" lon="16.46869111477241"><ele>204.0</ele><time>2026-05-03T09:46:01Z</time></trkpt><trkpt lat="38.48713385817783" lon="16.4684331292793"><ele>204.5</ele><time>2026-05-03T09:46:02Z</time></trkpt><trkpt lat="38.48723203388305" lon="16.468145700648176"><ele>205.0</ele><time>2026-05-03T09:46:03Z</time></trkpt><trkpt lat="38.48735485352187" lon="16.46782397469619"><ele>205.0</ele><time>2026-05-03T09:46:04Z</time></trkpt><trkpt lat="38.487328074087486" lon="16.467386596957084"><ele>205.0</ele><time>2026-05-03T09:46:05Z</time></trkpt><trkpt lat="38.48739041701543" lon="16.467040457264748"><ele>208.0</ele><time>2026-05-03T09:46:06Z</time></trkpt><trkpt lat="38.48744896551176" lon="16.466741436315978"><ele>211.0</ele><time>2026-05-03T09:46:07Z</time></trkpt><trkpt lat="38.48750108092103" lon="16.466468478096324"><ele>212.33333333333331</ele><time>2026-05-03T09:46:08Z</time></trkpt><trkpt lat="38.487531392681525" lon="16.466220111763253"><ele>213.66666666666669</ele><time>2026-05-03T09:46:09Z</time></trkpt><trkpt lat="38.48750744030843" lon="16.465980669555286"><ele>215.0</ele><time>2026-05-03T09:46:10Z</time></trkpt><trkpt lat="38.48743943379868" lon="16.465773099784382"><ele>215.0</ele><time>2026-05-03T09:46:11Z</time></trkpt><trkpt lat="38.48733876264207" lon="16.465596173394488"><ele>215.0</ele><time>2026-05-03T09:46:12Z</time></trkpt><trkpt lat="38.48722127017436" lon="16.46541671150315"><ele>215.0</ele><time>2026-05-03T09:46:13Z</time></trkpt><trkpt lat="38.48710677860181" lon="16.465236424699654"><ele>216.0</ele><time>2026-05-03T09:46:14Z</time></trkpt><trkpt lat="38.4870233489845" lon="16.46505404477192"><ele>217.0</ele><time>2026-05-03T09:46:15Z</time></trkpt><trkpt lat="38.48700324603546" lon="16.464881564025"><ele>218.0</ele><time>2026-05-03T09:46:16Z</time></trkpt><trkpt lat="38.487029056174045" lon="16.46470290279245"><ele>219.0</ele><time>2026-05-03T09:46:17Z</time></trkpt><trkpt lat="38.48710090186039" lon="16.464495826489333"><ele>219.0</ele><time>2026-05-03T09:46:18Z</time></trkpt><trkpt lat="38.487178826646705" lon="16.464247103974632"><ele>219.0</ele><time>2026-05-03T09:46:19Z</time></trkpt><trkpt lat="38.48724295985417" lon="16.463982427302522"><ele>219.0</ele><time>2026-05-03T09:46:20Z</time></trkpt><trkpt lat="38.487304539766846" lon="16.463708431630575"><ele>219.66666666666669</ele><time>2026-05-03T09:46:21Z</time></trkpt><trkpt lat="38.48734537323287" lon="16.463419252214017"><ele>220.33333333333334</ele><time>2026-05-03T09:46:22Z</time></trkpt><trkpt lat="38.48737094965401" lon="16.463161904947"><ele>221.0</ele><time>2026-05-03T09:46:23Z</time></trkpt><trkpt lat="38.48738667811466" lon="16.462926063709766"><ele>219.33333333333334</ele><time>2026-05-03T09:46:24Z</time></trkpt><trkpt lat="38.48738314130473" lon="16.46270099025872"><ele>217.66666666666669</ele><time>2026-05-03T09:46:25Z</time></trkpt><trkpt lat="38.48734506752932" lon="16.462482937391393"><ele>216.0</ele><time>2026-05-03T09:46:26Z</time></trkpt><trkpt lat="38.487282362645274" lon="16.46222603842339"><ele>216.0</ele><time>2026-05-03T09:46:27Z</time></trkpt><trkpt lat="38.487168124099775" lon="16.46208645394057"><ele>216.0</ele><time>2026-05-03T09:46:28Z</time></trkpt><trkpt lat="38.48703822267462" lon="16.46193355973253"><ele>216.0</ele><time>2026-05-03T09:46:29Z</time></trkpt><trkpt lat="38.48695827917659" lon="16.461796954787978"><ele>218.75</ele><time>2026-05-03T09:46:30Z</time></trkpt><trkpt lat="38.486882720683916" lon="16.461660597570464"><ele>221.5</ele><time>2026-05-03T09:46:31Z</time></trkpt><trkpt lat="38.48676125319867" lon="16.461567968070252"><ele>224.25</ele><time>2026-05-03T09:46:32Z</time></trkpt><trkpt lat="38.48660185704008" lon="16.461499783867374"><ele>227.0</ele><time>2026-05-03T09:46:33Z</time></trkpt><trkpt lat="38.48641786425876" lon="16.461452059051318"><ele>228.0</ele><time>2026-05-03T09:46:34Z</time></trkpt><trkpt lat="38.486254446535256" lon="16.46141562180466"><ele>229.0</ele><time>2026-05-03T09:46:35Z</time></trkpt><trkpt lat="38.4861371301126" lon="16.461370039878258"><ele>230.0</ele><time>2026-05-03T09:46:36Z</time></trkpt><trkpt lat="38.486027477235204" lon="16.46130908945187"><ele>231.0</ele><time>2026-05-03T09:46:37Z</time></trkpt><trkpt lat="38.48595206252522" lon="16.461241231138416"><ele>231.0</ele><time>2026-05-03T09:46:38Z</time></trkpt><trkpt lat="38.48587676221118" lon="16.46118431634565"><ele>231.00000000000003</ele><time>2026-05-03T09:46:39Z</time></trkpt><trkpt lat="38.485809095306394" lon="16.46111182459683"><ele>231.00000000000003</ele><time>2026-05-03T09:46:40Z</time></trkpt><trkpt lat="38.4857433406865" lon="16.461007245539953"><ele>231.0</ele><time>2026-05-03T09:46:41Z</time></trkpt><trkpt lat="38.485693313059414" lon="16.460870994037776"><ele>231.0</ele><time>2026-05-03T09:46:42Z</time></trkpt><trkpt lat="38.48566958232015" lon="16.4607247409094"><ele>231.0</ele><time>2026-05-03T09:46:43Z</time></trkpt><trkpt lat="38.48566936908474" lon="16.4605498511169"><ele>231.0</ele><time>2026-05-03T09:46:44Z</time></trkpt><trkpt lat="38.48569332630458" lon="16.460353769709577"><ele>231.0</ele><time>2026-05-03T09:46:45Z</time></trkpt><trkpt lat="38.48570876370641" lon="16.46013379886173"><ele>230.66666666666669</ele><time>2026-05-03T09:46:46Z</time></trkpt><trkpt lat="38.48571842258267" lon="16.45990690202025"><ele>230.33333333333334</ele><time>2026-05-03T09:46:47Z</time></trkpt><trkpt lat="38.48573988850047" lon="16.459678873054305"><ele>230.0</ele><time>2026-05-03T09:46:48Z</time></trkpt><trkpt lat="38.48578559429015" lon="16.459442995014136"><ele>231.33333333333334</ele><time>2026-05-03T09:46:49Z</time></trkpt><trkpt lat="38.48584630510039" lon="16.459215086037677"><ele>232.66666666666669</ele><time>2026-05-03T09:46:50Z</time></trkpt><trkpt lat="38.485907012702285" lon="16.45898846360828"><ele>234.0</ele><time>2026-05-03T09:46:51Z</time></trkpt><trkpt lat="38.485962699511866" lon="16.458751879181015"><ele>236.33333333333331</ele><time>2026-05-03T09:46:52Z</time></trkpt><trkpt lat="38.48600534485019" lon="16.458514157335525"><ele>238.66666666666666</ele><time>2026-05-03T09:46:53Z</time></trkpt><trkpt lat="38.486011853462365" lon="16.45825814993282"><ele>241.0</ele><time>2026-05-03T09:46:54Z</time></trkpt><trkpt lat="38.48599533392112" lon="16.458007496029143"><ele>239.33333333333331</ele><time>2026-05-03T09:46:55Z</time></trkpt><trkpt lat="38.4859651490002" lon="16.45777108309488"><ele>237.66666666666669</ele><time>2026-05-03T09:46:56Z</time></trkpt><trkpt lat="38.48593876670649" lon="16.457542560996096"><ele>236.0</ele><time>2026-05-03T09:46:57Z</time></trkpt><trkpt lat="38.48589744663512" lon="16.457323356808363"><ele>236.0</ele><time>2026-05-03T09:46:58Z</time></trkpt><trkpt lat="38.485831762030706" lon="16.45710224507277"><ele>236.0</ele><time>2026-05-03T09:46:59Z</time></trkpt><trkpt lat="38.48575793514421" lon="16.456877954565876"><ele>236.0</ele><time>2026-05-03T09:47:00Z</time></trkpt><trkpt lat="38.485691663213544" lon="16.456665258896724"><ele>236.0</ele><time>2026-05-03T09:47:01Z</time></trkpt><trkpt lat="38.48563225646304" lon="16.456464173908156"><ele>236.0</ele><time>2026-05-03T09:47:02Z</time></trkpt><trkpt lat="38.48557370343131" lon="16.456277808111913"><ele>236.0</ele><time>2026-05-03T09:47:03Z</time></trkpt><trkpt lat="38.4855201289289" lon="16.456112937026248"><ele>234.66666666666669</ele><time>2026-05-03T09:47:04Z</time></trkpt><trkpt lat="38.48546894866046" lon="16.455948254553558"><ele>233.33333333333331</ele><time>2026-05-03T09:47:05Z</time></trkpt><trkpt lat="38.48544182685344" lon="16.455752294731806"><ele>232.0</ele><time>2026-05-03T09:47:06Z</time></trkpt><trkpt lat="38.485465938576766" lon="16.45554206279447"><ele>233.66666666666666</ele><time>2026-05-03T09:47:07Z</time></trkpt><trkpt lat="38.48552754313218" lon="16.455342311771762"><ele>235.33333333333331</ele><time>2026-05-03T09:47:08Z</time></trkpt><trkpt lat="38.48557878524985" lon="16.45512259192663"><ele>237.0</ele><time>2026-05-03T09:47:09Z</time></trkpt><trkpt lat="38.48563148235642" lon="16.4548933970717"><ele>237.0</ele><time>2026-05-03T09:47:10Z</time></trkpt><trkpt lat="38.4856762075406" lon="16.454684871145034"><ele>237.0</ele><time>2026-05-03T09:47:11Z</time></trkpt><trkpt lat="38.48571478743665" lon="16.454487208831505"><ele>237.0</ele><time>2026-05-03T09:47:12Z</time></trkpt><trkpt lat="38.48574759059021" lon="16.454288808804414"><ele>238.25</ele><time>2026-05-03T09:47:13Z</time></trkpt><trkpt lat="38.485766358761786" lon="16.45409756855951"><ele>239.5</ele><time>2026-05-03T09:47:14Z</time></trkpt><trkpt lat="38.4857821955202" lon="16.45391222156498"><ele>240.75</ele><time>2026-05-03T09:47:15Z</time></trkpt><trkpt lat="38.485776379946785" lon="16.45374224151418"><ele>242.0</ele><time>2026-05-03T09:47:16Z</time></trkpt><trkpt lat="38.485736917141416" lon="16.453566753804694"><ele>243.0</ele><time>2026-05-03T09:47:17Z</time></trkpt><trkpt lat="38.48568946564172" lon="16.453397038413154"><ele>244.0</ele><time>2026-05-03T09:47:18Z</time></trkpt><trkpt lat="38.48564078057795" lon="16.453229121979618"><ele>245.0</ele><time>2026-05-03T09:47:19Z</time></trkpt><trkpt lat="38.48560158008047" lon="16.453061146674788"><ele>246.0</ele><time>2026-05-03T09:47:20Z</time></trkpt><trkpt lat="38.485562515596" lon="16.452916422274548"><ele>246.5</ele><time>2026-05-03T09:47:21Z</time></trkpt><trkpt lat="38.48552551431118" lon="16.452756703266004"><ele>247.0</ele><time>2026-05-03T09:47:22Z</time></trkpt><trkpt lat="38.485490433702566" lon="16.452588393248387"><ele>247.5</ele><time>2026-05-03T09:47:23Z</time></trkpt><trkpt lat="38.485451049720545" lon="16.452451230866618"><ele>248.0</ele><time>2026-05-03T09:47:24Z</time></trkpt><trkpt lat="38.485414484710375" lon="16.45231758952858"><ele>250.5</ele><time>2026-05-03T09:47:25Z</time></trkpt><trkpt lat="38.485391959040264" lon="16.452171300770498"><ele>253.0</ele><time>2026-05-03T09:47:26Z</time></trkpt><trkpt lat="38.485360936732064" lon="16.45204318759765"><ele>255.5</ele><time>2026-05-03T09:47:27Z</time></trkpt><trkpt lat="38.485281015239686" lon="16.451905396891398"><ele>258.0</ele><time>2026-05-03T09:47:28Z</time></trkpt><trkpt lat="38.485187558888654" lon="16.451773159528983"><ele>258.3333333333333</ele><time>2026-05-03T09:47:29Z</time></trkpt><trkpt lat="38.48505424442492" lon="16.45164128375406"><ele>258.66666666666663</ele><time>2026-05-03T09:47:30Z</time></trkpt><trkpt lat="38.4848715350872" lon="16.451571625155722"><ele>259.0</ele><time>2026-05-03T09:47:31Z</time></trkpt><trkpt lat="38.48475401318814" lon="16.451592768934287"><ele>259.0</ele><time>2026-05-03T09:47:33Z</time></trkpt><trkpt lat="38.48464157966863" lon="16.451644995658068"><ele>259.0</ele><time>2026-05-03T09:47:34Z</time></trkpt><trkpt lat="38.48454301584262" lon="16.4516814128283"><ele>259.0</ele><time>2026-05-03T09:47:35Z</time></trkpt><trkpt lat="38.484441236999096" lon="16.451750525553972"><ele>259.0</ele><time>2026-05-03T09:47:36Z</time></trkpt><trkpt lat="38.484388599811766" lon="16.45181234615425"><ele>259.0</ele><time>2026-05-03T09:47:37Z</time></trkpt><trkpt lat="38.48431775327132" lon="16.451924509584117"><ele>260.75</ele><time>2026-05-03T09:47:38Z</time></trkpt><trkpt lat="38.48425084907057" lon="16.452057837491115"><ele>262.5</ele><time>2026-05-03T09:47:39Z</time></trkpt><trkpt lat="38.48419960070723" lon="16.452179131404126"><ele>264.25</ele><time>2026-05-03T09:47:40Z</time></trkpt><trkpt lat="38.48409471623756" lon="16.452084733926974"><ele>266.0</ele><time>2026-05-03T09:47:44Z</time></trkpt><trkpt lat="38.48400150544976" lon="16.452004796743726"><ele>266.1666666666667</ele><time>2026-05-03T09:47:45Z</time></trkpt><trkpt lat="38.48392430261639" lon="16.45193412265337"><ele>266.33333333333337</ele><time>2026-05-03T09:47:46Z</time></trkpt><trkpt lat="38.48386754772819" lon="16.451880014456847"><ele>266.5</ele><time>2026-05-03T09:47:47Z</time></trkpt><trkpt lat="38.483790079799476" lon="16.45181408585225"><ele>266.6666666666667</ele><time>2026-05-03T09:47:50Z</time></trkpt><trkpt lat="38.48381839518033" lon="16.451688649373885"><ele>266.8333333333333</ele><time>2026-05-03T09:47:52Z</time></trkpt><trkpt lat="38.48384137123592" lon="16.451595485030214"><ele>267.0</ele><time>2026-05-03T09:47:53Z</time></trkpt><trkpt lat="38.48387290099816" lon="16.45147055734066"><ele>267.0</ele><time>2026-05-03T09:47:55Z</time></trkpt><trkpt lat="38.48391199296612" lon="16.45132940601594"><ele>267.0</ele><time>2026-05-03T09:47:57Z</time></trkpt><trkpt lat="38.48393416697141" lon="16.451250423714956"><ele>267.0</ele><time>2026-05-03T09:47:58Z</time></trkpt><trkpt lat="38.48395465460815" lon="16.451172719223404"><ele>267.0</ele><time>2026-05-03T09:47:59Z</time></trkpt><trkpt lat="38.48398944526601" lon="16.4511046728984"><ele>267.0</ele><time>2026-05-03T09:48:00Z</time></trkpt><trkpt lat="38.48400172598185" lon="16.450955381921833"><ele>267.0</ele><time>2026-05-03T09:48:02Z</time></trkpt><trkpt lat="38.48404791737719" lon="16.450875930138327"><ele>267.0</ele><time>2026-05-03T09:48:03Z</time></trkpt><trkpt lat="38.48405611858904" lon="16.45077240045419"><ele>267.0</ele><time>2026-05-03T09:48:04Z</time></trkpt><trkpt lat="38.48407701101673" lon="16.45065773531121"><ele>267.0</ele><time>2026-05-03T09:48:06Z</time></trkpt><trkpt lat="38.48400712163778" lon="16.45056439565784"><ele>267.0</ele><time>2026-05-03T09:48:08Z</time></trkpt><trkpt lat="38.48408552939912" lon="16.450540638529542"><ele>267.0</ele><time>2026-05-03T09:48:11Z</time></trkpt><trkpt lat="38.48402253757967" lon="16.450449958851532"><ele>266.5714285714286</ele><time>2026-05-03T09:48:15Z</time></trkpt><trkpt lat="38.483954904046385" lon="16.45044521034623"><ele>266.14285714285717</ele><time>2026-05-03T09:48:16Z</time></trkpt><trkpt lat="38.483885021669494" lon="16.450419043324572"><ele>265.7142857142857</ele><time>2026-05-03T09:48:17Z</time></trkpt><trkpt lat="38.48381882024575" lon="16.450437129207607"><ele>265.28571428571433</ele><time>2026-05-03T09:48:18Z</time></trkpt><trkpt lat="38.48374602065352" lon="16.45043018337913"><ele>264.8571428571429</ele><time>2026-05-03T09:48:19Z</time></trkpt><trkpt lat="38.48367220660844" lon="16.450396486282564"><ele>264.42857142857144</ele><time>2026-05-03T09:48:20Z</time></trkpt><trkpt lat="38.48360362197358" lon="16.45036072060189"><ele>264.0</ele><time>2026-05-03T09:48:21Z</time></trkpt><trkpt lat="38.48351409654959" lon="16.45031329239166"><ele>264.0</ele><time>2026-05-03T09:48:23Z</time></trkpt><trkpt lat="38.48353752397398" lon="16.450204543645153"><ele>264.0</ele><time>2026-05-03T09:48:27Z</time></trkpt><trkpt lat="38.48363053925255" lon="16.45012094818099"><ele>264.0</ele><time>2026-05-03T09:48:29Z</time></trkpt><trkpt lat="38.48370589066033" lon="16.45009469171696"><ele>264.0</ele><time>2026-05-03T09:48:30Z</time></trkpt><trkpt lat="38.483764947618305" lon="16.45006065609686"><ele>264.0</ele><time>2026-05-03T09:48:31Z</time></trkpt><trkpt lat="38.483850964228594" lon="16.450024467721185"><ele>264.0</ele><time>2026-05-03T09:48:32Z</time></trkpt><trkpt lat="38.48392841819302" lon="16.449981818939037"><ele>264.0</ele><time>2026-05-03T09:48:33Z</time></trkpt><trkpt lat="38.48400132725567" lon="16.44991322443079"><ele>264.0</ele><time>2026-05-03T09:48:34Z</time></trkpt><trkpt lat="38.48405648113072" lon="16.44984429424476"><ele>264.0</ele><time>2026-05-03T09:48:35Z</time></trkpt><trkpt lat="38.484098073070015" lon="16.44967566301534"><ele>264.0</ele><time>2026-05-03T09:48:36Z</time></trkpt><trkpt lat="38.48412310297342" lon="16.44955963995554"><ele>264.0</ele><time>2026-05-03T09:48:37Z</time></trkpt><trkpt lat="38.484135514094255" lon="16.449444805783564"><ele>264.0</ele><time>2026-05-03T09:48:38Z</time></trkpt><trkpt lat="38.484177878673776" lon="16.449328143861912"><ele>264.0</ele><time>2026-05-03T09:48:39Z</time></trkpt><trkpt lat="38.48419853405801" lon="16.449219209888025"><ele>264.0</ele><time>2026-05-03T09:48:40Z</time></trkpt><trkpt lat="38.484270631845995" lon="16.44913756910478"><ele>264.0</ele><time>2026-05-03T09:48:41Z</time></trkpt><trkpt lat="38.484316383109935" lon="16.448998110877664"><ele>264.0</ele><time>2026-05-03T09:48:42Z</time></trkpt><trkpt lat="38.48434411698056" lon="16.448875271057123"><ele>263.2</ele><time>2026-05-03T09:48:43Z</time></trkpt><trkpt lat="38.48438055465059" lon="16.44876105203303"><ele>262.4</ele><time>2026-05-03T09:48:44Z</time></trkpt><trkpt lat="38.48441452421969" lon="16.448639135083596"><ele>261.6</ele><time>2026-05-03T09:48:45Z</time></trkpt><trkpt lat="38.4844255345925" lon="16.448495905068594"><ele>260.8</ele><time>2026-05-03T09:48:46Z</time></trkpt><trkpt lat="38.484419890439106" lon="16.448396356752546"><ele>260.0</ele><time>2026-05-03T09:48:47Z</time></trkpt><trkpt lat="38.48437813587218" lon="16.44816733495485"><ele>260.0</ele><time>2026-05-03T09:48:48Z</time></trkpt><trkpt lat="38.48433397227331" lon="16.448015732092788"><ele>260.0</ele><time>2026-05-03T09:48:49Z</time></trkpt><trkpt lat="38.48427481241265" lon="16.447865827875898"><ele>260.0</ele><time>2026-05-03T09:48:50Z</time></trkpt><trkpt lat="38.48422498534049" lon="16.447700881534743"><ele>260.0</ele><time>2026-05-03T09:48:51Z</time></trkpt><trkpt lat="38.48417032838625" lon="16.44751643651606"><ele>259.0</ele><time>2026-05-03T09:48:52Z</time></trkpt><trkpt lat="38.484107480480915" lon="16.44733669277797"><ele>258.0</ele><time>2026-05-03T09:48:53Z</time></trkpt><trkpt lat="38.48404792705877" lon="16.44715522472325"><ele>257.0</ele><time>2026-05-03T09:48:54Z</time></trkpt><trkpt lat="38.483982389597635" lon="16.446969493482325"><ele>256.0</ele><time>2026-05-03T09:48:55Z</time></trkpt><trkpt lat="38.48392231119982" lon="16.446780274009775"><ele>255.0</ele><time>2026-05-03T09:48:56Z</time></trkpt><trkpt lat="38.483860568382234" lon="16.44658739935159"><ele>254.0</ele><time>2026-05-03T09:48:57Z</time></trkpt><trkpt lat="38.48377649024898" lon="16.446413734293234"><ele>255.5</ele><time>2026-05-03T09:48:58Z</time></trkpt><trkpt lat="38.48371587489189" lon="16.44623683721127"><ele>257.0</ele><time>2026-05-03T09:48:59Z</time></trkpt><trkpt lat="38.48366037328461" lon="16.44605960941476"><ele>258.5</ele><time>2026-05-03T09:49:00Z</time></trkpt><trkpt lat="38.483605079523535" lon="16.44589758103644"><ele>260.0</ele><time>2026-05-03T09:49:01Z</time></trkpt><trkpt lat="38.4835538384171" lon="16.445736939240753"><ele>260.0</ele><time>2026-05-03T09:49:02Z</time></trkpt><trkpt lat="38.48352220086079" lon="16.445559466482095"><ele>260.0</ele><time>2026-05-03T09:49:03Z</time></trkpt><trkpt lat="38.483509423591066" lon="16.445378530490327"><ele>260.0</ele><time>2026-05-03T09:49:04Z</time></trkpt><trkpt lat="38.48353269336059" lon="16.445198922011308"><ele>260.0</ele><time>2026-05-03T09:49:05Z</time></trkpt><trkpt lat="38.48355009540487" lon="16.445053718379405"><ele>259.6666666666667</ele><time>2026-05-03T09:49:06Z</time></trkpt><trkpt lat="38.48355299522887" lon="16.444879699307084"><ele>259.3333333333333</ele><time>2026-05-03T09:49:07Z</time></trkpt><trkpt lat="38.483557673578694" lon="16.44459894813066"><ele>259.0</ele><time>2026-05-03T09:49:08Z</time></trkpt><trkpt lat="38.483552242842876" lon="16.444341865759576"><ele>259.66666666666663</ele><time>2026-05-03T09:49:09Z</time></trkpt><trkpt lat="38.48355626101154" lon="16.44412409130316"><ele>260.3333333333333</ele><time>2026-05-03T09:49:10Z</time></trkpt><trkpt lat="38.48356586043287" lon="16.443900930999742"><ele>261.0</ele><time>2026-05-03T09:49:11Z</time></trkpt><trkpt lat="38.48356789240082" lon="16.443682651431942"><ele>262.0</ele><time>2026-05-03T09:49:12Z</time></trkpt><trkpt lat="38.48357449568121" lon="16.44346997810721"><ele>263.0</ele><time>2026-05-03T09:49:13Z</time></trkpt><trkpt lat="38.483579619725035" lon="16.443263675454503"><ele>264.0</ele><time>2026-05-03T09:49:14Z</time></trkpt><trkpt lat="38.48358021115687" lon="16.443054386452086"><ele>265.0</ele><time>2026-05-03T09:49:15Z</time></trkpt><trkpt lat="38.4835895168136" lon="16.442852779229558"><ele>266.0</ele><time>2026-05-03T09:49:16Z</time></trkpt><trkpt lat="38.48359443528133" lon="16.442678741959014"><ele>267.0</ele><time>2026-05-03T09:49:17Z</time></trkpt><trkpt lat="38.48359375519587" lon="16.44250772669207"><ele>268.0</ele><time>2026-05-03T09:49:18Z</time></trkpt><trkpt lat="38.48359743755206" lon="16.442341529450488"><ele>268.0</ele><time>2026-05-03T09:49:19Z</time></trkpt><trkpt lat="38.48360396445095" lon="16.44217374328485"><ele>268.0</ele><time>2026-05-03T09:49:20Z</time></trkpt><trkpt lat="38.48360583644066" lon="16.442000745424245"><ele>268.0</ele><time>2026-05-03T09:49:21Z</time></trkpt><trkpt lat="38.483609941826764" lon="16.441823831418453"><ele>268.0</ele><time>2026-05-03T09:49:22Z</time></trkpt><trkpt lat="38.4836128203777" lon="16.441654670432747"><ele>269.5</ele><time>2026-05-03T09:49:23Z</time></trkpt><trkpt lat="38.48359938848301" lon="16.441462714448814"><ele>271.0</ele><time>2026-05-03T09:49:24Z</time></trkpt><trkpt lat="38.483559466459994" lon="16.441280953740087"><ele>272.5</ele><time>2026-05-03T09:49:25Z</time></trkpt><trkpt lat="38.48348367523388" lon="16.44111462890338"><ele>274.0</ele><time>2026-05-03T09:49:26Z</time></trkpt><trkpt lat="38.483426150295585" lon="16.440940469088307"><ele>274.5</ele><time>2026-05-03T09:49:27Z</time></trkpt><trkpt lat="38.48335836964976" lon="16.44079346714867"><ele>275.0</ele><time>2026-05-03T09:49:28Z</time></trkpt><trkpt lat="38.48334121672437" lon="16.440644596534494"><ele>275.5</ele><time>2026-05-03T09:49:29Z</time></trkpt><trkpt lat="38.48338019985163" lon="16.440483139167156"><ele>276.0</ele><time>2026-05-03T09:49:30Z</time></trkpt><trkpt lat="38.48340596553834" lon="16.440296373825053"><ele>274.6666666666667</ele><time>2026-05-03T09:49:31Z</time></trkpt><trkpt lat="38.48346318016285" lon="16.44002075704725"><ele>273.33333333333337</ele><time>2026-05-03T09:49:32Z</time></trkpt><trkpt lat="38.4834993932221" lon="16.439811509241235"><ele>272.0</ele><time>2026-05-03T09:49:33Z</time></trkpt><trkpt lat="38.48352039516462" lon="16.439717733563768"><ele>272.75</ele><time>2026-05-03T09:49:34Z</time></trkpt><trkpt lat="38.48355726069147" lon="16.43956845370742"><ele>273.5</ele><time>2026-05-03T09:49:35Z</time></trkpt><trkpt lat="38.48359063969531" lon="16.4394143141384"><ele>274.25</ele><time>2026-05-03T09:49:36Z</time></trkpt><trkpt lat="38.483604579129896" lon="16.43923557686271"><ele>275.0</ele><time>2026-05-03T09:49:37Z</time></trkpt><trkpt lat="38.483591920799064" lon="16.439038720130903"><ele>275.0</ele><time>2026-05-03T09:49:38Z</time></trkpt><trkpt lat="38.483549165719786" lon="16.438847832574467"><ele>275.0</ele><time>2026-05-03T09:49:39Z</time></trkpt><trkpt lat="38.483496063391414" lon="16.438664927775346"><ele>275.0</ele><time>2026-05-03T09:49:40Z</time></trkpt><trkpt lat="38.48344223268617" lon="16.438505815245296"><ele>275.0</ele><time>2026-05-03T09:49:41Z</time></trkpt><trkpt lat="38.4833953645303" lon="16.438347800481218"><ele>276.0</ele><time>2026-05-03T09:49:42Z</time></trkpt><trkpt lat="38.48337538971191" lon="16.438184609256332"><ele>277.0</ele><time>2026-05-03T09:49:43Z</time></trkpt><trkpt lat="38.483382761156705" lon="16.438013271717562"><ele>278.0</ele><time>2026-05-03T09:49:44Z</time></trkpt><trkpt lat="38.48340462333659" lon="16.437832684499046"><ele>279.0</ele><time>2026-05-03T09:49:45Z</time></trkpt><trkpt lat="38.48341779749633" lon="16.437638765014764"><ele>280.5</ele><time>2026-05-03T09:49:46Z</time></trkpt><trkpt lat="38.48342454208383" lon="16.437449743783635"><ele>282.0</ele><time>2026-05-03T09:49:47Z</time></trkpt><trkpt lat="38.483425533608816" lon="16.437270941469432"><ele>283.5</ele><time>2026-05-03T09:49:48Z</time></trkpt><trkpt lat="38.48345055638983" lon="16.43713762989695"><ele>285.0</ele><time>2026-05-03T09:49:49Z</time></trkpt><trkpt lat="38.48347231781015" lon="16.436953806437824"><ele>288.0</ele><time>2026-05-03T09:49:50Z</time></trkpt><trkpt lat="38.483501595421025" lon="16.43673082213853"><ele>291.0</ele><time>2026-05-03T09:49:51Z</time></trkpt><trkpt lat="38.48356441958753" lon="16.436559031131196"><ele>294.0</ele><time>2026-05-03T09:49:52Z</time></trkpt><trkpt lat="38.483670996723504" lon="16.43641791919843"><ele>294.0</ele><time>2026-05-03T09:49:53Z</time></trkpt><trkpt lat="38.48375381605553" lon="16.436303300921868"><ele>294.0</ele><time>2026-05-03T09:49:54Z</time></trkpt><trkpt lat="38.48384180637942" lon="16.43622010306581"><ele>294.0</ele><time>2026-05-03T09:49:55Z</time></trkpt><trkpt lat="38.483923399803984" lon="16.436124490034867"><ele>294.0</ele><time>2026-05-03T09:49:56Z</time></trkpt><trkpt lat="38.48400844405239" lon="16.436018577580406"><ele>294.5</ele><time>2026-05-03T09:49:57Z</time></trkpt><trkpt lat="38.48409241934923" lon="16.435907170335476"><ele>295.0</ele><time>2026-05-03T09:49:58Z</time></trkpt><trkpt lat="38.48418036020619" lon="16.435794735864008"><ele>295.5</ele><time>2026-05-03T09:49:59Z</time></trkpt><trkpt lat="38.48427093612452" lon="16.435687622725613"><ele>296.0</ele><time>2026-05-03T09:50:00Z</time></trkpt><trkpt lat="38.4843588970423" lon="16.435577307171965"><ele>295.25</ele><time>2026-05-03T09:50:01Z</time></trkpt><trkpt lat="38.48444536634881" lon="16.4354564290829"><ele>294.5</ele><time>2026-05-03T09:50:02Z</time></trkpt><trkpt lat="38.48454632831075" lon="16.4353496123094"><ele>293.75</ele><time>2026-05-03T09:50:03Z</time></trkpt><trkpt lat="38.48463449841338" lon="16.43523563282858"><ele>293.0</ele><time>2026-05-03T09:50:04Z</time></trkpt><trkpt lat="38.48470607926364" lon="16.435109792472232"><ele>293.0</ele><time>2026-05-03T09:50:05Z</time></trkpt><trkpt lat="38.48475240082686" lon="16.434961289223157"><ele>293.0</ele><time>2026-05-03T09:50:06Z</time></trkpt><trkpt lat="38.48477474378804" lon="16.43482965824162"><ele>293.0</ele><time>2026-05-03T09:50:07Z</time></trkpt><trkpt lat="38.48478654390506" lon="16.43472815098288"><ele>293.0</ele><time>2026-05-03T09:50:08Z</time></trkpt><trkpt lat="38.48479917307369" lon="16.43463705869928"><ele>293.0</ele><time>2026-05-03T09:50:09Z</time></trkpt><trkpt lat="38.4848136701757" lon="16.434557754985818"><ele>293.0</ele><time>2026-05-03T09:50:10Z</time></trkpt><trkpt lat="38.484836580223636" lon="16.434410338267032"><ele>294.71428571428567</ele><time>2026-05-03T09:50:12Z</time></trkpt><trkpt lat="38.48485497021617" lon="16.434322944840208"><ele>296.42857142857144</ele><time>2026-05-03T09:50:13Z</time></trkpt><trkpt lat="38.48486908011396" lon="16.43423091917122"><ele>298.1428571428571</ele><time>2026-05-03T09:50:14Z</time></trkpt><trkpt lat="38.48488382870008" lon="16.434135353890163"><ele>299.85714285714283</ele><time>2026-05-03T09:50:15Z</time></trkpt><trkpt lat="38.484907173314916" lon="16.43405026056247"><ele>301.57142857142856</ele><time>2026-05-03T09:50:16Z</time></trkpt><trkpt lat="38.4849476608419" lon="16.433975604619974"><ele>303.2857142857143</ele><time>2026-05-03T09:50:17Z</time></trkpt><trkpt lat="38.48500346869257" lon="16.433912331551987"><ele>305.0</ele><time>2026-05-03T09:50:18Z</time></trkpt><trkpt lat="38.485073394909925" lon="16.43387726796056"><ele>305.0</ele><time>2026-05-03T09:50:19Z</time></trkpt><trkpt lat="38.4851529039649" lon="16.433906202408775"><ele>305.0</ele><time>2026-05-03T09:50:20Z</time></trkpt><trkpt lat="38.48523798985005" lon="16.43390962479565"><ele>305.0</ele><time>2026-05-03T09:50:21Z</time></trkpt><trkpt lat="38.48532336007444" lon="16.433947055577235"><ele>305.0</ele><time>2026-05-03T09:50:22Z</time></trkpt><trkpt lat="38.48541363747006" lon="16.433979116418698"><ele>305.0</ele><time>2026-05-03T09:50:23Z</time></trkpt><trkpt lat="38.48550623238609" lon="16.43400905015316"><ele>305.0</ele><time>2026-05-03T09:50:24Z</time></trkpt><trkpt lat="38.485594997013884" lon="16.43404810437899"><ele>305.0</ele><time>2026-05-03T09:50:25Z</time></trkpt><trkpt lat="38.48568178171699" lon="16.434087457634927"><ele>305.0</ele><time>2026-05-03T09:50:26Z</time></trkpt><trkpt lat="38.48577097658433" lon="16.43411244783723"><ele>305.0</ele><time>2026-05-03T09:50:27Z</time></trkpt><trkpt lat="38.4858660447922" lon="16.434142077200434"><ele>305.0</ele><time>2026-05-03T09:50:28Z</time></trkpt><trkpt lat="38.48596056696736" lon="16.434178033630324"><ele>305.0</ele><time>2026-05-03T09:50:29Z</time></trkpt><trkpt lat="38.486056037169206" lon="16.434213851279665"><ele>305.0</ele><time>2026-05-03T09:50:30Z</time></trkpt><trkpt lat="38.48614837743555" lon="16.434253669247777"><ele>305.0</ele><time>2026-05-03T09:50:31Z</time></trkpt><trkpt lat="38.48623727952334" lon="16.43428189186508"><ele>305.0</ele><time>2026-05-03T09:50:32Z</time></trkpt><trkpt lat="38.486336446827664" lon="16.43429432927179"><ele>305.0</ele><time>2026-05-03T09:50:33Z</time></trkpt><trkpt lat="38.486435838096156" lon="16.434281400526046"><ele>305.0</ele><time>2026-05-03T09:50:34Z</time></trkpt><trkpt lat="38.48653449382874" lon="16.434239980679347"><ele>303.5</ele><time>2026-05-03T09:50:35Z</time></trkpt><trkpt lat="38.48662542811071" lon="16.43416563988966"><ele>302.0</ele><time>2026-05-03T09:50:36Z</time></trkpt><trkpt lat="38.486711964896024" lon="16.4340644732446"><ele>300.5</ele><time>2026-05-03T09:50:37Z</time></trkpt><trkpt lat="38.48679400850628" lon="16.433956973126133"><ele>299.0</ele><time>2026-05-03T09:50:38Z</time></trkpt><trkpt lat="38.486874859870035" lon="16.433867518564323"><ele>300.8</ele><time>2026-05-03T09:50:39Z</time></trkpt><trkpt lat="38.48695174287237" lon="16.433785393655995"><ele>302.59999999999997</ele><time>2026-05-03T09:50:40Z</time></trkpt><trkpt lat="38.48701249759539" lon="16.433694754969807"><ele>304.4</ele><time>2026-05-03T09:50:41Z</time></trkpt><trkpt lat="38.487043167900346" lon="16.43357097421452"><ele>306.2</ele><time>2026-05-03T09:50:42Z</time></trkpt><trkpt lat="38.48703612318463" lon="16.433432936422083"><ele>308.0</ele><time>2026-05-03T09:50:43Z</time></trkpt><trkpt lat="38.486993252963856" lon="16.433298252680885"><ele>308.0</ele><time>2026-05-03T09:50:44Z</time></trkpt><trkpt lat="38.48692236574976" lon="16.43318157913878"><ele>308.0</ele><time>2026-05-03T09:50:45Z</time></trkpt><trkpt lat="38.48683386938176" lon="16.43308322498197"><ele>308.0</ele><time>2026-05-03T09:50:46Z</time></trkpt><trkpt lat="38.486745012720945" lon="16.432992426936185"><ele>308.0</ele><time>2026-05-03T09:50:47Z</time></trkpt><trkpt lat="38.48666289700406" lon="16.43289412997906"><ele>307.0</ele><time>2026-05-03T09:50:48Z</time></trkpt><trkpt lat="38.4865863861134" lon="16.432793890917466"><ele>306.0</ele><time>2026-05-03T09:50:49Z</time></trkpt><trkpt lat="38.48652375977835" lon="16.432676699689758"><ele>305.0</ele><time>2026-05-03T09:50:50Z</time></trkpt><trkpt lat="38.48644846665719" lon="16.43258595806911"><ele>304.0</ele><time>2026-05-03T09:50:51Z</time></trkpt><trkpt lat="38.48636828941128" lon="16.432499344272784"><ele>303.0</ele><time>2026-05-03T09:50:52Z</time></trkpt><trkpt lat="38.4862970281925" lon="16.432395570972243"><ele>304.8</ele><time>2026-05-03T09:50:53Z</time></trkpt><trkpt lat="38.486232374518785" lon="16.43233695653338"><ele>306.6</ele><time>2026-05-03T09:50:54Z</time></trkpt><trkpt lat="38.48618376052401" lon="16.432283339146288"><ele>308.4</ele><time>2026-05-03T09:50:55Z</time></trkpt><trkpt lat="38.48612054891503" lon="16.432198634618317"><ele>310.2</ele><time>2026-05-03T09:50:57Z</time></trkpt><trkpt lat="38.48606866904162" lon="16.432142741010946"><ele>312.0</ele><time>2026-05-03T09:51:00Z</time></trkpt><trkpt lat="38.485943665944426" lon="16.432280237292577"><ele>312.0</ele><time>2026-05-03T09:51:03Z</time></trkpt><trkpt lat="38.48589827623222" lon="16.432347077202998"><ele>312.0</ele><time>2026-05-03T09:51:05Z</time></trkpt><trkpt lat="38.48587538088853" lon="16.43243287649179"><ele>312.0</ele><time>2026-05-03T09:51:08Z</time></trkpt><trkpt lat="38.48589850224329" lon="16.43251573766934"><ele>312.0</ele><time>2026-05-03T09:51:13Z</time></trkpt><trkpt lat="38.48589850224329" lon="16.43251573766934"><ele>312.0</ele><time>2026-05-03T09:51:13Z</time></trkpt><trkpt lat="38.48589850224329" lon="16.43251573766934"><ele>312.0</ele><time>2026-05-03T09:51:13Z</time></trkpt><trkpt lat="38.48589850224329" lon="16.43251573766934"><ele>312.0</ele><time>2026-05-03T09:51:13Z</time></trkpt></trkseg><trkseg><trkpt lat="38.48599637886604" lon="16.432476496801545"><ele>312.0</ele><time>2026-05-03T11:36:55.999Z</time></trkpt><trkpt lat="38.48599430405752" lon="16.43236868386152"><ele>312.0</ele><time>2026-05-03T11:40:34Z</time></trkpt><trkpt lat="38.48602157901653" lon="16.432254487894014"><ele>312.0</ele><time>2026-05-03T11:40:35Z</time></trkpt><trkpt lat="38.486031637351246" lon="16.432154086138425"><ele>312.0</ele><time>2026-05-03T11:40:37Z</time></trkpt><trkpt lat="38.486066624993974" lon="16.432068201817277"><ele>312.0</ele><time>2026-05-03T11:40:43Z</time></trkpt><trkpt lat="38.48602520028298" lon="16.43200428023748"><ele>312.0</ele><time>2026-05-03T11:40:45Z</time></trkpt><trkpt lat="38.48596511368552" lon="16.432053371480567"><ele>312.0</ele><time>2026-05-03T11:40:48Z</time></trkpt><trkpt lat="38.48592987263882" lon="16.432139026837813"><ele>312.0</ele><time>2026-05-03T11:40:50Z</time></trkpt><trkpt lat="38.485955860552004" lon="16.43224031581161"><ele>312.0</ele><time>2026-05-03T11:40:53Z</time></trkpt><trkpt lat="38.48602102714081" lon="16.432323619557827"><ele>312.0</ele><time>2026-05-03T11:40:56Z</time></trkpt><trkpt lat="38.486077567097844" lon="16.43228045172509"><ele>312.0</ele><time>2026-05-03T11:40:58Z</time></trkpt><trkpt lat="38.48616688622905" lon="16.432292919700565"><ele>312.0</ele><time>2026-05-03T11:41:05Z</time></trkpt><trkpt lat="38.486215603638456" lon="16.43239509915588"><ele>310.5</ele><time>2026-05-03T11:41:07Z</time></trkpt><trkpt lat="38.4862781842155" lon="16.43244290705423"><ele>309.0</ele><time>2026-05-03T11:41:09Z</time></trkpt><trkpt lat="38.48634040015411" lon="16.432504628953108"><ele>307.5</ele><time>2026-05-03T11:41:11Z</time></trkpt><trkpt lat="38.48640896413561" lon="16.432594487529993"><ele>306.0</ele><time>2026-05-03T11:41:13Z</time></trkpt><trkpt lat="38.486465733925726" lon="16.432689953003518"><ele>304.5</ele><time>2026-05-03T11:41:15Z</time></trkpt><trkpt lat="38.4865106415262" lon="16.432750657212683"><ele>303.0</ele><time>2026-05-03T11:41:17Z</time></trkpt><trkpt lat="38.48656217299076" lon="16.43284011030039"><ele>303.0</ele><time>2026-05-03T11:41:19Z</time></trkpt><trkpt lat="38.4866449945499" lon="16.432930479318646"><ele>303.0</ele><time>2026-05-03T11:41:21Z</time></trkpt><trkpt lat="38.48672281146319" lon="16.433046989139733"><ele>303.0</ele><time>2026-05-03T11:41:23Z</time></trkpt><trkpt lat="38.48676704179489" lon="16.433117657270635"><ele>303.0</ele><time>2026-05-03T11:41:25Z</time></trkpt><trkpt lat="38.48687006532351" lon="16.433221204059794"><ele>303.0</ele><time>2026-05-03T11:41:27Z</time></trkpt><trkpt lat="38.48691634327624" lon="16.43331738410151"><ele>302.2</ele><time>2026-05-03T11:41:29Z</time></trkpt><trkpt lat="38.48696639798911" lon="16.433451804968907"><ele>301.4</ele><time>2026-05-03T11:41:31Z</time></trkpt><trkpt lat="38.48697006270136" lon="16.43358117889849"><ele>300.59999999999997</ele><time>2026-05-03T11:41:33Z</time></trkpt><trkpt lat="38.48693532317979" lon="16.433734408032734"><ele>299.8</ele><time>2026-05-03T11:41:35Z</time></trkpt><trkpt lat="38.48688685567348" lon="16.433811748487262"><ele>299.0</ele><time>2026-05-03T11:41:36Z</time></trkpt><trkpt lat="38.48682907625309" lon="16.433881873263225"><ele>299.0</ele><time>2026-05-03T11:41:37Z</time></trkpt><trkpt lat="38.48677372645608" lon="16.43395809841275"><ele>299.0</ele><time>2026-05-03T11:41:38Z</time></trkpt><trkpt lat="38.48667621452566" lon="16.43405630481639"><ele>299.0</ele><time>2026-05-03T11:41:39Z</time></trkpt><trkpt lat="38.48653986357008" lon="16.43416609505673"><ele>299.0</ele><time>2026-05-03T11:41:40Z</time></trkpt><trkpt lat="38.48644335874302" lon="16.434232224610987"><ele>299.0</ele><time>2026-05-03T11:41:41Z</time></trkpt><trkpt lat="38.48633615097263" lon="16.434255705804222"><ele>299.0</ele><time>2026-05-03T11:41:42Z</time></trkpt><trkpt lat="38.48621956847256" lon="16.434234502772284"><ele>299.0</ele><time>2026-05-03T11:41:43Z</time></trkpt><trkpt lat="38.486087341522925" lon="16.43418703729143"><ele>299.0</ele><time>2026-05-03T11:41:44Z</time></trkpt><trkpt lat="38.48590666155542" lon="16.434123913132826"><ele>301.0</ele><time>2026-05-03T11:41:45Z</time></trkpt><trkpt lat="38.48567495747707" lon="16.434045717919286"><ele>303.0</ele><time>2026-05-03T11:41:46Z</time></trkpt><trkpt lat="38.48548493364284" lon="16.43397695513184"><ele>305.0</ele><time>2026-05-03T11:41:47Z</time></trkpt><trkpt lat="38.48533612563759" lon="16.43391996421471"><ele>305.0</ele><time>2026-05-03T11:41:48Z</time></trkpt><trkpt lat="38.48523081718862" lon="16.43388294093804"><ele>305.0</ele><time>2026-05-03T11:41:49Z</time></trkpt><trkpt lat="38.48514813743304" lon="16.43386520835707"><ele>305.0</ele><time>2026-05-03T11:41:50Z</time></trkpt><trkpt lat="38.48506451762073" lon="16.433858871112864"><ele>305.0</ele><time>2026-05-03T11:41:51Z</time></trkpt><trkpt lat="38.48498694798085" lon="16.433881376796347"><ele>305.0</ele><time>2026-05-03T11:41:52Z</time></trkpt><trkpt lat="38.48492520765367" lon="16.43391512351232"><ele>305.0</ele><time>2026-05-03T11:41:53Z</time></trkpt><trkpt lat="38.484888816112004" lon="16.43400004145324"><ele>305.0</ele><time>2026-05-03T11:41:54Z</time></trkpt><trkpt lat="38.484852360366396" lon="16.434088419401792"><ele>305.0</ele><time>2026-05-03T11:41:55Z</time></trkpt><trkpt lat="38.48483337751018" lon="16.434193485382384"><ele>305.0</ele><time>2026-05-03T11:41:56Z</time></trkpt><trkpt lat="38.48482543312514" lon="16.434306648662353"><ele>305.0</ele><time>2026-05-03T11:41:57Z</time></trkpt><trkpt lat="38.484807438763575" lon="16.43445911418072"><ele>305.0</ele><time>2026-05-03T11:41:58Z</time></trkpt><trkpt lat="38.48476118084905" lon="16.434689279239752"><ele>305.75</ele><time>2026-05-03T11:41:59Z</time></trkpt><trkpt lat="38.484727989681765" lon="16.43488398629911"><ele>306.5</ele><time>2026-05-03T11:42:00Z</time></trkpt><trkpt lat="38.48469832521102" lon="16.435019413508403"><ele>307.25</ele><time>2026-05-03T11:42:01Z</time></trkpt><trkpt lat="38.484645939012616" lon="16.435124737005278"><ele>308.0</ele><time>2026-05-03T11:42:02Z</time></trkpt><trkpt lat="38.48458879070908" lon="16.435222206200276"><ele>308.0</ele><time>2026-05-03T11:42:03Z</time></trkpt><trkpt lat="38.48451864063031" lon="16.435319343002526"><ele>308.0</ele><time>2026-05-03T11:42:04Z</time></trkpt><trkpt lat="38.48443171867644" lon="16.435426358836935"><ele>308.0</ele><time>2026-05-03T11:42:05Z</time></trkpt><trkpt lat="38.48433500524719" lon="16.43555494714917"><ele>308.0</ele><time>2026-05-03T11:42:06Z</time></trkpt><trkpt lat="38.48424229360669" lon="16.435675808347547"><ele>305.0</ele><time>2026-05-03T11:42:07Z</time></trkpt><trkpt lat="38.484147603342215" lon="16.435789380946286"><ele>302.0</ele><time>2026-05-03T11:42:08Z</time></trkpt><trkpt lat="38.484065649537534" lon="16.435895092091013"><ele>299.0</ele><time>2026-05-03T11:42:09Z</time></trkpt><trkpt lat="38.48398142362823" lon="16.4360031467325"><ele>296.0</ele><time>2026-05-03T11:42:10Z</time></trkpt><trkpt lat="38.48388465824955" lon="16.436096535728066"><ele>296.0</ele><time>2026-05-03T11:42:11Z</time></trkpt><trkpt lat="38.48382074605127" lon="16.43619530538411"><ele>296.0</ele><time>2026-05-03T11:42:12Z</time></trkpt><trkpt lat="38.48375583168707" lon="16.43627148560356"><ele>296.0</ele><time>2026-05-03T11:42:13Z</time></trkpt><trkpt lat="38.483683898065856" lon="16.436353763402405"><ele>296.0</ele><time>2026-05-03T11:42:14Z</time></trkpt><trkpt lat="38.48361127188715" lon="16.436440067675758"><ele>296.0</ele><time>2026-05-03T11:42:15Z</time></trkpt><trkpt lat="38.48352991152612" lon="16.43654080360042"><ele>295.5</ele><time>2026-05-03T11:42:16Z</time></trkpt><trkpt lat="38.483466601368" lon="16.43667577385206"><ele>295.0</ele><time>2026-05-03T11:42:17Z</time></trkpt><trkpt lat="38.483418397060234" lon="16.436819984568274"><ele>294.5</ele><time>2026-05-03T11:42:18Z</time></trkpt><trkpt lat="38.48339552049994" lon="16.43699645226776"><ele>294.0</ele><time>2026-05-03T11:42:19Z</time></trkpt><trkpt lat="38.483381663033356" lon="16.437162674278436"><ele>291.75</ele><time>2026-05-03T11:42:20Z</time></trkpt><trkpt lat="38.48338129957079" lon="16.437334667588548"><ele>289.5</ele><time>2026-05-03T11:42:21Z</time></trkpt><trkpt lat="38.48337591814519" lon="16.437497191279437"><ele>287.25</ele><time>2026-05-03T11:42:22Z</time></trkpt><trkpt lat="38.483374383273365" lon="16.437666016889818"><ele>285.0</ele><time>2026-05-03T11:42:23Z</time></trkpt><trkpt lat="38.483366232519955" lon="16.437830237089408"><ele>283.5</ele><time>2026-05-03T11:42:24Z</time></trkpt><trkpt lat="38.4833562891816" lon="16.43798132248531"><ele>282.0</ele><time>2026-05-03T11:42:25Z</time></trkpt><trkpt lat="38.48334542547074" lon="16.438131688956986"><ele>280.5</ele><time>2026-05-03T11:42:26Z</time></trkpt><trkpt lat="38.4833445627706" lon="16.438278538028502"><ele>279.0</ele><time>2026-05-03T11:42:27Z</time></trkpt><trkpt lat="38.48336553074998" lon="16.43842200716029"><ele>279.0</ele><time>2026-05-03T11:42:28Z</time></trkpt><trkpt lat="38.48340951219731" lon="16.438566135076343"><ele>279.0</ele><time>2026-05-03T11:42:29Z</time></trkpt><trkpt lat="38.483467281852846" lon="16.438729529537092"><ele>279.0</ele><time>2026-05-03T11:42:30Z</time></trkpt><trkpt lat="38.48351559195348" lon="16.4388917079954"><ele>279.0</ele><time>2026-05-03T11:42:31Z</time></trkpt><trkpt lat="38.48354663800585" lon="16.439051426826207"><ele>278.0</ele><time>2026-05-03T11:42:32Z</time></trkpt><trkpt lat="38.483563241498786" lon="16.439197598480074"><ele>277.0</ele><time>2026-05-03T11:42:33Z</time></trkpt><trkpt lat="38.483564559669325" lon="16.43933948719808"><ele>276.0</ele><time>2026-05-03T11:42:34Z</time></trkpt><trkpt lat="38.483528593785366" lon="16.439491098281838"><ele>275.0</ele><time>2026-05-03T11:42:35Z</time></trkpt><trkpt lat="38.48351218401906" lon="16.439661203272667"><ele>274.25</ele><time>2026-05-03T11:42:36Z</time></trkpt><trkpt lat="38.48346878088244" lon="16.43983726326534"><ele>273.5</ele><time>2026-05-03T11:42:37Z</time></trkpt><trkpt lat="38.48343308064132" lon="16.44002559754676"><ele>272.75</ele><time>2026-05-03T11:42:38Z</time></trkpt><trkpt lat="38.48339950914803" lon="16.440215151611184"><ele>272.0</ele><time>2026-05-03T11:42:39Z</time></trkpt><trkpt lat="38.483369787997155" lon="16.44039110924288"><ele>273.0</ele><time>2026-05-03T11:42:40Z</time></trkpt><trkpt lat="38.48333892491294" lon="16.440550232707793"><ele>274.0</ele><time>2026-05-03T11:42:41Z</time></trkpt><trkpt lat="38.48331786660913" lon="16.440703736655163"><ele>275.0</ele><time>2026-05-03T11:42:42Z</time></trkpt><trkpt lat="38.48332743829491" lon="16.440872000594"><ele>276.0</ele><time>2026-05-03T11:42:43Z</time></trkpt><trkpt lat="38.483374121880416" lon="16.44102627024106"><ele>276.0</ele><time>2026-05-03T11:42:44Z</time></trkpt><trkpt lat="38.483434904109494" lon="16.441171086463527"><ele>276.0</ele><time>2026-05-03T11:42:45Z</time></trkpt><trkpt lat="38.48349077069795" lon="16.4413329316956"><ele>276.0</ele><time>2026-05-03T11:42:46Z</time></trkpt><trkpt lat="38.483550172921284" lon="16.44148350465674"><ele>276.0</ele><time>2026-05-03T11:42:47Z</time></trkpt><trkpt lat="38.48356761292648" lon="16.44163015610383"><ele>275.5</ele><time>2026-05-03T11:42:48Z</time></trkpt><trkpt lat="38.48357932386284" lon="16.441773338687305"><ele>275.0</ele><time>2026-05-03T11:42:49Z</time></trkpt><trkpt lat="38.48357360011038" lon="16.441926747406793"><ele>274.5</ele><time>2026-05-03T11:42:50Z</time></trkpt><trkpt lat="38.4835694132525" lon="16.44210737836486"><ele>274.0</ele><time>2026-05-03T11:42:51Z</time></trkpt><trkpt lat="38.48355699375668" lon="16.442304499611645"><ele>272.0</ele><time>2026-05-03T11:42:52Z</time></trkpt><trkpt lat="38.48355294450763" lon="16.442511887575773"><ele>270.0</ele><time>2026-05-03T11:42:53Z</time></trkpt><trkpt lat="38.48355207834954" lon="16.44272272933939"><ele>268.0</ele><time>2026-05-03T11:42:54Z</time></trkpt><trkpt lat="38.483547134336526" lon="16.44292840543311"><ele>266.66666666666663</ele><time>2026-05-03T11:42:55Z</time></trkpt><trkpt lat="38.48353981443883" lon="16.443137676626463"><ele>265.3333333333333</ele><time>2026-05-03T11:42:56Z</time></trkpt><trkpt lat="38.483537841352906" lon="16.44335205845835"><ele>264.0</ele><time>2026-05-03T11:42:57Z</time></trkpt><trkpt lat="38.483535021771225" lon="16.443566766242743"><ele>264.0</ele><time>2026-05-03T11:42:58Z</time></trkpt><trkpt lat="38.48353469813227" lon="16.443774037332638"><ele>264.0</ele><time>2026-05-03T11:42:59Z</time></trkpt><trkpt lat="38.48352970493129" lon="16.443961432165366"><ele>264.0</ele><time>2026-05-03T11:43:00Z</time></trkpt><trkpt lat="38.483520261148" lon="16.444155485017333"><ele>263.0</ele><time>2026-05-03T11:43:01Z</time></trkpt><trkpt lat="38.48351462821236" lon="16.44435205866623"><ele>262.0</ele><time>2026-05-03T11:43:02Z</time></trkpt><trkpt lat="38.48350923748466" lon="16.44455429986745"><ele>261.0</ele><time>2026-05-03T11:43:03Z</time></trkpt><trkpt lat="38.4835049311745" lon="16.44475716055762"><ele>260.3333333333333</ele><time>2026-05-03T11:43:04Z</time></trkpt><trkpt lat="38.483502089593934" lon="16.44496675873223"><ele>259.66666666666663</ele><time>2026-05-03T11:43:05Z</time></trkpt><trkpt lat="38.48349925038269" lon="16.445174479226786"><ele>259.0</ele><time>2026-05-03T11:43:06Z</time></trkpt><trkpt lat="38.48350157565248" lon="16.445387757579923"><ele>259.3333333333333</ele><time>2026-05-03T11:43:07Z</time></trkpt><trkpt lat="38.483504906546884" lon="16.445582978414564"><ele>259.6666666666667</ele><time>2026-05-03T11:43:08Z</time></trkpt><trkpt lat="38.48353520720595" lon="16.44577538342069"><ele>260.0</ele><time>2026-05-03T11:43:09Z</time></trkpt><trkpt lat="38.483597095509204" lon="16.445967244273877"><ele>260.0</ele><time>2026-05-03T11:43:10Z</time></trkpt><trkpt lat="38.48365618241279" lon="16.446141299753943"><ele>260.0</ele><time>2026-05-03T11:43:11Z</time></trkpt><trkpt lat="38.48371949318644" lon="16.446322958673466"><ele>260.0</ele><time>2026-05-03T11:43:12Z</time></trkpt><trkpt lat="38.4837856084467" lon="16.446504740318016"><ele>258.0</ele><time>2026-05-03T11:43:13Z</time></trkpt><trkpt lat="38.483844016963864" lon="16.446683359815427"><ele>256.0</ele><time>2026-05-03T11:43:14Z</time></trkpt><trkpt lat="38.483900885450716" lon="16.446864902820945"><ele>254.0</ele><time>2026-05-03T11:43:15Z</time></trkpt><trkpt lat="38.4839623639103" lon="16.44704481182118"><ele>255.0</ele><time>2026-05-03T11:43:16Z</time></trkpt><trkpt lat="38.484019819264276" lon="16.447231959383526"><ele>256.0</ele><time>2026-05-03T11:43:17Z</time></trkpt><trkpt lat="38.48407822763479" lon="16.447416053049317"><ele>257.0</ele><time>2026-05-03T11:43:18Z</time></trkpt><trkpt lat="38.484139219831434" lon="16.44759374552562"><ele>257.0</ele><time>2026-05-03T11:43:19Z</time></trkpt><trkpt lat="38.48420138029019" lon="16.44777035529854"><ele>257.0</ele><time>2026-05-03T11:43:20Z</time></trkpt><trkpt lat="38.48425900294733" lon="16.447948046731945"><ele>257.0</ele><time>2026-05-03T11:43:21Z</time></trkpt><trkpt lat="38.48430733465847" lon="16.448120197371097"><ele>257.0</ele><time>2026-05-03T11:43:22Z</time></trkpt><trkpt lat="38.484348107903" lon="16.44830136385201"><ele>257.75</ele><time>2026-05-03T11:43:23Z</time></trkpt><trkpt lat="38.48437019370108" lon="16.44847883801982"><ele>258.5</ele><time>2026-05-03T11:43:24Z</time></trkpt><trkpt lat="38.48435994516603" lon="16.448645484948063"><ele>259.25</ele><time>2026-05-03T11:43:25Z</time></trkpt><trkpt lat="38.484315320402004" lon="16.448795124008914"><ele>260.0</ele><time>2026-05-03T11:43:26Z</time></trkpt><trkpt lat="38.48426775740474" lon="16.4489507187123"><ele>261.0</ele><time>2026-05-03T11:43:27Z</time></trkpt><trkpt lat="38.48421686688922" lon="16.44910545858728"><ele>262.0</ele><time>2026-05-03T11:43:28Z</time></trkpt><trkpt lat="38.48416056946306" lon="16.449238071581725"><ele>263.0</ele><time>2026-05-03T11:43:29Z</time></trkpt><trkpt lat="38.48412990804743" lon="16.449379932926483"><ele>264.0</ele><time>2026-05-03T11:43:30Z</time></trkpt><trkpt lat="38.48408207479593" lon="16.44951351890575"><ele>264.0</ele><time>2026-05-03T11:43:31Z</time></trkpt><trkpt lat="38.48404661062353" lon="16.449654292016344"><ele>264.0</ele><time>2026-05-03T11:43:32Z</time></trkpt><trkpt lat="38.48401514457656" lon="16.449756001286243"><ele>264.0</ele><time>2026-05-03T11:43:33Z</time></trkpt><trkpt lat="38.48394034630376" lon="16.449921038373233"><ele>264.0</ele><time>2026-05-03T11:43:34Z</time></trkpt><trkpt lat="38.483815544052156" lon="16.45000275783773"><ele>266.0</ele><time>2026-05-03T11:43:36Z</time></trkpt><trkpt lat="38.48372062270593" lon="16.450041895051786"><ele>268.0</ele><time>2026-05-03T11:43:37Z</time></trkpt><trkpt lat="38.48363096308972" lon="16.45008952059486"><ele>270.0</ele><time>2026-05-03T11:43:38Z</time></trkpt><trkpt lat="38.48354330261717" lon="16.450141442215664"><ele>272.0</ele><time>2026-05-03T11:43:39Z</time></trkpt><trkpt lat="38.48348199893665" lon="16.450190644696033"><ele>274.0</ele><time>2026-05-03T11:43:40Z</time></trkpt><trkpt lat="38.48342467912625" lon="16.450275613616167"><ele>274.0</ele><time>2026-05-03T11:43:42Z</time></trkpt><trkpt lat="38.48335240686643" lon="16.450293199611714"><ele>274.0</ele><time>2026-05-03T11:43:53Z</time></trkpt><trkpt lat="38.48320978448886" lon="16.450227074375466"><ele>274.0</ele><time>2026-05-03T11:43:55Z</time></trkpt><trkpt lat="38.483121041861025" lon="16.45019093406748"><ele>274.0</ele><time>2026-05-03T11:43:56Z</time></trkpt><trkpt lat="38.48303904068963" lon="16.450155585754857"><ele>274.0</ele><time>2026-05-03T11:43:57Z</time></trkpt><trkpt lat="38.482953359737024" lon="16.450112983751406"><ele>276.0</ele><time>2026-05-03T11:43:57.998Z</time></trkpt><trkpt lat="38.482848797474176" lon="16.45006266628556"><ele>278.0</ele><time>2026-05-03T11:43:59.998Z</time></trkpt><trkpt lat="38.482750609634046" lon="16.45002449140424"><ele>280.0</ele><time>2026-05-03T11:44:00.998Z</time></trkpt><trkpt lat="38.482582471354" lon="16.449972836464717"><ele>282.0</ele><time>2026-05-03T11:44:01.998Z</time></trkpt><trkpt lat="38.482395024399885" lon="16.449920931277106"><ele>282.0</ele><time>2026-05-03T11:44:02.998Z</time></trkpt><trkpt lat="38.48222844360392" lon="16.449895864260977"><ele>282.0</ele><time>2026-05-03T11:44:03.998Z</time></trkpt><trkpt lat="38.48208009290362" lon="16.449840449929475"><ele>282.0</ele><time>2026-05-03T11:44:04.998Z</time></trkpt><trkpt lat="38.48194184728995" lon="16.449806228400057"><ele>284.75</ele><time>2026-05-03T11:44:05.998Z</time></trkpt><trkpt lat="38.481833142647275" lon="16.449773854495152"><ele>287.5</ele><time>2026-05-03T11:44:06.998Z</time></trkpt><trkpt lat="38.481730166497435" lon="16.44973416709732"><ele>290.25</ele><time>2026-05-03T11:44:07.998Z</time></trkpt><trkpt lat="38.48162103139786" lon="16.44969486280088"><ele>293.0</ele><time>2026-05-03T11:44:08.998Z</time></trkpt><trkpt lat="38.481505066457025" lon="16.449666344737803"><ele>292.83333333333337</ele><time>2026-05-03T11:44:09.998Z</time></trkpt><trkpt lat="38.481406040064115" lon="16.449590106677636"><ele>292.6666666666667</ele><time>2026-05-03T11:44:10.998Z</time></trkpt><trkpt lat="38.481323371929356" lon="16.44957669664546"><ele>292.5</ele><time>2026-05-03T11:44:11.998Z</time></trkpt><trkpt lat="38.48125010499569" lon="16.449543672600115"><ele>292.3333333333333</ele><time>2026-05-03T11:44:14.999Z</time></trkpt><trkpt lat="38.48122904831055" lon="16.449419104058588"><ele>292.16666666666663</ele><time>2026-05-03T11:44:16.999Z</time></trkpt><trkpt lat="38.4812216078386" lon="16.44932638497787"><ele>292.0</ele><time>2026-05-03T11:44:17.999Z</time></trkpt><trkpt lat="38.48121450560464" lon="16.449211268710947"><ele>294.2</ele><time>2026-05-03T11:44:18.999Z</time></trkpt><trkpt lat="38.481176557162264" lon="16.44909313086684"><ele>296.4</ele><time>2026-05-03T11:44:19.999Z</time></trkpt><trkpt lat="38.48112073422448" lon="16.448980055790315"><ele>298.6</ele><time>2026-05-03T11:44:20.999Z</time></trkpt><trkpt lat="38.48104568536585" lon="16.448888050094475"><ele>300.8</ele><time>2026-05-03T11:44:21.999Z</time></trkpt><trkpt lat="38.480941249362914" lon="16.44883704064016"><ele>303.0</ele><time>2026-05-03T11:44:22.999Z</time></trkpt><trkpt lat="38.48082135030438" lon="16.448848664535962"><ele>303.0</ele><time>2026-05-03T11:44:23.999Z</time></trkpt><trkpt lat="38.48071790093984" lon="16.448908309186063"><ele>303.0</ele><time>2026-05-03T11:44:24.999Z</time></trkpt><trkpt lat="38.48064105597185" lon="16.449005534742096"><ele>303.0</ele><time>2026-05-03T11:44:25.999Z</time></trkpt><trkpt lat="38.480588560682136" lon="16.449141292473133"><ele>303.0</ele><time>2026-05-03T11:44:26.999Z</time></trkpt><trkpt lat="38.48052733248164" lon="16.449270261048753"><ele>303.0</ele><time>2026-05-03T11:44:27.999Z</time></trkpt><trkpt lat="38.480462655208754" lon="16.449383922617066"><ele>303.0</ele><time>2026-05-03T11:44:28.999Z</time></trkpt><trkpt lat="38.48041554470031" lon="16.449496351313407"><ele>303.0</ele><time>2026-05-03T11:44:29.999Z</time></trkpt><trkpt lat="38.4804139130942" lon="16.4496191426576"><ele>303.0</ele><time>2026-05-03T11:44:30.999Z</time></trkpt><trkpt lat="38.48045345719584" lon="16.44974308430718"><ele>303.0</ele><time>2026-05-03T11:44:31.999Z</time></trkpt><trkpt lat="38.480503451751616" lon="16.449856528641046"><ele>304.8</ele><time>2026-05-03T11:44:32.999Z</time></trkpt><trkpt lat="38.48057420751422" lon="16.449972836436892"><ele>306.6</ele><time>2026-05-03T11:44:33.999Z</time></trkpt><trkpt lat="38.48065471499697" lon="16.450072943852145"><ele>308.4</ele><time>2026-05-03T11:44:34.999Z</time></trkpt><trkpt lat="38.480742671922826" lon="16.45016321861819"><ele>310.2</ele><time>2026-05-03T11:44:36.999Z</time></trkpt><trkpt lat="38.480786414316825" lon="16.45023159121629"><ele>312.0</ele><time>2026-05-03T11:44:37.999Z</time></trkpt><trkpt lat="38.4808501128762" lon="16.45030459145142"><ele>312.0</ele><time>2026-05-03T11:44:38.999Z</time></trkpt><trkpt lat="38.48093186783365" lon="16.450383736343987"><ele>312.0</ele><time>2026-05-03T11:44:39.999Z</time></trkpt><trkpt lat="38.48101902674426" lon="16.450477040703152"><ele>312.0</ele><time>2026-05-03T11:44:40.999Z</time></trkpt><trkpt lat="38.48110121981117" lon="16.450595309741857"><ele>312.0</ele><time>2026-05-03T11:44:41.999Z</time></trkpt><trkpt lat="38.481154962855115" lon="16.450745422930467"><ele>309.3333333333333</ele><time>2026-05-03T11:44:42.999Z</time></trkpt><trkpt lat="38.4812056912275" lon="16.45091235795821"><ele>306.66666666666663</ele><time>2026-05-03T11:44:43.999Z</time></trkpt><trkpt lat="38.48125687489184" lon="16.451101647529484"><ele>304.0</ele><time>2026-05-03T11:44:44.999Z</time></trkpt><trkpt lat="38.481315949977464" lon="16.45128667607389"><ele>307.0</ele><time>2026-05-03T11:44:45.999Z</time></trkpt><trkpt lat="38.48135667476663" lon="16.45144701968672"><ele>310.0</ele><time>2026-05-03T11:44:46.999Z</time></trkpt><trkpt lat="38.48138696133129" lon="16.45158538860926"><ele>313.0</ele><time>2026-05-03T11:44:47.999Z</time></trkpt><trkpt lat="38.481378477920444" lon="16.451730402459596"><ele>316.0</ele><time>2026-05-03T11:44:48.999Z</time></trkpt><trkpt lat="38.481350525756" lon="16.451864761592326"><ele>316.0</ele><time>2026-05-03T11:44:49.999Z</time></trkpt><trkpt lat="38.48130441467087" lon="16.451975820297704"><ele>316.0</ele><time>2026-05-03T11:44:50.999Z</time></trkpt><trkpt lat="38.481246693117846" lon="16.452087418226657"><ele>316.0</ele><time>2026-05-03T11:44:51.999Z</time></trkpt><trkpt lat="38.481238251263335" lon="16.452201617554163"><ele>316.0</ele><time>2026-05-03T11:44:52.999Z</time></trkpt><trkpt lat="38.48125168749904" lon="16.45230185949072"><ele>316.0</ele><time>2026-05-03T11:44:53.999Z</time></trkpt><trkpt lat="38.4812582538278" lon="16.45239926124777"><ele>316.0</ele><time>2026-05-03T11:44:55.999Z</time></trkpt><trkpt lat="38.48111210602269" lon="16.45240352171909"><ele>320.0</ele><time>2026-05-03T11:44:59.999Z</time></trkpt><trkpt lat="38.48104757363318" lon="16.45236139322878"><ele>324.0</ele><time>2026-05-03T11:45:00.999Z</time></trkpt><trkpt lat="38.48100213797347" lon="16.452289317300544"><ele>328.0</ele><time>2026-05-03T11:45:01.999Z</time></trkpt><trkpt lat="38.48101331435724" lon="16.45218046439854"><ele>332.0</ele><time>2026-05-03T11:45:02.999Z</time></trkpt><trkpt lat="38.48103115005218" lon="16.452065432313283"><ele>336.0</ele><time>2026-05-03T11:45:03.999Z</time></trkpt><trkpt lat="38.48106498254703" lon="16.451960291377222"><ele>340.0</ele><time>2026-05-03T11:45:04.999Z</time></trkpt><trkpt lat="38.48109754379332" lon="16.45186784500129"><ele>340.0</ele><time>2026-05-03T11:45:06Z</time></trkpt><trkpt lat="38.48107004140057" lon="16.451742844032506"><ele>340.0</ele><time>2026-05-03T11:45:07Z</time></trkpt><trkpt lat="38.480997567744936" lon="16.451616399423248"><ele>340.0</ele><time>2026-05-03T11:45:08Z</time></trkpt><trkpt lat="38.48092640437868" lon="16.45146656956478"><ele>340.0</ele><time>2026-05-03T11:45:09Z</time></trkpt><trkpt lat="38.4808655602934" lon="16.451305703082706"><ele>337.5</ele><time>2026-05-03T11:45:10Z</time></trkpt><trkpt lat="38.48079176341343" lon="16.45114711760284"><ele>335.0</ele><time>2026-05-03T11:45:11Z</time></trkpt><trkpt lat="38.48074221273608" lon="16.451006930722016"><ele>332.5</ele><time>2026-05-03T11:45:12Z</time></trkpt><trkpt lat="38.48069365660397" lon="16.450900673708173"><ele>330.0</ele><time>2026-05-03T11:45:13Z</time></trkpt><trkpt lat="38.48059949474914" lon="16.450790656334583"><ele>330.0</ele><time>2026-05-03T11:45:14Z</time></trkpt><trkpt lat="38.48048612342342" lon="16.45070575634613"><ele>330.0</ele><time>2026-05-03T11:45:15Z</time></trkpt><trkpt lat="38.480371737778725" lon="16.450630095577097"><ele>330.0</ele><time>2026-05-03T11:45:16Z</time></trkpt><trkpt lat="38.480286765780875" lon="16.45052808108322"><ele>330.0</ele><time>2026-05-03T11:45:17Z</time></trkpt><trkpt lat="38.480195861389284" lon="16.450448205436196"><ele>330.6666666666667</ele><time>2026-05-03T11:45:18Z</time></trkpt><trkpt lat="38.48012740603121" lon="16.45035034152446"><ele>331.3333333333333</ele><time>2026-05-03T11:45:19Z</time></trkpt><trkpt lat="38.480062522367966" lon="16.45025625127044"><ele>332.0</ele><time>2026-05-03T11:45:20Z</time></trkpt><trkpt lat="38.48000775955788" lon="16.450178585074923"><ele>332.66666666666663</ele><time>2026-05-03T11:45:21Z</time></trkpt><trkpt lat="38.47994052453225" lon="16.45015541432336"><ele>333.3333333333333</ele><time>2026-05-03T11:45:22Z</time></trkpt><trkpt lat="38.47987636521933" lon="16.450200705149438"><ele>334.0</ele><time>2026-05-03T11:45:23Z</time></trkpt><trkpt lat="38.479848647363546" lon="16.4502943391306"><ele>334.0</ele><time>2026-05-03T11:45:24Z</time></trkpt><trkpt lat="38.47987238856523" lon="16.450404161023524"><ele>334.0</ele><time>2026-05-03T11:45:25Z</time></trkpt><trkpt lat="38.47993504390605" lon="16.450482028153623"><ele>334.0</ele><time>2026-05-03T11:45:26Z</time></trkpt><trkpt lat="38.48002865416627" lon="16.450629719517714"><ele>334.0</ele><time>2026-05-03T11:45:27Z</time></trkpt><trkpt lat="38.480115737986964" lon="16.45075450745178"><ele>337.79999999999995</ele><time>2026-05-03T11:45:28Z</time></trkpt><trkpt lat="38.480195436823585" lon="16.450870255162524"><ele>341.59999999999997</ele><time>2026-05-03T11:45:29Z</time></trkpt><trkpt lat="38.48025913596132" lon="16.45097131295785"><ele>345.4</ele><time>2026-05-03T11:45:30Z</time></trkpt><trkpt lat="38.48030211077932" lon="16.451058850685474"><ele>349.2</ele><time>2026-05-03T11:45:31Z</time></trkpt><trkpt lat="38.480320129329215" lon="16.451145005835542"><ele>353.0</ele><time>2026-05-03T11:45:32Z</time></trkpt><trkpt lat="38.48033139328371" lon="16.45124256666389"><ele>354.75</ele><time>2026-05-03T11:45:33Z</time></trkpt><trkpt lat="38.48034351225014" lon="16.451364634736095"><ele>356.5</ele><time>2026-05-03T11:45:34Z</time></trkpt><trkpt lat="38.48035125676316" lon="16.451506492207653"><ele>358.25</ele><time>2026-05-03T11:45:35Z</time></trkpt><trkpt lat="38.480360606519646" lon="16.451659697372957"><ele>360.0</ele><time>2026-05-03T11:45:36Z</time></trkpt><trkpt lat="38.48036903610772" lon="16.45181570573753"><ele>360.0</ele><time>2026-05-03T11:45:37Z</time></trkpt><trkpt lat="38.48037667139653" lon="16.451988044413646"><ele>360.0</ele><time>2026-05-03T11:45:38Z</time></trkpt><trkpt lat="38.480377306720605" lon="16.452154306138862"><ele>360.0</ele><time>2026-05-03T11:45:39Z</time></trkpt><trkpt lat="38.48036579225276" lon="16.452321786507717"><ele>360.0</ele><time>2026-05-03T11:45:40Z</time></trkpt><trkpt lat="38.48037591200002" lon="16.45249244283934"><ele>358.5</ele><time>2026-05-03T11:45:41Z</time></trkpt><trkpt lat="38.48038430195205" lon="16.452651351570278"><ele>357.0</ele><time>2026-05-03T11:45:42Z</time></trkpt><trkpt lat="38.480439354985386" lon="16.452790443214845"><ele>355.5</ele><time>2026-05-03T11:45:43Z</time></trkpt><trkpt lat="38.480530504602314" lon="16.452906621068408"><ele>354.0</ele><time>2026-05-03T11:45:44Z</time></trkpt><trkpt lat="38.48063823989995" lon="16.4530054838633"><ele>354.0</ele><time>2026-05-03T11:45:45Z</time></trkpt><trkpt lat="38.48072765854768" lon="16.453091449281068"><ele>354.0</ele><time>2026-05-03T11:45:46Z</time></trkpt><trkpt lat="38.48077422294233" lon="16.45319158527063"><ele>354.0</ele><time>2026-05-03T11:45:47Z</time></trkpt><trkpt lat="38.48080033158063" lon="16.45328922592773"><ele>354.0</ele><time>2026-05-03T11:45:48Z</time></trkpt><trkpt lat="38.480796785329474" lon="16.45341665714085"><ele>354.0</ele><time>2026-05-03T11:45:49Z</time></trkpt><trkpt lat="38.48077507523381" lon="16.45356655800521"><ele>354.0</ele><time>2026-05-03T11:45:50Z</time></trkpt><trkpt lat="38.48074807707908" lon="16.453743776069544"><ele>354.0</ele><time>2026-05-03T11:45:51Z</time></trkpt><trkpt lat="38.48073219253214" lon="16.453925870887133"><ele>354.0</ele><time>2026-05-03T11:45:52Z</time></trkpt><trkpt lat="38.480708518450754" lon="16.45409607709051"><ele>354.0</ele><time>2026-05-03T11:45:53Z</time></trkpt><trkpt lat="38.48067437020401" lon="16.454232255655924"><ele>354.2</ele><time>2026-05-03T11:45:54Z</time></trkpt><trkpt lat="38.48062310477586" lon="16.454339631429477"><ele>354.4</ele><time>2026-05-03T11:45:55Z</time></trkpt><trkpt lat="38.48055016566931" lon="16.454417139195783"><ele>354.6</ele><time>2026-05-03T11:45:56Z</time></trkpt><trkpt lat="38.48046550013412" lon="16.454482632624007"><ele>354.8</ele><time>2026-05-03T11:45:57Z</time></trkpt><trkpt lat="38.48040132419647" lon="16.454553979542055"><ele>355.0</ele><time>2026-05-03T11:45:58Z</time></trkpt><trkpt lat="38.480364540229964" lon="16.45464218710546"><ele>356.0</ele><time>2026-05-03T11:45:59Z</time></trkpt><trkpt lat="38.480375778423664" lon="16.454755474536192"><ele>357.0</ele><time>2026-05-03T11:46:00Z</time></trkpt><trkpt lat="38.48042682140493" lon="16.454881856809273"><ele>358.0</ele><time>2026-05-03T11:46:01Z</time></trkpt><trkpt lat="38.48046167825279" lon="16.455031116419082"><ele>359.0</ele><time>2026-05-03T11:46:02Z</time></trkpt><trkpt lat="38.480516087274246" lon="16.455151092979666"><ele>360.0</ele><time>2026-05-03T11:46:03Z</time></trkpt><trkpt lat="38.480553739369725" lon="16.455265081067395"><ele>360.0</ele><time>2026-05-03T11:46:03.998Z</time></trkpt><trkpt lat="38.48064836648146" lon="16.455327235940423"><ele>360.0</ele><time>2026-05-03T11:46:04.998Z</time></trkpt><trkpt lat="38.48075492488724" lon="16.45535562853303"><ele>360.0</ele><time>2026-05-03T11:46:05.998Z</time></trkpt><trkpt lat="38.48087728610092" lon="16.45534556517947"><ele>360.0</ele><time>2026-05-03T11:46:06.998Z</time></trkpt><trkpt lat="38.480985884972206" lon="16.455345625198213"><ele>360.0</ele><time>2026-05-03T11:46:07.998Z</time></trkpt><trkpt lat="38.4810856950564" lon="16.45537262754595"><ele>360.0</ele><time>2026-05-03T11:46:08.998Z</time></trkpt><trkpt lat="38.48118090128341" lon="16.455415081084226"><ele>360.0</ele><time>2026-05-03T11:46:09.998Z</time></trkpt><trkpt lat="38.48126769727927" lon="16.455519873157492"><ele>360.0</ele><time>2026-05-03T11:46:10.998Z</time></trkpt><trkpt lat="38.481333577336585" lon="16.455646984085625"><ele>360.0</ele><time>2026-05-03T11:46:11.998Z</time></trkpt><trkpt lat="38.48140955482545" lon="16.455797137229446"><ele>361.75</ele><time>2026-05-03T11:46:12.998Z</time></trkpt><trkpt lat="38.48148573899748" lon="16.455949864098464"><ele>363.5</ele><time>2026-05-03T11:46:13.998Z</time></trkpt><trkpt lat="38.48157753039773" lon="16.456114855997935"><ele>365.25</ele><time>2026-05-03T11:46:14.998Z</time></trkpt><trkpt lat="38.48168673102394" lon="16.45624316107612"><ele>367.0</ele><time>2026-05-03T11:46:15.998Z</time></trkpt><trkpt lat="38.48177728291928" lon="16.456364334099916"><ele>371.0</ele><time>2026-05-03T11:46:16.998Z</time></trkpt><trkpt lat="38.48185384441561" lon="16.456470691599915"><ele>375.0</ele><time>2026-05-03T11:46:17.998Z</time></trkpt><trkpt lat="38.48192255321657" lon="16.456564166095564"><ele>379.0</ele><time>2026-05-03T11:46:18.999Z</time></trkpt><trkpt lat="38.481941506608216" lon="16.4566498903014"><ele>383.0</ele><time>2026-05-03T11:46:19.999Z</time></trkpt><trkpt lat="38.48186651958288" lon="16.456732262466506"><ele>387.0</ele><time>2026-05-03T11:46:21.999Z</time></trkpt><trkpt lat="38.481751793952945" lon="16.456683298141208"><ele>387.0</ele><time>2026-05-03T11:46:23.999Z</time></trkpt><trkpt lat="38.48168842170505" lon="16.45656043890822"><ele>387.0</ele><time>2026-05-03T11:46:24.999Z</time></trkpt><trkpt lat="38.48157079114317" lon="16.4563850050281"><ele>387.0</ele><time>2026-05-03T11:46:25.999Z</time></trkpt><trkpt lat="38.4814206342451" lon="16.456199231769276"><ele>389.0</ele><time>2026-05-03T11:46:26.999Z</time></trkpt><trkpt lat="38.48131134491312" lon="16.45603179880443"><ele>391.0</ele><time>2026-05-03T11:46:27.999Z</time></trkpt><trkpt lat="38.48123942814272" lon="16.45590453098881"><ele>393.0</ele><time>2026-05-03T11:46:28.999Z</time></trkpt><trkpt lat="38.48114473704224" lon="16.455790464292296"><ele>395.0</ele><time>2026-05-03T11:46:29.999Z</time></trkpt><trkpt lat="38.48101033137416" lon="16.455713634538725"><ele>395.0</ele><time>2026-05-03T11:46:30.999Z</time></trkpt><trkpt lat="38.48086352561748" lon="16.455687719779853"><ele>395.0</ele><time>2026-05-03T11:46:31.999Z</time></trkpt><trkpt lat="38.48068989019136" lon="16.45570137864466"><ele>395.0</ele><time>2026-05-03T11:46:32.999Z</time></trkpt><trkpt lat="38.4805455408902" lon="16.45568377486838"><ele>394.4</ele><time>2026-05-03T11:46:33.999Z</time></trkpt><trkpt lat="38.480421144215114" lon="16.455644695340077"><ele>393.8</ele><time>2026-05-03T11:46:34.999Z</time></trkpt><trkpt lat="38.48030694104263" lon="16.455593335992166"><ele>393.20000000000005</ele><time>2026-05-03T11:46:35.999Z</time></trkpt><trkpt lat="38.48023241566275" lon="16.455514372095923"><ele>392.6</ele><time>2026-05-03T11:46:36.999Z</time></trkpt><trkpt lat="38.48018378853268" lon="16.455399278989464"><ele>392.0</ele><time>2026-05-03T11:46:37.999Z</time></trkpt><trkpt lat="38.480129103849904" lon="16.45523669144695"><ele>392.0</ele><time>2026-05-03T11:46:38.999Z</time></trkpt><trkpt lat="38.480048911258635" lon="16.455115004948954"><ele>392.0</ele><time>2026-05-03T11:46:39.999Z</time></trkpt><trkpt lat="38.479953516860505" lon="16.455020132881277"><ele>392.0</ele><time>2026-05-03T11:46:40.999Z</time></trkpt><trkpt lat="38.479792772997506" lon="16.454981836078424"><ele>392.0</ele><time>2026-05-03T11:46:41.999Z</time></trkpt><trkpt lat="38.47963502381805" lon="16.454901031164294"><ele>398.8</ele><time>2026-05-03T11:46:42.999Z</time></trkpt><trkpt lat="38.47951513656684" lon="16.454829810081765"><ele>405.6</ele><time>2026-05-03T11:46:43.999Z</time></trkpt><trkpt lat="38.47943324523083" lon="16.45475220037192"><ele>412.40000000000003</ele><time>2026-05-03T11:46:44.999Z</time></trkpt><trkpt lat="38.479399810560054" lon="16.45465918330213"><ele>419.20000000000005</ele><time>2026-05-03T11:46:45.999Z</time></trkpt><trkpt lat="38.47939769258945" lon="16.454536139115476"><ele>426.0</ele><time>2026-05-03T11:46:46.999Z</time></trkpt><trkpt lat="38.47947435408285" lon="16.45438543923198"><ele>426.0</ele><time>2026-05-03T11:46:47.999Z</time></trkpt><trkpt lat="38.47956873376431" lon="16.454204373295973"><ele>426.0</ele><time>2026-05-03T11:46:48.999Z</time></trkpt><trkpt lat="38.479613091503005" lon="16.453978014429303"><ele>426.0</ele><time>2026-05-03T11:46:49.999Z</time></trkpt><trkpt lat="38.47962030921334" lon="16.45379657496148"><ele>426.0</ele><time>2026-05-03T11:46:50.999Z</time></trkpt><trkpt lat="38.479620448460196" lon="16.45364165514308"><ele>426.0</ele><time>2026-05-03T11:46:52Z</time></trkpt><trkpt lat="38.47957431110629" lon="16.453479646949795"><ele>426.0</ele><time>2026-05-03T11:46:53Z</time></trkpt><trkpt lat="38.47945626880777" lon="16.45329347204936"><ele>426.0</ele><time>2026-05-03T11:46:54Z</time></trkpt><trkpt lat="38.47934778097881" lon="16.45306281816641"><ele>423.33333333333337</ele><time>2026-05-03T11:46:55Z</time></trkpt><trkpt lat="38.47925128712229" lon="16.45281630337175"><ele>420.6666666666667</ele><time>2026-05-03T11:46:56Z</time></trkpt><trkpt lat="38.47915909285434" lon="16.452619012430265"><ele>418.0</ele><time>2026-05-03T11:46:57Z</time></trkpt><trkpt lat="38.47910676148824" lon="16.452433588098536"><ele>418.0</ele><time>2026-05-03T11:46:58Z</time></trkpt><trkpt lat="38.47903610678973" lon="16.45227228309299"><ele>418.0</ele><time>2026-05-03T11:46:59Z</time></trkpt><trkpt lat="38.478957321706744" lon="16.452100117104308"><ele>418.0</ele><time>2026-05-03T11:47:00Z</time></trkpt><trkpt lat="38.47883785881008" lon="16.45194614542359"><ele>423.33333333333337</ele><time>2026-05-03T11:47:01Z</time></trkpt><trkpt lat="38.478677725809106" lon="16.451807061369088"><ele>428.66666666666663</ele><time>2026-05-03T11:47:02Z</time></trkpt><trkpt lat="38.4785565374015" lon="16.4516624933814"><ele>434.0</ele><time>2026-05-03T11:47:03Z</time></trkpt><trkpt lat="38.478462483294365" lon="16.451497325887026"><ele>434.0</ele><time>2026-05-03T11:47:04Z</time></trkpt><trkpt lat="38.4784033203298" lon="16.451345889725683"><ele>434.0</ele><time>2026-05-03T11:47:05Z</time></trkpt><trkpt lat="38.47828313119529" lon="16.451232419306848"><ele>434.0</ele><time>2026-05-03T11:47:06Z</time></trkpt><trkpt lat="38.47813295354883" lon="16.45123517550465"><ele>434.0</ele><time>2026-05-03T11:47:07Z</time></trkpt><trkpt lat="38.47798464168916" lon="16.451195491303977"><ele>433.75</ele><time>2026-05-03T11:47:08Z</time></trkpt><trkpt lat="38.47784016124132" lon="16.451144459475344"><ele>433.5</ele><time>2026-05-03T11:47:09Z</time></trkpt><trkpt lat="38.477727939220806" lon="16.451083258455117"><ele>433.25</ele><time>2026-05-03T11:47:10Z</time></trkpt><trkpt lat="38.47762637000004" lon="16.451069054837895"><ele>433.0</ele><time>2026-05-03T11:47:11Z</time></trkpt><trkpt lat="38.477516536083066" lon="16.451038944099956"><ele>433.0</ele><time>2026-05-03T11:47:12Z</time></trkpt><trkpt lat="38.477421225569174" lon="16.451051349455458"><ele>433.0</ele><time>2026-05-03T11:47:13Z</time></trkpt><trkpt lat="38.47733440804271" lon="16.45109226782127"><ele>433.0</ele><time>2026-05-03T11:47:14Z</time></trkpt><trkpt lat="38.477228740806" lon="16.451186426702165"><ele>433.0</ele><time>2026-05-03T11:47:15Z</time></trkpt><trkpt lat="38.47711220962097" lon="16.451301175820713"><ele>435.25</ele><time>2026-05-03T11:47:16Z</time></trkpt><trkpt lat="38.476993890810625" lon="16.45138931019454"><ele>437.5</ele><time>2026-05-03T11:47:17Z</time></trkpt><trkpt lat="38.47690506507713" lon="16.451508072151732"><ele>439.75</ele><time>2026-05-03T11:47:18Z</time></trkpt><trkpt lat="38.47679975953928" lon="16.45159428250662"><ele>442.0</ele><time>2026-05-03T11:47:19Z</time></trkpt><trkpt lat="38.47670206182264" lon="16.451679710242885"><ele>442.0</ele><time>2026-05-03T11:47:20Z</time></trkpt><trkpt lat="38.47660922374782" lon="16.451763463470122"><ele>442.00000000000006</ele><time>2026-05-03T11:47:21Z</time></trkpt><trkpt lat="38.47652058827256" lon="16.45184673581006"><ele>442.00000000000006</ele><time>2026-05-03T11:47:22Z</time></trkpt><trkpt lat="38.47643136235011" lon="16.45192736115549"><ele>442.0</ele><time>2026-05-03T11:47:23Z</time></trkpt><trkpt lat="38.47635047532947" lon="16.452002675459184"><ele>442.0</ele><time>2026-05-03T11:47:24Z</time></trkpt><trkpt lat="38.47626315778912" lon="16.452081506943717"><ele>441.6666666666667</ele><time>2026-05-03T11:47:25Z</time></trkpt><trkpt lat="38.476188935440845" lon="16.45214395729674"><ele>441.33333333333337</ele><time>2026-05-03T11:47:26Z</time></trkpt><trkpt lat="38.4761247637525" lon="16.45220093492315"><ele>441.0</ele><time>2026-05-03T11:47:27Z</time></trkpt><trkpt lat="38.4760399277097" lon="16.45224212143186"><ele>440.66666666666663</ele><time>2026-05-03T11:47:28Z</time></trkpt><trkpt lat="38.47597342667168" lon="16.452315589909414"><ele>440.3333333333333</ele><time>2026-05-03T11:47:29Z</time></trkpt><trkpt lat="38.47590768387503" lon="16.452392227701598"><ele>440.0</ele><time>2026-05-03T11:47:30Z</time></trkpt><trkpt lat="38.47582468564753" lon="16.452460904813883"><ele>439.99999999999994</ele><time>2026-05-03T11:47:31Z</time></trkpt><trkpt lat="38.47574708648967" lon="16.45253256843619"><ele>440.0</ele><time>2026-05-03T11:47:32Z</time></trkpt><trkpt lat="38.47567346903403" lon="16.452604917718787"><ele>440.0</ele><time>2026-05-03T11:47:33Z</time></trkpt><trkpt lat="38.475602065391605" lon="16.452668622794636"><ele>440.0</ele><time>2026-05-03T11:47:34Z</time></trkpt><trkpt lat="38.47553378861528" lon="16.452731008396672"><ele>439.99999999999994</ele><time>2026-05-03T11:47:35Z</time></trkpt><trkpt lat="38.475466682496695" lon="16.452769525416414"><ele>440.0</ele><time>2026-05-03T11:47:36Z</time></trkpt><trkpt lat="38.47539568207696" lon="16.452807626964923"><ele>439.8</ele><time>2026-05-03T11:47:37Z</time></trkpt><trkpt lat="38.475300216588785" lon="16.45280238998217"><ele>439.6</ele><time>2026-05-03T11:47:38Z</time></trkpt><trkpt lat="38.47520200917083" lon="16.452775947348755"><ele>439.4</ele><time>2026-05-03T11:47:39Z</time></trkpt><trkpt lat="38.47510220101471" lon="16.452740069631712"><ele>439.2</ele><time>2026-05-03T11:47:40Z</time></trkpt><trkpt lat="38.47498209241941" lon="16.452735599370595"><ele>439.0</ele><time>2026-05-03T11:47:41Z</time></trkpt><trkpt lat="38.47484762613846" lon="16.45277130544702"><ele>439.0</ele><time>2026-05-03T11:47:42Z</time></trkpt><trkpt lat="38.47473508058321" lon="16.45282689891688"><ele>439.0</ele><time>2026-05-03T11:47:43Z</time></trkpt><trkpt lat="38.47463634797081" lon="16.45284980330748"><ele>439.0</ele><time>2026-05-03T11:47:44Z</time></trkpt><trkpt lat="38.47456615388014" lon="16.45286520830996"><ele>439.0</ele><time>2026-05-03T11:47:45Z</time></trkpt><trkpt lat="38.47459297993924" lon="16.4527101664827"><ele>439.0</ele><time>2026-05-03T11:47:49Z</time></trkpt><trkpt lat="38.47468850446584" lon="16.45269286358629"><ele>439.0</ele><time>2026-05-03T11:47:50Z</time></trkpt><trkpt lat="38.47480924581391" lon="16.45259952495775"><ele>439.0</ele><time>2026-05-03T11:47:51Z</time></trkpt><trkpt lat="38.47495627204391" lon="16.45251682393969"><ele>439.0</ele><time>2026-05-03T11:47:52Z</time></trkpt><trkpt lat="38.47504753472238" lon="16.45244922952971"><ele>439.0</ele><time>2026-05-03T11:47:53Z</time></trkpt><trkpt lat="38.475112253924" lon="16.45235721775214"><ele>439.0</ele><time>2026-05-03T11:47:54Z</time></trkpt><trkpt lat="38.47517660582118" lon="16.45222692665152"><ele>439.0</ele><time>2026-05-03T11:47:55Z</time></trkpt><trkpt lat="38.4752698789111" lon="16.452065226912286"><ele>439.0</ele><time>2026-05-03T11:47:56Z</time></trkpt><trkpt lat="38.47535761977747" lon="16.451907406078973"><ele>439.0</ele><time>2026-05-03T11:47:57Z</time></trkpt><trkpt lat="38.47545273549527" lon="16.451779096041207"><ele>441.0</ele><time>2026-05-03T11:47:58Z</time></trkpt><trkpt lat="38.475538434262596" lon="16.451672304596034"><ele>443.0</ele><time>2026-05-03T11:47:59Z</time></trkpt><trkpt lat="38.47564023527193" lon="16.451584446565224"><ele>445.0</ele><time>2026-05-03T11:48:00Z</time></trkpt><trkpt lat="38.47572280054233" lon="16.451459773517175"><ele>447.0</ele><time>2026-05-03T11:48:01Z</time></trkpt><trkpt lat="38.47579555430862" lon="16.45133925126791"><ele>450.8</ele><time>2026-05-03T11:48:02Z</time></trkpt><trkpt lat="38.47585263784955" lon="16.451248165941497"><ele>454.6</ele><time>2026-05-03T11:48:03Z</time></trkpt><trkpt lat="38.475916166932464" lon="16.451172015110583"><ele>458.40000000000003</ele><time>2026-05-03T11:48:04Z</time></trkpt><trkpt lat="38.47599843426539" lon="16.451138446522783"><ele>462.20000000000005</ele><time>2026-05-03T11:48:05Z</time></trkpt><trkpt lat="38.47611042827677" lon="16.451107866349137"><ele>466.0</ele><time>2026-05-03T11:48:06Z</time></trkpt><trkpt lat="38.4762214759651" lon="16.4510807106589"><ele>462.25</ele><time>2026-05-03T11:48:07Z</time></trkpt><trkpt lat="38.4763004151583" lon="16.450997261077312"><ele>458.5</ele><time>2026-05-03T11:48:08Z</time></trkpt><trkpt lat="38.47638260062855" lon="16.450876099553227"><ele>454.75</ele><time>2026-05-03T11:48:09Z</time></trkpt><trkpt lat="38.47647646582153" lon="16.450763432833945"><ele>451.0</ele><time>2026-05-03T11:48:09.998Z</time></trkpt><trkpt lat="38.476592066581475" lon="16.45067052216254"><ele>451.0</ele><time>2026-05-03T11:48:10.998Z</time></trkpt><trkpt lat="38.476737279045565" lon="16.450569279186478"><ele>451.0</ele><time>2026-05-03T11:48:11.998Z</time></trkpt><trkpt lat="38.47688849420356" lon="16.45046567876897"><ele>451.0</ele><time>2026-05-03T11:48:12.998Z</time></trkpt><trkpt lat="38.47703006162462" lon="16.450356449264273"><ele>449.25</ele><time>2026-05-03T11:48:13.998Z</time></trkpt><trkpt lat="38.47716765335396" lon="16.45026883251363"><ele>447.5</ele><time>2026-05-03T11:48:14.998Z</time></trkpt><trkpt lat="38.47727600721835" lon="16.450187880387304"><ele>445.75</ele><time>2026-05-03T11:48:15.998Z</time></trkpt><trkpt lat="38.47735805138177" lon="16.450088762792472"><ele>444.0</ele><time>2026-05-03T11:48:16.998Z</time></trkpt><trkpt lat="38.4773936046661" lon="16.449958071726545"><ele>444.0</ele><time>2026-05-03T11:48:17.998Z</time></trkpt><trkpt lat="38.4773714674471" lon="16.4498125767955"><ele>444.0</ele><time>2026-05-03T11:48:18.998Z</time></trkpt><trkpt lat="38.477292485042135" lon="16.44968295020989"><ele>444.0</ele><time>2026-05-03T11:48:19.998Z</time></trkpt><trkpt lat="38.47717964539811" lon="16.449546489042756"><ele>444.0</ele><time>2026-05-03T11:48:20.998Z</time></trkpt><trkpt lat="38.477078173672176" lon="16.44935415961173"><ele>453.0</ele><time>2026-05-03T11:48:21.998Z</time></trkpt><trkpt lat="38.476968560724075" lon="16.449174669328556"><ele>462.0</ele><time>2026-05-03T11:48:22.999Z</time></trkpt><trkpt lat="38.47686331877606" lon="16.449003980888275"><ele>471.0</ele><time>2026-05-03T11:48:23.999Z</time></trkpt><trkpt lat="38.47677376385187" lon="16.448826739754953"><ele>469.66666666666663</ele><time>2026-05-03T11:48:24.999Z</time></trkpt><trkpt lat="38.47672184684119" lon="16.44863119197418"><ele>468.3333333333333</ele><time>2026-05-03T11:48:25.999Z</time></trkpt><trkpt lat="38.476677851294895" lon="16.448417556736654"><ele>467.0</ele><time>2026-05-03T11:48:26.999Z</time></trkpt><trkpt lat="38.476630754831355" lon="16.448161922068742"><ele>466.66666666666663</ele><time>2026-05-03T11:48:27.999Z</time></trkpt><trkpt lat="38.476578570557436" lon="16.447898421541044"><ele>466.33333333333337</ele><time>2026-05-03T11:48:28.999Z</time></trkpt><trkpt lat="38.47651937385951" lon="16.44764925628952"><ele>466.0</ele><time>2026-05-03T11:48:29.999Z</time></trkpt><trkpt lat="38.47641988998654" lon="16.447424183967037"><ele>466.0</ele><time>2026-05-03T11:48:30.999Z</time></trkpt><trkpt lat="38.47632192983711" lon="16.44715059742675"><ele>466.0</ele><time>2026-05-03T11:48:31.999Z</time></trkpt><trkpt lat="38.47622595988657" lon="16.44686866563913"><ele>476.5</ele><time>2026-05-03T11:48:32.999Z</time></trkpt><trkpt lat="38.476143060920855" lon="16.446587947456468"><ele>487.0</ele><time>2026-05-03T11:48:33.999Z</time></trkpt><trkpt lat="38.476066067332226" lon="16.44633159528056"><ele>486.0</ele><time>2026-05-03T11:48:34.999Z</time></trkpt><trkpt lat="38.47599344167637" lon="16.44609429129965"><ele>485.0</ele><time>2026-05-03T11:48:35.999Z</time></trkpt><trkpt lat="38.47591951036879" lon="16.44588171617"><ele>484.0</ele><time>2026-05-03T11:48:36.999Z</time></trkpt><trkpt lat="38.47581381853802" lon="16.4457110917554"><ele>484.0</ele><time>2026-05-03T11:48:37.999Z</time></trkpt><trkpt lat="38.4757107693972" lon="16.44558724553049"><ele>484.0</ele><time>2026-05-03T11:48:38.999Z</time></trkpt><trkpt lat="38.47563424138243" lon="16.44543968389846"><ele>484.0</ele><time>2026-05-03T11:48:39.999Z</time></trkpt><trkpt lat="38.475578371894244" lon="16.445277807634888"><ele>484.0</ele><time>2026-05-03T11:48:40.999Z</time></trkpt><trkpt lat="38.47553758993992" lon="16.445116280260105"><ele>481.2</ele><time>2026-05-03T11:48:41.999Z</time></trkpt><trkpt lat="38.475499220933045" lon="16.445001058950055"><ele>478.4</ele><time>2026-05-03T11:48:42.999Z</time></trkpt><trkpt lat="38.47547934813313" lon="16.444917640298616"><ele>475.6</ele><time>2026-05-03T11:48:43.999Z</time></trkpt><trkpt lat="38.47542106357569" lon="16.444876880722802"><ele>472.8</ele><time>2026-05-03T11:48:44.999Z</time></trkpt><trkpt lat="38.4752832224898" lon="16.444982801935865"><ele>470.0</ele><time>2026-05-03T11:48:46.999Z</time></trkpt><trkpt lat="38.47530697229798" lon="16.445143716682164"><ele>474.66666666666663</ele><time>2026-05-03T11:48:48Z</time></trkpt><trkpt lat="38.47536584168917" lon="16.445311543470122"><ele>479.33333333333337</ele><time>2026-05-03T11:48:49Z</time></trkpt><trkpt lat="38.475454867156344" lon="16.445525582292778"><ele>484.0</ele><time>2026-05-03T11:48:50Z</time></trkpt><trkpt lat="38.47554911023228" lon="16.445750172090722"><ele>484.0</ele><time>2026-05-03T11:48:51Z</time></trkpt><trkpt lat="38.4756174116414" lon="16.445936936658597"><ele>484.0</ele><time>2026-05-03T11:48:52Z</time></trkpt><trkpt lat="38.47563876427181" lon="16.44607912227639"><ele>484.0</ele><time>2026-05-03T11:48:53Z</time></trkpt><trkpt lat="38.47564220208793" lon="16.44618393646364"><ele>484.0</ele><time>2026-05-03T11:48:54Z</time></trkpt><trkpt lat="38.47558595523295" lon="16.44627698167314"><ele>484.0</ele><time>2026-05-03T11:48:55Z</time></trkpt><trkpt lat="38.47551725169302" lon="16.446381836255213"><ele>484.75</ele><time>2026-05-03T11:48:56Z</time></trkpt><trkpt lat="38.47544228755621" lon="16.44653034732289"><ele>485.5</ele><time>2026-05-03T11:48:57Z</time></trkpt><trkpt lat="38.475408072052694" lon="16.446683083275808"><ele>486.25</ele><time>2026-05-03T11:48:58Z</time></trkpt><trkpt lat="38.475427324741425" lon="16.44684371343447"><ele>487.0</ele><time>2026-05-03T11:48:59Z</time></trkpt><trkpt lat="38.47547304675791" lon="16.446997410461762"><ele>489.6666666666667</ele><time>2026-05-03T11:49:00Z</time></trkpt><trkpt lat="38.47554122576621" lon="16.447163290167012"><ele>492.33333333333337</ele><time>2026-05-03T11:49:01Z</time></trkpt><trkpt lat="38.475603484616435" lon="16.447350328932924"><ele>495.0</ele><time>2026-05-03T11:49:02Z</time></trkpt><trkpt lat="38.475621979550255" lon="16.447553505536213"><ele>495.0</ele><time>2026-05-03T11:49:03Z</time></trkpt><trkpt lat="38.47562843547686" lon="16.44771973452913"><ele>495.0</ele><time>2026-05-03T11:49:04Z</time></trkpt><trkpt lat="38.47563462306556" lon="16.447890303880804"><ele>495.0</ele><time>2026-05-03T11:49:05Z</time></trkpt><trkpt lat="38.475583713027106" lon="16.448099527164185"><ele>495.0</ele><time>2026-05-03T11:49:06Z</time></trkpt><trkpt lat="38.475551232819974" lon="16.44835482305228"><ele>495.66666666666663</ele><time>2026-05-03T11:49:07Z</time></trkpt><trkpt lat="38.47551910079616" lon="16.448615209492555"><ele>496.3333333333333</ele><time>2026-05-03T11:49:08Z</time></trkpt><trkpt lat="38.475508060346" lon="16.448814478650384"><ele>497.0</ele><time>2026-05-03T11:49:09Z</time></trkpt><trkpt lat="38.47548636180976" lon="16.448991693229605"><ele>497.5</ele><time>2026-05-03T11:49:10Z</time></trkpt><trkpt lat="38.475510030365" lon="16.44915810524419"><ele>498.0</ele><time>2026-05-03T11:49:11Z</time></trkpt><trkpt lat="38.475565155104924" lon="16.449318394443004"><ele>498.5</ele><time>2026-05-03T11:49:12Z</time></trkpt><trkpt lat="38.47566710664208" lon="16.449425488325623"><ele>499.0</ele><time>2026-05-03T11:49:13Z</time></trkpt><trkpt lat="38.47571765921805" lon="16.44951275773894"><ele>499.0</ele><time>2026-05-03T11:49:14Z</time></trkpt><trkpt lat="38.47573130270062" lon="16.44962077278704"><ele>499.0</ele><time>2026-05-03T11:49:16Z</time></trkpt><trkpt lat="38.47559745867522" lon="16.44965077470232"><ele>499.0</ele><time>2026-05-03T11:49:17Z</time></trkpt><trkpt lat="38.475452781136944" lon="16.44973941561241"><ele>499.0</ele><time>2026-05-03T11:49:18Z</time></trkpt><trkpt lat="38.47533691857632" lon="16.44989195896918"><ele>505.75</ele><time>2026-05-03T11:49:19Z</time></trkpt><trkpt lat="38.475242991471184" lon="16.450023183081058"><ele>512.5</ele><time>2026-05-03T11:49:20Z</time></trkpt><trkpt lat="38.47514629821172" lon="16.45008434467981"><ele>519.25</ele><time>2026-05-03T11:49:21Z</time></trkpt><trkpt lat="38.47502768840928" lon="16.45007579538043"><ele>526.0</ele><time>2026-05-03T11:49:22Z</time></trkpt><trkpt lat="38.474898098489696" lon="16.450161955595313"><ele>526.0</ele><time>2026-05-03T11:49:23Z</time></trkpt><trkpt lat="38.474777055121116" lon="16.45034401350461"><ele>526.0</ele><time>2026-05-03T11:49:24Z</time></trkpt><trkpt lat="38.474679140346126" lon="16.450499099499964"><ele>526.0</ele><time>2026-05-03T11:49:25Z</time></trkpt><trkpt lat="38.47458113606196" lon="16.45060856570758"><ele>525.75</ele><time>2026-05-03T11:49:26Z</time></trkpt><trkpt lat="38.47444443873386" lon="16.45071108360714"><ele>525.5</ele><time>2026-05-03T11:49:27Z</time></trkpt><trkpt lat="38.47429361906353" lon="16.450807530704566"><ele>525.25</ele><time>2026-05-03T11:49:28Z</time></trkpt><trkpt lat="38.474191294163084" lon="16.450841702880737"><ele>525.0</ele><time>2026-05-03T11:49:29Z</time></trkpt><trkpt lat="38.47410381264188" lon="16.450799992750426"><ele>525.0</ele><time>2026-05-03T11:49:31Z</time></trkpt><trkpt lat="38.47412861399465" lon="16.45063593116531"><ele>525.0</ele><time>2026-05-03T11:49:33Z</time></trkpt><trkpt lat="38.47422911485024" lon="16.450622248254593"><ele>525.0</ele><time>2026-05-03T11:49:34Z</time></trkpt><trkpt lat="38.474347138248845" lon="16.450579478632267"><ele>525.0</ele><time>2026-05-03T11:49:35Z</time></trkpt><trkpt lat="38.47447668702291" lon="16.450552519937908"><ele>525.25</ele><time>2026-05-03T11:49:36Z</time></trkpt><trkpt lat="38.47458746569929" lon="16.4504474176806"><ele>525.5</ele><time>2026-05-03T11:49:37Z</time></trkpt><trkpt lat="38.47464804919379" lon="16.45027488828769"><ele>525.75</ele><time>2026-05-03T11:49:38Z</time></trkpt><trkpt lat="38.47470531058776" lon="16.450091029398962"><ele>526.0</ele><time>2026-05-03T11:49:39Z</time></trkpt><trkpt lat="38.47482780400025" lon="16.449978424062245"><ele>526.0</ele><time>2026-05-03T11:49:40Z</time></trkpt><trkpt lat="38.47494091340809" lon="16.44985994693643"><ele>526.0</ele><time>2026-05-03T11:49:41Z</time></trkpt><trkpt lat="38.47503599835626" lon="16.449780718376388"><ele>526.0</ele><time>2026-05-03T11:49:42Z</time></trkpt><trkpt lat="38.475074352617995" lon="16.44968199246194"><ele>526.0</ele><time>2026-05-03T11:49:43.001Z</time></trkpt><trkpt lat="38.47508649641213" lon="16.44957630978716"><ele>526.0</ele><time>2026-05-03T11:49:44.001Z</time></trkpt><trkpt lat="38.4750146053843" lon="16.449432961645137"><ele>526.75</ele><time>2026-05-03T11:49:45.001Z</time></trkpt><trkpt lat="38.47486247847181" lon="16.44934474408182"><ele>527.5</ele><time>2026-05-03T11:49:46.001Z</time></trkpt><trkpt lat="38.474743816188635" lon="16.44924725400104"><ele>528.25</ele><time>2026-05-03T11:49:47.001Z</time></trkpt><trkpt lat="38.47465347336598" lon="16.44916139235571"><ele>529.0</ele><time>2026-05-03T11:49:48.001Z</time></trkpt><trkpt lat="38.474568268529104" lon="16.449039783062442"><ele>537.0</ele><time>2026-05-03T11:49:49.001Z</time></trkpt><trkpt lat="38.47453823423815" lon="16.448842515377766"><ele>545.0</ele><time>2026-05-03T11:49:50.001Z</time></trkpt><trkpt lat="38.47453009152749" lon="16.448632000372967"><ele>553.0</ele><time>2026-05-03T11:49:51.001Z</time></trkpt><trkpt lat="38.47452956579703" lon="16.44840524548258"><ele>553.0</ele><time>2026-05-03T11:49:52.001Z</time></trkpt><trkpt lat="38.4745256726571" lon="16.4482032664598"><ele>553.0</ele><time>2026-05-03T11:49:53.001Z</time></trkpt><trkpt lat="38.47451812832707" lon="16.448033425999704"><ele>553.0</ele><time>2026-05-03T11:49:54.001Z</time></trkpt><trkpt lat="38.474485458142844" lon="16.44789876896759"><ele>553.0</ele><time>2026-05-03T11:49:55.001Z</time></trkpt><trkpt lat="38.47438704044201" lon="16.447769386029282"><ele>552.0</ele><time>2026-05-03T11:49:56.001Z</time></trkpt><trkpt lat="38.474237399518906" lon="16.447649725863506"><ele>551.0</ele><time>2026-05-03T11:49:57.001Z</time></trkpt><trkpt lat="38.4741313777458" lon="16.447508859018672"><ele>550.0</ele><time>2026-05-03T11:49:58.001Z</time></trkpt><trkpt lat="38.47406165171634" lon="16.447316176179225"><ele>549.3333333333334</ele><time>2026-05-03T11:49:59.001Z</time></trkpt><trkpt lat="38.47399345672607" lon="16.447070825401497"><ele>548.6666666666666</ele><time>2026-05-03T11:50:00.001Z</time></trkpt><trkpt lat="38.47392191793713" lon="16.446859851844586"><ele>548.0</ele><time>2026-05-03T11:50:01.001Z</time></trkpt><trkpt lat="38.47387186440634" lon="16.446678876274337"><ele>548.0</ele><time>2026-05-03T11:50:02.001Z</time></trkpt><trkpt lat="38.473915989759554" lon="16.446470681729302"><ele>548.0</ele><time>2026-05-03T11:50:03.001Z</time></trkpt><trkpt lat="38.473980662971414" lon="16.446249834407787"><ele>548.0</ele><time>2026-05-03T11:50:04.001Z</time></trkpt><trkpt lat="38.474035497879996" lon="16.446056377456696"><ele>549.3333333333333</ele><time>2026-05-03T11:50:05.001Z</time></trkpt><trkpt lat="38.4740784730945" lon="16.44587983435182"><ele>550.6666666666666</ele><time>2026-05-03T11:50:06.001Z</time></trkpt><trkpt lat="38.474057760557656" lon="16.445663284692515"><ele>552.0</ele><time>2026-05-03T11:50:07.001Z</time></trkpt><trkpt lat="38.47398646659516" lon="16.445427719056287"><ele>552.0</ele><time>2026-05-03T11:50:08.001Z</time></trkpt><trkpt lat="38.47397775083683" lon="16.44523040224693"><ele>552.0</ele><time>2026-05-03T11:50:09.001Z</time></trkpt><trkpt lat="38.473977079693626" lon="16.445070813588348"><ele>552.0</ele><time>2026-05-03T11:50:10.001Z</time></trkpt><trkpt lat="38.47397405924546" lon="16.44491535238296"><ele>552.0</ele><time>2026-05-03T11:50:11.001Z</time></trkpt><trkpt lat="38.47389516296381" lon="16.44474075751051"><ele>548.0</ele><time>2026-05-03T11:50:12.001Z</time></trkpt><trkpt lat="38.473779897894545" lon="16.4445288621058"><ele>544.0</ele><time>2026-05-03T11:50:13.001Z</time></trkpt><trkpt lat="38.4736415565259" lon="16.444310673417984"><ele>540.0</ele><time>2026-05-03T11:50:14.001Z</time></trkpt><trkpt lat="38.473486427366275" lon="16.444114545126283"><ele>547.0</ele><time>2026-05-03T11:50:15.001Z</time></trkpt><trkpt lat="38.473356766866246" lon="16.443967644382965"><ele>554.0</ele><time>2026-05-03T11:50:15.998Z</time></trkpt><trkpt lat="38.473269867067934" lon="16.443784262366552"><ele>561.0</ele><time>2026-05-03T11:50:16.998Z</time></trkpt><trkpt lat="38.47320813546672" lon="16.443579231877308"><ele>561.0</ele><time>2026-05-03T11:50:17.998Z</time></trkpt><trkpt lat="38.473155124528475" lon="16.443413885785592"><ele>561.0</ele><time>2026-05-03T11:50:18.998Z</time></trkpt><trkpt lat="38.473097065352256" lon="16.443294677254222"><ele>561.0</ele><time>2026-05-03T11:50:19.998Z</time></trkpt><trkpt lat="38.47297027013372" lon="16.443231016661592"><ele>561.0</ele><time>2026-05-03T11:50:20.998Z</time></trkpt><trkpt lat="38.47280879574998" lon="16.44322149379381"><ele>562.5</ele><time>2026-05-03T11:50:21.998Z</time></trkpt><trkpt lat="38.47268108493742" lon="16.443201809630516"><ele>564.0</ele><time>2026-05-03T11:50:22.998Z</time></trkpt><trkpt lat="38.472556944361735" lon="16.443114887728385"><ele>565.5</ele><time>2026-05-03T11:50:23.998Z</time></trkpt><trkpt lat="38.472465978073174" lon="16.442971599216044"><ele>567.0</ele><time>2026-05-03T11:50:24.998Z</time></trkpt><trkpt lat="38.47236943933195" lon="16.442800162679887"><ele>567.0</ele><time>2026-05-03T11:50:25.998Z</time></trkpt><trkpt lat="38.472290462540286" lon="16.44265951698406"><ele>567.0</ele><time>2026-05-03T11:50:26.998Z</time></trkpt><trkpt lat="38.472179369846046" lon="16.44256534152682"><ele>567.0</ele><time>2026-05-03T11:50:27.998Z</time></trkpt><trkpt lat="38.47204543787898" lon="16.442494732897103"><ele>567.0</ele><time>2026-05-03T11:50:28.998Z</time></trkpt><trkpt lat="38.471924163456336" lon="16.442359163765428"><ele>571.6666666666666</ele><time>2026-05-03T11:50:29.998Z</time></trkpt><trkpt lat="38.47177925816978" lon="16.44215939288637"><ele>576.3333333333333</ele><time>2026-05-03T11:50:30.998Z</time></trkpt><trkpt lat="38.47160127556521" lon="16.44197928411021"><ele>581.0</ele><time>2026-05-03T11:50:31.999Z</time></trkpt><trkpt lat="38.4714538303643" lon="16.441826387595118"><ele>581.0</ele><time>2026-05-03T11:50:32.999Z</time></trkpt><trkpt lat="38.47132636648786" lon="16.441689686380688"><ele>581.0</ele><time>2026-05-03T11:50:33.999Z</time></trkpt><trkpt lat="38.4712432172696" lon="16.441531183323722"><ele>581.0</ele><time>2026-05-03T11:50:34.999Z</time></trkpt><trkpt lat="38.4711725345965" lon="16.44137466935998"><ele>587.0</ele><time>2026-05-03T11:50:35.999Z</time></trkpt><trkpt lat="38.47111309102572" lon="16.441192749248717"><ele>593.0</ele><time>2026-05-03T11:50:36.999Z</time></trkpt><trkpt lat="38.471092272401044" lon="16.440948740757662"><ele>599.0</ele><time>2026-05-03T11:50:37.999Z</time></trkpt><trkpt lat="38.471047094526455" lon="16.440669903600057"><ele>597.6666666666666</ele><time>2026-05-03T11:50:38.999Z</time></trkpt><trkpt lat="38.47098230483204" lon="16.440394879046515"><ele>596.3333333333334</ele><time>2026-05-03T11:50:39.999Z</time></trkpt><trkpt lat="38.470902069130595" lon="16.440150651169336"><ele>595.0</ele><time>2026-05-03T11:50:40.999Z</time></trkpt><trkpt lat="38.47082294908055" lon="16.43994968691945"><ele>595.0</ele><time>2026-05-03T11:50:41.999Z</time></trkpt><trkpt lat="38.47075068146343" lon="16.439775707343667"><ele>595.0</ele><time>2026-05-03T11:50:42.999Z</time></trkpt><trkpt lat="38.47065265774612" lon="16.43961195152768"><ele>595.0</ele><time>2026-05-03T11:50:43.999Z</time></trkpt><trkpt lat="38.470498456011505" lon="16.439423263983578"><ele>604.5</ele><time>2026-05-03T11:50:44.999Z</time></trkpt><trkpt lat="38.4703108718854" lon="16.439144070991627"><ele>614.0</ele><time>2026-05-03T11:50:45.999Z</time></trkpt><trkpt lat="38.470166711432384" lon="16.438959763946727"><ele>611.0</ele><time>2026-05-03T11:50:46.999Z</time></trkpt><trkpt lat="38.47004635233605" lon="16.43878081294487"><ele>608.0</ele><time>2026-05-03T11:50:47.999Z</time></trkpt><trkpt lat="38.46994656733695" lon="16.438599659214276"><ele>605.0</ele><time>2026-05-03T11:50:48.999Z</time></trkpt><trkpt lat="38.469886844714445" lon="16.43841189852048"><ele>605.0</ele><time>2026-05-03T11:50:49.999Z</time></trkpt><trkpt lat="38.469843870887395" lon="16.438256392566963"><ele>605.0</ele><time>2026-05-03T11:50:50.999Z</time></trkpt><trkpt lat="38.46985817340641" lon="16.438085620472336"><ele>605.0</ele><time>2026-05-03T11:50:51.999Z</time></trkpt><trkpt lat="38.46990783420204" lon="16.437878209439845"><ele>605.0</ele><time>2026-05-03T11:50:53Z</time></trkpt><trkpt lat="38.46994904407582" lon="16.437680304720132"><ele>605.1666666666666</ele><time>2026-05-03T11:50:54Z</time></trkpt><trkpt lat="38.46998560663545" lon="16.437548939484962"><ele>605.3333333333333</ele><time>2026-05-03T11:50:55Z</time></trkpt><trkpt lat="38.469978102424186" lon="16.43745923187539"><ele>605.5</ele><time>2026-05-03T11:50:56Z</time></trkpt><trkpt lat="38.4699153044472" lon="16.43739248084113"><ele>605.6666666666666</ele><time>2026-05-03T11:50:57Z</time></trkpt><trkpt lat="38.469849099583705" lon="16.43740183190169"><ele>605.8333333333334</ele><time>2026-05-03T11:50:58Z</time></trkpt><trkpt lat="38.46977563991154" lon="16.43751022450603"><ele>606.0</ele><time>2026-05-03T11:50:59Z</time></trkpt><trkpt lat="38.4697581747714" lon="16.437681876933418"><ele>606.0</ele><time>2026-05-03T11:51:00Z</time></trkpt><trkpt lat="38.469722237449076" lon="16.437910766296536"><ele>606.0</ele><time>2026-05-03T11:51:01Z</time></trkpt><trkpt lat="38.46968104354197" lon="16.438155393526074"><ele>606.0</ele><time>2026-05-03T11:51:02Z</time></trkpt><trkpt lat="38.469648191961234" lon="16.4383754630464"><ele>605.6666666666666</ele><time>2026-05-03T11:51:03Z</time></trkpt><trkpt lat="38.46965781867423" lon="16.438564941266993"><ele>605.3333333333333</ele><time>2026-05-03T11:51:04Z</time></trkpt><trkpt lat="38.469704881434396" lon="16.43873886235688"><ele>605.0</ele><time>2026-05-03T11:51:05Z</time></trkpt><trkpt lat="38.46980073804384" lon="16.438923747253273"><ele>608.0</ele><time>2026-05-03T11:51:06Z</time></trkpt><trkpt lat="38.46983956555945" lon="16.439105151671413"><ele>611.0</ele><time>2026-05-03T11:51:07Z</time></trkpt><trkpt lat="38.46987230467686" lon="16.43931550433719"><ele>614.0</ele><time>2026-05-03T11:51:08Z</time></trkpt><trkpt lat="38.46991419004587" lon="16.439581505222023"><ele>619.5</ele><time>2026-05-03T11:51:09Z</time></trkpt><trkpt lat="38.469961733216934" lon="16.439886089734344"><ele>625.0</ele><time>2026-05-03T11:51:10Z</time></trkpt><trkpt lat="38.47000391417661" lon="16.440160925938045"><ele>625.0</ele><time>2026-05-03T11:51:11Z</time></trkpt><trkpt lat="38.47005222415983" lon="16.44043663273727"><ele>625.0</ele><time>2026-05-03T11:51:12Z</time></trkpt><trkpt lat="38.47007250851981" lon="16.440693646298506"><ele>625.0</ele><time>2026-05-03T11:51:13Z</time></trkpt><trkpt lat="38.47008894382144" lon="16.440917387180495"><ele>627.6666666666667</ele><time>2026-05-03T11:51:14Z</time></trkpt><trkpt lat="38.470119179862785" lon="16.441113460075638"><ele>630.3333333333334</ele><time>2026-05-03T11:51:15Z</time></trkpt><trkpt lat="38.470179258080485" lon="16.441295822153723"><ele>633.0</ele><time>2026-05-03T11:51:16Z</time></trkpt><trkpt lat="38.4702859174207" lon="16.441497811688844"><ele>631.6666666666666</ele><time>2026-05-03T11:51:17Z</time></trkpt><trkpt lat="38.470372768325994" lon="16.44171223982289"><ele>630.3333333333333</ele><time>2026-05-03T11:51:18Z</time></trkpt><trkpt lat="38.47040725230294" lon="16.441930221271775"><ele>629.0</ele><time>2026-05-03T11:51:19Z</time></trkpt><trkpt lat="38.470459315403794" lon="16.44216692941272"><ele>629.0</ele><time>2026-05-03T11:51:20Z</time></trkpt><trkpt lat="38.47053656162147" lon="16.442387178013163"><ele>629.0</ele><time>2026-05-03T11:51:21Z</time></trkpt><trkpt lat="38.47064516267918" lon="16.44259813546006"><ele>629.0</ele><time>2026-05-03T11:51:22Z</time></trkpt><trkpt lat="38.4707467167121" lon="16.442768565953408"><ele>629.0</ele><time>2026-05-03T11:51:23Z</time></trkpt><trkpt lat="38.47086194183463" lon="16.442889363937965"><ele>629.0</ele><time>2026-05-03T11:51:24Z</time></trkpt><trkpt lat="38.47097542135817" lon="16.442995249793412"><ele>629.0</ele><time>2026-05-03T11:51:25Z</time></trkpt><trkpt lat="38.47105960461084" lon="16.44308504251359"><ele>629.0</ele><time>2026-05-03T11:51:26Z</time></trkpt><trkpt lat="38.47110015829387" lon="16.443152429520996"><ele>629.0</ele><time>2026-05-03T11:51:27Z</time></trkpt><trkpt lat="38.47106751548947" lon="16.443284318406327"><ele>629.0</ele><time>2026-05-03T11:51:29Z</time></trkpt><trkpt lat="38.47094366197946" lon="16.44320616836511"><ele>629.0</ele><time>2026-05-03T11:51:31Z</time></trkpt><trkpt lat="38.470870265131296" lon="16.443091401826972"><ele>629.0</ele><time>2026-05-03T11:51:32Z</time></trkpt><trkpt lat="38.47073138954118" lon="16.442923401232857"><ele>629.0</ele><time>2026-05-03T11:51:33.001Z</time></trkpt><trkpt lat="38.47058244218433" lon="16.442749428449176"><ele>629.0</ele><time>2026-05-03T11:51:34.001Z</time></trkpt><trkpt lat="38.47045057798536" lon="16.442591136343523"><ele>629.0</ele><time>2026-05-03T11:51:35.001Z</time></trkpt><trkpt lat="38.470322925417726" lon="16.44243488184048"><ele>634.25</ele><time>2026-05-03T11:51:36.001Z</time></trkpt><trkpt lat="38.470229781890566" lon="16.442299987754648"><ele>639.5</ele><time>2026-05-03T11:51:37.001Z</time></trkpt><trkpt lat="38.47017419289509" lon="16.442151680893254"><ele>644.75</ele><time>2026-05-03T11:51:38.001Z</time></trkpt><trkpt lat="38.47012766786571" lon="16.441977698801153"><ele>650.0</ele><time>2026-05-03T11:51:39.001Z</time></trkpt><trkpt lat="38.47007635099142" lon="16.441791736237327"><ele>650.0</ele><time>2026-05-03T11:51:40.001Z</time></trkpt><trkpt lat="38.47001115968128" lon="16.44160850481717"><ele>650.0</ele><time>2026-05-03T11:51:41.001Z</time></trkpt><trkpt lat="38.46992584479296" lon="16.44146554308281"><ele>650.0</ele><time>2026-05-03T11:51:42.001Z</time></trkpt><trkpt lat="38.4698388622341" lon="16.441326920224057"><ele>650.0</ele><time>2026-05-03T11:51:43.001Z</time></trkpt><trkpt lat="38.46978480552664" lon="16.441190609780154"><ele>645.75</ele><time>2026-05-03T11:51:44.001Z</time></trkpt><trkpt lat="38.4697876819767" lon="16.441042455426004"><ele>641.5</ele><time>2026-05-03T11:51:45.001Z</time></trkpt><trkpt lat="38.46975500306336" lon="16.44091187520842"><ele>637.25</ele><time>2026-05-03T11:51:46.001Z</time></trkpt><trkpt lat="38.46970817142538" lon="16.44078849677063"><ele>633.0</ele><time>2026-05-03T11:51:47.001Z</time></trkpt><trkpt lat="38.4696108567256" lon="16.440673330930416"><ele>641.0</ele><time>2026-05-03T11:51:48.001Z</time></trkpt><trkpt lat="38.469517407348874" lon="16.440518981598938"><ele>649.0</ele><time>2026-05-03T11:51:49.001Z</time></trkpt><trkpt lat="38.46943154911211" lon="16.440330409755415"><ele>657.0</ele><time>2026-05-03T11:51:50.001Z</time></trkpt><trkpt lat="38.46935969423391" lon="16.440175937668446"><ele>657.0</ele><time>2026-05-03T11:51:51.001Z</time></trkpt><trkpt lat="38.46928229176416" lon="16.440067053510514"><ele>657.0</ele><time>2026-05-03T11:51:52.001Z</time></trkpt><trkpt lat="38.469198004464786" lon="16.43994644138492"><ele>657.0</ele><time>2026-05-03T11:51:53.001Z</time></trkpt><trkpt lat="38.46905814692693" lon="16.43987666195931"><ele>657.0</ele><time>2026-05-03T11:51:54.001Z</time></trkpt><trkpt lat="38.46896634822001" lon="16.439704502980085"><ele>651.6666666666666</ele><time>2026-05-03T11:51:55.001Z</time></trkpt><trkpt lat="38.46886182278366" lon="16.43951940223658"><ele>646.3333333333333</ele><time>2026-05-03T11:51:56.001Z</time></trkpt><trkpt lat="38.46875196650514" lon="16.439326292225797"><ele>641.0</ele><time>2026-05-03T11:51:57.001Z</time></trkpt><trkpt lat="38.46866035810334" lon="16.439159556697916"><ele>649.0</ele><time>2026-05-03T11:51:58.001Z</time></trkpt><trkpt lat="38.4685825403671" lon="16.439006558347412"><ele>657.0</ele><time>2026-05-03T11:51:59.001Z</time></trkpt><trkpt lat="38.46853206084066" lon="16.43883970818594"><ele>665.0</ele><time>2026-05-03T11:52:00.001Z</time></trkpt><trkpt lat="38.46850249146268" lon="16.438644436000864"><ele>673.0</ele><time>2026-05-03T11:52:01.001Z</time></trkpt><trkpt lat="38.4684721624011" lon="16.43840912134659"><ele>673.0</ele><time>2026-05-03T11:52:02.001Z</time></trkpt><trkpt lat="38.46842857059336" lon="16.43816341255339"><ele>673.0</ele><time>2026-05-03T11:52:03.001Z</time></trkpt><trkpt lat="38.46840166494978" lon="16.437945477911928"><ele>673.0</ele><time>2026-05-03T11:52:04.001Z</time></trkpt><trkpt lat="38.468405607637415" lon="16.43775631150319"><ele>673.6666666666667</ele><time>2026-05-03T11:52:05.001Z</time></trkpt><trkpt lat="38.46844717605396" lon="16.437567111988"><ele>674.3333333333334</ele><time>2026-05-03T11:52:06.001Z</time></trkpt><trkpt lat="38.468431822323616" lon="16.437320722020328"><ele>675.0</ele><time>2026-05-03T11:52:07.001Z</time></trkpt><trkpt lat="38.46842073801214" lon="16.437039060498545"><ele>676.5</ele><time>2026-05-03T11:52:08.001Z</time></trkpt><trkpt lat="38.46838415776446" lon="16.436816561635098"><ele>678.0</ele><time>2026-05-03T11:52:09.001Z</time></trkpt><trkpt lat="38.468391964090074" lon="16.436648636851718"><ele>679.5</ele><time>2026-05-03T11:52:10.001Z</time></trkpt><trkpt lat="38.46839981113336" lon="16.436503634725828"><ele>681.0</ele><time>2026-05-03T11:52:11.001Z</time></trkpt><trkpt lat="38.468472548667414" lon="16.436342488074395"><ele>685.25</ele><time>2026-05-03T11:52:12.001Z</time></trkpt><trkpt lat="38.46854376646869" lon="16.43617359117348"><ele>689.5</ele><time>2026-05-03T11:52:13.001Z</time></trkpt><trkpt lat="38.4686150335547" lon="16.436056284960465"><ele>693.75</ele><time>2026-05-03T11:52:14.001Z</time></trkpt><trkpt lat="38.46866177000978" lon="16.43594993264826"><ele>698.0</ele><time>2026-05-03T11:52:15.001Z</time></trkpt><trkpt lat="38.46877145880078" lon="16.43588673148435"><ele>690.0</ele><time>2026-05-03T11:52:16.001Z</time></trkpt><trkpt lat="38.46891258202258" lon="16.435881299460444"><ele>682.0</ele><time>2026-05-03T11:52:17.001Z</time></trkpt><trkpt lat="38.46905007423905" lon="16.43583469842861"><ele>674.0</ele><time>2026-05-03T11:52:18.001Z</time></trkpt><trkpt lat="38.469156180550584" lon="16.435798735205974"><ele>666.0</ele><time>2026-05-03T11:52:19.001Z</time></trkpt><trkpt lat="38.46913933017873" lon="16.43543395414546"><ele>666.0</ele><time>2026-05-03T11:52:21.002Z</time></trkpt><trkpt lat="38.46908149408179" lon="16.435389496477335"><ele>666.0</ele><time>2026-05-03T11:52:21.999Z</time></trkpt><trkpt lat="38.46894760146393" lon="16.4355020477045"><ele>666.0</ele><time>2026-05-03T11:52:23.999Z</time></trkpt><trkpt lat="38.468864957371956" lon="16.435647598726288"><ele>666.0</ele><time>2026-05-03T11:52:24.999Z</time></trkpt><trkpt lat="38.46877484917692" lon="16.43574157233991"><ele>674.0</ele><time>2026-05-03T11:52:25.999Z</time></trkpt><trkpt lat="38.46865000062514" lon="16.435759989697495"><ele>682.0</ele><time>2026-05-03T11:52:26.999Z</time></trkpt><trkpt lat="38.4685185801786" lon="16.43580647584511"><ele>690.0</ele><time>2026-05-03T11:52:27.999Z</time></trkpt><trkpt lat="38.46843610168271" lon="16.43589334419838"><ele>698.0</ele><time>2026-05-03T11:52:28.999Z</time></trkpt><trkpt lat="38.46838217971123" lon="16.43603096868839"><ele>698.0</ele><time>2026-05-03T11:52:29.999Z</time></trkpt><trkpt lat="38.46833915812598" lon="16.436176033927055"><ele>698.0</ele><time>2026-05-03T11:52:30.999Z</time></trkpt><trkpt lat="38.46821051549374" lon="16.4362491218811"><ele>698.0</ele><time>2026-05-03T11:52:31.999Z</time></trkpt><trkpt lat="38.46806161691289" lon="16.436353088288904"><ele>698.0</ele><time>2026-05-03T11:52:32.999Z</time></trkpt><trkpt lat="38.467939767519006" lon="16.436459858746016"><ele>702.25</ele><time>2026-05-03T11:52:33.999Z</time></trkpt><trkpt lat="38.46782555458228" lon="16.436572747029132"><ele>706.5</ele><time>2026-05-03T11:52:34.999Z</time></trkpt><trkpt lat="38.467765185784174" lon="16.436715307693266"><ele>710.75</ele><time>2026-05-03T11:52:35.999Z</time></trkpt><trkpt lat="38.467746733509564" lon="16.436887281357542"><ele>715.0</ele><time>2026-05-03T11:52:36.999Z</time></trkpt><trkpt lat="38.467767090465806" lon="16.43708364476158"><ele>713.6666666666667</ele><time>2026-05-03T11:52:37.999Z</time></trkpt><trkpt lat="38.46775387604783" lon="16.437281077260533"><ele>712.3333333333334</ele><time>2026-05-03T11:52:38.999Z</time></trkpt><trkpt lat="38.46769928658501" lon="16.437482575995325"><ele>711.0</ele><time>2026-05-03T11:52:39.999Z</time></trkpt><trkpt lat="38.467666539003574" lon="16.437679860172675"><ele>711.0</ele><time>2026-05-03T11:52:40.999Z</time></trkpt><trkpt lat="38.46765373701904" lon="16.437885787065525"><ele>711.0</ele><time>2026-05-03T11:52:41.999Z</time></trkpt><trkpt lat="38.467683151345824" lon="16.438133734740287"><ele>711.0</ele><time>2026-05-03T11:52:43Z</time></trkpt><trkpt lat="38.46768029320366" lon="16.43841136617159"><ele>710.6666666666666</ele><time>2026-05-03T11:52:44Z</time></trkpt><trkpt lat="38.46766704471091" lon="16.438676185425763"><ele>710.3333333333333</ele><time>2026-05-03T11:52:45Z</time></trkpt><trkpt lat="38.46768123777059" lon="16.43892473237302"><ele>710.0</ele><time>2026-05-03T11:52:46Z</time></trkpt><trkpt lat="38.46770374158477" lon="16.439158326889835"><ele>712.3333333333333</ele><time>2026-05-03T11:52:47Z</time></trkpt><trkpt lat="38.467748891038624" lon="16.43937641747102"><ele>714.6666666666666</ele><time>2026-05-03T11:52:48Z</time></trkpt><trkpt lat="38.46781983543917" lon="16.439598950422845"><ele>717.0</ele><time>2026-05-03T11:52:49Z</time></trkpt><trkpt lat="38.467917293984435" lon="16.43984067843803"><ele>715.3333333333334</ele><time>2026-05-03T11:52:50Z</time></trkpt><trkpt lat="38.468024039692814" lon="16.44007978540326"><ele>713.6666666666667</ele><time>2026-05-03T11:52:51Z</time></trkpt><trkpt lat="38.46811416738817" lon="16.440298256218956"><ele>712.0</ele><time>2026-05-03T11:52:52Z</time></trkpt><trkpt lat="38.46819198930473" lon="16.440473528537733"><ele>712.0</ele><time>2026-05-03T11:52:53Z</time></trkpt><trkpt lat="38.46824037335793" lon="16.44063852204195"><ele>712.0</ele><time>2026-05-03T11:52:54Z</time></trkpt><trkpt lat="38.46828631401174" lon="16.440755396070237"><ele>712.0</ele><time>2026-05-03T11:52:55Z</time></trkpt><trkpt lat="38.468308549169244" lon="16.440838312808307"><ele>712.0</ele><time>2026-05-03T11:52:56Z</time></trkpt><trkpt lat="38.46824608364882" lon="16.440928767940274"><ele>712.0</ele><time>2026-05-03T11:52:58Z</time></trkpt><trkpt lat="38.4681104851211" lon="16.440888784389514"><ele>712.0</ele><time>2026-05-03T11:53:00Z</time></trkpt><trkpt lat="38.46809191282682" lon="16.44074527013482"><ele>712.0</ele><time>2026-05-03T11:53:01Z</time></trkpt><trkpt lat="38.46805296017333" lon="16.440564669533064"><ele>712.0</ele><time>2026-05-03T11:53:02Z</time></trkpt><trkpt lat="38.46801053975658" lon="16.440384588859974"><ele>712.0</ele><time>2026-05-03T11:53:03Z</time></trkpt><trkpt lat="38.46795705894175" lon="16.44018717579677"><ele>713.6666666666667</ele><time>2026-05-03T11:53:04Z</time></trkpt><trkpt lat="38.467851045562895" lon="16.439987620360654"><ele>715.3333333333334</ele><time>2026-05-03T11:53:05Z</time></trkpt><trkpt lat="38.467715269845236" lon="16.439803250259782"><ele>717.0</ele><time>2026-05-03T11:53:06Z</time></trkpt><trkpt lat="38.46758785577927" lon="16.439626456431164"><ele>717.0</ele><time>2026-05-03T11:53:07Z</time></trkpt><trkpt lat="38.467490880711175" lon="16.439418568869545"><ele>717.0</ele><time>2026-05-03T11:53:08Z</time></trkpt><trkpt lat="38.46741503093862" lon="16.439182198136784"><ele>717.0</ele><time>2026-05-03T11:53:09Z</time></trkpt><trkpt lat="38.46737434357419" lon="16.438990845985177"><ele>714.6666666666666</ele><time>2026-05-03T11:53:10Z</time></trkpt><trkpt lat="38.4673913030231" lon="16.438798693085005"><ele>712.3333333333333</ele><time>2026-05-03T11:53:11Z</time></trkpt><trkpt lat="38.46732813943118" lon="16.438579266334123"><ele>710.0</ele><time>2026-05-03T11:53:12Z</time></trkpt><trkpt lat="38.46725691014532" lon="16.438360165790943"><ele>710.0</ele><time>2026-05-03T11:53:13Z</time></trkpt><trkpt lat="38.467220562552626" lon="16.43816913374526"><ele>710.0</ele><time>2026-05-03T11:53:14Z</time></trkpt><trkpt lat="38.46722062610165" lon="16.437959959170787"><ele>710.0</ele><time>2026-05-03T11:53:15.001Z</time></trkpt><trkpt lat="38.46724376229665" lon="16.43776960062147"><ele>710.3333333333333</ele><time>2026-05-03T11:53:16.001Z</time></trkpt><trkpt lat="38.46726388967365" lon="16.43756845991332"><ele>710.6666666666666</ele><time>2026-05-03T11:53:17.001Z</time></trkpt><trkpt lat="38.46722884338439" lon="16.437359058450262"><ele>711.0</ele><time>2026-05-03T11:53:18.001Z</time></trkpt><trkpt lat="38.46714641325434" lon="16.437141846889205"><ele>725.3333333333334</ele><time>2026-05-03T11:53:19.001Z</time></trkpt><trkpt lat="38.467083469339954" lon="16.436937466265853"><ele>739.6666666666667</ele><time>2026-05-03T11:53:20.001Z</time></trkpt><trkpt lat="38.46709337735034" lon="16.436719446502778"><ele>754.0</ele><time>2026-05-03T11:53:21.001Z</time></trkpt><trkpt lat="38.46709981068166" lon="16.436540455949004"><ele>745.5</ele><time>2026-05-03T11:53:22.001Z</time></trkpt><trkpt lat="38.46714331854787" lon="16.436384293034042"><ele>737.0</ele><time>2026-05-03T11:53:23.001Z</time></trkpt><trkpt lat="38.46721076128591" lon="16.43625668091212"><ele>728.5</ele><time>2026-05-03T11:53:24.001Z</time></trkpt><trkpt lat="38.46728275097492" lon="16.436140853725192"><ele>720.0</ele><time>2026-05-03T11:53:25.001Z</time></trkpt><trkpt lat="38.46726915867177" lon="16.436015337400583"><ele>720.0</ele><time>2026-05-03T11:53:26.001Z</time></trkpt><trkpt lat="38.46721995003544" lon="16.4358964172599"><ele>720.0</ele><time>2026-05-03T11:53:27.001Z</time></trkpt><trkpt lat="38.46706956950918" lon="16.43585539172994"><ele>720.0</ele><time>2026-05-03T11:53:28.001Z</time></trkpt><trkpt lat="38.46692748532703" lon="16.435874282914906"><ele>720.0</ele><time>2026-05-03T11:53:29.001Z</time></trkpt><trkpt lat="38.46680167537822" lon="16.435972508869302"><ele>724.4</ele><time>2026-05-03T11:53:30.001Z</time></trkpt><trkpt lat="38.466692411728374" lon="16.436029659261504"><ele>728.8</ele><time>2026-05-03T11:53:31.001Z</time></trkpt><trkpt lat="38.46660394062231" lon="16.436017586236733"><ele>733.2</ele><time>2026-05-03T11:53:32.001Z</time></trkpt><trkpt lat="38.46653503672967" lon="16.43597570566582"><ele>737.6</ele><time>2026-05-03T11:53:33.001Z</time></trkpt><trkpt lat="38.46647646161139" lon="16.43587311154969"><ele>742.0</ele><time>2026-05-03T11:53:34.001Z</time></trkpt><trkpt lat="38.46644405821352" lon="16.43571749300334"><ele>742.0</ele><time>2026-05-03T11:53:35.001Z</time></trkpt><trkpt lat="38.4664150750448" lon="16.435541597189097"><ele>742.0</ele><time>2026-05-03T11:53:36.001Z</time></trkpt><trkpt lat="38.46637362414802" lon="16.43534650988036"><ele>742.0</ele><time>2026-05-03T11:53:37.001Z</time></trkpt><trkpt lat="38.46635241366893" lon="16.435111546094177"><ele>749.0</ele><time>2026-05-03T11:53:38.001Z</time></trkpt><trkpt lat="38.466247506957124" lon="16.43488805892632"><ele>756.0</ele><time>2026-05-03T11:53:39.001Z</time></trkpt><trkpt lat="38.466169448418235" lon="16.43465123653402"><ele>763.0</ele><time>2026-05-03T11:53:40.001Z</time></trkpt><trkpt lat="38.46609318190976" lon="16.434398008549824"><ele>763.0</ele><time>2026-05-03T11:53:41.001Z</time></trkpt><trkpt lat="38.46603102143372" lon="16.4341597851478"><ele>763.0</ele><time>2026-05-03T11:53:42.001Z</time></trkpt><trkpt lat="38.46597099100526" lon="16.433948105584786"><ele>763.0</ele><time>2026-05-03T11:53:43.001Z</time></trkpt><trkpt lat="38.465912353309584" lon="16.433755963455578"><ele>763.0</ele><time>2026-05-03T11:53:44.001Z</time></trkpt><trkpt lat="38.46587725177134" lon="16.433574460122063"><ele>763.0</ele><time>2026-05-03T11:53:45.001Z</time></trkpt><trkpt lat="38.465882211378634" lon="16.433385793021316"><ele>763.0</ele><time>2026-05-03T11:53:46.001Z</time></trkpt><trkpt lat="38.46593464828018" lon="16.43316000270768"><ele>765.6666666666667</ele><time>2026-05-03T11:53:47.001Z</time></trkpt><trkpt lat="38.4659952735306" lon="16.432891998700196"><ele>768.3333333333334</ele><time>2026-05-03T11:53:48.001Z</time></trkpt><trkpt lat="38.46603048561326" lon="16.43260182119431"><ele>771.0</ele><time>2026-05-03T11:53:49.001Z</time></trkpt><trkpt lat="38.46605634399029" lon="16.43235445192066"><ele>771.0</ele><time>2026-05-03T11:53:50.001Z</time></trkpt><trkpt lat="38.466078413295826" lon="16.432153665837486"><ele>771.0</ele><time>2026-05-03T11:53:51.001Z</time></trkpt><trkpt lat="38.46609954393203" lon="16.431972829074148"><ele>771.0</ele><time>2026-05-03T11:53:52.001Z</time></trkpt><trkpt lat="38.46609598902886" lon="16.431824625175175"><ele>771.0</ele><time>2026-05-03T11:53:53.001Z</time></trkpt><trkpt lat="38.46604950133486" lon="16.431711802998194"><ele>769.0</ele><time>2026-05-03T11:53:54.001Z</time></trkpt><trkpt lat="38.46595983848203" lon="16.43162035447163"><ele>767.0</ele><time>2026-05-03T11:53:55.002Z</time></trkpt><trkpt lat="38.46582598514927" lon="16.43158497828538"><ele>765.0</ele><time>2026-05-03T11:53:56.002Z</time></trkpt><trkpt lat="38.46567415879636" lon="16.431578319181508"><ele>763.0</ele><time>2026-05-03T11:53:57.002Z</time></trkpt><trkpt lat="38.465537279840966" lon="16.431541676099304"><ele>768.5</ele><time>2026-05-03T11:53:58.002Z</time></trkpt><trkpt lat="38.46543069822454" lon="16.431466773803866"><ele>774.0</ele><time>2026-05-03T11:53:59.002Z</time></trkpt><trkpt lat="38.46536003980715" lon="16.431344101849646"><ele>779.5</ele><time>2026-05-03T11:54:00.002Z</time></trkpt><trkpt lat="38.46529451043525" lon="16.431156365125737"><ele>785.0</ele><time>2026-05-03T11:54:01.002Z</time></trkpt><trkpt lat="38.46523367986472" lon="16.430930834042606"><ele>785.0</ele><time>2026-05-03T11:54:02.002Z</time></trkpt><trkpt lat="38.46516474168522" lon="16.430682529201402"><ele>785.0</ele><time>2026-05-03T11:54:03.002Z</time></trkpt><trkpt lat="38.465069198381244" lon="16.430445226322302"><ele>785.0</ele><time>2026-05-03T11:54:04.002Z</time></trkpt><trkpt lat="38.46495075117337" lon="16.43022068808016"><ele>779.3333333333334</ele><time>2026-05-03T11:54:05.002Z</time></trkpt><trkpt lat="38.46485107277724" lon="16.430007561233566"><ele>773.6666666666667</ele><time>2026-05-03T11:54:06.002Z</time></trkpt><trkpt lat="38.46478632505658" lon="16.429759918125654"><ele>768.0</ele><time>2026-05-03T11:54:07.002Z</time></trkpt><trkpt lat="38.46471462153966" lon="16.429526471937834"><ele>766.75</ele><time>2026-05-03T11:54:08.002Z</time></trkpt><trkpt lat="38.46464434933232" lon="16.429357999729472"><ele>765.5</ele><time>2026-05-03T11:54:09.002Z</time></trkpt><trkpt lat="38.464597798082" lon="16.429223601901516"><ele>764.25</ele><time>2026-05-03T11:54:10.002Z</time></trkpt><trkpt lat="38.46459266048201" lon="16.42910091330386"><ele>763.0</ele><time>2026-05-03T11:54:11.002Z</time></trkpt><trkpt lat="38.46463014794624" lon="16.428966744819146"><ele>763.0</ele><time>2026-05-03T11:54:12.002Z</time></trkpt><trkpt lat="38.464688312289454" lon="16.42885416076046"><ele>763.0</ele><time>2026-05-03T11:54:13.002Z</time></trkpt><trkpt lat="38.46471890238495" lon="16.42874269564745"><ele>763.0</ele><time>2026-05-03T11:54:14.002Z</time></trkpt><trkpt lat="38.4646817780388" lon="16.428637509044812"><ele>763.0</ele><time>2026-05-03T11:54:15.002Z</time></trkpt><trkpt lat="38.46459485004262" lon="16.428543523042585"><ele>763.0</ele><time>2026-05-03T11:54:16.002Z</time></trkpt><trkpt lat="38.46447225543574" lon="16.428487298493177"><ele>769.0</ele><time>2026-05-03T11:54:17.002Z</time></trkpt><trkpt lat="38.46435480504454" lon="16.428435554497554"><ele>775.0</ele><time>2026-05-03T11:54:18.002Z</time></trkpt><trkpt lat="38.46425385670479" lon="16.42841890674974"><ele>781.0</ele><time>2026-05-03T11:54:19.002Z</time></trkpt><trkpt lat="38.464173530581036" lon="16.42840455064687"><ele>787.0</ele><time>2026-05-03T11:54:20.002Z</time></trkpt><trkpt lat="38.464106552441315" lon="16.428370021109743"><ele>793.0</ele><time>2026-05-03T11:54:21.002Z</time></trkpt><trkpt lat="38.46407442380612" lon="16.428262207583664"><ele>793.0</ele><time>2026-05-03T11:54:22.002Z</time></trkpt><trkpt lat="38.464112107701176" lon="16.428114743265727"><ele>793.0</ele><time>2026-05-03T11:54:23.002Z</time></trkpt><trkpt lat="38.46414757491905" lon="16.427937955884666"><ele>793.0</ele><time>2026-05-03T11:54:24.002Z</time></trkpt><trkpt lat="38.46414718461265" lon="16.427744983920142"><ele>793.0</ele><time>2026-05-03T11:54:25.002Z</time></trkpt><trkpt lat="38.46409762389805" lon="16.42752960412635"><ele>790.6666666666666</ele><time>2026-05-03T11:54:26.002Z</time></trkpt><trkpt lat="38.464014910863774" lon="16.427300269097035"><ele>788.3333333333333</ele><time>2026-05-03T11:54:27.002Z</time></trkpt><trkpt lat="38.46394457812799" lon="16.42705650441695"><ele>786.0</ele><time>2026-05-03T11:54:28Z</time></trkpt><trkpt lat="38.46388116021445" lon="16.426788527989597"><ele>785.0</ele><time>2026-05-03T11:54:29Z</time></trkpt><trkpt lat="38.463817486827395" lon="16.42653514629098"><ele>784.0</ele><time>2026-05-03T11:54:30Z</time></trkpt><trkpt lat="38.463759129448675" lon="16.426322901548854"><ele>783.0</ele><time>2026-05-03T11:54:31Z</time></trkpt><trkpt lat="38.463705862293345" lon="16.426133847354023"><ele>793.3333333333333</ele><time>2026-05-03T11:54:32Z</time></trkpt><trkpt lat="38.4636539960902" lon="16.425954853548685"><ele>803.6666666666666</ele><time>2026-05-03T11:54:33Z</time></trkpt><trkpt lat="38.46357430451137" lon="16.425754679676515"><ele>814.0</ele><time>2026-05-03T11:54:34Z</time></trkpt><trkpt lat="38.463498310022786" lon="16.42555147102679"><ele>809.0</ele><time>2026-05-03T11:54:35Z</time></trkpt><trkpt lat="38.46342070142292" lon="16.425370090903588"><ele>804.0</ele><time>2026-05-03T11:54:36Z</time></trkpt><trkpt lat="38.46333940254699" lon="16.425201663435175"><ele>799.0</ele><time>2026-05-03T11:54:37Z</time></trkpt><trkpt lat="38.46326871302418" lon="16.425028185121242"><ele>799.0</ele><time>2026-05-03T11:54:38Z</time></trkpt><trkpt lat="38.46323316411831" lon="16.424816952284733"><ele>799.0</ele><time>2026-05-03T11:54:39Z</time></trkpt><trkpt lat="38.46322616201295" lon="16.424591634382033"><ele>799.0</ele><time>2026-05-03T11:54:40Z</time></trkpt><trkpt lat="38.46322018181468" lon="16.424390564699927"><ele>798.5</ele><time>2026-05-03T11:54:41Z</time></trkpt><trkpt lat="38.46318153095711" lon="16.424199787726824"><ele>798.0</ele><time>2026-05-03T11:54:42Z</time></trkpt><trkpt lat="38.463141227327974" lon="16.424035345213795"><ele>797.5</ele><time>2026-05-03T11:54:43Z</time></trkpt><trkpt lat="38.46314037580625" lon="16.423873480917297"><ele>797.0</ele><time>2026-05-03T11:54:44Z</time></trkpt><trkpt lat="38.46317239551369" lon="16.423707210218218"><ele>801.75</ele><time>2026-05-03T11:54:45Z</time></trkpt><trkpt lat="38.46321082715716" lon="16.42357706071758"><ele>806.5</ele><time>2026-05-03T11:54:46Z</time></trkpt><trkpt lat="38.46327067986758" lon="16.42347583987115"><ele>811.25</ele><time>2026-05-03T11:54:47Z</time></trkpt><trkpt lat="38.4633765273535" lon="16.423405835815334"><ele>816.0</ele><time>2026-05-03T11:54:48Z</time></trkpt><trkpt lat="38.4635052694027" lon="16.42335459053182"><ele>816.0</ele><time>2026-05-03T11:54:49Z</time></trkpt><trkpt lat="38.46363294432755" lon="16.423305609951257"><ele>816.0</ele><time>2026-05-03T11:54:50Z</time></trkpt><trkpt lat="38.463765974596306" lon="16.423297807087412"><ele>816.0</ele><time>2026-05-03T11:54:51Z</time></trkpt><trkpt lat="38.46390682468472" lon="16.42334480857918"><ele>816.0</ele><time>2026-05-03T11:54:52Z</time></trkpt><trkpt lat="38.46404820555038" lon="16.42342939930127"><ele>814.25</ele><time>2026-05-03T11:54:53Z</time></trkpt><trkpt lat="38.46416906655905" lon="16.423520031531606"><ele>812.5</ele><time>2026-05-03T11:54:54Z</time></trkpt><trkpt lat="38.46428747004754" lon="16.423607552567983"><ele>810.75</ele><time>2026-05-03T11:54:55Z</time></trkpt><trkpt lat="38.46443456372025" lon="16.423649990586547"><ele>809.0</ele><time>2026-05-03T11:54:56Z</time></trkpt><trkpt lat="38.46460080552984" lon="16.423671889970866"><ele>809.6666666666667</ele><time>2026-05-03T11:54:57Z</time></trkpt><trkpt lat="38.4647815431589" lon="16.42368289126676"><ele>810.3333333333333</ele><time>2026-05-03T11:54:58Z</time></trkpt><trkpt lat="38.464987257889284" lon="16.42367421092695"><ele>811.0</ele><time>2026-05-03T11:54:59Z</time></trkpt><trkpt lat="38.46519028884065" lon="16.423650295703446"><ele>811.0</ele><time>2026-05-03T11:55:00Z</time></trkpt><trkpt lat="38.46536203923765" lon="16.423627009536347"><ele>811.0</ele><time>2026-05-03T11:55:01Z</time></trkpt><trkpt lat="38.465506943739314" lon="16.42360767970286"><ele>811.0</ele><time>2026-05-03T11:55:02Z</time></trkpt><trkpt lat="38.46564616625912" lon="16.42361312561805"><ele>814.3333333333333</ele><time>2026-05-03T11:55:03Z</time></trkpt><trkpt lat="38.465778775887415" lon="16.423675375653097"><ele>817.6666666666667</ele><time>2026-05-03T11:55:04Z</time></trkpt><trkpt lat="38.46589966756775" lon="16.42381041571909"><ele>821.0</ele><time>2026-05-03T11:55:05Z</time></trkpt><trkpt lat="38.46603722664804" lon="16.423938228173043"><ele>815.6666666666667</ele><time>2026-05-03T11:55:06.001Z</time></trkpt><trkpt lat="38.46620342730681" lon="16.424041709318715"><ele>810.3333333333333</ele><time>2026-05-03T11:55:07.001Z</time></trkpt><trkpt lat="38.466376343842455" lon="16.42412518773808"><ele>805.0</ele><time>2026-05-03T11:55:08.001Z</time></trkpt><trkpt lat="38.466538195663496" lon="16.424196357576246"><ele>805.0</ele><time>2026-05-03T11:55:09.001Z</time></trkpt><trkpt lat="38.466683690222766" lon="16.424268136404798"><ele>805.0</ele><time>2026-05-03T11:55:10.001Z</time></trkpt><trkpt lat="38.46682385119476" lon="16.42433528183199"><ele>805.0</ele><time>2026-05-03T11:55:11.001Z</time></trkpt><trkpt lat="38.46696159070337" lon="16.42440779998046"><ele>805.0</ele><time>2026-05-03T11:55:12.001Z</time></trkpt><trkpt lat="38.467074850683794" lon="16.42447890727589"><ele>805.0</ele><time>2026-05-03T11:55:13.001Z</time></trkpt><trkpt lat="38.467176419872914" lon="16.42453565763638"><ele>805.0</ele><time>2026-05-03T11:55:14.001Z</time></trkpt><trkpt lat="38.46727384556701" lon="16.424584768720855"><ele>805.0</ele><time>2026-05-03T11:55:15.001Z</time></trkpt><trkpt lat="38.46737673119589" lon="16.424618253278975"><ele>805.0</ele><time>2026-05-03T11:55:16.001Z</time></trkpt><trkpt lat="38.467486418420265" lon="16.42461729660705"><ele>805.0</ele><time>2026-05-03T11:55:17.001Z</time></trkpt><trkpt lat="38.46758422172934" lon="16.424540468851"><ele>805.0</ele><time>2026-05-03T11:55:18.001Z</time></trkpt><trkpt lat="38.46765272713187" lon="16.424394032198837"><ele>805.0</ele><time>2026-05-03T11:55:19.001Z</time></trkpt><trkpt lat="38.46766819636276" lon="16.42421592006775"><ele>805.0</ele><time>2026-05-03T11:55:20.001Z</time></trkpt><trkpt lat="38.46763934629122" lon="16.42402753637201"><ele>805.0</ele><time>2026-05-03T11:55:21.001Z</time></trkpt><trkpt lat="38.467594418877866" lon="16.42387405888307"><ele>805.0</ele><time>2026-05-03T11:55:22.001Z</time></trkpt><trkpt lat="38.467559061317466" lon="16.423763090174845"><ele>805.0</ele><time>2026-05-03T11:55:23.001Z</time></trkpt><trkpt lat="38.467555430559315" lon="16.423660963655227"><ele>805.0</ele><time>2026-05-03T11:55:24.001Z</time></trkpt><trkpt lat="38.467575431670134" lon="16.423556477850198"><ele>805.0</ele><time>2026-05-03T11:55:25.001Z</time></trkpt><trkpt lat="38.46760503356925" lon="16.423444220419107"><ele>809.75</ele><time>2026-05-03T11:55:26.001Z</time></trkpt><trkpt lat="38.46763624544231" lon="16.42332941075131"><ele>814.5</ele><time>2026-05-03T11:55:27.001Z</time></trkpt><trkpt lat="38.46768306374044" lon="16.42317651457607"><ele>819.25</ele><time>2026-05-03T11:55:28.001Z</time></trkpt><trkpt lat="38.46772077066312" lon="16.422991448275408"><ele>824.0</ele><time>2026-05-03T11:55:29.001Z</time></trkpt><trkpt lat="38.46773726686247" lon="16.422773222293525"><ele>828.0</ele><time>2026-05-03T11:55:30.001Z</time></trkpt><trkpt lat="38.46775767711551" lon="16.422517802763156"><ele>832.0</ele><time>2026-05-03T11:55:31.001Z</time></trkpt><trkpt lat="38.467767993109035" lon="16.422349583798866"><ele>836.0</ele><time>2026-05-03T11:55:32.001Z</time></trkpt><trkpt lat="38.467810507026776" lon="16.42214022269745"><ele>836.5</ele><time>2026-05-03T11:55:33.001Z</time></trkpt><trkpt lat="38.46787574050639" lon="16.42196592870986"><ele>837.0</ele><time>2026-05-03T11:55:34.001Z</time></trkpt><trkpt lat="38.467942376267565" lon="16.42182471926263"><ele>837.5</ele><time>2026-05-03T11:55:35.001Z</time></trkpt><trkpt lat="38.46798328366701" lon="16.42165615993691"><ele>838.0</ele><time>2026-05-03T11:55:36.001Z</time></trkpt><trkpt lat="38.468000176845756" lon="16.42150246370661"><ele>837.25</ele><time>2026-05-03T11:55:37.001Z</time></trkpt><trkpt lat="38.46795622984385" lon="16.421330310328564"><ele>836.5</ele><time>2026-05-03T11:55:38.001Z</time></trkpt><trkpt lat="38.46786427213679" lon="16.421176386816402"><ele>835.75</ele><time>2026-05-03T11:55:39.001Z</time></trkpt><trkpt lat="38.46780462232998" lon="16.42102526851905"><ele>835.0</ele><time>2026-05-03T11:55:40.001Z</time></trkpt><trkpt lat="38.4678133255016" lon="16.42084595347021"><ele>835.0</ele><time>2026-05-03T11:55:41.001Z</time></trkpt><trkpt lat="38.46782591485391" lon="16.420669219954153"><ele>835.0</ele><time>2026-05-03T11:55:42.001Z</time></trkpt><trkpt lat="38.46780403224209" lon="16.420534383016214"><ele>835.0</ele><time>2026-05-03T11:55:43.001Z</time></trkpt><trkpt lat="38.4677261021233" lon="16.420425472571694"><ele>835.0</ele><time>2026-05-03T11:55:44.001Z</time></trkpt><trkpt lat="38.467613389472575" lon="16.420340198961267"><ele>834.2</ele><time>2026-05-03T11:55:45.002Z</time></trkpt><trkpt lat="38.46750178756001" lon="16.420244567201554"><ele>833.4</ele><time>2026-05-03T11:55:46.002Z</time></trkpt><trkpt lat="38.46740928867732" lon="16.42014047386772"><ele>832.5999999999999</ele><time>2026-05-03T11:55:47.002Z</time></trkpt><trkpt lat="38.46733790552979" lon="16.420051603798104"><ele>831.8</ele><time>2026-05-03T11:55:48.002Z</time></trkpt><trkpt lat="38.467321847755386" lon="16.419959060323606"><ele>831.0</ele><time>2026-05-03T11:55:49.002Z</time></trkpt><trkpt lat="38.467347426918884" lon="16.419846417897485"><ele>831.0</ele><time>2026-05-03T11:55:50.002Z</time></trkpt><trkpt lat="38.46740723925211" lon="16.419764524345908"><ele>831.0</ele><time>2026-05-03T11:55:51.002Z</time></trkpt><trkpt lat="38.46752394824216" lon="16.41973015798185"><ele>831.0</ele><time>2026-05-03T11:55:52.002Z</time></trkpt><trkpt lat="38.46762513062933" lon="16.419705865675468"><ele>831.0</ele><time>2026-05-03T11:55:53.002Z</time></trkpt><trkpt lat="38.467723478084146" lon="16.419595872584928"><ele>831.0</ele><time>2026-05-03T11:55:54.002Z</time></trkpt><trkpt lat="38.46777725414626" lon="16.41944863526138"><ele>833.5999999999999</ele><time>2026-05-03T11:55:55.002Z</time></trkpt><trkpt lat="38.46778499068473" lon="16.419258666942746"><ele>836.2</ele><time>2026-05-03T11:55:56.002Z</time></trkpt><trkpt lat="38.46774790355094" lon="16.41912634878551"><ele>838.8</ele><time>2026-05-03T11:55:57.002Z</time></trkpt><trkpt lat="38.46775818607005" lon="16.419022740593856"><ele>841.4000000000001</ele><time>2026-05-03T11:55:58.002Z</time></trkpt><trkpt lat="38.46781610526968" lon="16.418934470974033"><ele>844.0</ele><time>2026-05-03T11:55:59.002Z</time></trkpt><trkpt lat="38.46791133940535" lon="16.418892677631952"><ele>836.25</ele><time>2026-05-03T11:56:00.002Z</time></trkpt><trkpt lat="38.46802908547879" lon="16.41886719325028"><ele>828.5</ele><time>2026-05-03T11:56:01.002Z</time></trkpt><trkpt lat="38.46812701504501" lon="16.41877366046442"><ele>820.75</ele><time>2026-05-03T11:56:02.002Z</time></trkpt><trkpt lat="38.468139155379575" lon="16.418654139497956"><ele>813.0</ele><time>2026-05-03T11:56:03.002Z</time></trkpt><trkpt lat="38.468119126807984" lon="16.418506431483113"><ele>813.0</ele><time>2026-05-03T11:56:04.002Z</time></trkpt><trkpt lat="38.468058900287055" lon="16.41832429909028"><ele>813.0</ele><time>2026-05-03T11:56:05.002Z</time></trkpt><trkpt lat="38.468003466048366" lon="16.418117272888757"><ele>813.0</ele><time>2026-05-03T11:56:06.002Z</time></trkpt><trkpt lat="38.467977453754024" lon="16.41788926082367"><ele>815.75</ele><time>2026-05-03T11:56:07.002Z</time></trkpt><trkpt lat="38.467999857983" lon="16.417676142777584"><ele>818.5</ele><time>2026-05-03T11:56:08.002Z</time></trkpt><trkpt lat="38.46797194554367" lon="16.41748214867289"><ele>821.25</ele><time>2026-05-03T11:56:09.002Z</time></trkpt><trkpt lat="38.46790891261287" lon="16.417474389371215"><ele>824.0</ele><time>2026-05-03T11:56:10.002Z</time></trkpt><trkpt lat="38.46782178811972" lon="16.417384261399175"><ele>827.8000000000001</ele><time>2026-05-03T11:56:11.002Z</time></trkpt><trkpt lat="38.46777167923137" lon="16.41729341543135"><ele>831.6</ele><time>2026-05-03T11:56:12.002Z</time></trkpt><trkpt lat="38.46778504662465" lon="16.41718650601909"><ele>835.4</ele><time>2026-05-03T11:56:13.002Z</time></trkpt><trkpt lat="38.46785158903964" lon="16.417102592811556"><ele>839.2</ele><time>2026-05-03T11:56:14.002Z</time></trkpt><trkpt lat="38.467949994484904" lon="16.417100269354847"><ele>843.0</ele><time>2026-05-03T11:56:15.002Z</time></trkpt><trkpt lat="38.4680760224495" lon="16.417085466468244"><ele>843.0</ele><time>2026-05-03T11:56:16.002Z</time></trkpt><trkpt lat="38.468174937506305" lon="16.417001553614526"><ele>843.0</ele><time>2026-05-03T11:56:17.002Z</time></trkpt><trkpt lat="38.46826208385375" lon="16.416811173211958"><ele>843.0</ele><time>2026-05-03T11:56:18.002Z</time></trkpt><trkpt lat="38.468367999463894" lon="16.416627439399498"><ele>843.0</ele><time>2026-05-03T11:56:19.002Z</time></trkpt><trkpt lat="38.46848192392152" lon="16.41648173503439"><ele>843.0</ele><time>2026-05-03T11:56:20.002Z</time></trkpt><trkpt lat="38.46856453449621" lon="16.41630791133461"><ele>843.0</ele><time>2026-05-03T11:56:21.002Z</time></trkpt><trkpt lat="38.46859958215529" lon="16.4161098127081"><ele>846.3333333333333</ele><time>2026-05-03T11:56:22.002Z</time></trkpt><trkpt lat="38.468586629657366" lon="16.41590609892263"><ele>849.6666666666666</ele><time>2026-05-03T11:56:23.002Z</time></trkpt><trkpt lat="38.46853005162386" lon="16.415715890910086"><ele>853.0</ele><time>2026-05-03T11:56:24.002Z</time></trkpt><trkpt lat="38.46844583096454" lon="16.415552370282086"><ele>854.4</ele><time>2026-05-03T11:56:25.003Z</time></trkpt><trkpt lat="38.4683823326321" lon="16.41543837346054"><ele>855.8</ele><time>2026-05-03T11:56:26.003Z</time></trkpt><trkpt lat="38.46829370722331" lon="16.415357440043923"><ele>857.2</ele><time>2026-05-03T11:56:27.003Z</time></trkpt><trkpt lat="38.46825150366413" lon="16.415270448892215"><ele>858.6</ele><time>2026-05-03T11:56:28.003Z</time></trkpt><trkpt lat="38.468269603300214" lon="16.415147517945964"><ele>860.0</ele><time>2026-05-03T11:56:29.003Z</time></trkpt><trkpt lat="38.46835448463821" lon="16.415027907371613"><ele>860.0</ele><time>2026-05-03T11:56:30.003Z</time></trkpt><trkpt lat="38.468468593202424" lon="16.414900639174892"><ele>860.0</ele><time>2026-05-03T11:56:31.003Z</time></trkpt><trkpt lat="38.468596014973116" lon="16.414770736454805"><ele>860.0</ele><time>2026-05-03T11:56:32.003Z</time></trkpt><trkpt lat="38.46880584235534" lon="16.414676458735986"><ele>860.25</ele><time>2026-05-03T11:56:33.003Z</time></trkpt><trkpt lat="38.4689781514444" lon="16.414587302881955"><ele>860.5</ele><time>2026-05-03T11:56:34.001Z</time></trkpt><trkpt lat="38.46910185279675" lon="16.414519828612278"><ele>860.75</ele><time>2026-05-03T11:56:35.001Z</time></trkpt><trkpt lat="38.46921228481849" lon="16.41445605409157"><ele>861.0</ele><time>2026-05-03T11:56:36.001Z</time></trkpt><trkpt lat="38.46928686040114" lon="16.4143527817096"><ele>861.0</ele><time>2026-05-03T11:56:37.001Z</time></trkpt><trkpt lat="38.4693244589459" lon="16.414182427313456"><ele>861.0</ele><time>2026-05-03T11:56:38.001Z</time></trkpt><trkpt lat="38.46931541475064" lon="16.413955931010662"><ele>861.0</ele><time>2026-05-03T11:56:39.001Z</time></trkpt><trkpt lat="38.46927983914882" lon="16.41375532100314"><ele>859.0</ele><time>2026-05-03T11:56:40.001Z</time></trkpt><trkpt lat="38.469188808688386" lon="16.413563143462824"><ele>857.0</ele><time>2026-05-03T11:56:41.001Z</time></trkpt><trkpt lat="38.469055958616266" lon="16.413384028061657"><ele>855.0</ele><time>2026-05-03T11:56:42.001Z</time></trkpt><trkpt lat="38.46890225355017" lon="16.413246810379878"><ele>861.75</ele><time>2026-05-03T11:56:43.001Z</time></trkpt><trkpt lat="38.46874111927403" lon="16.413176932902903"><ele>868.5</ele><time>2026-05-03T11:56:44.001Z</time></trkpt><trkpt lat="38.468622909761926" lon="16.41312816806059"><ele>875.25</ele><time>2026-05-03T11:56:45.001Z</time></trkpt><trkpt lat="38.46853743497866" lon="16.413054230712874"><ele>882.0</ele><time>2026-05-03T11:56:46.001Z</time></trkpt><trkpt lat="38.46849586179387" lon="16.412947328879778"><ele>882.0</ele><time>2026-05-03T11:56:47.001Z</time></trkpt><trkpt lat="38.468496745442536" lon="16.41282170589409"><ele>882.0</ele><time>2026-05-03T11:56:48.001Z</time></trkpt><trkpt lat="38.46854025106161" lon="16.41271333363113"><ele>882.0</ele><time>2026-05-03T11:56:49.001Z</time></trkpt><trkpt lat="38.468683869734846" lon="16.412624548250804"><ele>882.0</ele><time>2026-05-03T11:56:50.001Z</time></trkpt><trkpt lat="38.46879429362324" lon="16.41251944991868"><ele>881.0</ele><time>2026-05-03T11:56:51.001Z</time></trkpt><trkpt lat="38.46885078922063" lon="16.412398651421952"><ele>880.0</ele><time>2026-05-03T11:56:52.001Z</time></trkpt><trkpt lat="38.46882758462289" lon="16.412251405386442"><ele>879.0</ele><time>2026-05-03T11:56:53.001Z</time></trkpt><trkpt lat="38.46874220768098" lon="16.41213773635077"><ele>878.0</ele><time>2026-05-03T11:56:54.001Z</time></trkpt><trkpt lat="38.468620136478464" lon="16.412080328509674"><ele>878.0</ele><time>2026-05-03T11:56:55.001Z</time></trkpt><trkpt lat="38.468489951593526" lon="16.412053975867657"><ele>878.0</ele><time>2026-05-03T11:56:56.001Z</time></trkpt><trkpt lat="38.468407086332455" lon="16.41200498613194"><ele>878.0</ele><time>2026-05-03T11:56:57.001Z</time></trkpt><trkpt lat="38.46838200991709" lon="16.41189759220023"><ele>878.0</ele><time>2026-05-03T11:56:58.001Z</time></trkpt><trkpt lat="38.46840931704018" lon="16.411758110038267"><ele>878.0</ele><time>2026-05-03T11:56:59.001Z</time></trkpt><trkpt lat="38.468458348995824" lon="16.41159965698903"><ele>878.0</ele><time>2026-05-03T11:57:00.001Z</time></trkpt><trkpt lat="38.468448567901" lon="16.411437335547724"><ele>878.0</ele><time>2026-05-03T11:57:01.001Z</time></trkpt><trkpt lat="38.468392625472646" lon="16.41128190045347"><ele>878.0</ele><time>2026-05-03T11:57:02.001Z</time></trkpt><trkpt lat="38.468289008925346" lon="16.41112085395893"><ele>878.0</ele><time>2026-05-03T11:57:03.001Z</time></trkpt><trkpt lat="38.46820643980094" lon="16.410958438556396"><ele>875.75</ele><time>2026-05-03T11:57:04.001Z</time></trkpt><trkpt lat="38.468147598395625" lon="16.41081016824985"><ele>873.5</ele><time>2026-05-03T11:57:05.001Z</time></trkpt><trkpt lat="38.468107587360244" lon="16.41066351458856"><ele>871.25</ele><time>2026-05-03T11:57:06.001Z</time></trkpt><trkpt lat="38.468111921845114" lon="16.410496339292514"><ele>869.0</ele><time>2026-05-03T11:57:07.001Z</time></trkpt><trkpt lat="38.46814362621728" lon="16.410312532511522"><ele>867.3333333333334</ele><time>2026-05-03T11:57:08.001Z</time></trkpt><trkpt lat="38.46824520244638" lon="16.41011820605352"><ele>865.6666666666667</ele><time>2026-05-03T11:57:09.001Z</time></trkpt><trkpt lat="38.46832717656935" lon="16.409962042268315"><ele>864.0</ele><time>2026-05-03T11:57:10.001Z</time></trkpt><trkpt lat="38.468376195225424" lon="16.40977994174778"><ele>864.0</ele><time>2026-05-03T11:57:11.001Z</time></trkpt><trkpt lat="38.46837884315389" lon="16.409565872825883"><ele>864.0</ele><time>2026-05-03T11:57:12.001Z</time></trkpt><trkpt lat="38.46837617601181" lon="16.409369118337477"><ele>864.0</ele><time>2026-05-03T11:57:13.001Z</time></trkpt><trkpt lat="38.46845878216768" lon="16.409176858362144"><ele>864.0</ele><time>2026-05-03T11:57:14.001Z</time></trkpt><trkpt lat="38.468573678212266" lon="16.409003472663095"><ele>864.0</ele><time>2026-05-03T11:57:15.001Z</time></trkpt><trkpt lat="38.46870255602534" lon="16.408808318319227"><ele>864.0</ele><time>2026-05-03T11:57:16.001Z</time></trkpt><trkpt lat="38.46882215323356" lon="16.40861020483259"><ele>871.3333333333333</ele><time>2026-05-03T11:57:17.001Z</time></trkpt><trkpt lat="38.46894225804741" lon="16.408437976283423"><ele>878.6666666666666</ele><time>2026-05-03T11:57:18.001Z</time></trkpt><trkpt lat="38.469059851178" lon="16.408301193607624"><ele>886.0</ele><time>2026-05-03T11:57:19.001Z</time></trkpt><trkpt lat="38.4691696180083" lon="16.4081891250337"><ele>886.0</ele><time>2026-05-03T11:57:20.001Z</time></trkpt><trkpt lat="38.46929894468462" lon="16.40809946966465"><ele>886.0</ele><time>2026-05-03T11:57:21.001Z</time></trkpt><trkpt lat="38.46947575125325" lon="16.408052910281377"><ele>886.0</ele><time>2026-05-03T11:57:22.001Z</time></trkpt><trkpt lat="38.46966594922895" lon="16.408016119178743"><ele>893.6666666666666</ele><time>2026-05-03T11:57:23.001Z</time></trkpt><trkpt lat="38.46985963679132" lon="16.40796825506964"><ele>901.3333333333333</ele><time>2026-05-03T11:57:24.001Z</time></trkpt><trkpt lat="38.47002609330077" lon="16.407914504116846"><ele>909.0</ele><time>2026-05-03T11:57:25.001Z</time></trkpt><trkpt lat="38.470156660445" lon="16.407868506578257"><ele>909.0</ele><time>2026-05-03T11:57:26.001Z</time></trkpt><trkpt lat="38.47027498607695" lon="16.407823304494652"><ele>909.0</ele><time>2026-05-03T11:57:27.001Z</time></trkpt><trkpt lat="38.47037150098614" lon="16.407745226326778"><ele>909.0</ele><time>2026-05-03T11:57:28.001Z</time></trkpt><trkpt lat="38.47043972238617" lon="16.407617161901097"><ele>909.0</ele><time>2026-05-03T11:57:29.001Z</time></trkpt><trkpt lat="38.47045322903081" lon="16.407429865729647"><ele>909.0</ele><time>2026-05-03T11:57:30.001Z</time></trkpt><trkpt lat="38.47042841392667" lon="16.40723764341564"><ele>909.0</ele><time>2026-05-03T11:57:31.001Z</time></trkpt><trkpt lat="38.47043725761641" lon="16.407096302886746"><ele>909.0</ele><time>2026-05-03T11:57:32.001Z</time></trkpt><trkpt lat="38.47048115250753" lon="16.40695923849474"><ele>909.0</ele><time>2026-05-03T11:57:33.001Z</time></trkpt><trkpt lat="38.470570518744985" lon="16.406796126130267"><ele>911.3333333333333</ele><time>2026-05-03T11:57:34.001Z</time></trkpt><trkpt lat="38.47066177605844" lon="16.406591930306046"><ele>913.6666666666666</ele><time>2026-05-03T11:57:35.001Z</time></trkpt><trkpt lat="38.47077597869354" lon="16.40642782657653"><ele>916.0</ele><time>2026-05-03T11:57:36.001Z</time></trkpt><trkpt lat="38.47091402808061" lon="16.406315999897327"><ele>916.0</ele><time>2026-05-03T11:57:37.001Z</time></trkpt><trkpt lat="38.47102246998834" lon="16.406214199570147"><ele>915.9999999999999</ele><time>2026-05-03T11:57:38.001Z</time></trkpt><trkpt lat="38.47110339447347" lon="16.40617667701351"><ele>915.9999999999999</ele><time>2026-05-03T11:57:39.001Z</time></trkpt><trkpt lat="38.47118300148005" lon="16.40615716388638"><ele>916.0</ele><time>2026-05-03T11:57:40.001Z</time></trkpt><trkpt lat="38.47124273363215" lon="16.406209364371048"><ele>916.0</ele><time>2026-05-03T11:57:41.001Z</time></trkpt><trkpt lat="38.47122667301311" lon="16.406407516510054"><ele>916.0</ele><time>2026-05-03T11:57:43.001Z</time></trkpt><trkpt lat="38.47111254493093" lon="16.406484967855747"><ele>916.0</ele><time>2026-05-03T11:57:44.002Z</time></trkpt><trkpt lat="38.47102116840903" lon="16.40660112084389"><ele>916.0</ele><time>2026-05-03T11:57:45.002Z</time></trkpt><trkpt lat="38.47094795331896" lon="16.406740997090203"><ele>916.0</ele><time>2026-05-03T11:57:46.002Z</time></trkpt><trkpt lat="38.470924808017344" lon="16.40691320539521"><ele>916.0</ele><time>2026-05-03T11:57:47.002Z</time></trkpt><trkpt lat="38.47092160274895" lon="16.4070575878066"><ele>916.0</ele><time>2026-05-03T11:57:48.002Z</time></trkpt><trkpt lat="38.47097694853269" lon="16.407174141285047"><ele>916.0</ele><time>2026-05-03T11:57:49.002Z</time></trkpt><trkpt lat="38.471047194374016" lon="16.407326209206868"><ele>916.0</ele><time>2026-05-03T11:57:50.002Z</time></trkpt><trkpt lat="38.4711597454797" lon="16.40748854304567"><ele>914.0</ele><time>2026-05-03T11:57:51.002Z</time></trkpt><trkpt lat="38.4712426439826" lon="16.407643398796086"><ele>912.0</ele><time>2026-05-03T11:57:52.002Z</time></trkpt><trkpt lat="38.47136449923443" lon="16.407865444798045"><ele>910.0</ele><time>2026-05-03T11:57:53.002Z</time></trkpt><trkpt lat="38.471449000209105" lon="16.40804411476872"><ele>910.0</ele><time>2026-05-03T11:57:54.002Z</time></trkpt><trkpt lat="38.47154159567399" lon="16.408150921220418"><ele>910.0</ele><time>2026-05-03T11:57:55.002Z</time></trkpt><trkpt lat="38.471637903195756" lon="16.40820853989588"><ele>910.0</ele><time>2026-05-03T11:57:56.002Z</time></trkpt><trkpt lat="38.47174712906635" lon="16.40813435864682"><ele>910.0</ele><time>2026-05-03T11:57:57.002Z</time></trkpt><trkpt lat="38.471855433405665" lon="16.408011518218707"><ele>914.3333333333333</ele><time>2026-05-03T11:57:58.002Z</time></trkpt><trkpt lat="38.471942275209805" lon="16.407840788249043"><ele>918.6666666666667</ele><time>2026-05-03T11:57:59.002Z</time></trkpt><trkpt lat="38.472057156762354" lon="16.407735779750485"><ele>923.0</ele><time>2026-05-03T11:58:00.002Z</time></trkpt><trkpt lat="38.47220204495603" lon="16.407667033328515"><ele>923.0</ele><time>2026-05-03T11:58:01.002Z</time></trkpt><trkpt lat="38.472376326249496" lon="16.407605489517486"><ele>923.0</ele><time>2026-05-03T11:58:02.002Z</time></trkpt><trkpt lat="38.47251891622446" lon="16.407488907317912"><ele>923.0</ele><time>2026-05-03T11:58:03.002Z</time></trkpt><trkpt lat="38.47264601640281" lon="16.407336033438078"><ele>923.0</ele><time>2026-05-03T11:58:04.002Z</time></trkpt><trkpt lat="38.47277871072347" lon="16.407245610819352"><ele>923.0</ele><time>2026-05-03T11:58:05.002Z</time></trkpt><trkpt lat="38.47288416468385" lon="16.407141646928416"><ele>923.0</ele><time>2026-05-03T11:58:06.002Z</time></trkpt><trkpt lat="38.47295297959461" lon="16.40699605847254"><ele>923.0</ele><time>2026-05-03T11:58:07.002Z</time></trkpt><trkpt lat="38.4729181837624" lon="16.40681162517333"><ele>926.75</ele><time>2026-05-03T11:58:08.002Z</time></trkpt><trkpt lat="38.47292603101794" lon="16.406685458817673"><ele>930.5</ele><time>2026-05-03T11:58:09.002Z</time></trkpt><trkpt lat="38.47298365004827" lon="16.40654244280429"><ele>934.25</ele><time>2026-05-03T11:58:11.002Z</time></trkpt><trkpt lat="38.47309141761507" lon="16.406589927871536"><ele>938.0</ele><time>2026-05-03T11:58:12.002Z</time></trkpt><trkpt lat="38.473216687512945" lon="16.40664062248776"><ele>938.0</ele><time>2026-05-03T11:58:13.002Z</time></trkpt><trkpt lat="38.47338762474877" lon="16.406720075000162"><ele>938.0</ele><time>2026-05-03T11:58:14.002Z</time></trkpt><trkpt lat="38.47355622246084" lon="16.406778644182445"><ele>938.0</ele><time>2026-05-03T11:58:15.002Z</time></trkpt><trkpt lat="38.47368345333923" lon="16.40680392239831"><ele>937.0</ele><time>2026-05-03T11:58:16.002Z</time></trkpt><trkpt lat="38.47377280260159" lon="16.40683567406929"><ele>936.0</ele><time>2026-05-03T11:58:17.002Z</time></trkpt><trkpt lat="38.4738231365678" lon="16.40690854013943"><ele>935.0</ele><time>2026-05-03T11:58:18.002Z</time></trkpt><trkpt lat="38.47382351919824" lon="16.407038914707343"><ele>934.0</ele><time>2026-05-03T11:58:19.002Z</time></trkpt><trkpt lat="38.47377210627859" lon="16.407143793488476"><ele>933.0</ele><time>2026-05-03T11:58:20.002Z</time></trkpt><trkpt lat="38.47366193016636" lon="16.407160854304248"><ele>933.0</ele><time>2026-05-03T11:58:21.002Z</time></trkpt><trkpt lat="38.47354186219643" lon="16.407219283969173"><ele>933.0</ele><time>2026-05-03T11:58:22.002Z</time></trkpt><trkpt lat="38.47343520152912" lon="16.407303867221486"><ele>933.0</ele><time>2026-05-03T11:58:23.003Z</time></trkpt><trkpt lat="38.473397825541454" lon="16.40749166454396"><ele>933.0</ele><time>2026-05-03T11:58:24.003Z</time></trkpt><trkpt lat="38.473346645969436" lon="16.40769819074777"><ele>933.0</ele><time>2026-05-03T11:58:25.003Z</time></trkpt><trkpt lat="38.47332406327147" lon="16.407940681786993"><ele>933.0</ele><time>2026-05-03T11:58:26.003Z</time></trkpt><trkpt lat="38.473294116291115" lon="16.408147582492973"><ele>933.0</ele><time>2026-05-03T11:58:27.003Z</time></trkpt><trkpt lat="38.47327872816082" lon="16.408342818316076"><ele>933.75</ele><time>2026-05-03T11:58:28.003Z</time></trkpt><trkpt lat="38.473321481426225" lon="16.408518944767582"><ele>934.5</ele><time>2026-05-03T11:58:29.003Z</time></trkpt><trkpt lat="38.47340078986662" lon="16.40865240749187"><ele>935.25</ele><time>2026-05-03T11:58:30.003Z</time></trkpt><trkpt lat="38.47351278844932" lon="16.408719444303976"><ele>936.0</ele><time>2026-05-03T11:58:31.003Z</time></trkpt><trkpt lat="38.473655590809834" lon="16.40877787645735"><ele>939.5</ele><time>2026-05-03T11:58:32.003Z</time></trkpt><trkpt lat="38.47380692523578" lon="16.40880929078014"><ele>943.0</ele><time>2026-05-03T11:58:33.003Z</time></trkpt><trkpt lat="38.473929786934775" lon="16.40880983573182"><ele>946.5</ele><time>2026-05-03T11:58:34.003Z</time></trkpt><trkpt lat="38.47405706578427" lon="16.408733394168838"><ele>950.0</ele><time>2026-05-03T11:58:35.003Z</time></trkpt><trkpt lat="38.47416825740996" lon="16.408585223393743"><ele>950.0</ele><time>2026-05-03T11:58:36.003Z</time></trkpt><trkpt lat="38.474269743461264" lon="16.408418402325275"><ele>950.0</ele><time>2026-05-03T11:58:37.003Z</time></trkpt><trkpt lat="38.47432893982307" lon="16.408246306396897"><ele>950.0</ele><time>2026-05-03T11:58:38.003Z</time></trkpt><trkpt lat="38.47433716878359" lon="16.40806738231075"><ele>949.75</ele><time>2026-05-03T11:58:39.003Z</time></trkpt><trkpt lat="38.47434508505274" lon="16.407888978755963"><ele>949.5</ele><time>2026-05-03T11:58:40.001Z</time></trkpt><trkpt lat="38.47436490486622" lon="16.40770588582308"><ele>949.25</ele><time>2026-05-03T11:58:41.001Z</time></trkpt><trkpt lat="38.47439606018581" lon="16.407528277111037"><ele>949.0</ele><time>2026-05-03T11:58:42.001Z</time></trkpt><trkpt lat="38.47442968760674" lon="16.407319940654748"><ele>949.0</ele><time>2026-05-03T11:58:43.001Z</time></trkpt><trkpt lat="38.47453110065752" lon="16.407162080819557"><ele>949.0</ele><time>2026-05-03T11:58:44.001Z</time></trkpt><trkpt lat="38.47464734299178" lon="16.406992360664592"><ele>949.0</ele><time>2026-05-03T11:58:45.001Z</time></trkpt><trkpt lat="38.47476150444416" lon="16.406816941593863"><ele>951.5</ele><time>2026-05-03T11:58:46.001Z</time></trkpt><trkpt lat="38.47488553558171" lon="16.406675395419988"><ele>954.0</ele><time>2026-05-03T11:58:47.001Z</time></trkpt><trkpt lat="38.474985479673855" lon="16.406540173569233"><ele>956.5</ele><time>2026-05-03T11:58:48.001Z</time></trkpt><trkpt lat="38.475057788595834" lon="16.406411269899912"><ele>959.0</ele><time>2026-05-03T11:58:49.001Z</time></trkpt><trkpt lat="38.47506108412912" lon="16.406271661887608"><ele>960.5</ele><time>2026-05-03T11:58:50.001Z</time></trkpt><trkpt lat="38.47501278451833" lon="16.406126419860442"><ele>962.0</ele><time>2026-05-03T11:58:51.001Z</time></trkpt><trkpt lat="38.474914987101734" lon="16.406000438677612"><ele>963.5</ele><time>2026-05-03T11:58:52.001Z</time></trkpt><trkpt lat="38.47477923280629" lon="16.40589060780772"><ele>965.0</ele><time>2026-05-03T11:58:53.001Z</time></trkpt><trkpt lat="38.474631275392085" lon="16.40581379321136"><ele>964.2</ele><time>2026-05-03T11:58:54.001Z</time></trkpt><trkpt lat="38.474523875406184" lon="16.405724131495152"><ele>963.4</ele><time>2026-05-03T11:58:55.001Z</time></trkpt><trkpt lat="38.47446534398034" lon="16.405616561152293"><ele>962.5999999999999</ele><time>2026-05-03T11:58:56.001Z</time></trkpt><trkpt lat="38.47444515104291" lon="16.405500585998976"><ele>961.8</ele><time>2026-05-03T11:58:57.001Z</time></trkpt><trkpt lat="38.47442903801578" lon="16.40538535398421"><ele>961.0</ele><time>2026-05-03T11:58:58.001Z</time></trkpt><trkpt lat="38.47437184402742" lon="16.405291043147166"><ele>961.0</ele><time>2026-05-03T11:58:59.001Z</time></trkpt><trkpt lat="38.47424241198369" lon="16.40525906730814"><ele>961.0</ele><time>2026-05-03T11:59:00.001Z</time></trkpt><trkpt lat="38.474112150321695" lon="16.405350601625234"><ele>961.0</ele><time>2026-05-03T11:59:01.001Z</time></trkpt><trkpt lat="38.47403840709157" lon="16.40551601635091"><ele>961.0</ele><time>2026-05-03T11:59:02.001Z</time></trkpt><trkpt lat="38.47399538188221" lon="16.405696494189304"><ele>961.0</ele><time>2026-05-03T11:59:03.001Z</time></trkpt><trkpt lat="38.47396661858005" lon="16.405887046727088"><ele>960.9999999999999</ele><time>2026-05-03T11:59:04.001Z</time></trkpt><trkpt lat="38.47389052221491" lon="16.40600368026833"><ele>960.9999999999999</ele><time>2026-05-03T11:59:05.001Z</time></trkpt><trkpt lat="38.473825176204876" lon="16.40607995895894"><ele>961.0</ele><time>2026-05-03T11:59:06.001Z</time></trkpt><trkpt lat="38.47376203447111" lon="16.4060835676029"><ele>961.0</ele><time>2026-05-03T11:59:07.001Z</time></trkpt><trkpt lat="38.47368333336364" lon="16.40600764847342"><ele>961.1999999999999</ele><time>2026-05-03T11:59:08.001Z</time></trkpt><trkpt lat="38.473615302406174" lon="16.405879820924174"><ele>961.3999999999999</ele><time>2026-05-03T11:59:09.001Z</time></trkpt><trkpt lat="38.47356685722924" lon="16.405758592890525"><ele>961.6</ele><time>2026-05-03T11:59:10.001Z</time></trkpt><trkpt lat="38.473563439493695" lon="16.405632466463697"><ele>961.8</ele><time>2026-05-03T11:59:11.001Z</time></trkpt><trkpt lat="38.47358187208084" lon="16.40551349710096"><ele>962.0</ele><time>2026-05-03T11:59:12.001Z</time></trkpt><trkpt lat="38.47366246435437" lon="16.405389104627567"><ele>962.0</ele><time>2026-05-03T11:59:13.001Z</time></trkpt><trkpt lat="38.473765879786434" lon="16.405275042549505"><ele>962.0</ele><time>2026-05-03T11:59:14.001Z</time></trkpt><trkpt lat="38.47388389742033" lon="16.40509638881379"><ele>962.0</ele><time>2026-05-03T11:59:15.001Z</time></trkpt><trkpt lat="38.47394343853196" lon="16.40488416588488"><ele>967.0</ele><time>2026-05-03T11:59:16.001Z</time></trkpt><trkpt lat="38.473986972639594" lon="16.40465131259646"><ele>972.0</ele><time>2026-05-03T11:59:17.001Z</time></trkpt><trkpt lat="38.474067989311266" lon="16.404432825251423"><ele>977.0</ele><time>2026-05-03T11:59:18.001Z</time></trkpt><trkpt lat="38.474170546356916" lon="16.40426091092465"><ele>977.0</ele><time>2026-05-03T11:59:19.001Z</time></trkpt><trkpt lat="38.47427044292087" lon="16.404094918822302"><ele>977.0</ele><time>2026-05-03T11:59:20.001Z</time></trkpt><trkpt lat="38.474337268606234" lon="16.403908888588393"><ele>977.0</ele><time>2026-05-03T11:59:21.001Z</time></trkpt><trkpt lat="38.474363339402714" lon="16.4037064497702"><ele>978.75</ele><time>2026-05-03T11:59:22.001Z</time></trkpt><trkpt lat="38.47434603257055" lon="16.40352999031423"><ele>980.5</ele><time>2026-05-03T11:59:23.001Z</time></trkpt><trkpt lat="38.474316222930895" lon="16.4033860158689"><ele>982.25</ele><time>2026-05-03T11:59:24.001Z</time></trkpt><trkpt lat="38.47419325022177" lon="16.403292600624873"><ele>984.0</ele><time>2026-05-03T11:59:25.001Z</time></trkpt><trkpt lat="38.47404959890816" lon="16.403235357609663"><ele>984.0</ele><time>2026-05-03T11:59:26.001Z</time></trkpt><trkpt lat="38.47389242096669" lon="16.40322604104873"><ele>984.0</ele><time>2026-05-03T11:59:27.001Z</time></trkpt><trkpt lat="38.47375941817682" lon="16.40316118555587"><ele>984.0</ele><time>2026-05-03T11:59:28.001Z</time></trkpt><trkpt lat="38.47364580963121" lon="16.403079836651052"><ele>984.0</ele><time>2026-05-03T11:59:29.001Z</time></trkpt><trkpt lat="38.47354439335909" lon="16.402966771882564"><ele>983.0</ele><time>2026-05-03T11:59:30.001Z</time></trkpt><trkpt lat="38.47346123651405" lon="16.40282869587758"><ele>982.0</ele><time>2026-05-03T11:59:31.001Z</time></trkpt><trkpt lat="38.47344013464084" lon="16.402681257838836"><ele>981.0</ele><time>2026-05-03T11:59:32.001Z</time></trkpt><trkpt lat="38.47343546305843" lon="16.402532969928345"><ele>980.0</ele><time>2026-05-03T11:59:33.001Z</time></trkpt><trkpt lat="38.4734715962732" lon="16.402340012329987"><ele>980.0</ele><time>2026-05-03T11:59:34.001Z</time></trkpt><trkpt lat="38.47356394671711" lon="16.402195931106757"><ele>980.0</ele><time>2026-05-03T11:59:35.001Z</time></trkpt><trkpt lat="38.47367298963268" lon="16.401993288480607"><ele>980.0</ele><time>2026-05-03T11:59:36.001Z</time></trkpt><trkpt lat="38.473788505055474" lon="16.40177228424602"><ele>982.0</ele><time>2026-05-03T11:59:37.001Z</time></trkpt><trkpt lat="38.47390408822297" lon="16.401546958020507"><ele>984.0</ele><time>2026-05-03T11:59:38.001Z</time></trkpt><trkpt lat="38.47402454698145" lon="16.401317847461023"><ele>986.0</ele><time>2026-05-03T11:59:39.001Z</time></trkpt><trkpt lat="38.47415984668995" lon="16.401098202794962"><ele>986.0</ele><time>2026-05-03T11:59:40.001Z</time></trkpt><trkpt lat="38.474318539648955" lon="16.400859165847482"><ele>986.0</ele><time>2026-05-03T11:59:41.001Z</time></trkpt><trkpt lat="38.47447359032602" lon="16.40062628922768"><ele>992.0</ele><time>2026-05-03T11:59:42.001Z</time></trkpt><trkpt lat="38.474636313398705" lon="16.400399821010474"><ele>998.0</ele><time>2026-05-03T11:59:43.001Z</time></trkpt><trkpt lat="38.47479781719007" lon="16.400188737608214"><ele>998.0</ele><time>2026-05-03T11:59:44.001Z</time></trkpt><trkpt lat="38.474956509098405" lon="16.399988465480476"><ele>998.0</ele><time>2026-05-03T11:59:45.001Z</time></trkpt><trkpt lat="38.47510682121655" lon="16.399800830262834"><ele>998.0</ele><time>2026-05-03T11:59:46.001Z</time></trkpt><trkpt lat="38.47525490704111" lon="16.399619495606142"><ele>996.3333333333334</ele><time>2026-05-03T11:59:47.001Z</time></trkpt><trkpt lat="38.475397012876684" lon="16.39943948193304"><ele>994.6666666666667</ele><time>2026-05-03T11:59:48.002Z</time></trkpt><trkpt lat="38.475528381845486" lon="16.39925370043723"><ele>993.0</ele><time>2026-05-03T11:59:49.002Z</time></trkpt><trkpt lat="38.47561811915576" lon="16.399044070969918"><ele>998.0</ele><time>2026-05-03T11:59:50.002Z</time></trkpt><trkpt lat="38.47566899364903" lon="16.398861020034094"><ele>1003.0</ele><time>2026-05-03T11:59:51.002Z</time></trkpt><trkpt lat="38.47573250305398" lon="16.398719241938046"><ele>1008.0</ele><time>2026-05-03T11:59:52.002Z</time></trkpt><trkpt lat="38.47585707415705" lon="16.3986338128558"><ele>1013.0</ele><time>2026-05-03T11:59:53.002Z</time></trkpt><trkpt lat="38.475988907792434" lon="16.398494463627813"><ele>1013.0</ele><time>2026-05-03T11:59:54.002Z</time></trkpt><trkpt lat="38.4760822455451" lon="16.398362105024603"><ele>1013.0</ele><time>2026-05-03T11:59:55.002Z</time></trkpt><trkpt lat="38.476157567204936" lon="16.39824309816374"><ele>1013.0</ele><time>2026-05-03T11:59:56.002Z</time></trkpt><trkpt lat="38.476195146351124" lon="16.398130636785385"><ele>1013.0</ele><time>2026-05-03T11:59:57.002Z</time></trkpt><trkpt lat="38.47622925046986" lon="16.398022733238424"><ele>1013.0</ele><time>2026-05-03T11:59:58.002Z</time></trkpt><trkpt lat="38.476168412386" lon="16.3978889207324"><ele>1014.25</ele><time>2026-05-03T11:59:59.002Z</time></trkpt><trkpt lat="38.476039848869846" lon="16.397859312388128"><ele>1015.5</ele><time>2026-05-03T12:00:00.002Z</time></trkpt><trkpt lat="38.47591795170841" lon="16.397919542593268"><ele>1016.75</ele><time>2026-05-03T12:00:01.002Z</time></trkpt><trkpt lat="38.47577406770327" lon="16.397960041259783"><ele>1018.0</ele><time>2026-05-03T12:00:02.002Z</time></trkpt><trkpt lat="38.47564007793718" lon="16.397988557816227"><ele>1018.0</ele><time>2026-05-03T12:00:03.002Z</time></trkpt><trkpt lat="38.47551964609576" lon="16.39798196921967"><ele>1018.0</ele><time>2026-05-03T12:00:04.002Z</time></trkpt><trkpt lat="38.475409659328214" lon="16.397933684967978"><ele>1018.0</ele><time>2026-05-03T12:00:05.002Z</time></trkpt><trkpt lat="38.475319361894954" lon="16.397843714409156"><ele>1018.0</ele><time>2026-05-03T12:00:06.002Z</time></trkpt><trkpt lat="38.475276174318424" lon="16.397718462468408"><ele>1018.0</ele><time>2026-05-03T12:00:07.002Z</time></trkpt><trkpt lat="38.47533052036817" lon="16.397576239716926"><ele>1018.0</ele><time>2026-05-03T12:00:08.002Z</time></trkpt><trkpt lat="38.47541661472131" lon="16.39749502040229"><ele>1018.0</ele><time>2026-05-03T12:00:09.002Z</time></trkpt><trkpt lat="38.47550117566808" lon="16.39736272275178"><ele>1018.0</ele><time>2026-05-03T12:00:10.002Z</time></trkpt><trkpt lat="38.475598843761844" lon="16.39720873217422"><ele>1019.3333333333333</ele><time>2026-05-03T12:00:11.002Z</time></trkpt><trkpt lat="38.475695995791206" lon="16.39702245336272"><ele>1020.6666666666667</ele><time>2026-05-03T12:00:12.002Z</time></trkpt><trkpt lat="38.47581896442142" lon="16.396851758705164"><ele>1022.0</ele><time>2026-05-03T12:00:13.002Z</time></trkpt><trkpt lat="38.475939657163735" lon="16.396658454535626"><ele>1022.0</ele><time>2026-05-03T12:00:14.002Z</time></trkpt><trkpt lat="38.47606882321145" lon="16.396460427311823"><ele>1022.0</ele><time>2026-05-03T12:00:15.002Z</time></trkpt><trkpt lat="38.47618874150085" lon="16.396250752039734"><ele>1022.0</ele><time>2026-05-03T12:00:16.002Z</time></trkpt><trkpt lat="38.476321195447" lon="16.396055793464708"><ele>1025.3333333333335</ele><time>2026-05-03T12:00:17.002Z</time></trkpt><trkpt lat="38.47644889652326" lon="16.395838237315946"><ele>1028.6666666666667</ele><time>2026-05-03T12:00:18.002Z</time></trkpt><trkpt lat="38.47655594576801" lon="16.39559964012358"><ele>1032.0</ele><time>2026-05-03T12:00:19.002Z</time></trkpt><trkpt lat="38.47664028822683" lon="16.39532761757161"><ele>1032.0</ele><time>2026-05-03T12:00:20.002Z</time></trkpt><trkpt lat="38.47671423566838" lon="16.39506076546796"><ele>1032.0</ele><time>2026-05-03T12:00:21.002Z</time></trkpt><trkpt lat="38.47680243855122" lon="16.39481904731611"><ele>1032.0</ele><time>2026-05-03T12:00:22.002Z</time></trkpt><trkpt lat="38.47687273821905" lon="16.39459874369842"><ele>1032.0</ele><time>2026-05-03T12:00:23.002Z</time></trkpt><trkpt lat="38.47694989518758" lon="16.394369888667637"><ele>1032.0</ele><time>2026-05-03T12:00:24.002Z</time></trkpt><trkpt lat="38.47705073874956" lon="16.394136398615537"><ele>1032.0</ele><time>2026-05-03T12:00:25.002Z</time></trkpt><trkpt lat="38.47716961017611" lon="16.39390435108046"><ele>1033.0</ele><time>2026-05-03T12:00:26.002Z</time></trkpt><trkpt lat="38.4772840889978" lon="16.393677271291576"><ele>1034.0</ele><time>2026-05-03T12:00:27.002Z</time></trkpt><trkpt lat="38.47740221075056" lon="16.39347404277728"><ele>1035.0</ele><time>2026-05-03T12:00:28.002Z</time></trkpt><trkpt lat="38.47749916387185" lon="16.393289659903218"><ele>1035.0</ele><time>2026-05-03T12:00:29.002Z</time></trkpt><trkpt lat="38.47755859552305" lon="16.39313068789988"><ele>1035.0</ele><time>2026-05-03T12:00:30.002Z</time></trkpt><trkpt lat="38.47755164441302" lon="16.392963900274378"><ele>1035.0</ele><time>2026-05-03T12:00:31.002Z</time></trkpt><trkpt lat="38.47751326329307" lon="16.39280297809896"><ele>1035.0</ele><time>2026-05-03T12:00:32.002Z</time></trkpt><trkpt lat="38.477509763135714" lon="16.392656639628928"><ele>1036.0</ele><time>2026-05-03T12:00:33.002Z</time></trkpt><trkpt lat="38.477561600568635" lon="16.392483719136695"><ele>1037.0</ele><time>2026-05-03T12:00:34.002Z</time></trkpt><trkpt lat="38.477637480625056" lon="16.39227484709638"><ele>1038.0</ele><time>2026-05-03T12:00:35.002Z</time></trkpt><trkpt lat="38.47770467333458" lon="16.39203348099702"><ele>1038.3333333333333</ele><time>2026-05-03T12:00:36.003Z</time></trkpt><trkpt lat="38.47779311185729" lon="16.391800577726414"><ele>1038.6666666666665</ele><time>2026-05-03T12:00:37.003Z</time></trkpt><trkpt lat="38.47787855192063" lon="16.391620000704865"><ele>1039.0</ele><time>2026-05-03T12:00:38.003Z</time></trkpt><trkpt lat="38.47791817897731" lon="16.391437440516214"><ele>1039.25</ele><time>2026-05-03T12:00:39.003Z</time></trkpt><trkpt lat="38.47793626556097" lon="16.39126411839941"><ele>1039.5</ele><time>2026-05-03T12:00:40.003Z</time></trkpt><trkpt lat="38.477854813853135" lon="16.391104164207697"><ele>1039.75</ele><time>2026-05-03T12:00:41.003Z</time></trkpt><trkpt lat="38.4777599709288" lon="16.390950620285057"><ele>1040.0</ele><time>2026-05-03T12:00:42.003Z</time></trkpt><trkpt lat="38.47761843778368" lon="16.390892264987183"><ele>1040.2</ele><time>2026-05-03T12:00:43.003Z</time></trkpt><trkpt lat="38.477519293690335" lon="16.390816527671983"><ele>1040.4</ele><time>2026-05-03T12:00:44.003Z</time></trkpt><trkpt lat="38.47748004018226" lon="16.390729804423742"><ele>1040.6</ele><time>2026-05-03T12:00:45.003Z</time></trkpt><trkpt lat="38.47749506310726" lon="16.390634355060453"><ele>1040.8</ele><time>2026-05-03T12:00:46Z</time></trkpt><trkpt lat="38.47752995943733" lon="16.390486302056637"><ele>1041.0</ele><time>2026-05-03T12:00:47Z</time></trkpt><trkpt lat="38.47757763061596" lon="16.390255396713137"><ele>1043.3333333333333</ele><time>2026-05-03T12:00:48Z</time></trkpt><trkpt lat="38.4775710851411" lon="16.389996522035585"><ele>1045.6666666666665</ele><time>2026-05-03T12:00:49Z</time></trkpt><trkpt lat="38.477580760017126" lon="16.389789145308352"><ele>1048.0</ele><time>2026-05-03T12:00:50Z</time></trkpt><trkpt lat="38.477584426968924" lon="16.38959073303184"><ele>1051.0</ele><time>2026-05-03T12:00:51Z</time></trkpt><trkpt lat="38.47754538670429" lon="16.389442204716264"><ele>1054.0</ele><time>2026-05-03T12:00:52Z</time></trkpt><trkpt lat="38.47741022055516" lon="16.389410780402407"><ele>1057.0</ele><time>2026-05-03T12:00:53Z</time></trkpt><trkpt lat="38.47731865646422" lon="16.38945802646851"><ele>1060.0</ele><time>2026-05-03T12:00:54Z</time></trkpt><trkpt lat="38.47715921488235" lon="16.389502088548685"><ele>1058.0</ele><time>2026-05-03T12:00:55Z</time></trkpt><trkpt lat="38.476983276769076" lon="16.389519971275412"><ele>1056.0</ele><time>2026-05-03T12:00:56Z</time></trkpt><trkpt lat="38.476859179169594" lon="16.389590717551265"><ele>1054.0</ele><time>2026-05-03T12:00:57Z</time></trkpt><trkpt lat="38.476754228603625" lon="16.389640114774608"><ele>1052.0</ele><time>2026-05-03T12:00:58Z</time></trkpt><trkpt lat="38.47666530019066" lon="16.389619761688202"><ele>1052.0</ele><time>2026-05-03T12:00:59Z</time></trkpt><trkpt lat="38.476621990567075" lon="16.389503237403517"><ele>1052.0</ele><time>2026-05-03T12:01:00Z</time></trkpt><trkpt lat="38.476623057553475" lon="16.389403445267696"><ele>1052.0</ele><time>2026-05-03T12:01:01Z</time></trkpt><trkpt lat="38.47673569250541" lon="16.38931174656914"><ele>1052.0</ele><time>2026-05-03T12:01:02Z</time></trkpt><trkpt lat="38.47683071822481" lon="16.389149080125954"><ele>1052.0</ele><time>2026-05-03T12:01:03Z</time></trkpt><trkpt lat="38.476942979152184" lon="16.38895615249555"><ele>1052.0</ele><time>2026-05-03T12:01:04Z</time></trkpt><trkpt lat="38.47706398662816" lon="16.388764997287822"><ele>1052.0</ele><time>2026-05-03T12:01:05Z</time></trkpt><trkpt lat="38.477195910771805" lon="16.388600959832637"><ele>1054.75</ele><time>2026-05-03T12:01:06Z</time></trkpt><trkpt lat="38.47731061191594" lon="16.3884494564795"><ele>1057.5</ele><time>2026-05-03T12:01:07Z</time></trkpt><trkpt lat="38.47736351395165" lon="16.388276608093655"><ele>1060.25</ele><time>2026-05-03T12:01:08Z</time></trkpt><trkpt lat="38.47734951316079" lon="16.388120116994983"><ele>1063.0</ele><time>2026-05-03T12:01:09Z</time></trkpt><trkpt lat="38.47728263688464" lon="16.38799439454249"><ele>1064.0</ele><time>2026-05-03T12:01:10Z</time></trkpt><trkpt lat="38.47716290401764" lon="16.387956575069733"><ele>1065.0</ele><time>2026-05-03T12:01:11Z</time></trkpt><trkpt lat="38.47702226069788" lon="16.387961033299288"><ele>1066.0</ele><time>2026-05-03T12:01:12Z</time></trkpt><trkpt lat="38.47685660942321" lon="16.388060683927286"><ele>1067.0</ele><time>2026-05-03T12:01:13Z</time></trkpt><trkpt lat="38.47666634035476" lon="16.38815506720626"><ele>1064.75</ele><time>2026-05-03T12:01:14Z</time></trkpt><trkpt lat="38.476513450212394" lon="16.388247048451266"><ele>1062.5</ele><time>2026-05-03T12:01:15Z</time></trkpt><trkpt lat="38.47638079753559" lon="16.38828156712242"><ele>1060.25</ele><time>2026-05-03T12:01:16Z</time></trkpt><trkpt lat="38.476252096552805" lon="16.388291849804567"><ele>1058.0</ele><time>2026-05-03T12:01:17Z</time></trkpt><trkpt lat="38.47611213223239" lon="16.38822211819204"><ele>1057.5</ele><time>2026-05-03T12:01:18Z</time></trkpt><trkpt lat="38.47597790996138" lon="16.38813112110032"><ele>1057.0</ele><time>2026-05-03T12:01:19Z</time></trkpt><trkpt lat="38.475889649460065" lon="16.38802903447497"><ele>1056.5</ele><time>2026-05-03T12:01:20.001Z</time></trkpt><trkpt lat="38.47584940859729" lon="16.38788601007205"><ele>1056.0</ele><time>2026-05-03T12:01:21.001Z</time></trkpt><trkpt lat="38.475831969433514" lon="16.387681099321828"><ele>1056.0</ele><time>2026-05-03T12:01:22.001Z</time></trkpt><trkpt lat="38.475779456500746" lon="16.387455239960552"><ele>1056.0</ele><time>2026-05-03T12:01:23.001Z</time></trkpt><trkpt lat="38.475730174242294" lon="16.38727963655274"><ele>1056.0</ele><time>2026-05-03T12:01:24.001Z</time></trkpt><trkpt lat="38.47572148078514" lon="16.38714534324245"><ele>1056.0</ele><time>2026-05-03T12:01:25.001Z</time></trkpt><trkpt lat="38.47576463102809" lon="16.38703272240982"><ele>1057.75</ele><time>2026-05-03T12:01:26.001Z</time></trkpt><trkpt lat="38.47586160039649" lon="16.386990933563332"><ele>1059.5</ele><time>2026-05-03T12:01:27.001Z</time></trkpt><trkpt lat="38.47600552706785" lon="16.386915028398594"><ele>1061.25</ele><time>2026-05-03T12:01:28.001Z</time></trkpt><trkpt lat="38.47616352810203" lon="16.386808541991133"><ele>1063.0</ele><time>2026-05-03T12:01:29.001Z</time></trkpt><trkpt lat="38.476297268551576" lon="16.386745035862425"><ele>1063.0</ele><time>2026-05-03T12:01:30.001Z</time></trkpt><trkpt lat="38.47641076289363" lon="16.38668029517253"><ele>1063.0</ele><time>2026-05-03T12:01:31.001Z</time></trkpt><trkpt lat="38.47649178685824" lon="16.38659500079418"><ele>1063.0</ele><time>2026-05-03T12:01:32.001Z</time></trkpt><trkpt lat="38.476521571622946" lon="16.386447645288474"><ele>1063.0</ele><time>2026-05-03T12:01:33.001Z</time></trkpt><trkpt lat="38.4765175651308" lon="16.38625809918929"><ele>1061.0</ele><time>2026-05-03T12:01:34.001Z</time></trkpt><trkpt lat="38.476536414078524" lon="16.386099406313914"><ele>1059.0</ele><time>2026-05-03T12:01:35.001Z</time></trkpt><trkpt lat="38.476573667884836" lon="16.385988766908383"><ele>1057.0</ele><time>2026-05-03T12:01:36.001Z</time></trkpt><trkpt lat="38.47664334031431" lon="16.38592230182357"><ele>1055.0</ele><time>2026-05-03T12:01:37.001Z</time></trkpt><trkpt lat="38.476744893915" lon="16.3859328318471"><ele>1053.0</ele><time>2026-05-03T12:01:38.001Z</time></trkpt><trkpt lat="38.476850575809365" lon="16.3860137269598"><ele>1053.0</ele><time>2026-05-03T12:01:39.001Z</time></trkpt><trkpt lat="38.47693987483937" lon="16.386035375689772"><ele>1053.0</ele><time>2026-05-03T12:01:40.001Z</time></trkpt><trkpt lat="38.47700916482017" lon="16.385953799873665"><ele>1053.0</ele><time>2026-05-03T12:01:41.001Z</time></trkpt><trkpt lat="38.47705494835253" lon="16.385823525582314"><ele>1053.0</ele><time>2026-05-03T12:01:42.001Z</time></trkpt><trkpt lat="38.47698649420144" lon="16.38561452156421"><ele>1050.0</ele><time>2026-05-03T12:01:43.001Z</time></trkpt><trkpt lat="38.476976650220216" lon="16.385369023625156"><ele>1047.0</ele><time>2026-05-03T12:01:44.001Z</time></trkpt><trkpt lat="38.47696645280563" lon="16.385195364640794"><ele>1044.0</ele><time>2026-05-03T12:01:45.001Z</time></trkpt><trkpt lat="38.47696381037232" lon="16.38502317261176"><ele>1044.0</ele><time>2026-05-03T12:01:46.001Z</time></trkpt><trkpt lat="38.47697325664827" lon="16.384844670944993"><ele>1044.0</ele><time>2026-05-03T12:01:47.001Z</time></trkpt><trkpt lat="38.4769972252156" lon="16.384675510563167"><ele>1044.0</ele><time>2026-05-03T12:01:48.001Z</time></trkpt><trkpt lat="38.477046847349726" lon="16.38454264660974"><ele>1044.0</ele><time>2026-05-03T12:01:49.001Z</time></trkpt><trkpt lat="38.477135721764014" lon="16.384435252569084"><ele>1046.4</ele><time>2026-05-03T12:01:50.001Z</time></trkpt><trkpt lat="38.47722461779764" lon="16.384334137792717"><ele>1048.8000000000002</ele><time>2026-05-03T12:01:51.001Z</time></trkpt><trkpt lat="38.477237830414055" lon="16.384197486034584"><ele>1051.1999999999998</ele><time>2026-05-03T12:01:52.001Z</time></trkpt><trkpt lat="38.47718784798923" lon="16.38404688406377"><ele>1053.6</ele><time>2026-05-03T12:01:53.001Z</time></trkpt><trkpt lat="38.47718326306193" lon="16.38392616259317"><ele>1056.0</ele><time>2026-05-03T12:01:54.001Z</time></trkpt><trkpt lat="38.477252871082236" lon="16.383796634920387"><ele>1056.0</ele><time>2026-05-03T12:01:55.001Z</time></trkpt><trkpt lat="38.477375571772626" lon="16.38366996239344"><ele>1056.0</ele><time>2026-05-03T12:01:56.001Z</time></trkpt><trkpt lat="38.477501641528114" lon="16.383498701235684"><ele>1056.0</ele><time>2026-05-03T12:01:57.001Z</time></trkpt><trkpt lat="38.47759602405605" lon="16.383323612404606"><ele>1056.0</ele><time>2026-05-03T12:01:58.001Z</time></trkpt><trkpt lat="38.477671487600965" lon="16.38316356352722"><ele>1056.0</ele><time>2026-05-03T12:01:59.001Z</time></trkpt><trkpt lat="38.477786027947204" lon="16.383040360241463"><ele>1056.0</ele><time>2026-05-03T12:02:00.001Z</time></trkpt><trkpt lat="38.477937522989414" lon="16.382928077054135"><ele>1055.5</ele><time>2026-05-03T12:02:01.001Z</time></trkpt><trkpt lat="38.478087524860975" lon="16.382805857687654"><ele>1055.0</ele><time>2026-05-03T12:02:02.001Z</time></trkpt><trkpt lat="38.47820075079303" lon="16.3827170855343"><ele>1054.5</ele><time>2026-05-03T12:02:03.001Z</time></trkpt><trkpt lat="38.478298074287515" lon="16.382692921365734"><ele>1054.0</ele><time>2026-05-03T12:02:04.001Z</time></trkpt><trkpt lat="38.47841987168625" lon="16.38275484094212"><ele>1054.0</ele><time>2026-05-03T12:02:05.001Z</time></trkpt><trkpt lat="38.478540476649236" lon="16.382866057707915"><ele>1054.0</ele><time>2026-05-03T12:02:06.001Z</time></trkpt><trkpt lat="38.478652685616304" lon="16.382966479376474"><ele>1054.0</ele><time>2026-05-03T12:02:07.001Z</time></trkpt><trkpt lat="38.4787749243852" lon="16.38296873150518"><ele>1054.0</ele><time>2026-05-03T12:02:08.002Z</time></trkpt><trkpt lat="38.47891147032579" lon="16.382895056858583"><ele>1056.6666666666665</ele><time>2026-05-03T12:02:09.002Z</time></trkpt><trkpt lat="38.47904159296012" lon="16.382750906769623"><ele>1059.3333333333333</ele><time>2026-05-03T12:02:10.002Z</time></trkpt><trkpt lat="38.47915002065336" lon="16.382566569914193"><ele>1062.0</ele><time>2026-05-03T12:02:11.002Z</time></trkpt><trkpt lat="38.47927368198462" lon="16.382450925013917"><ele>1062.0</ele><time>2026-05-03T12:02:12.002Z</time></trkpt><trkpt lat="38.479379557464185" lon="16.38236537665729"><ele>1062.0</ele><time>2026-05-03T12:02:13.002Z</time></trkpt><trkpt lat="38.47951378889987" lon="16.382303391268696"><ele>1062.0</ele><time>2026-05-03T12:02:14.002Z</time></trkpt><trkpt lat="38.47967601123194" lon="16.382256034404886"><ele>1062.0</ele><time>2026-05-03T12:02:15.002Z</time></trkpt><trkpt lat="38.47983875680787" lon="16.382209663703506"><ele>1062.5</ele><time>2026-05-03T12:02:16.002Z</time></trkpt><trkpt lat="38.48000133754856" lon="16.382286060708612"><ele>1063.0</ele><time>2026-05-03T12:02:17.002Z</time></trkpt><trkpt lat="38.480143317308176" lon="16.38230586930728"><ele>1063.5</ele><time>2026-05-03T12:02:18.002Z</time></trkpt><trkpt lat="38.48025422728821" lon="16.382290306963128"><ele>1064.0</ele><time>2026-05-03T12:02:19.002Z</time></trkpt><trkpt lat="38.4803248846216" lon="16.38217361701381"><ele>1065.6666666666667</ele><time>2026-05-03T12:02:20.002Z</time></trkpt><trkpt lat="38.480383719138985" lon="16.382015236161077"><ele>1067.3333333333333</ele><time>2026-05-03T12:02:21.002Z</time></trkpt><trkpt lat="38.480510866462886" lon="16.381904060181533"><ele>1069.0</ele><time>2026-05-03T12:02:22.002Z</time></trkpt><trkpt lat="38.48061862373833" lon="16.38174324629309"><ele>1069.0</ele><time>2026-05-03T12:02:23.002Z</time></trkpt><trkpt lat="38.48070655354529" lon="16.381516869936615"><ele>1069.0</ele><time>2026-05-03T12:02:24.002Z</time></trkpt><trkpt lat="38.48080861572472" lon="16.38133395448639"><ele>1069.0</ele><time>2026-05-03T12:02:25.002Z</time></trkpt><trkpt lat="38.480885643682065" lon="16.381197869998886"><ele>1075.0</ele><time>2026-05-03T12:02:26.002Z</time></trkpt><trkpt lat="38.480961320872844" lon="16.381106830145033"><ele>1081.0</ele><time>2026-05-03T12:02:27.002Z</time></trkpt><trkpt lat="38.481090967261764" lon="16.38105561226667"><ele>1087.0</ele><time>2026-05-03T12:02:28.002Z</time></trkpt><trkpt lat="38.481197873278816" lon="16.380971162616976"><ele>1093.0</ele><time>2026-05-03T12:02:29.002Z</time></trkpt><trkpt lat="38.48124785901527" lon="16.380798724951273"><ele>1089.3333333333333</ele><time>2026-05-03T12:02:30.002Z</time></trkpt><trkpt lat="38.48131809610462" lon="16.380612772963453"><ele>1085.6666666666667</ele><time>2026-05-03T12:02:31.002Z</time></trkpt><trkpt lat="38.481379895046516" lon="16.380421295522567"><ele>1082.0</ele><time>2026-05-03T12:02:32.002Z</time></trkpt><trkpt lat="38.48143132128173" lon="16.380265338803113"><ele>1082.0</ele><time>2026-05-03T12:02:33.002Z</time></trkpt><trkpt lat="38.48149246068635" lon="16.38012571240727"><ele>1082.0</ele><time>2026-05-03T12:02:34.002Z</time></trkpt><trkpt lat="38.48156793783697" lon="16.380037140354922"><ele>1082.0</ele><time>2026-05-03T12:02:35.002Z</time></trkpt><trkpt lat="38.48166001646152" lon="16.379945152190807"><ele>1082.0</ele><time>2026-05-03T12:02:36.002Z</time></trkpt><trkpt lat="38.481714080332615" lon="16.379808218656848"><ele>1084.25</ele><time>2026-05-03T12:02:37.002Z</time></trkpt><trkpt lat="38.481693008427655" lon="16.379645051670433"><ele>1086.5</ele><time>2026-05-03T12:02:38.002Z</time></trkpt><trkpt lat="38.481544953610104" lon="16.37953570704948"><ele>1088.75</ele><time>2026-05-03T12:02:39.002Z</time></trkpt><trkpt lat="38.48146122820999" lon="16.379390460789764"><ele>1091.0</ele><time>2026-05-03T12:02:40.002Z</time></trkpt><trkpt lat="38.48142922251112" lon="16.379266326249553"><ele>1091.0</ele><time>2026-05-03T12:02:41.002Z</time></trkpt><trkpt lat="38.48141864198498" lon="16.37915441840373"><ele>1091.0</ele><time>2026-05-03T12:02:42.002Z</time></trkpt><trkpt lat="38.48141996299469" lon="16.37902329281942"><ele>1091.0</ele><time>2026-05-03T12:02:43.002Z</time></trkpt><trkpt lat="38.48146449650375" lon="16.37890285117674"><ele>1091.0</ele><time>2026-05-03T12:02:44.002Z</time></trkpt><trkpt lat="38.4815256373005" lon="16.378734295115418"><ele>1091.0</ele><time>2026-05-03T12:02:45.002Z</time></trkpt><trkpt lat="38.48157830085557" lon="16.378613491862264"><ele>1091.0</ele><time>2026-05-03T12:02:46.002Z</time></trkpt><trkpt lat="38.48163197974324" lon="16.378545553686408"><ele>1091.0</ele><time>2026-05-03T12:02:47.002Z</time></trkpt><trkpt lat="38.48174563748695" lon="16.378612609150828"><ele>1091.0</ele><time>2026-05-03T12:02:49.002Z</time></trkpt><trkpt lat="38.481766563991364" lon="16.378751476190722"><ele>1091.0</ele><time>2026-05-03T12:02:50.002Z</time></trkpt><trkpt lat="38.48170897281661" lon="16.378855142203037"><ele>1091.0</ele><time>2026-05-03T12:02:51.002Z</time></trkpt><trkpt lat="38.48167551631921" lon="16.378970802589933"><ele>1091.0</ele><time>2026-05-03T12:02:52Z</time></trkpt><trkpt lat="38.48166151837983" lon="16.379066104315232"><ele>1091.0</ele><time>2026-05-03T12:02:53Z</time></trkpt><trkpt lat="38.48173331896107" lon="16.379150285819847"><ele>1091.0</ele><time>2026-05-03T12:02:54Z</time></trkpt><trkpt lat="38.48186942872998" lon="16.37921075424168"><ele>1091.0</ele><time>2026-05-03T12:02:55Z</time></trkpt><trkpt lat="38.48201125412696" lon="16.37923948012592"><ele>1092.0</ele><time>2026-05-03T12:02:56Z</time></trkpt><trkpt lat="38.48214113599108" lon="16.379234359583915"><ele>1093.0</ele><time>2026-05-03T12:02:57Z</time></trkpt><trkpt lat="38.48225046819758" lon="16.3791570667846"><ele>1094.0</ele><time>2026-05-03T12:02:58Z</time></trkpt><trkpt lat="38.48237751307308" lon="16.379058673074404"><ele>1095.0</ele><time>2026-05-03T12:02:59Z</time></trkpt><trkpt lat="38.482501569510084" lon="16.37895607841616"><ele>1095.0</ele><time>2026-05-03T12:03:00Z</time></trkpt><trkpt lat="38.48261980481505" lon="16.378858306148153"><ele>1095.0</ele><time>2026-05-03T12:03:01Z</time></trkpt><trkpt lat="38.48276539440052" lon="16.378788233909134"><ele>1095.0</ele><time>2026-05-03T12:03:02Z</time></trkpt><trkpt lat="38.482905742799765" lon="16.3787703729071"><ele>1095.0</ele><time>2026-05-03T12:03:03Z</time></trkpt><trkpt lat="38.48303644937437" lon="16.378785533614515"><ele>1098.5</ele><time>2026-05-03T12:03:04Z</time></trkpt><trkpt lat="38.483140595968564" lon="16.37877445780887"><ele>1102.0</ele><time>2026-05-03T12:03:05Z</time></trkpt><trkpt lat="38.48323859445349" lon="16.378731385319067"><ele>1105.5</ele><time>2026-05-03T12:03:06Z</time></trkpt><trkpt lat="38.48329084691337" lon="16.378553982796248"><ele>1109.0</ele><time>2026-05-03T12:03:07Z</time></trkpt><trkpt lat="38.483362367705894" lon="16.378400584151542"><ele>1109.0</ele><time>2026-05-03T12:03:08Z</time></trkpt><trkpt lat="38.48342471202544" lon="16.3782500139"><ele>1109.0</ele><time>2026-05-03T12:03:09Z</time></trkpt><trkpt lat="38.48346748563322" lon="16.378162325730575"><ele>1109.0</ele><time>2026-05-03T12:03:10Z</time></trkpt><trkpt lat="38.48350561680211" lon="16.37808121646341"><ele>1109.0</ele><time>2026-05-03T12:03:12Z</time></trkpt><trkpt lat="38.483556528231595" lon="16.378027569683898"><ele>1109.0</ele><time>2026-05-03T12:03:14Z</time></trkpt><trkpt lat="38.48361862320873" lon="16.377965893163857"><ele>1109.0</ele><time>2026-05-03T12:17:26.999Z</time></trkpt><trkpt lat="38.48370799851745" lon="16.377815426686276"><ele>1111.8</ele><time>2026-05-03T12:17:30.999Z</time></trkpt><trkpt lat="38.48376464606293" lon="16.37774306996128"><ele>1114.6000000000001</ele><time>2026-05-03T12:17:31.999Z</time></trkpt><trkpt lat="38.48383488283319" lon="16.377687772830544"><ele>1117.4</ele><time>2026-05-03T12:17:32.999Z</time></trkpt><trkpt lat="38.48389239968112" lon="16.377636654191537"><ele>1120.2</ele><time>2026-05-03T12:17:34Z</time></trkpt><trkpt lat="38.484021335811306" lon="16.377558379589292"><ele>1123.0</ele><time>2026-05-03T12:17:36Z</time></trkpt><trkpt lat="38.48412300196736" lon="16.377532725161863"><ele>1123.0</ele><time>2026-05-03T12:17:37Z</time></trkpt><trkpt lat="38.484223147288944" lon="16.37751902208039"><ele>1123.0</ele><time>2026-05-03T12:17:38Z</time></trkpt><trkpt lat="38.48432536423615" lon="16.3775094020754"><ele>1123.0</ele><time>2026-05-03T12:17:39Z</time></trkpt><trkpt lat="38.484395261492836" lon="16.377504198152295"><ele>1123.0</ele><time>2026-05-03T12:17:40Z</time></trkpt><trkpt lat="38.484485718697385" lon="16.3775082246153"><ele>1123.0</ele><time>2026-05-03T12:17:41Z</time></trkpt><trkpt lat="38.4845818591732" lon="16.377486819767082"><ele>1119.75</ele><time>2026-05-03T12:17:42Z</time></trkpt><trkpt lat="38.48471360184115" lon="16.377418194660372"><ele>1116.5</ele><time>2026-05-03T12:17:43Z</time></trkpt><trkpt lat="38.484832450828186" lon="16.37735549279966"><ele>1113.25</ele><time>2026-05-03T12:17:44Z</time></trkpt><trkpt lat="38.484952293557626" lon="16.377297566316734"><ele>1110.0</ele><time>2026-05-03T12:17:45Z</time></trkpt><trkpt lat="38.485042636956145" lon="16.377222573019385"><ele>1113.5</ele><time>2026-05-03T12:17:46Z</time></trkpt><trkpt lat="38.48515563331601" lon="16.3771091289298"><ele>1117.0</ele><time>2026-05-03T12:17:47Z</time></trkpt><trkpt lat="38.48525769224637" lon="16.377008874008144"><ele>1120.5</ele><time>2026-05-03T12:17:48Z</time></trkpt><trkpt lat="38.48535296630043" lon="16.37691452477429"><ele>1124.0</ele><time>2026-05-03T12:17:49Z</time></trkpt><trkpt lat="38.48544789721178" lon="16.376836604610418"><ele>1124.0</ele><time>2026-05-03T12:17:50Z</time></trkpt><trkpt lat="38.48555818535422" lon="16.376770039939057"><ele>1124.0</ele><time>2026-05-03T12:17:51Z</time></trkpt><trkpt lat="38.485673071303275" lon="16.37668347182087"><ele>1124.0</ele><time>2026-05-03T12:17:52Z</time></trkpt><trkpt lat="38.48570087656263" lon="16.376594928398575"><ele>1124.0</ele><time>2026-05-03T12:17:53Z</time></trkpt><trkpt lat="38.48578941482758" lon="16.3764935173919"><ele>1124.0</ele><time>2026-05-03T12:17:55Z</time></trkpt><trkpt lat="38.485975425647865" lon="16.376228916925825"><ele>1125.5</ele><time>2026-05-03T12:17:57Z</time></trkpt><trkpt lat="38.486037184175174" lon="16.37613294199187"><ele>1127.0</ele><time>2026-05-03T12:17:58Z</time></trkpt><trkpt lat="38.48609599879464" lon="16.376042591075205"><ele>1128.5</ele><time>2026-05-03T12:17:59Z</time></trkpt><trkpt lat="38.486163105104566" lon="16.375977466895662"><ele>1130.0</ele><time>2026-05-03T12:18:00Z</time></trkpt><trkpt lat="38.48624139667896" lon="16.375942871437218"><ele>1131.5</ele><time>2026-05-03T12:18:01Z</time></trkpt><trkpt lat="38.486323899111355" lon="16.375960550189866"><ele>1133.0</ele><time>2026-05-03T12:18:02Z</time></trkpt><trkpt lat="38.48641778076435" lon="16.376035414694954"><ele>1133.0</ele><time>2026-05-03T12:18:03Z</time></trkpt><trkpt lat="38.48653034713334" lon="16.37607186057264"><ele>1133.0</ele><time>2026-05-03T12:18:04Z</time></trkpt><trkpt lat="38.486648909377564" lon="16.376094690696732"><ele>1133.0</ele><time>2026-05-03T12:18:05Z</time></trkpt><trkpt lat="38.48675357087413" lon="16.376039823139145"><ele>1133.0</ele><time>2026-05-03T12:18:06Z</time></trkpt><trkpt lat="38.486830948324055" lon="16.375963504115322"><ele>1133.0</ele><time>2026-05-03T12:18:07Z</time></trkpt><trkpt lat="38.48690226415842" lon="16.37594380114513"><ele>1133.0</ele><time>2026-05-03T12:18:08Z</time></trkpt><trkpt lat="38.486980833810605" lon="16.375994706960437"><ele>1133.0</ele><time>2026-05-03T12:18:09Z</time></trkpt><trkpt lat="38.487005770539454" lon="16.376182511414278"><ele>1133.0</ele><time>2026-05-03T12:18:11Z</time></trkpt><trkpt lat="38.48694961582618" lon="16.376293383421316"><ele>1133.0</ele><time>2026-05-03T12:18:12Z</time></trkpt><trkpt lat="38.48687727972279" lon="16.376404897031573"><ele>1130.6666666666667</ele><time>2026-05-03T12:18:13Z</time></trkpt><trkpt lat="38.48676238273178" lon="16.37660474850743"><ele>1128.3333333333333</ele><time>2026-05-03T12:18:14Z</time></trkpt><trkpt lat="38.486678120304006" lon="16.376779829511857"><ele>1126.0</ele><time>2026-05-03T12:18:15Z</time></trkpt><trkpt lat="38.48663336656446" lon="16.37693369263856"><ele>1126.0</ele><time>2026-05-03T12:18:16Z</time></trkpt><trkpt lat="38.48664196397488" lon="16.377111541191884"><ele>1126.0</ele><time>2026-05-03T12:18:17Z</time></trkpt><trkpt lat="38.48670875738824" lon="16.37728705884111"><ele>1126.0</ele><time>2026-05-03T12:18:18Z</time></trkpt><trkpt lat="38.486760086836185" lon="16.377455591169312"><ele>1126.0</ele><time>2026-05-03T12:18:19Z</time></trkpt><trkpt lat="38.486744215250646" lon="16.37762916055519"><ele>1126.2</ele><time>2026-05-03T12:18:20Z</time></trkpt><trkpt lat="38.48674823917749" lon="16.377803634201623"><ele>1126.3999999999999</ele><time>2026-05-03T12:18:21Z</time></trkpt><trkpt lat="38.48672640762594" lon="16.377922753789736"><ele>1126.6</ele><time>2026-05-03T12:18:22Z</time></trkpt><trkpt lat="38.486767338592394" lon="16.37799324926722"><ele>1126.8</ele><time>2026-05-03T12:18:23Z</time></trkpt><trkpt lat="38.48685530897166" lon="16.378030788308994"><ele>1127.0</ele><time>2026-05-03T12:18:24Z</time></trkpt><trkpt lat="38.486963466740264" lon="16.378035037137185"><ele>1127.3333333333335</ele><time>2026-05-03T12:18:25Z</time></trkpt><trkpt lat="38.48708230122759" lon="16.377904586054"><ele>1127.6666666666667</ele><time>2026-05-03T12:18:26Z</time></trkpt><trkpt lat="38.487245809818454" lon="16.377755883443186"><ele>1128.0</ele><time>2026-05-03T12:18:27Z</time></trkpt><trkpt lat="38.48744789262131" lon="16.37760695940535"><ele>1132.0</ele><time>2026-05-03T12:18:28Z</time></trkpt><trkpt lat="38.487632673932275" lon="16.37747343314163"><ele>1136.0</ele><time>2026-05-03T12:18:28.999Z</time></trkpt><trkpt lat="38.48780297463481" lon="16.37738101945793"><ele>1140.0</ele><time>2026-05-03T12:18:29.999Z</time></trkpt><trkpt lat="38.487916351553636" lon="16.37736919357334"><ele>1141.0</ele><time>2026-05-03T12:18:30.999Z</time></trkpt><trkpt lat="38.48802548960698" lon="16.37739994508017"><ele>1142.0</ele><time>2026-05-03T12:18:31.999Z</time></trkpt><trkpt lat="38.48812400717607" lon="16.377485236643327"><ele>1143.0</ele><time>2026-05-03T12:18:32.999Z</time></trkpt><trkpt lat="38.48818459408092" lon="16.377556746727773"><ele>1144.0</ele><time>2026-05-03T12:18:33.999Z</time></trkpt><trkpt lat="38.488249467294764" lon="16.37754357833949"><ele>1145.0</ele><time>2026-05-03T12:18:36.999Z</time></trkpt><trkpt lat="38.488271627102705" lon="16.377429979013787"><ele>1145.0</ele><time>2026-05-03T12:18:47.999Z</time></trkpt><trkpt lat="38.48824942619083" lon="16.377338635870462"><ele>1145.0</ele><time>2026-05-03T12:18:48.999Z</time></trkpt><trkpt lat="38.48818616190247" lon="16.377276761466984"><ele>1145.0</ele><time>2026-05-03T12:18:49.999Z</time></trkpt><trkpt lat="38.48811513057788" lon="16.377186960379507"><ele>1145.0</ele><time>2026-05-03T12:18:50.999Z</time></trkpt><trkpt lat="38.48803956568954" lon="16.377095687631165"><ele>1145.0</ele><time>2026-05-03T12:18:51.999Z</time></trkpt><trkpt lat="38.48797262239497" lon="16.376998807599673"><ele>1145.2</ele><time>2026-05-03T12:18:52.999Z</time></trkpt><trkpt lat="38.487906855727" lon="16.376927460407092"><ele>1145.4</ele><time>2026-05-03T12:18:53.999Z</time></trkpt><trkpt lat="38.48784237986109" lon="16.376786210977997"><ele>1145.6</ele><time>2026-05-03T12:18:54.999Z</time></trkpt><trkpt lat="38.48782041378625" lon="16.37667612484793"><ele>1145.8</ele><time>2026-05-03T12:18:55.999Z</time></trkpt><trkpt lat="38.48780179712036" lon="16.376575231942823"><ele>1146.0</ele><time>2026-05-03T12:18:56.999Z</time></trkpt><trkpt lat="38.48781702172765" lon="16.37648569518985"><ele>1145.5</ele><time>2026-05-03T12:18:57.999Z</time></trkpt><trkpt lat="38.48784003106977" lon="16.37632908164679"><ele>1145.0</ele><time>2026-05-03T12:18:58.999Z</time></trkpt><trkpt lat="38.4878570456329" lon="16.37623444069707"><ele>1144.5</ele><time>2026-05-03T12:18:59.999Z</time></trkpt><trkpt lat="38.487914511098474" lon="16.376044396308767"><ele>1144.0</ele><time>2026-05-03T12:19:00.999Z</time></trkpt><trkpt lat="38.487978822453975" lon="16.375897121047384"><ele>1147.25</ele><time>2026-05-03T12:19:01.999Z</time></trkpt><trkpt lat="38.48803442503364" lon="16.37574289515114"><ele>1150.5</ele><time>2026-05-03T12:19:02.999Z</time></trkpt><trkpt lat="38.48808500441839" lon="16.37557790816935"><ele>1153.75</ele><time>2026-05-03T12:19:03.999Z</time></trkpt><trkpt lat="38.488161706212885" lon="16.375417508037597"><ele>1157.0</ele><time>2026-05-03T12:19:04.999Z</time></trkpt><trkpt lat="38.488227120138475" lon="16.37522809455175"><ele>1157.0</ele><time>2026-05-03T12:19:05.999Z</time></trkpt><trkpt lat="38.48828011937847" lon="16.375024951682263"><ele>1157.0</ele><time>2026-05-03T12:19:06.999Z</time></trkpt><trkpt lat="38.48835136498734" lon="16.374854622986895"><ele>1157.0</ele><time>2026-05-03T12:19:07.999Z</time></trkpt><trkpt lat="38.488414464112104" lon="16.374697907245142"><ele>1156.0</ele><time>2026-05-03T12:19:08.999Z</time></trkpt><trkpt lat="38.48848225191656" lon="16.37454267768657"><ele>1155.0</ele><time>2026-05-03T12:19:09.999Z</time></trkpt><trkpt lat="38.48856781857116" lon="16.37440580973527"><ele>1154.0</ele><time>2026-05-03T12:19:10.999Z</time></trkpt><trkpt lat="38.48868858609655" lon="16.37427746238878"><ele>1153.0</ele><time>2026-05-03T12:19:11.999Z</time></trkpt><trkpt lat="38.48881282757531" lon="16.374134876059905"><ele>1156.0</ele><time>2026-05-03T12:19:12.999Z</time></trkpt><trkpt lat="38.48895113432153" lon="16.373993435179504"><ele>1159.0</ele><time>2026-05-03T12:19:13.999Z</time></trkpt><trkpt lat="38.48911137593579" lon="16.373760624236635"><ele>1162.0</ele><time>2026-05-03T12:19:14.999Z</time></trkpt><trkpt lat="38.4892638686957" lon="16.373573168576392"><ele>1162.0</ele><time>2026-05-03T12:19:15.999Z</time></trkpt><trkpt lat="38.48945316368266" lon="16.373439237747625"><ele>1162.0</ele><time>2026-05-03T12:19:16.999Z</time></trkpt><trkpt lat="38.489627906733354" lon="16.373281573364896"><ele>1162.0</ele><time>2026-05-03T12:19:17.999Z</time></trkpt><trkpt lat="38.489782401871025" lon="16.373129377672107"><ele>1167.0</ele><time>2026-05-03T12:19:18.999Z</time></trkpt><trkpt lat="38.48990517970409" lon="16.372963200627005"><ele>1172.0</ele><time>2026-05-03T12:19:19.999Z</time></trkpt><trkpt lat="38.490047709309636" lon="16.372817244183"><ele>1177.0</ele><time>2026-05-03T12:19:20.999Z</time></trkpt><trkpt lat="38.490173982247974" lon="16.3726701988086"><ele>1177.0</ele><time>2026-05-03T12:19:21.999Z</time></trkpt><trkpt lat="38.49026505074132" lon="16.372551694589646"><ele>1177.0</ele><time>2026-05-03T12:19:22.999Z</time></trkpt><trkpt lat="38.49036061328849" lon="16.372446856236326"><ele>1177.0</ele><time>2026-05-03T12:19:23.999Z</time></trkpt><trkpt lat="38.49045797788121" lon="16.372343393477138"><ele>1177.0</ele><time>2026-05-03T12:19:24.999Z</time></trkpt><trkpt lat="38.490523932695574" lon="16.372240095995682"><ele>1178.8</ele><time>2026-05-03T12:19:25.999Z</time></trkpt><trkpt lat="38.490569209207486" lon="16.372115987884513"><ele>1180.6</ele><time>2026-05-03T12:19:26.999Z</time></trkpt><trkpt lat="38.49055388010754" lon="16.371974251411427"><ele>1182.3999999999999</ele><time>2026-05-03T12:19:27.999Z</time></trkpt><trkpt lat="38.49049005836045" lon="16.371891238699465"><ele>1184.2</ele><time>2026-05-03T12:19:28.999Z</time></trkpt><trkpt lat="38.49040023359559" lon="16.37183480194478"><ele>1186.0</ele><time>2026-05-03T12:19:29.999Z</time></trkpt><trkpt lat="38.49026496509017" lon="16.37186552946494"><ele>1186.0</ele><time>2026-05-03T12:19:30.999Z</time></trkpt><trkpt lat="38.490139504522716" lon="16.371931852706624"><ele>1186.0</ele><time>2026-05-03T12:19:31.999Z</time></trkpt><trkpt lat="38.48996159465761" lon="16.371977258763874"><ele>1186.0</ele><time>2026-05-03T12:19:32.999Z</time></trkpt><trkpt lat="38.48975635498204" lon="16.37197535172892"><ele>1185.3333333333333</ele><time>2026-05-03T12:19:33.999Z</time></trkpt><trkpt lat="38.48955267561414" lon="16.371992985703976"><ele>1184.6666666666667</ele><time>2026-05-03T12:19:34.999Z</time></trkpt><trkpt lat="38.489398567537485" lon="16.37199203434475"><ele>1184.0</ele><time>2026-05-03T12:19:35.999Z</time></trkpt><trkpt lat="38.48930107427802" lon="16.371950196221537"><ele>1184.0</ele><time>2026-05-03T12:19:36.999Z</time></trkpt><trkpt lat="38.48923026831254" lon="16.371863891715776"><ele>1184.0</ele><time>2026-05-03T12:19:37.999Z</time></trkpt><trkpt lat="38.48913910960236" lon="16.371721912153745"><ele>1184.0</ele><time>2026-05-03T12:19:38.999Z</time></trkpt><trkpt lat="38.48904203976302" lon="16.371563144609922"><ele>1184.0</ele><time>2026-05-03T12:19:39.999Z</time></trkpt><trkpt lat="38.48897227496477" lon="16.37130450242338"><ele>1185.5</ele><time>2026-05-03T12:19:40.999Z</time></trkpt><trkpt lat="38.488805030670314" lon="16.371009288171983"><ele>1187.0</ele><time>2026-05-03T12:19:41.999Z</time></trkpt><trkpt lat="38.488717214000175" lon="16.370731822810985"><ele>1187.3333333333335</ele><time>2026-05-03T12:19:42.999Z</time></trkpt><trkpt lat="38.48864120781888" lon="16.37049182212632"><ele>1187.6666666666667</ele><time>2026-05-03T12:19:43.999Z</time></trkpt><trkpt lat="38.48855956335407" lon="16.370334274090517"><ele>1188.0</ele><time>2026-05-03T12:19:44.999Z</time></trkpt><trkpt lat="38.488518351631306" lon="16.370168744599926"><ele>1188.0</ele><time>2026-05-03T12:19:45.999Z</time></trkpt><trkpt lat="38.488432194451924" lon="16.370021766524545"><ele>1188.0</ele><time>2026-05-03T12:19:46.999Z</time></trkpt><trkpt lat="38.4882899889059" lon="16.369924288830806"><ele>1188.0</ele><time>2026-05-03T12:19:47.999Z</time></trkpt><trkpt lat="38.48815147199167" lon="16.3698781880002"><ele>1188.0</ele><time>2026-05-03T12:19:48.999Z</time></trkpt><trkpt lat="38.48800508141756" lon="16.36991558129812"><ele>1188.6666666666667</ele><time>2026-05-03T12:19:49.999Z</time></trkpt><trkpt lat="38.48792365089365" lon="16.36995623852512"><ele>1189.3333333333333</ele><time>2026-05-03T12:19:50.999Z</time></trkpt><trkpt lat="38.48785912778129" lon="16.369965224077745"><ele>1190.0</ele><time>2026-05-03T12:19:51.999Z</time></trkpt><trkpt lat="38.48775068400374" lon="16.369942008744264"><ele>1190.6666666666665</ele><time>2026-05-03T12:19:52.999Z</time></trkpt><trkpt lat="38.487706234614066" lon="16.369814227153867"><ele>1191.3333333333333</ele><time>2026-05-03T12:19:54.999Z</time></trkpt><trkpt lat="38.487727337573276" lon="16.369725730186822"><ele>1192.0</ele><time>2026-05-03T12:20:21.999Z</time></trkpt><trkpt lat="38.48785026806577" lon="16.369588060203203"><ele>1191.25</ele><time>2026-05-03T12:20:23.999Z</time></trkpt><trkpt lat="38.48795944959233" lon="16.369480819576758"><ele>1190.5</ele><time>2026-05-03T12:20:24.999Z</time></trkpt><trkpt lat="38.48807195180947" lon="16.369365769690397"><ele>1189.75</ele><time>2026-05-03T12:20:25.999Z</time></trkpt><trkpt lat="38.488180823572485" lon="16.369236647357138"><ele>1189.0</ele><time>2026-05-03T12:20:26.999Z</time></trkpt><trkpt lat="38.48829933380223" lon="16.369101557083443"><ele>1189.0</ele><time>2026-05-03T12:20:27.999Z</time></trkpt><trkpt lat="38.488402391901" lon="16.36896635726632"><ele>1189.0</ele><time>2026-05-03T12:20:28.999Z</time></trkpt><trkpt lat="38.48850370151665" lon="16.36887484910604"><ele>1189.0</ele><time>2026-05-03T12:20:29.999Z</time></trkpt><trkpt lat="38.488670110857726" lon="16.3688239163997"><ele>1189.0</ele><time>2026-05-03T12:20:30.999Z</time></trkpt><trkpt lat="38.48880528192825" lon="16.368832187614224"><ele>1190.8</ele><time>2026-05-03T12:20:31.999Z</time></trkpt><trkpt lat="38.48889306989844" lon="16.368829541117236"><ele>1192.6000000000001</ele><time>2026-05-03T12:20:32.999Z</time></trkpt><trkpt lat="38.48899247742326" lon="16.36875499188091"><ele>1194.4</ele><time>2026-05-03T12:20:33.999Z</time></trkpt><trkpt lat="38.489100103275646" lon="16.368669107915302"><ele>1196.2</ele><time>2026-05-03T12:20:34.999Z</time></trkpt><trkpt lat="38.48915414389395" lon="16.36854191441164"><ele>1198.0</ele><time>2026-05-03T12:20:35.999Z</time></trkpt><trkpt lat="38.48918942436893" lon="16.368407679138876"><ele>1198.0</ele><time>2026-05-03T12:20:36.999Z</time></trkpt><trkpt lat="38.489244789840754" lon="16.368330224868473"><ele>1198.0</ele><time>2026-05-03T12:20:37.999Z</time></trkpt><trkpt lat="38.48940146621114" lon="16.36820779966768"><ele>1198.0</ele><time>2026-05-03T12:20:38.999Z</time></trkpt><trkpt lat="38.4895320802422" lon="16.36812798569715"><ele>1198.0</ele><time>2026-05-03T12:20:39.999Z</time></trkpt><trkpt lat="38.48963314494159" lon="16.36798552729662"><ele>1200.2</ele><time>2026-05-03T12:20:40.999Z</time></trkpt><trkpt lat="38.48969170640884" lon="16.367832491044307"><ele>1202.4</ele><time>2026-05-03T12:20:41.999Z</time></trkpt><trkpt lat="38.489731818315825" lon="16.36772676386058"><ele>1204.6000000000001</ele><time>2026-05-03T12:20:42.999Z</time></trkpt><trkpt lat="38.489795691381936" lon="16.36766044969278"><ele>1206.8</ele><time>2026-05-03T12:20:43.999Z</time></trkpt><trkpt lat="38.4898938925227" lon="16.367651608968732"><ele>1209.0</ele><time>2026-05-03T12:20:44.999Z</time></trkpt><trkpt lat="38.49000884562721" lon="16.367700278023158"><ele>1209.0</ele><time>2026-05-03T12:20:45.999Z</time></trkpt><trkpt lat="38.49010793871152" lon="16.367765538441837"><ele>1209.0</ele><time>2026-05-03T12:20:46.999Z</time></trkpt><trkpt lat="38.490222722716524" lon="16.367794401332173"><ele>1209.0</ele><time>2026-05-03T12:20:47.999Z</time></trkpt><trkpt lat="38.490326140344855" lon="16.36770632078661"><ele>1209.0</ele><time>2026-05-03T12:20:48.999Z</time></trkpt><trkpt lat="38.49045091463102" lon="16.367569589526898"><ele>1207.3333333333333</ele><time>2026-05-03T12:20:49.999Z</time></trkpt><trkpt lat="38.490572600124516" lon="16.367445999198694"><ele>1205.6666666666665</ele><time>2026-05-03T12:20:50.999Z</time></trkpt><trkpt lat="38.490670941097115" lon="16.367293004218777"><ele>1204.0</ele><time>2026-05-03T12:20:51.999Z</time></trkpt><trkpt lat="38.49076860853064" lon="16.367084459543783"><ele>1204.0</ele><time>2026-05-03T12:20:52.999Z</time></trkpt><trkpt lat="38.4908727750281" lon="16.366941217149755"><ele>1204.0</ele><time>2026-05-03T12:20:53.999Z</time></trkpt><trkpt lat="38.490949381734914" lon="16.366746807796257"><ele>1204.0</ele><time>2026-05-03T12:20:54.999Z</time></trkpt><trkpt lat="38.490952533321966" lon="16.366462537230397"><ele>1206.5</ele><time>2026-05-03T12:20:55.999Z</time></trkpt><trkpt lat="38.49098745779742" lon="16.36615253111107"><ele>1209.0</ele><time>2026-05-03T12:20:56.999Z</time></trkpt><trkpt lat="38.491012017597875" lon="16.365868357320128"><ele>1209.0</ele><time>2026-05-03T12:20:57.999Z</time></trkpt><trkpt lat="38.49102856519991" lon="16.365603031911316"><ele>1209.0</ele><time>2026-05-03T12:20:58.999Z</time></trkpt><trkpt lat="38.491009853012635" lon="16.36535858025138"><ele>1209.0</ele><time>2026-05-03T12:20:59.999Z</time></trkpt><trkpt lat="38.49095098388367" lon="16.365102175058592"><ele>1206.6666666666667</ele><time>2026-05-03T12:21:00.999Z</time></trkpt><trkpt lat="38.49088157305425" lon="16.36485692245426"><ele>1204.3333333333335</ele><time>2026-05-03T12:21:01.999Z</time></trkpt><trkpt lat="38.49084758530728" lon="16.364674345864604"><ele>1202.0</ele><time>2026-05-03T12:21:02.999Z</time></trkpt><trkpt lat="38.49078718195828" lon="16.36452405519056"><ele>1203.3333333333335</ele><time>2026-05-03T12:21:03.999Z</time></trkpt><trkpt lat="38.490678464360656" lon="16.364356502641513"><ele>1204.6666666666667</ele><time>2026-05-03T12:21:04.999Z</time></trkpt><trkpt lat="38.49050789840422" lon="16.364164105506376"><ele>1206.0</ele><time>2026-05-03T12:21:05.999Z</time></trkpt><trkpt lat="38.49035705475755" lon="16.36397867831039"><ele>1202.6666666666667</ele><time>2026-05-03T12:21:06.999Z</time></trkpt><trkpt lat="38.49021620894179" lon="16.36384129236823"><ele>1199.3333333333335</ele><time>2026-05-03T12:21:07.999Z</time></trkpt><trkpt lat="38.49006772136079" lon="16.363702364831937"><ele>1196.0</ele><time>2026-05-03T12:21:08.999Z</time></trkpt><trkpt lat="38.48995643219578" lon="16.363654461529904"><ele>1196.0</ele><time>2026-05-03T12:21:09.999Z</time></trkpt><trkpt lat="38.48988225827721" lon="16.363555744886334"><ele>1196.0</ele><time>2026-05-03T12:21:10.999Z</time></trkpt><trkpt lat="38.489850946585214" lon="16.363385054130408"><ele>1196.0</ele><time>2026-05-03T12:21:11.999Z</time></trkpt><trkpt lat="38.48988594101099" lon="16.363198439885906"><ele>1196.0</ele><time>2026-05-03T12:21:12.999Z</time></trkpt><trkpt lat="38.489923855540276" lon="16.363036648596808"><ele>1198.0</ele><time>2026-05-03T12:21:13.999Z</time></trkpt><trkpt lat="38.48999784083424" lon="16.362905488468083"><ele>1200.0</ele><time>2026-05-03T12:21:14.999Z</time></trkpt><trkpt lat="38.49011891397463" lon="16.362833996769172"><ele>1202.0</ele><time>2026-05-03T12:21:15.999Z</time></trkpt><trkpt lat="38.49027539399149" lon="16.362797361474122"><ele>1204.0</ele><time>2026-05-03T12:21:16.999Z</time></trkpt><trkpt lat="38.49041767441631" lon="16.362731206834106"><ele>1204.25</ele><time>2026-05-03T12:21:17.999Z</time></trkpt><trkpt lat="38.49048967431051" lon="16.3626149524366"><ele>1204.5</ele><time>2026-05-03T12:21:18.999Z</time></trkpt><trkpt lat="38.49055275003215" lon="16.362475081111402"><ele>1204.75</ele><time>2026-05-03T12:21:19.999Z</time></trkpt><trkpt lat="38.49058010029069" lon="16.362310790281274"><ele>1205.0</ele><time>2026-05-03T12:21:20.999Z</time></trkpt><trkpt lat="38.49061244257903" lon="16.362167847775126"><ele>1205.0</ele><time>2026-05-03T12:21:21.999Z</time></trkpt><trkpt lat="38.4906799757886" lon="16.362051344249785"><ele>1205.0</ele><time>2026-05-03T12:21:22.999Z</time></trkpt><trkpt lat="38.490777609105685" lon="16.361941631036306"><ele>1205.0</ele><time>2026-05-03T12:21:23.999Z</time></trkpt><trkpt lat="38.49090546453876" lon="16.361895970088487"><ele>1205.0</ele><time>2026-05-03T12:21:24.999Z</time></trkpt><trkpt lat="38.49103270344369" lon="16.361936458933148"><ele>1205.0</ele><time>2026-05-03T12:21:25.999Z</time></trkpt><trkpt lat="38.49117325782655" lon="16.362056335804034"><ele>1205.0</ele><time>2026-05-03T12:21:26.999Z</time></trkpt><trkpt lat="38.49128003168914" lon="16.362190594406492"><ele>1205.0</ele><time>2026-05-03T12:21:27.999Z</time></trkpt><trkpt lat="38.491392187320606" lon="16.362306924062477"><ele>1205.3333333333335</ele><time>2026-05-03T12:21:28.999Z</time></trkpt><trkpt lat="38.49154369792286" lon="16.36235869089266"><ele>1205.6666666666667</ele><time>2026-05-03T12:21:29.999Z</time></trkpt><trkpt lat="38.491671483390924" lon="16.362335197216257"><ele>1206.0</ele><time>2026-05-03T12:21:30.999Z</time></trkpt><trkpt lat="38.49184635492559" lon="16.362344532903414"><ele>1206.0</ele><time>2026-05-03T12:21:31.999Z</time></trkpt><trkpt lat="38.49199452890117" lon="16.36239715181591"><ele>1206.0</ele><time>2026-05-03T12:21:32.999Z</time></trkpt><trkpt lat="38.4921228491264" lon="16.362435501358135"><ele>1206.0</ele><time>2026-05-03T12:21:33.999Z</time></trkpt><trkpt lat="38.492249688237" lon="16.362433966088485"><ele>1206.0</ele><time>2026-05-03T12:21:34.999Z</time></trkpt><trkpt lat="38.49235241954415" lon="16.36240031051379"><ele>1209.25</ele><time>2026-05-03T12:21:35.999Z</time></trkpt><trkpt lat="38.492445929125374" lon="16.362344186829574"><ele>1212.5</ele><time>2026-05-03T12:21:36.999Z</time></trkpt><trkpt lat="38.4924922819422" lon="16.362236254052483"><ele>1215.75</ele><time>2026-05-03T12:21:37.999Z</time></trkpt><trkpt lat="38.492570840672855" lon="16.36205632915842"><ele>1219.0</ele><time>2026-05-03T12:21:38.999Z</time></trkpt><trkpt lat="38.49262485304662" lon="16.361812149364127"><ele>1223.0</ele><time>2026-05-03T12:21:39.999Z</time></trkpt><trkpt lat="38.492714650997144" lon="16.361535718567083"><ele>1227.0</ele><time>2026-05-03T12:21:40.999Z</time></trkpt><trkpt lat="38.49279973593427" lon="16.361253202100276"><ele>1227.5</ele><time>2026-05-03T12:21:41.999Z</time></trkpt><trkpt lat="38.49291391428511" lon="16.36098003774453"><ele>1228.0</ele><time>2026-05-03T12:21:42.999Z</time></trkpt><trkpt lat="38.492976485487354" lon="16.360715998524736"><ele>1229.6666666666665</ele><time>2026-05-03T12:21:43.999Z</time></trkpt><trkpt lat="38.493035687120525" lon="16.360480653472592"><ele>1231.3333333333333</ele><time>2026-05-03T12:21:44.999Z</time></trkpt><trkpt lat="38.49312407740265" lon="16.36022705947375"><ele>1233.0</ele><time>2026-05-03T12:21:45.999Z</time></trkpt><trkpt lat="38.49317693991563" lon="16.35998013990006"><ele>1233.0</ele><time>2026-05-03T12:21:46.999Z</time></trkpt><trkpt lat="38.493248326684764" lon="16.359773547920316"><ele>1233.0</ele><time>2026-05-03T12:21:47.999Z</time></trkpt><trkpt lat="38.4933431611164" lon="16.359593644838377"><ele>1233.0</ele><time>2026-05-03T12:21:48.999Z</time></trkpt><trkpt lat="38.49342251770051" lon="16.359457156197692"><ele>1234.6</ele><time>2026-05-03T12:21:49.999Z</time></trkpt><trkpt lat="38.493445448864485" lon="16.35936083451449"><ele>1236.1999999999998</ele><time>2026-05-03T12:21:50.999Z</time></trkpt><trkpt lat="38.49340624704704" lon="16.359238414756057"><ele>1237.8</ele><time>2026-05-03T12:21:51.999Z</time></trkpt><trkpt lat="38.493354025047566" lon="16.359082819320186"><ele>1239.3999999999999</ele><time>2026-05-03T12:21:52.999Z</time></trkpt><trkpt lat="38.49336150353348" lon="16.358980655159563"><ele>1241.0</ele><time>2026-05-03T12:21:53.999Z</time></trkpt><trkpt lat="38.49340944028619" lon="16.35890645558629"><ele>1241.0</ele><time>2026-05-03T12:21:54.999Z</time></trkpt><trkpt lat="38.49349497402969" lon="16.35891316938408"><ele>1241.0</ele><time>2026-05-03T12:21:55.999Z</time></trkpt><trkpt lat="38.49360983952327" lon="16.358942915757915"><ele>1241.0</ele><time>2026-05-03T12:21:56.999Z</time></trkpt><trkpt lat="38.493754008531425" lon="16.359069790324153"><ele>1241.0</ele><time>2026-05-03T12:21:57.999Z</time></trkpt><trkpt lat="38.49388492404446" lon="16.359107654260026"><ele>1239.3333333333335</ele><time>2026-05-03T12:21:58.999Z</time></trkpt><trkpt lat="38.49400978786109" lon="16.359071590966167"><ele>1237.6666666666667</ele><time>2026-05-03T12:21:59.999Z</time></trkpt><trkpt lat="38.49413857257728" lon="16.35896875641109"><ele>1236.0</ele><time>2026-05-03T12:22:00.999Z</time></trkpt><trkpt lat="38.4942536977792" lon="16.35880667664957"><ele>1238.75</ele><time>2026-05-03T12:22:01.999Z</time></trkpt><trkpt lat="38.49433154835248" lon="16.358670532064057"><ele>1241.5</ele><time>2026-05-03T12:22:02.999Z</time></trkpt><trkpt lat="38.49437843625461" lon="16.35855977795295"><ele>1244.25</ele><time>2026-05-03T12:22:03.999Z</time></trkpt><trkpt lat="38.494333446762575" lon="16.358298183488518"><ele>1247.0</ele><time>2026-05-03T12:22:04.999Z</time></trkpt><trkpt lat="38.49430841096627" lon="16.35802667429303"><ele>1248.6666666666667</ele><time>2026-05-03T12:22:05.999Z</time></trkpt><trkpt lat="38.494284757842706" lon="16.357788212427952"><ele>1250.3333333333333</ele><time>2026-05-03T12:22:06.999Z</time></trkpt><trkpt lat="38.49426747041234" lon="16.35760477838104"><ele>1252.0</ele><time>2026-05-03T12:22:07.999Z</time></trkpt><trkpt lat="38.49424906721309" lon="16.35745660497174"><ele>1252.0</ele><time>2026-05-03T12:22:08.999Z</time></trkpt><trkpt lat="38.49417865773645" lon="16.357350164227825"><ele>1252.0</ele><time>2026-05-03T12:22:09.999Z</time></trkpt><trkpt lat="38.49413652180345" lon="16.35725147948382"><ele>1252.0</ele><time>2026-05-03T12:22:10.999Z</time></trkpt><trkpt lat="38.49417286583896" lon="16.357149662667002"><ele>1252.0</ele><time>2026-05-03T12:22:11.999Z</time></trkpt><trkpt lat="38.4942368448278" lon="16.357085020123023"><ele>1252.0</ele><time>2026-05-03T12:22:12.999Z</time></trkpt><trkpt lat="38.494331421181215" lon="16.357030773036637"><ele>1253.0</ele><time>2026-05-03T12:22:13.999Z</time></trkpt><trkpt lat="38.49444771171726" lon="16.357036991957184"><ele>1254.0</ele><time>2026-05-03T12:22:14.999Z</time></trkpt><trkpt lat="38.49457824040786" lon="16.357079787390408"><ele>1255.0</ele><time>2026-05-03T12:22:15.999Z</time></trkpt><trkpt lat="38.49468565891145" lon="16.35705386149238"><ele>1256.0</ele><time>2026-05-03T12:22:16.999Z</time></trkpt><trkpt lat="38.49474425674854" lon="16.35694392893271"><ele>1252.0</ele><time>2026-05-03T12:22:17.999Z</time></trkpt><trkpt lat="38.49478251501794" lon="16.35677185714592"><ele>1248.0</ele><time>2026-05-03T12:22:18.999Z</time></trkpt><trkpt lat="38.4947580528118" lon="16.35653928995125"><ele>1244.0</ele><time>2026-05-03T12:22:19.999Z</time></trkpt><trkpt lat="38.49469457902479" lon="16.35635073856834"><ele>1244.0</ele><time>2026-05-03T12:22:20.999Z</time></trkpt><trkpt lat="38.49459129001159" lon="16.356226939745635"><ele>1244.0</ele><time>2026-05-03T12:22:21.999Z</time></trkpt><trkpt lat="38.494459489352934" lon="16.35617082489235"><ele>1244.0</ele><time>2026-05-03T12:22:22.999Z</time></trkpt><trkpt lat="38.49434341946865" lon="16.35613028916733"><ele>1244.0</ele><time>2026-05-03T12:22:23.999Z</time></trkpt><trkpt lat="38.4942692882896" lon="16.35603844438736"><ele>1249.25</ele><time>2026-05-03T12:22:24.999Z</time></trkpt><trkpt lat="38.49425481338471" lon="16.355931631131472"><ele>1254.5</ele><time>2026-05-03T12:22:25.999Z</time></trkpt><trkpt lat="38.49432743411237" lon="16.355804105326456"><ele>1259.75</ele><time>2026-05-03T12:22:26.999Z</time></trkpt><trkpt lat="38.49441881633372" lon="16.35563666789967"><ele>1265.0</ele><time>2026-05-03T12:22:27.999Z</time></trkpt><trkpt lat="38.49450779733515" lon="16.355490357683472"><ele>1263.25</ele><time>2026-05-03T12:22:28.999Z</time></trkpt><trkpt lat="38.49462815448904" lon="16.355409244094243"><ele>1261.5</ele><time>2026-05-03T12:22:29.999Z</time></trkpt><trkpt lat="38.49472195647456" lon="16.355329294663687"><ele>1259.75</ele><time>2026-05-03T12:22:30.999Z</time></trkpt><trkpt lat="38.49478728021198" lon="16.355208339643163"><ele>1258.0</ele><time>2026-05-03T12:22:31.999Z</time></trkpt><trkpt lat="38.49482096000961" lon="16.35504077748029"><ele>1258.0</ele><time>2026-05-03T12:22:32.999Z</time></trkpt><trkpt lat="38.49482815707165" lon="16.354795523977813"><ele>1258.0</ele><time>2026-05-03T12:22:33.999Z</time></trkpt><trkpt lat="38.49482636698264" lon="16.35460448573519"><ele>1258.0</ele><time>2026-05-03T12:22:34.999Z</time></trkpt><trkpt lat="38.49481714055758" lon="16.354436274109634"><ele>1261.0</ele><time>2026-05-03T12:22:35.999Z</time></trkpt><trkpt lat="38.494839129570806" lon="16.354343624588353"><ele>1264.0</ele><time>2026-05-03T12:22:36.999Z</time></trkpt><trkpt lat="38.494887767027535" lon="16.354274115898704"><ele>1267.0</ele><time>2026-05-03T12:22:37.999Z</time></trkpt><trkpt lat="38.49496906733614" lon="16.354234824642518"><ele>1270.0</ele><time>2026-05-03T12:22:38.999Z</time></trkpt><trkpt lat="38.49510079294829" lon="16.354261546227416"><ele>1273.0</ele><time>2026-05-03T12:22:39.999Z</time></trkpt><trkpt lat="38.49521823966351" lon="16.354339953428504"><ele>1273.0</ele><time>2026-05-03T12:22:40.999Z</time></trkpt><trkpt lat="38.49534795666835" lon="16.354266635729324"><ele>1273.0</ele><time>2026-05-03T12:22:41.999Z</time></trkpt><trkpt lat="38.49548586045193" lon="16.35411089015831"><ele>1273.0</ele><time>2026-05-03T12:22:42.999Z</time></trkpt><trkpt lat="38.49565819323844" lon="16.35404444321663"><ele>1275.5</ele><time>2026-05-03T12:22:43.999Z</time></trkpt><trkpt lat="38.495771883196205" lon="16.353968188810892"><ele>1278.0</ele><time>2026-05-03T12:22:44.999Z</time></trkpt><trkpt lat="38.49583075387867" lon="16.353832300236828"><ele>1280.5</ele><time>2026-05-03T12:22:45.999Z</time></trkpt><trkpt lat="38.49586029007392" lon="16.353632102032112"><ele>1283.0</ele><time>2026-05-03T12:22:46.999Z</time></trkpt><trkpt lat="38.495914950169364" lon="16.353430781963922"><ele>1283.0</ele><time>2026-05-03T12:22:47.999Z</time></trkpt><trkpt lat="38.49597296936401" lon="16.353250419599252"><ele>1283.0</ele><time>2026-05-03T12:22:48.999Z</time></trkpt><trkpt lat="38.496007146633616" lon="16.353132663959073"><ele>1283.0</ele><time>2026-05-03T12:22:49.999Z</time></trkpt><trkpt lat="38.496086538051344" lon="16.353053481378044"><ele>1283.0</ele><time>2026-05-03T12:22:50.999Z</time></trkpt><trkpt lat="38.49617256012172" lon="16.353036218416943"><ele>1283.0</ele><time>2026-05-03T12:22:51.999Z</time></trkpt><trkpt lat="38.49623252359929" lon="16.353144426261462"><ele>1282.75</ele><time>2026-05-03T12:22:52.999Z</time></trkpt><trkpt lat="38.49628962853078" lon="16.353271337578107"><ele>1282.5</ele><time>2026-05-03T12:22:53.999Z</time></trkpt><trkpt lat="38.496386948995394" lon="16.353434428572065"><ele>1282.25</ele><time>2026-05-03T12:22:54.999Z</time></trkpt><trkpt lat="38.4965085239704" lon="16.353558911986106"><ele>1282.0</ele><time>2026-05-03T12:22:55.999Z</time></trkpt><trkpt lat="38.4966643813618" lon="16.353568841111837"><ele>1282.0</ele><time>2026-05-03T12:22:56.999Z</time></trkpt><trkpt lat="38.496783030001424" lon="16.35353616702051"><ele>1282.0</ele><time>2026-05-03T12:22:57.999Z</time></trkpt><trkpt lat="38.496866193253275" lon="16.35340650134955"><ele>1282.0</ele><time>2026-05-03T12:22:58.999Z</time></trkpt><trkpt lat="38.49692338255796" lon="16.353247320316143"><ele>1282.0</ele><time>2026-05-03T12:22:59.999Z</time></trkpt><trkpt lat="38.49693120358896" lon="16.35307387865092"><ele>1285.6</ele><time>2026-05-03T12:23:00.999Z</time></trkpt><trkpt lat="38.49689941317609" lon="16.352892866589237"><ele>1289.1999999999998</ele><time>2026-05-03T12:23:01.999Z</time></trkpt><trkpt lat="38.49688478852521" lon="16.352778101252447"><ele>1292.8</ele><time>2026-05-03T12:23:02.999Z</time></trkpt><trkpt lat="38.496936272674986" lon="16.352729544380917"><ele>1296.4</ele><time>2026-05-03T12:23:03.999Z</time></trkpt><trkpt lat="38.4970153218024" lon="16.35273855100316"><ele>1300.0</ele><time>2026-05-03T12:23:04.999Z</time></trkpt><trkpt lat="38.49715164901456" lon="16.352796458324267"><ele>1300.3333333333333</ele><time>2026-05-03T12:23:05.999Z</time></trkpt><trkpt lat="38.497316740511586" lon="16.352888423607688"><ele>1300.6666666666667</ele><time>2026-05-03T12:23:06.999Z</time></trkpt><trkpt lat="38.49746600126353" lon="16.352984102281752"><ele>1301.0</ele><time>2026-05-03T12:23:07.999Z</time></trkpt><trkpt lat="38.497577058208954" lon="16.353070669120967"><ele>1298.0</ele><time>2026-05-03T12:23:08.999Z</time></trkpt><trkpt lat="38.49764793549809" lon="16.353199852347412"><ele>1295.0</ele><time>2026-05-03T12:23:09.999Z</time></trkpt><trkpt lat="38.49766158228318" lon="16.353348035362004"><ele>1292.0</ele><time>2026-05-03T12:23:10.999Z</time></trkpt><trkpt lat="38.49761298011489" lon="16.353528334659874"><ele>1289.0</ele><time>2026-05-03T12:23:11.999Z</time></trkpt><trkpt lat="38.49754882896887" lon="16.35372344461841"><ele>1286.6666666666667</ele><time>2026-05-03T12:23:12.999Z</time></trkpt><trkpt lat="38.49754683078808" lon="16.353953489890554"><ele>1284.3333333333333</ele><time>2026-05-03T12:23:13.999Z</time></trkpt><trkpt lat="38.49760707196798" lon="16.354205228674104"><ele>1282.0</ele><time>2026-05-03T12:23:14.999Z</time></trkpt><trkpt lat="38.497726992613664" lon="16.35440953108503"><ele>1282.0</ele><time>2026-05-03T12:23:15.999Z</time></trkpt><trkpt lat="38.49788339672375" lon="16.354584030928425"><ele>1282.0</ele><time>2026-05-03T12:23:16.999Z</time></trkpt><trkpt lat="38.498078386493546" lon="16.354749684534593"><ele>1282.0</ele><time>2026-05-03T12:23:17.999Z</time></trkpt><trkpt lat="38.498257304520685" lon="16.354907258038455"><ele>1284.25</ele><time>2026-05-03T12:23:18.999Z</time></trkpt><trkpt lat="38.498413156873106" lon="16.355003055330517"><ele>1286.5</ele><time>2026-05-03T12:23:19.999Z</time></trkpt><trkpt lat="38.49852565047958" lon="16.354986351200992"><ele>1288.75</ele><time>2026-05-03T12:23:20.999Z</time></trkpt><trkpt lat="38.49861091474849" lon="16.354921690729743"><ele>1291.0</ele><time>2026-05-03T12:23:21.999Z</time></trkpt><trkpt lat="38.49866704119516" lon="16.35479126885147"><ele>1296.0</ele><time>2026-05-03T12:23:22.999Z</time></trkpt><trkpt lat="38.49869802222986" lon="16.354618122683952"><ele>1301.0</ele><time>2026-05-03T12:23:23.999Z</time></trkpt><trkpt lat="38.49870591053969" lon="16.354388785178394"><ele>1306.0</ele><time>2026-05-03T12:23:24.999Z</time></trkpt><trkpt lat="38.49871169941885" lon="16.35419554688003"><ele>1306.0</ele><time>2026-05-03T12:23:25.999Z</time></trkpt><trkpt lat="38.49872512554705" lon="16.354059326481572"><ele>1306.0</ele><time>2026-05-03T12:23:26.999Z</time></trkpt><trkpt lat="38.49876819206485" lon="16.3539839009079"><ele>1306.0</ele><time>2026-05-03T12:23:27.999Z</time></trkpt><trkpt lat="38.49887911287519" lon="16.353978673583303"><ele>1306.0</ele><time>2026-05-03T12:23:28.999Z</time></trkpt><trkpt lat="38.49896396837471" lon="16.353993690814658"><ele>1306.0</ele><time>2026-05-03T12:23:29.999Z</time></trkpt><trkpt lat="38.49900764822908" lon="16.354110603101095"><ele>1307.0</ele><time>2026-05-03T12:23:30.999Z</time></trkpt><trkpt lat="38.499100199134666" lon="16.35419639954286"><ele>1308.0</ele><time>2026-05-03T12:23:31.999Z</time></trkpt><trkpt lat="38.499229097102386" lon="16.354305632288693"><ele>1309.0</ele><time>2026-05-03T12:23:32.999Z</time></trkpt><trkpt lat="38.49935052951874" lon="16.354343760172643"><ele>1310.0</ele><time>2026-05-03T12:23:33.999Z</time></trkpt><trkpt lat="38.499453856808536" lon="16.3543543777946"><ele>1310.0</ele><time>2026-05-03T12:23:34.999Z</time></trkpt><trkpt lat="38.499583284401844" lon="16.354304439292076"><ele>1310.0</ele><time>2026-05-03T12:23:35.999Z</time></trkpt><trkpt lat="38.499679441400644" lon="16.354238203610308"><ele>1310.0</ele><time>2026-05-03T12:23:36.999Z</time></trkpt><trkpt lat="38.49978373436109" lon="16.35423432426598"><ele>1310.0</ele><time>2026-05-03T12:23:37.999Z</time></trkpt><trkpt lat="38.49987122914589" lon="16.35431535732993"><ele>1312.25</ele><time>2026-05-03T12:23:38.999Z</time></trkpt><trkpt lat="38.499939532087375" lon="16.354437860270068"><ele>1314.5</ele><time>2026-05-03T12:23:39.999Z</time></trkpt><trkpt lat="38.499992948600784" lon="16.354577267592717"><ele>1316.75</ele><time>2026-05-03T12:23:40.999Z</time></trkpt><trkpt lat="38.500084273842845" lon="16.354630973288785"><ele>1319.0</ele><time>2026-05-03T12:23:41.999Z</time></trkpt><trkpt lat="38.500201731523674" lon="16.354536944851535"><ele>1319.0</ele><time>2026-05-03T12:23:42.999Z</time></trkpt><trkpt lat="38.50029591233057" lon="16.354434519164858"><ele>1319.0</ele><time>2026-05-03T12:23:43.999Z</time></trkpt><trkpt lat="38.50035020810205" lon="16.354293866870087"><ele>1319.0</ele><time>2026-05-03T12:23:44.999Z</time></trkpt><trkpt lat="38.5003886738461" lon="16.354165887527675"><ele>1319.0</ele><time>2026-05-03T12:23:45.999Z</time></trkpt><trkpt lat="38.500464771222305" lon="16.354073227824657"><ele>1316.75</ele><time>2026-05-03T12:23:46.999Z</time></trkpt><trkpt lat="38.50060992160681" lon="16.353936378305402"><ele>1314.5</ele><time>2026-05-03T12:23:47.999Z</time></trkpt><trkpt lat="38.50068127724529" lon="16.353801817025893"><ele>1312.25</ele><time>2026-05-03T12:23:48.999Z</time></trkpt><trkpt lat="38.50076809265261" lon="16.35367346135176"><ele>1310.0</ele><time>2026-05-03T12:23:49.999Z</time></trkpt><trkpt lat="38.50085371853472" lon="16.353534060605394"><ele>1315.75</ele><time>2026-05-03T12:23:50.999Z</time></trkpt><trkpt lat="38.50096730958502" lon="16.35343447962083"><ele>1321.5</ele><time>2026-05-03T12:23:51.999Z</time></trkpt><trkpt lat="38.501099143698546" lon="16.353389014384007"><ele>1327.25</ele><time>2026-05-03T12:23:52.999Z</time></trkpt><trkpt lat="38.501200283602955" lon="16.35337452443663"><ele>1333.0</ele><time>2026-05-03T12:23:53.999Z</time></trkpt><trkpt lat="38.50118013065768" lon="16.353185914813974"><ele>1333.0</ele><time>2026-05-03T12:23:55.999Z</time></trkpt><trkpt lat="38.50122844502356" lon="16.35299687519463"><ele>1333.0</ele><time>2026-05-03T12:23:56.999Z</time></trkpt><trkpt lat="38.5012667027953" lon="16.352851186573748"><ele>1333.0</ele><time>2026-05-03T12:23:57.999Z</time></trkpt><trkpt lat="38.50132578277572" lon="16.352726829208496"><ele>1333.0</ele><time>2026-05-03T12:23:58.999Z</time></trkpt><trkpt lat="38.501407877029365" lon="16.35265098287225"><ele>1333.0</ele><time>2026-05-03T12:23:59.999Z</time></trkpt><trkpt lat="38.50153693982139" lon="16.352603483329897"><ele>1333.0</ele><time>2026-05-03T12:24:00.999Z</time></trkpt><trkpt lat="38.50167255445833" lon="16.35258945771377"><ele>1333.0</ele><time>2026-05-03T12:24:01.999Z</time></trkpt><trkpt lat="38.50179911208452" lon="16.352602225312133"><ele>1333.0</ele><time>2026-05-03T12:24:02.999Z</time></trkpt><trkpt lat="38.50188568017201" lon="16.35260293951538"><ele>1333.0</ele><time>2026-05-03T12:24:03.999Z</time></trkpt><trkpt lat="38.50198181891885" lon="16.35256718884152"><ele>1333.0</ele><time>2026-05-03T12:24:04.999Z</time></trkpt><trkpt lat="38.502069025060564" lon="16.35242839141479"><ele>1333.0</ele><time>2026-05-03T12:24:05.999Z</time></trkpt><trkpt lat="38.5021465167499" lon="16.352298093903556"><ele>1333.0</ele><time>2026-05-03T12:24:06.999Z</time></trkpt><trkpt lat="38.50225821044194" lon="16.35223110035042"><ele>1333.75</ele><time>2026-05-03T12:24:07.999Z</time></trkpt><trkpt lat="38.50236788258091" lon="16.352204128205052"><ele>1334.5</ele><time>2026-05-03T12:24:08.999Z</time></trkpt><trkpt lat="38.50247267951305" lon="16.352162785905353"><ele>1335.25</ele><time>2026-05-03T12:24:09.999Z</time></trkpt><trkpt lat="38.50255570735817" lon="16.352060544291334"><ele>1336.0</ele><time>2026-05-03T12:24:10.999Z</time></trkpt><trkpt lat="38.50256391632935" lon="16.351907837040084"><ele>1336.0</ele><time>2026-05-03T12:24:11.999Z</time></trkpt><trkpt lat="38.502627222760765" lon="16.351743927984472"><ele>1336.0</ele><time>2026-05-03T12:24:12.999Z</time></trkpt><trkpt lat="38.502690223595565" lon="16.35161211681494"><ele>1336.0</ele><time>2026-05-03T12:24:13.999Z</time></trkpt><trkpt lat="38.50275432697877" lon="16.351528615227686"><ele>1336.0</ele><time>2026-05-03T12:24:14.999Z</time></trkpt><trkpt lat="38.5028389519643" lon="16.35144783380033"><ele>1337.5</ele><time>2026-05-03T12:24:15.999Z</time></trkpt><trkpt lat="38.50294950271951" lon="16.351392863997077"><ele>1339.0</ele><time>2026-05-03T12:24:16.999Z</time></trkpt><trkpt lat="38.50306090056971" lon="16.351361885804927"><ele>1340.5</ele><time>2026-05-03T12:24:17.999Z</time></trkpt><trkpt lat="38.503177915147766" lon="16.35136718912519"><ele>1342.0</ele><time>2026-05-03T12:24:18.999Z</time></trkpt><trkpt lat="38.50328038409043" lon="16.35141482918101"><ele>1342.0</ele><time>2026-05-03T12:24:19.999Z</time></trkpt><trkpt lat="38.50337287551371" lon="16.351537652567448"><ele>1342.0</ele><time>2026-05-03T12:24:21Z</time></trkpt><trkpt lat="38.50347828566947" lon="16.351712618930314"><ele>1342.0</ele><time>2026-05-03T12:24:22Z</time></trkpt><trkpt lat="38.503585462876984" lon="16.351966260243014"><ele>1342.0</ele><time>2026-05-03T12:24:23Z</time></trkpt><trkpt lat="38.503703671241205" lon="16.352146085503623"><ele>1342.0</ele><time>2026-05-03T12:24:24Z</time></trkpt><trkpt lat="38.50380910498954" lon="16.352411556659757"><ele>1342.0</ele><time>2026-05-03T12:24:25Z</time></trkpt><trkpt lat="38.50391562914674" lon="16.35262522497752"><ele>1339.6666666666665</ele><time>2026-05-03T12:24:26Z</time></trkpt><trkpt lat="38.50404253802733" lon="16.35279224459255"><ele>1337.3333333333333</ele><time>2026-05-03T12:24:27Z</time></trkpt><trkpt lat="38.504151384547285" lon="16.352926464472848"><ele>1335.0</ele><time>2026-05-03T12:24:28Z</time></trkpt><trkpt lat="38.504199789976056" lon="16.353072474206044"><ele>1335.0</ele><time>2026-05-03T12:24:29Z</time></trkpt><trkpt lat="38.50425238682275" lon="16.35316786209708"><ele>1335.0</ele><time>2026-05-03T12:24:30Z</time></trkpt><trkpt lat="38.50434220107115" lon="16.353185675425408"><ele>1335.0</ele><time>2026-05-03T12:24:31Z</time></trkpt><trkpt lat="38.504463076187385" lon="16.353143308134236"><ele>1335.0</ele><time>2026-05-03T12:24:32Z</time></trkpt><trkpt lat="38.50463378147304" lon="16.353096463699174"><ele>1340.3333333333333</ele><time>2026-05-03T12:24:33Z</time></trkpt><trkpt lat="38.50479875275829" lon="16.353108832589907"><ele>1345.6666666666665</ele><time>2026-05-03T12:24:34Z</time></trkpt><trkpt lat="38.504957394060646" lon="16.3531332409755"><ele>1351.0</ele><time>2026-05-03T12:24:35Z</time></trkpt><trkpt lat="38.50510180099006" lon="16.35313693410504"><ele>1351.0</ele><time>2026-05-03T12:24:36Z</time></trkpt><trkpt lat="38.5052085470022" lon="16.35318653694277"><ele>1351.0</ele><time>2026-05-03T12:24:37Z</time></trkpt><trkpt lat="38.50526687952365" lon="16.35327909177446"><ele>1351.0</ele><time>2026-05-03T12:24:38Z</time></trkpt><trkpt lat="38.50532152502481" lon="16.35337242917071"><ele>1351.0</ele><time>2026-05-03T12:24:39Z</time></trkpt><trkpt lat="38.50528004026437" lon="16.353573330546826"><ele>1351.0</ele><time>2026-05-03T12:24:40Z</time></trkpt><trkpt lat="38.50521075442947" lon="16.353792878104585"><ele>1351.0</ele><time>2026-05-03T12:24:41Z</time></trkpt><trkpt lat="38.50521708614037" lon="16.35404017688642"><ele>1351.0</ele><time>2026-05-03T12:24:42Z</time></trkpt><trkpt lat="38.50525841399148" lon="16.35431659890914"><ele>1350.5</ele><time>2026-05-03T12:24:43Z</time></trkpt><trkpt lat="38.505270020378454" lon="16.35453542044147"><ele>1350.0</ele><time>2026-05-03T12:24:44Z</time></trkpt><trkpt lat="38.505309759201666" lon="16.354684103592373"><ele>1349.5</ele><time>2026-05-03T12:24:45Z</time></trkpt><trkpt lat="38.50540284186742" lon="16.354809527598427"><ele>1349.0</ele><time>2026-05-03T12:24:46Z</time></trkpt><trkpt lat="38.505524644058056" lon="16.35490470753033"><ele>1349.0</ele><time>2026-05-03T12:24:47Z</time></trkpt><trkpt lat="38.50565596395853" lon="16.354946408920746"><ele>1349.0</ele><time>2026-05-03T12:24:48Z</time></trkpt><trkpt lat="38.505797104100935" lon="16.354926144084157"><ele>1349.0</ele><time>2026-05-03T12:24:49Z</time></trkpt><trkpt lat="38.50598191426555" lon="16.354878713924364"><ele>1349.0</ele><time>2026-05-03T12:24:50Z</time></trkpt><trkpt lat="38.506203134117754" lon="16.354798018804214"><ele>1349.0</ele><time>2026-05-03T12:24:51Z</time></trkpt><trkpt lat="38.50637571715919" lon="16.35477911053134"><ele>1349.0</ele><time>2026-05-03T12:24:52Z</time></trkpt><trkpt lat="38.50651498627339" lon="16.35483043431713"><ele>1347.0</ele><time>2026-05-03T12:24:53Z</time></trkpt><trkpt lat="38.50664496598429" lon="16.35494449352111"><ele>1345.0</ele><time>2026-05-03T12:24:54Z</time></trkpt><trkpt lat="38.50675051103191" lon="16.3551227354267"><ele>1343.0</ele><time>2026-05-03T12:24:55Z</time></trkpt><trkpt lat="38.50685469609745" lon="16.35524652023533"><ele>1343.0</ele><time>2026-05-03T12:24:56Z</time></trkpt><trkpt lat="38.50696260861362" lon="16.355255560141064"><ele>1343.0</ele><time>2026-05-03T12:24:57Z</time></trkpt><trkpt lat="38.507086398537865" lon="16.355199148864052"><ele>1343.0</ele><time>2026-05-03T12:24:58Z</time></trkpt><trkpt lat="38.50718406280652" lon="16.355211124137274"><ele>1343.0</ele><time>2026-05-03T12:24:59Z</time></trkpt><trkpt lat="38.507254601779195" lon="16.35531457217613"><ele>1343.0</ele><time>2026-05-03T12:25:00Z</time></trkpt><trkpt lat="38.50731432231098" lon="16.35552035095245"><ele>1340.0</ele><time>2026-05-03T12:25:01Z</time></trkpt><trkpt lat="38.50739196308375" lon="16.3556997016843"><ele>1337.0</ele><time>2026-05-03T12:25:02Z</time></trkpt><trkpt lat="38.50751154559451" lon="16.355816953360286"><ele>1334.0</ele><time>2026-05-03T12:25:03Z</time></trkpt><trkpt lat="38.50765434130026" lon="16.35587787262927"><ele>1334.0</ele><time>2026-05-03T12:25:04Z</time></trkpt><trkpt lat="38.50780779474942" lon="16.355857544420097"><ele>1334.0</ele><time>2026-05-03T12:25:05Z</time></trkpt><trkpt lat="38.50797320514091" lon="16.355755072475123"><ele>1334.0</ele><time>2026-05-03T12:25:06Z</time></trkpt><trkpt lat="38.50814665981891" lon="16.355712729667736"><ele>1333.0</ele><time>2026-05-03T12:25:07Z</time></trkpt><trkpt lat="38.50840527537035" lon="16.355678823198346"><ele>1332.0</ele><time>2026-05-03T12:25:08Z</time></trkpt><trkpt lat="38.50859510582793" lon="16.3556901875471"><ele>1332.0</ele><time>2026-05-03T12:25:09Z</time></trkpt><trkpt lat="38.50873711890847" lon="16.355680364755653"><ele>1332.0</ele><time>2026-05-03T12:25:10Z</time></trkpt><trkpt lat="38.50884398352805" lon="16.35559448468179"><ele>1332.0</ele><time>2026-05-03T12:25:11Z</time></trkpt><trkpt lat="38.50894492261244" lon="16.3554777694533"><ele>1332.0</ele><time>2026-05-03T12:25:12Z</time></trkpt><trkpt lat="38.50900494811237" lon="16.355326828536104"><ele>1327.0</ele><time>2026-05-03T12:25:13Z</time></trkpt><trkpt lat="38.508980228499674" lon="16.35515551428185"><ele>1322.0</ele><time>2026-05-03T12:25:14Z</time></trkpt><trkpt lat="38.50888494212306" lon="16.354969021765058"><ele>1317.0</ele><time>2026-05-03T12:25:15Z</time></trkpt><trkpt lat="38.50879435372368" lon="16.354798815770373"><ele>1316.3333333333333</ele><time>2026-05-03T12:25:16Z</time></trkpt><trkpt lat="38.50874625677804" lon="16.3546319047931"><ele>1315.6666666666665</ele><time>2026-05-03T12:25:17Z</time></trkpt><trkpt lat="38.50873208779843" lon="16.354415817692548"><ele>1315.0</ele><time>2026-05-03T12:25:18Z</time></trkpt><trkpt lat="38.50878033667865" lon="16.354172033993738"><ele>1315.0</ele><time>2026-05-03T12:25:19Z</time></trkpt><trkpt lat="38.50882881908499" lon="16.35394092859325"><ele>1315.0</ele><time>2026-05-03T12:25:20Z</time></trkpt><trkpt lat="38.50885321957425" lon="16.353762028236346"><ele>1315.0</ele><time>2026-05-03T12:25:21Z</time></trkpt><trkpt lat="38.50884569373276" lon="16.353551002704208"><ele>1315.25</ele><time>2026-05-03T12:25:22Z</time></trkpt><trkpt lat="38.508817745598115" lon="16.353352731309442"><ele>1315.5</ele><time>2026-05-03T12:25:23Z</time></trkpt><trkpt lat="38.508719475361296" lon="16.353182426824365"><ele>1315.75</ele><time>2026-05-03T12:25:24Z</time></trkpt><trkpt lat="38.508662985439926" lon="16.35304634678871"><ele>1316.0</ele><time>2026-05-03T12:25:25Z</time></trkpt><trkpt lat="38.50861023249192" lon="16.352932177573027"><ele>1319.25</ele><time>2026-05-03T12:25:26Z</time></trkpt><trkpt lat="38.50862174287553" lon="16.35281210742228"><ele>1322.5</ele><time>2026-05-03T12:25:27Z</time></trkpt><trkpt lat="38.50871088444909" lon="16.352710912322078"><ele>1325.75</ele><time>2026-05-03T12:25:28Z</time></trkpt><trkpt lat="38.50885996042746" lon="16.352641353310702"><ele>1329.0</ele><time>2026-05-03T12:25:29Z</time></trkpt><trkpt lat="38.50900066871198" lon="16.35258265183047"><ele>1329.0</ele><time>2026-05-03T12:25:30Z</time></trkpt><trkpt lat="38.50918735431369" lon="16.35254395649461"><ele>1329.0</ele><time>2026-05-03T12:25:31Z</time></trkpt><trkpt lat="38.509354101076994" lon="16.35250901889815"><ele>1329.0</ele><time>2026-05-03T12:25:32Z</time></trkpt><trkpt lat="38.509532190482005" lon="16.352431166900836"><ele>1328.3333333333333</ele><time>2026-05-03T12:25:33Z</time></trkpt><trkpt lat="38.50972121877366" lon="16.35229351432392"><ele>1327.6666666666665</ele><time>2026-05-03T12:25:34Z</time></trkpt><trkpt lat="38.50986797745468" lon="16.352144514770824"><ele>1327.0</ele><time>2026-05-03T12:25:35Z</time></trkpt><trkpt lat="38.51001763411341" lon="16.352033628682022"><ele>1327.0</ele><time>2026-05-03T12:25:36Z</time></trkpt><trkpt lat="38.51017613236221" lon="16.351935096458696"><ele>1327.0</ele><time>2026-05-03T12:25:37Z</time></trkpt><trkpt lat="38.51035315781583" lon="16.351891640317557"><ele>1327.0</ele><time>2026-05-03T12:25:38Z</time></trkpt><trkpt lat="38.510543972703246" lon="16.351890236863873"><ele>1324.3333333333333</ele><time>2026-05-03T12:25:39Z</time></trkpt><trkpt lat="38.510767839848846" lon="16.351895742738602"><ele>1321.6666666666667</ele><time>2026-05-03T12:25:40Z</time></trkpt><trkpt lat="38.510949108843185" lon="16.351887235490373"><ele>1319.0</ele><time>2026-05-03T12:25:41Z</time></trkpt><trkpt lat="38.51107933430349" lon="16.351844019350544"><ele>1319.0</ele><time>2026-05-03T12:25:42Z</time></trkpt><trkpt lat="38.51117771127875" lon="16.35174936384129"><ele>1319.0</ele><time>2026-05-03T12:25:43Z</time></trkpt><trkpt lat="38.511257334308326" lon="16.35157496492396"><ele>1319.0</ele><time>2026-05-03T12:25:44Z</time></trkpt><trkpt lat="38.51133157720657" lon="16.35133872001075"><ele>1318.0</ele><time>2026-05-03T12:25:45Z</time></trkpt><trkpt lat="38.51137972907605" lon="16.351115326077124"><ele>1317.0</ele><time>2026-05-03T12:25:46Z</time></trkpt><trkpt lat="38.51141278373365" lon="16.35095078959203"><ele>1316.0</ele><time>2026-05-03T12:25:47Z</time></trkpt><trkpt lat="38.511423383369575" lon="16.350859544361157"><ele>1315.0</ele><time>2026-05-03T12:25:48Z</time></trkpt><trkpt lat="38.51147392389206" lon="16.350806154003802"><ele>1315.0</ele><time>2026-05-03T12:25:49Z</time></trkpt><trkpt lat="38.511600752891844" lon="16.35081311794693"><ele>1315.0</ele><time>2026-05-03T12:25:50Z</time></trkpt><trkpt lat="38.511731537836184" lon="16.350919753157655"><ele>1315.0</ele><time>2026-05-03T12:25:51Z</time></trkpt><trkpt lat="38.51179328491053" lon="16.35107613655753"><ele>1315.0</ele><time>2026-05-03T12:25:52Z</time></trkpt><trkpt lat="38.51185122262571" lon="16.35125010679622"><ele>1315.0</ele><time>2026-05-03T12:25:53Z</time></trkpt><trkpt lat="38.51196774012093" lon="16.351367484985172"><ele>1315.0</ele><time>2026-05-03T12:25:54Z</time></trkpt><trkpt lat="38.512135598019384" lon="16.351434421104518"><ele>1315.0</ele><time>2026-05-03T12:25:55Z</time></trkpt><trkpt lat="38.51228492046624" lon="16.351446003576502"><ele>1312.75</ele><time>2026-05-03T12:25:56Z</time></trkpt><trkpt lat="38.51240987057219" lon="16.351392600159976"><ele>1310.5</ele><time>2026-05-03T12:25:57Z</time></trkpt><trkpt lat="38.512458277474835" lon="16.35120759048416"><ele>1308.25</ele><time>2026-05-03T12:25:57.999Z</time></trkpt><trkpt lat="38.51248452762379" lon="16.351011871816596"><ele>1306.0</ele><time>2026-05-03T12:25:58.999Z</time></trkpt><trkpt lat="38.51249333125433" lon="16.350785322275968"><ele>1308.3333333333333</ele><time>2026-05-03T12:25:59.999Z</time></trkpt><trkpt lat="38.51249083792592" lon="16.350535508704365"><ele>1310.6666666666667</ele><time>2026-05-03T12:26:00.999Z</time></trkpt><trkpt lat="38.512493242057815" lon="16.350366383681163"><ele>1313.0</ele><time>2026-05-03T12:26:01.999Z</time></trkpt><trkpt lat="38.51253701308516" lon="16.350183627796287"><ele>1313.0</ele><time>2026-05-03T12:26:02.999Z</time></trkpt><trkpt lat="38.51263089870885" lon="16.350032226656037"><ele>1313.0</ele><time>2026-05-03T12:26:03.999Z</time></trkpt><trkpt lat="38.51277204205532" lon="16.349897741638813"><ele>1313.0</ele><time>2026-05-03T12:26:04.999Z</time></trkpt><trkpt lat="38.51297072898123" lon="16.349827998290504"><ele>1312.0</ele><time>2026-05-03T12:26:05.999Z</time></trkpt><trkpt lat="38.51316097044756" lon="16.34969208923124"><ele>1311.0</ele><time>2026-05-03T12:26:06.999Z</time></trkpt><trkpt lat="38.513322604672325" lon="16.349515488091978"><ele>1310.0</ele><time>2026-05-03T12:26:07.999Z</time></trkpt><trkpt lat="38.51341380034404" lon="16.349244240322328"><ele>1310.0</ele><time>2026-05-03T12:26:08.999Z</time></trkpt><trkpt lat="38.513534804444355" lon="16.349059600172996"><ele>1310.0</ele><time>2026-05-03T12:26:09.999Z</time></trkpt><trkpt lat="38.513591177922436" lon="16.348898043229507"><ele>1310.0</ele><time>2026-05-03T12:26:10.999Z</time></trkpt><trkpt lat="38.513589560781874" lon="16.348730254037502"><ele>1310.0</ele><time>2026-05-03T12:26:11.999Z</time></trkpt><trkpt lat="38.51355413795945" lon="16.34852733368339"><ele>1310.0</ele><time>2026-05-03T12:26:12.999Z</time></trkpt><trkpt lat="38.513515557422416" lon="16.34836943854316"><ele>1310.0</ele><time>2026-05-03T12:26:13.999Z</time></trkpt><trkpt lat="38.51349947752751" lon="16.3481851660986"><ele>1310.0</ele><time>2026-05-03T12:26:14.999Z</time></trkpt><trkpt lat="38.5134876344086" lon="16.348012002361415"><ele>1308.5</ele><time>2026-05-03T12:26:15.999Z</time></trkpt><trkpt lat="38.51357992281569" lon="16.34776687947198"><ele>1307.0</ele><time>2026-05-03T12:26:16.999Z</time></trkpt><trkpt lat="38.51368804151891" lon="16.347446385477333"><ele>1309.3333333333335</ele><time>2026-05-03T12:26:17.999Z</time></trkpt><trkpt lat="38.51377147398752" lon="16.34715590228099"><ele>1311.6666666666667</ele><time>2026-05-03T12:26:18.999Z</time></trkpt><trkpt lat="38.51384655926118" lon="16.346929822409347"><ele>1314.0</ele><time>2026-05-03T12:26:19.999Z</time></trkpt><trkpt lat="38.51390679188909" lon="16.346743010218486"><ele>1314.0</ele><time>2026-05-03T12:26:20.999Z</time></trkpt><trkpt lat="38.51389595777111" lon="16.346560550210558"><ele>1314.0</ele><time>2026-05-03T12:26:21.999Z</time></trkpt><trkpt lat="38.51386553917461" lon="16.3463889806471"><ele>1314.0</ele><time>2026-05-03T12:26:22.999Z</time></trkpt><trkpt lat="38.51380155529847" lon="16.346227609161353"><ele>1314.0</ele><time>2026-05-03T12:26:23.999Z</time></trkpt><trkpt lat="38.513718144803086" lon="16.34610597265881"><ele>1308.75</ele><time>2026-05-03T12:26:24.999Z</time></trkpt><trkpt lat="38.51362099567317" lon="16.346010204726667"><ele>1303.5</ele><time>2026-05-03T12:26:26Z</time></trkpt><trkpt lat="38.51354915261016" lon="16.34592405660522"><ele>1298.25</ele><time>2026-05-03T12:26:27Z</time></trkpt><trkpt lat="38.51349856037656" lon="16.34579726027409"><ele>1293.0</ele><time>2026-05-03T12:26:28Z</time></trkpt><trkpt lat="38.51350749952339" lon="16.34564709957428"><ele>1293.0</ele><time>2026-05-03T12:26:29Z</time></trkpt><trkpt lat="38.51359026830817" lon="16.34556049572205"><ele>1293.0</ele><time>2026-05-03T12:26:30Z</time></trkpt><trkpt lat="38.51370559172625" lon="16.345525216705145"><ele>1293.0</ele><time>2026-05-03T12:26:31Z</time></trkpt><trkpt lat="38.51385925979179" lon="16.345538157646423"><ele>1293.0</ele><time>2026-05-03T12:26:32Z</time></trkpt><trkpt lat="38.51404418188509" lon="16.34560295696355"><ele>1297.0</ele><time>2026-05-03T12:26:33Z</time></trkpt><trkpt lat="38.5142384044286" lon="16.345665246102662"><ele>1301.0</ele><time>2026-05-03T12:26:34Z</time></trkpt><trkpt lat="38.51442678290114" lon="16.34570156345015"><ele>1305.0</ele><time>2026-05-03T12:26:35Z</time></trkpt><trkpt lat="38.514580955477015" lon="16.345728035282864"><ele>1306.0</ele><time>2026-05-03T12:26:36Z</time></trkpt><trkpt lat="38.514713598129674" lon="16.345759089797824"><ele>1307.0</ele><time>2026-05-03T12:26:37Z</time></trkpt><trkpt lat="38.51481806453838" lon="16.345747320800875"><ele>1308.0</ele><time>2026-05-03T12:26:38Z</time></trkpt><trkpt lat="38.51493709786103" lon="16.345758489365977"><ele>1309.0</ele><time>2026-05-03T12:26:39Z</time></trkpt><trkpt lat="38.515001072098066" lon="16.34571283784612"><ele>1310.0</ele><time>2026-05-03T12:26:40Z</time></trkpt><trkpt lat="38.515013380325655" lon="16.34561395189378"><ele>1308.0</ele><time>2026-05-03T12:26:41Z</time></trkpt><trkpt lat="38.515004484361036" lon="16.345519939412547"><ele>1306.0</ele><time>2026-05-03T12:26:42Z</time></trkpt><trkpt lat="38.51490499544311" lon="16.345398792215676"><ele>1304.0</ele><time>2026-05-03T12:26:43Z</time></trkpt><trkpt lat="38.514759629692705" lon="16.345234329234202"><ele>1302.0</ele><time>2026-05-03T12:26:44Z</time></trkpt><trkpt lat="38.51459488172638" lon="16.34503971493305"><ele>1297.75</ele><time>2026-05-03T12:26:45Z</time></trkpt><trkpt lat="38.51450360315038" lon="16.344879556484607"><ele>1293.5</ele><time>2026-05-03T12:26:46Z</time></trkpt><trkpt lat="38.514440142107716" lon="16.344725287555264"><ele>1289.25</ele><time>2026-05-03T12:26:47Z</time></trkpt><trkpt lat="38.51444989538696" lon="16.344529633905896"><ele>1285.0</ele><time>2026-05-03T12:26:48Z</time></trkpt><trkpt lat="38.514463569139636" lon="16.344407051143953"><ele>1285.75</ele><time>2026-05-03T12:26:49Z</time></trkpt><trkpt lat="38.51454826355175" lon="16.344325742037807"><ele>1286.5</ele><time>2026-05-03T12:26:50Z</time></trkpt><trkpt lat="38.514668644166804" lon="16.344333352547228"><ele>1287.25</ele><time>2026-05-03T12:26:51Z</time></trkpt><trkpt lat="38.514779256814485" lon="16.34441289727717"><ele>1288.0</ele><time>2026-05-03T12:26:52Z</time></trkpt><trkpt lat="38.514942401882536" lon="16.344459313068125"><ele>1288.0</ele><time>2026-05-03T12:26:53Z</time></trkpt><trkpt lat="38.515081883599635" lon="16.34443320190908"><ele>1288.0</ele><time>2026-05-03T12:26:54Z</time></trkpt><trkpt lat="38.51520553339859" lon="16.3443620943639"><ele>1288.0</ele><time>2026-05-03T12:26:55Z</time></trkpt><trkpt lat="38.51530458395331" lon="16.344268554897674"><ele>1288.0</ele><time>2026-05-03T12:26:56Z</time></trkpt><trkpt lat="38.51533013430164" lon="16.344111222422324"><ele>1288.0</ele><time>2026-05-03T12:26:57Z</time></trkpt><trkpt lat="38.51526554293802" lon="16.343921059961897"><ele>1288.0</ele><time>2026-05-03T12:26:58Z</time></trkpt><trkpt lat="38.51527716136568" lon="16.343738901418547"><ele>1288.0</ele><time>2026-05-03T12:26:59Z</time></trkpt><trkpt lat="38.51535721767738" lon="16.343544705743813"><ele>1287.6666666666665</ele><time>2026-05-03T12:27:00Z</time></trkpt><trkpt lat="38.515438813934765" lon="16.34338147698867"><ele>1287.3333333333333</ele><time>2026-05-03T12:27:01Z</time></trkpt><trkpt lat="38.515568611361125" lon="16.343246257937146"><ele>1287.0</ele><time>2026-05-03T12:27:02Z</time></trkpt><trkpt lat="38.515707430494565" lon="16.34311931914142"><ele>1283.25</ele><time>2026-05-03T12:27:03Z</time></trkpt><trkpt lat="38.51584447838851" lon="16.343046445597754"><ele>1279.5</ele><time>2026-05-03T12:27:04Z</time></trkpt><trkpt lat="38.51596629179744" lon="16.343033889153187"><ele>1275.75</ele><time>2026-05-03T12:27:05Z</time></trkpt><trkpt lat="38.516076303770674" lon="16.342974708630802"><ele>1272.0</ele><time>2026-05-03T12:27:06Z</time></trkpt><trkpt lat="38.51614669244502" lon="16.34285834287071"><ele>1272.0</ele><time>2026-05-03T12:27:07Z</time></trkpt><trkpt lat="38.5161817329502" lon="16.342676650527967"><ele>1272.0</ele><time>2026-05-03T12:27:08Z</time></trkpt><trkpt lat="38.5161971367884" lon="16.342542730481703"><ele>1272.0</ele><time>2026-05-03T12:27:09Z</time></trkpt><trkpt lat="38.51626073868132" lon="16.342395702865655"><ele>1272.0</ele><time>2026-05-03T12:27:10Z</time></trkpt><trkpt lat="38.51636742662552" lon="16.342294172690014"><ele>1275.0</ele><time>2026-05-03T12:27:11Z</time></trkpt><trkpt lat="38.51651200067063" lon="16.34225043946668"><ele>1278.0</ele><time>2026-05-03T12:27:12Z</time></trkpt><trkpt lat="38.51668791658142" lon="16.34224044245993"><ele>1281.0</ele><time>2026-05-03T12:27:13Z</time></trkpt><trkpt lat="38.51683766532186" lon="16.34221733380438"><ele>1281.0</ele><time>2026-05-03T12:27:14Z</time></trkpt><trkpt lat="38.51696876151698" lon="16.342081927002962"><ele>1281.0</ele><time>2026-05-03T12:27:15Z</time></trkpt><trkpt lat="38.5171184673866" lon="16.341880963837202"><ele>1281.0</ele><time>2026-05-03T12:27:16Z</time></trkpt><trkpt lat="38.517284331680244" lon="16.34161146018537"><ele>1275.3333333333333</ele><time>2026-05-03T12:27:17Z</time></trkpt><trkpt lat="38.5174003827801" lon="16.341362807477328"><ele>1269.6666666666665</ele><time>2026-05-03T12:27:18Z</time></trkpt><trkpt lat="38.51753468851478" lon="16.341173415630003"><ele>1264.0</ele><time>2026-05-03T12:27:19Z</time></trkpt><trkpt lat="38.51764094278345" lon="16.341026751451384"><ele>1264.0</ele><time>2026-05-03T12:27:20Z</time></trkpt><trkpt lat="38.51776738195261" lon="16.34091738232187"><ele>1264.0</ele><time>2026-05-03T12:27:21Z</time></trkpt><trkpt lat="38.51797474496418" lon="16.340776909993213"><ele>1264.0</ele><time>2026-05-03T12:27:22Z</time></trkpt><trkpt lat="38.51822271840655" lon="16.340639685643563"><ele>1259.6666666666665</ele><time>2026-05-03T12:27:23Z</time></trkpt><trkpt lat="38.51840717803739" lon="16.340527350026655"><ele>1255.3333333333333</ele><time>2026-05-03T12:27:24Z</time></trkpt><trkpt lat="38.51858222510984" lon="16.340416966105828"><ele>1251.0</ele><time>2026-05-03T12:27:25Z</time></trkpt><trkpt lat="38.51872691211674" lon="16.340325909782557"><ele>1251.25</ele><time>2026-05-03T12:27:26Z</time></trkpt><trkpt lat="38.5188783153986" lon="16.34024295918381"><ele>1251.5</ele><time>2026-05-03T12:27:27Z</time></trkpt><trkpt lat="38.51899930809402" lon="16.3401723719262"><ele>1251.75</ele><time>2026-05-03T12:27:28Z</time></trkpt><trkpt lat="38.5191337971476" lon="16.340227538848456"><ele>1252.0</ele><time>2026-05-03T12:27:29Z</time></trkpt><trkpt lat="38.51931249341771" lon="16.340307296932952"><ele>1252.0</ele><time>2026-05-03T12:27:30Z</time></trkpt><trkpt lat="38.51944704272297" lon="16.340396235547722"><ele>1252.0</ele><time>2026-05-03T12:27:31Z</time></trkpt><trkpt lat="38.519572638009464" lon="16.34044193120283"><ele>1252.0</ele><time>2026-05-03T12:27:32Z</time></trkpt><trkpt lat="38.519694075606765" lon="16.340460958885192"><ele>1252.0</ele><time>2026-05-03T12:27:33Z</time></trkpt><trkpt lat="38.51986561584512" lon="16.340381601391904"><ele>1248.3333333333333</ele><time>2026-05-03T12:27:34Z</time></trkpt><trkpt lat="38.52002670956721" lon="16.340286595018565"><ele>1244.6666666666667</ele><time>2026-05-03T12:27:35Z</time></trkpt><trkpt lat="38.520164468679106" lon="16.340214561949775"><ele>1241.0</ele><time>2026-05-03T12:27:36Z</time></trkpt><trkpt lat="38.52032921772136" lon="16.340174143318215"><ele>1237.3333333333335</ele><time>2026-05-03T12:27:37Z</time></trkpt><trkpt lat="38.52050970155024" lon="16.340218903679087"><ele>1233.6666666666667</ele><time>2026-05-03T12:27:38Z</time></trkpt><trkpt lat="38.52063465097691" lon="16.34026403302409"><ele>1230.0</ele><time>2026-05-03T12:27:39Z</time></trkpt><trkpt lat="38.52078056504296" lon="16.34035072069672"><ele>1240.6666666666667</ele><time>2026-05-03T12:27:40Z</time></trkpt><trkpt lat="38.520869630247276" lon="16.340550113404596"><ele>1251.3333333333335</ele><time>2026-05-03T12:27:41Z</time></trkpt><trkpt lat="38.52091072790617" lon="16.340684961850812"><ele>1262.0</ele><time>2026-05-03T12:27:42Z</time></trkpt><trkpt lat="38.521037254419454" lon="16.340826371121913"><ele>1262.0</ele><time>2026-05-03T12:27:43Z</time></trkpt><trkpt lat="38.52118534127874" lon="16.340911896709255"><ele>1262.0</ele><time>2026-05-03T12:27:44Z</time></trkpt><trkpt lat="38.521305876126355" lon="16.340995263524732"><ele>1262.0</ele><time>2026-05-03T12:27:45Z</time></trkpt><trkpt lat="38.52141541688515" lon="16.341072908038576"><ele>1262.0</ele><time>2026-05-03T12:27:46Z</time></trkpt><trkpt lat="38.52154385988819" lon="16.3410751635198"><ele>1256.6666666666667</ele><time>2026-05-03T12:27:47Z</time></trkpt><trkpt lat="38.521681524452354" lon="16.34099615970173"><ele>1251.3333333333333</ele><time>2026-05-03T12:27:48Z</time></trkpt><trkpt lat="38.52178792707942" lon="16.340858156117083"><ele>1246.0</ele><time>2026-05-03T12:27:49Z</time></trkpt><trkpt lat="38.52191252036643" lon="16.340705411966706"><ele>1246.0</ele><time>2026-05-03T12:27:50Z</time></trkpt><trkpt lat="38.52201191510177" lon="16.340590668385364"><ele>1246.0</ele><time>2026-05-03T12:27:51Z</time></trkpt><trkpt lat="38.5220993929939" lon="16.34051231101691"><ele>1246.0</ele><time>2026-05-03T12:27:52Z</time></trkpt><trkpt lat="38.5222064096334" lon="16.340504963998306"><ele>1246.0</ele><time>2026-05-03T12:27:53Z</time></trkpt><trkpt lat="38.52229203495815" lon="16.34056183518204"><ele>1246.0</ele><time>2026-05-03T12:27:54Z</time></trkpt><trkpt lat="38.522377069620184" lon="16.34058650591265"><ele>1241.3333333333333</ele><time>2026-05-03T12:27:55Z</time></trkpt><trkpt lat="38.522520547692444" lon="16.34051990007372"><ele>1236.6666666666667</ele><time>2026-05-03T12:27:56Z</time></trkpt><trkpt lat="38.52257882430509" lon="16.34021130762076"><ele>1232.0</ele><time>2026-05-03T12:27:57Z</time></trkpt><trkpt lat="38.52263035243162" lon="16.33998464458114"><ele>1232.0</ele><time>2026-05-03T12:27:58Z</time></trkpt><trkpt lat="38.52269420341742" lon="16.339836416483763"><ele>1232.0</ele><time>2026-05-03T12:28:00Z</time></trkpt><trkpt lat="38.52276282102567" lon="16.3397069271942"><ele>1232.0</ele><time>2026-05-03T12:28:01Z</time></trkpt><trkpt lat="38.52282208619336" lon="16.339562769933202"><ele>1232.0</ele><time>2026-05-03T12:28:02Z</time></trkpt><trkpt lat="38.522846129033674" lon="16.33947115432202"><ele>1230.75</ele><time>2026-05-03T12:28:03Z</time></trkpt><trkpt lat="38.52279150681054" lon="16.33928562262847"><ele>1229.5</ele><time>2026-05-03T12:28:04Z</time></trkpt><trkpt lat="38.52271180527291" lon="16.339206171313407"><ele>1228.25</ele><time>2026-05-03T12:28:05Z</time></trkpt><trkpt lat="38.52259681538111" lon="16.339210159686242"><ele>1227.0</ele><time>2026-05-03T12:28:06Z</time></trkpt><trkpt lat="38.522498167723754" lon="16.339312686236973"><ele>1227.0</ele><time>2026-05-03T12:28:07Z</time></trkpt><trkpt lat="38.52235381784082" lon="16.339411636156093"><ele>1227.0</ele><time>2026-05-03T12:28:08Z</time></trkpt><trkpt lat="38.52221714369266" lon="16.339376417854503"><ele>1227.0</ele><time>2026-05-03T12:28:09Z</time></trkpt><trkpt lat="38.52211453149384" lon="16.33930865960866"><ele>1227.0</ele><time>2026-05-03T12:28:10Z</time></trkpt><trkpt lat="38.52209531510463" lon="16.339148569651723"><ele>1227.0</ele><time>2026-05-03T12:28:11Z</time></trkpt><trkpt lat="38.52207196329684" lon="16.33900452060246"><ele>1227.0</ele><time>2026-05-03T12:28:12Z</time></trkpt><trkpt lat="38.52213433524906" lon="16.338823047778092"><ele>1227.0</ele><time>2026-05-03T12:28:13Z</time></trkpt><trkpt lat="38.522179436944306" lon="16.338525217233972"><ele>1230.3333333333333</ele><time>2026-05-03T12:28:14Z</time></trkpt><trkpt lat="38.52218813978065" lon="16.338300137625705"><ele>1233.6666666666665</ele><time>2026-05-03T12:28:15Z</time></trkpt><trkpt lat="38.522159253019915" lon="16.338083349946046"><ele>1237.0</ele><time>2026-05-03T12:28:16Z</time></trkpt><trkpt lat="38.522092480824185" lon="16.337859555779275"><ele>1223.3333333333333</ele><time>2026-05-03T12:28:17Z</time></trkpt><trkpt lat="38.52195373975916" lon="16.337625965532006"><ele>1209.6666666666667</ele><time>2026-05-03T12:28:18Z</time></trkpt><trkpt lat="38.52188559776641" lon="16.33744492778145"><ele>1196.0</ele><time>2026-05-03T12:28:19Z</time></trkpt><trkpt lat="38.52183461533269" lon="16.337271683381864"><ele>1195.3333333333335</ele><time>2026-05-03T12:28:20Z</time></trkpt><trkpt lat="38.521888835910204" lon="16.337089657364682"><ele>1194.6666666666667</ele><time>2026-05-03T12:28:21Z</time></trkpt><trkpt lat="38.521961527831124" lon="16.3368980751574"><ele>1194.0</ele><time>2026-05-03T12:28:22Z</time></trkpt><trkpt lat="38.52206489011968" lon="16.336600861059214"><ele>1204.0</ele><time>2026-05-03T12:28:23Z</time></trkpt><trkpt lat="38.52218714329536" lon="16.336250215157612"><ele>1214.0</ele><time>2026-05-03T12:28:24Z</time></trkpt><trkpt lat="38.522287164753244" lon="16.335967615080992"><ele>1214.0</ele><time>2026-05-03T12:28:25Z</time></trkpt><trkpt lat="38.52237514833777" lon="16.335715702178813"><ele>1214.0</ele><time>2026-05-03T12:28:26Z</time></trkpt><trkpt lat="38.52245488821395" lon="16.335515531169307"><ele>1214.0</ele><time>2026-05-03T12:28:27Z</time></trkpt><trkpt lat="38.52255560864136" lon="16.335348396972577"><ele>1211.3333333333335</ele><time>2026-05-03T12:28:28Z</time></trkpt><trkpt lat="38.52271906660556" lon="16.335159633597254"><ele>1208.6666666666667</ele><time>2026-05-03T12:28:29Z</time></trkpt><trkpt lat="38.522869893642785" lon="16.33497408019477"><ele>1206.0</ele><time>2026-05-03T12:28:30Z</time></trkpt><trkpt lat="38.52295043365526" lon="16.334906420333255"><ele>1206.0</ele><time>2026-05-03T12:28:31Z</time></trkpt><trkpt lat="38.52307390344119" lon="16.334833379945596"><ele>1206.0</ele><time>2026-05-03T12:28:32Z</time></trkpt><trkpt lat="38.5232200427131" lon="16.334797295423126"><ele>1206.0</ele><time>2026-05-03T12:28:33Z</time></trkpt><trkpt lat="38.52340656878685" lon="16.334797024327514"><ele>1206.0</ele><time>2026-05-03T12:28:34Z</time></trkpt><trkpt lat="38.523539662367234" lon="16.334836217372338"><ele>1206.0</ele><time>2026-05-03T12:28:35Z</time></trkpt><trkpt lat="38.52369222059573" lon="16.33493492529353"><ele>1206.0</ele><time>2026-05-03T12:28:36Z</time></trkpt><trkpt lat="38.523836918077905" lon="16.33502909206199"><ele>1203.3333333333333</ele><time>2026-05-03T12:28:37Z</time></trkpt><trkpt lat="38.52400021602021" lon="16.33513285482788"><ele>1200.6666666666665</ele><time>2026-05-03T12:28:38Z</time></trkpt><trkpt lat="38.52418243274964" lon="16.335210987919087"><ele>1198.0</ele><time>2026-05-03T12:28:39Z</time></trkpt><trkpt lat="38.52435989018193" lon="16.335163839615873"><ele>1198.0</ele><time>2026-05-03T12:28:40Z</time></trkpt><trkpt lat="38.524505216920375" lon="16.335142258707144"><ele>1198.0</ele><time>2026-05-03T12:28:41Z</time></trkpt><trkpt lat="38.52460229630047" lon="16.33512157594021"><ele>1198.0</ele><time>2026-05-03T12:28:42Z</time></trkpt><trkpt lat="38.52469812754108" lon="16.33501244502426"><ele>1198.0</ele><time>2026-05-03T12:28:43Z</time></trkpt><trkpt lat="38.52473170833166" lon="16.33490590013844"><ele>1197.5</ele><time>2026-05-03T12:28:44Z</time></trkpt><trkpt lat="38.52475920596922" lon="16.33481814211357"><ele>1197.0</ele><time>2026-05-03T12:28:45Z</time></trkpt><trkpt lat="38.52473194097416" lon="16.334623264007018"><ele>1196.5</ele><time>2026-05-03T12:28:46Z</time></trkpt><trkpt lat="38.52471292774074" lon="16.334371068763257"><ele>1196.0</ele><time>2026-05-03T12:28:47Z</time></trkpt><trkpt lat="38.52471805032322" lon="16.334115060292476"><ele>1191.3333333333335</ele><time>2026-05-03T12:28:48Z</time></trkpt><trkpt lat="38.52471660761345" lon="16.333815863453296"><ele>1186.6666666666667</ele><time>2026-05-03T12:28:49Z</time></trkpt><trkpt lat="38.52474588756633" lon="16.333577032549574"><ele>1182.0</ele><time>2026-05-03T12:28:50Z</time></trkpt><trkpt lat="38.52477316612674" lon="16.333342498355723"><ele>1182.0</ele><time>2026-05-03T12:28:51Z</time></trkpt><trkpt lat="38.52482662766033" lon="16.33320003358821"><ele>1182.0</ele><time>2026-05-03T12:28:52Z</time></trkpt><trkpt lat="38.524979800561496" lon="16.33303771470161"><ele>1182.0</ele><time>2026-05-03T12:28:53Z</time></trkpt><trkpt lat="38.52509225113034" lon="16.33293524649364"><ele>1179.75</ele><time>2026-05-03T12:28:54Z</time></trkpt><trkpt lat="38.525206159676216" lon="16.332897425514616"><ele>1177.5</ele><time>2026-05-03T12:28:55Z</time></trkpt><trkpt lat="38.52532907093009" lon="16.332957397283415"><ele>1175.25</ele><time>2026-05-03T12:28:56Z</time></trkpt><trkpt lat="38.52542947994083" lon="16.33296813579746"><ele>1173.0</ele><time>2026-05-03T12:28:57Z</time></trkpt><trkpt lat="38.52555765362538" lon="16.332896395724323"><ele>1173.0</ele><time>2026-05-03T12:28:58Z</time></trkpt><trkpt lat="38.525662055931164" lon="16.33274776851529"><ele>1173.0</ele><time>2026-05-03T12:28:59Z</time></trkpt><trkpt lat="38.52573173230976" lon="16.332568751935977"><ele>1173.0</ele><time>2026-05-03T12:29:00Z</time></trkpt><trkpt lat="38.525781782153466" lon="16.33243824092202"><ele>1173.0</ele><time>2026-05-03T12:29:01Z</time></trkpt><trkpt lat="38.52588428132627" lon="16.33231754630636"><ele>1173.0</ele><time>2026-05-03T12:29:02Z</time></trkpt><trkpt lat="38.52603287750047" lon="16.33225525072191"><ele>1173.0</ele><time>2026-05-03T12:29:03Z</time></trkpt><trkpt lat="38.52617895582405" lon="16.332255510597143"><ele>1173.0</ele><time>2026-05-03T12:29:04Z</time></trkpt><trkpt lat="38.52635365399749" lon="16.332305132549315"><ele>1170.5</ele><time>2026-05-03T12:29:05Z</time></trkpt><trkpt lat="38.526477390986116" lon="16.332380965855045"><ele>1168.0</ele><time>2026-05-03T12:29:06Z</time></trkpt><trkpt lat="38.52657749197549" lon="16.33248426977756"><ele>1165.5</ele><time>2026-05-03T12:29:07Z</time></trkpt><trkpt lat="38.52661157410353" lon="16.332619884110287"><ele>1163.0</ele><time>2026-05-03T12:29:08Z</time></trkpt><trkpt lat="38.52661949107359" lon="16.332780174121858"><ele>1163.0</ele><time>2026-05-03T12:29:09Z</time></trkpt><trkpt lat="38.52663527839705" lon="16.33290605155928"><ele>1163.0</ele><time>2026-05-03T12:29:10Z</time></trkpt><trkpt lat="38.526623299667925" lon="16.33310531945272"><ele>1163.0</ele><time>2026-05-03T12:29:11Z</time></trkpt><trkpt lat="38.52656375775502" lon="16.333283282515637"><ele>1163.0</ele><time>2026-05-03T12:29:12Z</time></trkpt><trkpt lat="38.526559810735144" lon="16.33347226272052"><ele>1164.3333333333335</ele><time>2026-05-03T12:29:13Z</time></trkpt><trkpt lat="38.52665421876476" lon="16.333682477505246"><ele>1165.6666666666667</ele><time>2026-05-03T12:29:14Z</time></trkpt><trkpt lat="38.5266872857566" lon="16.33387164338657"><ele>1167.0</ele><time>2026-05-03T12:29:15Z</time></trkpt><trkpt lat="38.526701134455585" lon="16.334023483802124"><ele>1169.6</ele><time>2026-05-03T12:29:16Z</time></trkpt><trkpt lat="38.526712863668955" lon="16.334142606510266"><ele>1172.2</ele><time>2026-05-03T12:29:17Z</time></trkpt><trkpt lat="38.52672671390362" lon="16.33422438847811"><ele>1174.8</ele><time>2026-05-03T12:29:18Z</time></trkpt><trkpt lat="38.52679801148786" lon="16.3343069966897"><ele>1177.4</ele><time>2026-05-03T12:29:19Z</time></trkpt><trkpt lat="38.52687236228638" lon="16.334346734056453"><ele>1180.0</ele><time>2026-05-03T12:29:20Z</time></trkpt><trkpt lat="38.526994329355695" lon="16.334278850398896"><ele>1179.3333333333333</ele><time>2026-05-03T12:29:21Z</time></trkpt><trkpt lat="38.52715093190055" lon="16.33413717777546"><ele>1178.6666666666667</ele><time>2026-05-03T12:29:22Z</time></trkpt><trkpt lat="38.52725684252129" lon="16.333985943953536"><ele>1178.0</ele><time>2026-05-03T12:29:23Z</time></trkpt><trkpt lat="38.52732777189132" lon="16.33382585788694"><ele>1171.0</ele><time>2026-05-03T12:29:24Z</time></trkpt><trkpt lat="38.52736593928905" lon="16.33366647966345"><ele>1164.0</ele><time>2026-05-03T12:29:25Z</time></trkpt><trkpt lat="38.527469606789424" lon="16.333461728499003"><ele>1157.0</ele><time>2026-05-03T12:29:26Z</time></trkpt><trkpt lat="38.527553665530256" lon="16.333357442186387"><ele>1150.0</ele><time>2026-05-03T12:29:27Z</time></trkpt><trkpt lat="38.52767314382723" lon="16.33335552601909"><ele>1150.0</ele><time>2026-05-03T12:29:28Z</time></trkpt><trkpt lat="38.527798757346005" lon="16.33340184793471"><ele>1150.0</ele><time>2026-05-03T12:29:29Z</time></trkpt><trkpt lat="38.52790435930801" lon="16.33334996202"><ele>1150.0</ele><time>2026-05-03T12:29:30Z</time></trkpt><trkpt lat="38.52797880089449" lon="16.333267438159094"><ele>1150.0</ele><time>2026-05-03T12:29:31Z</time></trkpt><trkpt lat="38.527999098846635" lon="16.333032280088602"><ele>1149.3333333333333</ele><time>2026-05-03T12:29:32Z</time></trkpt><trkpt lat="38.52802148259216" lon="16.332834997374068"><ele>1148.6666666666667</ele><time>2026-05-03T12:29:33Z</time></trkpt><trkpt lat="38.52812739802046" lon="16.33265084276703"><ele>1148.0</ele><time>2026-05-03T12:29:34Z</time></trkpt><trkpt lat="38.52822784262391" lon="16.332475548420593"><ele>1148.0</ele><time>2026-05-03T12:29:35Z</time></trkpt><trkpt lat="38.52831213962873" lon="16.33233269358036"><ele>1148.0</ele><time>2026-05-03T12:29:36Z</time></trkpt><trkpt lat="38.52838997227899" lon="16.332216546094518"><ele>1148.0</ele><time>2026-05-03T12:29:37Z</time></trkpt><trkpt lat="38.528465524997145" lon="16.332156990248954"><ele>1148.0</ele><time>2026-05-03T12:29:38Z</time></trkpt><trkpt lat="38.5285496745494" lon="16.332163271560272"><ele>1148.0</ele><time>2026-05-03T12:29:39Z</time></trkpt><trkpt lat="38.52864826299297" lon="16.33222797145547"><ele>1150.5</ele><time>2026-05-03T12:29:40Z</time></trkpt><trkpt lat="38.52875743838786" lon="16.33237360723855"><ele>1153.0</ele><time>2026-05-03T12:29:41Z</time></trkpt><trkpt lat="38.52886248122739" lon="16.33249098010859"><ele>1155.5</ele><time>2026-05-03T12:29:42Z</time></trkpt><trkpt lat="38.528967114995645" lon="16.332573680583"><ele>1158.0</ele><time>2026-05-03T12:29:43Z</time></trkpt><trkpt lat="38.529080140439405" lon="16.33263241404444"><ele>1158.0</ele><time>2026-05-03T12:29:44Z</time></trkpt><trkpt lat="38.52916209700103" lon="16.332605982130637"><ele>1158.0</ele><time>2026-05-03T12:29:45Z</time></trkpt><trkpt lat="38.529221051672316" lon="16.33241834562338"><ele>1158.0</ele><time>2026-05-03T12:29:46Z</time></trkpt><trkpt lat="38.5292458061823" lon="16.332215398697468"><ele>1158.0</ele><time>2026-05-03T12:29:47Z</time></trkpt><trkpt lat="38.5292539717652" lon="16.33195324426057"><ele>1149.0</ele><time>2026-05-03T12:29:48Z</time></trkpt><trkpt lat="38.52929210616107" lon="16.33167287845185"><ele>1140.0</ele><time>2026-05-03T12:29:49Z</time></trkpt><trkpt lat="38.52930796381208" lon="16.331447521701804"><ele>1131.0</ele><time>2026-05-03T12:29:50Z</time></trkpt><trkpt lat="38.52932996475508" lon="16.331259610974932"><ele>1129.0</ele><time>2026-05-03T12:29:51Z</time></trkpt><trkpt lat="38.529366790427076" lon="16.33109167926735"><ele>1127.0</ele><time>2026-05-03T12:29:52Z</time></trkpt><trkpt lat="38.52941985031696" lon="16.330948633849236"><ele>1125.0</ele><time>2026-05-03T12:29:53Z</time></trkpt><trkpt lat="38.52948010118055" lon="16.330834972325288"><ele>1123.0</ele><time>2026-05-03T12:29:54Z</time></trkpt><trkpt lat="38.529582397263006" lon="16.33079375736893"><ele>1123.0</ele><time>2026-05-03T12:29:55Z</time></trkpt><trkpt lat="38.52970879658145" lon="16.330782282546693"><ele>1123.0</ele><time>2026-05-03T12:29:56Z</time></trkpt><trkpt lat="38.52984899383697" lon="16.3308604415192"><ele>1123.0</ele><time>2026-05-03T12:29:57Z</time></trkpt><trkpt lat="38.52997427780691" lon="16.33095705603125"><ele>1123.0</ele><time>2026-05-03T12:29:58Z</time></trkpt><trkpt lat="38.53013286099546" lon="16.33112020574348"><ele>1123.0</ele><time>2026-05-03T12:29:59Z</time></trkpt><trkpt lat="38.530284587390206" lon="16.331269109882196"><ele>1123.0</ele><time>2026-05-03T12:30:00Z</time></trkpt><trkpt lat="38.530372906305566" lon="16.331384778401684"><ele>1123.0</ele><time>2026-05-03T12:30:01Z</time></trkpt><trkpt lat="38.53046348564974" lon="16.33148077129432"><ele>1123.0</ele><time>2026-05-03T12:30:02Z</time></trkpt><trkpt lat="38.53055157407365" lon="16.331565060798273"><ele>1120.5</ele><time>2026-05-03T12:30:03Z</time></trkpt><trkpt lat="38.530629296426255" lon="16.331613219027414"><ele>1118.0</ele><time>2026-05-03T12:30:04Z</time></trkpt><trkpt lat="38.530801145219435" lon="16.331561531599842"><ele>1115.5</ele><time>2026-05-03T12:30:05Z</time></trkpt><trkpt lat="38.53088164850998" lon="16.331417291911535"><ele>1113.0</ele><time>2026-05-03T12:30:06Z</time></trkpt><trkpt lat="38.53093085306225" lon="16.331335613863573"><ele>1113.0</ele><time>2026-05-03T12:30:07Z</time></trkpt><trkpt lat="38.53101157432095" lon="16.33124889972076"><ele>1113.0</ele><time>2026-05-03T12:30:08Z</time></trkpt><trkpt lat="38.53106517505066" lon="16.33119686043387"><ele>1113.0</ele><time>2026-05-03T12:30:09Z</time></trkpt><trkpt lat="38.5311528267158" lon="16.331127155572705"><ele>1113.0</ele><time>2026-05-03T12:30:10Z</time></trkpt><trkpt lat="38.53133391631639" lon="16.33107409417218"><ele>1112.3333333333333</ele><time>2026-05-03T12:30:11Z</time></trkpt><trkpt lat="38.5315099643461" lon="16.331062521074685"><ele>1111.6666666666665</ele><time>2026-05-03T12:30:12Z</time></trkpt><trkpt lat="38.5316571395685" lon="16.331053184069518"><ele>1111.0</ele><time>2026-05-03T12:30:14Z</time></trkpt><trkpt lat="38.531796021015474" lon="16.331035184542646"><ele>1111.0</ele><time>2026-05-03T12:30:15Z</time></trkpt><trkpt lat="38.53194945921209" lon="16.331080746934614"><ele>1111.0</ele><time>2026-05-03T12:30:16Z</time></trkpt><trkpt lat="38.532085344071184" lon="16.33123369143511"><ele>1111.0</ele><time>2026-05-03T12:30:17Z</time></trkpt><trkpt lat="38.532132269449" lon="16.331486987369512"><ele>1110.25</ele><time>2026-05-03T12:30:18Z</time></trkpt><trkpt lat="38.53216602905905" lon="16.33166827160645"><ele>1109.5</ele><time>2026-05-03T12:30:19Z</time></trkpt><trkpt lat="38.532189135948315" lon="16.331805049788837"><ele>1108.75</ele><time>2026-05-03T12:30:20Z</time></trkpt><trkpt lat="38.5322195607233" lon="16.331931704473092"><ele>1108.0</ele><time>2026-05-03T12:30:21Z</time></trkpt><trkpt lat="38.53226454345671" lon="16.33204166910844"><ele>1108.0</ele><time>2026-05-03T12:30:22Z</time></trkpt><trkpt lat="38.53232061043594" lon="16.33208914280089"><ele>1108.0</ele><time>2026-05-03T12:30:23Z</time></trkpt><trkpt lat="38.532418444680395" lon="16.33209023359715"><ele>1108.0</ele><time>2026-05-03T12:30:24Z</time></trkpt><trkpt lat="38.53257058375995" lon="16.33206664615181"><ele>1108.0</ele><time>2026-05-03T12:30:25Z</time></trkpt><trkpt lat="38.5327718029349" lon="16.331987922768427"><ele>1107.25</ele><time>2026-05-03T12:30:26Z</time></trkpt><trkpt lat="38.53292178791107" lon="16.33186474548494"><ele>1106.5</ele><time>2026-05-03T12:30:27Z</time></trkpt><trkpt lat="38.53304181803489" lon="16.331774266198803"><ele>1105.75</ele><time>2026-05-03T12:30:28Z</time></trkpt><trkpt lat="38.53315071142768" lon="16.33174545025578"><ele>1105.0</ele><time>2026-05-03T12:30:29Z</time></trkpt><trkpt lat="38.53330925443309" lon="16.33175440424056"><ele>1105.0</ele><time>2026-05-03T12:30:30Z</time></trkpt><trkpt lat="38.53349088271921" lon="16.331800757160607"><ele>1105.0</ele><time>2026-05-03T12:30:31Z</time></trkpt><trkpt lat="38.533720436572736" lon="16.3318538353868"><ele>1105.0</ele><time>2026-05-03T12:30:32Z</time></trkpt><trkpt lat="38.53393549790777" lon="16.33190170070142"><ele>1102.5</ele><time>2026-05-03T12:30:33Z</time></trkpt><trkpt lat="38.53418458211758" lon="16.33195563105771"><ele>1100.0</ele><time>2026-05-03T12:30:34Z</time></trkpt><trkpt lat="38.53439081799713" lon="16.33200185109342"><ele>1101.0</ele><time>2026-05-03T12:30:35Z</time></trkpt><trkpt lat="38.534587224336036" lon="16.332079405436406"><ele>1102.0</ele><time>2026-05-03T12:30:36Z</time></trkpt><trkpt lat="38.53473899274608" lon="16.332158880779726"><ele>1103.0</ele><time>2026-05-03T12:30:37Z</time></trkpt><trkpt lat="38.53489999045144" lon="16.332252722573"><ele>1103.0</ele><time>2026-05-03T12:30:38Z</time></trkpt><trkpt lat="38.53499726159953" lon="16.33231790652576"><ele>1103.0</ele><time>2026-05-03T12:30:39Z</time></trkpt><trkpt lat="38.535081725203156" lon="16.332399998109263"><ele>1103.0</ele><time>2026-05-03T12:30:40Z</time></trkpt><trkpt lat="38.53511789588501" lon="16.33250167020395"><ele>1103.0</ele><time>2026-05-03T12:30:41Z</time></trkpt><trkpt lat="38.53514984973822" lon="16.33275058671824"><ele>1103.0</ele><time>2026-05-03T12:30:42Z</time></trkpt><trkpt lat="38.53518142723996" lon="16.332941144047346"><ele>1103.0</ele><time>2026-05-03T12:30:43Z</time></trkpt><trkpt lat="38.5352526854557" lon="16.333111442287937"><ele>1103.0</ele><time>2026-05-03T12:30:44Z</time></trkpt><trkpt lat="38.535376421302125" lon="16.33318737035078"><ele>1103.0</ele><time>2026-05-03T12:30:45Z</time></trkpt><trkpt lat="38.535522060336206" lon="16.333251002817423"><ele>1104.5</ele><time>2026-05-03T12:30:46Z</time></trkpt><trkpt lat="38.53563673508201" lon="16.3331364316805"><ele>1106.0</ele><time>2026-05-03T12:30:48Z</time></trkpt><trkpt lat="38.53565343474781" lon="16.332995232477362"><ele>1107.5</ele><time>2026-05-03T12:30:49Z</time></trkpt><trkpt lat="38.53566617170104" lon="16.332867015712146"><ele>1109.0</ele><time>2026-05-03T12:30:50Z</time></trkpt><trkpt lat="38.53569088174983" lon="16.33269981085913"><ele>1104.75</ele><time>2026-05-03T12:30:51Z</time></trkpt><trkpt lat="38.535732169454725" lon="16.33259188460311"><ele>1100.5</ele><time>2026-05-03T12:30:52Z</time></trkpt><trkpt lat="38.53579691463227" lon="16.332432862226625"><ele>1096.25</ele><time>2026-05-03T12:30:53Z</time></trkpt><trkpt lat="38.53592236546142" lon="16.332368692051332"><ele>1092.0</ele><time>2026-05-03T12:30:54Z</time></trkpt><trkpt lat="38.536068647738745" lon="16.332354732188314"><ele>1092.0</ele><time>2026-05-03T12:30:55Z</time></trkpt><trkpt lat="38.536181669726155" lon="16.33235934200613"><ele>1092.0</ele><time>2026-05-03T12:30:56Z</time></trkpt><trkpt lat="38.53628012233306" lon="16.33237526767075"><ele>1092.0</ele><time>2026-05-03T12:30:57Z</time></trkpt><trkpt lat="38.53642056765917" lon="16.33247965628134"><ele>1092.0</ele><time>2026-05-03T12:30:58Z</time></trkpt><trkpt lat="38.53653153137056" lon="16.332516814628974"><ele>1090.75</ele><time>2026-05-03T12:30:59Z</time></trkpt><trkpt lat="38.536631506036784" lon="16.33252929732207"><ele>1089.5</ele><time>2026-05-03T12:31:00Z</time></trkpt><trkpt lat="38.53671318419905" lon="16.332455583947414"><ele>1088.25</ele><time>2026-05-03T12:31:01Z</time></trkpt><trkpt lat="38.53680167949991" lon="16.332330690843573"><ele>1087.0</ele><time>2026-05-03T12:31:02Z</time></trkpt><trkpt lat="38.53685696817611" lon="16.33212071398198"><ele>1085.0</ele><time>2026-05-03T12:31:03Z</time></trkpt><trkpt lat="38.53688462476492" lon="16.331953327504337"><ele>1083.0</ele><time>2026-05-03T12:31:04Z</time></trkpt><trkpt lat="38.53690062546903" lon="16.331800725151073"><ele>1081.0</ele><time>2026-05-03T12:31:05Z</time></trkpt><trkpt lat="38.53686092075872" lon="16.331674717046432"><ele>1079.0</ele><time>2026-05-03T12:31:06Z</time></trkpt><trkpt lat="38.536818201597114" lon="16.331532207419407"><ele>1076.5</ele><time>2026-05-03T12:31:07Z</time></trkpt><trkpt lat="38.53678482093268" lon="16.331379593392114"><ele>1074.0</ele><time>2026-05-03T12:31:08Z</time></trkpt><trkpt lat="38.536765547949564" lon="16.331237159428085"><ele>1071.5</ele><time>2026-05-03T12:31:09Z</time></trkpt><trkpt lat="38.53677949060735" lon="16.331029368992464"><ele>1069.0</ele><time>2026-05-03T12:31:11Z</time></trkpt><trkpt lat="38.53680894038578" lon="16.330927043783724"><ele>1069.0</ele><time>2026-05-03T12:31:12Z</time></trkpt><trkpt lat="38.5368664642569" lon="16.330715409109217"><ele>1069.0</ele><time>2026-05-03T12:31:14Z</time></trkpt><trkpt lat="38.53689390679845" lon="16.33054957817484"><ele>1069.0</ele><time>2026-05-03T12:31:15Z</time></trkpt><trkpt lat="38.53690876289377" lon="16.33038131346345"><ele>1069.0</ele><time>2026-05-03T12:31:16Z</time></trkpt><trkpt lat="38.53681763894466" lon="16.330211330046186"><ele>1067.75</ele><time>2026-05-03T12:31:17Z</time></trkpt><trkpt lat="38.53673540589411" lon="16.330034952109546"><ele>1066.5</ele><time>2026-05-03T12:31:18Z</time></trkpt><trkpt lat="38.536665160918695" lon="16.32992775081979"><ele>1065.25</ele><time>2026-05-03T12:31:19Z</time></trkpt><trkpt lat="38.53659183864587" lon="16.32978783910082"><ele>1064.0</ele><time>2026-05-03T12:31:20Z</time></trkpt><trkpt lat="38.53657432917764" lon="16.32966158096957"><ele>1063.6000000000001</ele><time>2026-05-03T12:31:21Z</time></trkpt><trkpt lat="38.536612975955464" lon="16.32954639758733"><ele>1063.2</ele><time>2026-05-03T12:31:22Z</time></trkpt><trkpt lat="38.536661684428466" lon="16.329445312949133"><ele>1062.8000000000002</ele><time>2026-05-03T12:31:23Z</time></trkpt><trkpt lat="38.53674867103232" lon="16.32933862637782"><ele>1062.4</ele><time>2026-05-03T12:31:24Z</time></trkpt><trkpt lat="38.53682942837026" lon="16.329197077519588"><ele>1062.0</ele><time>2026-05-03T12:31:25Z</time></trkpt><trkpt lat="38.53688052880123" lon="16.328994908679256"><ele>1060.0</ele><time>2026-05-03T12:31:26Z</time></trkpt><trkpt lat="38.5368090602193" lon="16.32877042753359"><ele>1058.0</ele><time>2026-05-03T12:31:27Z</time></trkpt><trkpt lat="38.536762409199966" lon="16.32863237839311"><ele>1056.0</ele><time>2026-05-03T12:31:28Z</time></trkpt><trkpt lat="38.53667533230051" lon="16.328441388300302"><ele>1056.0</ele><time>2026-05-03T12:31:29Z</time></trkpt><trkpt lat="38.53662079742086" lon="16.32831914926779"><ele>1056.0</ele><time>2026-05-03T12:31:30Z</time></trkpt><trkpt lat="38.5365279973218" lon="16.32815453795125"><ele>1056.0</ele><time>2026-05-03T12:31:31Z</time></trkpt><trkpt lat="38.536392745953755" lon="16.328033251757944"><ele>1056.0</ele><time>2026-05-03T12:31:32Z</time></trkpt><trkpt lat="38.53623812487016" lon="16.327943180298732"><ele>1052.75</ele><time>2026-05-03T12:31:33Z</time></trkpt><trkpt lat="38.53611450239911" lon="16.327873054424167"><ele>1049.5</ele><time>2026-05-03T12:31:34Z</time></trkpt><trkpt lat="38.53603304165487" lon="16.327783311436654"><ele>1046.25</ele><time>2026-05-03T12:31:35Z</time></trkpt><trkpt lat="38.53595842388019" lon="16.327639797444174"><ele>1043.0</ele><time>2026-05-03T12:31:36Z</time></trkpt><trkpt lat="38.53590805005693" lon="16.327462676721918"><ele>1043.0</ele><time>2026-05-03T12:31:37Z</time></trkpt><trkpt lat="38.5359056558611" lon="16.327307764131486"><ele>1043.0</ele><time>2026-05-03T12:31:38Z</time></trkpt><trkpt lat="38.53592013938563" lon="16.327214740389362"><ele>1043.0</ele><time>2026-05-03T12:31:39Z</time></trkpt><trkpt lat="38.53599793989458" lon="16.32708936386837"><ele>1043.0</ele><time>2026-05-03T12:31:40Z</time></trkpt><trkpt lat="38.536074014002914" lon="16.327048058706005"><ele>1043.0</ele><time>2026-05-03T12:31:41Z</time></trkpt><trkpt lat="38.53615930715989" lon="16.32694381347412"><ele>1041.0</ele><time>2026-05-03T12:31:42Z</time></trkpt><trkpt lat="38.53644945132917" lon="16.326813634408417"><ele>1039.0</ele><time>2026-05-03T12:31:44Z</time></trkpt><trkpt lat="38.53657668184987" lon="16.326608044004566"><ele>1037.6666666666665</ele><time>2026-05-03T12:31:45Z</time></trkpt><trkpt lat="38.53656807104394" lon="16.326388351339375"><ele>1036.3333333333333</ele><time>2026-05-03T12:31:46Z</time></trkpt><trkpt lat="38.53665801638318" lon="16.32619601272339"><ele>1035.0</ele><time>2026-05-03T12:31:47Z</time></trkpt><trkpt lat="38.53673336683926" lon="16.326026973930436"><ele>1035.0</ele><time>2026-05-03T12:31:48Z</time></trkpt><trkpt lat="38.536888308574994" lon="16.325891245903065"><ele>1035.0</ele><time>2026-05-03T12:31:49Z</time></trkpt><trkpt lat="38.53695877758373" lon="16.32578475505891"><ele>1035.0</ele><time>2026-05-03T12:31:50Z</time></trkpt><trkpt lat="38.53698601605362" lon="16.32564747187624"><ele>1035.0</ele><time>2026-05-03T12:31:51Z</time></trkpt><trkpt lat="38.53688450342726" lon="16.325515527867683"><ele>1034.5</ele><time>2026-05-03T12:31:52Z</time></trkpt><trkpt lat="38.53695368653357" lon="16.32542443148913"><ele>1034.0</ele><time>2026-05-03T12:31:53Z</time></trkpt><trkpt lat="38.53691465790401" lon="16.325244008499553"><ele>1033.5</ele><time>2026-05-03T12:31:54Z</time></trkpt><trkpt lat="38.53682796209937" lon="16.325233321695755"><ele>1033.0</ele><time>2026-05-03T12:31:55Z</time></trkpt><trkpt lat="38.536525614718144" lon="16.325285256070124"><ele>1033.0</ele><time>2026-05-03T12:31:56Z</time></trkpt><trkpt lat="38.53636013541692" lon="16.325356822518234"><ele>1033.0</ele><time>2026-05-03T12:31:57Z</time></trkpt><trkpt lat="38.5360307563344" lon="16.325556874663054"><ele>1032.25</ele><time>2026-05-03T12:31:58Z</time></trkpt><trkpt lat="38.53592505399971" lon="16.32557648897162"><ele>1031.5</ele><time>2026-05-03T12:31:59Z</time></trkpt><trkpt lat="38.535763168578704" lon="16.325608315923315"><ele>1030.75</ele><time>2026-05-03T12:32:00Z</time></trkpt><trkpt lat="38.53563087204359" lon="16.3256477714092"><ele>1030.0</ele><time>2026-05-03T12:32:01Z</time></trkpt><trkpt lat="38.5354920057499" lon="16.32564524829505"><ele>1028.6666666666665</ele><time>2026-05-03T12:32:02Z</time></trkpt><trkpt lat="38.535355733534224" lon="16.32556733820157"><ele>1027.3333333333333</ele><time>2026-05-03T12:32:03Z</time></trkpt><trkpt lat="38.53522503234262" lon="16.3254610896776"><ele>1026.0</ele><time>2026-05-03T12:32:04Z</time></trkpt><trkpt lat="38.53508570272614" lon="16.32535319676497"><ele>1026.0</ele><time>2026-05-03T12:32:05Z</time></trkpt><trkpt lat="38.53494538443771" lon="16.325265302479178"><ele>1026.0</ele><time>2026-05-03T12:32:06Z</time></trkpt><trkpt lat="38.53487553894369" lon="16.32516872357524"><ele>1026.0</ele><time>2026-05-03T12:32:07Z</time></trkpt><trkpt lat="38.53477784603769" lon="16.325060569877166"><ele>1026.0</ele><time>2026-05-03T12:32:08Z</time></trkpt><trkpt lat="38.53473480111614" lon="16.32490771258576"><ele>1025.6666666666667</ele><time>2026-05-03T12:32:09Z</time></trkpt><trkpt lat="38.534722463615665" lon="16.324696539413907"><ele>1025.3333333333335</ele><time>2026-05-03T12:32:10Z</time></trkpt><trkpt lat="38.53470830135087" lon="16.324465487590473"><ele>1025.0</ele><time>2026-05-03T12:32:11Z</time></trkpt><trkpt lat="38.53468866171101" lon="16.32424016571468"><ele>1025.0</ele><time>2026-05-03T12:32:12Z</time></trkpt><trkpt lat="38.53466148312418" lon="16.3240432283812"><ele>1025.0</ele><time>2026-05-03T12:32:13Z</time></trkpt><trkpt lat="38.53463078758019" lon="16.32387112305013"><ele>1025.0</ele><time>2026-05-03T12:32:14Z</time></trkpt><trkpt lat="38.53456037320303" lon="16.323710287437688"><ele>1025.0</ele><time>2026-05-03T12:32:15Z</time></trkpt><trkpt lat="38.534429948842664" lon="16.32363002181352"><ele>1022.6666666666667</ele><time>2026-05-03T12:32:16.001Z</time></trkpt><trkpt lat="38.534260798136614" lon="16.32353604366162"><ele>1020.3333333333333</ele><time>2026-05-03T12:32:17.001Z</time></trkpt><trkpt lat="38.534054665052444" lon="16.32347990935201"><ele>1018.0</ele><time>2026-05-03T12:32:18.001Z</time></trkpt><trkpt lat="38.53386036959554" lon="16.323406354679467"><ele>1017.0</ele><time>2026-05-03T12:32:19.001Z</time></trkpt><trkpt lat="38.53371049537474" lon="16.323289094263643"><ele>1016.0</ele><time>2026-05-03T12:32:20.001Z</time></trkpt><trkpt lat="38.53356458446316" lon="16.323165200520734"><ele>1015.0</ele><time>2026-05-03T12:32:21.001Z</time></trkpt><trkpt lat="38.53343925912753" lon="16.32303455231839"><ele>1013.25</ele><time>2026-05-03T12:32:22.001Z</time></trkpt><trkpt lat="38.533333188319645" lon="16.32289217217231"><ele>1011.5</ele><time>2026-05-03T12:32:23.001Z</time></trkpt><trkpt lat="38.53323974026651" lon="16.3227398452155"><ele>1009.75</ele><time>2026-05-03T12:32:24.001Z</time></trkpt><trkpt lat="38.53316434859244" lon="16.322606429524924"><ele>1008.0</ele><time>2026-05-03T12:32:25.001Z</time></trkpt><trkpt lat="38.53307878916624" lon="16.322493831846604"><ele>1008.0</ele><time>2026-05-03T12:32:26.001Z</time></trkpt><trkpt lat="38.53301196349524" lon="16.32237534308311"><ele>1008.0</ele><time>2026-05-03T12:32:27Z</time></trkpt><trkpt lat="38.53294803594928" lon="16.32226288794137"><ele>1008.0</ele><time>2026-05-03T12:32:28Z</time></trkpt><trkpt lat="38.53289004338985" lon="16.322147111900637"><ele>1008.0</ele><time>2026-05-03T12:32:29Z</time></trkpt><trkpt lat="38.532830982401464" lon="16.322050650486357"><ele>1008.0</ele><time>2026-05-03T12:32:30Z</time></trkpt><trkpt lat="38.53277849729548" lon="16.321965864952887"><ele>1007.5</ele><time>2026-05-03T12:32:31Z</time></trkpt><trkpt lat="38.5327335482313" lon="16.321882010734136"><ele>1007.0</ele><time>2026-05-03T12:32:32Z</time></trkpt><trkpt lat="38.532689447316905" lon="16.321771258111227"><ele>1006.5</ele><time>2026-05-03T12:32:34Z</time></trkpt><trkpt lat="38.53264943316194" lon="16.321698718966694"><ele>1006.0</ele><time>2026-05-03T12:33:50Z</time></trkpt><trkpt lat="38.532599517030434" lon="16.321613537720413"><ele>1005.5</ele><time>2026-05-03T12:33:53Z</time></trkpt><trkpt lat="38.5325037514977" lon="16.321584368739163"><ele>1005.0</ele><time>2026-05-03T12:33:56Z</time></trkpt><trkpt lat="38.53244529143988" lon="16.32153916688509"><ele>1005.0</ele><time>2026-05-03T12:33:58Z</time></trkpt><trkpt lat="38.532367405496615" lon="16.32147865382498"><ele>1005.0</ele><time>2026-05-03T12:34:00Z</time></trkpt><trkpt lat="38.53224182569557" lon="16.321476038919883"><ele>1005.0</ele><time>2026-05-03T12:34:02Z</time></trkpt><trkpt lat="38.53216314223426" lon="16.32144769577665"><ele>1005.0</ele><time>2026-05-03T12:34:03Z</time></trkpt><trkpt lat="38.532038366083384" lon="16.321424743317"><ele>1005.0</ele><time>2026-05-03T12:34:05Z</time></trkpt><trkpt lat="38.531934208488025" lon="16.321405284134446"><ele>1005.25</ele><time>2026-05-03T12:34:07Z</time></trkpt><trkpt lat="38.53185009790087" lon="16.32138275193034"><ele>1005.5</ele><time>2026-05-03T12:34:08Z</time></trkpt><trkpt lat="38.531675973206234" lon="16.32135938323737"><ele>1005.75</ele><time>2026-05-03T12:34:09Z</time></trkpt><trkpt lat="38.53152933395796" lon="16.321348659726723"><ele>1006.0</ele><time>2026-05-03T12:34:10Z</time></trkpt><trkpt lat="38.53139194579174" lon="16.32132068441526"><ele>1006.0</ele><time>2026-05-03T12:34:11Z</time></trkpt><trkpt lat="38.53126721626279" lon="16.321292245805505"><ele>1006.0</ele><time>2026-05-03T12:34:12Z</time></trkpt><trkpt lat="38.53112614108795" lon="16.321266521215342"><ele>1006.0</ele><time>2026-05-03T12:34:13Z</time></trkpt><trkpt lat="38.53098465751287" lon="16.32123602099787"><ele>1006.0</ele><time>2026-05-03T12:34:14Z</time></trkpt><trkpt lat="38.530838395098584" lon="16.321211284974382"><ele>1004.25</ele><time>2026-05-03T12:34:15Z</time></trkpt><trkpt lat="38.530692666752465" lon="16.32118461416673"><ele>1002.5</ele><time>2026-05-03T12:34:16Z</time></trkpt><trkpt lat="38.530557612949245" lon="16.321159449099763"><ele>1000.75</ele><time>2026-05-03T12:34:17Z</time></trkpt><trkpt lat="38.53041885244363" lon="16.321131865924052"><ele>999.0</ele><time>2026-05-03T12:34:18Z</time></trkpt><trkpt lat="38.53027211256627" lon="16.321112863248384"><ele>999.0</ele><time>2026-05-03T12:34:19Z</time></trkpt><trkpt lat="38.530128662741106" lon="16.32108670871125"><ele>999.0</ele><time>2026-05-03T12:34:20Z</time></trkpt><trkpt lat="38.529984523585604" lon="16.32105656989664"><ele>999.0</ele><time>2026-05-03T12:34:21Z</time></trkpt><trkpt lat="38.529834754309014" lon="16.321032782469626"><ele>999.0</ele><time>2026-05-03T12:34:22.001Z</time></trkpt><trkpt lat="38.52968947341276" lon="16.320989659137613"><ele>999.0</ele><time>2026-05-03T12:34:23.001Z</time></trkpt><trkpt lat="38.52952467123" lon="16.320974988259422"><ele>999.0</ele><time>2026-05-03T12:34:24.001Z</time></trkpt><trkpt lat="38.52935066806962" lon="16.320930552318323"><ele>999.0</ele><time>2026-05-03T12:34:25.001Z</time></trkpt><trkpt lat="38.52919182384261" lon="16.320905880171747"><ele>999.0</ele><time>2026-05-03T12:34:26.001Z</time></trkpt><trkpt lat="38.52901252589129" lon="16.32085933035574"><ele>999.0</ele><time>2026-05-03T12:34:27.001Z</time></trkpt><trkpt lat="38.52885531155755" lon="16.320845685489303"><ele>999.0</ele><time>2026-05-03T12:34:28.001Z</time></trkpt><trkpt lat="38.52868221146434" lon="16.320808513764256"><ele>997.0</ele><time>2026-05-03T12:34:29.001Z</time></trkpt><trkpt lat="38.528509552555406" lon="16.320776591718634"><ele>995.0</ele><time>2026-05-03T12:34:30.001Z</time></trkpt><trkpt lat="38.52833461364901" lon="16.320742999337433"><ele>993.0</ele><time>2026-05-03T12:34:31.001Z</time></trkpt><trkpt lat="38.528155500248" lon="16.320709320899443"><ele>993.0</ele><time>2026-05-03T12:34:32.001Z</time></trkpt><trkpt lat="38.527978782102025" lon="16.32067707502199"><ele>993.0</ele><time>2026-05-03T12:34:33.001Z</time></trkpt><trkpt lat="38.527805098676936" lon="16.320645128332078"><ele>993.0</ele><time>2026-05-03T12:34:34.001Z</time></trkpt><trkpt lat="38.527626963548556" lon="16.320610480194564"><ele>992.3333333333333</ele><time>2026-05-03T12:34:35.001Z</time></trkpt><trkpt lat="38.52745215074965" lon="16.320573441839866"><ele>991.6666666666666</ele><time>2026-05-03T12:34:36.001Z</time></trkpt><trkpt lat="38.52727304163138" lon="16.32053795122457"><ele>991.0</ele><time>2026-05-03T12:34:37.001Z</time></trkpt><trkpt lat="38.52708892086904" lon="16.320505612574802"><ele>990.3333333333333</ele><time>2026-05-03T12:34:38.001Z</time></trkpt><trkpt lat="38.52690328128404" lon="16.320472177174008"><ele>989.6666666666667</ele><time>2026-05-03T12:34:39.001Z</time></trkpt><trkpt lat="38.52671510511993" lon="16.32043720971889"><ele>989.0</ele><time>2026-05-03T12:34:40.001Z</time></trkpt><trkpt lat="38.52652761969195" lon="16.32040288936442"><ele>989.0</ele><time>2026-05-03T12:34:41Z</time></trkpt><trkpt lat="38.52633880931704" lon="16.320370669199406"><ele>989.0</ele><time>2026-05-03T12:34:42Z</time></trkpt><trkpt lat="38.52614728627005" lon="16.320334202209224"><ele>989.0</ele><time>2026-05-03T12:34:43Z</time></trkpt><trkpt lat="38.52595420142774" lon="16.320298019492586"><ele>988.6666666666667</ele><time>2026-05-03T12:34:44Z</time></trkpt><trkpt lat="38.52576504647872" lon="16.320255750484673"><ele>988.3333333333333</ele><time>2026-05-03T12:34:45Z</time></trkpt><trkpt lat="38.52556774427381" lon="16.32021981870407"><ele>988.0</ele><time>2026-05-03T12:34:46Z</time></trkpt><trkpt lat="38.52538059608714" lon="16.320188113592646"><ele>989.6666666666666</ele><time>2026-05-03T12:34:47Z</time></trkpt><trkpt lat="38.52519182115988" lon="16.32015298035358"><ele>991.3333333333333</ele><time>2026-05-03T12:34:48Z</time></trkpt><trkpt lat="38.52500032111848" lon="16.320114422175443"><ele>993.0</ele><time>2026-05-03T12:34:49Z</time></trkpt><trkpt lat="38.52483380019035" lon="16.320100188938728"><ele>993.0</ele><time>2026-05-03T12:34:50Z</time></trkpt><trkpt lat="38.524648288442165" lon="16.32006084913489"><ele>993.0</ele><time>2026-05-03T12:34:51Z</time></trkpt><trkpt lat="38.52442994373321" lon="16.319998428731697"><ele>993.0</ele><time>2026-05-03T12:34:52Z</time></trkpt><trkpt lat="38.52424145811819" lon="16.319979048044512"><ele>993.3333333333333</ele><time>2026-05-03T12:34:53Z</time></trkpt><trkpt lat="38.524040353657455" lon="16.319992465425386"><ele>993.6666666666666</ele><time>2026-05-03T12:34:54Z</time></trkpt><trkpt lat="38.523826029289346" lon="16.320082211226534"><ele>994.0</ele><time>2026-05-03T12:34:55Z</time></trkpt><trkpt lat="38.523663079368326" lon="16.320122528415133"><ele>995.3333333333333</ele><time>2026-05-03T12:34:56Z</time></trkpt><trkpt lat="38.52351042066029" lon="16.320173965708666"><ele>996.6666666666667</ele><time>2026-05-03T12:34:57Z</time></trkpt><trkpt lat="38.523371952775165" lon="16.320138804652633"><ele>998.0</ele><time>2026-05-03T12:34:58Z</time></trkpt><trkpt lat="38.52322622656245" lon="16.32004927186686"><ele>998.0</ele><time>2026-05-03T12:34:59Z</time></trkpt><trkpt lat="38.52308739882632" lon="16.319906301920852"><ele>998.0</ele><time>2026-05-03T12:35:00Z</time></trkpt><trkpt lat="38.52295309490983" lon="16.319758618561053"><ele>998.0</ele><time>2026-05-03T12:35:01Z</time></trkpt><trkpt lat="38.52280623659302" lon="16.31964572458266"><ele>1000.0</ele><time>2026-05-03T12:35:02Z</time></trkpt><trkpt lat="38.52263228977198" lon="16.31955854959975"><ele>1002.0</ele><time>2026-05-03T12:35:03Z</time></trkpt><trkpt lat="38.522429228530115" lon="16.31950249735544"><ele>1004.0</ele><time>2026-05-03T12:35:04Z</time></trkpt><trkpt lat="38.52220078857808" lon="16.31943935562213"><ele>1005.0</ele><time>2026-05-03T12:35:05Z</time></trkpt><trkpt lat="38.522005923647704" lon="16.319382891951648"><ele>1006.0</ele><time>2026-05-03T12:35:06Z</time></trkpt><trkpt lat="38.521729910923675" lon="16.31930615250276"><ele>1006.0</ele><time>2026-05-03T12:35:07Z</time></trkpt><trkpt lat="38.52158343508492" lon="16.319266223169524"><ele>1006.0</ele><time>2026-05-03T12:35:08Z</time></trkpt><trkpt lat="38.52136013191674" lon="16.31920432913437"><ele>1006.0</ele><time>2026-05-03T12:35:09Z</time></trkpt><trkpt lat="38.52115886390642" lon="16.319141015850843"><ele>1006.6666666666666</ele><time>2026-05-03T12:35:10Z</time></trkpt><trkpt lat="38.52099525647623" lon="16.319059404253753"><ele>1007.3333333333333</ele><time>2026-05-03T12:35:11Z</time></trkpt><trkpt lat="38.52086063458059" lon="16.318941935794285"><ele>1008.0</ele><time>2026-05-03T12:35:12Z</time></trkpt><trkpt lat="38.52074083424476" lon="16.31882900128985"><ele>1002.3333333333333</ele><time>2026-05-03T12:35:13Z</time></trkpt><trkpt lat="38.52064193922695" lon="16.318742592150603"><ele>996.6666666666666</ele><time>2026-05-03T12:35:14Z</time></trkpt><trkpt lat="38.52051535407124" lon="16.318647806817673"><ele>991.0</ele><time>2026-05-03T12:35:15Z</time></trkpt><trkpt lat="38.52033980115887" lon="16.31855425128032"><ele>990.3333333333333</ele><time>2026-05-03T12:35:16Z</time></trkpt><trkpt lat="38.520173695418286" lon="16.31851872089972"><ele>989.6666666666667</ele><time>2026-05-03T12:35:17Z</time></trkpt><trkpt lat="38.52000110100778" lon="16.318518388515805"><ele>989.0</ele><time>2026-05-03T12:35:18Z</time></trkpt><trkpt lat="38.51987418663806" lon="16.31852533974185"><ele>989.0</ele><time>2026-05-03T12:35:19Z</time></trkpt><trkpt lat="38.519727221318874" lon="16.31857883049766"><ele>989.0</ele><time>2026-05-03T12:35:20Z</time></trkpt><trkpt lat="38.51958071912697" lon="16.318622539514745"><ele>989.0</ele><time>2026-05-03T12:35:21Z</time></trkpt><trkpt lat="38.519412001288096" lon="16.318691721808605"><ele>990.3333333333334</ele><time>2026-05-03T12:35:22Z</time></trkpt><trkpt lat="38.51928399547107" lon="16.318789283021694"><ele>991.6666666666667</ele><time>2026-05-03T12:35:23Z</time></trkpt><trkpt lat="38.519171979917964" lon="16.318919798936935"><ele>993.0</ele><time>2026-05-03T12:35:24Z</time></trkpt><trkpt lat="38.51906046326963" lon="16.319072879340453"><ele>993.0</ele><time>2026-05-03T12:35:25Z</time></trkpt><trkpt lat="38.51895584578281" lon="16.31921717931833"><ele>993.0</ele><time>2026-05-03T12:35:26Z</time></trkpt><trkpt lat="38.51885373756137" lon="16.31936454041825"><ele>993.0</ele><time>2026-05-03T12:35:27Z</time></trkpt><trkpt lat="38.51880165900941" lon="16.31944872824335"><ele>993.0</ele><time>2026-05-03T12:35:28Z</time></trkpt><trkpt lat="38.51874151133519" lon="16.319552580248466"><ele>987.25</ele><time>2026-05-03T12:35:29Z</time></trkpt><trkpt lat="38.51869574989153" lon="16.319674126365072"><ele>981.5</ele><time>2026-05-03T12:35:30Z</time></trkpt><trkpt lat="38.51868878597897" lon="16.319846892070267"><ele>975.75</ele><time>2026-05-03T12:35:31Z</time></trkpt><trkpt lat="38.51871484693859" lon="16.320048795868775"><ele>970.0</ele><time>2026-05-03T12:35:32Z</time></trkpt><trkpt lat="38.51873309052095" lon="16.320275054426048"><ele>969.6666666666666</ele><time>2026-05-03T12:35:33Z</time></trkpt><trkpt lat="38.51873327742303" lon="16.32054900552742"><ele>969.3333333333333</ele><time>2026-05-03T12:35:34Z</time></trkpt><trkpt lat="38.51879059231832" lon="16.32079564455122"><ele>969.0</ele><time>2026-05-03T12:35:35Z</time></trkpt><trkpt lat="38.51883949563159" lon="16.321044259261107"><ele>972.5</ele><time>2026-05-03T12:35:36Z</time></trkpt><trkpt lat="38.51880317564515" lon="16.32125651654592"><ele>976.0</ele><time>2026-05-03T12:35:37Z</time></trkpt><trkpt lat="38.51885344133454" lon="16.321088409210674"><ele>979.5</ele><time>2026-05-03T12:35:38Z</time></trkpt><trkpt lat="38.51880849301125" lon="16.321186066932604"><ele>983.0</ele><time>2026-05-03T12:35:39Z</time></trkpt><trkpt lat="38.51876008024478" lon="16.321324166163386"><ele>979.75</ele><time>2026-05-03T12:35:40Z</time></trkpt><trkpt lat="38.51868099094357" lon="16.321413648435072"><ele>976.5</ele><time>2026-05-03T12:35:41Z</time></trkpt><trkpt lat="38.51858005549223" lon="16.321474419008833"><ele>973.25</ele><time>2026-05-03T12:35:42Z</time></trkpt><trkpt lat="38.518472480863394" lon="16.321480612837185"><ele>970.0</ele><time>2026-05-03T12:35:43Z</time></trkpt><trkpt lat="38.518357840349886" lon="16.321375543271014"><ele>967.3333333333333</ele><time>2026-05-03T12:35:44Z</time></trkpt><trkpt lat="38.51833974502174" lon="16.321191317280448"><ele>964.6666666666667</ele><time>2026-05-03T12:35:45Z</time></trkpt><trkpt lat="38.518218980007205" lon="16.32105258456722"><ele>962.0</ele><time>2026-05-03T12:35:46Z</time></trkpt><trkpt lat="38.518061444780614" lon="16.320956022500567"><ele>958.6666666666667</ele><time>2026-05-03T12:35:47Z</time></trkpt><trkpt lat="38.51788818450029" lon="16.32085288327807"><ele>955.3333333333333</ele><time>2026-05-03T12:35:48Z</time></trkpt><trkpt lat="38.517731945542394" lon="16.320770305891447"><ele>952.0</ele><time>2026-05-03T12:35:49Z</time></trkpt><trkpt lat="38.517564585881885" lon="16.320723683712004"><ele>952.0</ele><time>2026-05-03T12:35:50Z</time></trkpt><trkpt lat="38.517375977119535" lon="16.32073103984336"><ele>952.0</ele><time>2026-05-03T12:35:51Z</time></trkpt><trkpt lat="38.51718738824283" lon="16.320764600901217"><ele>952.0</ele><time>2026-05-03T12:35:52Z</time></trkpt><trkpt lat="38.5170142111099" lon="16.32079570092501"><ele>950.3333333333333</ele><time>2026-05-03T12:35:53Z</time></trkpt><trkpt lat="38.51684842718604" lon="16.32079734103137"><ele>948.6666666666667</ele><time>2026-05-03T12:35:54Z</time></trkpt><trkpt lat="38.51667436196547" lon="16.320811983977848"><ele>947.0</ele><time>2026-05-03T12:35:55Z</time></trkpt><trkpt lat="38.51651193199093" lon="16.320768765613074"><ele>947.0</ele><time>2026-05-03T12:35:56Z</time></trkpt><trkpt lat="38.516361368670225" lon="16.32073750372739"><ele>947.0</ele><time>2026-05-03T12:35:57Z</time></trkpt><trkpt lat="38.51621902667556" lon="16.320707948857837"><ele>947.0</ele><time>2026-05-03T12:35:58Z</time></trkpt><trkpt lat="38.51608502057714" lon="16.32067901106774"><ele>947.0</ele><time>2026-05-03T12:35:59Z</time></trkpt><trkpt lat="38.51595761171008" lon="16.320649168653365"><ele>945.25</ele><time>2026-05-03T12:36:00Z</time></trkpt><trkpt lat="38.51584988478422" lon="16.320612974241552"><ele>943.5</ele><time>2026-05-03T12:36:01Z</time></trkpt><trkpt lat="38.51574544749694" lon="16.32056233855056"><ele>941.75</ele><time>2026-05-03T12:36:02Z</time></trkpt><trkpt lat="38.51564412743887" lon="16.32051009159367"><ele>940.0</ele><time>2026-05-03T12:36:03Z</time></trkpt><trkpt lat="38.51551850150309" lon="16.320444145202394"><ele>938.0</ele><time>2026-05-03T12:36:04Z</time></trkpt><trkpt lat="38.51539290592549" lon="16.320369577459726"><ele>936.0</ele><time>2026-05-03T12:36:05Z</time></trkpt><trkpt lat="38.51529511305986" lon="16.32031127025917"><ele>934.0</ele><time>2026-05-03T12:36:06Z</time></trkpt><trkpt lat="38.5151872723064" lon="16.320267422376826"><ele>932.0</ele><time>2026-05-03T12:36:07Z</time></trkpt><trkpt lat="38.51510739486729" lon="16.32019523540979"><ele>932.0</ele><time>2026-05-03T12:36:08Z</time></trkpt><trkpt lat="38.515019716183055" lon="16.32013815069614"><ele>932.0</ele><time>2026-05-03T12:36:09Z</time></trkpt><trkpt lat="38.514936050210565" lon="16.32009538530743"><ele>932.0</ele><time>2026-05-03T12:36:10Z</time></trkpt><trkpt lat="38.514889137013675" lon="16.320032668877673"><ele>932.0</ele><time>2026-05-03T12:36:11Z</time></trkpt><trkpt lat="38.51478202520647" lon="16.31994269552542"><ele>932.0</ele><time>2026-05-03T12:36:12Z</time></trkpt><trkpt lat="38.514642253627656" lon="16.319886973094427"><ele>930.5</ele><time>2026-05-03T12:36:13Z</time></trkpt><trkpt lat="38.5145256037623" lon="16.31981731828836"><ele>929.0</ele><time>2026-05-03T12:36:14Z</time></trkpt><trkpt lat="38.51440862604757" lon="16.319738954752044"><ele>927.5</ele><time>2026-05-03T12:36:15Z</time></trkpt><trkpt lat="38.51429328486801" lon="16.31965719550359"><ele>926.0</ele><time>2026-05-03T12:36:16Z</time></trkpt><trkpt lat="38.51419843212072" lon="16.319572190059283"><ele>926.0</ele><time>2026-05-03T12:36:17Z</time></trkpt><trkpt lat="38.5140652980973" lon="16.3194792055566"><ele>926.0</ele><time>2026-05-03T12:36:18Z</time></trkpt><trkpt lat="38.51395318557093" lon="16.319405486708654"><ele>926.0</ele><time>2026-05-03T12:36:19Z</time></trkpt><trkpt lat="38.51387109148846" lon="16.319331971557897"><ele>926.0</ele><time>2026-05-03T12:36:20Z</time></trkpt><trkpt lat="38.513794550083276" lon="16.319289517764137"><ele>925.0</ele><time>2026-05-03T12:36:21Z</time></trkpt><trkpt lat="38.51373416293302" lon="16.31923671859644"><ele>923.9999999999999</ele><time>2026-05-03T12:36:22Z</time></trkpt><trkpt lat="38.51367791377597" lon="16.319185315362404"><ele>923.0</ele><time>2026-05-03T12:36:23Z</time></trkpt><trkpt lat="38.51363448129735" lon="16.319112255381206"><ele>922.0</ele><time>2026-05-03T12:36:24Z</time></trkpt><trkpt lat="38.5136316788473" lon="16.319027260367907"><ele>920.9999999999999</ele><time>2026-05-03T12:36:25Z</time></trkpt><trkpt lat="38.513666782004066" lon="16.318903801161444"><ele>920.0</ele><time>2026-05-03T12:36:27Z</time></trkpt><trkpt lat="38.51368660371182" lon="16.31882620401915"><ele>919.0</ele><time>2026-05-03T12:36:29Z</time></trkpt><trkpt lat="38.51374480476213" lon="16.318783874437816"><ele>919.0</ele><time>2026-05-03T12:36:31Z</time></trkpt><trkpt lat="38.51377628110186" lon="16.31868209716865"><ele>919.0000000000001</ele><time>2026-05-03T12:36:36Z</time></trkpt><trkpt lat="38.51380652285407" lon="16.318610308425736"><ele>919.0000000000001</ele><time>2026-05-03T12:36:37Z</time></trkpt><trkpt lat="38.51393754383312" lon="16.3184705282716"><ele>919.0</ele><time>2026-05-03T12:36:39Z</time></trkpt><trkpt lat="38.514024593934636" lon="16.3184229504294"><ele>919.0</ele><time>2026-05-03T12:36:40Z</time></trkpt><trkpt lat="38.51412531506888" lon="16.31838032505553"><ele>919.0</ele><time>2026-05-03T12:36:41Z</time></trkpt><trkpt lat="38.51424361316574" lon="16.318343804196278"><ele>919.0</ele><time>2026-05-03T12:36:42Z</time></trkpt><trkpt lat="38.51436229835205" lon="16.318286508123382"><ele>919.0</ele><time>2026-05-03T12:36:43Z</time></trkpt><trkpt lat="38.514489829915554" lon="16.31823432370255"><ele>919.0</ele><time>2026-05-03T12:36:44Z</time></trkpt><trkpt lat="38.514620128352306" lon="16.318200314093126"><ele>919.0</ele><time>2026-05-03T12:36:45Z</time></trkpt><trkpt lat="38.51474384460858" lon="16.31818730456503"><ele>919.0</ele><time>2026-05-03T12:36:46Z</time></trkpt><trkpt lat="38.5148710743141" lon="16.318202406813"><ele>919.0</ele><time>2026-05-03T12:36:47Z</time></trkpt><trkpt lat="38.5149884350571" lon="16.318221463816915"><ele>919.0</ele><time>2026-05-03T12:36:48Z</time></trkpt><trkpt lat="38.51509467992564" lon="16.318251314209565"><ele>919.0</ele><time>2026-05-03T12:36:49Z</time></trkpt><trkpt lat="38.51520397477623" lon="16.31831585544122"><ele>919.0</ele><time>2026-05-03T12:36:50Z</time></trkpt><trkpt lat="38.515307533912974" lon="16.31842188667282"><ele>919.0</ele><time>2026-05-03T12:36:51Z</time></trkpt><trkpt lat="38.51539925958401" lon="16.3185272884292"><ele>919.0</ele><time>2026-05-03T12:36:52Z</time></trkpt><trkpt lat="38.5154952702439" lon="16.318584992690845"><ele>918.0</ele><time>2026-05-03T12:36:53Z</time></trkpt><trkpt lat="38.51561496598195" lon="16.318555483897434"><ele>917.0</ele><time>2026-05-03T12:36:54Z</time></trkpt><trkpt lat="38.515730541133024" lon="16.3184683858226"><ele>916.0</ele><time>2026-05-03T12:36:55Z</time></trkpt><trkpt lat="38.51581357971691" lon="16.31834464664815"><ele>915.0</ele><time>2026-05-03T12:36:56Z</time></trkpt><trkpt lat="38.51583782189835" lon="16.318175783196764"><ele>914.75</ele><time>2026-05-03T12:36:57Z</time></trkpt><trkpt lat="38.51580977305272" lon="16.318003740806088"><ele>914.5</ele><time>2026-05-03T12:36:58Z</time></trkpt><trkpt lat="38.515731997317054" lon="16.317835215015005"><ele>914.25</ele><time>2026-05-03T12:36:59Z</time></trkpt><trkpt lat="38.515649665701105" lon="16.31768311048941"><ele>914.0</ele><time>2026-05-03T12:37:00Z</time></trkpt><trkpt lat="38.51555750376512" lon="16.317546427454694"><ele>914.0</ele><time>2026-05-03T12:37:01Z</time></trkpt><trkpt lat="38.515460515041546" lon="16.3174224956926"><ele>914.0</ele><time>2026-05-03T12:37:02Z</time></trkpt><trkpt lat="38.51537519220972" lon="16.317270094334603"><ele>914.0</ele><time>2026-05-03T12:37:03Z</time></trkpt><trkpt lat="38.51524249630967" lon="16.317170253070646"><ele>914.0</ele><time>2026-05-03T12:37:04Z</time></trkpt><trkpt lat="38.51511671230781" lon="16.317048061762932"><ele>912.6666666666667</ele><time>2026-05-03T12:37:05Z</time></trkpt><trkpt lat="38.51499443444424" lon="16.31691947098868"><ele>911.3333333333333</ele><time>2026-05-03T12:37:06Z</time></trkpt><trkpt lat="38.514868302677584" lon="16.316787101004834"><ele>910.0</ele><time>2026-05-03T12:37:07Z</time></trkpt><trkpt lat="38.514745745244255" lon="16.316653984153383"><ele>910.0</ele><time>2026-05-03T12:37:08Z</time></trkpt><trkpt lat="38.51463285345864" lon="16.316535089813755"><ele>910.0</ele><time>2026-05-03T12:37:09Z</time></trkpt><trkpt lat="38.51452403036789" lon="16.316423433984998"><ele>910.0</ele><time>2026-05-03T12:37:10Z</time></trkpt><trkpt lat="38.51445719231822" lon="16.31629546273048"><ele>910.0</ele><time>2026-05-03T12:37:11Z</time></trkpt><trkpt lat="38.51443743831967" lon="16.31615671799107"><ele>909.75</ele><time>2026-05-03T12:37:12Z</time></trkpt><trkpt lat="38.51444356606057" lon="16.31601680148179"><ele>909.5</ele><time>2026-05-03T12:37:13Z</time></trkpt><trkpt lat="38.51452638776509" lon="16.315869511987263"><ele>909.25</ele><time>2026-05-03T12:37:14Z</time></trkpt><trkpt lat="38.514586325641915" lon="16.3157010756439"><ele>909.0</ele><time>2026-05-03T12:37:15Z</time></trkpt><trkpt lat="38.51465843412568" lon="16.31553761026951"><ele>907.75</ele><time>2026-05-03T12:37:16Z</time></trkpt><trkpt lat="38.51472358323198" lon="16.31539613246554"><ele>906.5</ele><time>2026-05-03T12:37:17Z</time></trkpt><trkpt lat="38.514774241018955" lon="16.315254014515844"><ele>905.25</ele><time>2026-05-03T12:37:18Z</time></trkpt><trkpt lat="38.514823647093486" lon="16.315129842013064"><ele>904.0</ele><time>2026-05-03T12:37:19Z</time></trkpt><trkpt lat="38.51482884866318" lon="16.314993936949197"><ele>904.0</ele><time>2026-05-03T12:37:20Z</time></trkpt><trkpt lat="38.51477662758098" lon="16.314845175982448"><ele>904.0000000000001</ele><time>2026-05-03T12:37:21Z</time></trkpt><trkpt lat="38.51466983439901" lon="16.31476902024201"><ele>904.0000000000001</ele><time>2026-05-03T12:37:22Z</time></trkpt><trkpt lat="38.51457717778175" lon="16.31469858051084"><ele>904.0</ele><time>2026-05-03T12:37:23Z</time></trkpt><trkpt lat="38.514522878851295" lon="16.31464351635511"><ele>904.0</ele><time>2026-05-03T12:37:24Z</time></trkpt><trkpt lat="38.514464713395085" lon="16.314566511873053"><ele>904.2</ele><time>2026-05-03T12:37:26Z</time></trkpt><trkpt lat="38.51441473964131" lon="16.314497601433835"><ele>904.4000000000001</ele><time>2026-05-03T12:37:29Z</time></trkpt><trkpt lat="38.51446589947414" lon="16.31437118684579"><ele>904.6</ele><time>2026-05-03T12:37:31Z</time></trkpt><trkpt lat="38.51451434390242" lon="16.314288120394732"><ele>904.8</ele><time>2026-05-03T12:37:36Z</time></trkpt><trkpt lat="38.51457782178413" lon="16.314148104816482"><ele>905.0</ele><time>2026-05-03T12:37:38Z</time></trkpt><trkpt lat="38.5146168352352" lon="16.314052500067696"><ele>905.0</ele><time>2026-05-03T12:37:39Z</time></trkpt><trkpt lat="38.514639417819545" lon="16.31395498980516"><ele>905.0</ele><time>2026-05-03T12:37:40Z</time></trkpt><trkpt lat="38.514639125756666" lon="16.313817724119886"><ele>905.0</ele><time>2026-05-03T12:37:41Z</time></trkpt><trkpt lat="38.51462671165381" lon="16.31367833945363"><ele>905.0</ele><time>2026-05-03T12:37:42Z</time></trkpt><trkpt lat="38.514571704904455" lon="16.31359439003467"><ele>905.0</ele><time>2026-05-03T12:37:43Z</time></trkpt><trkpt lat="38.514583175996144" lon="16.31342320662259"><ele>907.6</ele><time>2026-05-03T12:37:45Z</time></trkpt><trkpt lat="38.514604881857984" lon="16.313334077808037"><ele>910.2</ele><time>2026-05-03T12:37:46Z</time></trkpt><trkpt lat="38.514726302684316" lon="16.313329276907908"><ele>912.8</ele><time>2026-05-03T12:37:47Z</time></trkpt><trkpt lat="38.51482690823307" lon="16.313310583707274"><ele>915.4</ele><time>2026-05-03T12:37:48Z</time></trkpt><trkpt lat="38.514913203943784" lon="16.313282743091687"><ele>918.0</ele><time>2026-05-03T12:37:49Z</time></trkpt><trkpt lat="38.515025892055206" lon="16.313233120311093"><ele>918.0</ele><time>2026-05-03T12:37:50Z</time></trkpt><trkpt lat="38.51513201828626" lon="16.313168485817112"><ele>918.0</ele><time>2026-05-03T12:37:51Z</time></trkpt><trkpt lat="38.5152119336454" lon="16.313112299289646"><ele>918.0</ele><time>2026-05-03T12:37:52Z</time></trkpt><trkpt lat="38.51532325603646" lon="16.31304649353761"><ele>918.0</ele><time>2026-05-03T12:37:53Z</time></trkpt><trkpt lat="38.515395681132745" lon="16.312960604772595"><ele>918.0</ele><time>2026-05-03T12:37:54Z</time></trkpt><trkpt lat="38.515464010422434" lon="16.312856136806953"><ele>918.5</ele><time>2026-05-03T12:37:55Z</time></trkpt><trkpt lat="38.515476801863024" lon="16.31270094457193"><ele>919.0</ele><time>2026-05-03T12:37:56Z</time></trkpt><trkpt lat="38.515502570052895" lon="16.31256588350218"><ele>919.5</ele><time>2026-05-03T12:37:57Z</time></trkpt><trkpt lat="38.5155272575476" lon="16.312433398950517"><ele>920.0</ele><time>2026-05-03T12:37:58Z</time></trkpt><trkpt lat="38.515531485954014" lon="16.31220871062817"><ele>921.25</ele><time>2026-05-03T12:37:59Z</time></trkpt><trkpt lat="38.51554843154339" lon="16.312050792898344"><ele>922.5</ele><time>2026-05-03T12:38:00Z</time></trkpt><trkpt lat="38.51554944522168" lon="16.311928471893278"><ele>923.75</ele><time>2026-05-03T12:38:01Z</time></trkpt><trkpt lat="38.51551743449154" lon="16.31178517714268"><ele>925.0</ele><time>2026-05-03T12:38:02Z</time></trkpt><trkpt lat="38.51547350274116" lon="16.311631614631754"><ele>927.3333333333333</ele><time>2026-05-03T12:38:03Z</time></trkpt><trkpt lat="38.51537795463732" lon="16.31144039414889"><ele>929.6666666666667</ele><time>2026-05-03T12:38:04Z</time></trkpt><trkpt lat="38.515268103971856" lon="16.31123071181457"><ele>932.0</ele><time>2026-05-03T12:38:05Z</time></trkpt><trkpt lat="38.51511651326389" lon="16.310939429652517"><ele>932.0</ele><time>2026-05-03T12:38:06Z</time></trkpt><trkpt lat="38.51497497870048" lon="16.310671371642496"><ele>932.0</ele><time>2026-05-03T12:38:07Z</time></trkpt><trkpt lat="38.51484372250332" lon="16.31041395096382"><ele>932.0</ele><time>2026-05-03T12:38:08Z</time></trkpt><trkpt lat="38.51474093991653" lon="16.31020487583369"><ele>932.0</ele><time>2026-05-03T12:38:09Z</time></trkpt><trkpt lat="38.51465657153016" lon="16.310042872198093"><ele>932.0</ele><time>2026-05-03T12:38:10Z</time></trkpt><trkpt lat="38.514557687740336" lon="16.309868154267004"><ele>934.0</ele><time>2026-05-03T12:38:11Z</time></trkpt><trkpt lat="38.51446231096461" lon="16.3096785814694"><ele>936.0</ele><time>2026-05-03T12:38:12Z</time></trkpt><trkpt lat="38.514420827084145" lon="16.309471426105524"><ele>938.0</ele><time>2026-05-03T12:38:13Z</time></trkpt><trkpt lat="38.51441834076103" lon="16.309203394459264"><ele>938.0</ele><time>2026-05-03T12:38:14Z</time></trkpt><trkpt lat="38.51445715893404" lon="16.309007283197516"><ele>938.0</ele><time>2026-05-03T12:38:15Z</time></trkpt><trkpt lat="38.51443394940287" lon="16.30883544391865"><ele>938.0</ele><time>2026-05-03T12:38:16Z</time></trkpt><trkpt lat="38.51442275481788" lon="16.30863027782296"><ele>938.5</ele><time>2026-05-03T12:38:17Z</time></trkpt><trkpt lat="38.51443424090653" lon="16.308422298447"><ele>939.0</ele><time>2026-05-03T12:38:18Z</time></trkpt><trkpt lat="38.51449107872383" lon="16.308299422337836"><ele>939.5</ele><time>2026-05-03T12:38:19Z</time></trkpt><trkpt lat="38.514600764272224" lon="16.30826962685593"><ele>940.0</ele><time>2026-05-03T12:38:20Z</time></trkpt><trkpt lat="38.514731246967514" lon="16.308191206882462"><ele>940.0</ele><time>2026-05-03T12:38:21Z</time></trkpt><trkpt lat="38.514867584542245" lon="16.308054165779712"><ele>940.0</ele><time>2026-05-03T12:38:22Z</time></trkpt><trkpt lat="38.5149872209771" lon="16.30789387199568"><ele>940.0</ele><time>2026-05-03T12:38:23Z</time></trkpt><trkpt lat="38.5150976067058" lon="16.307699787150003"><ele>940.0</ele><time>2026-05-03T12:38:24Z</time></trkpt><trkpt lat="38.51517958241782" lon="16.307475246051464"><ele>940.0</ele><time>2026-05-03T12:38:25Z</time></trkpt><trkpt lat="38.51527215844822" lon="16.307277757118626"><ele>940.0</ele><time>2026-05-03T12:38:26Z</time></trkpt><trkpt lat="38.515370278283605" lon="16.307090856837416"><ele>944.5</ele><time>2026-05-03T12:38:27Z</time></trkpt><trkpt lat="38.51548704500877" lon="16.30679512700768"><ele>949.0</ele><time>2026-05-03T12:38:28Z</time></trkpt><trkpt lat="38.51560830412795" lon="16.30653488719331"><ele>949.6666666666666</ele><time>2026-05-03T12:38:29Z</time></trkpt><trkpt lat="38.5157171725273" lon="16.3062960665012"><ele>950.3333333333333</ele><time>2026-05-03T12:38:30Z</time></trkpt><trkpt lat="38.51582303478147" lon="16.306036203870278"><ele>951.0</ele><time>2026-05-03T12:38:31Z</time></trkpt><trkpt lat="38.51593404549152" lon="16.305792885501216"><ele>952.0</ele><time>2026-05-03T12:38:32Z</time></trkpt><trkpt lat="38.51603334626243" lon="16.305539991602906"><ele>953.0</ele><time>2026-05-03T12:38:33Z</time></trkpt><trkpt lat="38.516126540958474" lon="16.30530024877143"><ele>954.0</ele><time>2026-05-03T12:38:34Z</time></trkpt><trkpt lat="38.51622685250125" lon="16.3050541394523"><ele>956.0</ele><time>2026-05-03T12:38:35Z</time></trkpt><trkpt lat="38.51633628995892" lon="16.304806424000933"><ele>958.0</ele><time>2026-05-03T12:38:36Z</time></trkpt><trkpt lat="38.51646178627528" lon="16.304557381310666"><ele>959.6666666666666</ele><time>2026-05-03T12:38:37Z</time></trkpt><trkpt lat="38.51658836163428" lon="16.304321506616702"><ele>961.3333333333333</ele><time>2026-05-03T12:38:38Z</time></trkpt><trkpt lat="38.5166663638507" lon="16.304100659591317"><ele>963.0</ele><time>2026-05-03T12:38:39Z</time></trkpt><trkpt lat="38.516781549759045" lon="16.30386692399716"><ele>965.0</ele><time>2026-05-03T12:38:40Z</time></trkpt><trkpt lat="38.5168223746117" lon="16.30358163602816"><ele>967.0</ele><time>2026-05-03T12:38:41Z</time></trkpt><trkpt lat="38.51684330021434" lon="16.303292586504124"><ele>968.5</ele><time>2026-05-03T12:38:42Z</time></trkpt><trkpt lat="38.516870871496835" lon="16.30298498909177"><ele>970.0</ele><time>2026-05-03T12:38:43Z</time></trkpt><trkpt lat="38.516920046609116" lon="16.302686380425005"><ele>970.0</ele><time>2026-05-03T12:38:44Z</time></trkpt><trkpt lat="38.51695353116644" lon="16.302551742517014"><ele>970.0</ele><time>2026-05-03T12:38:45Z</time></trkpt><trkpt lat="38.5170065746883" lon="16.30235412250373"><ele>970.0</ele><time>2026-05-03T12:38:46Z</time></trkpt><trkpt lat="38.51699934809545" lon="16.30218270378912"><ele>970.0</ele><time>2026-05-03T12:38:47Z</time></trkpt><trkpt lat="38.517078059582474" lon="16.30194484774496"><ele>970.3333333333333</ele><time>2026-05-03T12:38:48Z</time></trkpt><trkpt lat="38.51713643460669" lon="16.301768611587537"><ele>970.6666666666667</ele><time>2026-05-03T12:38:49Z</time></trkpt><trkpt lat="38.51714928982047" lon="16.301558515742908"><ele>971.0</ele><time>2026-05-03T12:38:50Z</time></trkpt><trkpt lat="38.51714856828897" lon="16.30132730719501"><ele>971.3333333333334</ele><time>2026-05-03T12:38:51Z</time></trkpt><trkpt lat="38.517061764064344" lon="16.301095993637027"><ele>971.6666666666667</ele><time>2026-05-03T12:38:52Z</time></trkpt><trkpt lat="38.51693651593331" lon="16.300843439927"><ele>972.0</ele><time>2026-05-03T12:38:53Z</time></trkpt><trkpt lat="38.516830733666566" lon="16.30059015784599"><ele>973.3333333333333</ele><time>2026-05-03T12:38:54Z</time></trkpt><trkpt lat="38.51673164466798" lon="16.300325205444764"><ele>974.6666666666666</ele><time>2026-05-03T12:38:55Z</time></trkpt><trkpt lat="38.51664293039703" lon="16.300105773227166"><ele>976.0</ele><time>2026-05-03T12:38:56Z</time></trkpt><trkpt lat="38.51657275314415" lon="16.299897892353577"><ele>978.6666666666666</ele><time>2026-05-03T12:38:57Z</time></trkpt><trkpt lat="38.51650016687672" lon="16.29970545009714"><ele>981.3333333333333</ele><time>2026-05-03T12:38:58Z</time></trkpt><trkpt lat="38.51644168317562" lon="16.299544437310796"><ele>984.0</ele><time>2026-05-03T12:38:59Z</time></trkpt><trkpt lat="38.51643806319724" lon="16.299314284486172"><ele>984.0</ele><time>2026-05-03T12:39:00Z</time></trkpt><trkpt lat="38.51647270739288" lon="16.299121523601656"><ele>984.0</ele><time>2026-05-03T12:39:01Z</time></trkpt><trkpt lat="38.5165265039687" lon="16.298891928975713"><ele>984.0</ele><time>2026-05-03T12:39:02Z</time></trkpt><trkpt lat="38.516552617976984" lon="16.29853648104923"><ele>985.6666666666667</ele><time>2026-05-03T12:39:03Z</time></trkpt><trkpt lat="38.51657243242243" lon="16.298261949166623"><ele>987.3333333333334</ele><time>2026-05-03T12:39:04Z</time></trkpt><trkpt lat="38.51655526249397" lon="16.298102888627103"><ele>989.0</ele><time>2026-05-03T12:39:05Z</time></trkpt><trkpt lat="38.516518344890684" lon="16.297836829271468"><ele>990.25</ele><time>2026-05-03T12:39:06Z</time></trkpt><trkpt lat="38.5164607069012" lon="16.297636326133162"><ele>991.5</ele><time>2026-05-03T12:39:07Z</time></trkpt><trkpt lat="38.516417186674744" lon="16.297479130650064"><ele>992.75</ele><time>2026-05-03T12:39:08Z</time></trkpt><trkpt lat="38.516352548979256" lon="16.29730503222858"><ele>994.0</ele><time>2026-05-03T12:39:09Z</time></trkpt><trkpt lat="38.51626280246057" lon="16.29720932348632"><ele>998.6666666666666</ele><time>2026-05-03T12:39:10Z</time></trkpt><trkpt lat="38.516170468309" lon="16.297064106479525"><ele>1003.3333333333333</ele><time>2026-05-03T12:39:11Z</time></trkpt><trkpt lat="38.516005937398184" lon="16.29681135456828"><ele>1008.0</ele><time>2026-05-03T12:39:12Z</time></trkpt><trkpt lat="38.5158907526083" lon="16.29663286518412"><ele>1008.0</ele><time>2026-05-03T12:39:13Z</time></trkpt><trkpt lat="38.51577847033845" lon="16.2964645255413"><ele>1008.0</ele><time>2026-05-03T12:39:14Z</time></trkpt><trkpt lat="38.51567548397466" lon="16.296277976275277"><ele>1008.0</ele><time>2026-05-03T12:39:15Z</time></trkpt><trkpt lat="38.51560345521606" lon="16.296123611219777"><ele>1009.3333333333333</ele><time>2026-05-03T12:39:16Z</time></trkpt><trkpt lat="38.51553279395583" lon="16.295930220461216"><ele>1010.6666666666666</ele><time>2026-05-03T12:39:17Z</time></trkpt><trkpt lat="38.51546417213206" lon="16.295722300819136"><ele>1012.0</ele><time>2026-05-03T12:39:18Z</time></trkpt><trkpt lat="38.515396666601475" lon="16.295520034380118"><ele>1017.3333333333333</ele><time>2026-05-03T12:39:19Z</time></trkpt><trkpt lat="38.515330195817405" lon="16.295323007847067"><ele>1022.6666666666667</ele><time>2026-05-03T12:39:20Z</time></trkpt><trkpt lat="38.515271267896566" lon="16.295164970221137"><ele>1028.0</ele><time>2026-05-03T12:39:21Z</time></trkpt><trkpt lat="38.515192458674186" lon="16.294995840560073"><ele>1028.0</ele><time>2026-05-03T12:39:22Z</time></trkpt><trkpt lat="38.515088466584665" lon="16.29485207707119"><ele>1028.0</ele><time>2026-05-03T12:39:23Z</time></trkpt><trkpt lat="38.51494312267747" lon="16.294731098368043"><ele>1028.0</ele><time>2026-05-03T12:39:24Z</time></trkpt><trkpt lat="38.51480534008856" lon="16.2946142758557"><ele>1029.25</ele><time>2026-05-03T12:39:25Z</time></trkpt><trkpt lat="38.514730136405916" lon="16.294535571787836"><ele>1030.5</ele><time>2026-05-03T12:39:26Z</time></trkpt><trkpt lat="38.51465985023653" lon="16.29443764710493"><ele>1031.75</ele><time>2026-05-03T12:39:27Z</time></trkpt><trkpt lat="38.51461610959601" lon="16.29430532636319"><ele>1033.0</ele><time>2026-05-03T12:39:28Z</time></trkpt><trkpt lat="38.51464556306251" lon="16.294124549979458"><ele>1033.0</ele><time>2026-05-03T12:39:29Z</time></trkpt><trkpt lat="38.514653752815065" lon="16.293958476975984"><ele>1033.0</ele><time>2026-05-03T12:39:30Z</time></trkpt><trkpt lat="38.514638724295736" lon="16.293834149421503"><ele>1033.0</ele><time>2026-05-03T12:39:31Z</time></trkpt><trkpt lat="38.51455432564676" lon="16.293675426887056"><ele>1033.0</ele><time>2026-05-03T12:39:32Z</time></trkpt><trkpt lat="38.5144195641946" lon="16.29360922196575"><ele>1040.3333333333333</ele><time>2026-05-03T12:39:33Z</time></trkpt><trkpt lat="38.514295296621604" lon="16.293593178997043"><ele>1047.6666666666667</ele><time>2026-05-03T12:39:34Z</time></trkpt><trkpt lat="38.51415178040711" lon="16.29366743744797"><ele>1055.0</ele><time>2026-05-03T12:39:35Z</time></trkpt><trkpt lat="38.51395482279775" lon="16.293729913640483"><ele>1055.0</ele><time>2026-05-03T12:39:36Z</time></trkpt><trkpt lat="38.513769833322925" lon="16.293775827346614"><ele>1055.0</ele><time>2026-05-03T12:39:37Z</time></trkpt><trkpt lat="38.51356576227437" lon="16.293816674941"><ele>1055.0</ele><time>2026-05-03T12:39:38Z</time></trkpt><trkpt lat="38.5134145890546" lon="16.293846934313496"><ele>1057.75</ele><time>2026-05-03T12:39:39Z</time></trkpt><trkpt lat="38.513247036788066" lon="16.293879366603207"><ele>1060.5</ele><time>2026-05-03T12:39:40Z</time></trkpt><trkpt lat="38.51310567155598" lon="16.29390404908423"><ele>1063.25</ele><time>2026-05-03T12:39:41Z</time></trkpt><trkpt lat="38.5130060692871" lon="16.293919956622823"><ele>1066.0</ele><time>2026-05-03T12:39:42Z</time></trkpt><trkpt lat="38.51290893756002" lon="16.293918454004324"><ele>1063.25</ele><time>2026-05-03T12:39:43Z</time></trkpt><trkpt lat="38.51283890771515" lon="16.293877616850004"><ele>1060.5</ele><time>2026-05-03T12:39:44Z</time></trkpt><trkpt lat="38.51274725834646" lon="16.29373951052728"><ele>1057.75</ele><time>2026-05-03T12:39:45Z</time></trkpt><trkpt lat="38.51270791293106" lon="16.293553805227916"><ele>1055.0</ele><time>2026-05-03T12:39:46Z</time></trkpt><trkpt lat="38.5126652561915" lon="16.293309972441087"><ele>1055.0</ele><time>2026-05-03T12:39:47Z</time></trkpt><trkpt lat="38.512691869103584" lon="16.29312941825358"><ele>1055.0</ele><time>2026-05-03T12:39:48Z</time></trkpt><trkpt lat="38.51266574252512" lon="16.292925085411966"><ele>1055.0</ele><time>2026-05-03T12:39:49Z</time></trkpt><trkpt lat="38.512651428315905" lon="16.292691080986646"><ele>1057.3333333333335</ele><time>2026-05-03T12:39:50Z</time></trkpt><trkpt lat="38.512658318854676" lon="16.29242081880343"><ele>1059.6666666666667</ele><time>2026-05-03T12:39:51Z</time></trkpt><trkpt lat="38.51267299780162" lon="16.292147019952246"><ele>1062.0</ele><time>2026-05-03T12:39:52Z</time></trkpt><trkpt lat="38.51265794353331" lon="16.291880817490522"><ele>1062.0</ele><time>2026-05-03T12:39:53Z</time></trkpt><trkpt lat="38.512677347474266" lon="16.29165953003388"><ele>1062.0</ele><time>2026-05-03T12:39:54Z</time></trkpt><trkpt lat="38.5125987986337" lon="16.29138405063601"><ele>1062.0</ele><time>2026-05-03T12:39:55Z</time></trkpt><trkpt lat="38.51252354002154" lon="16.291101203526164"><ele>1062.6666666666667</ele><time>2026-05-03T12:39:56Z</time></trkpt><trkpt lat="38.51243752050772" lon="16.290853634732116"><ele>1063.3333333333335</ele><time>2026-05-03T12:39:57Z</time></trkpt><trkpt lat="38.512360371345316" lon="16.29062733911158"><ele>1064.0</ele><time>2026-05-03T12:39:58Z</time></trkpt><trkpt lat="38.512292763706306" lon="16.290403379635386"><ele>1064.0</ele><time>2026-05-03T12:39:59Z</time></trkpt><trkpt lat="38.51221318301009" lon="16.29018723408269"><ele>1064.0</ele><time>2026-05-03T12:40:00Z</time></trkpt><trkpt lat="38.51210954800631" lon="16.289948152227133"><ele>1064.0</ele><time>2026-05-03T12:40:01Z</time></trkpt><trkpt lat="38.51199151170793" lon="16.289707982685506"><ele>1066.0</ele><time>2026-05-03T12:40:02Z</time></trkpt><trkpt lat="38.51186141760418" lon="16.28948028187374"><ele>1068.0</ele><time>2026-05-03T12:40:03Z</time></trkpt><trkpt lat="38.511729790409" lon="16.289224165269236"><ele>1068.0</ele><time>2026-05-03T12:40:04Z</time></trkpt><trkpt lat="38.511595463376125" lon="16.28897019625254"><ele>1068.0</ele><time>2026-05-03T12:40:05Z</time></trkpt><trkpt lat="38.51147147864142" lon="16.288721856483438"><ele>1068.0</ele><time>2026-05-03T12:40:06Z</time></trkpt><trkpt lat="38.511373255207815" lon="16.28851467550054"><ele>1068.0</ele><time>2026-05-03T12:40:07Z</time></trkpt><trkpt lat="38.511264735246705" lon="16.28828318337514"><ele>1068.0</ele><time>2026-05-03T12:40:08Z</time></trkpt><trkpt lat="38.51114142069538" lon="16.288096892676464"><ele>1075.6666666666667</ele><time>2026-05-03T12:40:09Z</time></trkpt><trkpt lat="38.511033790747064" lon="16.287933857772625"><ele>1083.3333333333335</ele><time>2026-05-03T12:40:10Z</time></trkpt><trkpt lat="38.51086629032419" lon="16.287824601975434"><ele>1091.0</ele><time>2026-05-03T12:40:11Z</time></trkpt><trkpt lat="38.51070280662602" lon="16.287748457931748"><ele>1091.0</ele><time>2026-05-03T12:40:12Z</time></trkpt><trkpt lat="38.51055951260874" lon="16.287693920035306"><ele>1091.0</ele><time>2026-05-03T12:40:13Z</time></trkpt><trkpt lat="38.51043796589159" lon="16.28761466856925"><ele>1091.0</ele><time>2026-05-03T12:40:14Z</time></trkpt><trkpt lat="38.51037695748073" lon="16.287501012666137"><ele>1091.0</ele><time>2026-05-03T12:40:15Z</time></trkpt><trkpt lat="38.510339652903404" lon="16.287370858216647"><ele>1091.0</ele><time>2026-05-03T12:40:16Z</time></trkpt><trkpt lat="38.5103874432594" lon="16.287198677665096"><ele>1091.0</ele><time>2026-05-03T12:40:17Z</time></trkpt><trkpt lat="38.51039786650921" lon="16.286960712101155"><ele>1091.0</ele><time>2026-05-03T12:40:18Z</time></trkpt><trkpt lat="38.510430700924786" lon="16.286714094149463"><ele>1091.0</ele><time>2026-05-03T12:40:19Z</time></trkpt><trkpt lat="38.51046479168445" lon="16.286473134823236"><ele>1091.0</ele><time>2026-05-03T12:40:20Z</time></trkpt><trkpt lat="38.510492259943966" lon="16.28625299042856"><ele>1091.0</ele><time>2026-05-03T12:40:21Z</time></trkpt><trkpt lat="38.5105213632512" lon="16.286023575322098"><ele>1088.3333333333335</ele><time>2026-05-03T12:40:22Z</time></trkpt><trkpt lat="38.51051978103177" lon="16.285761334360036"><ele>1085.6666666666667</ele><time>2026-05-03T12:40:23Z</time></trkpt><trkpt lat="38.51050101161754" lon="16.285451974182006"><ele>1083.0</ele><time>2026-05-03T12:40:24Z</time></trkpt><trkpt lat="38.510459436155244" lon="16.285113614146088"><ele>1083.5</ele><time>2026-05-03T12:40:25Z</time></trkpt><trkpt lat="38.510420608335096" lon="16.284790088715578"><ele>1084.0</ele><time>2026-05-03T12:40:26Z</time></trkpt><trkpt lat="38.510398176761505" lon="16.2844790604131"><ele>1084.0</ele><time>2026-05-03T12:40:27Z</time></trkpt><trkpt lat="38.510376777425186" lon="16.284183048120763"><ele>1084.0</ele><time>2026-05-03T12:40:28Z</time></trkpt><trkpt lat="38.51034270362466" lon="16.283891002923472"><ele>1086.0</ele><time>2026-05-03T12:40:29Z</time></trkpt><trkpt lat="38.510274622786454" lon="16.283573906181385"><ele>1088.0</ele><time>2026-05-03T12:40:30Z</time></trkpt><trkpt lat="38.51017602608631" lon="16.283244264215217"><ele>1086.5</ele><time>2026-05-03T12:40:31Z</time></trkpt><trkpt lat="38.51009290974178" lon="16.282943374897247"><ele>1085.0</ele><time>2026-05-03T12:40:32Z</time></trkpt><trkpt lat="38.510018826610874" lon="16.282685398954047"><ele>1085.0</ele><time>2026-05-03T12:40:33Z</time></trkpt><trkpt lat="38.50998141691882" lon="16.28246914151049"><ele>1085.0</ele><time>2026-05-03T12:40:34Z</time></trkpt><trkpt lat="38.50992284601426" lon="16.282298618698754"><ele>1085.0</ele><time>2026-05-03T12:40:35Z</time></trkpt><trkpt lat="38.50987338622961" lon="16.282079088528366"><ele>1085.25</ele><time>2026-05-03T12:40:36Z</time></trkpt><trkpt lat="38.50980819583134" lon="16.28189507627583"><ele>1085.5</ele><time>2026-05-03T12:40:37Z</time></trkpt><trkpt lat="38.509768401204305" lon="16.28173875501694"><ele>1085.75</ele><time>2026-05-03T12:40:38Z</time></trkpt><trkpt lat="38.50973603502075" lon="16.28164950516636"><ele>1086.0</ele><time>2026-05-03T12:40:39Z</time></trkpt><trkpt lat="38.50969339796787" lon="16.281517192050686"><ele>1086.75</ele><time>2026-05-03T12:40:40Z</time></trkpt><trkpt lat="38.509666554255695" lon="16.281374885975016"><ele>1087.5</ele><time>2026-05-03T12:40:41Z</time></trkpt><trkpt lat="38.50962168011023" lon="16.28121261988873"><ele>1088.25</ele><time>2026-05-03T12:40:42Z</time></trkpt><trkpt lat="38.50958273634456" lon="16.281066180203197"><ele>1089.0</ele><time>2026-05-03T12:40:43Z</time></trkpt><trkpt lat="38.509513947434094" lon="16.28088296415998"><ele>1088.6666666666667</ele><time>2026-05-03T12:40:44Z</time></trkpt><trkpt lat="38.509435341731276" lon="16.28066449723119"><ele>1088.3333333333335</ele><time>2026-05-03T12:40:45Z</time></trkpt><trkpt lat="38.50932930794494" lon="16.28041909199354"><ele>1088.0</ele><time>2026-05-03T12:40:46Z</time></trkpt><trkpt lat="38.50920993401517" lon="16.280161049133202"><ele>1088.0</ele><time>2026-05-03T12:40:47Z</time></trkpt><trkpt lat="38.50909015259842" lon="16.279886982709478"><ele>1088.0</ele><time>2026-05-03T12:40:48Z</time></trkpt><trkpt lat="38.50898019371317" lon="16.279617552668494"><ele>1089.0</ele><time>2026-05-03T12:40:49Z</time></trkpt><trkpt lat="38.50890010043057" lon="16.27936767624294"><ele>1090.0</ele><time>2026-05-03T12:40:50Z</time></trkpt><trkpt lat="38.50883545645302" lon="16.27914282943932"><ele>1091.0</ele><time>2026-05-03T12:40:51Z</time></trkpt><trkpt lat="38.5087890613226" lon="16.278906916941278"><ele>1093.3333333333335</ele><time>2026-05-03T12:40:52Z</time></trkpt><trkpt lat="38.50877398663475" lon="16.278667831286864"><ele>1095.6666666666667</ele><time>2026-05-03T12:40:53Z</time></trkpt><trkpt lat="38.5087767267376" lon="16.278400631455884"><ele>1098.0</ele><time>2026-05-03T12:40:54Z</time></trkpt><trkpt lat="38.50877061909982" lon="16.27811283603313"><ele>1100.0</ele><time>2026-05-03T12:40:55Z</time></trkpt><trkpt lat="38.50878097017754" lon="16.27785966308401"><ele>1102.0</ele><time>2026-05-03T12:40:56Z</time></trkpt><trkpt lat="38.50879610310977" lon="16.277632782091434"><ele>1104.0</ele><time>2026-05-03T12:40:57Z</time></trkpt><trkpt lat="38.50881616881973" lon="16.277419566042006"><ele>1105.3333333333333</ele><time>2026-05-03T12:40:58Z</time></trkpt><trkpt lat="38.508841912117646" lon="16.277187899182557"><ele>1106.6666666666665</ele><time>2026-05-03T12:40:59Z</time></trkpt><trkpt lat="38.50889012558286" lon="16.27694315029549"><ele>1108.0</ele><time>2026-05-03T12:41:00Z</time></trkpt><trkpt lat="38.5089428148034" lon="16.276696426045827"><ele>1109.0</ele><time>2026-05-03T12:41:01Z</time></trkpt><trkpt lat="38.508997923474375" lon="16.276434819997533"><ele>1110.0</ele><time>2026-05-03T12:41:02Z</time></trkpt><trkpt lat="38.509053084437355" lon="16.276193475305423"><ele>1111.0</ele><time>2026-05-03T12:41:03Z</time></trkpt><trkpt lat="38.50912578331249" lon="16.275970125357002"><ele>1111.0</ele><time>2026-05-03T12:41:04Z</time></trkpt><trkpt lat="38.50915995342177" lon="16.27580418833707"><ele>1111.0</ele><time>2026-05-03T12:41:05Z</time></trkpt><trkpt lat="38.509203561748656" lon="16.27561735099626"><ele>1111.0</ele><time>2026-05-03T12:41:06Z</time></trkpt><trkpt lat="38.50921297997861" lon="16.275420641784773"><ele>1111.0</ele><time>2026-05-03T12:41:07Z</time></trkpt><trkpt lat="38.50917736441612" lon="16.27528242113804"><ele>1111.6666666666665</ele><time>2026-05-03T12:41:08Z</time></trkpt><trkpt lat="38.50908945445185" lon="16.275153570262066"><ele>1112.3333333333333</ele><time>2026-05-03T12:41:09Z</time></trkpt><trkpt lat="38.508919204175896" lon="16.275085062146502"><ele>1113.0</ele><time>2026-05-03T12:41:10Z</time></trkpt><trkpt lat="38.50874682369236" lon="16.274983174789615"><ele>1116.3333333333333</ele><time>2026-05-03T12:41:11Z</time></trkpt><trkpt lat="38.50854807660329" lon="16.27487470143495"><ele>1119.6666666666665</ele><time>2026-05-03T12:41:12Z</time></trkpt><trkpt lat="38.508355914062676" lon="16.27476737991732"><ele>1123.0</ele><time>2026-05-03T12:41:13Z</time></trkpt><trkpt lat="38.50818485357033" lon="16.27466957085249"><ele>1123.0</ele><time>2026-05-03T12:41:14Z</time></trkpt><trkpt lat="38.508030550602705" lon="16.27457850922459"><ele>1123.0</ele><time>2026-05-03T12:41:15Z</time></trkpt><trkpt lat="38.50789825630029" lon="16.274498263068303"><ele>1123.0</ele><time>2026-05-03T12:41:16Z</time></trkpt><trkpt lat="38.50778590691684" lon="16.274408839875495"><ele>1123.0</ele><time>2026-05-03T12:41:17Z</time></trkpt><trkpt lat="38.50768580620387" lon="16.274277326825587"><ele>1125.3333333333333</ele><time>2026-05-03T12:41:18Z</time></trkpt><trkpt lat="38.50757766562087" lon="16.274093102589262"><ele>1127.6666666666667</ele><time>2026-05-03T12:41:19Z</time></trkpt><trkpt lat="38.507488584385605" lon="16.273927184745144"><ele>1130.0</ele><time>2026-05-03T12:41:20Z</time></trkpt><trkpt lat="38.50740193824183" lon="16.27375736347317"><ele>1130.0</ele><time>2026-05-03T12:41:21Z</time></trkpt><trkpt lat="38.50730616326462" lon="16.273604943542306"><ele>1130.0</ele><time>2026-05-03T12:41:22Z</time></trkpt><trkpt lat="38.50715813796231" lon="16.27350532391213"><ele>1130.0</ele><time>2026-05-03T12:41:23Z</time></trkpt><trkpt lat="38.50697017348328" lon="16.273464429921244"><ele>1130.0</ele><time>2026-05-03T12:41:24Z</time></trkpt><trkpt lat="38.50676426458348" lon="16.2734539624643"><ele>1130.0</ele><time>2026-05-03T12:41:25Z</time></trkpt><trkpt lat="38.50657275003599" lon="16.27341442640111"><ele>1130.0</ele><time>2026-05-03T12:41:26Z</time></trkpt><trkpt lat="38.506435274199255" lon="16.27338118444631"><ele>1130.0</ele><time>2026-05-03T12:41:27Z</time></trkpt><trkpt lat="38.50631136390253" lon="16.27332629339321"><ele>1130.0</ele><time>2026-05-03T12:41:28Z</time></trkpt><trkpt lat="38.5061746915735" lon="16.273234093192357"><ele>1130.0</ele><time>2026-05-03T12:41:29Z</time></trkpt><trkpt lat="38.50606785414014" lon="16.273127630270974"><ele>1130.0</ele><time>2026-05-03T12:41:30Z</time></trkpt><trkpt lat="38.50601454052366" lon="16.27302296760884"><ele>1130.0</ele><time>2026-05-03T12:41:31Z</time></trkpt><trkpt lat="38.50598845306752" lon="16.27294412212346"><ele>1130.0</ele><time>2026-05-03T12:41:32Z</time></trkpt><trkpt lat="38.50599176697227" lon="16.272821952693953"><ele>1130.0</ele><time>2026-05-03T12:41:33Z</time></trkpt><trkpt lat="38.50605306875753" lon="16.27266287122827"><ele>1130.0</ele><time>2026-05-03T12:41:34Z</time></trkpt><trkpt lat="38.506100029247115" lon="16.27244817545855"><ele>1127.6666666666667</ele><time>2026-05-03T12:41:35Z</time></trkpt><trkpt lat="38.50614562286775" lon="16.272243228868586"><ele>1125.3333333333333</ele><time>2026-05-03T12:41:36Z</time></trkpt><trkpt lat="38.506176002680334" lon="16.272015745319013"><ele>1123.0</ele><time>2026-05-03T12:41:37Z</time></trkpt><trkpt lat="38.50623125322049" lon="16.27180010272579"><ele>1125.3333333333333</ele><time>2026-05-03T12:41:38Z</time></trkpt><trkpt lat="38.50627315525823" lon="16.27157220440402"><ele>1127.6666666666667</ele><time>2026-05-03T12:41:39Z</time></trkpt><trkpt lat="38.50631693940353" lon="16.271338017813925"><ele>1130.0</ele><time>2026-05-03T12:41:40Z</time></trkpt><trkpt lat="38.50636156186619" lon="16.271099347345245"><ele>1130.0</ele><time>2026-05-03T12:41:41Z</time></trkpt><trkpt lat="38.50640141537193" lon="16.270885116329133"><ele>1130.0</ele><time>2026-05-03T12:41:42Z</time></trkpt><trkpt lat="38.50643667988783" lon="16.27069355290636"><ele>1130.0</ele><time>2026-05-03T12:41:43Z</time></trkpt><trkpt lat="38.50646767027713" lon="16.270516917108182"><ele>1130.25</ele><time>2026-05-03T12:41:44Z</time></trkpt><trkpt lat="38.50649368868369" lon="16.27033448663477"><ele>1130.5</ele><time>2026-05-03T12:41:45Z</time></trkpt><trkpt lat="38.50650140886494" lon="16.27015736011776"><ele>1130.75</ele><time>2026-05-03T12:41:46Z</time></trkpt><trkpt lat="38.50647422792955" lon="16.269975879021008"><ele>1131.0</ele><time>2026-05-03T12:41:47Z</time></trkpt><trkpt lat="38.50641413272604" lon="16.269787957379116"><ele>1132.0</ele><time>2026-05-03T12:41:48Z</time></trkpt><trkpt lat="38.506292400607784" lon="16.26960711798992"><ele>1133.0</ele><time>2026-05-03T12:41:49Z</time></trkpt><trkpt lat="38.50615406816673" lon="16.269419126834766"><ele>1134.0</ele><time>2026-05-03T12:41:50Z</time></trkpt><trkpt lat="38.506055335755846" lon="16.269341987954952"><ele>1134.0</ele><time>2026-05-03T12:41:51Z</time></trkpt><trkpt lat="38.505902285413526" lon="16.269211485041875"><ele>1134.0</ele><time>2026-05-03T12:41:52Z</time></trkpt><trkpt lat="38.50578047875436" lon="16.269107789762334"><ele>1134.0</ele><time>2026-05-03T12:41:53Z</time></trkpt><trkpt lat="38.505666825328326" lon="16.268998421677754"><ele>1135.5</ele><time>2026-05-03T12:41:54Z</time></trkpt><trkpt lat="38.505605588509255" lon="16.26890077476317"><ele>1137.0</ele><time>2026-05-03T12:41:55Z</time></trkpt><trkpt lat="38.505514758996355" lon="16.268761239244352"><ele>1138.5</ele><time>2026-05-03T12:41:56Z</time></trkpt><trkpt lat="38.50548726775007" lon="16.268606187751228"><ele>1140.0</ele><time>2026-05-03T12:41:57Z</time></trkpt><trkpt lat="38.50546734938668" lon="16.268434229775707"><ele>1140.0</ele><time>2026-05-03T12:41:58Z</time></trkpt><trkpt lat="38.50552643766454" lon="16.26824219514305"><ele>1140.0</ele><time>2026-05-03T12:41:59Z</time></trkpt><trkpt lat="38.50558360067494" lon="16.268042204506788"><ele>1140.0</ele><time>2026-05-03T12:42:00Z</time></trkpt><trkpt lat="38.505664967531466" lon="16.267869370418936"><ele>1140.3333333333333</ele><time>2026-05-03T12:42:01Z</time></trkpt><trkpt lat="38.50577998014844" lon="16.267694053437864"><ele>1140.6666666666665</ele><time>2026-05-03T12:42:02Z</time></trkpt><trkpt lat="38.505958185699846" lon="16.267549467073568"><ele>1141.0</ele><time>2026-05-03T12:42:04Z</time></trkpt><trkpt lat="38.506115017629554" lon="16.267439405570396"><ele>1141.3333333333333</ele><time>2026-05-03T12:42:05Z</time></trkpt><trkpt lat="38.50626063554161" lon="16.267317472143052"><ele>1141.6666666666667</ele><time>2026-05-03T12:42:06Z</time></trkpt><trkpt lat="38.50641947140038" lon="16.2672022836806"><ele>1142.0</ele><time>2026-05-03T12:42:07Z</time></trkpt><trkpt lat="38.50655984602325" lon="16.2670856931416"><ele>1142.0</ele><time>2026-05-03T12:42:08Z</time></trkpt><trkpt lat="38.50670151016105" lon="16.266957737754208"><ele>1142.0</ele><time>2026-05-03T12:42:09Z</time></trkpt><trkpt lat="38.50684566151285" lon="16.266826112093934"><ele>1142.0</ele><time>2026-05-03T12:42:10Z</time></trkpt><trkpt lat="38.50699305767796" lon="16.26666893922897"><ele>1144.0</ele><time>2026-05-03T12:42:11Z</time></trkpt><trkpt lat="38.5071347653619" lon="16.266489735278995"><ele>1146.0</ele><time>2026-05-03T12:42:12Z</time></trkpt><trkpt lat="38.50733080034057" lon="16.266315515332483"><ele>1148.0</ele><time>2026-05-03T12:42:13Z</time></trkpt><trkpt lat="38.50745917093317" lon="16.26611661107488"><ele>1148.0</ele><time>2026-05-03T12:42:14Z</time></trkpt><trkpt lat="38.50759280173749" lon="16.265939258528554"><ele>1148.0</ele><time>2026-05-03T12:42:15Z</time></trkpt><trkpt lat="38.507722361534" lon="16.265764355490937"><ele>1148.0</ele><time>2026-05-03T12:42:16Z</time></trkpt><trkpt lat="38.507828159299166" lon="16.265558968448012"><ele>1150.6666666666667</ele><time>2026-05-03T12:42:17Z</time></trkpt><trkpt lat="38.5079285346417" lon="16.265361324758416"><ele>1153.3333333333333</ele><time>2026-05-03T12:42:18Z</time></trkpt><trkpt lat="38.508023914044266" lon="16.265153941191816"><ele>1156.0</ele><time>2026-05-03T12:42:19Z</time></trkpt><trkpt lat="38.508120937064966" lon="16.264979232562094"><ele>1156.0</ele><time>2026-05-03T12:42:20Z</time></trkpt><trkpt lat="38.50822549471422" lon="16.264865945228053"><ele>1156.0</ele><time>2026-05-03T12:42:21Z</time></trkpt><trkpt lat="38.50837844803165" lon="16.26475910901721"><ele>1156.0</ele><time>2026-05-03T12:42:22Z</time></trkpt><trkpt lat="38.50852912403351" lon="16.26466005663489"><ele>1156.75</ele><time>2026-05-03T12:42:23Z</time></trkpt><trkpt lat="38.50865949889884" lon="16.26454409902762"><ele>1157.5</ele><time>2026-05-03T12:42:24Z</time></trkpt><trkpt lat="38.508778580739445" lon="16.264472430477944"><ele>1158.25</ele><time>2026-05-03T12:42:25Z</time></trkpt><trkpt lat="38.508843220959996" lon="16.264292527115273"><ele>1159.0</ele><time>2026-05-03T12:42:27Z</time></trkpt><trkpt lat="38.50881165440075" lon="16.26416313751887"><ele>1159.0</ele><time>2026-05-03T12:42:28Z</time></trkpt><trkpt lat="38.50870297154825" lon="16.264035992189026"><ele>1159.0</ele><time>2026-05-03T12:42:29Z</time></trkpt><trkpt lat="38.50854621291389" lon="16.263943882002764"><ele>1159.0</ele><time>2026-05-03T12:42:30Z</time></trkpt><trkpt lat="38.50845556447055" lon="16.26386083444961"><ele>1159.0</ele><time>2026-05-03T12:42:31Z</time></trkpt><trkpt lat="38.508333585877374" lon="16.26374123322544"><ele>1161.25</ele><time>2026-05-03T12:42:32Z</time></trkpt><trkpt lat="38.508203976847334" lon="16.263596395348266"><ele>1163.5</ele><time>2026-05-03T12:42:33Z</time></trkpt><trkpt lat="38.508108899694626" lon="16.26347354561795"><ele>1165.75</ele><time>2026-05-03T12:42:34Z</time></trkpt><trkpt lat="38.508053125332665" lon="16.26336647021846"><ele>1168.0</ele><time>2026-05-03T12:42:35Z</time></trkpt><trkpt lat="38.50812192544276" lon="16.263202910148024"><ele>1167.6666666666665</ele><time>2026-05-03T12:42:37Z</time></trkpt><trkpt lat="38.50822396223042" lon="16.263091143492108"><ele>1167.3333333333333</ele><time>2026-05-03T12:42:38Z</time></trkpt><trkpt lat="38.508342132558525" lon="16.262986764205777"><ele>1167.0</ele><time>2026-05-03T12:42:39Z</time></trkpt><trkpt lat="38.50848817774078" lon="16.262865161753343"><ele>1167.0</ele><time>2026-05-03T12:42:40Z</time></trkpt><trkpt lat="38.508673530267615" lon="16.262741009155736"><ele>1167.0</ele><time>2026-05-03T12:42:41Z</time></trkpt><trkpt lat="38.50879090654169" lon="16.262672599555625"><ele>1167.0</ele><time>2026-05-03T12:42:42Z</time></trkpt><trkpt lat="38.50891726123831" lon="16.262610416656376"><ele>1169.5</ele><time>2026-05-03T12:42:43Z</time></trkpt><trkpt lat="38.50902258788909" lon="16.26253620451884"><ele>1172.0</ele><time>2026-05-03T12:42:44Z</time></trkpt><trkpt lat="38.5091115942294" lon="16.262418870532482"><ele>1174.5</ele><time>2026-05-03T12:42:45Z</time></trkpt><trkpt lat="38.50916337952295" lon="16.262246517296386"><ele>1177.0</ele><time>2026-05-03T12:42:46Z</time></trkpt><trkpt lat="38.50916917864622" lon="16.262071404415224"><ele>1177.0</ele><time>2026-05-03T12:42:47Z</time></trkpt><trkpt lat="38.50914129280653" lon="16.261857638995526"><ele>1177.0</ele><time>2026-05-03T12:42:48Z</time></trkpt><trkpt lat="38.50910127065952" lon="16.261648238914496"><ele>1177.0</ele><time>2026-05-03T12:42:49Z</time></trkpt><trkpt lat="38.50907654113731" lon="16.261468464976023"><ele>1178.0</ele><time>2026-05-03T12:42:50Z</time></trkpt><trkpt lat="38.509056210484864" lon="16.261296194582776"><ele>1179.0</ele><time>2026-05-03T12:42:51Z</time></trkpt><trkpt lat="38.50902858488842" lon="16.261106404196127"><ele>1180.0</ele><time>2026-05-03T12:42:52Z</time></trkpt><trkpt lat="38.50895432730491" lon="16.260919675552095"><ele>1180.0</ele><time>2026-05-03T12:42:53Z</time></trkpt><trkpt lat="38.50883909432928" lon="16.26076790425776"><ele>1180.0</ele><time>2026-05-03T12:42:54Z</time></trkpt><trkpt lat="38.50869541769001" lon="16.260623078614373"><ele>1180.0</ele><time>2026-05-03T12:42:55Z</time></trkpt><trkpt lat="38.50853447101639" lon="16.260488867220143"><ele>1180.3333333333333</ele><time>2026-05-03T12:42:56Z</time></trkpt><trkpt lat="38.50836827974084" lon="16.26037377818249"><ele>1180.6666666666667</ele><time>2026-05-03T12:42:57Z</time></trkpt><trkpt lat="38.5081957613876" lon="16.26020213279308"><ele>1181.0</ele><time>2026-05-03T12:42:58Z</time></trkpt><trkpt lat="38.508013748634944" lon="16.26001881821718"><ele>1181.0</ele><time>2026-05-03T12:42:59Z</time></trkpt><trkpt lat="38.50785615212093" lon="16.259837905488325"><ele>1181.0</ele><time>2026-05-03T12:43:00Z</time></trkpt><trkpt lat="38.50769064196174" lon="16.259663386522003"><ele>1181.0</ele><time>2026-05-03T12:43:01Z</time></trkpt><trkpt lat="38.507517183132876" lon="16.259494299132914"><ele>1181.0</ele><time>2026-05-03T12:43:02Z</time></trkpt><trkpt lat="38.50735473778435" lon="16.259335815095266"><ele>1181.0</ele><time>2026-05-03T12:43:03Z</time></trkpt><trkpt lat="38.507185266354455" lon="16.25916935711808"><ele>1181.0</ele><time>2026-05-03T12:43:04Z</time></trkpt><trkpt lat="38.50701691453234" lon="16.25900769573202"><ele>1180.6666666666667</ele><time>2026-05-03T12:43:05Z</time></trkpt><trkpt lat="38.50685409476442" lon="16.258851520048207"><ele>1180.3333333333333</ele><time>2026-05-03T12:43:06Z</time></trkpt><trkpt lat="38.506704378705955" lon="16.25870663867906"><ele>1180.0</ele><time>2026-05-03T12:43:07Z</time></trkpt><trkpt lat="38.506574542225216" lon="16.258578032117203"><ele>1180.0</ele><time>2026-05-03T12:43:08Z</time></trkpt><trkpt lat="38.50646148559561" lon="16.25845455361642"><ele>1180.0</ele><time>2026-05-03T12:43:09Z</time></trkpt><trkpt lat="38.50637028866846" lon="16.258321407724495"><ele>1180.0</ele><time>2026-05-03T12:43:10Z</time></trkpt><trkpt lat="38.50629475134656" lon="16.25815330304819"><ele>1180.0</ele><time>2026-05-03T12:43:11Z</time></trkpt><trkpt lat="38.50625374609763" lon="16.25800070895579"><ele>1178.6666666666665</ele><time>2026-05-03T12:43:12Z</time></trkpt><trkpt lat="38.50623323299832" lon="16.25784220633984"><ele>1177.3333333333333</ele><time>2026-05-03T12:43:13Z</time></trkpt><trkpt lat="38.506229627000494" lon="16.25765904122342"><ele>1176.0</ele><time>2026-05-03T12:43:14Z</time></trkpt><trkpt lat="38.50630757573624" lon="16.257411532541212"><ele>1175.3333333333333</ele><time>2026-05-03T12:43:15Z</time></trkpt><trkpt lat="38.506394395919365" lon="16.25720757486312"><ele>1174.6666666666665</ele><time>2026-05-03T12:43:16Z</time></trkpt><trkpt lat="38.506460119846345" lon="16.25701030370775"><ele>1174.0</ele><time>2026-05-03T12:43:17Z</time></trkpt><trkpt lat="38.506575637880864" lon="16.25683666721505"><ele>1174.0</ele><time>2026-05-03T12:43:18Z</time></trkpt><trkpt lat="38.50668202290755" lon="16.256679988712087"><ele>1174.0</ele><time>2026-05-03T12:43:19Z</time></trkpt><trkpt lat="38.5067814496408" lon="16.25655079238762"><ele>1174.0</ele><time>2026-05-03T12:43:20Z</time></trkpt><trkpt lat="38.50697265561773" lon="16.25639837000337"><ele>1173.6666666666665</ele><time>2026-05-03T12:43:21Z</time></trkpt><trkpt lat="38.507131881042774" lon="16.256245466611965"><ele>1173.3333333333333</ele><time>2026-05-03T12:43:22Z</time></trkpt><trkpt lat="38.50729673973593" lon="16.256093012531217"><ele>1173.0</ele><time>2026-05-03T12:43:23Z</time></trkpt><trkpt lat="38.50744091125095" lon="16.255954444896417"><ele>1173.0</ele><time>2026-05-03T12:43:24Z</time></trkpt><trkpt lat="38.507572285431735" lon="16.255822917560753"><ele>1173.0</ele><time>2026-05-03T12:43:25Z</time></trkpt><trkpt lat="38.50768926941464" lon="16.25572242852952"><ele>1173.0</ele><time>2026-05-03T12:43:26Z</time></trkpt><trkpt lat="38.50778517077712" lon="16.255586303550988"><ele>1172.5</ele><time>2026-05-03T12:43:27Z</time></trkpt><trkpt lat="38.507842478459715" lon="16.255422245600318"><ele>1172.0</ele><time>2026-05-03T12:43:28Z</time></trkpt><trkpt lat="38.50787445983905" lon="16.255226898141473"><ele>1171.5</ele><time>2026-05-03T12:43:29Z</time></trkpt><trkpt lat="38.50790411934434" lon="16.255039794138433"><ele>1171.0</ele><time>2026-05-03T12:43:30Z</time></trkpt><trkpt lat="38.50786740537826" lon="16.2547869107714"><ele>1170.6666666666665</ele><time>2026-05-03T12:43:31Z</time></trkpt><trkpt lat="38.50786357182337" lon="16.254586138972606"><ele>1170.3333333333333</ele><time>2026-05-03T12:43:32Z</time></trkpt><trkpt lat="38.507838354367514" lon="16.254378718547724"><ele>1170.0</ele><time>2026-05-03T12:43:33Z</time></trkpt><trkpt lat="38.50783995193199" lon="16.25416736988673"><ele>1170.0</ele><time>2026-05-03T12:43:34Z</time></trkpt><trkpt lat="38.50786505140107" lon="16.253958727332765"><ele>1170.0</ele><time>2026-05-03T12:43:35Z</time></trkpt><trkpt lat="38.507914662364996" lon="16.253780113329586"><ele>1170.0</ele><time>2026-05-03T12:43:36Z</time></trkpt><trkpt lat="38.50797578689343" lon="16.253569025856844"><ele>1172.0</ele><time>2026-05-03T12:43:37Z</time></trkpt><trkpt lat="38.5080663596803" lon="16.25335777319098"><ele>1174.0</ele><time>2026-05-03T12:43:38Z</time></trkpt><trkpt lat="38.50808746457875" lon="16.25316843560683"><ele>1176.0</ele><time>2026-05-03T12:43:39Z</time></trkpt><trkpt lat="38.5080668528506" lon="16.25302663113239"><ele>1176.75</ele><time>2026-05-03T12:43:40Z</time></trkpt><trkpt lat="38.50802309272148" lon="16.2528669363632"><ele>1177.5</ele><time>2026-05-03T12:43:41Z</time></trkpt><trkpt lat="38.50796383283946" lon="16.252700939162295"><ele>1178.25</ele><time>2026-05-03T12:43:42Z</time></trkpt><trkpt lat="38.507899775716254" lon="16.252559016934985"><ele>1179.0</ele><time>2026-05-03T12:43:43Z</time></trkpt><trkpt lat="38.50781457317828" lon="16.252377348633193"><ele>1176.6666666666667</ele><time>2026-05-03T12:43:44Z</time></trkpt><trkpt lat="38.50773548485215" lon="16.25220687507674"><ele>1174.3333333333335</ele><time>2026-05-03T12:43:45Z</time></trkpt><trkpt lat="38.507651673728475" lon="16.2520144275478"><ele>1172.0</ele><time>2026-05-03T12:43:46Z</time></trkpt><trkpt lat="38.50757814674734" lon="16.251850339486285"><ele>1172.0</ele><time>2026-05-03T12:43:47Z</time></trkpt><trkpt lat="38.50753336744971" lon="16.251676434739732"><ele>1172.0</ele><time>2026-05-03T12:43:48Z</time></trkpt><trkpt lat="38.50752150379411" lon="16.25147372413683"><ele>1172.0</ele><time>2026-05-03T12:43:49Z</time></trkpt><trkpt lat="38.50753835370819" lon="16.251247449956434"><ele>1173.6666666666667</ele><time>2026-05-03T12:43:50Z</time></trkpt><trkpt lat="38.5075468357037" lon="16.2510115713588"><ele>1175.3333333333333</ele><time>2026-05-03T12:43:51Z</time></trkpt><trkpt lat="38.5075514815064" lon="16.25081556478148"><ele>1177.0</ele><time>2026-05-03T12:43:52Z</time></trkpt><trkpt lat="38.50757463911198" lon="16.25063709107778"><ele>1178.0</ele><time>2026-05-03T12:43:53Z</time></trkpt><trkpt lat="38.50763764069803" lon="16.250488136859364"><ele>1179.0</ele><time>2026-05-03T12:43:54Z</time></trkpt><trkpt lat="38.50776234086918" lon="16.25031842136403"><ele>1180.0</ele><time>2026-05-03T12:43:55Z</time></trkpt><trkpt lat="38.50789070526249" lon="16.250171254101428"><ele>1179.0</ele><time>2026-05-03T12:43:56Z</time></trkpt><trkpt lat="38.50801844998212" lon="16.250007183183353"><ele>1178.0</ele><time>2026-05-03T12:43:57Z</time></trkpt><trkpt lat="38.5081004031004" lon="16.249833482899078"><ele>1177.0</ele><time>2026-05-03T12:43:58Z</time></trkpt><trkpt lat="38.50817768145243" lon="16.249639368096656"><ele>1177.0</ele><time>2026-05-03T12:43:59Z</time></trkpt><trkpt lat="38.50820630341935" lon="16.249482903170012"><ele>1177.0</ele><time>2026-05-03T12:44:00Z</time></trkpt><trkpt lat="38.50820957107165" lon="16.249357447435123"><ele>1177.0</ele><time>2026-05-03T12:44:01Z</time></trkpt><trkpt lat="38.50811316266694" lon="16.249257239005345"><ele>1177.0</ele><time>2026-05-03T12:44:02Z</time></trkpt><trkpt lat="38.50798292740321" lon="16.249188871248148"><ele>1179.6666666666665</ele><time>2026-05-03T12:44:03Z</time></trkpt><trkpt lat="38.50781924013962" lon="16.24912952907835"><ele>1182.3333333333333</ele><time>2026-05-03T12:44:04Z</time></trkpt><trkpt lat="38.50765065640337" lon="16.249149917347363"><ele>1185.0</ele><time>2026-05-03T12:44:05Z</time></trkpt><trkpt lat="38.50750283779666" lon="16.249145571914962"><ele>1185.0</ele><time>2026-05-03T12:44:06Z</time></trkpt><trkpt lat="38.507349210538706" lon="16.249089996143322"><ele>1185.0</ele><time>2026-05-03T12:44:07Z</time></trkpt><trkpt lat="38.50716179573503" lon="16.249007543268142"><ele>1185.0</ele><time>2026-05-03T12:44:08Z</time></trkpt><trkpt lat="38.50698976577918" lon="16.24893138806744"><ele>1185.6666666666667</ele><time>2026-05-03T12:44:09Z</time></trkpt><trkpt lat="38.506790525364174" lon="16.248845102856784"><ele>1186.3333333333335</ele><time>2026-05-03T12:44:10Z</time></trkpt><trkpt lat="38.50658618545406" lon="16.248762857254786"><ele>1187.0</ele><time>2026-05-03T12:44:11Z</time></trkpt><trkpt lat="38.50638155555266" lon="16.248682044198386"><ele>1188.6666666666667</ele><time>2026-05-03T12:44:12Z</time></trkpt><trkpt lat="38.50618398210949" lon="16.24860401787081"><ele>1190.3333333333333</ele><time>2026-05-03T12:44:13Z</time></trkpt><trkpt lat="38.505979820976684" lon="16.248560398182097"><ele>1192.0</ele><time>2026-05-03T12:44:14Z</time></trkpt><trkpt lat="38.50578563308108" lon="16.24847509041728"><ele>1192.0</ele><time>2026-05-03T12:44:15Z</time></trkpt><trkpt lat="38.50559469609616" lon="16.248365407424096"><ele>1192.0</ele><time>2026-05-03T12:44:16Z</time></trkpt><trkpt lat="38.50540056956544" lon="16.24827809849534"><ele>1192.0</ele><time>2026-05-03T12:44:17Z</time></trkpt><trkpt lat="38.50521638125117" lon="16.24818676407345"><ele>1191.75</ele><time>2026-05-03T12:44:18Z</time></trkpt><trkpt lat="38.505068678888065" lon="16.248105205666175"><ele>1191.5</ele><time>2026-05-03T12:44:19Z</time></trkpt><trkpt lat="38.504957061829195" lon="16.248032272455625"><ele>1191.25</ele><time>2026-05-03T12:44:20Z</time></trkpt><trkpt lat="38.504852523884004" lon="16.24798268278296"><ele>1191.0</ele><time>2026-05-03T12:44:21Z</time></trkpt><trkpt lat="38.50472123777523" lon="16.24794197555786"><ele>1190.6666666666667</ele><time>2026-05-03T12:44:22Z</time></trkpt><trkpt lat="38.504574893147286" lon="16.24795487645474"><ele>1190.3333333333335</ele><time>2026-05-03T12:44:23Z</time></trkpt><trkpt lat="38.50441985179326" lon="16.247988981284166"><ele>1190.0</ele><time>2026-05-03T12:44:24Z</time></trkpt><trkpt lat="38.50426598893604" lon="16.24804196170962"><ele>1190.0</ele><time>2026-05-03T12:44:25Z</time></trkpt><trkpt lat="38.504133928328244" lon="16.24808704046343"><ele>1190.0</ele><time>2026-05-03T12:44:26Z</time></trkpt><trkpt lat="38.503999503011926" lon="16.248160663112596"><ele>1190.0</ele><time>2026-05-03T12:44:27Z</time></trkpt><trkpt lat="38.50388524217669" lon="16.248308935161806"><ele>1190.0</ele><time>2026-05-03T12:44:28Z</time></trkpt><trkpt lat="38.50377238465696" lon="16.2484379589067"><ele>1190.0</ele><time>2026-05-03T12:44:29Z</time></trkpt><trkpt lat="38.50363850283982" lon="16.248545392053114"><ele>1190.0</ele><time>2026-05-03T12:44:30Z</time></trkpt><trkpt lat="38.5034850960506" lon="16.248592688869692"><ele>1190.0</ele><time>2026-05-03T12:44:31Z</time></trkpt><trkpt lat="38.50329980240703" lon="16.248634774910894"><ele>1190.0</ele><time>2026-05-03T12:44:32Z</time></trkpt><trkpt lat="38.50312392202119" lon="16.248645577544135"><ele>1190.0</ele><time>2026-05-03T12:44:33Z</time></trkpt><trkpt lat="38.50295732106634" lon="16.248645643621327"><ele>1190.0</ele><time>2026-05-03T12:44:34Z</time></trkpt><trkpt lat="38.502821774622525" lon="16.248633806671105"><ele>1190.25</ele><time>2026-05-03T12:44:35Z</time></trkpt><trkpt lat="38.50270744771742" lon="16.248549453579095"><ele>1190.5</ele><time>2026-05-03T12:44:36Z</time></trkpt><trkpt lat="38.502648340369525" lon="16.248463263677138"><ele>1190.75</ele><time>2026-05-03T12:44:37Z</time></trkpt><trkpt lat="38.502566126637085" lon="16.24831935436173"><ele>1191.0</ele><time>2026-05-03T12:44:38Z</time></trkpt><trkpt lat="38.50248821524475" lon="16.24811427910119"><ele>1192.3333333333333</ele><time>2026-05-03T12:44:39Z</time></trkpt><trkpt lat="38.50242806740331" lon="16.2478936130007"><ele>1193.6666666666665</ele><time>2026-05-03T12:44:40Z</time></trkpt><trkpt lat="38.50234577754817" lon="16.24767880676034"><ele>1195.0</ele><time>2026-05-03T12:44:41Z</time></trkpt><trkpt lat="38.502257305073606" lon="16.247488888971183"><ele>1195.3333333333333</ele><time>2026-05-03T12:44:42Z</time></trkpt><trkpt lat="38.50213930768858" lon="16.247286965381015"><ele>1195.6666666666667</ele><time>2026-05-03T12:44:43Z</time></trkpt><trkpt lat="38.502010944093826" lon="16.24706224160145"><ele>1196.0</ele><time>2026-05-03T12:44:44Z</time></trkpt><trkpt lat="38.50187761855144" lon="16.246862493576934"><ele>1195.6666666666667</ele><time>2026-05-03T12:44:45Z</time></trkpt><trkpt lat="38.50172733040928" lon="16.246660590345265"><ele>1195.3333333333333</ele><time>2026-05-03T12:44:46Z</time></trkpt><trkpt lat="38.50156833006221" lon="16.24648456630744"><ele>1195.0</ele><time>2026-05-03T12:44:47Z</time></trkpt><trkpt lat="38.50139403838649" lon="16.246294373301463"><ele>1194.5</ele><time>2026-05-03T12:44:48Z</time></trkpt><trkpt lat="38.50120080838019" lon="16.246098316695218"><ele>1194.0</ele><time>2026-05-03T12:44:49Z</time></trkpt><trkpt lat="38.50100448382785" lon="16.245906635085593"><ele>1194.0</ele><time>2026-05-03T12:44:50Z</time></trkpt><trkpt lat="38.500838803049746" lon="16.245724512533325"><ele>1194.0</ele><time>2026-05-03T12:44:51Z</time></trkpt><trkpt lat="38.50070397876587" lon="16.245596726440365"><ele>1194.0</ele><time>2026-05-03T12:44:52Z</time></trkpt><trkpt lat="38.50056649735003" lon="16.24543680159562"><ele>1195.0</ele><time>2026-05-03T12:44:53Z</time></trkpt><trkpt lat="38.50041195674155" lon="16.24531509315502"><ele>1196.0</ele><time>2026-05-03T12:44:54Z</time></trkpt><trkpt lat="38.50025958706296" lon="16.24519296566024"><ele>1197.0</ele><time>2026-05-03T12:44:55Z</time></trkpt><trkpt lat="38.50010934393781" lon="16.24511249215998"><ele>1197.0</ele><time>2026-05-03T12:44:56Z</time></trkpt><trkpt lat="38.49997379547889" lon="16.245051878817467"><ele>1197.0</ele><time>2026-05-03T12:44:57Z</time></trkpt><trkpt lat="38.49982428695738" lon="16.245006583745283"><ele>1197.0</ele><time>2026-05-03T12:44:58Z</time></trkpt><trkpt lat="38.49964880773672" lon="16.24501660709547"><ele>1198.0</ele><time>2026-05-03T12:44:59Z</time></trkpt><trkpt lat="38.49945688866544" lon="16.24505450174356"><ele>1199.0</ele><time>2026-05-03T12:45:00Z</time></trkpt><trkpt lat="38.4992562282561" lon="16.245112101624166"><ele>1200.0</ele><time>2026-05-03T12:45:01Z</time></trkpt><trkpt lat="38.499078670490185" lon="16.245128204658453"><ele>1200.0</ele><time>2026-05-03T12:45:02Z</time></trkpt><trkpt lat="38.498911258034866" lon="16.245145450115828"><ele>1200.0</ele><time>2026-05-03T12:45:03Z</time></trkpt><trkpt lat="38.498738217700826" lon="16.245139769047995"><ele>1200.0</ele><time>2026-05-03T12:45:04Z</time></trkpt><trkpt lat="38.49859605579573" lon="16.245102991953956"><ele>1200.25</ele><time>2026-05-03T12:45:05Z</time></trkpt><trkpt lat="38.49847420045563" lon="16.24503996917098"><ele>1200.5</ele><time>2026-05-03T12:45:06Z</time></trkpt><trkpt lat="38.49836210248336" lon="16.244953344163136"><ele>1200.75</ele><time>2026-05-03T12:45:07Z</time></trkpt><trkpt lat="38.49822646471799" lon="16.244842045244265"><ele>1201.0</ele><time>2026-05-03T12:45:08Z</time></trkpt><trkpt lat="38.498031123731316" lon="16.24466383621528"><ele>1203.6666666666665</ele><time>2026-05-03T12:45:09Z</time></trkpt><trkpt lat="38.49790860032826" lon="16.244451523378736"><ele>1206.3333333333333</ele><time>2026-05-03T12:45:10Z</time></trkpt><trkpt lat="38.49775775369772" lon="16.244216402725492"><ele>1209.0</ele><time>2026-05-03T12:45:11Z</time></trkpt><trkpt lat="38.497615871488215" lon="16.244065492779708"><ele>1209.0</ele><time>2026-05-03T12:45:12Z</time></trkpt><trkpt lat="38.4974353124631" lon="16.243990034643186"><ele>1209.0</ele><time>2026-05-03T12:45:13Z</time></trkpt><trkpt lat="38.49721069520931" lon="16.24392242389569"><ele>1209.0</ele><time>2026-05-03T12:45:14Z</time></trkpt><trkpt lat="38.49699955818203" lon="16.24382077332985"><ele>1211.5</ele><time>2026-05-03T12:45:15Z</time></trkpt><trkpt lat="38.496768586877174" lon="16.243725957180693"><ele>1214.0</ele><time>2026-05-03T12:45:16Z</time></trkpt><trkpt lat="38.4965334273465" lon="16.243630415347734"><ele>1214.0</ele><time>2026-05-03T12:45:17Z</time></trkpt><trkpt lat="38.49636732449319" lon="16.24357081003965"><ele>1214.0</ele><time>2026-05-03T12:45:18Z</time></trkpt><trkpt lat="38.49616404498334" lon="16.243463069666646"><ele>1214.0</ele><time>2026-05-03T12:45:19Z</time></trkpt><trkpt lat="38.495972098723996" lon="16.24332812522406"><ele>1214.6666666666667</ele><time>2026-05-03T12:45:20Z</time></trkpt><trkpt lat="38.49579244701915" lon="16.24313367627611"><ele>1215.3333333333333</ele><time>2026-05-03T12:45:21Z</time></trkpt><trkpt lat="38.49563268886283" lon="16.242959538582728"><ele>1216.0</ele><time>2026-05-03T12:45:22Z</time></trkpt><trkpt lat="38.49543716928058" lon="16.24286287188827"><ele>1217.0</ele><time>2026-05-03T12:45:23Z</time></trkpt><trkpt lat="38.49527262355811" lon="16.24280299356945"><ele>1218.0</ele><time>2026-05-03T12:45:24Z</time></trkpt><trkpt lat="38.49512136139338" lon="16.242692259695797"><ele>1219.0</ele><time>2026-05-03T12:45:25Z</time></trkpt><trkpt lat="38.4950018976735" lon="16.24254295231783"><ele>1219.0</ele><time>2026-05-03T12:45:26Z</time></trkpt><trkpt lat="38.49487976745331" lon="16.24246442347895"><ele>1219.0</ele><time>2026-05-03T12:45:27Z</time></trkpt><trkpt lat="38.49473476515225" lon="16.242431593819127"><ele>1219.0</ele><time>2026-05-03T12:45:28Z</time></trkpt><trkpt lat="38.494582194313026" lon="16.2424351968843"><ele>1219.0</ele><time>2026-05-03T12:45:29Z</time></trkpt><trkpt lat="38.49446097310383" lon="16.242423402600004"><ele>1219.0</ele><time>2026-05-03T12:45:30Z</time></trkpt><trkpt lat="38.494360330743866" lon="16.242327536906902"><ele>1219.0</ele><time>2026-05-03T12:45:31Z</time></trkpt><trkpt lat="38.49427164498418" lon="16.242174961335184"><ele>1219.0</ele><time>2026-05-03T12:45:32Z</time></trkpt><trkpt lat="38.49417596181679" lon="16.241953399953783"><ele>1219.0</ele><time>2026-05-03T12:45:33Z</time></trkpt><trkpt lat="38.494105761336634" lon="16.241787701349388"><ele>1219.0</ele><time>2026-05-03T12:45:34Z</time></trkpt><trkpt lat="38.494074192594745" lon="16.241636863844857"><ele>1219.0</ele><time>2026-05-03T12:45:35Z</time></trkpt><trkpt lat="38.49404744513999" lon="16.241512851767713"><ele>1219.0</ele><time>2026-05-03T12:45:36Z</time></trkpt><trkpt lat="38.49404890874171" lon="16.241331766351983"><ele>1217.0</ele><time>2026-05-03T12:45:37Z</time></trkpt><trkpt lat="38.49402305026031" lon="16.241163574471514"><ele>1215.0</ele><time>2026-05-03T12:45:38Z</time></trkpt><trkpt lat="38.49402887358769" lon="16.24103645160116"><ele>1213.0</ele><time>2026-05-03T12:45:39Z</time></trkpt><trkpt lat="38.49407618408566" lon="16.240895045775073"><ele>1211.0</ele><time>2026-05-03T12:45:40Z</time></trkpt><trkpt lat="38.4941636060017" lon="16.24081802015353"><ele>1211.0</ele><time>2026-05-03T12:45:41Z</time></trkpt><trkpt lat="38.49427136801991" lon="16.24071300479655"><ele>1211.0</ele><time>2026-05-03T12:45:42Z</time></trkpt><trkpt lat="38.494394867163514" lon="16.240638191269177"><ele>1211.0</ele><time>2026-05-03T12:45:43Z</time></trkpt><trkpt lat="38.49453233411141" lon="16.240566128384163"><ele>1211.0</ele><time>2026-05-03T12:45:44Z</time></trkpt><trkpt lat="38.4946656294629" lon="16.240507772946444"><ele>1211.0</ele><time>2026-05-03T12:45:45Z</time></trkpt><trkpt lat="38.49477586109583" lon="16.240451877843658"><ele>1211.0</ele><time>2026-05-03T12:45:46Z</time></trkpt><trkpt lat="38.49490616077481" lon="16.240340253087403"><ele>1211.0</ele><time>2026-05-03T12:45:47Z</time></trkpt><trkpt lat="38.49501771775657" lon="16.24024662149877"><ele>1211.0</ele><time>2026-05-03T12:45:48Z</time></trkpt><trkpt lat="38.49511108045217" lon="16.24012057671144"><ele>1211.0</ele><time>2026-05-03T12:45:49Z</time></trkpt><trkpt lat="38.49522152969721" lon="16.23997734025834"><ele>1211.0</ele><time>2026-05-03T12:45:50Z</time></trkpt><trkpt lat="38.49533006704117" lon="16.239817643081732"><ele>1211.0</ele><time>2026-05-03T12:45:51Z</time></trkpt><trkpt lat="38.49541850606459" lon="16.239613450532165"><ele>1209.0</ele><time>2026-05-03T12:45:52Z</time></trkpt><trkpt lat="38.495496505904924" lon="16.2394122636491"><ele>1207.0</ele><time>2026-05-03T12:45:53Z</time></trkpt><trkpt lat="38.49554619158644" lon="16.239213315364083"><ele>1205.0</ele><time>2026-05-03T12:45:54Z</time></trkpt><trkpt lat="38.4955717042397" lon="16.23902462281514"><ele>1202.5</ele><time>2026-05-03T12:45:55Z</time></trkpt><trkpt lat="38.49560119931419" lon="16.238868465669245"><ele>1200.0</ele><time>2026-05-03T12:45:56Z</time></trkpt><trkpt lat="38.49562791738031" lon="16.2386875112912"><ele>1197.5</ele><time>2026-05-03T12:45:57Z</time></trkpt><trkpt lat="38.495699440449464" lon="16.23854844200975"><ele>1195.0</ele><time>2026-05-03T12:45:58Z</time></trkpt><trkpt lat="38.4958214516854" lon="16.238414411830842"><ele>1195.0</ele><time>2026-05-03T12:45:59Z</time></trkpt><trkpt lat="38.49593033909124" lon="16.238294238338657"><ele>1195.0</ele><time>2026-05-03T12:46:00Z</time></trkpt><trkpt lat="38.49604037255903" lon="16.23821428065295"><ele>1195.0</ele><time>2026-05-03T12:46:01Z</time></trkpt><trkpt lat="38.49616855294242" lon="16.23816130946897"><ele>1195.0</ele><time>2026-05-03T12:46:02Z</time></trkpt><trkpt lat="38.496330548001126" lon="16.23811007319773"><ele>1195.0</ele><time>2026-05-03T12:46:03Z</time></trkpt><trkpt lat="38.49651623073685" lon="16.23812377984135"><ele>1195.0</ele><time>2026-05-03T12:46:04Z</time></trkpt><trkpt lat="38.496696833187706" lon="16.23815188534655"><ele>1195.0</ele><time>2026-05-03T12:46:05Z</time></trkpt><trkpt lat="38.496917850368604" lon="16.238182663753328"><ele>1192.6666666666665</ele><time>2026-05-03T12:46:06Z</time></trkpt><trkpt lat="38.49711927478426" lon="16.238197576837646"><ele>1190.3333333333333</ele><time>2026-05-03T12:46:07Z</time></trkpt><trkpt lat="38.4973262125797" lon="16.238196952552947"><ele>1188.0</ele><time>2026-05-03T12:46:08Z</time></trkpt><trkpt lat="38.49752630003124" lon="16.238208857035684"><ele>1188.0</ele><time>2026-05-03T12:46:09Z</time></trkpt><trkpt lat="38.49773020409381" lon="16.23823595200344"><ele>1188.0</ele><time>2026-05-03T12:46:10Z</time></trkpt><trkpt lat="38.497916667546235" lon="16.238243335391857"><ele>1188.0</ele><time>2026-05-03T12:46:11Z</time></trkpt><trkpt lat="38.49809568414211" lon="16.238260999666814"><ele>1184.6666666666667</ele><time>2026-05-03T12:46:12Z</time></trkpt><trkpt lat="38.49827888925111" lon="16.238280268297096"><ele>1181.3333333333335</ele><time>2026-05-03T12:46:13Z</time></trkpt><trkpt lat="38.49847747344852" lon="16.23833595971045"><ele>1178.0</ele><time>2026-05-03T12:46:14Z</time></trkpt><trkpt lat="38.49866426297143" lon="16.23837622212697"><ele>1176.0</ele><time>2026-05-03T12:46:15Z</time></trkpt><trkpt lat="38.4988294495558" lon="16.238385185748445"><ele>1174.0</ele><time>2026-05-03T12:46:16Z</time></trkpt><trkpt lat="38.49896484808117" lon="16.238376825619312"><ele>1172.0</ele><time>2026-05-03T12:46:17Z</time></trkpt><trkpt lat="38.49905188415653" lon="16.238341974781363"><ele>1170.0</ele><time>2026-05-03T12:46:18Z</time></trkpt><trkpt lat="38.49911041595199" lon="16.23828042266094"><ele>1170.0</ele><time>2026-05-03T12:46:19Z</time></trkpt><trkpt lat="38.49915938991326" lon="16.238159088010818"><ele>1170.0</ele><time>2026-05-03T12:46:20Z</time></trkpt><trkpt lat="38.499152788924235" lon="16.238024563666322"><ele>1170.0</ele><time>2026-05-03T12:46:21Z</time></trkpt><trkpt lat="38.49909554935805" lon="16.237902035369167"><ele>1170.0</ele><time>2026-05-03T12:46:22Z</time></trkpt><trkpt lat="38.49904586632236" lon="16.237760599287"><ele>1170.0</ele><time>2026-05-03T12:46:23Z</time></trkpt><trkpt lat="38.4990316710732" lon="16.237604358401914"><ele>1169.75</ele><time>2026-05-03T12:46:24Z</time></trkpt><trkpt lat="38.499070558849695" lon="16.237418859837657"><ele>1169.5</ele><time>2026-05-03T12:46:25Z</time></trkpt><trkpt lat="38.499121364936286" lon="16.237270084414256"><ele>1169.25</ele><time>2026-05-03T12:46:26Z</time></trkpt><trkpt lat="38.49912867855149" lon="16.23710477041106"><ele>1169.0</ele><time>2026-05-03T12:46:27Z</time></trkpt><trkpt lat="38.49911219413739" lon="16.236933896509576"><ele>1168.0</ele><time>2026-05-03T12:46:28Z</time></trkpt><trkpt lat="38.4991121736415" lon="16.23674292754702"><ele>1167.0</ele><time>2026-05-03T12:46:29Z</time></trkpt><trkpt lat="38.49913043324579" lon="16.236559859854594"><ele>1166.0</ele><time>2026-05-03T12:46:30Z</time></trkpt><trkpt lat="38.4991575691402" lon="16.236371661507594"><ele>1165.0</ele><time>2026-05-03T12:46:31Z</time></trkpt><trkpt lat="38.499200208194274" lon="16.236229028257185"><ele>1163.75</ele><time>2026-05-03T12:46:32Z</time></trkpt><trkpt lat="38.49928488477178" lon="16.236087303745308"><ele>1162.5</ele><time>2026-05-03T12:46:33Z</time></trkpt><trkpt lat="38.499353377726216" lon="16.23597914375132"><ele>1161.25</ele><time>2026-05-03T12:46:34Z</time></trkpt><trkpt lat="38.49944547966323" lon="16.235877843158555"><ele>1160.0</ele><time>2026-05-03T12:46:35Z</time></trkpt><trkpt lat="38.49957205894444" lon="16.2357775043968"><ele>1159.0</ele><time>2026-05-03T12:46:36Z</time></trkpt><trkpt lat="38.49973133771134" lon="16.235723965963818"><ele>1158.0</ele><time>2026-05-03T12:46:37Z</time></trkpt><trkpt lat="38.49986059452721" lon="16.235660567230138"><ele>1157.0</ele><time>2026-05-03T12:46:38Z</time></trkpt><trkpt lat="38.49998841316008" lon="16.235620676650413"><ele>1156.0</ele><time>2026-05-03T12:46:39Z</time></trkpt><trkpt lat="38.50010027107329" lon="16.23565570139894"><ele>1156.0</ele><time>2026-05-03T12:46:40Z</time></trkpt><trkpt lat="38.50023434933193" lon="16.23574954127994"><ele>1156.0</ele><time>2026-05-03T12:46:41Z</time></trkpt><trkpt lat="38.50033294991486" lon="16.23586834755762"><ele>1156.0</ele><time>2026-05-03T12:46:42Z</time></trkpt><trkpt lat="38.500430350681214" lon="16.23590770313424"><ele>1156.0</ele><time>2026-05-03T12:46:43Z</time></trkpt><trkpt lat="38.50051581168147" lon="16.235923711661545"><ele>1155.25</ele><time>2026-05-03T12:46:44Z</time></trkpt><trkpt lat="38.50058451344467" lon="16.23577231185817"><ele>1154.5</ele><time>2026-05-03T12:46:46Z</time></trkpt><trkpt lat="38.50058583572468" lon="16.23564182622663"><ele>1153.75</ele><time>2026-05-03T12:46:47Z</time></trkpt><trkpt lat="38.50054949856977" lon="16.23550237751456"><ele>1153.0</ele><time>2026-05-03T12:46:48Z</time></trkpt><trkpt lat="38.50046000026297" lon="16.23537736590513"><ele>1153.0</ele><time>2026-05-03T12:46:49Z</time></trkpt><trkpt lat="38.50044211765244" lon="16.235272824408238"><ele>1153.0</ele><time>2026-05-03T12:46:50Z</time></trkpt><trkpt lat="38.50042435480665" lon="16.235140506178155"><ele>1153.0</ele><time>2026-05-03T12:46:51Z</time></trkpt><trkpt lat="38.500399593944344" lon="16.23499355241371"><ele>1153.0</ele><time>2026-05-03T12:46:52Z</time></trkpt><trkpt lat="38.50038874101588" lon="16.234767997108417"><ele>1151.3333333333333</ele><time>2026-05-03T12:46:53Z</time></trkpt><trkpt lat="38.50041680962633" lon="16.234516989795246"><ele>1149.6666666666667</ele><time>2026-05-03T12:46:54Z</time></trkpt><trkpt lat="38.50053001365725" lon="16.23429048276778"><ele>1148.0</ele><time>2026-05-03T12:46:55Z</time></trkpt><trkpt lat="38.50061109425515" lon="16.234055852660934"><ele>1147.3333333333335</ele><time>2026-05-03T12:46:56Z</time></trkpt><trkpt lat="38.500687895864445" lon="16.233831090290163"><ele>1146.6666666666667</ele><time>2026-05-03T12:46:57Z</time></trkpt><trkpt lat="38.50075828239752" lon="16.2336027110594"><ele>1146.0</ele><time>2026-05-03T12:46:58Z</time></trkpt><trkpt lat="38.50080563763656" lon="16.23334563926365"><ele>1145.6666666666667</ele><time>2026-05-03T12:46:59Z</time></trkpt><trkpt lat="38.50086526700977" lon="16.233084575771475"><ele>1145.3333333333335</ele><time>2026-05-03T12:47:00Z</time></trkpt><trkpt lat="38.50090340948586" lon="16.232821767519596"><ele>1145.0</ele><time>2026-05-03T12:47:01Z</time></trkpt><trkpt lat="38.50093722387437" lon="16.23259335849181"><ele>1145.0</ele><time>2026-05-03T12:47:02Z</time></trkpt><trkpt lat="38.500961970366326" lon="16.23238121570213"><ele>1145.0</ele><time>2026-05-03T12:47:03Z</time></trkpt><trkpt lat="38.50100193082761" lon="16.23218662902352"><ele>1145.0</ele><time>2026-05-03T12:47:04Z</time></trkpt><trkpt lat="38.50102890696965" lon="16.23196915968577"><ele>1143.25</ele><time>2026-05-03T12:47:05Z</time></trkpt><trkpt lat="38.5010835288706" lon="16.23179199956683"><ele>1141.5</ele><time>2026-05-03T12:47:06Z</time></trkpt><trkpt lat="38.50114804913687" lon="16.23161158766839"><ele>1139.75</ele><time>2026-05-03T12:47:07Z</time></trkpt><trkpt lat="38.50122516981886" lon="16.23145714546022"><ele>1138.0</ele><time>2026-05-03T12:47:08Z</time></trkpt><trkpt lat="38.50136605405468" lon="16.23135931014099"><ele>1133.3333333333333</ele><time>2026-05-03T12:47:09Z</time></trkpt><trkpt lat="38.50151233467335" lon="16.231330567556558"><ele>1128.6666666666667</ele><time>2026-05-03T12:47:10Z</time></trkpt><trkpt lat="38.501690628174465" lon="16.23123240951528"><ele>1124.0</ele><time>2026-05-03T12:47:11Z</time></trkpt><trkpt lat="38.5018103150674" lon="16.231142602835963"><ele>1124.0</ele><time>2026-05-03T12:47:12Z</time></trkpt><trkpt lat="38.50189219085554" lon="16.231047056901478"><ele>1124.0</ele><time>2026-05-03T12:47:13Z</time></trkpt><trkpt lat="38.50191517420821" lon="16.230939026664846"><ele>1124.0</ele><time>2026-05-03T12:47:14Z</time></trkpt><trkpt lat="38.501896079540174" lon="16.230852092366774"><ele>1124.0</ele><time>2026-05-03T12:47:15Z</time></trkpt><trkpt lat="38.50181038805389" lon="16.230813716127102"><ele>1124.0</ele><time>2026-05-03T12:47:16Z</time></trkpt><trkpt lat="38.50170024291401" lon="16.230804370180508"><ele>1124.0</ele><time>2026-05-03T12:47:17Z</time></trkpt><trkpt lat="38.501561889413075" lon="16.230820158927838"><ele>1124.0</ele><time>2026-05-03T12:47:18Z</time></trkpt><trkpt lat="38.50143065826561" lon="16.23084195673483"><ele>1124.0</ele><time>2026-05-03T12:47:19Z</time></trkpt><trkpt lat="38.50133734164951" lon="16.230857806269643"><ele>1124.0</ele><time>2026-05-03T12:47:20Z</time></trkpt><trkpt lat="38.50125503638247" lon="16.230792218074892"><ele>1122.25</ele><time>2026-05-03T12:47:21Z</time></trkpt><trkpt lat="38.50119349164055" lon="16.23062673820916"><ele>1120.5</ele><time>2026-05-03T12:47:22Z</time></trkpt><trkpt lat="38.501183710136964" lon="16.23044727807736"><ele>1118.75</ele><time>2026-05-03T12:47:23Z</time></trkpt><trkpt lat="38.50115443633711" lon="16.230269377116656"><ele>1117.0</ele><time>2026-05-03T12:47:24Z</time></trkpt><trkpt lat="38.50108083275725" lon="16.230148251631412"><ele>1117.0</ele><time>2026-05-03T12:47:25Z</time></trkpt><trkpt lat="38.50097470360901" lon="16.230074274911328"><ele>1117.0</ele><time>2026-05-03T12:47:26Z</time></trkpt><trkpt lat="38.500806347514036" lon="16.230015324683002"><ele>1117.0</ele><time>2026-05-03T12:47:27Z</time></trkpt><trkpt lat="38.50063921346101" lon="16.229966901207582"><ele>1117.0</ele><time>2026-05-03T12:47:28Z</time></trkpt><trkpt lat="38.50048092604217" lon="16.229868533258916"><ele>1117.0</ele><time>2026-05-03T12:47:29Z</time></trkpt><trkpt lat="38.50038340625101" lon="16.229731498302396"><ele>1117.0</ele><time>2026-05-03T12:47:30Z</time></trkpt><trkpt lat="38.500301629354" lon="16.229565838906453"><ele>1118.0</ele><time>2026-05-03T12:47:31Z</time></trkpt><trkpt lat="38.50021957201793" lon="16.229367686886082"><ele>1119.0</ele><time>2026-05-03T12:47:32Z</time></trkpt><trkpt lat="38.50013477153652" lon="16.229123095293456"><ele>1120.0</ele><time>2026-05-03T12:47:33Z</time></trkpt><trkpt lat="38.49999243415481" lon="16.22881464676135"><ele>1116.5</ele><time>2026-05-03T12:47:34Z</time></trkpt><trkpt lat="38.49986963829651" lon="16.228483431776052"><ele>1113.0</ele><time>2026-05-03T12:47:35Z</time></trkpt><trkpt lat="38.4997415555794" lon="16.22817228504456"><ele>1112.5</ele><time>2026-05-03T12:47:36Z</time></trkpt><trkpt lat="38.49962797761382" lon="16.227897744802394"><ele>1112.0</ele><time>2026-05-03T12:47:37Z</time></trkpt><trkpt lat="38.49953148732959" lon="16.2276530882316"><ele>1112.0</ele><time>2026-05-03T12:47:38Z</time></trkpt><trkpt lat="38.49944124340877" lon="16.2274159983377"><ele>1112.0</ele><time>2026-05-03T12:47:39Z</time></trkpt><trkpt lat="38.499331893692684" lon="16.22713891201767"><ele>1112.0</ele><time>2026-05-03T12:47:40Z</time></trkpt><trkpt lat="38.499220051962" lon="16.226849663269242"><ele>1112.0</ele><time>2026-05-03T12:47:41Z</time></trkpt><trkpt lat="38.499145960258595" lon="16.226546057198583"><ele>1112.0</ele><time>2026-05-03T12:47:42Z</time></trkpt><trkpt lat="38.49910610939611" lon="16.22628148261539"><ele>1110.0</ele><time>2026-05-03T12:47:43Z</time></trkpt><trkpt lat="38.49906859722094" lon="16.22602479536531"><ele>1108.0</ele><time>2026-05-03T12:47:44Z</time></trkpt><trkpt lat="38.49903565029395" lon="16.22577964321018"><ele>1106.0</ele><time>2026-05-03T12:47:45Z</time></trkpt><trkpt lat="38.498983272107836" lon="16.22555228828053"><ele>1104.0</ele><time>2026-05-03T12:47:46Z</time></trkpt><trkpt lat="38.49896663149291" lon="16.225339714177114"><ele>1102.0</ele><time>2026-05-03T12:47:47Z</time></trkpt><trkpt lat="38.49895128560486" lon="16.225149176984512"><ele>1100.0</ele><time>2026-05-03T12:47:48Z</time></trkpt><trkpt lat="38.498991386634316" lon="16.224898593228332"><ele>1099.6666666666667</ele><time>2026-05-03T12:47:49Z</time></trkpt><trkpt lat="38.49909333077451" lon="16.224674067425628"><ele>1099.3333333333333</ele><time>2026-05-03T12:47:50Z</time></trkpt><trkpt lat="38.499177762747195" lon="16.224462658501906"><ele>1099.0</ele><time>2026-05-03T12:47:51Z</time></trkpt><trkpt lat="38.49930436293201" lon="16.22430180657211"><ele>1099.0</ele><time>2026-05-03T12:47:52Z</time></trkpt><trkpt lat="38.49943587498017" lon="16.224142963558034"><ele>1099.0</ele><time>2026-05-03T12:47:53Z</time></trkpt><trkpt lat="38.499554136979185" lon="16.22400568971601"><ele>1099.0</ele><time>2026-05-03T12:47:54Z</time></trkpt><trkpt lat="38.49969410904442" lon="16.223949438084315"><ele>1095.3333333333333</ele><time>2026-05-03T12:47:55Z</time></trkpt><trkpt lat="38.49985374669393" lon="16.223907152059102"><ele>1091.6666666666667</ele><time>2026-05-03T12:47:56Z</time></trkpt><trkpt lat="38.500052546016406" lon="16.223898669000242"><ele>1088.0</ele><time>2026-05-03T12:47:57Z</time></trkpt><trkpt lat="38.50022237272676" lon="16.22389201857098"><ele>1088.0</ele><time>2026-05-03T12:47:58Z</time></trkpt><trkpt lat="38.500378406521264" lon="16.223873902108828"><ele>1088.0</ele><time>2026-05-03T12:47:59Z</time></trkpt><trkpt lat="38.500497463877494" lon="16.22384080276292"><ele>1088.0</ele><time>2026-05-03T12:48:00Z</time></trkpt><trkpt lat="38.50058854111873" lon="16.223765122672166"><ele>1088.0</ele><time>2026-05-03T12:48:01Z</time></trkpt><trkpt lat="38.50062218556332" lon="16.223620347511417"><ele>1088.0</ele><time>2026-05-03T12:48:02Z</time></trkpt><trkpt lat="38.50060659557792" lon="16.22347652248516"><ele>1088.0</ele><time>2026-05-03T12:48:03Z</time></trkpt><trkpt lat="38.50052812070188" lon="16.22335727427872"><ele>1088.0</ele><time>2026-05-03T12:48:04Z</time></trkpt><trkpt lat="38.50041543541946" lon="16.22331405073352"><ele>1088.0</ele><time>2026-05-03T12:48:05Z</time></trkpt><trkpt lat="38.500312994149695" lon="16.223320011412678"><ele>1088.0</ele><time>2026-05-03T12:48:06Z</time></trkpt><trkpt lat="38.50023867254122" lon="16.22335887345976"><ele>1088.0</ele><time>2026-05-03T12:48:07Z</time></trkpt><trkpt lat="38.50011479667963" lon="16.22344692645979"><ele>1088.0</ele><time>2026-05-03T12:48:08Z</time></trkpt><trkpt lat="38.50001366211619" lon="16.223426640656015"><ele>1088.0</ele><time>2026-05-03T12:48:09Z</time></trkpt><trkpt lat="38.49991321176609" lon="16.22348813146739"><ele>1088.0</ele><time>2026-05-03T12:48:10Z</time></trkpt><trkpt lat="38.49976753582495" lon="16.22353204345577"><ele>1088.0</ele><time>2026-05-03T12:48:11Z</time></trkpt><trkpt lat="38.49958644129877" lon="16.223544547901323"><ele>1088.0</ele><time>2026-05-03T12:48:12Z</time></trkpt><trkpt lat="38.49940622050771" lon="16.22349332853343"><ele>1088.0</ele><time>2026-05-03T12:48:13Z</time></trkpt><trkpt lat="38.49928296974928" lon="16.22339153576949"><ele>1088.8</ele><time>2026-05-03T12:48:15Z</time></trkpt><trkpt lat="38.499196239767436" lon="16.223270720808834"><ele>1089.6</ele><time>2026-05-03T12:48:16Z</time></trkpt><trkpt lat="38.499144463331156" lon="16.22314756786131"><ele>1090.4</ele><time>2026-05-03T12:48:17Z</time></trkpt><trkpt lat="38.499078493129424" lon="16.223066805454046"><ele>1091.2</ele><time>2026-05-03T12:48:18Z</time></trkpt><trkpt lat="38.49898509154194" lon="16.223047191437413"><ele>1092.0</ele><time>2026-05-03T12:48:19Z</time></trkpt><trkpt lat="38.498858012283605" lon="16.223027050649115"><ele>1090.5</ele><time>2026-05-03T12:48:20Z</time></trkpt><trkpt lat="38.49872562029496" lon="16.22292573164111"><ele>1089.0</ele><time>2026-05-03T12:48:21Z</time></trkpt><trkpt lat="38.49867006345409" lon="16.22284657312179"><ele>1087.5</ele><time>2026-05-03T12:48:22Z</time></trkpt><trkpt lat="38.49860608968122" lon="16.222694311491914"><ele>1086.0</ele><time>2026-05-03T12:48:23Z</time></trkpt><trkpt lat="38.49859076826552" lon="16.222550315660964"><ele>1086.0</ele><time>2026-05-03T12:48:24Z</time></trkpt><trkpt lat="38.498689546613" lon="16.22239212413311"><ele>1086.0</ele><time>2026-05-03T12:48:25Z</time></trkpt><trkpt lat="38.49880081375663" lon="16.222224851012093"><ele>1086.0</ele><time>2026-05-03T12:48:26Z</time></trkpt><trkpt lat="38.49889636470094" lon="16.222056120849576"><ele>1082.6666666666667</ele><time>2026-05-03T12:48:27Z</time></trkpt><trkpt lat="38.49897725467858" lon="16.2218349410314"><ele>1079.3333333333335</ele><time>2026-05-03T12:48:28Z</time></trkpt><trkpt lat="38.49904300669123" lon="16.2216746757583"><ele>1076.0</ele><time>2026-05-03T12:48:29Z</time></trkpt><trkpt lat="38.49912205297058" lon="16.22151990892908"><ele>1074.3333333333335</ele><time>2026-05-03T12:48:30Z</time></trkpt><trkpt lat="38.49921409416371" lon="16.221347866037174"><ele>1072.6666666666667</ele><time>2026-05-03T12:48:31Z</time></trkpt><trkpt lat="38.4993018176649" lon="16.22115756119691"><ele>1071.0</ele><time>2026-05-03T12:48:32Z</time></trkpt><trkpt lat="38.499371597664314" lon="16.22096896222678"><ele>1071.0</ele><time>2026-05-03T12:48:33Z</time></trkpt><trkpt lat="38.499423134679674" lon="16.220804019757665"><ele>1071.0</ele><time>2026-05-03T12:48:34Z</time></trkpt><trkpt lat="38.49941815087316" lon="16.22063945442934"><ele>1071.0</ele><time>2026-05-03T12:48:35Z</time></trkpt><trkpt lat="38.499365876336675" lon="16.220485662731264"><ele>1071.0</ele><time>2026-05-03T12:48:36Z</time></trkpt><trkpt lat="38.49925271604343" lon="16.2203726053299"><ele>1069.6666666666667</ele><time>2026-05-03T12:48:37Z</time></trkpt><trkpt lat="38.499109441540185" lon="16.220230622221052"><ele>1068.3333333333335</ele><time>2026-05-03T12:48:38Z</time></trkpt><trkpt lat="38.49894936451142" lon="16.220083435010498"><ele>1067.0</ele><time>2026-05-03T12:48:39Z</time></trkpt><trkpt lat="38.49884477233978" lon="16.2199674297058"><ele>1067.0</ele><time>2026-05-03T12:48:40Z</time></trkpt><trkpt lat="38.49875959208555" lon="16.219861222297823"><ele>1067.0</ele><time>2026-05-03T12:48:41Z</time></trkpt><trkpt lat="38.49868897161283" lon="16.219712605527356"><ele>1067.0</ele><time>2026-05-03T12:48:42Z</time></trkpt><trkpt lat="38.498619893039496" lon="16.219466978276625"><ele>1065.0</ele><time>2026-05-03T12:48:43Z</time></trkpt><trkpt lat="38.49853398093308" lon="16.219213290471554"><ele>1063.0</ele><time>2026-05-03T12:48:44Z</time></trkpt><trkpt lat="38.4983938041931" lon="16.218979129061847"><ele>1061.0</ele><time>2026-05-03T12:48:45Z</time></trkpt><trkpt lat="38.49831834838713" lon="16.21868897529361"><ele>1060.5</ele><time>2026-05-03T12:48:46Z</time></trkpt><trkpt lat="38.49824139117651" lon="16.218413689722144"><ele>1060.0</ele><time>2026-05-03T12:48:47Z</time></trkpt><trkpt lat="38.49813472346861" lon="16.21814149971307"><ele>1057.0</ele><time>2026-05-03T12:48:48Z</time></trkpt><trkpt lat="38.4980787106412" lon="16.2178482926502"><ele>1054.0</ele><time>2026-05-03T12:48:49Z</time></trkpt><trkpt lat="38.497977677221165" lon="16.217581207959785"><ele>1058.0</ele><time>2026-05-03T12:48:50Z</time></trkpt><trkpt lat="38.49790771852576" lon="16.21732897356412"><ele>1062.0</ele><time>2026-05-03T12:48:51Z</time></trkpt><trkpt lat="38.49784869794723" lon="16.21708905252562"><ele>1066.0</ele><time>2026-05-03T12:48:52Z</time></trkpt><trkpt lat="38.49782113063417" lon="16.216849416000112"><ele>1066.0</ele><time>2026-05-03T12:48:53Z</time></trkpt><trkpt lat="38.49781564047757" lon="16.216629009341176"><ele>1066.0</ele><time>2026-05-03T12:48:54Z</time></trkpt><trkpt lat="38.4978011401718" lon="16.216408257891008"><ele>1066.0</ele><time>2026-05-03T12:48:55Z</time></trkpt><trkpt lat="38.49773513255742" lon="16.216266793881154"><ele>1064.8</ele><time>2026-05-03T12:48:56Z</time></trkpt><trkpt lat="38.497633265835326" lon="16.21614351261812"><ele>1063.6</ele><time>2026-05-03T12:48:57Z</time></trkpt><trkpt lat="38.49756148387637" lon="16.216042669569227"><ele>1062.4</ele><time>2026-05-03T12:48:58Z</time></trkpt><trkpt lat="38.497577708526634" lon="16.21595598834313"><ele>1061.2</ele><time>2026-05-03T12:48:59Z</time></trkpt><trkpt lat="38.497591670847136" lon="16.215827733930073"><ele>1060.0</ele><time>2026-05-03T12:49:00Z</time></trkpt><trkpt lat="38.49766268916184" lon="16.21566529321768"><ele>1060.0</ele><time>2026-05-03T12:49:01Z</time></trkpt><trkpt lat="38.49772098745124" lon="16.21544246162365"><ele>1060.0</ele><time>2026-05-03T12:49:02Z</time></trkpt><trkpt lat="38.49777648623484" lon="16.21521553008546"><ele>1060.0</ele><time>2026-05-03T12:49:03Z</time></trkpt><trkpt lat="38.49783164438936" lon="16.214959150287413"><ele>1060.0</ele><time>2026-05-03T12:49:04Z</time></trkpt><trkpt lat="38.49789466812763" lon="16.214734937723627"><ele>1060.0</ele><time>2026-05-03T12:49:05Z</time></trkpt><trkpt lat="38.49792654948965" lon="16.214446021818517"><ele>1060.0</ele><time>2026-05-03T12:49:06Z</time></trkpt><trkpt lat="38.49800269493428" lon="16.214180796048463"><ele>1055.6666666666665</ele><time>2026-05-03T12:49:07Z</time></trkpt><trkpt lat="38.4980616528945" lon="16.21392750844724"><ele>1051.3333333333333</ele><time>2026-05-03T12:49:08Z</time></trkpt><trkpt lat="38.49809429723814" lon="16.21371572951273"><ele>1047.0</ele><time>2026-05-03T12:49:09Z</time></trkpt><trkpt lat="38.49810974973092" lon="16.21355600412717"><ele>1047.0</ele><time>2026-05-03T12:49:10Z</time></trkpt><trkpt lat="38.498102559689116" lon="16.213428315243277"><ele>1047.0</ele><time>2026-05-03T12:49:11Z</time></trkpt><trkpt lat="38.49806177308254" lon="16.213340565531123"><ele>1047.0</ele><time>2026-05-03T12:49:12Z</time></trkpt><trkpt lat="38.497959205912906" lon="16.213239960060612"><ele>1047.0</ele><time>2026-05-03T12:49:13Z</time></trkpt><trkpt lat="38.497799440628185" lon="16.213084241724506"><ele>1048.5</ele><time>2026-05-03T12:49:14Z</time></trkpt><trkpt lat="38.497647212206175" lon="16.21282241425325"><ele>1050.0</ele><time>2026-05-03T12:49:15Z</time></trkpt><trkpt lat="38.497532730474774" lon="16.212550885918244"><ele>1049.0</ele><time>2026-05-03T12:49:16Z</time></trkpt><trkpt lat="38.49743104305888" lon="16.212271128429684"><ele>1048.0</ele><time>2026-05-03T12:49:17Z</time></trkpt><trkpt lat="38.49732177602906" lon="16.212018861845618"><ele>1048.0</ele><time>2026-05-03T12:49:18Z</time></trkpt><trkpt lat="38.4972448758117" lon="16.211787316433917"><ele>1048.0</ele><time>2026-05-03T12:49:19Z</time></trkpt><trkpt lat="38.49715476797098" lon="16.211530440189765"><ele>1048.0</ele><time>2026-05-03T12:49:20Z</time></trkpt><trkpt lat="38.49708152914581" lon="16.211263498279077"><ele>1046.6666666666665</ele><time>2026-05-03T12:49:21Z</time></trkpt><trkpt lat="38.49700651398021" lon="16.21102558158387"><ele>1045.3333333333333</ele><time>2026-05-03T12:49:22Z</time></trkpt><trkpt lat="38.496946111246814" lon="16.210773628459833"><ele>1044.0</ele><time>2026-05-03T12:49:23Z</time></trkpt><trkpt lat="38.49688349193199" lon="16.210523975896653"><ele>1044.0</ele><time>2026-05-03T12:49:24Z</time></trkpt><trkpt lat="38.49682261431226" lon="16.210315039826725"><ele>1044.0</ele><time>2026-05-03T12:49:25Z</time></trkpt><trkpt lat="38.49678311231086" lon="16.21014928143446"><ele>1044.0</ele><time>2026-05-03T12:49:26Z</time></trkpt><trkpt lat="38.49677729112275" lon="16.209982793713262"><ele>1044.0</ele><time>2026-05-03T12:49:27Z</time></trkpt><trkpt lat="38.496803089571976" lon="16.209767165121036"><ele>1041.5</ele><time>2026-05-03T12:49:28Z</time></trkpt><trkpt lat="38.496854258545376" lon="16.20951305515494"><ele>1039.0</ele><time>2026-05-03T12:49:29Z</time></trkpt><trkpt lat="38.4969915889017" lon="16.209245247304437"><ele>1039.0</ele><time>2026-05-03T12:49:30Z</time></trkpt><trkpt lat="38.49704383819996" lon="16.20899612149806"><ele>1039.0</ele><time>2026-05-03T12:49:31Z</time></trkpt><trkpt lat="38.49709045513909" lon="16.20882035697374"><ele>1039.0</ele><time>2026-05-03T12:49:32Z</time></trkpt><trkpt lat="38.497130771276375" lon="16.208681782054025"><ele>1036.25</ele><time>2026-05-03T12:49:33Z</time></trkpt><trkpt lat="38.497092636481625" lon="16.20853189853925"><ele>1033.5</ele><time>2026-05-03T12:49:34Z</time></trkpt><trkpt lat="38.49699616193718" lon="16.208424063729023"><ele>1030.75</ele><time>2026-05-03T12:49:35Z</time></trkpt><trkpt lat="38.49686532828115" lon="16.20837070465054"><ele>1028.0</ele><time>2026-05-03T12:49:36Z</time></trkpt><trkpt lat="38.49667004088956" lon="16.20840702641621"><ele>1028.0</ele><time>2026-05-03T12:49:37Z</time></trkpt><trkpt lat="38.49645521781976" lon="16.20843670715836"><ele>1028.0</ele><time>2026-05-03T12:49:38Z</time></trkpt><trkpt lat="38.49628542535906" lon="16.208468446752985"><ele>1028.0</ele><time>2026-05-03T12:49:39Z</time></trkpt><trkpt lat="38.49617713485552" lon="16.208502893777933"><ele>1027.2</ele><time>2026-05-03T12:49:40Z</time></trkpt><trkpt lat="38.49610537013838" lon="16.208475732475232"><ele>1026.4</ele><time>2026-05-03T12:49:41Z</time></trkpt><trkpt lat="38.49603950046082" lon="16.208375574574195"><ele>1025.6000000000001</ele><time>2026-05-03T12:49:42Z</time></trkpt><trkpt lat="38.49599299679925" lon="16.208222310357126"><ele>1024.8</ele><time>2026-05-03T12:49:43Z</time></trkpt><trkpt lat="38.49601995779926" lon="16.20809628158065"><ele>1024.0</ele><time>2026-05-03T12:49:44Z</time></trkpt><trkpt lat="38.49607727066888" lon="16.20798777249564"><ele>1022.8000000000001</ele><time>2026-05-03T12:49:45Z</time></trkpt><trkpt lat="38.49618429192875" lon="16.20791738335055"><ele>1021.6000000000001</ele><time>2026-05-03T12:49:46Z</time></trkpt><trkpt lat="38.496274816303945" lon="16.207876248164354"><ele>1020.4</ele><time>2026-05-03T12:49:47Z</time></trkpt><trkpt lat="38.496309103715966" lon="16.20772022420436"><ele>1019.2</ele><time>2026-05-03T12:49:49Z</time></trkpt><trkpt lat="38.49627573618919" lon="16.207632552154138"><ele>1018.0</ele><time>2026-05-03T12:49:50Z</time></trkpt><trkpt lat="38.49618047297939" lon="16.207578645221222"><ele>1017.25</ele><time>2026-05-03T12:49:51Z</time></trkpt><trkpt lat="38.49601177059162" lon="16.207652554368565"><ele>1016.5</ele><time>2026-05-03T12:49:53Z</time></trkpt><trkpt lat="38.49594075518796" lon="16.207753440160477"><ele>1015.75</ele><time>2026-05-03T12:49:54Z</time></trkpt><trkpt lat="38.49582149107016" lon="16.207831875116497"><ele>1015.0</ele><time>2026-05-03T12:49:55Z</time></trkpt><trkpt lat="38.49574221454593" lon="16.207796764016233"><ele>1015.0</ele><time>2026-05-03T12:49:58Z</time></trkpt><trkpt lat="38.49570026885327" lon="16.207693635339748"><ele>1015.0</ele><time>2026-05-03T12:49:59Z</time></trkpt><trkpt lat="38.49571724258705" lon="16.20751555526671"><ele>1015.0</ele><time>2026-05-03T12:50:00Z</time></trkpt><trkpt lat="38.49572411333827" lon="16.207378440389103"><ele>1015.0</ele><time>2026-05-03T12:50:01Z</time></trkpt><trkpt lat="38.4956730311105" lon="16.207236634469556"><ele>1012.5</ele><time>2026-05-03T12:50:02Z</time></trkpt><trkpt lat="38.495611485408894" lon="16.207198850874807"><ele>1010.0</ele><time>2026-05-03T12:50:03Z</time></trkpt><trkpt lat="38.49551082673085" lon="16.20723362796148"><ele>1007.5</ele><time>2026-05-03T12:50:04Z</time></trkpt><trkpt lat="38.495413202108885" lon="16.20729847464879"><ele>1005.0</ele><time>2026-05-03T12:50:05Z</time></trkpt><trkpt lat="38.495241335052796" lon="16.207395599237113"><ele>1005.0</ele><time>2026-05-03T12:50:06Z</time></trkpt><trkpt lat="38.49509800478795" lon="16.207498503118693"><ele>1005.0</ele><time>2026-05-03T12:50:07Z</time></trkpt><trkpt lat="38.494994086629085" lon="16.207568978297648"><ele>1005.0</ele><time>2026-05-03T12:50:08Z</time></trkpt><trkpt lat="38.49491777179947" lon="16.207605503545913"><ele>1005.0</ele><time>2026-05-03T12:50:09Z</time></trkpt><trkpt lat="38.494793104904446" lon="16.207602274602753"><ele>1005.0</ele><time>2026-05-03T12:50:11Z</time></trkpt><trkpt lat="38.49470544826232" lon="16.20751468332434"><ele>1005.0</ele><time>2026-05-03T12:50:12Z</time></trkpt><trkpt lat="38.49464218133834" lon="16.207403378598265"><ele>1005.0</ele><time>2026-05-03T12:50:13Z</time></trkpt><trkpt lat="38.49465490057596" lon="16.20723361244296"><ele>1005.0</ele><time>2026-05-03T12:50:14Z</time></trkpt><trkpt lat="38.49469919987329" lon="16.207095429872776"><ele>1002.3333333333333</ele><time>2026-05-03T12:50:15Z</time></trkpt><trkpt lat="38.49483043483176" lon="16.207038198898907"><ele>999.6666666666666</ele><time>2026-05-03T12:50:16Z</time></trkpt><trkpt lat="38.494974876903" lon="16.2069686008881"><ele>997.0</ele><time>2026-05-03T12:50:17Z</time></trkpt><trkpt lat="38.49515918127" lon="16.206860608244426"><ele>997.0</ele><time>2026-05-03T12:50:18Z</time></trkpt><trkpt lat="38.495327464342985" lon="16.206769892878302"><ele>997.0</ele><time>2026-05-03T12:50:19Z</time></trkpt><trkpt lat="38.49547965001912" lon="16.2066768975506"><ele>997.0</ele><time>2026-05-03T12:50:20Z</time></trkpt><trkpt lat="38.49558891173492" lon="16.206575347934056"><ele>994.0</ele><time>2026-05-03T12:50:21Z</time></trkpt><trkpt lat="38.49567204543767" lon="16.20644228646226"><ele>991.0</ele><time>2026-05-03T12:50:22Z</time></trkpt><trkpt lat="38.49575515240283" lon="16.206392474658596"><ele>988.0</ele><time>2026-05-03T12:50:23Z</time></trkpt><trkpt lat="38.495853814657444" lon="16.20635371538233"><ele>985.0</ele><time>2026-05-03T12:50:24Z</time></trkpt><trkpt lat="38.4959453398209" lon="16.20637984028755"><ele>982.0</ele><time>2026-05-03T12:50:25Z</time></trkpt><trkpt lat="38.49603600810767" lon="16.20649148554039"><ele>980.25</ele><time>2026-05-03T12:50:26Z</time></trkpt><trkpt lat="38.49617279961105" lon="16.206542615110685"><ele>978.5</ele><time>2026-05-03T12:50:27Z</time></trkpt><trkpt lat="38.49631315674948" lon="16.206527348675483"><ele>976.75</ele><time>2026-05-03T12:50:28Z</time></trkpt><trkpt lat="38.4964589306893" lon="16.206492650969214"><ele>975.0</ele><time>2026-05-03T12:50:29Z</time></trkpt><trkpt lat="38.4966205768056" lon="16.20654040880499"><ele>980.6666666666667</ele><time>2026-05-03T12:50:30Z</time></trkpt><trkpt lat="38.49679605551721" lon="16.206627801360895"><ele>986.3333333333334</ele><time>2026-05-03T12:50:31Z</time></trkpt><trkpt lat="38.49697497195309" lon="16.20672971553118"><ele>992.0</ele><time>2026-05-03T12:50:32Z</time></trkpt><trkpt lat="38.49712129793156" lon="16.206790875981497"><ele>992.0</ele><time>2026-05-03T12:50:33Z</time></trkpt><trkpt lat="38.49726257206345" lon="16.206843599003253"><ele>992.0</ele><time>2026-05-03T12:50:34Z</time></trkpt><trkpt lat="38.49738384459703" lon="16.20685346058161"><ele>992.0</ele><time>2026-05-03T12:50:35Z</time></trkpt><trkpt lat="38.49749302140161" lon="16.20683679416991"><ele>992.0</ele><time>2026-05-03T12:50:36Z</time></trkpt><trkpt lat="38.49763458535063" lon="16.20675928103758"><ele>992.0</ele><time>2026-05-03T12:50:38Z</time></trkpt><trkpt lat="38.497758818603614" lon="16.206642780003783"><ele>992.0</ele><time>2026-05-03T12:50:39Z</time></trkpt><trkpt lat="38.497819240248575" lon="16.20651202485543"><ele>992.0</ele><time>2026-05-03T12:50:40Z</time></trkpt><trkpt lat="38.49780471104601" lon="16.20631964644615"><ele>992.0</ele><time>2026-05-03T12:50:41Z</time></trkpt><trkpt lat="38.4977363205744" lon="16.206146532235383"><ele>988.0</ele><time>2026-05-03T12:50:42Z</time></trkpt><trkpt lat="38.49767070061787" lon="16.205980055134358"><ele>984.0</ele><time>2026-05-03T12:50:43Z</time></trkpt><trkpt lat="38.49763347309343" lon="16.205854543949723"><ele>980.0</ele><time>2026-05-03T12:50:44Z</time></trkpt><trkpt lat="38.497709011515504" lon="16.205688974398626"><ele>976.0</ele><time>2026-05-03T12:50:46Z</time></trkpt><trkpt lat="38.497843738689824" lon="16.20558321676135"><ele>977.0</ele><time>2026-05-03T12:50:47Z</time></trkpt><trkpt lat="38.4979894762732" lon="16.20549666756846"><ele>978.0</ele><time>2026-05-03T12:50:48Z</time></trkpt><trkpt lat="38.4981327656238" lon="16.205474410728886"><ele>979.0</ele><time>2026-05-03T12:50:49Z</time></trkpt><trkpt lat="38.498226928117354" lon="16.205411633340802"><ele>980.0</ele><time>2026-05-03T12:50:50Z</time></trkpt><trkpt lat="38.49826993298025" lon="16.205281935519864"><ele>980.0</ele><time>2026-05-03T12:50:51Z</time></trkpt><trkpt lat="38.4982458398988" lon="16.205121676699488"><ele>980.0</ele><time>2026-05-03T12:50:52Z</time></trkpt><trkpt lat="38.49817658963962" lon="16.204925507231266"><ele>980.0</ele><time>2026-05-03T12:50:53Z</time></trkpt><trkpt lat="38.498109573152945" lon="16.204775658266563"><ele>980.0</ele><time>2026-05-03T12:50:54Z</time></trkpt><trkpt lat="38.49803891263779" lon="16.204604815802934"><ele>978.75</ele><time>2026-05-03T12:50:55Z</time></trkpt><trkpt lat="38.4979817117808" lon="16.20437527259537"><ele>977.5</ele><time>2026-05-03T12:50:56Z</time></trkpt><trkpt lat="38.497942561529584" lon="16.204206977594406"><ele>976.25</ele><time>2026-05-03T12:50:57Z</time></trkpt><trkpt lat="38.4978773007903" lon="16.204106305465004"><ele>975.0</ele><time>2026-05-03T12:50:58Z</time></trkpt><trkpt lat="38.49775101429535" lon="16.204059203548645"><ele>972.25</ele><time>2026-05-03T12:50:59Z</time></trkpt><trkpt lat="38.497611063152064" lon="16.20409686269718"><ele>969.5</ele><time>2026-05-03T12:51:00Z</time></trkpt><trkpt lat="38.497552758461104" lon="16.204213293899198"><ele>966.75</ele><time>2026-05-03T12:51:01Z</time></trkpt><trkpt lat="38.49756363941165" lon="16.204359974438155"><ele>964.0</ele><time>2026-05-03T12:51:02Z</time></trkpt><trkpt lat="38.497612657826686" lon="16.20455546056812"><ele>964.0</ele><time>2026-05-03T12:51:03Z</time></trkpt><trkpt lat="38.49769397010366" lon="16.204732560052356"><ele>964.0</ele><time>2026-05-03T12:51:04Z</time></trkpt><trkpt lat="38.49773892110723" lon="16.20487533194146"><ele>964.0</ele><time>2026-05-03T12:51:05Z</time></trkpt><trkpt lat="38.497755113903075" lon="16.204989271948676"><ele>964.0</ele><time>2026-05-03T12:51:06Z</time></trkpt><trkpt lat="38.497756895329566" lon="16.205095179777025"><ele>964.0</ele><time>2026-05-03T12:51:07Z</time></trkpt><trkpt lat="38.49771637185091" lon="16.205166033590455"><ele>964.0000000000001</ele><time>2026-05-03T12:51:08Z</time></trkpt><trkpt lat="38.49763685650102" lon="16.20518250465039"><ele>964.0000000000001</ele><time>2026-05-03T12:51:09Z</time></trkpt><trkpt lat="38.49756518396448" lon="16.20512149011522"><ele>964.0</ele><time>2026-05-03T12:51:10Z</time></trkpt><trkpt lat="38.497522629788996" lon="16.205017311936857"><ele>964.0</ele><time>2026-05-03T12:51:11Z</time></trkpt><trkpt lat="38.49749222817132" lon="16.20481256470021"><ele>964.0</ele><time>2026-05-03T12:51:12Z</time></trkpt><trkpt lat="38.497413625742226" lon="16.204635409741694"><ele>964.0</ele><time>2026-05-03T12:51:13Z</time></trkpt><trkpt lat="38.49728510738424" lon="16.204433953344804"><ele>964.0</ele><time>2026-05-03T12:51:14Z</time></trkpt><trkpt lat="38.49719097694575" lon="16.204260584334147"><ele>964.0</ele><time>2026-05-03T12:51:15Z</time></trkpt><trkpt lat="38.497106503461254" lon="16.20410383581911"><ele>964.0</ele><time>2026-05-03T12:51:16Z</time></trkpt><trkpt lat="38.497055091488164" lon="16.20393650640606"><ele>964.0</ele><time>2026-05-03T12:51:17Z</time></trkpt><trkpt lat="38.49701883703711" lon="16.20372895045567"><ele>962.75</ele><time>2026-05-03T12:51:18Z</time></trkpt><trkpt lat="38.49705117355943" lon="16.203559233253777"><ele>961.5</ele><time>2026-05-03T12:51:19Z</time></trkpt><trkpt lat="38.497088343286926" lon="16.203378341287255"><ele>960.25</ele><time>2026-05-03T12:51:20Z</time></trkpt><trkpt lat="38.49713540101784" lon="16.203205778555535"><ele>959.0</ele><time>2026-05-03T12:51:21Z</time></trkpt><trkpt lat="38.49721871860621" lon="16.20306924213495"><ele>953.6666666666667</ele><time>2026-05-03T12:51:22Z</time></trkpt><trkpt lat="38.49734647262773" lon="16.202940165828597"><ele>948.3333333333333</ele><time>2026-05-03T12:51:23Z</time></trkpt><trkpt lat="38.49747207398994" lon="16.202806300029977"><ele>943.0</ele><time>2026-05-03T12:51:24Z</time></trkpt><trkpt lat="38.49761016544339" lon="16.202700713925882"><ele>943.0</ele><time>2026-05-03T12:51:25Z</time></trkpt><trkpt lat="38.49772030993181" lon="16.202613583540508"><ele>943.0</ele><time>2026-05-03T12:51:26Z</time></trkpt><trkpt lat="38.49782448170991" lon="16.202543830434195"><ele>943.0</ele><time>2026-05-03T12:51:27Z</time></trkpt><trkpt lat="38.497938256615654" lon="16.20250316488843"><ele>943.0</ele><time>2026-05-03T12:51:28Z</time></trkpt><trkpt lat="38.49806280806956" lon="16.202509158070736"><ele>943.0</ele><time>2026-05-03T12:51:29Z</time></trkpt><trkpt lat="38.49820243666079" lon="16.20253322155967"><ele>943.0</ele><time>2026-05-03T12:51:30Z</time></trkpt><trkpt lat="38.49832589436103" lon="16.202564734951974"><ele>943.0</ele><time>2026-05-03T12:51:31Z</time></trkpt><trkpt lat="38.49844156637278" lon="16.20257367636606"><ele>943.0</ele><time>2026-05-03T12:51:32Z</time></trkpt><trkpt lat="38.49856361156412" lon="16.202558260455884"><ele>943.0</ele><time>2026-05-03T12:51:33Z</time></trkpt><trkpt lat="38.498669021042495" lon="16.20248064576205"><ele>943.0</ele><time>2026-05-03T12:51:34Z</time></trkpt><trkpt lat="38.49876340414864" lon="16.20233573568505"><ele>943.0</ele><time>2026-05-03T12:51:35Z</time></trkpt><trkpt lat="38.49888052565374" lon="16.202187286363365"><ele>943.0</ele><time>2026-05-03T12:51:36Z</time></trkpt><trkpt lat="38.49899892754631" lon="16.202063816894356"><ele>940.0</ele><time>2026-05-03T12:51:37Z</time></trkpt><trkpt lat="38.499102298791506" lon="16.202002459675157"><ele>937.0</ele><time>2026-05-03T12:51:38Z</time></trkpt><trkpt lat="38.49918133052646" lon="16.201952559004976"><ele>934.0</ele><time>2026-05-03T12:51:39Z</time></trkpt><trkpt lat="38.49921493995888" lon="16.2018355920848"><ele>931.0</ele><time>2026-05-03T12:51:40Z</time></trkpt><trkpt lat="38.49922816335406" lon="16.201693926567383"><ele>928.0</ele><time>2026-05-03T12:51:41Z</time></trkpt><trkpt lat="38.49915623874427" lon="16.201523563201565"><ele>926.3333333333333</ele><time>2026-05-03T12:51:42Z</time></trkpt><trkpt lat="38.49905933642035" lon="16.201357975725333"><ele>924.6666666666667</ele><time>2026-05-03T12:51:43Z</time></trkpt><trkpt lat="38.49900402212101" lon="16.201228918491193"><ele>923.0</ele><time>2026-05-03T12:51:44Z</time></trkpt><trkpt lat="38.49896818430431" lon="16.201007576619737"><ele>923.0</ele><time>2026-05-03T12:51:45Z</time></trkpt><trkpt lat="38.49892375155918" lon="16.200720402216177"><ele>923.0</ele><time>2026-05-03T12:51:46Z</time></trkpt><trkpt lat="38.49888088066718" lon="16.200485280824708"><ele>923.0</ele><time>2026-05-03T12:51:47Z</time></trkpt><trkpt lat="38.49885926077998" lon="16.200290190570982"><ele>921.0</ele><time>2026-05-03T12:51:48Z</time></trkpt><trkpt lat="38.49886723239698" lon="16.20015053954992"><ele>919.0</ele><time>2026-05-03T12:51:49Z</time></trkpt><trkpt lat="38.49893838944173" lon="16.2000078204198"><ele>917.0</ele><time>2026-05-03T12:51:50Z</time></trkpt><trkpt lat="38.49903307978997" lon="16.19983727640816"><ele>915.0</ele><time>2026-05-03T12:51:51Z</time></trkpt><trkpt lat="38.4991374887232" lon="16.199650312737802"><ele>910.6666666666667</ele><time>2026-05-03T12:51:52Z</time></trkpt><trkpt lat="38.49919375372124" lon="16.19939380190324"><ele>906.3333333333334</ele><time>2026-05-03T12:51:53Z</time></trkpt><trkpt lat="38.499222362492894" lon="16.199159137077654"><ele>902.0</ele><time>2026-05-03T12:51:54Z</time></trkpt><trkpt lat="38.499290863594744" lon="16.19892787520633"><ele>899.2</ele><time>2026-05-03T12:51:55Z</time></trkpt><trkpt lat="38.49930686303425" lon="16.198834515159838"><ele>896.4000000000001</ele><time>2026-05-03T12:51:57Z</time></trkpt><trkpt lat="38.49930849612932" lon="16.198750376892193"><ele>893.5999999999999</ele><time>2026-05-03T12:51:58Z</time></trkpt><trkpt lat="38.49923415408809" lon="16.19867419462706"><ele>890.8</ele><time>2026-05-03T12:51:59Z</time></trkpt><trkpt lat="38.49912656501004" lon="16.198647130745467"><ele>888.0</ele><time>2026-05-03T12:52:00Z</time></trkpt><trkpt lat="38.4990110695845" lon="16.19869199104849"><ele>888.0</ele><time>2026-05-03T12:52:01Z</time></trkpt><trkpt lat="38.49892833283788" lon="16.198761873708143"><ele>888.0</ele><time>2026-05-03T12:52:02Z</time></trkpt><trkpt lat="38.49883003849421" lon="16.198791112026836"><ele>888.0</ele><time>2026-05-03T12:52:04Z</time></trkpt><trkpt lat="38.49879520074692" lon="16.1987217330374"><ele>888.0</ele><time>2026-05-03T12:52:05Z</time></trkpt><trkpt lat="38.49882168274863" lon="16.198635371585652"><ele>888.0</ele><time>2026-05-03T12:52:06Z</time></trkpt><trkpt lat="38.49891812985007" lon="16.198593395315847"><ele>888.0</ele><time>2026-05-03T12:52:07Z</time></trkpt><trkpt lat="38.49901138448531" lon="16.198528070381748"><ele>888.0</ele><time>2026-05-03T12:52:08Z</time></trkpt><trkpt lat="38.499114176557214" lon="16.19847171239954"><ele>888.0</ele><time>2026-05-03T12:52:09Z</time></trkpt><trkpt lat="38.499243772924274" lon="16.198446767563482"><ele>888.0</ele><time>2026-05-03T12:52:10Z</time></trkpt><trkpt lat="38.49938342338451" lon="16.198455599036908"><ele>888.0</ele><time>2026-05-03T12:52:11Z</time></trkpt><trkpt lat="38.49950338477756" lon="16.198489532711516"><ele>884.75</ele><time>2026-05-03T12:52:12Z</time></trkpt><trkpt lat="38.49961155399146" lon="16.198557116669882"><ele>881.5</ele><time>2026-05-03T12:52:13Z</time></trkpt><trkpt lat="38.499671039466236" lon="16.198627795478856"><ele>878.25</ele><time>2026-05-03T12:52:14Z</time></trkpt><trkpt lat="38.499743280650016" lon="16.198786907563072"><ele>875.0</ele><time>2026-05-03T12:52:15Z</time></trkpt><trkpt lat="38.49977869196342" lon="16.198915515609734"><ele>880.0</ele><time>2026-05-03T12:52:16Z</time></trkpt><trkpt lat="38.49983920883612" lon="16.19901263228507"><ele>885.0</ele><time>2026-05-03T12:52:17Z</time></trkpt><trkpt lat="38.49996607083552" lon="16.199066103952344"><ele>890.0</ele><time>2026-05-03T12:52:18Z</time></trkpt><trkpt lat="38.50011564089402" lon="16.199089305738017"><ele>895.0</ele><time>2026-05-03T12:52:19Z</time></trkpt><trkpt lat="38.50028626690472" lon="16.199077077990825"><ele>890.25</ele><time>2026-05-03T12:52:20Z</time></trkpt><trkpt lat="38.50042901733369" lon="16.199087746740783"><ele>885.5</ele><time>2026-05-03T12:52:21Z</time></trkpt><trkpt lat="38.50056146119429" lon="16.19914952387653"><ele>880.75</ele><time>2026-05-03T12:52:22Z</time></trkpt><trkpt lat="38.50066773356129" lon="16.199237763475423"><ele>876.0</ele><time>2026-05-03T12:52:23Z</time></trkpt><trkpt lat="38.500737232481626" lon="16.19934641729356"><ele>876.0</ele><time>2026-05-03T12:52:24Z</time></trkpt><trkpt lat="38.50080993782575" lon="16.19940154382062"><ele>876.0</ele><time>2026-05-03T12:52:25Z</time></trkpt><trkpt lat="38.5008651599174" lon="16.199446593194196"><ele>876.0</ele><time>2026-05-03T12:52:26Z</time></trkpt><trkpt lat="38.50092756475698" lon="16.19941840931915"><ele>876.0</ele><time>2026-05-03T12:52:27Z</time></trkpt><trkpt lat="38.50097436884372" lon="16.199305986135077"><ele>876.0</ele><time>2026-05-03T12:52:28Z</time></trkpt><trkpt lat="38.50096156332625" lon="16.199195389796206"><ele>876.0</ele><time>2026-05-03T12:52:29Z</time></trkpt><trkpt lat="38.50089393848456" lon="16.199080911159438"><ele>873.1999999999999</ele><time>2026-05-03T12:52:30Z</time></trkpt><trkpt lat="38.500832052053106" lon="16.19896554515682"><ele>870.3999999999999</ele><time>2026-05-03T12:52:31Z</time></trkpt><trkpt lat="38.50075745337376" lon="16.198871809861686"><ele>867.6</ele><time>2026-05-03T12:52:32Z</time></trkpt><trkpt lat="38.5006926876785" lon="16.19876451051832"><ele>864.8</ele><time>2026-05-03T12:52:33Z</time></trkpt><trkpt lat="38.50063205816887" lon="16.198619684941423"><ele>862.0</ele><time>2026-05-03T12:52:34Z</time></trkpt><trkpt lat="38.50060770010005" lon="16.198455640101336"><ele>862.0</ele><time>2026-05-03T12:52:35Z</time></trkpt><trkpt lat="38.50061802996354" lon="16.198239051950175"><ele>862.0</ele><time>2026-05-03T12:52:36Z</time></trkpt><trkpt lat="38.50064117796601" lon="16.198043076256727"><ele>862.0</ele><time>2026-05-03T12:52:37Z</time></trkpt><trkpt lat="38.500673003900005" lon="16.19785933732321"><ele>860.0</ele><time>2026-05-03T12:52:38Z</time></trkpt><trkpt lat="38.500699025754805" lon="16.197671911077308"><ele>858.0</ele><time>2026-05-03T12:52:39Z</time></trkpt><trkpt lat="38.500744479326755" lon="16.197481326623073"><ele>856.0</ele><time>2026-05-03T12:52:40Z</time></trkpt><trkpt lat="38.500704780438454" lon="16.19730368857767"><ele>854.0</ele><time>2026-05-03T12:52:41Z</time></trkpt><trkpt lat="38.500621126776096" lon="16.19710879765622"><ele>853.3333333333334</ele><time>2026-05-03T12:52:42Z</time></trkpt><trkpt lat="38.500489548969846" lon="16.19689432512324"><ele>852.6666666666667</ele><time>2026-05-03T12:52:43Z</time></trkpt><trkpt lat="38.500355166804" lon="16.196668780946897"><ele>852.0</ele><time>2026-05-03T12:52:44Z</time></trkpt><trkpt lat="38.50023158435789" lon="16.196450880340773"><ele>849.6666666666667</ele><time>2026-05-03T12:52:45Z</time></trkpt><trkpt lat="38.5001150625782" lon="16.19625832285083"><ele>847.3333333333334</ele><time>2026-05-03T12:52:46Z</time></trkpt><trkpt lat="38.50000110490991" lon="16.196070979196435"><ele>845.0</ele><time>2026-05-03T12:52:47Z</time></trkpt><trkpt lat="38.499883075050555" lon="16.195914371410456"><ele>845.0</ele><time>2026-05-03T12:52:48Z</time></trkpt><trkpt lat="38.49979858754147" lon="16.19582512869933"><ele>845.0</ele><time>2026-05-03T12:52:49Z</time></trkpt><trkpt lat="38.49972348572488" lon="16.19577336862358"><ele>845.0</ele><time>2026-05-03T12:52:50Z</time></trkpt><trkpt lat="38.49961243379074" lon="16.19577619437811"><ele>845.0</ele><time>2026-05-03T12:52:51Z</time></trkpt><trkpt lat="38.49947436156508" lon="16.195799231596432"><ele>845.0</ele><time>2026-05-03T12:52:52Z</time></trkpt><trkpt lat="38.4993312233333" lon="16.195833651681085"><ele>843.75</ele><time>2026-05-03T12:52:53Z</time></trkpt><trkpt lat="38.49920124331004" lon="16.195859466355518"><ele>842.5</ele><time>2026-05-03T12:52:54Z</time></trkpt><trkpt lat="38.49908287056778" lon="16.195816332819714"><ele>841.25</ele><time>2026-05-03T12:52:55Z</time></trkpt><trkpt lat="38.499007008540566" lon="16.19570234144091"><ele>840.0</ele><time>2026-05-03T12:52:56Z</time></trkpt><trkpt lat="38.498920888599955" lon="16.19555973622561"><ele>838.75</ele><time>2026-05-03T12:52:57Z</time></trkpt><trkpt lat="38.498802919954024" lon="16.19539237893342"><ele>837.5</ele><time>2026-05-03T12:52:58Z</time></trkpt><trkpt lat="38.498709433416664" lon="16.19525190709978"><ele>836.25</ele><time>2026-05-03T12:52:59Z</time></trkpt><trkpt lat="38.498630247822625" lon="16.195123488853696"><ele>835.0</ele><time>2026-05-03T12:53:00Z</time></trkpt><trkpt lat="38.49858600865314" lon="16.194991191383373"><ele>835.0</ele><time>2026-05-03T12:53:01Z</time></trkpt><trkpt lat="38.4985153743354" lon="16.194841426271083"><ele>835.0</ele><time>2026-05-03T12:53:02Z</time></trkpt><trkpt lat="38.49854067340408" lon="16.194608113006527"><ele>835.0</ele><time>2026-05-03T12:53:03Z</time></trkpt><trkpt lat="38.49859099452294" lon="16.19435063608751"><ele>833.0</ele><time>2026-05-03T12:53:04Z</time></trkpt><trkpt lat="38.49864476857222" lon="16.194091131830056"><ele>831.0</ele><time>2026-05-03T12:53:05Z</time></trkpt><trkpt lat="38.49873140342421" lon="16.193839843629213"><ele>829.0</ele><time>2026-05-03T12:53:06Z</time></trkpt><trkpt lat="38.49877832674536" lon="16.19357964012943"><ele>827.6666666666666</ele><time>2026-05-03T12:53:07Z</time></trkpt><trkpt lat="38.49881926147778" lon="16.19330893168554"><ele>826.3333333333333</ele><time>2026-05-03T12:53:08Z</time></trkpt><trkpt lat="38.498853962558556" lon="16.193110926614168"><ele>825.0</ele><time>2026-05-03T12:53:09Z</time></trkpt><trkpt lat="38.49888390734735" lon="16.192946034478037"><ele>823.75</ele><time>2026-05-03T12:53:10Z</time></trkpt><trkpt lat="38.498870366873774" lon="16.192802766722323"><ele>822.5</ele><time>2026-05-03T12:53:11Z</time></trkpt><trkpt lat="38.498794345039094" lon="16.19268006484168"><ele>821.25</ele><time>2026-05-03T12:53:12Z</time></trkpt><trkpt lat="38.49866146104174" lon="16.19257661730206"><ele>820.0</ele><time>2026-05-03T12:53:13Z</time></trkpt><trkpt lat="38.49849849828255" lon="16.19252696625243"><ele>818.6666666666666</ele><time>2026-05-03T12:53:14Z</time></trkpt><trkpt lat="38.49833325292882" lon="16.192554157382503"><ele>817.3333333333333</ele><time>2026-05-03T12:53:15Z</time></trkpt><trkpt lat="38.49812942450699" lon="16.192628080311117"><ele>816.0</ele><time>2026-05-03T12:53:16Z</time></trkpt><trkpt lat="38.49792287203822" lon="16.19270427418275"><ele>813.3333333333333</ele><time>2026-05-03T12:53:17Z</time></trkpt><trkpt lat="38.497757276667194" lon="16.19276378264384"><ele>810.6666666666666</ele><time>2026-05-03T12:53:18Z</time></trkpt><trkpt lat="38.4975865173447" lon="16.192862211061886"><ele>808.0</ele><time>2026-05-03T12:53:19Z</time></trkpt><trkpt lat="38.497434410191296" lon="16.192986464308344"><ele>808.0</ele><time>2026-05-03T12:53:20Z</time></trkpt><trkpt lat="38.49730774355814" lon="16.19312948149513"><ele>808.0</ele><time>2026-05-03T12:53:21Z</time></trkpt><trkpt lat="38.497208049889565" lon="16.193280097853066"><ele>808.0</ele><time>2026-05-03T12:53:22Z</time></trkpt><trkpt lat="38.497127212255876" lon="16.193425419389694"><ele>809.4</ele><time>2026-05-03T12:53:23Z</time></trkpt><trkpt lat="38.49704815624499" lon="16.19353991883176"><ele>810.8</ele><time>2026-05-03T12:53:24Z</time></trkpt><trkpt lat="38.496969457239715" lon="16.193606160242297"><ele>812.2</ele><time>2026-05-03T12:53:25Z</time></trkpt><trkpt lat="38.49689921987325" lon="16.193630977204588"><ele>813.6</ele><time>2026-05-03T12:53:26Z</time></trkpt><trkpt lat="38.49683167640737" lon="16.193575332834897"><ele>815.0</ele><time>2026-05-03T12:53:27Z</time></trkpt><trkpt lat="38.49675226189107" lon="16.19350764595663"><ele>815.0</ele><time>2026-05-03T12:53:28Z</time></trkpt><trkpt lat="38.496687919157985" lon="16.193416304427213"><ele>815.0</ele><time>2026-05-03T12:53:29Z</time></trkpt><trkpt lat="38.496640113053004" lon="16.19330797989362"><ele>815.0</ele><time>2026-05-03T12:53:30Z</time></trkpt><trkpt lat="38.49664464359674" lon="16.193167641379844"><ele>815.0</ele><time>2026-05-03T12:53:31Z</time></trkpt><trkpt lat="38.496693320785106" lon="16.193024927380588"><ele>815.0</ele><time>2026-05-03T12:53:32Z</time></trkpt><trkpt lat="38.496773022223536" lon="16.19287793009046"><ele>814.3333333333334</ele><time>2026-05-03T12:53:33Z</time></trkpt><trkpt lat="38.496858413314264" lon="16.192705613445707"><ele>813.6666666666667</ele><time>2026-05-03T12:53:34Z</time></trkpt><trkpt lat="38.49693716300608" lon="16.192531907266034"><ele>813.0</ele><time>2026-05-03T12:53:35Z</time></trkpt><trkpt lat="38.49701088169863" lon="16.192366192920122"><ele>812.75</ele><time>2026-05-03T12:53:36Z</time></trkpt><trkpt lat="38.49708467628751" lon="16.192222751570178"><ele>812.5</ele><time>2026-05-03T12:53:37Z</time></trkpt><trkpt lat="38.497143650305404" lon="16.192099301721555"><ele>812.25</ele><time>2026-05-03T12:53:38Z</time></trkpt><trkpt lat="38.49720150999713" lon="16.191981520585465"><ele>812.0</ele><time>2026-05-03T12:53:39Z</time></trkpt><trkpt lat="38.497258027041546" lon="16.191846282352714"><ele>810.25</ele><time>2026-05-03T12:53:40Z</time></trkpt><trkpt lat="38.497292132007914" lon="16.19168735916067"><ele>808.5</ele><time>2026-05-03T12:53:41Z</time></trkpt><trkpt lat="38.49728907239443" lon="16.191491315308856"><ele>806.75</ele><time>2026-05-03T12:53:42Z</time></trkpt><trkpt lat="38.497265549249796" lon="16.19128407854317"><ele>805.0</ele><time>2026-05-03T12:53:43Z</time></trkpt><trkpt lat="38.497226406445" lon="16.19105883989713"><ele>805.0</ele><time>2026-05-03T12:53:44Z</time></trkpt><trkpt lat="38.497196751976524" lon="16.190835325617133"><ele>805.0</ele><time>2026-05-03T12:53:45Z</time></trkpt><trkpt lat="38.497171042038254" lon="16.190609468052727"><ele>805.0</ele><time>2026-05-03T12:53:46Z</time></trkpt><trkpt lat="38.49714492382367" lon="16.190385816040074"><ele>805.0</ele><time>2026-05-03T12:53:47Z</time></trkpt><trkpt lat="38.49711649131686" lon="16.190182543498388"><ele>805.0</ele><time>2026-05-03T12:53:48Z</time></trkpt><trkpt lat="38.497077705550616" lon="16.189975800408725"><ele>805.0</ele><time>2026-05-03T12:53:49Z</time></trkpt><trkpt lat="38.49702846372268" lon="16.18976772369675"><ele>805.0</ele><time>2026-05-03T12:53:50Z</time></trkpt><trkpt lat="38.496974199642445" lon="16.18956113602712"><ele>805.0</ele><time>2026-05-03T12:53:51Z</time></trkpt><trkpt lat="38.49691505106295" lon="16.189355372680204"><ele>805.0</ele><time>2026-05-03T12:53:52Z</time></trkpt><trkpt lat="38.49685441698004" lon="16.189150802122594"><ele>804.0</ele><time>2026-05-03T12:53:53Z</time></trkpt><trkpt lat="38.49678819360948" lon="16.188944666298887"><ele>803.0</ele><time>2026-05-03T12:53:54Z</time></trkpt><trkpt lat="38.49674512138036" lon="16.188742726505833"><ele>802.0</ele><time>2026-05-03T12:53:55Z</time></trkpt><trkpt lat="38.496695669394384" lon="16.18856735303795"><ele>801.9999999999999</ele><time>2026-05-03T12:53:56Z</time></trkpt><trkpt lat="38.49665900393494" lon="16.188437324901404"><ele>802.0</ele><time>2026-05-03T12:53:57Z</time></trkpt><trkpt lat="38.49663200613185" lon="16.18834158153846"><ele>802.0</ele><time>2026-05-03T12:53:58Z</time></trkpt><trkpt lat="38.49659233356036" lon="16.18826116527646"><ele>802.0</ele><time>2026-05-03T12:53:59Z</time></trkpt><trkpt lat="38.49656936013574" lon="16.18818508943216"><ele>801.9999999999999</ele><time>2026-05-03T12:54:00Z</time></trkpt><trkpt lat="38.49653224920249" lon="16.188062355152024"><ele>802.0</ele><time>2026-05-03T12:54:02Z</time></trkpt><trkpt lat="38.49650448213483" lon="16.187990087672524"><ele>801.3333333333333</ele><time>2026-05-03T12:55:16Z</time></trkpt><trkpt lat="38.49657348826403" lon="16.188017372057015"><ele>800.6666666666666</ele><time>2026-05-03T12:55:29Z</time></trkpt><trkpt lat="38.49662602561575" lon="16.187941082189315"><ele>800.0</ele><time>2026-05-03T12:55:33Z</time></trkpt><trkpt lat="38.496604738433604" lon="16.187830629646875"><ele>799.3333333333333</ele><time>2026-05-03T12:55:36Z</time></trkpt><trkpt lat="38.49661601942874" lon="16.187748760999416"><ele>798.6666666666666</ele><time>2026-05-03T12:55:40Z</time></trkpt><trkpt lat="38.49657022509683" lon="16.18768292787287"><ele>798.0</ele><time>2026-05-03T12:55:42Z</time></trkpt><trkpt lat="38.496568128142464" lon="16.18780370355952"><ele>798.0</ele><time>2026-05-03T12:55:44Z</time></trkpt><trkpt lat="38.496626774089165" lon="16.187840276770334"><ele>798.0</ele><time>2026-05-03T12:55:46Z</time></trkpt><trkpt lat="38.49656987504573" lon="16.187879100177682"><ele>798.0</ele><time>2026-05-03T13:04:23Z</time></trkpt><trkpt lat="38.49656388642879" lon="16.187970311411238"><ele>798.0</ele><time>2026-05-03T13:08:10Z</time></trkpt><trkpt lat="38.496620551659035" lon="16.188048001601608"><ele>798.0</ele><time>2026-05-03T13:08:13Z</time></trkpt><trkpt lat="38.496661192092226" lon="16.187966640627117"><ele>798.0</ele><time>2026-05-03T13:08:16Z</time></trkpt><trkpt lat="38.49658463294089" lon="16.187932259360792"><ele>798.0</ele><time>2026-05-03T13:08:19Z</time></trkpt><trkpt lat="38.49656166265491" lon="16.187856165780765"><ele>798.0</ele><time>2026-05-03T13:08:23Z</time></trkpt><trkpt lat="38.49654293340416" lon="16.1877705900957"><ele>798.0</ele><time>2026-05-03T13:10:09Z</time></trkpt><trkpt lat="38.496515927121195" lon="16.187688547471055"><ele>798.0</ele><time>2026-05-03T13:10:28Z</time></trkpt><trkpt lat="38.49646767338198" lon="16.187635375819582"><ele>798.0</ele><time>2026-05-03T13:14:26Z</time></trkpt><trkpt lat="38.49641130260424" lon="16.18770701075935"><ele>798.0</ele><time>2026-05-03T13:14:29Z</time></trkpt><trkpt lat="38.49647310262301" lon="16.1878576738561"><ele>798.0</ele><time>2026-05-03T13:14:31Z</time></trkpt><trkpt lat="38.496497450974985" lon="16.187943143016447"><ele>798.0</ele><time>2026-05-03T13:14:32Z</time></trkpt><trkpt lat="38.49654507083575" lon="16.188030013564415"><ele>798.0</ele><time>2026-05-03T13:14:34Z</time></trkpt><trkpt lat="38.496625826043136" lon="16.18798121484788"><ele>798.0</ele><time>2026-05-03T13:14:36Z</time></trkpt><trkpt lat="38.49660308070521" lon="16.187882934747606"><ele>798.0</ele><time>2026-05-03T13:14:38Z</time></trkpt><trkpt lat="38.49655144295129" lon="16.187811666912502"><ele>798.0</ele><time>2026-05-03T13:16:15.999Z</time></trkpt><trkpt lat="38.49650238962641" lon="16.187707647414804"><ele>798.0</ele><time>2026-05-03T13:16:18.999Z</time></trkpt><trkpt lat="38.49643377690421" lon="16.18765266772028"><ele>798.0</ele><time>2026-05-03T13:16:20.999Z</time></trkpt><trkpt lat="38.49637583562591" lon="16.187590296334136"><ele>798.0</ele><time>2026-05-03T13:16:24Z</time></trkpt><trkpt lat="38.49634477041051" lon="16.187487541200763"><ele>798.0</ele><time>2026-05-03T13:16:26Z</time></trkpt><trkpt lat="38.49631985664927" lon="16.18738758712214"><ele>798.0</ele><time>2026-05-03T13:16:28Z</time></trkpt><trkpt lat="38.49629538479781" lon="16.18729729165803"><ele>798.0</ele><time>2026-05-03T13:16:30Z</time></trkpt><trkpt lat="38.4962817706912" lon="16.187213546798386"><ele>798.0</ele><time>2026-05-03T13:16:32Z</time></trkpt><trkpt lat="38.496266968139146" lon="16.18713090487654"><ele>797.8</ele><time>2026-05-03T13:16:34Z</time></trkpt><trkpt lat="38.49623665883343" lon="16.187029216779454"><ele>797.5999999999999</ele><time>2026-05-03T13:16:36Z</time></trkpt><trkpt lat="38.49621168583095" lon="16.18694750563788"><ele>797.4000000000001</ele><time>2026-05-03T13:16:37Z</time></trkpt><trkpt lat="38.496188722553754" lon="16.186852922345036"><ele>797.2</ele><time>2026-05-03T13:16:38Z</time></trkpt><trkpt lat="38.496141985870864" lon="16.186713147355132"><ele>797.0</ele><time>2026-05-03T13:16:39Z</time></trkpt><trkpt lat="38.496097318031026" lon="16.186566651751768"><ele>796.3333333333334</ele><time>2026-05-03T13:16:40Z</time></trkpt><trkpt lat="38.49606949127956" lon="16.186410903616483"><ele>795.6666666666667</ele><time>2026-05-03T13:16:41Z</time></trkpt><trkpt lat="38.49601224208288" lon="16.18621502717258"><ele>795.0</ele><time>2026-05-03T13:16:42Z</time></trkpt><trkpt lat="38.495946448594154" lon="16.185989916692954"><ele>795.0</ele><time>2026-05-03T13:16:43Z</time></trkpt><trkpt lat="38.49588592915505" lon="16.185782851217112"><ele>795.0</ele><time>2026-05-03T13:16:44Z</time></trkpt><trkpt lat="38.49581843380802" lon="16.185552627767038"><ele>795.0</ele><time>2026-05-03T13:16:45Z</time></trkpt><trkpt lat="38.49574766107991" lon="16.185311731357576"><ele>794.6666666666667</ele><time>2026-05-03T13:16:46Z</time></trkpt><trkpt lat="38.49567641067558" lon="16.18506920903329"><ele>794.3333333333334</ele><time>2026-05-03T13:16:47Z</time></trkpt><trkpt lat="38.49559980455302" lon="16.18480845690618"><ele>794.0</ele><time>2026-05-03T13:16:48Z</time></trkpt><trkpt lat="38.49552694482128" lon="16.184560456760067"><ele>793.6666666666667</ele><time>2026-05-03T13:16:49Z</time></trkpt><trkpt lat="38.49545342150253" lon="16.184310197888102"><ele>793.3333333333333</ele><time>2026-05-03T13:16:50Z</time></trkpt><trkpt lat="38.49542276772181" lon="16.184205858461972"><ele>793.0</ele><time>2026-05-03T13:16:51Z</time></trkpt><trkpt lat="38.495349437382686" lon="16.183956256451495"><ele>793.0</ele><time>2026-05-03T13:16:52Z</time></trkpt><trkpt lat="38.49527789279194" lon="16.18371004363465"><ele>793.0</ele><time>2026-05-03T13:16:53Z</time></trkpt><trkpt lat="38.49520778054577" lon="16.183467588831"><ele>793.0</ele><time>2026-05-03T13:16:54Z</time></trkpt><trkpt lat="38.4951339622843" lon="16.183212318270822"><ele>793.3333333333333</ele><time>2026-05-03T13:16:55Z</time></trkpt><trkpt lat="38.49506015754096" lon="16.182957094462314"><ele>793.6666666666667</ele><time>2026-05-03T13:16:56Z</time></trkpt><trkpt lat="38.49498463227258" lon="16.18269626228378"><ele>794.0</ele><time>2026-05-03T13:16:57Z</time></trkpt><trkpt lat="38.494907333404946" lon="16.18242953280181"><ele>794.0</ele><time>2026-05-03T13:16:58Z</time></trkpt><trkpt lat="38.49482921034574" lon="16.182161403151863"><ele>794.0</ele><time>2026-05-03T13:16:59Z</time></trkpt><trkpt lat="38.494753140146074" lon="16.181900829516014"><ele>794.0</ele><time>2026-05-03T13:17:00Z</time></trkpt><trkpt lat="38.49466208013358" lon="16.181648771345564"><ele>793.3333333333334</ele><time>2026-05-03T13:17:01Z</time></trkpt><trkpt lat="38.49458909270002" lon="16.181389785099135"><ele>792.6666666666667</ele><time>2026-05-03T13:17:02Z</time></trkpt><trkpt lat="38.49453047747181" lon="16.181130584372504"><ele>792.0</ele><time>2026-05-03T13:17:03Z</time></trkpt><trkpt lat="38.49444439670157" lon="16.180895654137128"><ele>790.3333333333333</ele><time>2026-05-03T13:17:04Z</time></trkpt><trkpt lat="38.49438907000813" lon="16.18063253738175"><ele>788.6666666666666</ele><time>2026-05-03T13:17:05Z</time></trkpt><trkpt lat="38.494330737711564" lon="16.180367533515852"><ele>787.0</ele><time>2026-05-03T13:17:06Z</time></trkpt><trkpt lat="38.49427851679392" lon="16.180081257261154"><ele>785.5</ele><time>2026-05-03T13:17:06.999Z</time></trkpt><trkpt lat="38.49422936572049" lon="16.17979267433018"><ele>784.0</ele><time>2026-05-03T13:17:07.999Z</time></trkpt><trkpt lat="38.494178380134464" lon="16.17949332034414"><ele>784.0</ele><time>2026-05-03T13:17:08.999Z</time></trkpt><trkpt lat="38.49412706079928" lon="16.179193386567306"><ele>784.0</ele><time>2026-05-03T13:17:09.999Z</time></trkpt><trkpt lat="38.494075637550864" lon="16.178886503745495"><ele>783.0</ele><time>2026-05-03T13:17:10.999Z</time></trkpt><trkpt lat="38.49402502996811" lon="16.178577663494547"><ele>782.0</ele><time>2026-05-03T13:17:11.999Z</time></trkpt><trkpt lat="38.493972942048096" lon="16.17826770812626"><ele>779.5</ele><time>2026-05-03T13:17:12.999Z</time></trkpt><trkpt lat="38.49391886424031" lon="16.177950502342757"><ele>777.0</ele><time>2026-05-03T13:17:13.999Z</time></trkpt><trkpt lat="38.49386533998113" lon="16.177636543529626"><ele>774.5</ele><time>2026-05-03T13:17:14.999Z</time></trkpt><trkpt lat="38.4938132721729" lon="16.177331988058846"><ele>772.0</ele><time>2026-05-03T13:17:15.999Z</time></trkpt><trkpt lat="38.493759651089775" lon="16.177026327698854"><ele>771.0</ele><time>2026-05-03T13:17:16.999Z</time></trkpt><trkpt lat="38.493706323479685" lon="16.17672234024669"><ele>770.0</ele><time>2026-05-03T13:17:17.999Z</time></trkpt><trkpt lat="38.49365225958915" lon="16.176414155716113"><ele>768.5</ele><time>2026-05-03T13:17:18.999Z</time></trkpt><trkpt lat="38.49359726574372" lon="16.176100670094918"><ele>767.0</ele><time>2026-05-03T13:17:19.999Z</time></trkpt><trkpt lat="38.493542526868424" lon="16.175784976090945"><ele>766.5</ele><time>2026-05-03T13:17:20.999Z</time></trkpt><trkpt lat="38.49348743316383" lon="16.17546541566057"><ele>766.0</ele><time>2026-05-03T13:17:21.999Z</time></trkpt><trkpt lat="38.49343197348155" lon="16.175142507771486"><ele>765.0</ele><time>2026-05-03T13:17:22.999Z</time></trkpt><trkpt lat="38.49337705119852" lon="16.17481998688594"><ele>764.0</ele><time>2026-05-03T13:17:23.999Z</time></trkpt><trkpt lat="38.493321010857876" lon="16.174490900418686"><ele>764.0</ele><time>2026-05-03T13:17:24.999Z</time></trkpt><trkpt lat="38.49326440234631" lon="16.174158477472325"><ele>764.0</ele><time>2026-05-03T13:17:25.999Z</time></trkpt><trkpt lat="38.49320845699653" lon="16.173830584212492"><ele>762.0</ele><time>2026-05-03T13:17:26.999Z</time></trkpt><trkpt lat="38.49315193765181" lon="16.17350985108877"><ele>760.0</ele><time>2026-05-03T13:17:27.999Z</time></trkpt><trkpt lat="38.49309431403209" lon="16.17318285147753"><ele>759.0</ele><time>2026-05-03T13:17:28.999Z</time></trkpt><trkpt lat="38.49304224818938" lon="16.172879381952725"><ele>758.0</ele><time>2026-05-03T13:17:29.999Z</time></trkpt><trkpt lat="38.49299276476182" lon="16.172590621502895"><ele>756.0</ele><time>2026-05-03T13:17:30.999Z</time></trkpt><trkpt lat="38.492942579403305" lon="16.17230506747354"><ele>754.0</ele><time>2026-05-03T13:17:31.999Z</time></trkpt><trkpt lat="38.49286644842049" lon="16.172037074492597"><ele>753.3333333333334</ele><time>2026-05-03T13:17:32.999Z</time></trkpt><trkpt lat="38.49278864556248" lon="16.17178178932562"><ele>752.6666666666666</ele><time>2026-05-03T13:17:33.999Z</time></trkpt><trkpt lat="38.49271636221534" lon="16.17151833572442"><ele>752.0</ele><time>2026-05-03T13:17:34.999Z</time></trkpt><trkpt lat="38.49263414608768" lon="16.17125837595771"><ele>752.0</ele><time>2026-05-03T13:17:35.999Z</time></trkpt><trkpt lat="38.49254707278253" lon="16.171011643529077"><ele>752.0</ele><time>2026-05-03T13:17:36.999Z</time></trkpt><trkpt lat="38.4922286424692" lon="16.170879736788375"><ele>749.0</ele><time>2026-05-03T13:17:37.999Z</time></trkpt><trkpt lat="38.492047329287416" lon="16.17067600435796"><ele>746.0</ele><time>2026-05-03T13:17:38.999Z</time></trkpt><trkpt lat="38.491859462543815" lon="16.17047000535075"><ele>746.0</ele><time>2026-05-03T13:17:39.999Z</time></trkpt><trkpt lat="38.49167633530225" lon="16.17026362320986"><ele>746.0</ele><time>2026-05-03T13:17:40.999Z</time></trkpt><trkpt lat="38.491510941175214" lon="16.170076437147785"><ele>746.0</ele><time>2026-05-03T13:17:41.999Z</time></trkpt><trkpt lat="38.49135284087846" lon="16.16989318931904"><ele>746.0</ele><time>2026-05-03T13:17:42.999Z</time></trkpt><trkpt lat="38.49120053925469" lon="16.16971389105571"><ele>746.0</ele><time>2026-05-03T13:17:43.999Z</time></trkpt><trkpt lat="38.49106347606907" lon="16.169529262235276"><ele>744.0</ele><time>2026-05-03T13:17:44.999Z</time></trkpt><trkpt lat="38.49096046474483" lon="16.169317073472982"><ele>742.0</ele><time>2026-05-03T13:17:45.999Z</time></trkpt><trkpt lat="38.49087830335323" lon="16.169072652995773"><ele>740.0</ele><time>2026-05-03T13:17:46.999Z</time></trkpt><trkpt lat="38.4908120614505" lon="16.16880570890198"><ele>739.3333333333333</ele><time>2026-05-03T13:17:47.999Z</time></trkpt><trkpt lat="38.490739531335784" lon="16.16854609245023"><ele>738.6666666666666</ele><time>2026-05-03T13:17:48.999Z</time></trkpt><trkpt lat="38.4906666437346" lon="16.168285501910773"><ele>738.0</ele><time>2026-05-03T13:17:49.999Z</time></trkpt><trkpt lat="38.49060401250998" lon="16.168058400106332"><ele>737.3333333333334</ele><time>2026-05-03T13:17:50.999Z</time></trkpt><trkpt lat="38.49054296420196" lon="16.167810886838094"><ele>736.6666666666667</ele><time>2026-05-03T13:17:51.999Z</time></trkpt><trkpt lat="38.490517828525064" lon="16.167564177855404"><ele>736.0</ele><time>2026-05-03T13:17:52.999Z</time></trkpt><trkpt lat="38.49053712720307" lon="16.167284715773317"><ele>734.0</ele><time>2026-05-03T13:17:53.999Z</time></trkpt><trkpt lat="38.490569384717794" lon="16.16699705304861"><ele>732.0</ele><time>2026-05-03T13:17:54.999Z</time></trkpt><trkpt lat="38.490601308701095" lon="16.166700796346756"><ele>730.0</ele><time>2026-05-03T13:17:55.999Z</time></trkpt><trkpt lat="38.49062905934822" lon="16.166407754299556"><ele>728.0</ele><time>2026-05-03T13:17:56.999Z</time></trkpt><trkpt lat="38.49065130472482" lon="16.16611760573629"><ele>728.0</ele><time>2026-05-03T13:17:57.999Z</time></trkpt><trkpt lat="38.490669065056174" lon="16.16582460749112"><ele>728.0</ele><time>2026-05-03T13:17:58.999Z</time></trkpt><trkpt lat="38.49068577357768" lon="16.16553637957861"><ele>726.5</ele><time>2026-05-03T13:17:59.999Z</time></trkpt><trkpt lat="38.490698853675234" lon="16.165236167892665"><ele>725.0</ele><time>2026-05-03T13:18:00.999Z</time></trkpt><trkpt lat="38.49071852854994" lon="16.16493648789539"><ele>723.0</ele><time>2026-05-03T13:18:01.999Z</time></trkpt><trkpt lat="38.49074240619652" lon="16.164635197739084"><ele>721.0</ele><time>2026-05-03T13:18:02.999Z</time></trkpt><trkpt lat="38.49076961467882" lon="16.164338112712464"><ele>721.0</ele><time>2026-05-03T13:18:03.999Z</time></trkpt><trkpt lat="38.490789057087454" lon="16.164039512472577"><ele>721.0</ele><time>2026-05-03T13:18:04.999Z</time></trkpt><trkpt lat="38.490803114757824" lon="16.16373906058728"><ele>719.0</ele><time>2026-05-03T13:18:05.999Z</time></trkpt><trkpt lat="38.490819758850165" lon="16.163439217593158"><ele>717.0</ele><time>2026-05-03T13:18:06.999Z</time></trkpt><trkpt lat="38.490826635523746" lon="16.163137388383802"><ele>715.5</ele><time>2026-05-03T13:18:07.999Z</time></trkpt><trkpt lat="38.490827393143555" lon="16.162831058183794"><ele>714.0</ele><time>2026-05-03T13:18:08.999Z</time></trkpt><trkpt lat="38.490803154695435" lon="16.162526579565593"><ele>712.0</ele><time>2026-05-03T13:18:09.999Z</time></trkpt><trkpt lat="38.490766011790086" lon="16.16221911159958"><ele>710.0</ele><time>2026-05-03T13:18:10.999Z</time></trkpt><trkpt lat="38.490727581587414" lon="16.161912914354144"><ele>710.0</ele><time>2026-05-03T13:18:11.999Z</time></trkpt><trkpt lat="38.49068761026453" lon="16.16162323708094"><ele>710.0</ele><time>2026-05-03T13:18:12.999Z</time></trkpt><trkpt lat="38.49065491645784" lon="16.16132450226549"><ele>707.5</ele><time>2026-05-03T13:18:13.999Z</time></trkpt><trkpt lat="38.4906228129707" lon="16.161023904570058"><ele>705.0</ele><time>2026-05-03T13:18:14.999Z</time></trkpt><trkpt lat="38.49058921356802" lon="16.160721299209595"><ele>703.0</ele><time>2026-05-03T13:18:15.999Z</time></trkpt><trkpt lat="38.49055669008853" lon="16.1604168777435"><ele>701.0</ele><time>2026-05-03T13:18:16.999Z</time></trkpt><trkpt lat="38.49052611834218" lon="16.160117539107482"><ele>698.5</ele><time>2026-05-03T13:18:17.999Z</time></trkpt><trkpt lat="38.49049287513218" lon="16.159819928385893"><ele>696.0</ele><time>2026-05-03T13:18:18.999Z</time></trkpt><trkpt lat="38.49045962061504" lon="16.159513126661274"><ele>696.0</ele><time>2026-05-03T13:18:19.999Z</time></trkpt><trkpt lat="38.490426823618435" lon="16.15920329747125"><ele>696.0</ele><time>2026-05-03T13:18:20.999Z</time></trkpt><trkpt lat="38.49039426122316" lon="16.1588973501055"><ele>694.0</ele><time>2026-05-03T13:18:21.999Z</time></trkpt><trkpt lat="38.49036237724165" lon="16.158588020283513"><ele>692.0</ele><time>2026-05-03T13:18:22.999Z</time></trkpt><trkpt lat="38.49033105177018" lon="16.158277848687806"><ele>690.5</ele><time>2026-05-03T13:18:23.999Z</time></trkpt><trkpt lat="38.490297324316984" lon="16.15796850265087"><ele>689.0</ele><time>2026-05-03T13:18:24.999Z</time></trkpt><trkpt lat="38.49026297048978" lon="16.157655365627942"><ele>687.5</ele><time>2026-05-03T13:18:25.999Z</time></trkpt><trkpt lat="38.49023071479152" lon="16.157344401006316"><ele>686.0</ele><time>2026-05-03T13:18:26.999Z</time></trkpt><trkpt lat="38.490199591153235" lon="16.157033805982913"><ele>686.0</ele><time>2026-05-03T13:18:27.999Z</time></trkpt><trkpt lat="38.49016742148113" lon="16.15672337091165"><ele>686.0</ele><time>2026-05-03T13:18:28.999Z</time></trkpt><trkpt lat="38.49013426079027" lon="16.156414429567896"><ele>685.5</ele><time>2026-05-03T13:18:29.999Z</time></trkpt><trkpt lat="38.49010172644443" lon="16.15611082497933"><ele>685.0</ele><time>2026-05-03T13:18:30.999Z</time></trkpt><trkpt lat="38.49006813314809" lon="16.15580686321428"><ele>684.0</ele><time>2026-05-03T13:18:31.999Z</time></trkpt><trkpt lat="38.49003376080203" lon="16.155504255404132"><ele>683.0</ele><time>2026-05-03T13:18:32.999Z</time></trkpt><trkpt lat="38.49000054834684" lon="16.155201793383856"><ele>683.0</ele><time>2026-05-03T13:18:33.999Z</time></trkpt><trkpt lat="38.489967882974604" lon="16.154896582669114"><ele>683.0</ele><time>2026-05-03T13:18:34.999Z</time></trkpt><trkpt lat="38.48993446927511" lon="16.154586706878096"><ele>680.5</ele><time>2026-05-03T13:18:35.999Z</time></trkpt><trkpt lat="38.48990027041145" lon="16.154279543744288"><ele>678.0</ele><time>2026-05-03T13:18:36.999Z</time></trkpt><trkpt lat="38.48986560227981" lon="16.153969408742835"><ele>678.0</ele><time>2026-05-03T13:18:37.999Z</time></trkpt><trkpt lat="38.4898316422826" lon="16.15365858785257"><ele>678.0</ele><time>2026-05-03T13:18:38.999Z</time></trkpt><trkpt lat="38.48979548171989" lon="16.153345858104743"><ele>677.5</ele><time>2026-05-03T13:18:39.999Z</time></trkpt><trkpt lat="38.48976013858127" lon="16.15303368073833"><ele>677.0</ele><time>2026-05-03T13:18:40.999Z</time></trkpt><trkpt lat="38.48972654971025" lon="16.15272198988985"><ele>677.0</ele><time>2026-05-03T13:18:41.999Z</time></trkpt><trkpt lat="38.489697487817025" lon="16.152407532331974"><ele>677.0</ele><time>2026-05-03T13:18:42.999Z</time></trkpt><trkpt lat="38.489661001707596" lon="16.152090163903896"><ele>676.0</ele><time>2026-05-03T13:18:43.999Z</time></trkpt><trkpt lat="38.48962797634119" lon="16.15177475722046"><ele>675.0</ele><time>2026-05-03T13:18:44.999Z</time></trkpt><trkpt lat="38.48959587842214" lon="16.15148376576506"><ele>674.6666666666666</ele><time>2026-05-03T13:18:45.999Z</time></trkpt><trkpt lat="38.48956548281118" lon="16.15120427559203"><ele>674.3333333333333</ele><time>2026-05-03T13:18:46.999Z</time></trkpt><trkpt lat="38.489553407524504" lon="16.15092764334256"><ele>674.0</ele><time>2026-05-03T13:18:47.999Z</time></trkpt><trkpt lat="38.4895292376099" lon="16.150663208786074"><ele>674.0</ele><time>2026-05-03T13:18:48.999Z</time></trkpt><trkpt lat="38.489504428649326" lon="16.150402983653425"><ele>674.0</ele><time>2026-05-03T13:18:49.999Z</time></trkpt><trkpt lat="38.48947168608725" lon="16.1501416536896"><ele>674.0</ele><time>2026-05-03T13:18:50.999Z</time></trkpt><trkpt lat="38.48941187279586" lon="16.14987757755403"><ele>673.0</ele><time>2026-05-03T13:18:51.999Z</time></trkpt><trkpt lat="38.489324914432764" lon="16.149624146566122"><ele>672.0</ele><time>2026-05-03T13:18:52.999Z</time></trkpt><trkpt lat="38.48927029814067" lon="16.149364368649056"><ele>671.0</ele><time>2026-05-03T13:18:53.999Z</time></trkpt><trkpt lat="38.48920188327161" lon="16.14912494473925"><ele>670.0</ele><time>2026-05-03T13:18:54.999Z</time></trkpt><trkpt lat="38.48914442606089" lon="16.1488830699196"><ele>669.0</ele><time>2026-05-03T13:18:55.999Z</time></trkpt><trkpt lat="38.48910814668426" lon="16.14863714138812"><ele>668.0</ele><time>2026-05-03T13:18:56.999Z</time></trkpt><trkpt lat="38.48909633867174" lon="16.148389329826795"><ele>667.0</ele><time>2026-05-03T13:18:57.999Z</time></trkpt><trkpt lat="38.48912030726421" lon="16.148164228136313"><ele>666.0</ele><time>2026-05-03T13:18:58.999Z</time></trkpt><trkpt lat="38.48915474145864" lon="16.147916413338553"><ele>665.0</ele><time>2026-05-03T13:18:59.999Z</time></trkpt><trkpt lat="38.48919535914759" lon="16.14765443263144"><ele>665.0</ele><time>2026-05-03T13:19:00.999Z</time></trkpt><trkpt lat="38.489235038447305" lon="16.147388538232192"><ele>665.0</ele><time>2026-05-03T13:19:01.999Z</time></trkpt><trkpt lat="38.48926284535868" lon="16.14711335662971"><ele>665.0</ele><time>2026-05-03T13:19:02.999Z</time></trkpt><trkpt lat="38.48931706112402" lon="16.14682650420479"><ele>664.6666666666666</ele><time>2026-05-03T13:19:03.999Z</time></trkpt><trkpt lat="38.48935892284215" lon="16.146547784216715"><ele>664.3333333333334</ele><time>2026-05-03T13:19:04.999Z</time></trkpt><trkpt lat="38.489398376081326" lon="16.146263890493536"><ele>664.0</ele><time>2026-05-03T13:19:05.999Z</time></trkpt><trkpt lat="38.489438486868075" lon="16.145994111310113"><ele>663.3333333333334</ele><time>2026-05-03T13:19:06.999Z</time></trkpt><trkpt lat="38.48948004594106" lon="16.145734536333833"><ele>662.6666666666666</ele><time>2026-05-03T13:19:07.999Z</time></trkpt><trkpt lat="38.48954354248873" lon="16.14547604887804"><ele>662.0</ele><time>2026-05-03T13:19:08.999Z</time></trkpt><trkpt lat="38.489640715138265" lon="16.14520495568733"><ele>659.5</ele><time>2026-05-03T13:19:09.999Z</time></trkpt><trkpt lat="38.48975044440876" lon="16.144931106945567"><ele>657.0</ele><time>2026-05-03T13:19:10.999Z</time></trkpt><trkpt lat="38.48986542663499" lon="16.144648745635767"><ele>655.5</ele><time>2026-05-03T13:19:11.999Z</time></trkpt><trkpt lat="38.48997251112339" lon="16.144379691518733"><ele>654.0</ele><time>2026-05-03T13:19:12.999Z</time></trkpt><trkpt lat="38.490075457230795" lon="16.144126694530183"><ele>652.6666666666666</ele><time>2026-05-03T13:19:13.999Z</time></trkpt><trkpt lat="38.490177904932104" lon="16.143871946812478"><ele>651.3333333333333</ele><time>2026-05-03T13:19:14.999Z</time></trkpt><trkpt lat="38.49026040554971" lon="16.143613039145347"><ele>650.0</ele><time>2026-05-03T13:19:15.999Z</time></trkpt><trkpt lat="38.49035365197647" lon="16.143360033217803"><ele>650.3333333333333</ele><time>2026-05-03T13:19:16.999Z</time></trkpt><trkpt lat="38.49043172048705" lon="16.143107553124626"><ele>650.6666666666666</ele><time>2026-05-03T13:19:17.999Z</time></trkpt><trkpt lat="38.490512572910205" lon="16.14286690344761"><ele>651.0</ele><time>2026-05-03T13:19:18.999Z</time></trkpt><trkpt lat="38.49057236705355" lon="16.142623960927846"><ele>651.0</ele><time>2026-05-03T13:19:19.999Z</time></trkpt><trkpt lat="38.49063411383507" lon="16.14238561271667"><ele>651.0</ele><time>2026-05-03T13:19:20.999Z</time></trkpt><trkpt lat="38.49067628880276" lon="16.142148570947402"><ele>651.0</ele><time>2026-05-03T13:19:21.999Z</time></trkpt><trkpt lat="38.49073609855235" lon="16.141918159636962"><ele>649.3333333333334</ele><time>2026-05-03T13:19:22.999Z</time></trkpt><trkpt lat="38.49080927065853" lon="16.141686590033355"><ele>647.6666666666667</ele><time>2026-05-03T13:19:23.999Z</time></trkpt><trkpt lat="38.49086377888989" lon="16.141447112861712"><ele>646.0</ele><time>2026-05-03T13:19:24.999Z</time></trkpt><trkpt lat="38.49096469757245" lon="16.141198092125848"><ele>644.3333333333334</ele><time>2026-05-03T13:19:25.999Z</time></trkpt><trkpt lat="38.491052918166716" lon="16.140946372093882"><ele>642.6666666666666</ele><time>2026-05-03T13:19:26.999Z</time></trkpt><trkpt lat="38.491147978951886" lon="16.140680909897174"><ele>641.0</ele><time>2026-05-03T13:19:27.999Z</time></trkpt><trkpt lat="38.49123432508991" lon="16.140408603212784"><ele>641.0</ele><time>2026-05-03T13:19:28.999Z</time></trkpt><trkpt lat="38.491336548555" lon="16.14014841659358"><ele>641.0</ele><time>2026-05-03T13:19:29.999Z</time></trkpt><trkpt lat="38.491435937627976" lon="16.139874981609374"><ele>640.0</ele><time>2026-05-03T13:19:30.999Z</time></trkpt><trkpt lat="38.491534197090964" lon="16.139611572376953"><ele>639.0</ele><time>2026-05-03T13:19:31.999Z</time></trkpt><trkpt lat="38.491623373311995" lon="16.139354256561433"><ele>638.0</ele><time>2026-05-03T13:19:32.999Z</time></trkpt><trkpt lat="38.491713727345704" lon="16.13908692680395"><ele>635.5</ele><time>2026-05-03T13:19:33.999Z</time></trkpt><trkpt lat="38.49179032119124" lon="16.13880660276949"><ele>633.0</ele><time>2026-05-03T13:19:34.999Z</time></trkpt><trkpt lat="38.49184987822237" lon="16.138506925249878"><ele>632.0</ele><time>2026-05-03T13:19:35.999Z</time></trkpt><trkpt lat="38.49191047510032" lon="16.138203023033817"><ele>631.0</ele><time>2026-05-03T13:19:36.999Z</time></trkpt><trkpt lat="38.491978971138366" lon="16.137895700027222"><ele>631.0</ele><time>2026-05-03T13:19:37.999Z</time></trkpt><trkpt lat="38.4920348376352" lon="16.13761906649938"><ele>631.0</ele><time>2026-05-03T13:19:38.999Z</time></trkpt><trkpt lat="38.492090130846115" lon="16.137355021623883"><ele>631.0</ele><time>2026-05-03T13:19:39.999Z</time></trkpt><trkpt lat="38.49217035958279" lon="16.13713028802546"><ele>630.0</ele><time>2026-05-03T13:19:40.999Z</time></trkpt><trkpt lat="38.492216588245704" lon="16.13685926986142"><ele>629.0</ele><time>2026-05-03T13:19:41.999Z</time></trkpt><trkpt lat="38.492267844192064" lon="16.136618003417272"><ele>628.0</ele><time>2026-05-03T13:19:42.999Z</time></trkpt><trkpt lat="38.492307006722406" lon="16.136385605082527"><ele>626.6666666666667</ele><time>2026-05-03T13:19:43.999Z</time></trkpt><trkpt lat="38.492306769486" lon="16.136152469900846"><ele>625.3333333333334</ele><time>2026-05-03T13:19:44.999Z</time></trkpt><trkpt lat="38.49223169523061" lon="16.135978201842104"><ele>624.0</ele><time>2026-05-03T13:19:45.999Z</time></trkpt><trkpt lat="38.49215536392243" lon="16.13578427986136"><ele>622.6666666666666</ele><time>2026-05-03T13:19:46.999Z</time></trkpt><trkpt lat="38.49203786674554" lon="16.135622234140385"><ele>621.3333333333333</ele><time>2026-05-03T13:19:47.999Z</time></trkpt><trkpt lat="38.49193990756659" lon="16.1354885596461"><ele>620.0</ele><time>2026-05-03T13:19:48.999Z</time></trkpt><trkpt lat="38.49189062363938" lon="16.135324201389647"><ele>620.0</ele><time>2026-05-03T13:19:49.999Z</time></trkpt><trkpt lat="38.49188881738554" lon="16.1351863965504"><ele>620.0</ele><time>2026-05-03T13:19:50.999Z</time></trkpt><trkpt lat="38.49193912262801" lon="16.135059169368827"><ele>620.0</ele><time>2026-05-03T13:19:51.999Z</time></trkpt><trkpt lat="38.491999302624215" lon="16.134891497221915"><ele>620.0</ele><time>2026-05-03T13:19:52.999Z</time></trkpt><trkpt lat="38.492088169888646" lon="16.134710992988687"><ele>618.6666666666666</ele><time>2026-05-03T13:19:53.999Z</time></trkpt><trkpt lat="38.49216553737011" lon="16.134512783976387"><ele>617.3333333333334</ele><time>2026-05-03T13:19:54.999Z</time></trkpt><trkpt lat="38.49223770699429" lon="16.134305234360603"><ele>616.0</ele><time>2026-05-03T13:19:55.999Z</time></trkpt><trkpt lat="38.492306399750944" lon="16.13409978068415"><ele>614.0</ele><time>2026-05-03T13:19:56.999Z</time></trkpt><trkpt lat="38.49238336477413" lon="16.133871199060458"><ele>612.0</ele><time>2026-05-03T13:19:57.999Z</time></trkpt><trkpt lat="38.49245847240474" lon="16.133629499810674"><ele>610.0</ele><time>2026-05-03T13:19:58.999Z</time></trkpt><trkpt lat="38.492537455907645" lon="16.13340371766916"><ele>609.0</ele><time>2026-05-03T13:19:59.999Z</time></trkpt><trkpt lat="38.4926148760702" lon="16.13319832770964"><ele>608.0</ele><time>2026-05-03T13:20:00.999Z</time></trkpt><trkpt lat="38.49273004810433" lon="16.13301485249657"><ele>607.0</ele><time>2026-05-03T13:20:01.999Z</time></trkpt><trkpt lat="38.49285611479626" lon="16.132817922512103"><ele>607.3333333333334</ele><time>2026-05-03T13:20:02.999Z</time></trkpt><trkpt lat="38.492988298923045" lon="16.132595665219984"><ele>607.6666666666666</ele><time>2026-05-03T13:20:03.999Z</time></trkpt><trkpt lat="38.49313824998765" lon="16.13238154286066"><ele>608.0</ele><time>2026-05-03T13:20:04.999Z</time></trkpt><trkpt lat="38.4932823325392" lon="16.132159193131614"><ele>604.5</ele><time>2026-05-03T13:20:05.999Z</time></trkpt><trkpt lat="38.49343215258672" lon="16.13192754053851"><ele>601.0</ele><time>2026-05-03T13:20:06.999Z</time></trkpt><trkpt lat="38.493583840649805" lon="16.13168524834899"><ele>599.0</ele><time>2026-05-03T13:20:07.999Z</time></trkpt><trkpt lat="38.49373563256716" lon="16.131456583679785"><ele>597.0</ele><time>2026-05-03T13:20:08.999Z</time></trkpt><trkpt lat="38.493892820867956" lon="16.131218581930206"><ele>597.0</ele><time>2026-05-03T13:20:09.999Z</time></trkpt><trkpt lat="38.494051064990224" lon="16.130980641216418"><ele>597.0</ele><time>2026-05-03T13:20:10.999Z</time></trkpt><trkpt lat="38.49420777556788" lon="16.130739028459374"><ele>594.5</ele><time>2026-05-03T13:20:11.999Z</time></trkpt><trkpt lat="38.49436126895144" lon="16.130499274707297"><ele>592.0</ele><time>2026-05-03T13:20:12.999Z</time></trkpt><trkpt lat="38.49450591971459" lon="16.130265101294473"><ele>592.0</ele><time>2026-05-03T13:20:13.999Z</time></trkpt><trkpt lat="38.49465985806132" lon="16.130064949278232"><ele>592.0</ele><time>2026-05-03T13:20:14.999Z</time></trkpt><trkpt lat="38.49479351266905" lon="16.12986324318885"><ele>592.0</ele><time>2026-05-03T13:20:15.999Z</time></trkpt><trkpt lat="38.49489936562835" lon="16.12966667726709"><ele>591.0</ele><time>2026-05-03T13:20:16.999Z</time></trkpt><trkpt lat="38.49501276941667" lon="16.12949787774128"><ele>590.0</ele><time>2026-05-03T13:20:17.999Z</time></trkpt><trkpt lat="38.49512186718725" lon="16.12938700358432"><ele>589.0</ele><time>2026-05-03T13:20:18.999Z</time></trkpt><trkpt lat="38.495214931098126" lon="16.12928157702878"><ele>588.0</ele><time>2026-05-03T13:20:19.999Z</time></trkpt><trkpt lat="38.49535012923483" lon="16.129272584092856"><ele>586.6666666666666</ele><time>2026-05-03T13:20:20.999Z</time></trkpt><trkpt lat="38.49548531051346" lon="16.12929311063402"><ele>585.3333333333333</ele><time>2026-05-03T13:20:21.999Z</time></trkpt><trkpt lat="38.49564261904222" lon="16.12931635189462"><ele>584.0</ele><time>2026-05-03T13:20:22.999Z</time></trkpt><trkpt lat="38.495804459894885" lon="16.12937282173421"><ele>584.0</ele><time>2026-05-03T13:20:23.999Z</time></trkpt><trkpt lat="38.4959579426551" lon="16.129412260345887"><ele>584.0</ele><time>2026-05-03T13:20:24.999Z</time></trkpt><trkpt lat="38.49609971335997" lon="16.129451711326734"><ele>584.0</ele><time>2026-05-03T13:20:25.999Z</time></trkpt><trkpt lat="38.49623758005063" lon="16.129474977618173"><ele>584.0</ele><time>2026-05-03T13:20:26.999Z</time></trkpt><trkpt lat="38.496364335344666" lon="16.129478277508237"><ele>583.0</ele><time>2026-05-03T13:20:27.999Z</time></trkpt><trkpt lat="38.49642981608897" lon="16.129419638246627"><ele>582.0</ele><time>2026-05-03T13:20:28.999Z</time></trkpt><trkpt lat="38.49651210751177" lon="16.1293222945636"><ele>581.0</ele><time>2026-05-03T13:20:29.999Z</time></trkpt><trkpt lat="38.49653495433799" lon="16.12912736894099"><ele>580.0</ele><time>2026-05-03T13:20:30.999Z</time></trkpt><trkpt lat="38.49659017669882" lon="16.128963466765796"><ele>579.0</ele><time>2026-05-03T13:20:31.999Z</time></trkpt><trkpt lat="38.49667642402172" lon="16.12883509621625"><ele>578.0</ele><time>2026-05-03T13:20:32.999Z</time></trkpt><trkpt lat="38.49679347729009" lon="16.128711151333693"><ele>577.0</ele><time>2026-05-03T13:20:33.999Z</time></trkpt><trkpt lat="38.49691559382604" lon="16.128586300836673"><ele>576.0</ele><time>2026-05-03T13:20:34.999Z</time></trkpt><trkpt lat="38.4970636722781" lon="16.1284146386049"><ele>575.3333333333334</ele><time>2026-05-03T13:20:35.999Z</time></trkpt><trkpt lat="38.49721437835312" lon="16.128262715609385"><ele>574.6666666666667</ele><time>2026-05-03T13:20:36.999Z</time></trkpt><trkpt lat="38.49737033039115" lon="16.128103619668174"><ele>574.0</ele><time>2026-05-03T13:20:37.999Z</time></trkpt><trkpt lat="38.497526997010745" lon="16.12794564578616"><ele>572.3333333333334</ele><time>2026-05-03T13:20:38.999Z</time></trkpt><trkpt lat="38.49767653061341" lon="16.12779187208932"><ele>570.6666666666666</ele><time>2026-05-03T13:20:39.999Z</time></trkpt><trkpt lat="38.497822276227986" lon="16.12763986932704"><ele>569.0</ele><time>2026-05-03T13:20:40.999Z</time></trkpt><trkpt lat="38.49797348542965" lon="16.12748762790098"><ele>566.3333333333333</ele><time>2026-05-03T13:20:41.999Z</time></trkpt><trkpt lat="38.498142729861" lon="16.127367079678788"><ele>563.6666666666666</ele><time>2026-05-03T13:20:42.999Z</time></trkpt><trkpt lat="38.49830404074024" lon="16.127242732703493"><ele>561.0</ele><time>2026-05-03T13:20:43.999Z</time></trkpt><trkpt lat="38.498449897027406" lon="16.127113616013517"><ele>561.0</ele><time>2026-05-03T13:20:44.999Z</time></trkpt><trkpt lat="38.49859261545122" lon="16.127014098196916"><ele>561.0</ele><time>2026-05-03T13:20:45.999Z</time></trkpt><trkpt lat="38.498731506836045" lon="16.12691014459897"><ele>561.0</ele><time>2026-05-03T13:20:46.999Z</time></trkpt><trkpt lat="38.49886945441923" lon="16.126803199305737"><ele>562.0</ele><time>2026-05-03T13:20:47.999Z</time></trkpt><trkpt lat="38.498991358920065" lon="16.12668019120133"><ele>563.0</ele><time>2026-05-03T13:20:48.999Z</time></trkpt><trkpt lat="38.49908160930376" lon="16.12651940651686"><ele>564.0</ele><time>2026-05-03T13:20:49.999Z</time></trkpt><trkpt lat="38.49913931337318" lon="16.12632009216642"><ele>562.0</ele><time>2026-05-03T13:20:50.999Z</time></trkpt><trkpt lat="38.499162111041926" lon="16.12610211239438"><ele>560.0</ele><time>2026-05-03T13:20:51.999Z</time></trkpt><trkpt lat="38.499170363743325" lon="16.125891262891074"><ele>558.0</ele><time>2026-05-03T13:20:52.999Z</time></trkpt><trkpt lat="38.49914455650246" lon="16.125675114852015"><ele>556.3333333333334</ele><time>2026-05-03T13:20:53.999Z</time></trkpt><trkpt lat="38.49907754053682" lon="16.125462324582916"><ele>554.6666666666667</ele><time>2026-05-03T13:20:54.999Z</time></trkpt><trkpt lat="38.4990071249307" lon="16.125245154226654"><ele>553.0</ele><time>2026-05-03T13:20:55.999Z</time></trkpt><trkpt lat="38.49893782778669" lon="16.125052518021946"><ele>550.6666666666667</ele><time>2026-05-03T13:20:56.999Z</time></trkpt><trkpt lat="38.49884598958789" lon="16.12487147227658"><ele>548.3333333333334</ele><time>2026-05-03T13:20:57.999Z</time></trkpt><trkpt lat="38.49871147468454" lon="16.124716953045056"><ele>546.0</ele><time>2026-05-03T13:20:58.999Z</time></trkpt><trkpt lat="38.498559797026495" lon="16.1245497566669"><ele>546.0</ele><time>2026-05-03T13:20:59.999Z</time></trkpt><trkpt lat="38.49841046881375" lon="16.12439993138408"><ele>546.0</ele><time>2026-05-03T13:21:00.999Z</time></trkpt><trkpt lat="38.49827248277247" lon="16.12425484615774"><ele>546.0</ele><time>2026-05-03T13:21:01.999Z</time></trkpt><trkpt lat="38.49816612787234" lon="16.124095728243066"><ele>543.6666666666666</ele><time>2026-05-03T13:21:02.999Z</time></trkpt><trkpt lat="38.49807691007404" lon="16.12394726732475"><ele>541.3333333333333</ele><time>2026-05-03T13:21:03.999Z</time></trkpt><trkpt lat="38.49800990507583" lon="16.123780673144463"><ele>539.0</ele><time>2026-05-03T13:21:04.999Z</time></trkpt><trkpt lat="38.49795698515814" lon="16.123590000526015"><ele>539.0</ele><time>2026-05-03T13:21:05.999Z</time></trkpt><trkpt lat="38.49790064486063" lon="16.12337994932118"><ele>539.0</ele><time>2026-05-03T13:21:06.999Z</time></trkpt><trkpt lat="38.49785155359534" lon="16.12316891856851"><ele>539.0</ele><time>2026-05-03T13:21:07.999Z</time></trkpt><trkpt lat="38.497827916430644" lon="16.1229497408671"><ele>539.6666666666666</ele><time>2026-05-03T13:21:08.999Z</time></trkpt><trkpt lat="38.49780938270786" lon="16.122719017824767"><ele>540.3333333333334</ele><time>2026-05-03T13:21:09.999Z</time></trkpt><trkpt lat="38.49778776242963" lon="16.122487036018608"><ele>541.0</ele><time>2026-05-03T13:21:10.999Z</time></trkpt><trkpt lat="38.49776636012302" lon="16.122251411538894"><ele>541.0</ele><time>2026-05-03T13:21:11.999Z</time></trkpt><trkpt lat="38.49772868526542" lon="16.12201829800902"><ele>541.0</ele><time>2026-05-03T13:21:12.999Z</time></trkpt><trkpt lat="38.49772531037438" lon="16.121786848871192"><ele>541.0</ele><time>2026-05-03T13:21:13.999Z</time></trkpt><trkpt lat="38.49770434685781" lon="16.12154451204317"><ele>539.3333333333334</ele><time>2026-05-03T13:21:14.999Z</time></trkpt><trkpt lat="38.49768130058945" lon="16.12130353393164"><ele>537.6666666666666</ele><time>2026-05-03T13:21:15.999Z</time></trkpt><trkpt lat="38.49765346657776" lon="16.1210621784119"><ele>536.0</ele><time>2026-05-03T13:21:16.999Z</time></trkpt><trkpt lat="38.497619950783275" lon="16.120817231778084"><ele>535.3333333333333</ele><time>2026-05-03T13:21:17.999Z</time></trkpt><trkpt lat="38.497584590817794" lon="16.120576367068853"><ele>534.6666666666666</ele><time>2026-05-03T13:21:18.999Z</time></trkpt><trkpt lat="38.49754403575993" lon="16.120337225211138"><ele>534.0</ele><time>2026-05-03T13:21:19.999Z</time></trkpt><trkpt lat="38.49750310392767" lon="16.120095452313098"><ele>534.6666666666666</ele><time>2026-05-03T13:21:20.999Z</time></trkpt><trkpt lat="38.49746380025517" lon="16.119858885761687"><ele>535.3333333333333</ele><time>2026-05-03T13:21:21.999Z</time></trkpt><trkpt lat="38.497426279851965" lon="16.11962956676132"><ele>536.0</ele><time>2026-05-03T13:21:22.999Z</time></trkpt><trkpt lat="38.49739162672309" lon="16.119417772119498"><ele>536.0</ele><time>2026-05-03T13:21:23.999Z</time></trkpt><trkpt lat="38.49736015721145" lon="16.119224628195745"><ele>536.0</ele><time>2026-05-03T13:21:24.999Z</time></trkpt><trkpt lat="38.49733873947978" lon="16.11904180101297"><ele>536.0</ele><time>2026-05-03T13:21:25.999Z</time></trkpt><trkpt lat="38.49734483132724" lon="16.118855735868607"><ele>536.0</ele><time>2026-05-03T13:21:26.999Z</time></trkpt><trkpt lat="38.497363818430635" lon="16.11865314607473"><ele>536.0</ele><time>2026-05-03T13:21:27.999Z</time></trkpt><trkpt lat="38.497388483952875" lon="16.118429188904745"><ele>536.0</ele><time>2026-05-03T13:21:28.999Z</time></trkpt><trkpt lat="38.49740442635876" lon="16.118200440200162"><ele>536.0</ele><time>2026-05-03T13:21:29.999Z</time></trkpt><trkpt lat="38.49743182244541" lon="16.117960207068013"><ele>536.0</ele><time>2026-05-03T13:21:30.999Z</time></trkpt><trkpt lat="38.49746033599665" lon="16.117714560777518"><ele>536.0</ele><time>2026-05-03T13:21:31.999Z</time></trkpt><trkpt lat="38.49750033229802" lon="16.11747759237974"><ele>536.0</ele><time>2026-05-03T13:21:32.999Z</time></trkpt><trkpt lat="38.497525084079946" lon="16.117240543995297"><ele>535.0</ele><time>2026-05-03T13:21:33.999Z</time></trkpt><trkpt lat="38.49754822934803" lon="16.11701888120116"><ele>534.0</ele><time>2026-05-03T13:21:34.999Z</time></trkpt><trkpt lat="38.49757055453053" lon="16.116805961208254"><ele>533.0</ele><time>2026-05-03T13:21:35.999Z</time></trkpt><trkpt lat="38.497593310723474" lon="16.11658939715084"><ele>532.3333333333333</ele><time>2026-05-03T13:21:36.999Z</time></trkpt><trkpt lat="38.49759974886602" lon="16.116377515916806"><ele>531.6666666666666</ele><time>2026-05-03T13:21:37.999Z</time></trkpt><trkpt lat="38.49761233280176" lon="16.116172523128224"><ele>531.0</ele><time>2026-05-03T13:21:38.999Z</time></trkpt><trkpt lat="38.4975986263659" lon="16.115973778698844"><ele>531.0</ele><time>2026-05-03T13:21:39.999Z</time></trkpt><trkpt lat="38.49755330768276" lon="16.115771419879234"><ele>531.0</ele><time>2026-05-03T13:21:40.999Z</time></trkpt><trkpt lat="38.49748782096521" lon="16.115558273046283"><ele>531.0</ele><time>2026-05-03T13:21:41.999Z</time></trkpt><trkpt lat="38.497423613357334" lon="16.115335763937143"><ele>530.6666666666666</ele><time>2026-05-03T13:21:42.999Z</time></trkpt><trkpt lat="38.49737280583571" lon="16.11509765714458"><ele>530.3333333333333</ele><time>2026-05-03T13:21:43.999Z</time></trkpt><trkpt lat="38.497290797409406" lon="16.114875947884"><ele>530.0</ele><time>2026-05-03T13:21:44.999Z</time></trkpt><trkpt lat="38.49722533683407" lon="16.11464462608616"><ele>529.6666666666666</ele><time>2026-05-03T13:21:45.999Z</time></trkpt><trkpt lat="38.49715778723056" lon="16.114427218810118"><ele>529.3333333333334</ele><time>2026-05-03T13:21:46.999Z</time></trkpt><trkpt lat="38.497065995168995" lon="16.114201760443922"><ele>529.0</ele><time>2026-05-03T13:21:47.999Z</time></trkpt><trkpt lat="38.496962607116586" lon="16.113993553679567"><ele>528.0</ele><time>2026-05-03T13:21:48.999Z</time></trkpt><trkpt lat="38.496862435138546" lon="16.113799646693142"><ele>527.0</ele><time>2026-05-03T13:21:49.999Z</time></trkpt><trkpt lat="38.49677533906072" lon="16.113607504990416"><ele>526.0</ele><time>2026-05-03T13:21:50.999Z</time></trkpt><trkpt lat="38.49668228902347" lon="16.11342809593302"><ele>525.3333333333334</ele><time>2026-05-03T13:21:51.999Z</time></trkpt><trkpt lat="38.49659089321562" lon="16.1132215255134"><ele>524.6666666666666</ele><time>2026-05-03T13:21:52.999Z</time></trkpt><trkpt lat="38.49652648374181" lon="16.11299129799552"><ele>524.0</ele><time>2026-05-03T13:21:53.999Z</time></trkpt><trkpt lat="38.49645160127915" lon="16.11276882010391"><ele>524.0</ele><time>2026-05-03T13:21:54.999Z</time></trkpt><trkpt lat="38.49637616070073" lon="16.11254620457064"><ele>524.0</ele><time>2026-05-03T13:21:55.999Z</time></trkpt><trkpt lat="38.49629997418948" lon="16.112325353491162"><ele>524.0</ele><time>2026-05-03T13:21:56.999Z</time></trkpt><trkpt lat="38.49622921598467" lon="16.112120615191824"><ele>523.3333333333333</ele><time>2026-05-03T13:21:57.999Z</time></trkpt><trkpt lat="38.49616347432414" lon="16.111934826188918"><ele>522.6666666666666</ele><time>2026-05-03T13:21:58.999Z</time></trkpt><trkpt lat="38.496104129362536" lon="16.111741390899898"><ele>522.0</ele><time>2026-05-03T13:21:59.999Z</time></trkpt><trkpt lat="38.49606437741527" lon="16.11154455133606"><ele>521.0</ele><time>2026-05-03T13:22:00.999Z</time></trkpt><trkpt lat="38.49604288602962" lon="16.111346353160442"><ele>520.0</ele><time>2026-05-03T13:22:01.999Z</time></trkpt><trkpt lat="38.49604557879214" lon="16.111134379292324"><ele>519.0</ele><time>2026-05-03T13:22:02.999Z</time></trkpt><trkpt lat="38.49605257114521" lon="16.110928087193027"><ele>517.6666666666666</ele><time>2026-05-03T13:22:03.999Z</time></trkpt><trkpt lat="38.496060954382" lon="16.110724068394745"><ele>516.3333333333333</ele><time>2026-05-03T13:22:04.999Z</time></trkpt><trkpt lat="38.496070229751275" lon="16.110529576049437"><ele>515.0</ele><time>2026-05-03T13:22:05.999Z</time></trkpt><trkpt lat="38.49607918038958" lon="16.11034665597637"><ele>515.0</ele><time>2026-05-03T13:22:06.999Z</time></trkpt><trkpt lat="38.496083151810325" lon="16.110169783287784"><ele>515.0</ele><time>2026-05-03T13:22:07.999Z</time></trkpt><trkpt lat="38.496071220620614" lon="16.109994410768987"><ele>515.0</ele><time>2026-05-03T13:22:08.999Z</time></trkpt><trkpt lat="38.49603543793142" lon="16.109810191842353"><ele>515.0</ele><time>2026-05-03T13:22:09.999Z</time></trkpt><trkpt lat="38.495968015326106" lon="16.10963865911107"><ele>513.75</ele><time>2026-05-03T13:22:10.999Z</time></trkpt><trkpt lat="38.49593754973197" lon="16.10946990190506"><ele>512.5</ele><time>2026-05-03T13:22:11.999Z</time></trkpt><trkpt lat="38.495895243490004" lon="16.10931806571414"><ele>511.25</ele><time>2026-05-03T13:22:12.999Z</time></trkpt><trkpt lat="38.49586737686282" lon="16.109180570558056"><ele>510.0</ele><time>2026-05-03T13:22:13.999Z</time></trkpt><trkpt lat="38.49586176444385" lon="16.10904608452481"><ele>509.0</ele><time>2026-05-03T13:22:14.999Z</time></trkpt><trkpt lat="38.49588474499473" lon="16.10889462200212"><ele>508.0</ele><time>2026-05-03T13:22:15.999Z</time></trkpt><trkpt lat="38.49592700409054" lon="16.10871678340569"><ele>507.0</ele><time>2026-05-03T13:22:16.999Z</time></trkpt><trkpt lat="38.495971526892745" lon="16.108523869641093"><ele>506.0</ele><time>2026-05-03T13:22:17.999Z</time></trkpt><trkpt lat="38.496017798108575" lon="16.108320409523742"><ele>504.75</ele><time>2026-05-03T13:22:18.999Z</time></trkpt><trkpt lat="38.49606604426017" lon="16.108105510927093"><ele>503.5</ele><time>2026-05-03T13:22:19.999Z</time></trkpt><trkpt lat="38.49611588110589" lon="16.107882119173052"><ele>502.25</ele><time>2026-05-03T13:22:20.999Z</time></trkpt><trkpt lat="38.49613700540675" lon="16.107790166388625"><ele>501.0</ele><time>2026-05-03T13:22:21.999Z</time></trkpt><trkpt lat="38.49617683156301" lon="16.107625716014187"><ele>501.0</ele><time>2026-05-03T13:22:22.999Z</time></trkpt><trkpt lat="38.496227406846224" lon="16.107494996432617"><ele>501.0</ele><time>2026-05-03T13:22:23.999Z</time></trkpt><trkpt lat="38.49630254547764" lon="16.107382307692"><ele>501.0</ele><time>2026-05-03T13:22:24.999Z</time></trkpt><trkpt lat="38.496404151250466" lon="16.107251847284004"><ele>501.0</ele><time>2026-05-03T13:22:25.999Z</time></trkpt><trkpt lat="38.49651630311849" lon="16.107119586180694"><ele>499.5</ele><time>2026-05-03T13:22:26.999Z</time></trkpt><trkpt lat="38.49661577475407" lon="16.107002110112827"><ele>498.0</ele><time>2026-05-03T13:22:27.999Z</time></trkpt><trkpt lat="38.496695224720085" lon="16.10687198605308"><ele>496.5</ele><time>2026-05-03T13:22:28.999Z</time></trkpt><trkpt lat="38.496759184706505" lon="16.106735164580925"><ele>495.0</ele><time>2026-05-03T13:22:29.999Z</time></trkpt><trkpt lat="38.4967900248846" lon="16.106552923157473"><ele>493.33333333333337</ele><time>2026-05-03T13:22:30.999Z</time></trkpt><trkpt lat="38.49681946921996" lon="16.106357939629962"><ele>491.6666666666667</ele><time>2026-05-03T13:22:31.999Z</time></trkpt><trkpt lat="38.49688323975893" lon="16.1061674676317"><ele>490.0</ele><time>2026-05-03T13:22:32.999Z</time></trkpt><trkpt lat="38.49695698830327" lon="16.105981521964196"><ele>490.0</ele><time>2026-05-03T13:22:33.999Z</time></trkpt><trkpt lat="38.49702428294046" lon="16.105785067624655"><ele>490.0</ele><time>2026-05-03T13:22:34.999Z</time></trkpt><trkpt lat="38.49706651483318" lon="16.105596284010332"><ele>490.0</ele><time>2026-05-03T13:22:35.999Z</time></trkpt><trkpt lat="38.497096574523006" lon="16.10542388249353"><ele>490.25</ele><time>2026-05-03T13:22:36.999Z</time></trkpt><trkpt lat="38.49713474221572" lon="16.10526543471044"><ele>490.5</ele><time>2026-05-03T13:22:37.999Z</time></trkpt><trkpt lat="38.49716108781441" lon="16.105116091916873"><ele>490.75</ele><time>2026-05-03T13:22:38.999Z</time></trkpt><trkpt lat="38.497141371895694" lon="16.104971856733005"><ele>491.0</ele><time>2026-05-03T13:22:39.999Z</time></trkpt><trkpt lat="38.497048301289" lon="16.10485966063146"><ele>490.0</ele><time>2026-05-03T13:22:40.999Z</time></trkpt><trkpt lat="38.49692686143916" lon="16.10476697105662"><ele>489.0</ele><time>2026-05-03T13:22:41.999Z</time></trkpt><trkpt lat="38.4967935306926" lon="16.10470153530684"><ele>488.0</ele><time>2026-05-03T13:22:42.999Z</time></trkpt><trkpt lat="38.49664333310159" lon="16.10461302335013"><ele>488.0</ele><time>2026-05-03T13:22:43.999Z</time></trkpt><trkpt lat="38.49656243834408" lon="16.104489384036604"><ele>488.0</ele><time>2026-05-03T13:22:44.999Z</time></trkpt><trkpt lat="38.4964987181016" lon="16.104333120493642"><ele>488.0</ele><time>2026-05-03T13:22:45.999Z</time></trkpt><trkpt lat="38.49643445347118" lon="16.10416845579157"><ele>488.0</ele><time>2026-05-03T13:22:46.999Z</time></trkpt><trkpt lat="38.49636618927388" lon="16.10397357938134"><ele>488.0</ele><time>2026-05-03T13:22:47.999Z</time></trkpt><trkpt lat="38.49628968414099" lon="16.103770081748337"><ele>488.0</ele><time>2026-05-03T13:22:48.999Z</time></trkpt><trkpt lat="38.49620229935382" lon="16.103587746543813"><ele>488.0</ele><time>2026-05-03T13:22:49.999Z</time></trkpt><trkpt lat="38.49607500465841" lon="16.103437354857196"><ele>486.3333333333333</ele><time>2026-05-03T13:22:50.999Z</time></trkpt><trkpt lat="38.495968158346066" lon="16.10328188638305"><ele>484.66666666666663</ele><time>2026-05-03T13:22:51.999Z</time></trkpt><trkpt lat="38.495874932407496" lon="16.103112220543643"><ele>483.0</ele><time>2026-05-03T13:22:52.999Z</time></trkpt><trkpt lat="38.49578951966739" lon="16.102927860160335"><ele>482.33333333333337</ele><time>2026-05-03T13:22:53.999Z</time></trkpt><trkpt lat="38.49570807237112" lon="16.102738560433785"><ele>481.6666666666667</ele><time>2026-05-03T13:22:54.999Z</time></trkpt><trkpt lat="38.49562964121404" lon="16.102563785003923"><ele>481.0</ele><time>2026-05-03T13:22:55.999Z</time></trkpt><trkpt lat="38.495556350814304" lon="16.102400414001767"><ele>478.33333333333337</ele><time>2026-05-03T13:22:56.999Z</time></trkpt><trkpt lat="38.49548227943166" lon="16.102239722430006"><ele>475.66666666666663</ele><time>2026-05-03T13:22:57.999Z</time></trkpt><trkpt lat="38.4954006813555" lon="16.10207757416771"><ele>473.0</ele><time>2026-05-03T13:22:58.999Z</time></trkpt><trkpt lat="38.49528611761203" lon="16.101936575441627"><ele>473.0</ele><time>2026-05-03T13:22:59.999Z</time></trkpt><trkpt lat="38.49516019559383" lon="16.101794559678506"><ele>473.0</ele><time>2026-05-03T13:23:00.999Z</time></trkpt><trkpt lat="38.4950263672674" lon="16.101670600318506"><ele>473.0</ele><time>2026-05-03T13:23:01.999Z</time></trkpt><trkpt lat="38.49491008337978" lon="16.101520352135655"><ele>469.66666666666663</ele><time>2026-05-03T13:23:02.999Z</time></trkpt><trkpt lat="38.494801490970154" lon="16.101370918738795"><ele>466.33333333333337</ele><time>2026-05-03T13:23:03.999Z</time></trkpt><trkpt lat="38.49470086796517" lon="16.1012107825536"><ele>463.0</ele><time>2026-05-03T13:23:04.999Z</time></trkpt><trkpt lat="38.494601626222945" lon="16.101033376485432"><ele>464.0</ele><time>2026-05-03T13:23:05.999Z</time></trkpt><trkpt lat="38.49451316459364" lon="16.100860522380376"><ele>465.0</ele><time>2026-05-03T13:23:06.999Z</time></trkpt><trkpt lat="38.49442425756494" lon="16.100690508547828"><ele>466.0</ele><time>2026-05-03T13:23:07.999Z</time></trkpt><trkpt lat="38.49433024398355" lon="16.100528840255933"><ele>464.0</ele><time>2026-05-03T13:23:08.999Z</time></trkpt><trkpt lat="38.4942274766375" lon="16.10038374597457"><ele>462.0</ele><time>2026-05-03T13:23:09.999Z</time></trkpt><trkpt lat="38.494125695416656" lon="16.100256680608663"><ele>460.0</ele><time>2026-05-03T13:23:10.999Z</time></trkpt><trkpt lat="38.49401520505197" lon="16.10014414027417"><ele>458.0</ele><time>2026-05-03T13:23:11.999Z</time></trkpt><trkpt lat="38.493880737616756" lon="16.10008150598641"><ele>458.0</ele><time>2026-05-03T13:23:12.999Z</time></trkpt><trkpt lat="38.49374362437136" lon="16.100037167788773"><ele>458.0</ele><time>2026-05-03T13:23:13.999Z</time></trkpt><trkpt lat="38.493611838789704" lon="16.100031322326696"><ele>458.0</ele><time>2026-05-03T13:23:14.999Z</time></trkpt><trkpt lat="38.49349232700679" lon="16.10008169804962"><ele>458.0</ele><time>2026-05-03T13:23:15.999Z</time></trkpt><trkpt lat="38.493395665635035" lon="16.1001943150975"><ele>458.0</ele><time>2026-05-03T13:23:16.999Z</time></trkpt><trkpt lat="38.49332558388595" lon="16.100359170667033"><ele>458.0</ele><time>2026-05-03T13:23:17.999Z</time></trkpt><trkpt lat="38.4932769085097" lon="16.100540680108335"><ele>458.0</ele><time>2026-05-03T13:23:18.999Z</time></trkpt><trkpt lat="38.49324865407022" lon="16.100709200661743"><ele>458.0</ele><time>2026-05-03T13:23:19.999Z</time></trkpt><trkpt lat="38.493235018014296" lon="16.10085782954913"><ele>457.79999999999995</ele><time>2026-05-03T13:23:20.999Z</time></trkpt><trkpt lat="38.493228074494205" lon="16.100983118327747"><ele>457.59999999999997</ele><time>2026-05-03T13:23:21.999Z</time></trkpt><trkpt lat="38.493246548314445" lon="16.101114299242436"><ele>457.40000000000003</ele><time>2026-05-03T13:23:22.999Z</time></trkpt><trkpt lat="38.4932966390233" lon="16.101224374062234"><ele>457.20000000000005</ele><time>2026-05-03T13:23:23.999Z</time></trkpt><trkpt lat="38.4933262229148" lon="16.101328200641404"><ele>457.0</ele><time>2026-05-03T13:23:24.999Z</time></trkpt><trkpt lat="38.49333323625435" lon="16.101431503620898"><ele>457.0</ele><time>2026-05-03T13:23:25.999Z</time></trkpt><trkpt lat="38.49327375356226" lon="16.101507504183353"><ele>457.00000000000006</ele><time>2026-05-03T13:23:26.999Z</time></trkpt><trkpt lat="38.49319006107947" lon="16.10153345150277"><ele>457.00000000000006</ele><time>2026-05-03T13:23:27.999Z</time></trkpt><trkpt lat="38.49310251271774" lon="16.101452368828404"><ele>457.0</ele><time>2026-05-03T13:23:28.999Z</time></trkpt><trkpt lat="38.493043614506576" lon="16.101336460580356"><ele>457.0</ele><time>2026-05-03T13:23:29.999Z</time></trkpt><trkpt lat="38.49296094600455" lon="16.10121998010978"><ele>455.0</ele><time>2026-05-03T13:23:30.999Z</time></trkpt><trkpt lat="38.49286379421879" lon="16.101094626489843"><ele>453.0</ele><time>2026-05-03T13:23:31.999Z</time></trkpt><trkpt lat="38.4927525140442" lon="16.10095393103826"><ele>451.0</ele><time>2026-05-03T13:23:32.999Z</time></trkpt><trkpt lat="38.49264056454964" lon="16.10084286918836"><ele>449.0</ele><time>2026-05-03T13:23:33.999Z</time></trkpt><trkpt lat="38.49255723162637" lon="16.10071679920315"><ele>448.5</ele><time>2026-05-03T13:23:34.999Z</time></trkpt><trkpt lat="38.492429713953506" lon="16.10063337099953"><ele>448.0</ele><time>2026-05-03T13:23:35.999Z</time></trkpt><trkpt lat="38.49231257830081" lon="16.100524500849588"><ele>447.5</ele><time>2026-05-03T13:23:36.999Z</time></trkpt><trkpt lat="38.492180691355124" lon="16.10043201652249"><ele>447.0</ele><time>2026-05-03T13:23:37.999Z</time></trkpt><trkpt lat="38.49205014701919" lon="16.100340406321358"><ele>445.25</ele><time>2026-05-03T13:23:38.999Z</time></trkpt><trkpt lat="38.49192590447226" lon="16.100248696725306"><ele>443.5</ele><time>2026-05-03T13:23:39.999Z</time></trkpt><trkpt lat="38.491809349954856" lon="16.10015373125873"><ele>441.75</ele><time>2026-05-03T13:23:40.999Z</time></trkpt><trkpt lat="38.491716897189356" lon="16.100044794752943"><ele>440.0</ele><time>2026-05-03T13:23:41.999Z</time></trkpt><trkpt lat="38.491642324089625" lon="16.09990062380704"><ele>438.0</ele><time>2026-05-03T13:23:42.999Z</time></trkpt><trkpt lat="38.491584237773836" lon="16.09972210107817"><ele>436.0</ele><time>2026-05-03T13:23:43.999Z</time></trkpt><trkpt lat="38.49153281952157" lon="16.099529565104923"><ele>434.0</ele><time>2026-05-03T13:23:44.999Z</time></trkpt><trkpt lat="38.49147387161484" lon="16.099368002011655"><ele>434.0</ele><time>2026-05-03T13:23:45.999Z</time></trkpt><trkpt lat="38.49142854184365" lon="16.099233829267504"><ele>434.0</ele><time>2026-05-03T13:23:46.999Z</time></trkpt><trkpt lat="38.49133850819776" lon="16.09913815351187"><ele>434.0</ele><time>2026-05-03T13:23:47.999Z</time></trkpt><trkpt lat="38.49121817656617" lon="16.09907807762308"><ele>434.0</ele><time>2026-05-03T13:23:48.999Z</time></trkpt><trkpt lat="38.49107759039202" lon="16.099043040148402"><ele>432.0</ele><time>2026-05-03T13:23:49.999Z</time></trkpt><trkpt lat="38.49093107957755" lon="16.09900460556729"><ele>430.0</ele><time>2026-05-03T13:23:50.999Z</time></trkpt><trkpt lat="38.49076298751539" lon="16.09893962619538"><ele>428.0</ele><time>2026-05-03T13:23:51.999Z</time></trkpt><trkpt lat="38.49060404631674" lon="16.098884501379807"><ele>428.0</ele><time>2026-05-03T13:23:52.999Z</time></trkpt><trkpt lat="38.49043964417757" lon="16.09881682358759"><ele>428.0</ele><time>2026-05-03T13:23:53.999Z</time></trkpt><trkpt lat="38.490279613370944" lon="16.098733833785843"><ele>428.0</ele><time>2026-05-03T13:23:54.999Z</time></trkpt><trkpt lat="38.49012829747099" lon="16.098650641070765"><ele>426.3333333333333</ele><time>2026-05-03T13:23:55.999Z</time></trkpt><trkpt lat="38.489974497988136" lon="16.098589776226234"><ele>424.66666666666663</ele><time>2026-05-03T13:23:56.999Z</time></trkpt><trkpt lat="38.48983809874617" lon="16.09850848535317"><ele>423.0</ele><time>2026-05-03T13:23:57.999Z</time></trkpt><trkpt lat="38.489705578588776" lon="16.09843855524179"><ele>422.5</ele><time>2026-05-03T13:23:58.999Z</time></trkpt><trkpt lat="38.489577542426524" lon="16.098386363197893"><ele>422.0</ele><time>2026-05-03T13:23:59.999Z</time></trkpt><trkpt lat="38.48945636773529" lon="16.098340224159013"><ele>421.5</ele><time>2026-05-03T13:24:00.999Z</time></trkpt><trkpt lat="38.48933929001571" lon="16.09830863146308"><ele>421.0</ele><time>2026-05-03T13:24:01.999Z</time></trkpt><trkpt lat="38.4892252424251" lon="16.098281010531554"><ele>419.25</ele><time>2026-05-03T13:24:02.999Z</time></trkpt><trkpt lat="38.48910996469463" lon="16.098247769652694"><ele>417.5</ele><time>2026-05-03T13:24:03.999Z</time></trkpt><trkpt lat="38.48898594405779" lon="16.098216667169705"><ele>415.75</ele><time>2026-05-03T13:24:04.999Z</time></trkpt><trkpt lat="38.4888610778892" lon="16.098183069218074"><ele>414.0</ele><time>2026-05-03T13:24:05.999Z</time></trkpt><trkpt lat="38.48874076181337" lon="16.09814532594793"><ele>414.0</ele><time>2026-05-03T13:24:06.999Z</time></trkpt><trkpt lat="38.48863566342286" lon="16.09807600694879"><ele>414.0</ele><time>2026-05-03T13:24:07.999Z</time></trkpt><trkpt lat="38.48855227957188" lon="16.09799753953749"><ele>414.0</ele><time>2026-05-03T13:24:08.999Z</time></trkpt><trkpt lat="38.48848364919114" lon="16.097903666064948"><ele>414.0</ele><time>2026-05-03T13:24:09.999Z</time></trkpt><trkpt lat="38.48848726363814" lon="16.09774750609566"><ele>414.0</ele><time>2026-05-03T13:24:10.999Z</time></trkpt><trkpt lat="38.48851721069606" lon="16.097597982134968"><ele>414.0</ele><time>2026-05-03T13:24:11.999Z</time></trkpt><trkpt lat="38.488539504740814" lon="16.09742789088612"><ele>414.0</ele><time>2026-05-03T13:24:12.999Z</time></trkpt><trkpt lat="38.48857142593041" lon="16.09726169727068"><ele>414.0</ele><time>2026-05-03T13:24:13.999Z</time></trkpt><trkpt lat="38.48860471253636" lon="16.097097483373616"><ele>414.0</ele><time>2026-05-03T13:24:14.999Z</time></trkpt><trkpt lat="38.48862495245017" lon="16.09694237430429"><ele>413.4</ele><time>2026-05-03T13:24:15.999Z</time></trkpt><trkpt lat="38.488653702068895" lon="16.09680294226573"><ele>412.79999999999995</ele><time>2026-05-03T13:24:16.999Z</time></trkpt><trkpt lat="38.48868182665336" lon="16.096663698969678"><ele>412.20000000000005</ele><time>2026-05-03T13:24:17.999Z</time></trkpt><trkpt lat="38.48871293962915" lon="16.096533836197718"><ele>411.6</ele><time>2026-05-03T13:24:18.999Z</time></trkpt><trkpt lat="38.488761415411986" lon="16.096413025576815"><ele>411.0</ele><time>2026-05-03T13:24:19.999Z</time></trkpt><trkpt lat="38.48883993679564" lon="16.096293039438898"><ele>408.75</ele><time>2026-05-03T13:24:20.999Z</time></trkpt><trkpt lat="38.48894016031031" lon="16.096183189779545"><ele>406.5</ele><time>2026-05-03T13:24:21.999Z</time></trkpt><trkpt lat="38.489038295083496" lon="16.096062185418948"><ele>404.25</ele><time>2026-05-03T13:24:22.999Z</time></trkpt><trkpt lat="38.489121312699915" lon="16.095936685439046"><ele>402.0</ele><time>2026-05-03T13:24:23.999Z</time></trkpt><trkpt lat="38.48919046862048" lon="16.095807255854254"><ele>399.25</ele><time>2026-05-03T13:24:24.999Z</time></trkpt><trkpt lat="38.48925402491329" lon="16.09567983828041"><ele>396.5</ele><time>2026-05-03T13:24:25.999Z</time></trkpt><trkpt lat="38.48934820650762" lon="16.09558658477435"><ele>393.75</ele><time>2026-05-03T13:24:26.999Z</time></trkpt><trkpt lat="38.48945836824047" lon="16.095516549522134"><ele>391.0</ele><time>2026-05-03T13:24:27.999Z</time></trkpt><trkpt lat="38.48958045782659" lon="16.095493450250025"><ele>391.4</ele><time>2026-05-03T13:24:28.999Z</time></trkpt><trkpt lat="38.48969045504792" lon="16.09545102050177"><ele>391.8</ele><time>2026-05-03T13:24:29.999Z</time></trkpt><trkpt lat="38.48980124007729" lon="16.09540586992957"><ele>392.2</ele><time>2026-05-03T13:24:30.999Z</time></trkpt><trkpt lat="38.489907604501596" lon="16.095381313143392"><ele>392.59999999999997</ele><time>2026-05-03T13:24:31.999Z</time></trkpt><trkpt lat="38.489997959445965" lon="16.095406573912634"><ele>393.0</ele><time>2026-05-03T13:24:32.999Z</time></trkpt><trkpt lat="38.49008791144498" lon="16.095500894324953"><ele>393.0</ele><time>2026-05-03T13:24:33.999Z</time></trkpt><trkpt lat="38.490164375906716" lon="16.095593165442672"><ele>393.0</ele><time>2026-05-03T13:24:34.999Z</time></trkpt><trkpt lat="38.490248821905546" lon="16.095620848349686"><ele>393.0</ele><time>2026-05-03T13:24:35.999Z</time></trkpt><trkpt lat="38.49033122400195" lon="16.095568365160016"><ele>393.0</ele><time>2026-05-03T13:24:36.999Z</time></trkpt><trkpt lat="38.49040561450111" lon="16.095458695805906"><ele>393.0</ele><time>2026-05-03T13:24:37.999Z</time></trkpt><trkpt lat="38.49045674837568" lon="16.095319616864955"><ele>394.0</ele><time>2026-05-03T13:24:38.999Z</time></trkpt><trkpt lat="38.490490591758935" lon="16.095175118786216"><ele>395.0</ele><time>2026-05-03T13:24:39.999Z</time></trkpt><trkpt lat="38.49053735623917" lon="16.09504247173019"><ele>396.0</ele><time>2026-05-03T13:24:40.999Z</time></trkpt><trkpt lat="38.49063548574231" lon="16.094918966602258"><ele>397.0</ele><time>2026-05-03T13:24:41.999Z</time></trkpt><trkpt lat="38.49076121656309" lon="16.094831941857148"><ele>390.33333333333337</ele><time>2026-05-03T13:24:42.999Z</time></trkpt><trkpt lat="38.49091753655219" lon="16.09476968439858"><ele>383.6666666666667</ele><time>2026-05-03T13:24:43.999Z</time></trkpt><trkpt lat="38.49105815727054" lon="16.094688979716587"><ele>377.0</ele><time>2026-05-03T13:24:44.999Z</time></trkpt><trkpt lat="38.4911861901447" lon="16.09460994068385"><ele>377.40000000000003</ele><time>2026-05-03T13:24:45.999Z</time></trkpt><trkpt lat="38.491285675803766" lon="16.094536349425333"><ele>377.8</ele><time>2026-05-03T13:24:46.999Z</time></trkpt><trkpt lat="38.49137800064841" lon="16.09448631746366"><ele>378.2</ele><time>2026-05-03T13:24:47.999Z</time></trkpt><trkpt lat="38.49148088138542" lon="16.094481391840013"><ele>378.6</ele><time>2026-05-03T13:24:48.999Z</time></trkpt><trkpt lat="38.49159775906034" lon="16.0944969691572"><ele>379.0</ele><time>2026-05-03T13:24:49.999Z</time></trkpt><trkpt lat="38.49172346147818" lon="16.094545567371224"><ele>379.0</ele><time>2026-05-03T13:24:50.999Z</time></trkpt><trkpt lat="38.49184668515333" lon="16.094575852104224"><ele>379.0</ele><time>2026-05-03T13:24:51.999Z</time></trkpt><trkpt lat="38.49196153384469" lon="16.094565351520448"><ele>379.0</ele><time>2026-05-03T13:24:52.999Z</time></trkpt><trkpt lat="38.4920900397281" lon="16.094497772128932"><ele>379.0</ele><time>2026-05-03T13:24:53.999Z</time></trkpt><trkpt lat="38.492216891114694" lon="16.09442171649634"><ele>379.0</ele><time>2026-05-03T13:24:54.999Z</time></trkpt><trkpt lat="38.492339952666676" lon="16.09435568486326"><ele>379.0</ele><time>2026-05-03T13:24:55.999Z</time></trkpt><trkpt lat="38.49246843640576" lon="16.094308428084148"><ele>379.0</ele><time>2026-05-03T13:24:56.999Z</time></trkpt><trkpt lat="38.492586866504475" lon="16.094254311666607"><ele>379.0</ele><time>2026-05-03T13:24:57.999Z</time></trkpt><trkpt lat="38.492721906340975" lon="16.09422656341616"><ele>379.0</ele><time>2026-05-03T13:24:58.999Z</time></trkpt><trkpt lat="38.49286206759599" lon="16.094222131105152"><ele>379.0</ele><time>2026-05-03T13:24:59.999Z</time></trkpt><trkpt lat="38.49300160424646" lon="16.094239324568836"><ele>379.0</ele><time>2026-05-03T13:25:00.999Z</time></trkpt><trkpt lat="38.49315399507459" lon="16.094228852394103"><ele>379.0</ele><time>2026-05-03T13:25:01.999Z</time></trkpt><trkpt lat="38.493280635626355" lon="16.094239317646817"><ele>378.5</ele><time>2026-05-03T13:25:02.999Z</time></trkpt><trkpt lat="38.493440592375286" lon="16.09421752267929"><ele>378.0</ele><time>2026-05-03T13:25:03.999Z</time></trkpt><trkpt lat="38.493598322992376" lon="16.094197108997047"><ele>377.5</ele><time>2026-05-03T13:25:04.999Z</time></trkpt><trkpt lat="38.493719674061836" lon="16.094157237608524"><ele>377.0</ele><time>2026-05-03T13:25:05.999Z</time></trkpt><trkpt lat="38.49385798986765" lon="16.094130696968467"><ele>375.5</ele><time>2026-05-03T13:25:06.999Z</time></trkpt><trkpt lat="38.49398649628132" lon="16.094105926971274"><ele>374.0</ele><time>2026-05-03T13:25:07.999Z</time></trkpt><trkpt lat="38.494099714036516" lon="16.094048906909826"><ele>372.5</ele><time>2026-05-03T13:25:08.999Z</time></trkpt><trkpt lat="38.49420697390354" lon="16.09394177443173"><ele>371.0</ele><time>2026-05-03T13:25:09.999Z</time></trkpt><trkpt lat="38.49431056230351" lon="16.09381134474008"><ele>369.25</ele><time>2026-05-03T13:25:10.999Z</time></trkpt><trkpt lat="38.49439981224433" lon="16.093660924316136"><ele>367.5</ele><time>2026-05-03T13:25:11.999Z</time></trkpt><trkpt lat="38.494496170232615" lon="16.09353547470067"><ele>365.75</ele><time>2026-05-03T13:25:12.999Z</time></trkpt><trkpt lat="38.4945416704846" lon="16.093362379467415"><ele>364.0</ele><time>2026-05-03T13:25:13.999Z</time></trkpt><trkpt lat="38.49458987417772" lon="16.09318526066369"><ele>362.5</ele><time>2026-05-03T13:25:14.999Z</time></trkpt><trkpt lat="38.49464488724368" lon="16.09301295213531"><ele>361.0</ele><time>2026-05-03T13:25:15.999Z</time></trkpt><trkpt lat="38.49467574329585" lon="16.09284619793786"><ele>359.5</ele><time>2026-05-03T13:25:16.999Z</time></trkpt><trkpt lat="38.49470697438989" lon="16.092676111535816"><ele>358.0</ele><time>2026-05-03T13:25:17.999Z</time></trkpt><trkpt lat="38.49473667935602" lon="16.092526981803513"><ele>357.0</ele><time>2026-05-03T13:25:18.999Z</time></trkpt><trkpt lat="38.494768139924304" lon="16.092408766209033"><ele>356.0</ele><time>2026-05-03T13:25:19.999Z</time></trkpt><trkpt lat="38.49479650575366" lon="16.092323521601564"><ele>355.0</ele><time>2026-05-03T13:25:20.999Z</time></trkpt><trkpt lat="38.4948588002005" lon="16.092279375914945"><ele>354.0</ele><time>2026-05-03T13:25:21.999Z</time></trkpt><trkpt lat="38.494949236376975" lon="16.092229904883347"><ele>353.0</ele><time>2026-05-03T13:25:22.999Z</time></trkpt><trkpt lat="38.49508488292604" lon="16.092261755866563"><ele>353.0</ele><time>2026-05-03T13:25:23.999Z</time></trkpt><trkpt lat="38.495226297603054" lon="16.09226411724911"><ele>353.0</ele><time>2026-05-03T13:25:24.999Z</time></trkpt><trkpt lat="38.495359518463495" lon="16.092257693002345"><ele>353.0</ele><time>2026-05-03T13:25:25.999Z</time></trkpt><trkpt lat="38.49546705426138" lon="16.09225044614648"><ele>353.0</ele><time>2026-05-03T13:25:26.999Z</time></trkpt><trkpt lat="38.49560072041494" lon="16.092211851563942"><ele>352.75</ele><time>2026-05-03T13:25:27.999Z</time></trkpt><trkpt lat="38.495730939478726" lon="16.092208899658303"><ele>352.5</ele><time>2026-05-03T13:25:28.999Z</time></trkpt><trkpt lat="38.49584844885993" lon="16.09217760316162"><ele>352.25</ele><time>2026-05-03T13:25:29.999Z</time></trkpt><trkpt lat="38.495958494960696" lon="16.0921429267439"><ele>352.0</ele><time>2026-05-03T13:25:30.999Z</time></trkpt><trkpt lat="38.49605787911446" lon="16.092111423787543"><ele>352.0</ele><time>2026-05-03T13:25:31.999Z</time></trkpt><trkpt lat="38.49615469348655" lon="16.092080834967973"><ele>352.0</ele><time>2026-05-03T13:25:32.999Z</time></trkpt><trkpt lat="38.496233475287504" lon="16.09201694824566"><ele>352.0</ele><time>2026-05-03T13:25:34Z</time></trkpt><trkpt lat="38.49631372591487" lon="16.09198164924009"><ele>352.0</ele><time>2026-05-03T13:25:35Z</time></trkpt><trkpt lat="38.49638140139906" lon="16.09194345159988"><ele>352.0</ele><time>2026-05-03T13:25:36Z</time></trkpt><trkpt lat="38.49646398951318" lon="16.091915150774998"><ele>352.0</ele><time>2026-05-03T13:25:38Z</time></trkpt><trkpt lat="38.49653104144818" lon="16.091873758717718"><ele>351.6</ele><time>2026-05-03T13:25:43Z</time></trkpt><trkpt lat="38.49654172632949" lon="16.091735453311827"><ele>351.20000000000005</ele><time>2026-05-03T13:26:58.999Z</time></trkpt><trkpt lat="38.49667022361605" lon="16.09175217986266"><ele>350.8</ele><time>2026-05-03T13:27:01Z</time></trkpt><trkpt lat="38.49674683401344" lon="16.09170268269199"><ele>350.4</ele><time>2026-05-03T13:27:02Z</time></trkpt><trkpt lat="38.496786384375504" lon="16.09159220414278"><ele>350.0</ele><time>2026-05-03T13:27:03Z</time></trkpt><trkpt lat="38.49684090760062" lon="16.091540611053063"><ele>349.6</ele><time>2026-05-03T13:27:04Z</time></trkpt><trkpt lat="38.496917763403204" lon="16.09145571158288"><ele>349.2</ele><time>2026-05-03T13:27:05Z</time></trkpt><trkpt lat="38.49701322041782" lon="16.09136107110139"><ele>348.79999999999995</ele><time>2026-05-03T13:27:06Z</time></trkpt><trkpt lat="38.497108438378426" lon="16.09123749627121"><ele>348.4</ele><time>2026-05-03T13:27:07Z</time></trkpt><trkpt lat="38.49717850598518" lon="16.0911733259415"><ele>348.0</ele><time>2026-05-03T13:27:08Z</time></trkpt><trkpt lat="38.49729833873283" lon="16.091134446702878"><ele>347.2</ele><time>2026-05-03T13:27:09Z</time></trkpt><trkpt lat="38.49734485840311" lon="16.09099336350815"><ele>346.4</ele><time>2026-05-03T13:27:10Z</time></trkpt><trkpt lat="38.497364736893644" lon="16.09084407315922"><ele>345.59999999999997</ele><time>2026-05-03T13:27:11Z</time></trkpt><trkpt lat="38.49737861350181" lon="16.0907064298824"><ele>344.79999999999995</ele><time>2026-05-03T13:27:12Z</time></trkpt><trkpt lat="38.497391598446164" lon="16.09058698985853"><ele>344.0</ele><time>2026-05-03T13:27:13Z</time></trkpt><trkpt lat="38.497403870858214" lon="16.090471556961827"><ele>343.6</ele><time>2026-05-03T13:27:14Z</time></trkpt><trkpt lat="38.49741388735251" lon="16.09036031149546"><ele>343.2</ele><time>2026-05-03T13:27:15Z</time></trkpt><trkpt lat="38.49739723684561" lon="16.09024609449961"><ele>342.8</ele><time>2026-05-03T13:27:16Z</time></trkpt><trkpt lat="38.4973687480468" lon="16.09013612058913"><ele>342.40000000000003</ele><time>2026-05-03T13:27:17Z</time></trkpt><trkpt lat="38.49733545002421" lon="16.090014494690948"><ele>342.0</ele><time>2026-05-03T13:27:18Z</time></trkpt><trkpt lat="38.497296999668684" lon="16.089890982543615"><ele>341.8</ele><time>2026-05-03T13:27:19Z</time></trkpt><trkpt lat="38.497258832350454" lon="16.089761332560926"><ele>341.6</ele><time>2026-05-03T13:27:20Z</time></trkpt><trkpt lat="38.49721888317579" lon="16.08964379258139"><ele>341.40000000000003</ele><time>2026-05-03T13:27:21Z</time></trkpt><trkpt lat="38.497202886467086" lon="16.089501983373655"><ele>341.20000000000005</ele><time>2026-05-03T13:27:22Z</time></trkpt><trkpt lat="38.497220378869194" lon="16.089359775274758"><ele>341.0</ele><time>2026-05-03T13:27:23Z</time></trkpt><trkpt lat="38.49722513367699" lon="16.089213998331815"><ele>341.0</ele><time>2026-05-03T13:27:24Z</time></trkpt><trkpt lat="38.497235169692765" lon="16.089072818779606"><ele>341.0</ele><time>2026-05-03T13:27:25Z</time></trkpt><trkpt lat="38.49724047227247" lon="16.0889398637895"><ele>341.0</ele><time>2026-05-03T13:27:26Z</time></trkpt><trkpt lat="38.49725181538351" lon="16.0888183376034"><ele>341.0</ele><time>2026-05-03T13:27:27Z</time></trkpt><trkpt lat="38.49725986897271" lon="16.088681927130043"><ele>341.0</ele><time>2026-05-03T13:27:28Z</time></trkpt><trkpt lat="38.49727106834944" lon="16.088537432033466"><ele>341.0</ele><time>2026-05-03T13:27:29Z</time></trkpt><trkpt lat="38.497282648395334" lon="16.08838687640543"><ele>341.0</ele><time>2026-05-03T13:27:30Z</time></trkpt><trkpt lat="38.49729957352963" lon="16.08823852312166"><ele>341.0</ele><time>2026-05-03T13:27:31Z</time></trkpt><trkpt lat="38.49731639396159" lon="16.088103915427908"><ele>341.0</ele><time>2026-05-03T13:27:32Z</time></trkpt><trkpt lat="38.49730847269486" lon="16.087970100200497"><ele>341.0</ele><time>2026-05-03T13:27:33Z</time></trkpt><trkpt lat="38.49728166947327" lon="16.08782211716175"><ele>340.0</ele><time>2026-05-03T13:27:34Z</time></trkpt><trkpt lat="38.49723091225031" lon="16.08769282883186"><ele>339.0</ele><time>2026-05-03T13:27:35Z</time></trkpt><trkpt lat="38.497150037136876" lon="16.087580178569468"><ele>338.0</ele><time>2026-05-03T13:27:36Z</time></trkpt><trkpt lat="38.497051147651575" lon="16.087487915643177"><ele>337.0</ele><time>2026-05-03T13:27:37Z</time></trkpt><trkpt lat="38.49693464343902" lon="16.087420933868856"><ele>331.75</ele><time>2026-05-03T13:27:38Z</time></trkpt><trkpt lat="38.496813832046584" lon="16.087364297994633"><ele>326.5</ele><time>2026-05-03T13:27:39Z</time></trkpt><trkpt lat="38.496688718054074" lon="16.087327244440598"><ele>321.25</ele><time>2026-05-03T13:27:40Z</time></trkpt><trkpt lat="38.49656039628375" lon="16.087259981281264"><ele>316.0</ele><time>2026-05-03T13:27:41Z</time></trkpt><trkpt lat="38.49642888441803" lon="16.087198817709996"><ele>316.0</ele><time>2026-05-03T13:27:42Z</time></trkpt><trkpt lat="38.49628895456609" lon="16.087142844995363"><ele>316.0</ele><time>2026-05-03T13:27:43Z</time></trkpt><trkpt lat="38.49616273596801" lon="16.08710841304772"><ele>316.0</ele><time>2026-05-03T13:27:44Z</time></trkpt><trkpt lat="38.49604272150141" lon="16.08708034735508"><ele>316.0</ele><time>2026-05-03T13:27:45Z</time></trkpt><trkpt lat="38.49591567065819" lon="16.087037427438503"><ele>318.5</ele><time>2026-05-03T13:27:46Z</time></trkpt><trkpt lat="38.49578744170137" lon="16.08697847135322"><ele>321.0</ele><time>2026-05-03T13:27:47Z</time></trkpt><trkpt lat="38.49565615455005" lon="16.086909160524762"><ele>323.5</ele><time>2026-05-03T13:27:48Z</time></trkpt><trkpt lat="38.49553870257521" lon="16.08684036059421"><ele>326.0</ele><time>2026-05-03T13:27:49Z</time></trkpt><trkpt lat="38.49543836137017" lon="16.086751079127225"><ele>327.75</ele><time>2026-05-03T13:27:50Z</time></trkpt><trkpt lat="38.495357634733814" lon="16.086640696967734"><ele>329.5</ele><time>2026-05-03T13:27:51Z</time></trkpt><trkpt lat="38.49531691785605" lon="16.086483027692623"><ele>331.25</ele><time>2026-05-03T13:27:52Z</time></trkpt><trkpt lat="38.49526823284977" lon="16.0863294489413"><ele>333.0</ele><time>2026-05-03T13:27:53Z</time></trkpt><trkpt lat="38.49523020476913" lon="16.086192500414043"><ele>328.25</ele><time>2026-05-03T13:27:54Z</time></trkpt><trkpt lat="38.49514440215189" lon="16.08607872747317"><ele>323.5</ele><time>2026-05-03T13:27:55Z</time></trkpt><trkpt lat="38.49502255365026" lon="16.085987623500348"><ele>318.75</ele><time>2026-05-03T13:27:56Z</time></trkpt><trkpt lat="38.49488168061774" lon="16.085917097875402"><ele>314.0</ele><time>2026-05-03T13:27:57Z</time></trkpt><trkpt lat="38.49473244342043" lon="16.085858813539986"><ele>310.33333333333337</ele><time>2026-05-03T13:27:58Z</time></trkpt><trkpt lat="38.49457920459818" lon="16.08580879203428"><ele>306.6666666666667</ele><time>2026-05-03T13:27:59Z</time></trkpt><trkpt lat="38.494425930622974" lon="16.08574408959627"><ele>303.0</ele><time>2026-05-03T13:28:00Z</time></trkpt><trkpt lat="38.49428886503442" lon="16.085660404753344"><ele>303.0</ele><time>2026-05-03T13:28:01Z</time></trkpt><trkpt lat="38.49416713147071" lon="16.085548316836267"><ele>303.0</ele><time>2026-05-03T13:28:02Z</time></trkpt><trkpt lat="38.494050706773166" lon="16.0854292219972"><ele>303.0</ele><time>2026-05-03T13:28:03Z</time></trkpt><trkpt lat="38.49393959887289" lon="16.085306512216466"><ele>303.0</ele><time>2026-05-03T13:28:04Z</time></trkpt><trkpt lat="38.49383735089384" lon="16.085189699949414"><ele>303.0</ele><time>2026-05-03T13:28:05Z</time></trkpt><trkpt lat="38.493749162974005" lon="16.0850647922572"><ele>303.0</ele><time>2026-05-03T13:28:06Z</time></trkpt><trkpt lat="38.49365701307086" lon="16.084948684629314"><ele>303.0</ele><time>2026-05-03T13:28:07Z</time></trkpt><trkpt lat="38.49357504630531" lon="16.084815093229068"><ele>303.0</ele><time>2026-05-03T13:28:08Z</time></trkpt><trkpt lat="38.49350141984323" lon="16.084664675465778"><ele>303.0</ele><time>2026-05-03T13:28:09Z</time></trkpt><trkpt lat="38.49342351277358" lon="16.084507162979513"><ele>303.0</ele><time>2026-05-03T13:28:10Z</time></trkpt><trkpt lat="38.49333180239965" lon="16.084373292612284"><ele>303.0</ele><time>2026-05-03T13:28:11Z</time></trkpt><trkpt lat="38.49324994868575" lon="16.084237144111487"><ele>303.0</ele><time>2026-05-03T13:28:12Z</time></trkpt><trkpt lat="38.493145577055806" lon="16.084110333501933"><ele>304.0</ele><time>2026-05-03T13:28:13Z</time></trkpt><trkpt lat="38.49302814729609" lon="16.084022597816585"><ele>305.0</ele><time>2026-05-03T13:28:14Z</time></trkpt><trkpt lat="38.49290452152283" lon="16.083956284943486"><ele>306.0</ele><time>2026-05-03T13:28:15Z</time></trkpt><trkpt lat="38.492803095569656" lon="16.083854240615736"><ele>307.0</ele><time>2026-05-03T13:28:16Z</time></trkpt><trkpt lat="38.49270960077568" lon="16.083728761802714"><ele>307.0</ele><time>2026-05-03T13:28:17Z</time></trkpt><trkpt lat="38.49261953763636" lon="16.08357428569557"><ele>307.0</ele><time>2026-05-03T13:28:18Z</time></trkpt><trkpt lat="38.492522313599935" lon="16.08340679939353"><ele>307.0</ele><time>2026-05-03T13:28:19Z</time></trkpt><trkpt lat="38.4924270269569" lon="16.083240253863824"><ele>301.75</ele><time>2026-05-03T13:28:20Z</time></trkpt><trkpt lat="38.49234088841968" lon="16.08307422696074"><ele>296.5</ele><time>2026-05-03T13:28:21Z</time></trkpt><trkpt lat="38.49226616988214" lon="16.08291860195323"><ele>291.25</ele><time>2026-05-03T13:28:22Z</time></trkpt><trkpt lat="38.492201478188655" lon="16.08277475049004"><ele>286.0</ele><time>2026-05-03T13:28:23Z</time></trkpt><trkpt lat="38.49213076326112" lon="16.08263539699714"><ele>286.0</ele><time>2026-05-03T13:28:24Z</time></trkpt><trkpt lat="38.4921066971956" lon="16.08247742033598"><ele>286.0</ele><time>2026-05-03T13:28:25Z</time></trkpt><trkpt lat="38.49193464080821" lon="16.082487221729476"><ele>286.0</ele><time>2026-05-03T13:28:26Z</time></trkpt><trkpt lat="38.49181603152465" lon="16.082520271392827"><ele>286.0</ele><time>2026-05-03T13:28:27Z</time></trkpt><trkpt lat="38.49170199686944" lon="16.08256950076977"><ele>287.2</ele><time>2026-05-03T13:28:28Z</time></trkpt><trkpt lat="38.49159246896099" lon="16.08261100349171"><ele>288.40000000000003</ele><time>2026-05-03T13:28:29Z</time></trkpt><trkpt lat="38.491485244195566" lon="16.082647445081424"><ele>289.6</ele><time>2026-05-03T13:28:30Z</time></trkpt><trkpt lat="38.491382544901725" lon="16.082669462789077"><ele>290.8</ele><time>2026-05-03T13:28:31Z</time></trkpt><trkpt lat="38.49128800127603" lon="16.082679202398158"><ele>292.0</ele><time>2026-05-03T13:28:32Z</time></trkpt><trkpt lat="38.49119537265331" lon="16.082702967430627"><ele>292.0</ele><time>2026-05-03T13:28:33Z</time></trkpt><trkpt lat="38.49109497092861" lon="16.08273771758258"><ele>292.0</ele><time>2026-05-03T13:28:34Z</time></trkpt><trkpt lat="38.490991607204506" lon="16.082824441860268"><ele>292.0</ele><time>2026-05-03T13:28:35Z</time></trkpt><trkpt lat="38.49088684723926" lon="16.082906127025673"><ele>292.0</ele><time>2026-05-03T13:28:36Z</time></trkpt><trkpt lat="38.490785211881715" lon="16.083009102663155"><ele>292.0</ele><time>2026-05-03T13:28:37Z</time></trkpt><trkpt lat="38.49068829854267" lon="16.08312584526678"><ele>292.0</ele><time>2026-05-03T13:28:38Z</time></trkpt><trkpt lat="38.49060054845353" lon="16.083254052726588"><ele>292.0</ele><time>2026-05-03T13:28:39Z</time></trkpt><trkpt lat="38.4905169718901" lon="16.083388793386195"><ele>292.0</ele><time>2026-05-03T13:28:40Z</time></trkpt><trkpt lat="38.490435115255586" lon="16.083515242569568"><ele>292.2</ele><time>2026-05-03T13:28:41Z</time></trkpt><trkpt lat="38.49034952597509" lon="16.083625704582527"><ele>292.4</ele><time>2026-05-03T13:28:42Z</time></trkpt><trkpt lat="38.49027601824686" lon="16.083729217939112"><ele>292.6</ele><time>2026-05-03T13:28:43Z</time></trkpt><trkpt lat="38.49020770299071" lon="16.083823624487945"><ele>292.8</ele><time>2026-05-03T13:28:44Z</time></trkpt><trkpt lat="38.49015004211602" lon="16.083929542531752"><ele>293.0</ele><time>2026-05-03T13:28:45Z</time></trkpt><trkpt lat="38.49008945229788" lon="16.084010578610197"><ele>293.0</ele><time>2026-05-03T13:28:46Z</time></trkpt><trkpt lat="38.49002322571442" lon="16.08407905279239"><ele>293.0</ele><time>2026-05-03T13:28:47Z</time></trkpt><trkpt lat="38.48993903278002" lon="16.08410547550243"><ele>293.0</ele><time>2026-05-03T13:28:48Z</time></trkpt><trkpt lat="38.48983652352403" lon="16.084078032584042"><ele>293.0</ele><time>2026-05-03T13:28:49Z</time></trkpt><trkpt lat="38.48974605795108" lon="16.084004236034133"><ele>293.0</ele><time>2026-05-03T13:28:50Z</time></trkpt><trkpt lat="38.489632988655025" lon="16.083949644384436"><ele>293.0</ele><time>2026-05-03T13:28:51Z</time></trkpt><trkpt lat="38.489568702158714" lon="16.08387779803012"><ele>293.0</ele><time>2026-05-03T13:28:52Z</time></trkpt><trkpt lat="38.489509820451715" lon="16.083829169581445"><ele>293.0</ele><time>2026-05-03T13:28:54Z</time></trkpt><trkpt lat="38.48958736492153" lon="16.08371345160284"><ele>293.0</ele><time>2026-05-03T13:28:55Z</time></trkpt><trkpt lat="38.48961449389188" lon="16.083623895218295"><ele>293.0</ele><time>2026-05-03T13:28:56Z</time></trkpt><trkpt lat="38.48963833094363" lon="16.083545206103633"><ele>293.0</ele><time>2026-05-03T13:28:57Z</time></trkpt><trkpt lat="38.489686658582684" lon="16.083385668763462"><ele>293.0</ele><time>2026-05-03T13:28:58.999Z</time></trkpt><trkpt lat="38.48972098466067" lon="16.0832833919383"><ele>293.0</ele><time>2026-05-03T13:28:59.999Z</time></trkpt><trkpt lat="38.48975485396058" lon="16.083174137903857"><ele>293.0</ele><time>2026-05-03T13:29:00.999Z</time></trkpt><trkpt lat="38.48977424274272" lon="16.08305502975129"><ele>293.0</ele><time>2026-05-03T13:29:01.999Z</time></trkpt><trkpt lat="38.48981329543453" lon="16.082940840471803"><ele>293.0</ele><time>2026-05-03T13:29:02.999Z</time></trkpt><trkpt lat="38.48985057718441" lon="16.08281921452337"><ele>291.8</ele><time>2026-05-03T13:29:03.999Z</time></trkpt><trkpt lat="38.48988858411501" lon="16.082694185053008"><ele>290.6</ele><time>2026-05-03T13:29:04.999Z</time></trkpt><trkpt lat="38.48993257606564" lon="16.082568305583198"><ele>289.4</ele><time>2026-05-03T13:29:05.999Z</time></trkpt><trkpt lat="38.48997373188178" lon="16.08244112810118"><ele>288.2</ele><time>2026-05-03T13:29:06.999Z</time></trkpt><trkpt lat="38.490017633745474" lon="16.082306782773525"><ele>287.0</ele><time>2026-05-03T13:29:07.999Z</time></trkpt><trkpt lat="38.49005191879142" lon="16.08216004429256"><ele>285.5</ele><time>2026-05-03T13:29:08.999Z</time></trkpt><trkpt lat="38.49009582346897" lon="16.082024939849017"><ele>284.0</ele><time>2026-05-03T13:29:09.999Z</time></trkpt><trkpt lat="38.490137541699674" lon="16.081891876295483"><ele>282.5</ele><time>2026-05-03T13:29:10.999Z</time></trkpt><trkpt lat="38.490178247782275" lon="16.081758807512937"><ele>281.0</ele><time>2026-05-03T13:29:11.999Z</time></trkpt><trkpt lat="38.49023585894263" lon="16.081629836545076"><ele>281.0</ele><time>2026-05-03T13:29:12.999Z</time></trkpt><trkpt lat="38.49027817902526" lon="16.081496209021513"><ele>281.0</ele><time>2026-05-03T13:29:13.999Z</time></trkpt><trkpt lat="38.49030021823198" lon="16.08135900326373"><ele>281.0</ele><time>2026-05-03T13:29:14.999Z</time></trkpt><trkpt lat="38.4903569057506" lon="16.081231032919245"><ele>281.0</ele><time>2026-05-03T13:29:15.999Z</time></trkpt><trkpt lat="38.490397306528756" lon="16.08110349190891"><ele>281.0</ele><time>2026-05-03T13:29:16.999Z</time></trkpt><trkpt lat="38.49042595167502" lon="16.080982621905502"><ele>281.0</ele><time>2026-05-03T13:29:18Z</time></trkpt><trkpt lat="38.49046927580445" lon="16.080870297731025"><ele>281.0</ele><time>2026-05-03T13:29:19Z</time></trkpt><trkpt lat="38.490508677570006" lon="16.080770025869725"><ele>281.0</ele><time>2026-05-03T13:29:20Z</time></trkpt><trkpt lat="38.49054249523238" lon="16.08069177566442"><ele>281.0</ele><time>2026-05-03T13:29:21Z</time></trkpt><trkpt lat="38.49058255752306" lon="16.080594931677776"><ele>281.0</ele><time>2026-05-03T13:29:23Z</time></trkpt><trkpt lat="38.4904772401446" lon="16.080505049377948"><ele>279.0</ele><time>2026-05-03T13:29:28Z</time></trkpt><trkpt lat="38.49039440469027" lon="16.08049984166578"><ele>277.0</ele><time>2026-05-03T13:29:30Z</time></trkpt><trkpt lat="38.490296484536415" lon="16.080530299054654"><ele>275.0</ele><time>2026-05-03T13:29:33Z</time></trkpt><trkpt lat="38.49022218050092" lon="16.08052213067854"><ele>273.0</ele><time>2026-05-03T13:29:35Z</time></trkpt><trkpt lat="38.49014573608945" lon="16.08052851883935"><ele>271.0</ele><time>2026-05-03T13:29:37Z</time></trkpt><trkpt lat="38.49006225023041" lon="16.080541129518064"><ele>269.0</ele><time>2026-05-03T13:29:39Z</time></trkpt><trkpt lat="38.48996844291048" lon="16.080547525002928"><ele>269.0</ele><time>2026-05-03T13:29:41Z</time></trkpt><trkpt lat="38.489876981006155" lon="16.080566711014633"><ele>269.0</ele><time>2026-05-03T13:29:43Z</time></trkpt><trkpt lat="38.48978255900782" lon="16.080571664113002"><ele>269.0</ele><time>2026-05-03T13:29:45Z</time></trkpt><trkpt lat="38.48966351264444" lon="16.080582700314903"><ele>269.0</ele><time>2026-05-03T13:29:47Z</time></trkpt><trkpt lat="38.48959829694633" lon="16.080592658281194"><ele>269.0</ele><time>2026-05-03T13:29:48Z</time></trkpt><trkpt lat="38.4895339439813" lon="16.08060136966032"><ele>269.0</ele><time>2026-05-03T13:29:49Z</time></trkpt><trkpt lat="38.48946522765213" lon="16.080601974120235"><ele>264.0</ele><time>2026-05-03T13:29:50Z</time></trkpt><trkpt lat="38.48939513186004" lon="16.08060739839289"><ele>264.0</ele><time>2026-05-03T13:29:51Z</time></trkpt><trkpt lat="38.48927212934743" lon="16.080607832912154"><ele>264.0</ele><time>2026-05-03T13:29:53Z</time></trkpt><trkpt lat="38.48919018968675" lon="16.080625132978444"><ele>264.0</ele><time>2026-05-03T13:29:55Z</time></trkpt><trkpt lat="38.489121275028566" lon="16.08063186157578"><ele>264.0</ele><time>2026-05-03T13:29:58Z</time></trkpt><trkpt lat="38.489121275028566" lon="16.08063186157578"><ele>264.0</ele><time>2026-05-03T13:29:58Z</time></trkpt><trkpt lat="38.489121275028566" lon="16.08063186157578"><ele>264.0</ele><time>2026-05-03T13:29:58Z</time></trkpt><trkpt lat="38.489121275028566" lon="16.08063186157578"><ele>264.0</ele><time>2026-05-03T13:29:58Z</time></trkpt><trkpt lat="38.489121275028566" lon="16.08063186157578"><ele>264.0</ele><time>2026-05-03T13:29:58Z</time></trkpt><trkpt lat="38.489121275028566" lon="16.08063186157578"><ele>264.0</ele><time>2026-05-03T13:29:58Z</time></trkpt><trkpt lat="38.489121275028566" lon="16.08063186157578"><ele>264.0</ele><time>2026-05-03T13:29:58Z</time></trkpt></trkseg><trkseg><trkpt lat="38.488982607580525" lon="16.080697165621615"><ele>264.0</ele><time>2026-05-03T13:45:54Z</time></trkpt><trkpt lat="38.488912167769165" lon="16.080695258690664"><ele>264.0</ele><time>2026-05-03T13:45:58Z</time></trkpt><trkpt lat="38.48881462482028" lon="16.08068726330336"><ele>264.0</ele><time>2026-05-03T13:46:01Z</time></trkpt><trkpt lat="38.488743539894465" lon="16.08068880751572"><ele>264.0</ele><time>2026-05-03T13:46:03Z</time></trkpt><trkpt lat="38.488659497401486" lon="16.080659276936586"><ele>264.0</ele><time>2026-05-03T13:46:05Z</time></trkpt><trkpt lat="38.48859277017839" lon="16.08061072138565"><ele>264.0</ele><time>2026-05-03T13:46:08Z</time></trkpt><trkpt lat="38.48856652332776" lon="16.080535474423115"><ele>263.0</ele><time>2026-05-03T13:46:10Z</time></trkpt><trkpt lat="38.48855079436763" lon="16.080442538856413"><ele>262.0</ele><time>2026-05-03T13:46:12Z</time></trkpt><trkpt lat="38.48854307043187" lon="16.080316271897992"><ele>261.0</ele><time>2026-05-03T13:46:14Z</time></trkpt><trkpt lat="38.488554786436644" lon="16.080169333616183"><ele>260.0</ele><time>2026-05-03T13:46:16Z</time></trkpt><trkpt lat="38.48857924692241" lon="16.080094811472318"><ele>259.0</ele><time>2026-05-03T13:46:17Z</time></trkpt><trkpt lat="38.48866081836987" lon="16.079998220230575"><ele>259.0</ele><time>2026-05-03T13:46:19Z</time></trkpt><trkpt lat="38.48871553015379" lon="16.07992332091153"><ele>259.0</ele><time>2026-05-03T13:46:20Z</time></trkpt><trkpt lat="38.48877088682947" lon="16.07984657409755"><ele>259.0</ele><time>2026-05-03T13:46:21Z</time></trkpt><trkpt lat="38.48882442836822" lon="16.07977207515457"><ele>259.0</ele><time>2026-05-03T13:46:22Z</time></trkpt><trkpt lat="38.4888793960714" lon="16.0796993786014"><ele>259.0</ele><time>2026-05-03T13:46:23Z</time></trkpt><trkpt lat="38.48893044595418" lon="16.0796205847827"><ele>259.0</ele><time>2026-05-03T13:46:24Z</time></trkpt><trkpt lat="38.48898146498241" lon="16.07954743716742"><ele>259.0</ele><time>2026-05-03T13:46:25Z</time></trkpt><trkpt lat="38.48904181381296" lon="16.07946150572722"><ele>259.0</ele><time>2026-05-03T13:46:26Z</time></trkpt><trkpt lat="38.48910185214026" lon="16.079381564866683"><ele>259.0</ele><time>2026-05-03T13:46:27Z</time></trkpt><trkpt lat="38.48916820887835" lon="16.079293791509517"><ele>259.0</ele><time>2026-05-03T13:46:28Z</time></trkpt><trkpt lat="38.48922950437362" lon="16.079203443206044"><ele>259.0</ele><time>2026-05-03T13:46:29Z</time></trkpt><trkpt lat="38.489297319094334" lon="16.079127603960682"><ele>258.2</ele><time>2026-05-03T13:46:30Z</time></trkpt><trkpt lat="38.48937709704704" lon="16.079037808256572"><ele>257.4</ele><time>2026-05-03T13:46:31Z</time></trkpt><trkpt lat="38.489440099713526" lon="16.07893264344148"><ele>256.6</ele><time>2026-05-03T13:46:32Z</time></trkpt><trkpt lat="38.48952093618843" lon="16.078878079019912"><ele>255.8</ele><time>2026-05-03T13:46:33Z</time></trkpt><trkpt lat="38.48958305234752" lon="16.078791389987558"><ele>255.0</ele><time>2026-05-03T13:46:34Z</time></trkpt><trkpt lat="38.48965999790662" lon="16.07871545202831"><ele>255.0</ele><time>2026-05-03T13:46:35Z</time></trkpt><trkpt lat="38.489714242897975" lon="16.0786308700608"><ele>255.0</ele><time>2026-05-03T13:46:36Z</time></trkpt><trkpt lat="38.48978033417681" lon="16.078546331415303"><ele>255.0</ele><time>2026-05-03T13:46:37Z</time></trkpt><trkpt lat="38.48985072459447" lon="16.078469809167448"><ele>255.0</ele><time>2026-05-03T13:46:38Z</time></trkpt><trkpt lat="38.48992271555224" lon="16.078390587432395"><ele>255.0</ele><time>2026-05-03T13:46:39Z</time></trkpt><trkpt lat="38.48997847724618" lon="16.078259188157652"><ele>253.0</ele><time>2026-05-03T13:46:40Z</time></trkpt><trkpt lat="38.49004275046891" lon="16.078172911260978"><ele>251.0</ele><time>2026-05-03T13:46:41Z</time></trkpt><trkpt lat="38.490114509615175" lon="16.078077520803483"><ele>249.0</ele><time>2026-05-03T13:46:42Z</time></trkpt><trkpt lat="38.49019304059027" lon="16.07798977914167"><ele>247.0</ele><time>2026-05-03T13:46:43Z</time></trkpt><trkpt lat="38.49025976438176" lon="16.077905904000175"><ele>245.0</ele><time>2026-05-03T13:46:44Z</time></trkpt><trkpt lat="38.49032035508689" lon="16.077814928084244"><ele>245.00000000000003</ele><time>2026-05-03T13:46:45Z</time></trkpt><trkpt lat="38.490375992056016" lon="16.077729297616287"><ele>245.0</ele><time>2026-05-03T13:46:46Z</time></trkpt><trkpt lat="38.49041281430454" lon="16.077644915705974"><ele>245.0</ele><time>2026-05-03T13:46:47Z</time></trkpt><trkpt lat="38.490438685087234" lon="16.077529588887483"><ele>245.0</ele><time>2026-05-03T13:46:48Z</time></trkpt><trkpt lat="38.49047961573342" lon="16.077423549957768"><ele>245.00000000000003</ele><time>2026-05-03T13:46:49Z</time></trkpt><trkpt lat="38.49053073075723" lon="16.077340114621297"><ele>245.0</ele><time>2026-05-03T13:46:50Z</time></trkpt><trkpt lat="38.49058498194215" lon="16.077270419027798"><ele>243.50000000000003</ele><time>2026-05-03T13:46:51Z</time></trkpt><trkpt lat="38.49064355807146" lon="16.07721435234822"><ele>242.0</ele><time>2026-05-03T13:46:52Z</time></trkpt><trkpt lat="38.490717661916904" lon="16.0771774731973"><ele>240.5</ele><time>2026-05-03T13:46:53Z</time></trkpt><trkpt lat="38.49077925810266" lon="16.077135054721843"><ele>239.0</ele><time>2026-05-03T13:46:54Z</time></trkpt><trkpt lat="38.49083215960453" lon="16.077070725863273"><ele>237.50000000000003</ele><time>2026-05-03T13:46:55Z</time></trkpt><trkpt lat="38.490837520933155" lon="16.076955497638235"><ele>236.0</ele><time>2026-05-03T13:46:57Z</time></trkpt><trkpt lat="38.49076301653662" lon="16.076878189202276"><ele>236.00000000000003</ele><time>2026-05-03T13:46:58Z</time></trkpt><trkpt lat="38.490692476806366" lon="16.076816793807335"><ele>236.0</ele><time>2026-05-03T13:46:59Z</time></trkpt><trkpt lat="38.490607933041126" lon="16.07678463769896"><ele>236.0</ele><time>2026-05-03T13:47:00Z</time></trkpt><trkpt lat="38.49052015196029" lon="16.07675963236625"><ele>236.0</ele><time>2026-05-03T13:47:01Z</time></trkpt><trkpt lat="38.49044026861502" lon="16.076698631346108"><ele>236.00000000000003</ele><time>2026-05-03T13:47:02Z</time></trkpt><trkpt lat="38.490355918300295" lon="16.076658307190712"><ele>236.0</ele><time>2026-05-03T13:47:03Z</time></trkpt><trkpt lat="38.490331060033505" lon="16.076473968629667"><ele>235.4</ele><time>2026-05-03T13:47:04Z</time></trkpt><trkpt lat="38.490258738276346" lon="16.076371764107158"><ele>234.8</ele><time>2026-05-03T13:47:05Z</time></trkpt><trkpt lat="38.49020482768963" lon="16.076248036164465"><ele>234.20000000000002</ele><time>2026-05-03T13:47:06Z</time></trkpt><trkpt lat="38.49014726809691" lon="16.076133082316275"><ele>233.60000000000002</ele><time>2026-05-03T13:47:07Z</time></trkpt><trkpt lat="38.4900888345172" lon="16.076016700931675"><ele>233.0</ele><time>2026-05-03T13:47:08Z</time></trkpt><trkpt lat="38.49003772769831" lon="16.075904809640804"><ele>233.0</ele><time>2026-05-03T13:47:09Z</time></trkpt><trkpt lat="38.48998637831112" lon="16.075791914469995"><ele>233.0</ele><time>2026-05-03T13:47:10Z</time></trkpt><trkpt lat="38.489938916488306" lon="16.07567918561048"><ele>233.0</ele><time>2026-05-03T13:47:11Z</time></trkpt><trkpt lat="38.48988060634122" lon="16.075585763512308"><ele>233.0</ele><time>2026-05-03T13:47:12Z</time></trkpt><trkpt lat="38.4898259272859" lon="16.075493185696153"><ele>233.0</ele><time>2026-05-03T13:47:13Z</time></trkpt><trkpt lat="38.48975817263042" lon="16.07540683342917"><ele>232.33333333333334</ele><time>2026-05-03T13:47:14Z</time></trkpt><trkpt lat="38.489709201086285" lon="16.075313729019875"><ele>231.66666666666669</ele><time>2026-05-03T13:47:15Z</time></trkpt><trkpt lat="38.48963689849819" lon="16.075233044414656"><ele>231.0</ele><time>2026-05-03T13:47:16Z</time></trkpt><trkpt lat="38.48957575122111" lon="16.07516448269676"><ele>230.33333333333331</ele><time>2026-05-03T13:47:17Z</time></trkpt><trkpt lat="38.48950151489292" lon="16.075090327716065"><ele>229.66666666666666</ele><time>2026-05-03T13:47:18Z</time></trkpt><trkpt lat="38.489441898843964" lon="16.075019675125702"><ele>229.0</ele><time>2026-05-03T13:47:19Z</time></trkpt><trkpt lat="38.4893764908234" lon="16.0749563362289"><ele>227.6</ele><time>2026-05-03T13:47:20Z</time></trkpt><trkpt lat="38.48931339259414" lon="16.074887475964434"><ele>226.2</ele><time>2026-05-03T13:47:21Z</time></trkpt><trkpt lat="38.48923905095633" lon="16.074809055964064"><ele>224.79999999999998</ele><time>2026-05-03T13:47:22Z</time></trkpt><trkpt lat="38.48916103706278" lon="16.074750419497036"><ele>223.39999999999998</ele><time>2026-05-03T13:47:23Z</time></trkpt><trkpt lat="38.48906839637281" lon="16.07469723259154"><ele>222.0</ele><time>2026-05-03T13:47:24Z</time></trkpt><trkpt lat="38.48897806381123" lon="16.074656814262326"><ele>222.0</ele><time>2026-05-03T13:47:25Z</time></trkpt><trkpt lat="38.48888153168779" lon="16.074609123827"><ele>222.0</ele><time>2026-05-03T13:47:26Z</time></trkpt><trkpt lat="38.48878128471758" lon="16.074552978779455"><ele>222.0</ele><time>2026-05-03T13:47:27Z</time></trkpt><trkpt lat="38.488667790796555" lon="16.074501436370443"><ele>222.0</ele><time>2026-05-03T13:47:28Z</time></trkpt><trkpt lat="38.48855712654865" lon="16.07445269855729"><ele>220.0</ele><time>2026-05-03T13:47:29Z</time></trkpt><trkpt lat="38.48844365511173" lon="16.074402164659038"><ele>218.0</ele><time>2026-05-03T13:47:30Z</time></trkpt><trkpt lat="38.4883273778157" lon="16.074366119395375"><ele>216.0</ele><time>2026-05-03T13:47:31Z</time></trkpt><trkpt lat="38.48820676233269" lon="16.074334950510096"><ele>214.0</ele><time>2026-05-03T13:47:32Z</time></trkpt><trkpt lat="38.48808155374561" lon="16.074316724656452"><ele>214.0</ele><time>2026-05-03T13:47:33Z</time></trkpt><trkpt lat="38.48796220264338" lon="16.074316658437024"><ele>214.0</ele><time>2026-05-03T13:47:34Z</time></trkpt><trkpt lat="38.487847894399366" lon="16.074317120563844"><ele>214.0</ele><time>2026-05-03T13:47:35Z</time></trkpt><trkpt lat="38.48772578033375" lon="16.074277393227984"><ele>214.0</ele><time>2026-05-03T13:47:36Z</time></trkpt><trkpt lat="38.48760531509233" lon="16.074225135222942"><ele>213.0</ele><time>2026-05-03T13:47:37Z</time></trkpt><trkpt lat="38.487495906685304" lon="16.074148849992014"><ele>212.0</ele><time>2026-05-03T13:47:38Z</time></trkpt><trkpt lat="38.487399620626924" lon="16.074049471907017"><ele>211.0</ele><time>2026-05-03T13:47:39Z</time></trkpt><trkpt lat="38.4873129076735" lon="16.073944693814784"><ele>210.0</ele><time>2026-05-03T13:47:40Z</time></trkpt><trkpt lat="38.48727028018691" lon="16.07380520916048"><ele>210.0</ele><time>2026-05-03T13:47:41Z</time></trkpt><trkpt lat="38.48723141463966" lon="16.073652160625304"><ele>210.0</ele><time>2026-05-03T13:47:42Z</time></trkpt><trkpt lat="38.487183983743485" lon="16.073499695725527"><ele>210.0</ele><time>2026-05-03T13:47:43Z</time></trkpt><trkpt lat="38.487171656069606" lon="16.073332653897342"><ele>210.0</ele><time>2026-05-03T13:47:44Z</time></trkpt><trkpt lat="38.48715329456919" lon="16.07316464258916"><ele>207.5</ele><time>2026-05-03T13:47:45Z</time></trkpt><trkpt lat="38.487140866399564" lon="16.072997084782845"><ele>205.0</ele><time>2026-05-03T13:47:46Z</time></trkpt><trkpt lat="38.48713787569268" lon="16.07282162188957"><ele>202.5</ele><time>2026-05-03T13:47:47Z</time></trkpt><trkpt lat="38.4871479201259" lon="16.072643627622888"><ele>200.0</ele><time>2026-05-03T13:47:48Z</time></trkpt><trkpt lat="38.48715677392113" lon="16.072462330473268"><ele>198.75</ele><time>2026-05-03T13:47:49Z</time></trkpt><trkpt lat="38.48714927635543" lon="16.072280070870534"><ele>197.5</ele><time>2026-05-03T13:47:50Z</time></trkpt><trkpt lat="38.487118457367984" lon="16.07209687452743"><ele>196.25</ele><time>2026-05-03T13:47:51Z</time></trkpt><trkpt lat="38.48707323716942" lon="16.071921146954523"><ele>195.0</ele><time>2026-05-03T13:47:52Z</time></trkpt><trkpt lat="38.487042899069365" lon="16.0717406600061"><ele>194.0</ele><time>2026-05-03T13:47:53Z</time></trkpt><trkpt lat="38.48703452477025" lon="16.07157418670717"><ele>193.0</ele><time>2026-05-03T13:47:54Z</time></trkpt><trkpt lat="38.48705321496202" lon="16.071399823783832"><ele>192.0</ele><time>2026-05-03T13:47:55Z</time></trkpt><trkpt lat="38.48708412607452" lon="16.071231151569155"><ele>191.0</ele><time>2026-05-03T13:47:56Z</time></trkpt><trkpt lat="38.48710876274787" lon="16.071072345834413"><ele>191.0</ele><time>2026-05-03T13:47:56.999Z</time></trkpt><trkpt lat="38.48711119830338" lon="16.070905936292604"><ele>191.0</ele><time>2026-05-03T13:47:57.999Z</time></trkpt><trkpt lat="38.48707675636802" lon="16.070763136664144"><ele>191.0</ele><time>2026-05-03T13:47:58.999Z</time></trkpt><trkpt lat="38.48698101704021" lon="16.070636423722938"><ele>191.0</ele><time>2026-05-03T13:47:59.999Z</time></trkpt><trkpt lat="38.48688647675645" lon="16.07050617375722"><ele>190.75</ele><time>2026-05-03T13:48:00.999Z</time></trkpt><trkpt lat="38.48678676897416" lon="16.070376621971697"><ele>190.5</ele><time>2026-05-03T13:48:01.999Z</time></trkpt><trkpt lat="38.48670423519447" lon="16.070228005600036"><ele>190.25</ele><time>2026-05-03T13:48:02.999Z</time></trkpt><trkpt lat="38.486612636483855" lon="16.070101017178526"><ele>190.0</ele><time>2026-05-03T13:48:03.999Z</time></trkpt><trkpt lat="38.4865300702499" lon="16.069976945597336"><ele>188.75</ele><time>2026-05-03T13:48:04.999Z</time></trkpt><trkpt lat="38.4864604658728" lon="16.06986384863003"><ele>187.5</ele><time>2026-05-03T13:48:05.999Z</time></trkpt><trkpt lat="38.48644510735634" lon="16.06972491767516"><ele>186.25</ele><time>2026-05-03T13:48:06.999Z</time></trkpt><trkpt lat="38.48649127433566" lon="16.069566086641228"><ele>185.0</ele><time>2026-05-03T13:48:07.999Z</time></trkpt><trkpt lat="38.48653617509065" lon="16.069444204310436"><ele>185.0</ele><time>2026-05-03T13:48:08.999Z</time></trkpt><trkpt lat="38.48659380335354" lon="16.069272125016617"><ele>185.0</ele><time>2026-05-03T13:48:09.999Z</time></trkpt><trkpt lat="38.48661784331505" lon="16.069098591573344"><ele>185.0</ele><time>2026-05-03T13:48:10.999Z</time></trkpt><trkpt lat="38.48661122241068" lon="16.068919817626668"><ele>185.0</ele><time>2026-05-03T13:48:11.999Z</time></trkpt><trkpt lat="38.48658819440686" lon="16.06875005495941"><ele>184.25</ele><time>2026-05-03T13:48:12.999Z</time></trkpt><trkpt lat="38.48654153063076" lon="16.0685948760467"><ele>183.5</ele><time>2026-05-03T13:48:13.999Z</time></trkpt><trkpt lat="38.486463978552756" lon="16.068450664771834"><ele>182.75</ele><time>2026-05-03T13:48:14.999Z</time></trkpt><trkpt lat="38.486359975161214" lon="16.068332425013217"><ele>182.0</ele><time>2026-05-03T13:48:15.999Z</time></trkpt><trkpt lat="38.48625008666719" lon="16.06821485942386"><ele>182.0</ele><time>2026-05-03T13:48:16.999Z</time></trkpt><trkpt lat="38.486148326426076" lon="16.06812089074795"><ele>182.0</ele><time>2026-05-03T13:48:17.999Z</time></trkpt><trkpt lat="38.48606636193702" lon="16.067998637674723"><ele>182.0</ele><time>2026-05-03T13:48:18.999Z</time></trkpt><trkpt lat="38.48597964428604" lon="16.06787823251568"><ele>182.0</ele><time>2026-05-03T13:48:19.999Z</time></trkpt><trkpt lat="38.48590106414055" lon="16.067748593822763"><ele>182.0</ele><time>2026-05-03T13:48:20.999Z</time></trkpt><trkpt lat="38.48583867532626" lon="16.06759864517414"><ele>182.0</ele><time>2026-05-03T13:48:21.999Z</time></trkpt><trkpt lat="38.48577547685848" lon="16.067433476502814"><ele>182.0</ele><time>2026-05-03T13:48:22.999Z</time></trkpt><trkpt lat="38.48568872820372" lon="16.0672621555154"><ele>182.0</ele><time>2026-05-03T13:48:23.999Z</time></trkpt><trkpt lat="38.48562541329221" lon="16.067081230036976"><ele>179.0</ele><time>2026-05-03T13:48:24.999Z</time></trkpt><trkpt lat="38.485552415254524" lon="16.066896868363298"><ele>176.0</ele><time>2026-05-03T13:48:25.999Z</time></trkpt><trkpt lat="38.48548921652519" lon="16.066715998115626"><ele>173.0</ele><time>2026-05-03T13:48:26.999Z</time></trkpt><trkpt lat="38.48542176336049" lon="16.066547245752137"><ele>172.5</ele><time>2026-05-03T13:48:27.999Z</time></trkpt><trkpt lat="38.48534248075307" lon="16.06639418837969"><ele>172.0</ele><time>2026-05-03T13:48:28.999Z</time></trkpt><trkpt lat="38.4852734903593" lon="16.066248140307366"><ele>171.5</ele><time>2026-05-03T13:48:29.999Z</time></trkpt><trkpt lat="38.48518315422186" lon="16.06611382171728"><ele>171.0</ele><time>2026-05-03T13:48:30.999Z</time></trkpt><trkpt lat="38.485070988146596" lon="16.065992627317883"><ele>171.0</ele><time>2026-05-03T13:48:31.999Z</time></trkpt><trkpt lat="38.48493068441178" lon="16.06587678348685"><ele>171.0</ele><time>2026-05-03T13:48:32.999Z</time></trkpt><trkpt lat="38.48479441247315" lon="16.065760655949"><ele>171.0</ele><time>2026-05-03T13:48:33.999Z</time></trkpt><trkpt lat="38.48465005689173" lon="16.06562453637379"><ele>166.33333333333334</ele><time>2026-05-03T13:48:34.999Z</time></trkpt><trkpt lat="38.484518955583816" lon="16.065458903136797"><ele>161.66666666666669</ele><time>2026-05-03T13:48:35.999Z</time></trkpt><trkpt lat="38.4843877272914" lon="16.06527830187879"><ele>157.0</ele><time>2026-05-03T13:48:36.999Z</time></trkpt><trkpt lat="38.48425438990691" lon="16.065093539474436"><ele>157.66666666666669</ele><time>2026-05-03T13:48:37.999Z</time></trkpt><trkpt lat="38.48412358718594" lon="16.064908352072067"><ele>158.33333333333334</ele><time>2026-05-03T13:48:38.999Z</time></trkpt><trkpt lat="38.4840138918317" lon="16.06470890001408"><ele>159.0</ele><time>2026-05-03T13:48:39.999Z</time></trkpt><trkpt lat="38.483886064114294" lon="16.06452727237918"><ele>162.66666666666666</ele><time>2026-05-03T13:48:40.999Z</time></trkpt><trkpt lat="38.48375159904947" lon="16.06436267481615"><ele>166.33333333333331</ele><time>2026-05-03T13:48:41.999Z</time></trkpt><trkpt lat="38.48363118450666" lon="16.06418141245947"><ele>170.0</ele><time>2026-05-03T13:48:42.999Z</time></trkpt><trkpt lat="38.483533633210214" lon="16.06398270889668"><ele>170.0</ele><time>2026-05-03T13:48:43.999Z</time></trkpt><trkpt lat="38.48343512282623" lon="16.063795998903444"><ele>170.0</ele><time>2026-05-03T13:48:44.999Z</time></trkpt><trkpt lat="38.483353671752994" lon="16.063596890613407"><ele>170.0</ele><time>2026-05-03T13:48:45.999Z</time></trkpt><trkpt lat="38.483291927472855" lon="16.063381405190412"><ele>167.0</ele><time>2026-05-03T13:48:46.999Z</time></trkpt><trkpt lat="38.4832450356425" lon="16.06317003714716"><ele>164.0</ele><time>2026-05-03T13:48:47.999Z</time></trkpt><trkpt lat="38.48320299344516" lon="16.06295491338761"><ele>161.0</ele><time>2026-05-03T13:48:48.999Z</time></trkpt><trkpt lat="38.483149151331595" lon="16.062742628457926"><ele>161.0</ele><time>2026-05-03T13:48:49.999Z</time></trkpt><trkpt lat="38.483117103380145" lon="16.062520716225453"><ele>161.0</ele><time>2026-05-03T13:48:50.999Z</time></trkpt><trkpt lat="38.483091483984595" lon="16.062298162079948"><ele>161.0</ele><time>2026-05-03T13:48:51.999Z</time></trkpt><trkpt lat="38.483064636672815" lon="16.06206077051872"><ele>161.0</ele><time>2026-05-03T13:48:52.999Z</time></trkpt><trkpt lat="38.48304072530287" lon="16.06182226042093"><ele>161.0</ele><time>2026-05-03T13:48:53.999Z</time></trkpt><trkpt lat="38.48301585368275" lon="16.06157412823686"><ele>161.0</ele><time>2026-05-03T13:48:54.999Z</time></trkpt><trkpt lat="38.48298995382011" lon="16.061334494796775"><ele>161.66666666666666</ele><time>2026-05-03T13:48:55.999Z</time></trkpt><trkpt lat="38.48296093572663" lon="16.06109191543076"><ele>162.33333333333334</ele><time>2026-05-03T13:48:56.999Z</time></trkpt><trkpt lat="38.48292988382659" lon="16.060843356754535"><ele>163.0</ele><time>2026-05-03T13:48:57.999Z</time></trkpt><trkpt lat="38.48289839750938" lon="16.060603253961986"><ele>163.33333333333334</ele><time>2026-05-03T13:48:58.999Z</time></trkpt><trkpt lat="38.482861587392364" lon="16.060367520934715"><ele>163.66666666666666</ele><time>2026-05-03T13:48:59.999Z</time></trkpt><trkpt lat="38.482831015460775" lon="16.06015667279782"><ele>164.0</ele><time>2026-05-03T13:49:00.999Z</time></trkpt><trkpt lat="38.48281452815516" lon="16.059913043704032"><ele>163.0</ele><time>2026-05-03T13:49:01.999Z</time></trkpt><trkpt lat="38.48280812560602" lon="16.059674704511558"><ele>162.0</ele><time>2026-05-03T13:49:02.999Z</time></trkpt><trkpt lat="38.48280654213255" lon="16.05943367525526"><ele>161.0</ele><time>2026-05-03T13:49:03.999Z</time></trkpt><trkpt lat="38.48279762658509" lon="16.05919042252131"><ele>160.0</ele><time>2026-05-03T13:49:04.999Z</time></trkpt><trkpt lat="38.482801721009295" lon="16.058960816101433"><ele>159.0</ele><time>2026-05-03T13:49:05.999Z</time></trkpt><trkpt lat="38.48279396608539" lon="16.058730256009618"><ele>158.0</ele><time>2026-05-03T13:49:06.999Z</time></trkpt><trkpt lat="38.48277431198512" lon="16.05851652611965"><ele>158.0</ele><time>2026-05-03T13:49:07.999Z</time></trkpt><trkpt lat="38.48274795076364" lon="16.058302721129213"><ele>158.0</ele><time>2026-05-03T13:49:08.999Z</time></trkpt><trkpt lat="38.48272465966927" lon="16.05809692381092"><ele>158.0</ele><time>2026-05-03T13:49:09.999Z</time></trkpt><trkpt lat="38.48273647868785" lon="16.05789381027509"><ele>156.25</ele><time>2026-05-03T13:49:10.999Z</time></trkpt><trkpt lat="38.482760099003144" lon="16.057706958739114"><ele>154.5</ele><time>2026-05-03T13:49:11.999Z</time></trkpt><trkpt lat="38.482816479110255" lon="16.057532515947088"><ele>152.75</ele><time>2026-05-03T13:49:12.999Z</time></trkpt><trkpt lat="38.482910951189304" lon="16.057395162636926"><ele>151.0</ele><time>2026-05-03T13:49:13.999Z</time></trkpt><trkpt lat="38.48303038496404" lon="16.057272041920136"><ele>150.5</ele><time>2026-05-03T13:49:14.999Z</time></trkpt><trkpt lat="38.48317575409674" lon="16.057194556582875"><ele>150.0</ele><time>2026-05-03T13:49:15.999Z</time></trkpt><trkpt lat="38.48331425212967" lon="16.057126116377237"><ele>149.5</ele><time>2026-05-03T13:49:16.999Z</time></trkpt><trkpt lat="38.48343948734185" lon="16.057054471057306"><ele>149.0</ele><time>2026-05-03T13:49:17.999Z</time></trkpt><trkpt lat="38.48356807662151" lon="16.05694950034123"><ele>149.0</ele><time>2026-05-03T13:49:18.999Z</time></trkpt><trkpt lat="38.48370779050982" lon="16.05688366582398"><ele>149.0</ele><time>2026-05-03T13:49:19.999Z</time></trkpt><trkpt lat="38.48384892650376" lon="16.056814360835244"><ele>149.0</ele><time>2026-05-03T13:49:20.999Z</time></trkpt><trkpt lat="38.483921418039586" lon="16.056714028738053"><ele>149.0</ele><time>2026-05-03T13:49:21.999Z</time></trkpt><trkpt lat="38.48401712239994" lon="16.05658974847898"><ele>147.66666666666666</ele><time>2026-05-03T13:49:22.999Z</time></trkpt><trkpt lat="38.48410273658639" lon="16.056435559357976"><ele>146.33333333333334</ele><time>2026-05-03T13:49:23.999Z</time></trkpt><trkpt lat="38.48418290654837" lon="16.05626695967435"><ele>145.0</ele><time>2026-05-03T13:49:24.999Z</time></trkpt><trkpt lat="38.48427130274688" lon="16.056108269168046"><ele>145.0</ele><time>2026-05-03T13:49:25.999Z</time></trkpt><trkpt lat="38.48436768875325" lon="16.055976997504725"><ele>145.0</ele><time>2026-05-03T13:49:26.999Z</time></trkpt><trkpt lat="38.48449145617673" lon="16.055843065154487"><ele>145.0</ele><time>2026-05-03T13:49:27.999Z</time></trkpt><trkpt lat="38.484614627354354" lon="16.055708258053905"><ele>141.66666666666669</ele><time>2026-05-03T13:49:28.999Z</time></trkpt><trkpt lat="38.48472833591287" lon="16.055573510842567"><ele>138.33333333333334</ele><time>2026-05-03T13:49:29.999Z</time></trkpt><trkpt lat="38.48483125523989" lon="16.05541041417175"><ele>135.0</ele><time>2026-05-03T13:49:30.999Z</time></trkpt><trkpt lat="38.48491283053358" lon="16.055237504034253"><ele>135.0</ele><time>2026-05-03T13:49:31.999Z</time></trkpt><trkpt lat="38.48498396068395" lon="16.055052205911263"><ele>135.0</ele><time>2026-05-03T13:49:32.999Z</time></trkpt><trkpt lat="38.485060269055445" lon="16.054862600564896"><ele>135.0</ele><time>2026-05-03T13:49:33.999Z</time></trkpt><trkpt lat="38.48513050017046" lon="16.054682696796625"><ele>132.0</ele><time>2026-05-03T13:49:34.999Z</time></trkpt><trkpt lat="38.4851880798966" lon="16.054480449356795"><ele>129.0</ele><time>2026-05-03T13:49:35.999Z</time></trkpt><trkpt lat="38.48526631784568" lon="16.05428149396084"><ele>126.0</ele><time>2026-05-03T13:49:36.999Z</time></trkpt><trkpt lat="38.48531503300342" lon="16.054067031132224"><ele>123.33333333333334</ele><time>2026-05-03T13:49:37.999Z</time></trkpt><trkpt lat="38.485372734417254" lon="16.053860272157802"><ele>120.66666666666667</ele><time>2026-05-03T13:49:38.999Z</time></trkpt><trkpt lat="38.48542248372709" lon="16.053648382279864"><ele>118.0</ele><time>2026-05-03T13:49:39.999Z</time></trkpt><trkpt lat="38.48548110017698" lon="16.05344731121553"><ele>116.0</ele><time>2026-05-03T13:49:40.999Z</time></trkpt><trkpt lat="38.48551572932173" lon="16.053217996355958"><ele>114.0</ele><time>2026-05-03T13:49:41.999Z</time></trkpt><trkpt lat="38.48551398818372" lon="16.053017433237756"><ele>112.0</ele><time>2026-05-03T13:49:42.999Z</time></trkpt><trkpt lat="38.48552153051458" lon="16.052798122560176"><ele>112.0</ele><time>2026-05-03T13:49:43.999Z</time></trkpt><trkpt lat="38.48551600099002" lon="16.052593230076077"><ele>112.0</ele><time>2026-05-03T13:49:44.999Z</time></trkpt><trkpt lat="38.48550336711408" lon="16.05239252270037"><ele>112.0</ele><time>2026-05-03T13:49:45.999Z</time></trkpt><trkpt lat="38.48548617624514" lon="16.052203725057918"><ele>111.5</ele><time>2026-05-03T13:49:46.999Z</time></trkpt><trkpt lat="38.485450940976534" lon="16.052016589308696"><ele>111.0</ele><time>2026-05-03T13:49:47.999Z</time></trkpt><trkpt lat="38.485425226626894" lon="16.051837288442357"><ele>110.5</ele><time>2026-05-03T13:49:48.999Z</time></trkpt><trkpt lat="38.485398415569165" lon="16.051660048712275"><ele>110.0</ele><time>2026-05-03T13:49:49.999Z</time></trkpt><trkpt lat="38.485372525990655" lon="16.05149035952377"><ele>108.0</ele><time>2026-05-03T13:49:50.999Z</time></trkpt><trkpt lat="38.48535383963779" lon="16.05132797025058"><ele>106.0</ele><time>2026-05-03T13:49:51.999Z</time></trkpt><trkpt lat="38.485336874423396" lon="16.051171881075618"><ele>104.0</ele><time>2026-05-03T13:49:52.999Z</time></trkpt><trkpt lat="38.48531571616971" lon="16.051028525766384"><ele>102.0</ele><time>2026-05-03T13:49:53.999Z</time></trkpt><trkpt lat="38.48531743315114" lon="16.050892546567272"><ele>101.33333333333333</ele><time>2026-05-03T13:49:54.999Z</time></trkpt><trkpt lat="38.48531114709447" lon="16.05076740564687"><ele>100.66666666666666</ele><time>2026-05-03T13:49:55.999Z</time></trkpt><trkpt lat="38.4853072073229" lon="16.050643278082116"><ele>100.0</ele><time>2026-05-03T13:49:56.999Z</time></trkpt><trkpt lat="38.48530538512437" lon="16.05051418672695"><ele>99.33333333333333</ele><time>2026-05-03T13:49:57.999Z</time></trkpt><trkpt lat="38.48530455558404" lon="16.0504170479965"><ele>98.66666666666666</ele><time>2026-05-03T13:49:58.999Z</time></trkpt><trkpt lat="38.48530433335466" lon="16.050323444300393"><ele>98.0</ele><time>2026-05-03T13:49:59.999Z</time></trkpt><trkpt lat="38.4853040964007" lon="16.050223639516144"><ele>97.99999999999999</ele><time>2026-05-03T13:50:00.999Z</time></trkpt><trkpt lat="38.48530383803434" lon="16.050114815238402"><ele>98.0</ele><time>2026-05-03T13:50:01.999Z</time></trkpt><trkpt lat="38.48529604679237" lon="16.05000313066695"><ele>98.0</ele><time>2026-05-03T13:50:02.999Z</time></trkpt><trkpt lat="38.4853304023749" lon="16.04989911207724"><ele>98.0</ele><time>2026-05-03T13:50:03.999Z</time></trkpt><trkpt lat="38.48536378727864" lon="16.049803270537527"><ele>97.99999999999999</ele><time>2026-05-03T13:50:04.999Z</time></trkpt><trkpt lat="38.48540234135585" lon="16.04972277186076"><ele>98.0</ele><time>2026-05-03T13:50:05.999Z</time></trkpt><trkpt lat="38.485440005618834" lon="16.049625591881934"><ele>99.4</ele><time>2026-05-03T13:50:06.999Z</time></trkpt><trkpt lat="38.48547945372109" lon="16.049527791500417"><ele>100.80000000000001</ele><time>2026-05-03T13:50:07.999Z</time></trkpt><trkpt lat="38.48549468458924" lon="16.049402594002718"><ele>102.2</ele><time>2026-05-03T13:50:08.999Z</time></trkpt><trkpt lat="38.485527394253246" lon="16.049312068968035"><ele>103.6</ele><time>2026-05-03T13:50:09.999Z</time></trkpt><trkpt lat="38.48555583573748" lon="16.04920338598341"><ele>105.0</ele><time>2026-05-03T13:50:11.999Z</time></trkpt><trkpt lat="38.485444715737835" lon="16.049142188977292"><ele>104.33333333333333</ele><time>2026-05-03T13:50:14.999Z</time></trkpt><trkpt lat="38.4853829198737" lon="16.04918889293082"><ele>103.66666666666666</ele><time>2026-05-03T13:50:15.999Z</time></trkpt><trkpt lat="38.48532858425974" lon="16.04923298372934"><ele>103.0</ele><time>2026-05-03T13:50:16.999Z</time></trkpt><trkpt lat="38.48524887988135" lon="16.049290790254375"><ele>102.33333333333333</ele><time>2026-05-03T13:50:19.999Z</time></trkpt><trkpt lat="38.485186019215284" lon="16.04933322054434"><ele>101.66666666666666</ele><time>2026-05-03T13:50:20.999Z</time></trkpt><trkpt lat="38.485103565718795" lon="16.04936110430033"><ele>101.0</ele><time>2026-05-03T13:50:21.999Z</time></trkpt><trkpt lat="38.48499209645003" lon="16.049294143757017"><ele>101.0</ele><time>2026-05-03T13:50:22.998Z</time></trkpt><trkpt lat="38.48488672224156" lon="16.04927621902468"><ele>101.0</ele><time>2026-05-03T13:50:23.998Z</time></trkpt><trkpt lat="38.48476214203213" lon="16.049234675999497"><ele>101.0</ele><time>2026-05-03T13:50:24.998Z</time></trkpt><trkpt lat="38.4846295771388" lon="16.049195856706607"><ele>101.0</ele><time>2026-05-03T13:50:25.998Z</time></trkpt><trkpt lat="38.48449570968912" lon="16.049162351424584"><ele>107.0</ele><time>2026-05-03T13:50:26.998Z</time></trkpt><trkpt lat="38.4843439909499" lon="16.049118681563687"><ele>113.0</ele><time>2026-05-03T13:50:27.999Z</time></trkpt><trkpt lat="38.48418644431224" lon="16.04906516953856"><ele>119.0</ele><time>2026-05-03T13:50:28.999Z</time></trkpt><trkpt lat="38.48402794523786" lon="16.04902383366173"><ele>119.0</ele><time>2026-05-03T13:50:29.999Z</time></trkpt><trkpt lat="38.48386599446517" lon="16.048980102235802"><ele>119.0</ele><time>2026-05-03T13:50:30.999Z</time></trkpt><trkpt lat="38.48371784301478" lon="16.0489353858758"><ele>119.0</ele><time>2026-05-03T13:50:31.999Z</time></trkpt><trkpt lat="38.48359581089525" lon="16.048862126724497"><ele>114.25</ele><time>2026-05-03T13:50:32.999Z</time></trkpt><trkpt lat="38.48348908702153" lon="16.048785307402518"><ele>109.5</ele><time>2026-05-03T13:50:33.999Z</time></trkpt><trkpt lat="38.483395579101895" lon="16.048693158896246"><ele>104.75</ele><time>2026-05-03T13:50:34.999Z</time></trkpt><trkpt lat="38.48330091570472" lon="16.0485606595151"><ele>100.0</ele><time>2026-05-03T13:50:35.999Z</time></trkpt><trkpt lat="38.4832058759709" lon="16.048421318239644"><ele>103.33333333333334</ele><time>2026-05-03T13:50:36.999Z</time></trkpt><trkpt lat="38.48309416876384" lon="16.048257244656437"><ele>106.66666666666666</ele><time>2026-05-03T13:50:37.999Z</time></trkpt><trkpt lat="38.48298823485076" lon="16.048100016728483"><ele>110.0</ele><time>2026-05-03T13:50:38.999Z</time></trkpt><trkpt lat="38.48289216703028" lon="16.047946163513487"><ele>101.66666666666666</ele><time>2026-05-03T13:50:39.999Z</time></trkpt><trkpt lat="38.48279320507721" lon="16.04778923141844"><ele>93.33333333333333</ele><time>2026-05-03T13:50:40.999Z</time></trkpt><trkpt lat="38.48272969287565" lon="16.047622979209375"><ele>85.0</ele><time>2026-05-03T13:50:41.999Z</time></trkpt><trkpt lat="38.48267171971425" lon="16.04744261462542"><ele>84.33333333333333</ele><time>2026-05-03T13:50:42.999Z</time></trkpt><trkpt lat="38.48262980805088" lon="16.047243513339808"><ele>83.66666666666667</ele><time>2026-05-03T13:50:43.999Z</time></trkpt><trkpt lat="38.48259689230781" lon="16.047014191406173"><ele>83.0</ele><time>2026-05-03T13:50:44.999Z</time></trkpt><trkpt lat="38.482559914700474" lon="16.046757462722763"><ele>82.66666666666667</ele><time>2026-05-03T13:50:45.999Z</time></trkpt><trkpt lat="38.48250131269727" lon="16.0464972122783"><ele>82.33333333333333</ele><time>2026-05-03T13:50:46.999Z</time></trkpt><trkpt lat="38.48244306252584" lon="16.04622628833593"><ele>82.0</ele><time>2026-05-03T13:50:47.999Z</time></trkpt><trkpt lat="38.482348308682226" lon="16.045938489207593"><ele>84.0</ele><time>2026-05-03T13:50:48.999Z</time></trkpt><trkpt lat="38.48223712610834" lon="16.045661497606762"><ele>86.0</ele><time>2026-05-03T13:50:49.999Z</time></trkpt><trkpt lat="38.48213434969177" lon="16.045415976594995"><ele>85.66666666666667</ele><time>2026-05-03T13:50:50.999Z</time></trkpt><trkpt lat="38.482037459004125" lon="16.045181754680446"><ele>85.33333333333333</ele><time>2026-05-03T13:50:51.999Z</time></trkpt><trkpt lat="38.481944221253364" lon="16.044958314982335"><ele>85.0</ele><time>2026-05-03T13:50:52.999Z</time></trkpt><trkpt lat="38.481833172920595" lon="16.044749361249835"><ele>85.0</ele><time>2026-05-03T13:50:53.999Z</time></trkpt><trkpt lat="38.48168562613332" lon="16.04455747884861"><ele>85.0</ele><time>2026-05-03T13:50:54.999Z</time></trkpt><trkpt lat="38.481508423496976" lon="16.04440242183809"><ele>85.0</ele><time>2026-05-03T13:50:55.999Z</time></trkpt><trkpt lat="38.4813135139976" lon="16.04427666827496"><ele>79.5</ele><time>2026-05-03T13:50:56.999Z</time></trkpt><trkpt lat="38.48109100159053" lon="16.04418249833485"><ele>74.0</ele><time>2026-05-03T13:50:57.999Z</time></trkpt><trkpt lat="38.4808466964188" lon="16.04411322885597"><ele>81.5</ele><time>2026-05-03T13:50:58.999Z</time></trkpt><trkpt lat="38.48060912047432" lon="16.044034552431665"><ele>89.0</ele><time>2026-05-03T13:50:59.999Z</time></trkpt><trkpt lat="38.48038389114116" lon="16.04395423824774"><ele>89.0</ele><time>2026-05-03T13:51:00.999Z</time></trkpt><trkpt lat="38.480154565626066" lon="16.043891875127965"><ele>89.0</ele><time>2026-05-03T13:51:01.999Z</time></trkpt><trkpt lat="38.479918639470206" lon="16.043859046190377"><ele>89.0</ele><time>2026-05-03T13:51:02.999Z</time></trkpt><trkpt lat="38.479681983684664" lon="16.04385759555098"><ele>89.0</ele><time>2026-05-03T13:51:03.999Z</time></trkpt><trkpt lat="38.47946382641134" lon="16.04386213497008"><ele>86.66666666666667</ele><time>2026-05-03T13:51:04.999Z</time></trkpt><trkpt lat="38.47926446269617" lon="16.043862305795827"><ele>84.33333333333333</ele><time>2026-05-03T13:51:05.999Z</time></trkpt><trkpt lat="38.4790814138235" lon="16.043823026020785"><ele>82.0</ele><time>2026-05-03T13:51:06.999Z</time></trkpt><trkpt lat="38.478890207745444" lon="16.04373979665515"><ele>76.33333333333333</ele><time>2026-05-03T13:51:07.999Z</time></trkpt><trkpt lat="38.478708896074615" lon="16.04360710538952"><ele>70.66666666666667</ele><time>2026-05-03T13:51:08.999Z</time></trkpt><trkpt lat="38.47853663081306" lon="16.04346152500162"><ele>65.0</ele><time>2026-05-03T13:51:09.999Z</time></trkpt><trkpt lat="38.478367484867476" lon="16.04331235841654"><ele>70.0</ele><time>2026-05-03T13:51:10.999Z</time></trkpt><trkpt lat="38.478212632883896" lon="16.04316168144201"><ele>75.0</ele><time>2026-05-03T13:51:11.999Z</time></trkpt><trkpt lat="38.47807574998681" lon="16.043013278080995"><ele>80.0</ele><time>2026-05-03T13:51:12.999Z</time></trkpt><trkpt lat="38.47795160729543" lon="16.04286259105721"><ele>72.66666666666667</ele><time>2026-05-03T13:51:13.999Z</time></trkpt><trkpt lat="38.47782413478931" lon="16.04270232392926"><ele>65.33333333333333</ele><time>2026-05-03T13:51:14.999Z</time></trkpt><trkpt lat="38.47769282943123" lon="16.04253150232066"><ele>58.0</ele><time>2026-05-03T13:51:15.999Z</time></trkpt><trkpt lat="38.477573822439474" lon="16.04237332321346"><ele>58.0</ele><time>2026-05-03T13:51:16.999Z</time></trkpt><trkpt lat="38.47745262493825" lon="16.0422589929517"><ele>58.0</ele><time>2026-05-03T13:51:17.999Z</time></trkpt><trkpt lat="38.47733959903201" lon="16.042145838722405"><ele>58.0</ele><time>2026-05-03T13:51:18.999Z</time></trkpt><trkpt lat="38.477212622405716" lon="16.04205109065062"><ele>58.0</ele><time>2026-05-03T13:51:19.999Z</time></trkpt><trkpt lat="38.47706316617282" lon="16.041962028807433"><ele>57.0</ele><time>2026-05-03T13:51:20.999Z</time></trkpt><trkpt lat="38.476903342841254" lon="16.041875271801636"><ele>56.0</ele><time>2026-05-03T13:51:21.999Z</time></trkpt><trkpt lat="38.47674230361035" lon="16.04178824222589"><ele>55.0</ele><time>2026-05-03T13:51:22.999Z</time></trkpt><trkpt lat="38.47658353429421" lon="16.041700331133924"><ele>54.33333333333333</ele><time>2026-05-03T13:51:23.999Z</time></trkpt><trkpt lat="38.47642415807068" lon="16.0416125474635"><ele>53.66666666666667</ele><time>2026-05-03T13:51:24.999Z</time></trkpt><trkpt lat="38.47627798579589" lon="16.041508890519154"><ele>53.0</ele><time>2026-05-03T13:51:25.999Z</time></trkpt><trkpt lat="38.476146343693436" lon="16.041425474584578"><ele>54.4</ele><time>2026-05-03T13:51:26.999Z</time></trkpt><trkpt lat="38.47603037108432" lon="16.04135818804708"><ele>55.8</ele><time>2026-05-03T13:51:27.999Z</time></trkpt><trkpt lat="38.47592933570314" lon="16.04132508299238"><ele>57.2</ele><time>2026-05-03T13:51:29Z</time></trkpt><trkpt lat="38.47586790619232" lon="16.041281885750134"><ele>58.6</ele><time>2026-05-03T13:51:30Z</time></trkpt><trkpt lat="38.4757989163828" lon="16.041217154675138"><ele>60.0</ele><time>2026-05-03T13:51:32Z</time></trkpt><trkpt lat="38.47580116892729" lon="16.040910284375386"><ele>61.0</ele><time>2026-05-03T13:51:42Z</time></trkpt><trkpt lat="38.47579430911131" lon="16.040725349002575"><ele>62.0</ele><time>2026-05-03T13:51:43Z</time></trkpt><trkpt lat="38.475857184747724" lon="16.040450206263735"><ele>63.0</ele><time>2026-05-03T13:51:44Z</time></trkpt><trkpt lat="38.475872147500006" lon="16.040155756328968"><ele>62.0</ele><time>2026-05-03T13:51:45Z</time></trkpt><trkpt lat="38.47591186898163" lon="16.039889673482442"><ele>61.0</ele><time>2026-05-03T13:51:46Z</time></trkpt><trkpt lat="38.475938082942044" lon="16.039648843596787"><ele>60.0</ele><time>2026-05-03T13:51:47Z</time></trkpt><trkpt lat="38.47595939148775" lon="16.03942463518631"><ele>60.0</ele><time>2026-05-03T13:51:48Z</time></trkpt><trkpt lat="38.47597183537815" lon="16.039198394405386"><ele>60.0</ele><time>2026-05-03T13:51:49Z</time></trkpt><trkpt lat="38.475973776440505" lon="16.038968658496124"><ele>60.0</ele><time>2026-05-03T13:51:50Z</time></trkpt><trkpt lat="38.475978973650605" lon="16.038742610046434"><ele>58.66666666666667</ele><time>2026-05-03T13:51:51Z</time></trkpt><trkpt lat="38.475948587669805" lon="16.038501747895374"><ele>57.333333333333336</ele><time>2026-05-03T13:51:52Z</time></trkpt><trkpt lat="38.47591190021095" lon="16.03826348434024"><ele>56.0</ele><time>2026-05-03T13:51:53Z</time></trkpt><trkpt lat="38.4758682943058" lon="16.03803501878462"><ele>54.66666666666667</ele><time>2026-05-03T13:51:54Z</time></trkpt><trkpt lat="38.475814487830554" lon="16.03782053291348"><ele>53.33333333333333</ele><time>2026-05-03T13:51:55Z</time></trkpt><trkpt lat="38.475758672081554" lon="16.03760993956414"><ele>52.0</ele><time>2026-05-03T13:51:56Z</time></trkpt><trkpt lat="38.47570371966222" lon="16.037392446611033"><ele>51.0</ele><time>2026-05-03T13:51:57Z</time></trkpt><trkpt lat="38.4756475443268" lon="16.037170113411996"><ele>50.0</ele><time>2026-05-03T13:51:58Z</time></trkpt><trkpt lat="38.475584577794606" lon="16.03694379048609"><ele>49.0</ele><time>2026-05-03T13:51:59Z</time></trkpt><trkpt lat="38.4755145175518" lon="16.036741742461018"><ele>48.666666666666664</ele><time>2026-05-03T13:52:00Z</time></trkpt><trkpt lat="38.47546202918825" lon="16.03653976778449"><ele>48.33333333333333</ele><time>2026-05-03T13:52:01Z</time></trkpt><trkpt lat="38.47540833819239" lon="16.036338865716218"><ele>48.0</ele><time>2026-05-03T13:52:02Z</time></trkpt><trkpt lat="38.47535633936782" lon="16.03614225357029"><ele>49.5</ele><time>2026-05-03T13:52:03Z</time></trkpt><trkpt lat="38.475336440795225" lon="16.03594623447129"><ele>51.0</ele><time>2026-05-03T13:52:04Z</time></trkpt><trkpt lat="38.47533472546223" lon="16.035766683259528"><ele>52.5</ele><time>2026-05-03T13:52:05Z</time></trkpt><trkpt lat="38.475338307110356" lon="16.03558891352885"><ele>54.0</ele><time>2026-05-03T13:52:06Z</time></trkpt><trkpt lat="38.4754305078296" lon="16.035457176146082"><ele>52.5</ele><time>2026-05-03T13:52:07Z</time></trkpt><trkpt lat="38.475524167600334" lon="16.035326941498884"><ele>51.0</ele><time>2026-05-03T13:52:08Z</time></trkpt><trkpt lat="38.475635166171635" lon="16.035205213381577"><ele>49.5</ele><time>2026-05-03T13:52:09Z</time></trkpt><trkpt lat="38.47574470308142" lon="16.035065401515762"><ele>48.0</ele><time>2026-05-03T13:52:10Z</time></trkpt><trkpt lat="38.475860984589346" lon="16.03494924981826"><ele>47.666666666666664</ele><time>2026-05-03T13:52:11Z</time></trkpt><trkpt lat="38.475991799492135" lon="16.034812334250535"><ele>47.33333333333333</ele><time>2026-05-03T13:52:12Z</time></trkpt><trkpt lat="38.476130781982675" lon="16.034686566130805"><ele>47.0</ele><time>2026-05-03T13:52:13Z</time></trkpt><trkpt lat="38.47628149876644" lon="16.034564879123973"><ele>48.666666666666664</ele><time>2026-05-03T13:52:14Z</time></trkpt><trkpt lat="38.47642391036953" lon="16.034442374117916"><ele>50.33333333333333</ele><time>2026-05-03T13:52:15Z</time></trkpt><trkpt lat="38.47656939905318" lon="16.034310737939677"><ele>52.0</ele><time>2026-05-03T13:52:16Z</time></trkpt><trkpt lat="38.476706055280104" lon="16.034179223004497"><ele>50.33333333333333</ele><time>2026-05-03T13:52:17Z</time></trkpt><trkpt lat="38.47684840358371" lon="16.03403946952001"><ele>48.666666666666664</ele><time>2026-05-03T13:52:18Z</time></trkpt><trkpt lat="38.47697220251456" lon="16.033904422661333"><ele>47.0</ele><time>2026-05-03T13:52:19Z</time></trkpt><trkpt lat="38.477080707487275" lon="16.033781322546165"><ele>48.25</ele><time>2026-05-03T13:52:20Z</time></trkpt><trkpt lat="38.47717360677416" lon="16.03367312492995"><ele>49.5</ele><time>2026-05-03T13:52:21Z</time></trkpt><trkpt lat="38.47726045472513" lon="16.033576272047217"><ele>50.75</ele><time>2026-05-03T13:52:22Z</time></trkpt><trkpt lat="38.477346668934096" lon="16.033475834899942"><ele>52.0</ele><time>2026-05-03T13:52:23Z</time></trkpt><trkpt lat="38.477441871001666" lon="16.03335735500151"><ele>51.25</ele><time>2026-05-03T13:52:24Z</time></trkpt><trkpt lat="38.477539230067904" lon="16.033180195287983"><ele>50.5</ele><time>2026-05-03T13:52:25Z</time></trkpt><trkpt lat="38.47757188855483" lon="16.033023240861425"><ele>49.75</ele><time>2026-05-03T13:52:26Z</time></trkpt><trkpt lat="38.477582973092055" lon="16.032836202255123"><ele>49.0</ele><time>2026-05-03T13:52:27Z</time></trkpt><trkpt lat="38.47759278162116" lon="16.03262228371245"><ele>47.666666666666664</ele><time>2026-05-03T13:52:28Z</time></trkpt><trkpt lat="38.47761009656192" lon="16.032410260984115"><ele>46.33333333333333</ele><time>2026-05-03T13:52:28.999Z</time></trkpt><trkpt lat="38.47762182479121" lon="16.032191745505006"><ele>45.0</ele><time>2026-05-03T13:52:29.999Z</time></trkpt><trkpt lat="38.477650842787085" lon="16.031958783742947"><ele>45.0</ele><time>2026-05-03T13:52:30.999Z</time></trkpt><trkpt lat="38.4776712508957" lon="16.03172334500323"><ele>45.0</ele><time>2026-05-03T13:52:31.999Z</time></trkpt><trkpt lat="38.47768671104893" lon="16.03149171345404"><ele>45.0</ele><time>2026-05-03T13:52:32.999Z</time></trkpt><trkpt lat="38.47770321449479" lon="16.0312598881525"><ele>45.0</ele><time>2026-05-03T13:52:33.999Z</time></trkpt><trkpt lat="38.477726896290704" lon="16.03102665650758"><ele>45.0</ele><time>2026-05-03T13:52:34.999Z</time></trkpt><trkpt lat="38.47774886508966" lon="16.030782393640255"><ele>45.0</ele><time>2026-05-03T13:52:35.999Z</time></trkpt><trkpt lat="38.4777668293964" lon="16.0305383333986"><ele>45.333333333333336</ele><time>2026-05-03T13:52:36.999Z</time></trkpt><trkpt lat="38.47778733796315" lon="16.030292121744868"><ele>45.66666666666667</ele><time>2026-05-03T13:52:37.999Z</time></trkpt><trkpt lat="38.477811496504124" lon="16.03004044769791"><ele>46.0</ele><time>2026-05-03T13:52:38.999Z</time></trkpt><trkpt lat="38.477852934887856" lon="16.029785619968997"><ele>46.0</ele><time>2026-05-03T13:52:39.999Z</time></trkpt><trkpt lat="38.47787163021097" lon="16.02951646872183"><ele>46.0</ele><time>2026-05-03T13:52:40.999Z</time></trkpt><trkpt lat="38.47787699206907" lon="16.029244059301668"><ele>46.0</ele><time>2026-05-03T13:52:41.999Z</time></trkpt><trkpt lat="38.47787329463336" lon="16.0289758932244"><ele>45.333333333333336</ele><time>2026-05-03T13:52:42.999Z</time></trkpt><trkpt lat="38.4778657339625" lon="16.028713078210142"><ele>44.666666666666664</ele><time>2026-05-03T13:52:43.999Z</time></trkpt><trkpt lat="38.47785408010777" lon="16.028442144069125"><ele>44.0</ele><time>2026-05-03T13:52:44.999Z</time></trkpt><trkpt lat="38.47783699531672" lon="16.028184137761553"><ele>44.0</ele><time>2026-05-03T13:52:45.999Z</time></trkpt><trkpt lat="38.47782183362851" lon="16.02794169191093"><ele>44.0</ele><time>2026-05-03T13:52:46.999Z</time></trkpt><trkpt lat="38.47780916998907" lon="16.027692491925087"><ele>44.0</ele><time>2026-05-03T13:52:47.999Z</time></trkpt><trkpt lat="38.47779304197144" lon="16.02743872844509"><ele>44.0</ele><time>2026-05-03T13:52:48.999Z</time></trkpt><trkpt lat="38.47777516505591" lon="16.027188759033436"><ele>44.0</ele><time>2026-05-03T13:52:49.999Z</time></trkpt><trkpt lat="38.477753172969145" lon="16.026937418325993"><ele>44.0</ele><time>2026-05-03T13:52:50.999Z</time></trkpt><trkpt lat="38.477689752622" lon="16.026676390328422"><ele>43.666666666666664</ele><time>2026-05-03T13:52:51.999Z</time></trkpt><trkpt lat="38.47765460463726" lon="16.026462587382298"><ele>43.333333333333336</ele><time>2026-05-03T13:52:52.999Z</time></trkpt><trkpt lat="38.47762865351488" lon="16.02623734289091"><ele>43.0</ele><time>2026-05-03T13:52:53.999Z</time></trkpt><trkpt lat="38.47759180351138" lon="16.02601367512766"><ele>43.0</ele><time>2026-05-03T13:52:54.999Z</time></trkpt><trkpt lat="38.47755833212779" lon="16.02579701429977"><ele>43.0</ele><time>2026-05-03T13:52:55.999Z</time></trkpt><trkpt lat="38.477521903217344" lon="16.025576528015698"><ele>43.0</ele><time>2026-05-03T13:52:56.999Z</time></trkpt><trkpt lat="38.477481119115986" lon="16.02535465119635"><ele>43.0</ele><time>2026-05-03T13:52:58Z</time></trkpt><trkpt lat="38.47743415555222" lon="16.025134511341303"><ele>43.0</ele><time>2026-05-03T13:52:59Z</time></trkpt><trkpt lat="38.47737140875643" lon="16.024905974516933"><ele>43.0</ele><time>2026-05-03T13:53:00Z</time></trkpt><trkpt lat="38.477286884704256" lon="16.02468836535584"><ele>43.0</ele><time>2026-05-03T13:53:01Z</time></trkpt><trkpt lat="38.47721214539411" lon="16.024461307483428"><ele>43.0</ele><time>2026-05-03T13:53:02Z</time></trkpt><trkpt lat="38.47712974369865" lon="16.02423649131203"><ele>43.0</ele><time>2026-05-03T13:53:03Z</time></trkpt><trkpt lat="38.477058077387234" lon="16.02400532059157"><ele>43.0</ele><time>2026-05-03T13:53:04Z</time></trkpt><trkpt lat="38.476968167150694" lon="16.023789278979876"><ele>43.0</ele><time>2026-05-03T13:53:05Z</time></trkpt><trkpt lat="38.47686285257361" lon="16.023580726704253"><ele>43.0</ele><time>2026-05-03T13:53:06Z</time></trkpt><trkpt lat="38.47677377478443" lon="16.023363436420034"><ele>42.66666666666667</ele><time>2026-05-03T13:53:07Z</time></trkpt><trkpt lat="38.47669554164034" lon="16.02313749692878"><ele>42.333333333333336</ele><time>2026-05-03T13:53:08Z</time></trkpt><trkpt lat="38.476599256394096" lon="16.02292513423613"><ele>42.0</ele><time>2026-05-03T13:53:09Z</time></trkpt><trkpt lat="38.47650446080579" lon="16.022722175226342"><ele>42.0</ele><time>2026-05-03T13:53:10Z</time></trkpt><trkpt lat="38.47640118459508" lon="16.02253738110565"><ele>42.0</ele><time>2026-05-03T13:53:11Z</time></trkpt><trkpt lat="38.47632711752354" lon="16.02234578189607"><ele>42.0</ele><time>2026-05-03T13:53:12Z</time></trkpt><trkpt lat="38.47624268950925" lon="16.022166801079337"><ele>42.75</ele><time>2026-05-03T13:53:13Z</time></trkpt><trkpt lat="38.476167843811965" lon="16.022008134327216"><ele>43.5</ele><time>2026-05-03T13:53:14Z</time></trkpt><trkpt lat="38.476097697611706" lon="16.02185942985999"><ele>44.25</ele><time>2026-05-03T13:53:15Z</time></trkpt><trkpt lat="38.4760159207593" lon="16.02172838669725"><ele>45.0</ele><time>2026-05-03T13:53:16Z</time></trkpt><trkpt lat="38.47595098311398" lon="16.021592520759224"><ele>45.0</ele><time>2026-05-03T13:53:17Z</time></trkpt><trkpt lat="38.475893040572124" lon="16.021477596845305"><ele>45.0</ele><time>2026-05-03T13:53:18Z</time></trkpt><trkpt lat="38.47583235692028" lon="16.021367683751862"><ele>45.0</ele><time>2026-05-03T13:53:19Z</time></trkpt><trkpt lat="38.47577701627502" lon="16.02127181209357"><ele>45.0</ele><time>2026-05-03T13:53:20Z</time></trkpt><trkpt lat="38.47573575821086" lon="16.021199648255436"><ele>45.0</ele><time>2026-05-03T13:53:21Z</time></trkpt><trkpt lat="38.47569097697171" lon="16.021131768751196"><ele>45.0</ele><time>2026-05-03T13:53:23Z</time></trkpt><trkpt lat="38.475628085432504" lon="16.02108461164192"><ele>45.0</ele><time>2026-05-03T13:53:26Z</time></trkpt><trkpt lat="38.47555713722173" lon="16.02112641621653"><ele>45.0</ele><time>2026-05-03T13:53:28Z</time></trkpt><trkpt lat="38.47545466775367" lon="16.021212208563345"><ele>45.0</ele><time>2026-05-03T13:53:30Z</time></trkpt><trkpt lat="38.47539445783192" lon="16.021261429608828"><ele>45.0</ele><time>2026-05-03T13:53:31Z</time></trkpt><trkpt lat="38.47532379734069" lon="16.021316146045244"><ele>45.0</ele><time>2026-05-03T13:53:32Z</time></trkpt><trkpt lat="38.475235112438845" lon="16.021374081126726"><ele>45.0</ele><time>2026-05-03T13:53:33Z</time></trkpt><trkpt lat="38.47517078117383" lon="16.02139439260505"><ele>45.0</ele><time>2026-05-03T13:53:34Z</time></trkpt><trkpt lat="38.475108329614095" lon="16.021442091965344"><ele>45.0</ele><time>2026-05-03T13:53:35Z</time></trkpt><trkpt lat="38.47502604736231" lon="16.021534281632075"><ele>45.0</ele><time>2026-05-03T13:53:36Z</time></trkpt><trkpt lat="38.474943685580335" lon="16.021589126722073"><ele>45.0</ele><time>2026-05-03T13:53:38Z</time></trkpt><trkpt lat="38.47487069178924" lon="16.02160644421493"><ele>45.0</ele><time>2026-05-03T13:53:40Z</time></trkpt><trkpt lat="38.47483386611967" lon="16.021452712633327"><ele>45.0</ele><time>2026-05-03T13:53:41Z</time></trkpt><trkpt lat="38.47478067039672" lon="16.021361528404388"><ele>45.0</ele><time>2026-05-03T13:53:42Z</time></trkpt><trkpt lat="38.47472027374156" lon="16.021260942622234"><ele>45.0</ele><time>2026-05-03T13:53:43Z</time></trkpt><trkpt lat="38.47465937597829" lon="16.02116296229684"><ele>45.0</ele><time>2026-05-03T13:53:44Z</time></trkpt><trkpt lat="38.47459531498562" lon="16.021063270865007"><ele>45.0</ele><time>2026-05-03T13:53:45Z</time></trkpt><trkpt lat="38.47452108880077" lon="16.02098606229391"><ele>45.0</ele><time>2026-05-03T13:53:46Z</time></trkpt><trkpt lat="38.47444504754446" lon="16.020874273683884"><ele>45.0</ele><time>2026-05-03T13:53:47Z</time></trkpt><trkpt lat="38.4743534523461" lon="16.020733723777237"><ele>45.0</ele><time>2026-05-03T13:53:48Z</time></trkpt><trkpt lat="38.474237174095286" lon="16.020582601153816"><ele>45.0</ele><time>2026-05-03T13:53:49Z</time></trkpt><trkpt lat="38.47410164653955" lon="16.02040646102617"><ele>45.0</ele><time>2026-05-03T13:53:50Z</time></trkpt><trkpt lat="38.47396641594066" lon="16.020231290668942"><ele>45.0</ele><time>2026-05-03T13:53:51Z</time></trkpt><trkpt lat="38.47381160199428" lon="16.02003114809377"><ele>45.0</ele><time>2026-05-03T13:53:52Z</time></trkpt><trkpt lat="38.473660121480755" lon="16.01983531512488"><ele>45.333333333333336</ele><time>2026-05-03T13:53:53Z</time></trkpt><trkpt lat="38.473514983024195" lon="16.019647707888772"><ele>45.66666666666667</ele><time>2026-05-03T13:53:54Z</time></trkpt><trkpt lat="38.47337328735683" lon="16.019464564119694"><ele>46.0</ele><time>2026-05-03T13:53:55Z</time></trkpt><trkpt lat="38.473225977161874" lon="16.019274162124873"><ele>45.5</ele><time>2026-05-03T13:53:56Z</time></trkpt><trkpt lat="38.47307103077816" lon="16.019074713505027"><ele>45.0</ele><time>2026-05-03T13:53:57Z</time></trkpt><trkpt lat="38.47290752810732" lon="16.018864083518285"><ele>46.0</ele><time>2026-05-03T13:53:58Z</time></trkpt><trkpt lat="38.47272827096879" lon="16.01863315833472"><ele>47.0</ele><time>2026-05-03T13:53:59Z</time></trkpt><trkpt lat="38.47256332600096" lon="16.01842067029541"><ele>46.666666666666664</ele><time>2026-05-03T13:54:00Z</time></trkpt><trkpt lat="38.47240240182293" lon="16.018213362110608"><ele>46.333333333333336</ele><time>2026-05-03T13:54:01Z</time></trkpt><trkpt lat="38.47224882857404" lon="16.01801555442175"><ele>46.0</ele><time>2026-05-03T13:54:02Z</time></trkpt><trkpt lat="38.47209093052961" lon="16.01781231648792"><ele>46.66666666666667</ele><time>2026-05-03T13:54:03Z</time></trkpt><trkpt lat="38.47193509396921" lon="16.017639074289523"><ele>47.333333333333336</ele><time>2026-05-03T13:54:04Z</time></trkpt><trkpt lat="38.47178749197205" lon="16.017449928147588"><ele>48.0</ele><time>2026-05-03T13:54:05Z</time></trkpt><trkpt lat="38.47163809139785" lon="16.01725180366209"><ele>48.0</ele><time>2026-05-03T13:54:06Z</time></trkpt><trkpt lat="38.471478430566485" lon="16.017049302973426"><ele>48.0</ele><time>2026-05-03T13:54:07Z</time></trkpt><trkpt lat="38.471324389519715" lon="16.016824778493657"><ele>48.0</ele><time>2026-05-03T13:54:08Z</time></trkpt><trkpt lat="38.471149095618046" lon="16.016597574063834"><ele>48.0</ele><time>2026-05-03T13:54:09Z</time></trkpt><trkpt lat="38.47095888044009" lon="16.01635102951415"><ele>48.0</ele><time>2026-05-03T13:54:10Z</time></trkpt><trkpt lat="38.47076143995345" lon="16.01609518082612"><ele>48.0</ele><time>2026-05-03T13:54:11Z</time></trkpt><trkpt lat="38.47055033713006" lon="16.015821848165864"><ele>48.5</ele><time>2026-05-03T13:54:12Z</time></trkpt><trkpt lat="38.47035418920834" lon="16.015568527695873"><ele>49.0</ele><time>2026-05-03T13:54:13Z</time></trkpt><trkpt lat="38.47018145602687" lon="16.015345661151972"><ele>49.0</ele><time>2026-05-03T13:54:14Z</time></trkpt><trkpt lat="38.47001672940629" lon="16.015133061387285"><ele>49.0</ele><time>2026-05-03T13:54:15Z</time></trkpt><trkpt lat="38.469853045874686" lon="16.01492171479252"><ele>48.5</ele><time>2026-05-03T13:54:16Z</time></trkpt><trkpt lat="38.46968840923004" lon="16.01470913723012"><ele>48.0</ele><time>2026-05-03T13:54:17Z</time></trkpt><trkpt lat="38.469526609752755" lon="16.01450022339399"><ele>48.0</ele><time>2026-05-03T13:54:18Z</time></trkpt><trkpt lat="38.46936322643663" lon="16.014289264239817"><ele>48.0</ele><time>2026-05-03T13:54:19Z</time></trkpt><trkpt lat="38.46919839961566" lon="16.01407644131494"><ele>47.5</ele><time>2026-05-03T13:54:20Z</time></trkpt><trkpt lat="38.46903321073397" lon="16.013863150914908"><ele>47.0</ele><time>2026-05-03T13:54:21Z</time></trkpt><trkpt lat="38.468853115013474" lon="16.013660525094366"><ele>47.5</ele><time>2026-05-03T13:54:22Z</time></trkpt><trkpt lat="38.46868651619995" lon="16.013446948476695"><ele>48.0</ele><time>2026-05-03T13:54:23Z</time></trkpt><trkpt lat="38.46852641196153" lon="16.013236435525283"><ele>48.33333333333333</ele><time>2026-05-03T13:54:24Z</time></trkpt><trkpt lat="38.468373695682686" lon="16.013040548824943"><ele>48.666666666666664</ele><time>2026-05-03T13:54:25Z</time></trkpt><trkpt lat="38.46822070061757" lon="16.012845608669785"><ele>49.0</ele><time>2026-05-03T13:54:26Z</time></trkpt><trkpt lat="38.46806416279904" lon="16.012645459918037"><ele>49.0</ele><time>2026-05-03T13:54:27Z</time></trkpt><trkpt lat="38.46792564193429" lon="16.01244045114941"><ele>49.0</ele><time>2026-05-03T13:54:28Z</time></trkpt><trkpt lat="38.467769260067364" lon="16.01226708666249"><ele>49.0</ele><time>2026-05-03T13:54:29Z</time></trkpt><trkpt lat="38.46764751884134" lon="16.01207854696713"><ele>49.0</ele><time>2026-05-03T13:54:30Z</time></trkpt><trkpt lat="38.467519591031085" lon="16.011913713294582"><ele>49.0</ele><time>2026-05-03T13:54:31Z</time></trkpt><trkpt lat="38.46739698592454" lon="16.011748845516987"><ele>49.0</ele><time>2026-05-03T13:54:32Z</time></trkpt><trkpt lat="38.46727574624357" lon="16.011585939820034"><ele>49.33333333333333</ele><time>2026-05-03T13:54:33Z</time></trkpt><trkpt lat="38.4671632236635" lon="16.01143474720377"><ele>49.66666666666667</ele><time>2026-05-03T13:54:34Z</time></trkpt><trkpt lat="38.46705323202188" lon="16.011284930385283"><ele>50.0</ele><time>2026-05-03T13:54:34.999Z</time></trkpt><trkpt lat="38.46695091939067" lon="16.011137845311616"><ele>50.0</ele><time>2026-05-03T13:54:35.999Z</time></trkpt><trkpt lat="38.46685500110723" lon="16.010996643504093"><ele>50.0</ele><time>2026-05-03T13:54:36.999Z</time></trkpt><trkpt lat="38.4667734258333" lon="16.01086086275187"><ele>50.0</ele><time>2026-05-03T13:54:37.999Z</time></trkpt><trkpt lat="38.466706730576966" lon="16.01073222853196"><ele>50.0</ele><time>2026-05-03T13:54:38.999Z</time></trkpt><trkpt lat="38.4666495473559" lon="16.010619347352684"><ele>49.5</ele><time>2026-05-03T13:54:39.999Z</time></trkpt><trkpt lat="38.466597709086514" lon="16.01051179382588"><ele>49.0</ele><time>2026-05-03T13:54:40.999Z</time></trkpt><trkpt lat="38.466586584821876" lon="16.010380723690666"><ele>48.5</ele><time>2026-05-03T13:54:41.999Z</time></trkpt><trkpt lat="38.46660089726353" lon="16.010221109537056"><ele>48.0</ele><time>2026-05-03T13:54:42.999Z</time></trkpt><trkpt lat="38.46661498225042" lon="16.010061843059272"><ele>48.25</ele><time>2026-05-03T13:54:43.999Z</time></trkpt><trkpt lat="38.46662147462003" lon="16.009919822600203"><ele>48.5</ele><time>2026-05-03T13:54:44.999Z</time></trkpt><trkpt lat="38.46657958037775" lon="16.009816035325013"><ele>48.75</ele><time>2026-05-03T13:54:45.999Z</time></trkpt><trkpt lat="38.466723148450846" lon="16.0096834319328"><ele>49.0</ele><time>2026-05-03T13:54:46.999Z</time></trkpt><trkpt lat="38.466812917560176" lon="16.00956271022016"><ele>49.0</ele><time>2026-05-03T13:54:47.999Z</time></trkpt><trkpt lat="38.466904062644126" lon="16.00940903318385"><ele>49.0</ele><time>2026-05-03T13:54:48.999Z</time></trkpt><trkpt lat="38.4670176288971" lon="16.009272048969354"><ele>49.0</ele><time>2026-05-03T13:54:49.999Z</time></trkpt><trkpt lat="38.46712899199017" lon="16.00912378165554"><ele>48.0</ele><time>2026-05-03T13:54:50.999Z</time></trkpt><trkpt lat="38.46723693426745" lon="16.008993378784382"><ele>47.0</ele><time>2026-05-03T13:54:51.999Z</time></trkpt><trkpt lat="38.46732874944552" lon="16.008877591557884"><ele>46.0</ele><time>2026-05-03T13:54:52.999Z</time></trkpt><trkpt lat="38.467419301314635" lon="16.00875899609916"><ele>45.0</ele><time>2026-05-03T13:54:53.999Z</time></trkpt><trkpt lat="38.46751280916585" lon="16.008632455061917"><ele>45.0</ele><time>2026-05-03T13:54:54.999Z</time></trkpt><trkpt lat="38.467612723893694" lon="16.00848993419068"><ele>45.0</ele><time>2026-05-03T13:54:55.999Z</time></trkpt><trkpt lat="38.467720048977206" lon="16.008335886486535"><ele>45.0</ele><time>2026-05-03T13:54:56.999Z</time></trkpt><trkpt lat="38.46784442809428" lon="16.00816716238661"><ele>45.333333333333336</ele><time>2026-05-03T13:54:57.999Z</time></trkpt><trkpt lat="38.467971183386325" lon="16.007994900432575"><ele>45.66666666666667</ele><time>2026-05-03T13:54:58.999Z</time></trkpt><trkpt lat="38.46809061599374" lon="16.007828143565675"><ele>46.0</ele><time>2026-05-03T13:55:00Z</time></trkpt><trkpt lat="38.46820307525749" lon="16.007671386272087"><ele>46.0</ele><time>2026-05-03T13:55:01Z</time></trkpt><trkpt lat="38.46831331977481" lon="16.007521468396735"><ele>46.0</ele><time>2026-05-03T13:55:02Z</time></trkpt><trkpt lat="38.46842805555854" lon="16.00736866276031"><ele>46.0</ele><time>2026-05-03T13:55:03Z</time></trkpt><trkpt lat="38.46854400512496" lon="16.007214345048443"><ele>46.333333333333336</ele><time>2026-05-03T13:55:04Z</time></trkpt><trkpt lat="38.46866846260931" lon="16.007059505082648"><ele>46.666666666666664</ele><time>2026-05-03T13:55:05Z</time></trkpt><trkpt lat="38.46877983350088" lon="16.006902920020075"><ele>47.0</ele><time>2026-05-03T13:55:06Z</time></trkpt><trkpt lat="38.46889760497741" lon="16.006745546894518"><ele>45.666666666666664</ele><time>2026-05-03T13:55:07Z</time></trkpt><trkpt lat="38.469019035947426" lon="16.006584628032517"><ele>44.333333333333336</ele><time>2026-05-03T13:55:08Z</time></trkpt><trkpt lat="38.46913818106246" lon="16.00642733858879"><ele>43.0</ele><time>2026-05-03T13:55:09Z</time></trkpt><trkpt lat="38.469256817033575" lon="16.006264727539726"><ele>43.0</ele><time>2026-05-03T13:55:10Z</time></trkpt><trkpt lat="38.46937585134288" lon="16.006103562571795"><ele>43.0</ele><time>2026-05-03T13:55:11Z</time></trkpt><trkpt lat="38.4694949003079" lon="16.005944057268085"><ele>43.0</ele><time>2026-05-03T13:55:12Z</time></trkpt><trkpt lat="38.469609523906826" lon="16.005787171896174"><ele>42.66666666666667</ele><time>2026-05-03T13:55:13Z</time></trkpt><trkpt lat="38.46972462756501" lon="16.005628344810006"><ele>42.333333333333336</ele><time>2026-05-03T13:55:14Z</time></trkpt><trkpt lat="38.46984138452607" lon="16.005469352387298"><ele>42.0</ele><time>2026-05-03T13:55:15Z</time></trkpt><trkpt lat="38.46995607284919" lon="16.005310932981292"><ele>42.0</ele><time>2026-05-03T13:55:16Z</time></trkpt><trkpt lat="38.47006894602851" lon="16.00515324355057"><ele>42.0</ele><time>2026-05-03T13:55:17Z</time></trkpt><trkpt lat="38.470181616380415" lon="16.004995497551096"><ele>42.0</ele><time>2026-05-03T13:55:18Z</time></trkpt><trkpt lat="38.47029892923997" lon="16.00483216967046"><ele>42.0</ele><time>2026-05-03T13:55:19Z</time></trkpt><trkpt lat="38.47043189541733" lon="16.004650960856058"><ele>42.0</ele><time>2026-05-03T13:55:20Z</time></trkpt><trkpt lat="38.47057684317634" lon="16.0044519694651"><ele>42.0</ele><time>2026-05-03T13:55:21Z</time></trkpt><trkpt lat="38.470729776269344" lon="16.004242099657628"><ele>41.0</ele><time>2026-05-03T13:55:22Z</time></trkpt><trkpt lat="38.4708857883547" lon="16.004033977482543"><ele>40.0</ele><time>2026-05-03T13:55:23Z</time></trkpt><trkpt lat="38.4710499035305" lon="16.003819499259777"><ele>40.0</ele><time>2026-05-03T13:55:24Z</time></trkpt><trkpt lat="38.471213263685854" lon="16.003601001526672"><ele>40.0</ele><time>2026-05-03T13:55:25Z</time></trkpt><trkpt lat="38.47140054163596" lon="16.003373035000827"><ele>40.0</ele><time>2026-05-03T13:55:26Z</time></trkpt><trkpt lat="38.47157239198024" lon="16.003145210564398"><ele>40.0</ele><time>2026-05-03T13:55:27Z</time></trkpt><trkpt lat="38.47171712837709" lon="16.002937943732693"><ele>40.0</ele><time>2026-05-03T13:55:28Z</time></trkpt><trkpt lat="38.47185728803156" lon="16.002760309447936"><ele>40.0</ele><time>2026-05-03T13:55:29Z</time></trkpt><trkpt lat="38.4719916474585" lon="16.002568369052327"><ele>40.0</ele><time>2026-05-03T13:55:30Z</time></trkpt><trkpt lat="38.47211409236748" lon="16.002361843472055"><ele>40.333333333333336</ele><time>2026-05-03T13:55:31Z</time></trkpt><trkpt lat="38.472252272204415" lon="16.002172302416188"><ele>40.666666666666664</ele><time>2026-05-03T13:55:32Z</time></trkpt><trkpt lat="38.472384366516124" lon="16.00198708116541"><ele>41.0</ele><time>2026-05-03T13:55:33Z</time></trkpt><trkpt lat="38.472507380144584" lon="16.001801022065262"><ele>41.0</ele><time>2026-05-03T13:55:34Z</time></trkpt><trkpt lat="38.472632778013775" lon="16.001618160768828"><ele>41.0</ele><time>2026-05-03T13:55:35Z</time></trkpt><trkpt lat="38.47275223317573" lon="16.00144547137212"><ele>41.0</ele><time>2026-05-03T13:55:36Z</time></trkpt><trkpt lat="38.47289036073396" lon="16.00127507934282"><ele>40.0</ele><time>2026-05-03T13:55:37Z</time></trkpt><trkpt lat="38.47300930914795" lon="16.00110029799719"><ele>39.0</ele><time>2026-05-03T13:55:38Z</time></trkpt><trkpt lat="38.47310656516699" lon="16.000936332145468"><ele>38.0</ele><time>2026-05-03T13:55:39Z</time></trkpt><trkpt lat="38.473213172312484" lon="16.000770504838815"><ele>38.0</ele><time>2026-05-03T13:55:40Z</time></trkpt><trkpt lat="38.47331932613375" lon="16.00061102885982"><ele>38.0</ele><time>2026-05-03T13:55:41Z</time></trkpt><trkpt lat="38.47342593551677" lon="16.000456834900184"><ele>38.0</ele><time>2026-05-03T13:55:42Z</time></trkpt><trkpt lat="38.473518904766614" lon="16.000307951738556"><ele>38.0</ele><time>2026-05-03T13:55:43Z</time></trkpt><trkpt lat="38.473629665937615" lon="16.000157883143075"><ele>38.0</ele><time>2026-05-03T13:55:44Z</time></trkpt><trkpt lat="38.47373817125704" lon="16.000024617307503"><ele>38.0</ele><time>2026-05-03T13:55:45Z</time></trkpt><trkpt lat="38.473829657247194" lon="15.999877817962016"><ele>37.0</ele><time>2026-05-03T13:55:46Z</time></trkpt><trkpt lat="38.47393397585555" lon="15.999727623383338"><ele>36.0</ele><time>2026-05-03T13:55:47Z</time></trkpt><trkpt lat="38.47403179761417" lon="15.999604420407938"><ele>35.0</ele><time>2026-05-03T13:55:48Z</time></trkpt><trkpt lat="38.47414689542558" lon="15.999422460389319"><ele>35.0</ele><time>2026-05-03T13:55:49Z</time></trkpt><trkpt lat="38.4742583404988" lon="15.999259905832828"><ele>35.0</ele><time>2026-05-03T13:55:50Z</time></trkpt><trkpt lat="38.4743671684436" lon="15.999103075073599"><ele>35.0</ele><time>2026-05-03T13:55:51Z</time></trkpt><trkpt lat="38.47446753409246" lon="15.998957293721023"><ele>35.0</ele><time>2026-05-03T13:55:52Z</time></trkpt><trkpt lat="38.47455733150927" lon="15.998826690207103"><ele>35.0</ele><time>2026-05-03T13:55:53Z</time></trkpt><trkpt lat="38.47463755141468" lon="15.99870639812779"><ele>35.0</ele><time>2026-05-03T13:55:54Z</time></trkpt><trkpt lat="38.47471676380867" lon="15.998589879694608"><ele>35.0</ele><time>2026-05-03T13:55:55Z</time></trkpt><trkpt lat="38.47479030492739" lon="15.998483557085297"><ele>35.0</ele><time>2026-05-03T13:55:56Z</time></trkpt><trkpt lat="38.47485473894352" lon="15.998393351465694"><ele>35.0</ele><time>2026-05-03T13:55:57Z</time></trkpt><trkpt lat="38.474914817115426" lon="15.998310108649568"><ele>35.0</ele><time>2026-05-03T13:55:58Z</time></trkpt><trkpt lat="38.47495892698947" lon="15.998242316820429"><ele>35.0</ele><time>2026-05-03T13:55:59Z</time></trkpt><trkpt lat="38.475011377624575" lon="15.998162098686766"><ele>35.0</ele><time>2026-05-03T13:56:01Z</time></trkpt><trkpt lat="38.475070553388065" lon="15.998091945954613"><ele>35.0</ele><time>2026-05-03T13:56:04Z</time></trkpt><trkpt lat="38.47511234633343" lon="15.99801439485366"><ele>36.0</ele><time>2026-05-03T13:56:06Z</time></trkpt></trkseg></trk></gpx>